<?xml version="1.0" encoding="UTF-8" standalone="no" ?>
<gpx xmlns="http://www.topografix.com/GPX/1/1" xmlns:xsi="http://www.w3.org/2001/XMLSchema-instance" xsi:schemaLocation="http://www.topografix.com/GPX/1/1 http://www.topografix.com/GPX/1/1/gpx.xsd" version="1.1" creator="VisuGPX - https://www.visugpx.com">
  <metadata>
    <name>Badefols 2</name>
  </metadata>
  <trk>
    <name><![CDATA[Trace 1777713168000]]></name>
    <trkseg>
      <trkpt lat="44.84128" lon="0.78487">
        <ele>95.7</ele>
        <time>2026-05-02T09:12:48.000Z</time>
      </trkpt>
      <trkpt lat="44.84128" lon="0.78487">
        <ele>95.5</ele>
        <time>2026-05-02T09:12:49.000Z</time>
      </trkpt>
      <trkpt lat="44.84129" lon="0.78487">
        <ele>96.3</ele>
        <time>2026-05-02T09:12:50.000Z</time>
      </trkpt>
      <trkpt lat="44.84129" lon="0.78486">
        <ele>96.1</ele>
        <time>2026-05-02T09:12:51.000Z</time>
      </trkpt>
      <trkpt lat="44.8413" lon="0.78485">
        <ele>96.5</ele>
        <time>2026-05-02T09:12:52.000Z</time>
      </trkpt>
      <trkpt lat="44.84131" lon="0.78485">
        <ele>96.3</ele>
        <time>2026-05-02T09:12:53.000Z</time>
      </trkpt>
      <trkpt lat="44.84132" lon="0.78486">
        <ele>96.4</ele>
        <time>2026-05-02T09:12:54.000Z</time>
      </trkpt>
      <trkpt lat="44.84133" lon="0.78486">
        <ele>96</ele>
        <time>2026-05-02T09:12:55.000Z</time>
      </trkpt>
      <trkpt lat="44.84134" lon="0.78487">
        <ele>95.9</ele>
        <time>2026-05-02T09:12:56.000Z</time>
      </trkpt>
      <trkpt lat="44.84133" lon="0.78489">
        <ele>94.7</ele>
        <time>2026-05-02T09:12:57.000Z</time>
      </trkpt>
      <trkpt lat="44.84134" lon="0.78489">
        <ele>94.8</ele>
        <time>2026-05-02T09:12:58.000Z</time>
      </trkpt>
      <trkpt lat="44.84135" lon="0.7849">
        <ele>94.8</ele>
        <time>2026-05-02T09:12:59.000Z</time>
      </trkpt>
      <trkpt lat="44.84135" lon="0.78491">
        <ele>94.7</ele>
        <time>2026-05-02T09:13:00.000Z</time>
      </trkpt>
      <trkpt lat="44.84136" lon="0.78491">
        <ele>94.1</ele>
        <time>2026-05-02T09:13:01.000Z</time>
      </trkpt>
      <trkpt lat="44.84137" lon="0.78492">
        <ele>93.2</ele>
        <time>2026-05-02T09:13:02.000Z</time>
      </trkpt>
      <trkpt lat="44.84137" lon="0.78492">
        <ele>93.9</ele>
        <time>2026-05-02T09:13:03.000Z</time>
      </trkpt>
      <trkpt lat="44.84138" lon="0.78493">
        <ele>93.8</ele>
        <time>2026-05-02T09:13:04.000Z</time>
      </trkpt>
      <trkpt lat="44.84139" lon="0.78494">
        <ele>93.2</ele>
        <time>2026-05-02T09:13:05.000Z</time>
      </trkpt>
      <trkpt lat="44.8414" lon="0.78496">
        <ele>93.2</ele>
        <time>2026-05-02T09:13:06.000Z</time>
      </trkpt>
      <trkpt lat="44.8414" lon="0.78499">
        <ele>92.9</ele>
        <time>2026-05-02T09:13:07.000Z</time>
      </trkpt>
      <trkpt lat="44.84141" lon="0.78501">
        <ele>93</ele>
        <time>2026-05-02T09:13:08.000Z</time>
      </trkpt>
      <trkpt lat="44.84141" lon="0.78503">
        <ele>93</ele>
        <time>2026-05-02T09:13:09.000Z</time>
      </trkpt>
      <trkpt lat="44.84141" lon="0.78506">
        <ele>93.2</ele>
        <time>2026-05-02T09:13:10.000Z</time>
      </trkpt>
      <trkpt lat="44.84142" lon="0.78508">
        <ele>92.7</ele>
        <time>2026-05-02T09:13:11.000Z</time>
      </trkpt>
      <trkpt lat="44.84143" lon="0.78509">
        <ele>93.5</ele>
        <time>2026-05-02T09:13:12.000Z</time>
      </trkpt>
      <trkpt lat="44.84144" lon="0.78511">
        <ele>93.8</ele>
        <time>2026-05-02T09:13:13.000Z</time>
      </trkpt>
      <trkpt lat="44.84144" lon="0.78512">
        <ele>93.7</ele>
        <time>2026-05-02T09:13:14.000Z</time>
      </trkpt>
      <trkpt lat="44.84145" lon="0.78514">
        <ele>93.2</ele>
        <time>2026-05-02T09:13:15.000Z</time>
      </trkpt>
      <trkpt lat="44.84146" lon="0.78517">
        <ele>93.1</ele>
        <time>2026-05-02T09:13:16.000Z</time>
      </trkpt>
      <trkpt lat="44.84146" lon="0.78519">
        <ele>92.6</ele>
        <time>2026-05-02T09:13:17.000Z</time>
      </trkpt>
      <trkpt lat="44.84147" lon="0.78522">
        <ele>92.7</ele>
        <time>2026-05-02T09:13:18.000Z</time>
      </trkpt>
      <trkpt lat="44.84147" lon="0.78524">
        <ele>92.6</ele>
        <time>2026-05-02T09:13:19.000Z</time>
      </trkpt>
      <trkpt lat="44.84147" lon="0.78527">
        <ele>92.8</ele>
        <time>2026-05-02T09:13:20.000Z</time>
      </trkpt>
      <trkpt lat="44.84148" lon="0.78529">
        <ele>93</ele>
        <time>2026-05-02T09:13:21.000Z</time>
      </trkpt>
      <trkpt lat="44.84148" lon="0.78531">
        <ele>92.5</ele>
        <time>2026-05-02T09:13:22.000Z</time>
      </trkpt>
      <trkpt lat="44.84148" lon="0.78533">
        <ele>92.4</ele>
        <time>2026-05-02T09:13:23.000Z</time>
      </trkpt>
      <trkpt lat="44.84148" lon="0.78535">
        <ele>91.6</ele>
        <time>2026-05-02T09:13:24.000Z</time>
      </trkpt>
      <trkpt lat="44.84148" lon="0.78536">
        <ele>90.7</ele>
        <time>2026-05-02T09:13:25.000Z</time>
      </trkpt>
      <trkpt lat="44.84148" lon="0.78538">
        <ele>90.6</ele>
        <time>2026-05-02T09:13:26.000Z</time>
      </trkpt>
      <trkpt lat="44.84148" lon="0.7854">
        <ele>90.8</ele>
        <time>2026-05-02T09:13:27.000Z</time>
      </trkpt>
      <trkpt lat="44.84148" lon="0.78542">
        <ele>90.2</ele>
        <time>2026-05-02T09:13:28.000Z</time>
      </trkpt>
      <trkpt lat="44.84148" lon="0.78544">
        <ele>90.1</ele>
        <time>2026-05-02T09:13:29.000Z</time>
      </trkpt>
      <trkpt lat="44.84148" lon="0.78546">
        <ele>90.2</ele>
        <time>2026-05-02T09:13:30.000Z</time>
      </trkpt>
      <trkpt lat="44.84148" lon="0.78548">
        <ele>89.5</ele>
        <time>2026-05-02T09:13:31.000Z</time>
      </trkpt>
      <trkpt lat="44.84148" lon="0.7855">
        <ele>89.7</ele>
        <time>2026-05-02T09:13:32.000Z</time>
      </trkpt>
      <trkpt lat="44.84148" lon="0.78552">
        <ele>89.8</ele>
        <time>2026-05-02T09:13:33.000Z</time>
      </trkpt>
      <trkpt lat="44.8415" lon="0.78554">
        <ele>90.1</ele>
        <time>2026-05-02T09:13:34.000Z</time>
      </trkpt>
      <trkpt lat="44.84151" lon="0.78555">
        <ele>90.2</ele>
        <time>2026-05-02T09:13:35.000Z</time>
      </trkpt>
      <trkpt lat="44.84153" lon="0.78555">
        <ele>90.8</ele>
        <time>2026-05-02T09:13:36.000Z</time>
      </trkpt>
      <trkpt lat="44.84154" lon="0.78555">
        <ele>90.3</ele>
        <time>2026-05-02T09:13:37.000Z</time>
      </trkpt>
      <trkpt lat="44.84156" lon="0.78556">
        <ele>90.1</ele>
        <time>2026-05-02T09:13:38.000Z</time>
      </trkpt>
      <trkpt lat="44.84157" lon="0.78556">
        <ele>89.2</ele>
        <time>2026-05-02T09:13:39.000Z</time>
      </trkpt>
      <trkpt lat="44.84158" lon="0.78556">
        <ele>89.4</ele>
        <time>2026-05-02T09:13:40.000Z</time>
      </trkpt>
      <trkpt lat="44.8416" lon="0.78555">
        <ele>89.1</ele>
        <time>2026-05-02T09:13:41.000Z</time>
      </trkpt>
      <trkpt lat="44.84161" lon="0.78555">
        <ele>89.1</ele>
        <time>2026-05-02T09:13:42.000Z</time>
      </trkpt>
      <trkpt lat="44.84162" lon="0.78553">
        <ele>89.5</ele>
        <time>2026-05-02T09:13:43.000Z</time>
      </trkpt>
      <trkpt lat="44.84163" lon="0.78551">
        <ele>89.1</ele>
        <time>2026-05-02T09:13:44.000Z</time>
      </trkpt>
      <trkpt lat="44.84165" lon="0.7855">
        <ele>89</ele>
        <time>2026-05-02T09:13:45.000Z</time>
      </trkpt>
      <trkpt lat="44.84166" lon="0.78549">
        <ele>88.8</ele>
        <time>2026-05-02T09:13:46.000Z</time>
      </trkpt>
      <trkpt lat="44.84167" lon="0.78547">
        <ele>88.6</ele>
        <time>2026-05-02T09:13:47.000Z</time>
      </trkpt>
      <trkpt lat="44.84168" lon="0.78546">
        <ele>88.5</ele>
        <time>2026-05-02T09:13:48.000Z</time>
      </trkpt>
      <trkpt lat="44.84169" lon="0.78545">
        <ele>88.9</ele>
        <time>2026-05-02T09:13:49.000Z</time>
      </trkpt>
      <trkpt lat="44.8417" lon="0.78543">
        <ele>88.6</ele>
        <time>2026-05-02T09:13:50.000Z</time>
      </trkpt>
      <trkpt lat="44.84171" lon="0.78542">
        <ele>88.6</ele>
        <time>2026-05-02T09:13:51.000Z</time>
      </trkpt>
      <trkpt lat="44.84172" lon="0.7854">
        <ele>88.6</ele>
        <time>2026-05-02T09:13:52.000Z</time>
      </trkpt>
      <trkpt lat="44.84172" lon="0.78538">
        <ele>88.7</ele>
        <time>2026-05-02T09:13:53.000Z</time>
      </trkpt>
      <trkpt lat="44.84173" lon="0.78537">
        <ele>88.7</ele>
        <time>2026-05-02T09:13:54.000Z</time>
      </trkpt>
      <trkpt lat="44.84175" lon="0.78536">
        <ele>88.7</ele>
        <time>2026-05-02T09:13:55.000Z</time>
      </trkpt>
      <trkpt lat="44.84176" lon="0.78535">
        <ele>88</ele>
        <time>2026-05-02T09:13:56.000Z</time>
      </trkpt>
      <trkpt lat="44.84177" lon="0.78535">
        <ele>87.7</ele>
        <time>2026-05-02T09:13:57.000Z</time>
      </trkpt>
      <trkpt lat="44.84178" lon="0.78534">
        <ele>88</ele>
        <time>2026-05-02T09:13:58.000Z</time>
      </trkpt>
      <trkpt lat="44.8418" lon="0.78533">
        <ele>88.3</ele>
        <time>2026-05-02T09:13:59.000Z</time>
      </trkpt>
      <trkpt lat="44.84181" lon="0.78531">
        <ele>87.4</ele>
        <time>2026-05-02T09:14:00.000Z</time>
      </trkpt>
      <trkpt lat="44.84182" lon="0.7853">
        <ele>87.7</ele>
        <time>2026-05-02T09:14:01.000Z</time>
      </trkpt>
      <trkpt lat="44.84183" lon="0.78529">
        <ele>87.5</ele>
        <time>2026-05-02T09:14:02.000Z</time>
      </trkpt>
      <trkpt lat="44.84184" lon="0.78528">
        <ele>87.2</ele>
        <time>2026-05-02T09:14:03.000Z</time>
      </trkpt>
      <trkpt lat="44.84186" lon="0.78527">
        <ele>87</ele>
        <time>2026-05-02T09:14:04.000Z</time>
      </trkpt>
      <trkpt lat="44.84187" lon="0.78527">
        <ele>86.8</ele>
        <time>2026-05-02T09:14:05.000Z</time>
      </trkpt>
      <trkpt lat="44.84188" lon="0.78527">
        <ele>86.8</ele>
        <time>2026-05-02T09:14:06.000Z</time>
      </trkpt>
      <trkpt lat="44.84189" lon="0.78526">
        <ele>85.6</ele>
        <time>2026-05-02T09:14:07.000Z</time>
      </trkpt>
      <trkpt lat="44.84191" lon="0.78525">
        <ele>85.1</ele>
        <time>2026-05-02T09:14:08.000Z</time>
      </trkpt>
      <trkpt lat="44.84192" lon="0.78525">
        <ele>85.6</ele>
        <time>2026-05-02T09:14:09.000Z</time>
      </trkpt>
      <trkpt lat="44.84193" lon="0.78524">
        <ele>86.5</ele>
        <time>2026-05-02T09:14:10.000Z</time>
      </trkpt>
      <trkpt lat="44.84194" lon="0.78524">
        <ele>86.9</ele>
        <time>2026-05-02T09:14:11.000Z</time>
      </trkpt>
      <trkpt lat="44.84196" lon="0.78526">
        <ele>87</ele>
        <time>2026-05-02T09:14:12.000Z</time>
      </trkpt>
      <trkpt lat="44.84197" lon="0.78527">
        <ele>87.8</ele>
        <time>2026-05-02T09:14:13.000Z</time>
      </trkpt>
      <trkpt lat="44.84198" lon="0.78528">
        <ele>87.6</ele>
        <time>2026-05-02T09:14:14.000Z</time>
      </trkpt>
      <trkpt lat="44.84198" lon="0.7853">
        <ele>87</ele>
        <time>2026-05-02T09:14:15.000Z</time>
      </trkpt>
      <trkpt lat="44.84199" lon="0.78531">
        <ele>87.3</ele>
        <time>2026-05-02T09:14:16.000Z</time>
      </trkpt>
      <trkpt lat="44.842" lon="0.78532">
        <ele>87</ele>
        <time>2026-05-02T09:14:17.000Z</time>
      </trkpt>
      <trkpt lat="44.84201" lon="0.78535">
        <ele>87.3</ele>
        <time>2026-05-02T09:14:18.000Z</time>
      </trkpt>
      <trkpt lat="44.84201" lon="0.78537">
        <ele>87.5</ele>
        <time>2026-05-02T09:14:19.000Z</time>
      </trkpt>
      <trkpt lat="44.84202" lon="0.78539">
        <ele>87.7</ele>
        <time>2026-05-02T09:14:20.000Z</time>
      </trkpt>
      <trkpt lat="44.84203" lon="0.7854">
        <ele>87.5</ele>
        <time>2026-05-02T09:14:21.000Z</time>
      </trkpt>
      <trkpt lat="44.84204" lon="0.78542">
        <ele>87.7</ele>
        <time>2026-05-02T09:14:22.000Z</time>
      </trkpt>
      <trkpt lat="44.84205" lon="0.78544">
        <ele>87.4</ele>
        <time>2026-05-02T09:14:23.000Z</time>
      </trkpt>
      <trkpt lat="44.84206" lon="0.78546">
        <ele>87.4</ele>
        <time>2026-05-02T09:14:24.000Z</time>
      </trkpt>
      <trkpt lat="44.84206" lon="0.78548">
        <ele>87.8</ele>
        <time>2026-05-02T09:14:25.000Z</time>
      </trkpt>
      <trkpt lat="44.84207" lon="0.7855">
        <ele>88</ele>
        <time>2026-05-02T09:14:26.000Z</time>
      </trkpt>
      <trkpt lat="44.84207" lon="0.78552">
        <ele>88.4</ele>
        <time>2026-05-02T09:14:27.000Z</time>
      </trkpt>
      <trkpt lat="44.84208" lon="0.78554">
        <ele>88.5</ele>
        <time>2026-05-02T09:14:28.000Z</time>
      </trkpt>
      <trkpt lat="44.84208" lon="0.78556">
        <ele>88.5</ele>
        <time>2026-05-02T09:14:29.000Z</time>
      </trkpt>
      <trkpt lat="44.84209" lon="0.78558">
        <ele>88.3</ele>
        <time>2026-05-02T09:14:30.000Z</time>
      </trkpt>
      <trkpt lat="44.84209" lon="0.7856">
        <ele>88.5</ele>
        <time>2026-05-02T09:14:31.000Z</time>
      </trkpt>
      <trkpt lat="44.8421" lon="0.78562">
        <ele>88.6</ele>
        <time>2026-05-02T09:14:32.000Z</time>
      </trkpt>
      <trkpt lat="44.8421" lon="0.78564">
        <ele>88.3</ele>
        <time>2026-05-02T09:14:33.000Z</time>
      </trkpt>
      <trkpt lat="44.8421" lon="0.78565">
        <ele>87.7</ele>
        <time>2026-05-02T09:14:34.000Z</time>
      </trkpt>
      <trkpt lat="44.84211" lon="0.78567">
        <ele>87.4</ele>
        <time>2026-05-02T09:14:35.000Z</time>
      </trkpt>
      <trkpt lat="44.84211" lon="0.78569">
        <ele>87.9</ele>
        <time>2026-05-02T09:14:36.000Z</time>
      </trkpt>
      <trkpt lat="44.84212" lon="0.78571">
        <ele>87.7</ele>
        <time>2026-05-02T09:14:37.000Z</time>
      </trkpt>
      <trkpt lat="44.84212" lon="0.78573">
        <ele>87.6</ele>
        <time>2026-05-02T09:14:38.000Z</time>
      </trkpt>
      <trkpt lat="44.84213" lon="0.78575">
        <ele>87.7</ele>
        <time>2026-05-02T09:14:39.000Z</time>
      </trkpt>
      <trkpt lat="44.84213" lon="0.78576">
        <ele>87.5</ele>
        <time>2026-05-02T09:14:40.000Z</time>
      </trkpt>
      <trkpt lat="44.84214" lon="0.78578">
        <ele>87.5</ele>
        <time>2026-05-02T09:14:41.000Z</time>
      </trkpt>
      <trkpt lat="44.84214" lon="0.7858">
        <ele>87.4</ele>
        <time>2026-05-02T09:14:42.000Z</time>
      </trkpt>
      <trkpt lat="44.84214" lon="0.78582">
        <ele>88</ele>
        <time>2026-05-02T09:14:43.000Z</time>
      </trkpt>
      <trkpt lat="44.84215" lon="0.78584">
        <ele>87.7</ele>
        <time>2026-05-02T09:14:44.000Z</time>
      </trkpt>
      <trkpt lat="44.84215" lon="0.78586">
        <ele>87.6</ele>
        <time>2026-05-02T09:14:45.000Z</time>
      </trkpt>
      <trkpt lat="44.84215" lon="0.78588">
        <ele>87.4</ele>
        <time>2026-05-02T09:14:46.000Z</time>
      </trkpt>
      <trkpt lat="44.84216" lon="0.7859">
        <ele>86.9</ele>
        <time>2026-05-02T09:14:47.000Z</time>
      </trkpt>
      <trkpt lat="44.84216" lon="0.78592">
        <ele>86.8</ele>
        <time>2026-05-02T09:14:48.000Z</time>
      </trkpt>
      <trkpt lat="44.84217" lon="0.78593">
        <ele>86.9</ele>
        <time>2026-05-02T09:14:49.000Z</time>
      </trkpt>
      <trkpt lat="44.84217" lon="0.78595">
        <ele>86.8</ele>
        <time>2026-05-02T09:14:50.000Z</time>
      </trkpt>
      <trkpt lat="44.84218" lon="0.78597">
        <ele>86.6</ele>
        <time>2026-05-02T09:14:51.000Z</time>
      </trkpt>
      <trkpt lat="44.84218" lon="0.78599">
        <ele>86.6</ele>
        <time>2026-05-02T09:14:52.000Z</time>
      </trkpt>
      <trkpt lat="44.84219" lon="0.78601">
        <ele>86.4</ele>
        <time>2026-05-02T09:14:53.000Z</time>
      </trkpt>
      <trkpt lat="44.8422" lon="0.78602">
        <ele>87</ele>
        <time>2026-05-02T09:14:54.000Z</time>
      </trkpt>
      <trkpt lat="44.8422" lon="0.78604">
        <ele>86.8</ele>
        <time>2026-05-02T09:14:55.000Z</time>
      </trkpt>
      <trkpt lat="44.8422" lon="0.78606">
        <ele>86.5</ele>
        <time>2026-05-02T09:14:56.000Z</time>
      </trkpt>
      <trkpt lat="44.84221" lon="0.78608">
        <ele>86.2</ele>
        <time>2026-05-02T09:14:57.000Z</time>
      </trkpt>
      <trkpt lat="44.84222" lon="0.7861">
        <ele>86.1</ele>
        <time>2026-05-02T09:14:58.000Z</time>
      </trkpt>
      <trkpt lat="44.84222" lon="0.78612">
        <ele>85.8</ele>
        <time>2026-05-02T09:14:59.000Z</time>
      </trkpt>
      <trkpt lat="44.84223" lon="0.78613">
        <ele>85.2</ele>
        <time>2026-05-02T09:15:00.000Z</time>
      </trkpt>
      <trkpt lat="44.84224" lon="0.78615">
        <ele>85.4</ele>
        <time>2026-05-02T09:15:01.000Z</time>
      </trkpt>
      <trkpt lat="44.84225" lon="0.78617">
        <ele>85.2</ele>
        <time>2026-05-02T09:15:02.000Z</time>
      </trkpt>
      <trkpt lat="44.84225" lon="0.78618">
        <ele>85.2</ele>
        <time>2026-05-02T09:15:03.000Z</time>
      </trkpt>
      <trkpt lat="44.84226" lon="0.7862">
        <ele>85.3</ele>
        <time>2026-05-02T09:15:04.000Z</time>
      </trkpt>
      <trkpt lat="44.84227" lon="0.78622">
        <ele>85.4</ele>
        <time>2026-05-02T09:15:05.000Z</time>
      </trkpt>
      <trkpt lat="44.84227" lon="0.78623">
        <ele>85.1</ele>
        <time>2026-05-02T09:15:06.000Z</time>
      </trkpt>
      <trkpt lat="44.84228" lon="0.78625">
        <ele>85.3</ele>
        <time>2026-05-02T09:15:07.000Z</time>
      </trkpt>
      <trkpt lat="44.84228" lon="0.78626">
        <ele>85.7</ele>
        <time>2026-05-02T09:15:08.000Z</time>
      </trkpt>
      <trkpt lat="44.84229" lon="0.78628">
        <ele>86</ele>
        <time>2026-05-02T09:15:09.000Z</time>
      </trkpt>
      <trkpt lat="44.84228" lon="0.78631">
        <ele>85.3</ele>
        <time>2026-05-02T09:15:10.000Z</time>
      </trkpt>
      <trkpt lat="44.84227" lon="0.78632">
        <ele>84.6</ele>
        <time>2026-05-02T09:15:11.000Z</time>
      </trkpt>
      <trkpt lat="44.84226" lon="0.78634">
        <ele>83.2</ele>
        <time>2026-05-02T09:15:12.000Z</time>
      </trkpt>
      <trkpt lat="44.84227" lon="0.78634">
        <ele>83.8</ele>
        <time>2026-05-02T09:15:13.000Z</time>
      </trkpt>
      <trkpt lat="44.84228" lon="0.78635">
        <ele>83.8</ele>
        <time>2026-05-02T09:15:14.000Z</time>
      </trkpt>
      <trkpt lat="44.84228" lon="0.78635">
        <ele>83.8</ele>
        <time>2026-05-02T09:15:15.000Z</time>
      </trkpt>
      <trkpt lat="44.84228" lon="0.78634">
        <ele>83.5</ele>
        <time>2026-05-02T09:15:16.000Z</time>
      </trkpt>
      <trkpt lat="44.84228" lon="0.78634">
        <ele>83.4</ele>
        <time>2026-05-02T09:15:17.000Z</time>
      </trkpt>
      <trkpt lat="44.84228" lon="0.78634">
        <ele>83.4</ele>
        <time>2026-05-02T09:15:18.000Z</time>
      </trkpt>
      <trkpt lat="44.84228" lon="0.78634">
        <ele>83.4</ele>
        <time>2026-05-02T09:15:19.000Z</time>
      </trkpt>
      <trkpt lat="44.84228" lon="0.78634">
        <ele>83.4</ele>
        <time>2026-05-02T09:15:20.000Z</time>
      </trkpt>
      <trkpt lat="44.84228" lon="0.78634">
        <ele>83.4</ele>
        <time>2026-05-02T09:15:21.000Z</time>
      </trkpt>
      <trkpt lat="44.84228" lon="0.78634">
        <ele>83.4</ele>
        <time>2026-05-02T09:15:22.000Z</time>
      </trkpt>
      <trkpt lat="44.84228" lon="0.78634">
        <ele>83.4</ele>
        <time>2026-05-02T09:15:23.000Z</time>
      </trkpt>
      <trkpt lat="44.84228" lon="0.78634">
        <ele>83.4</ele>
        <time>2026-05-02T09:15:24.000Z</time>
      </trkpt>
      <trkpt lat="44.84228" lon="0.78634">
        <ele>83.4</ele>
        <time>2026-05-02T09:15:25.000Z</time>
      </trkpt>
      <trkpt lat="44.84228" lon="0.78634">
        <ele>83.4</ele>
        <time>2026-05-02T09:15:26.000Z</time>
      </trkpt>
      <trkpt lat="44.84228" lon="0.78634">
        <ele>83.4</ele>
        <time>2026-05-02T09:15:27.000Z</time>
      </trkpt>
      <trkpt lat="44.84227" lon="0.78634">
        <ele>83</ele>
        <time>2026-05-02T09:15:28.000Z</time>
      </trkpt>
      <trkpt lat="44.84227" lon="0.78634">
        <ele>83</ele>
        <time>2026-05-02T09:15:29.000Z</time>
      </trkpt>
      <trkpt lat="44.84227" lon="0.78634">
        <ele>83</ele>
        <time>2026-05-02T09:15:30.000Z</time>
      </trkpt>
      <trkpt lat="44.84227" lon="0.78634">
        <ele>83</ele>
        <time>2026-05-02T09:15:31.000Z</time>
      </trkpt>
      <trkpt lat="44.84227" lon="0.78634">
        <ele>82.9</ele>
        <time>2026-05-02T09:15:32.000Z</time>
      </trkpt>
      <trkpt lat="44.84227" lon="0.78634">
        <ele>82.9</ele>
        <time>2026-05-02T09:15:33.000Z</time>
      </trkpt>
      <trkpt lat="44.84227" lon="0.78634">
        <ele>82.9</ele>
        <time>2026-05-02T09:15:34.000Z</time>
      </trkpt>
      <trkpt lat="44.84227" lon="0.78634">
        <ele>82.9</ele>
        <time>2026-05-02T09:15:35.000Z</time>
      </trkpt>
      <trkpt lat="44.84227" lon="0.78634">
        <ele>82.9</ele>
        <time>2026-05-02T09:15:36.000Z</time>
      </trkpt>
      <trkpt lat="44.84227" lon="0.78633">
        <ele>82.9</ele>
        <time>2026-05-02T09:15:37.000Z</time>
      </trkpt>
      <trkpt lat="44.84228" lon="0.78633">
        <ele>82.5</ele>
        <time>2026-05-02T09:15:38.000Z</time>
      </trkpt>
      <trkpt lat="44.84228" lon="0.78633">
        <ele>81.9</ele>
        <time>2026-05-02T09:15:39.000Z</time>
      </trkpt>
      <trkpt lat="44.84228" lon="0.78633">
        <ele>81.9</ele>
        <time>2026-05-02T09:15:40.000Z</time>
      </trkpt>
      <trkpt lat="44.84228" lon="0.78633">
        <ele>81.9</ele>
        <time>2026-05-02T09:15:41.000Z</time>
      </trkpt>
      <trkpt lat="44.84228" lon="0.78632">
        <ele>81.9</ele>
        <time>2026-05-02T09:15:42.000Z</time>
      </trkpt>
      <trkpt lat="44.84228" lon="0.78632">
        <ele>81.9</ele>
        <time>2026-05-02T09:15:43.000Z</time>
      </trkpt>
      <trkpt lat="44.84228" lon="0.78632">
        <ele>81.9</ele>
        <time>2026-05-02T09:15:44.000Z</time>
      </trkpt>
      <trkpt lat="44.84228" lon="0.78632">
        <ele>81.7</ele>
        <time>2026-05-02T09:15:45.000Z</time>
      </trkpt>
      <trkpt lat="44.84228" lon="0.78632">
        <ele>81.7</ele>
        <time>2026-05-02T09:15:46.000Z</time>
      </trkpt>
      <trkpt lat="44.84228" lon="0.78632">
        <ele>81.7</ele>
        <time>2026-05-02T09:15:47.000Z</time>
      </trkpt>
      <trkpt lat="44.84228" lon="0.78631">
        <ele>81.2</ele>
        <time>2026-05-02T09:15:48.000Z</time>
      </trkpt>
      <trkpt lat="44.84228" lon="0.78631">
        <ele>80.5</ele>
        <time>2026-05-02T09:15:49.000Z</time>
      </trkpt>
      <trkpt lat="44.84228" lon="0.7863">
        <ele>80.8</ele>
        <time>2026-05-02T09:15:50.000Z</time>
      </trkpt>
      <trkpt lat="44.84228" lon="0.78629">
        <ele>81.3</ele>
        <time>2026-05-02T09:15:51.000Z</time>
      </trkpt>
      <trkpt lat="44.84227" lon="0.78629">
        <ele>81.7</ele>
        <time>2026-05-02T09:15:52.000Z</time>
      </trkpt>
      <trkpt lat="44.84227" lon="0.78629">
        <ele>81.5</ele>
        <time>2026-05-02T09:15:53.000Z</time>
      </trkpt>
      <trkpt lat="44.84227" lon="0.78629">
        <ele>81.9</ele>
        <time>2026-05-02T09:15:54.000Z</time>
      </trkpt>
      <trkpt lat="44.84227" lon="0.78629">
        <ele>81.9</ele>
        <time>2026-05-02T09:15:55.000Z</time>
      </trkpt>
      <trkpt lat="44.84226" lon="0.7863">
        <ele>82.4</ele>
        <time>2026-05-02T09:15:56.000Z</time>
      </trkpt>
      <trkpt lat="44.84226" lon="0.78631">
        <ele>82.8</ele>
        <time>2026-05-02T09:15:57.000Z</time>
      </trkpt>
      <trkpt lat="44.84225" lon="0.78632">
        <ele>82.9</ele>
        <time>2026-05-02T09:15:58.000Z</time>
      </trkpt>
      <trkpt lat="44.84225" lon="0.78632">
        <ele>83.1</ele>
        <time>2026-05-02T09:15:59.000Z</time>
      </trkpt>
      <trkpt lat="44.84225" lon="0.78632">
        <ele>83.1</ele>
        <time>2026-05-02T09:16:00.000Z</time>
      </trkpt>
      <trkpt lat="44.84225" lon="0.78632">
        <ele>83.3</ele>
        <time>2026-05-02T09:16:01.000Z</time>
      </trkpt>
      <trkpt lat="44.84225" lon="0.78632">
        <ele>83.3</ele>
        <time>2026-05-02T09:16:02.000Z</time>
      </trkpt>
      <trkpt lat="44.84225" lon="0.78632">
        <ele>83.3</ele>
        <time>2026-05-02T09:16:03.000Z</time>
      </trkpt>
      <trkpt lat="44.84225" lon="0.78632">
        <ele>83.3</ele>
        <time>2026-05-02T09:16:04.000Z</time>
      </trkpt>
      <trkpt lat="44.84225" lon="0.78632">
        <ele>83.3</ele>
        <time>2026-05-02T09:16:05.000Z</time>
      </trkpt>
      <trkpt lat="44.84225" lon="0.78632">
        <ele>83.3</ele>
        <time>2026-05-02T09:16:06.000Z</time>
      </trkpt>
      <trkpt lat="44.84225" lon="0.78632">
        <ele>83.3</ele>
        <time>2026-05-02T09:16:07.000Z</time>
      </trkpt>
      <trkpt lat="44.84225" lon="0.78632">
        <ele>83.3</ele>
        <time>2026-05-02T09:16:08.000Z</time>
      </trkpt>
      <trkpt lat="44.84225" lon="0.78632">
        <ele>83.3</ele>
        <time>2026-05-02T09:16:09.000Z</time>
      </trkpt>
      <trkpt lat="44.84225" lon="0.78632">
        <ele>83.3</ele>
        <time>2026-05-02T09:16:10.000Z</time>
      </trkpt>
      <trkpt lat="44.84225" lon="0.78632">
        <ele>83.3</ele>
        <time>2026-05-02T09:16:11.000Z</time>
      </trkpt>
      <trkpt lat="44.84225" lon="0.78632">
        <ele>83.3</ele>
        <time>2026-05-02T09:16:12.000Z</time>
      </trkpt>
      <trkpt lat="44.84225" lon="0.78632">
        <ele>83.3</ele>
        <time>2026-05-02T09:16:13.000Z</time>
      </trkpt>
      <trkpt lat="44.84225" lon="0.78632">
        <ele>83.3</ele>
        <time>2026-05-02T09:16:14.000Z</time>
      </trkpt>
      <trkpt lat="44.84225" lon="0.78632">
        <ele>83.3</ele>
        <time>2026-05-02T09:16:15.000Z</time>
      </trkpt>
      <trkpt lat="44.84225" lon="0.78632">
        <ele>83.3</ele>
        <time>2026-05-02T09:16:16.000Z</time>
      </trkpt>
      <trkpt lat="44.84225" lon="0.78632">
        <ele>83.3</ele>
        <time>2026-05-02T09:16:17.000Z</time>
      </trkpt>
      <trkpt lat="44.84225" lon="0.78632">
        <ele>83.3</ele>
        <time>2026-05-02T09:16:18.000Z</time>
      </trkpt>
      <trkpt lat="44.84225" lon="0.78632">
        <ele>83.3</ele>
        <time>2026-05-02T09:16:19.000Z</time>
      </trkpt>
      <trkpt lat="44.84225" lon="0.78632">
        <ele>83.3</ele>
        <time>2026-05-02T09:16:20.000Z</time>
      </trkpt>
      <trkpt lat="44.84225" lon="0.78632">
        <ele>83.3</ele>
        <time>2026-05-02T09:16:21.000Z</time>
      </trkpt>
      <trkpt lat="44.84225" lon="0.78632">
        <ele>83.3</ele>
        <time>2026-05-02T09:16:22.000Z</time>
      </trkpt>
      <trkpt lat="44.84225" lon="0.78633">
        <ele>83.8</ele>
        <time>2026-05-02T09:16:23.000Z</time>
      </trkpt>
      <trkpt lat="44.84225" lon="0.78633">
        <ele>83.8</ele>
        <time>2026-05-02T09:16:24.000Z</time>
      </trkpt>
      <trkpt lat="44.84225" lon="0.78633">
        <ele>83.7</ele>
        <time>2026-05-02T09:16:25.000Z</time>
      </trkpt>
      <trkpt lat="44.84225" lon="0.78633">
        <ele>83.7</ele>
        <time>2026-05-02T09:16:26.000Z</time>
      </trkpt>
      <trkpt lat="44.84225" lon="0.78633">
        <ele>83.7</ele>
        <time>2026-05-02T09:16:27.000Z</time>
      </trkpt>
      <trkpt lat="44.84225" lon="0.78633">
        <ele>83.7</ele>
        <time>2026-05-02T09:16:28.000Z</time>
      </trkpt>
      <trkpt lat="44.84225" lon="0.78633">
        <ele>83.7</ele>
        <time>2026-05-02T09:16:29.000Z</time>
      </trkpt>
      <trkpt lat="44.84225" lon="0.78633">
        <ele>83.7</ele>
        <time>2026-05-02T09:16:30.000Z</time>
      </trkpt>
      <trkpt lat="44.84225" lon="0.78633">
        <ele>83.7</ele>
        <time>2026-05-02T09:16:31.000Z</time>
      </trkpt>
      <trkpt lat="44.84225" lon="0.78633">
        <ele>83.7</ele>
        <time>2026-05-02T09:16:32.000Z</time>
      </trkpt>
      <trkpt lat="44.84225" lon="0.78633">
        <ele>83.7</ele>
        <time>2026-05-02T09:16:33.000Z</time>
      </trkpt>
      <trkpt lat="44.84225" lon="0.78633">
        <ele>83.7</ele>
        <time>2026-05-02T09:16:34.000Z</time>
      </trkpt>
      <trkpt lat="44.84225" lon="0.78633">
        <ele>83.5</ele>
        <time>2026-05-02T09:16:35.000Z</time>
      </trkpt>
      <trkpt lat="44.84225" lon="0.78633">
        <ele>83.5</ele>
        <time>2026-05-02T09:16:36.000Z</time>
      </trkpt>
      <trkpt lat="44.84225" lon="0.78633">
        <ele>83.4</ele>
        <time>2026-05-02T09:16:37.000Z</time>
      </trkpt>
      <trkpt lat="44.84225" lon="0.78633">
        <ele>83.4</ele>
        <time>2026-05-02T09:16:38.000Z</time>
      </trkpt>
      <trkpt lat="44.84225" lon="0.78633">
        <ele>83.4</ele>
        <time>2026-05-02T09:16:39.000Z</time>
      </trkpt>
      <trkpt lat="44.84225" lon="0.78633">
        <ele>83.3</ele>
        <time>2026-05-02T09:16:40.000Z</time>
      </trkpt>
      <trkpt lat="44.84226" lon="0.78633">
        <ele>85.1</ele>
        <time>2026-05-02T09:16:41.000Z</time>
      </trkpt>
      <trkpt lat="44.84226" lon="0.78633">
        <ele>85.7</ele>
        <time>2026-05-02T09:16:42.000Z</time>
      </trkpt>
      <trkpt lat="44.84226" lon="0.78633">
        <ele>85.2</ele>
        <time>2026-05-02T09:16:43.000Z</time>
      </trkpt>
      <trkpt lat="44.84226" lon="0.78633">
        <ele>85.3</ele>
        <time>2026-05-02T09:16:44.000Z</time>
      </trkpt>
      <trkpt lat="44.84227" lon="0.78633">
        <ele>85.4</ele>
        <time>2026-05-02T09:16:45.000Z</time>
      </trkpt>
      <trkpt lat="44.84228" lon="0.78634">
        <ele>85.3</ele>
        <time>2026-05-02T09:16:46.000Z</time>
      </trkpt>
      <trkpt lat="44.84228" lon="0.78635">
        <ele>85</ele>
        <time>2026-05-02T09:16:47.000Z</time>
      </trkpt>
      <trkpt lat="44.84229" lon="0.78636">
        <ele>85.2</ele>
        <time>2026-05-02T09:16:48.000Z</time>
      </trkpt>
      <trkpt lat="44.84229" lon="0.78636">
        <ele>84.9</ele>
        <time>2026-05-02T09:16:49.000Z</time>
      </trkpt>
      <trkpt lat="44.8423" lon="0.78637">
        <ele>84.4</ele>
        <time>2026-05-02T09:16:50.000Z</time>
      </trkpt>
      <trkpt lat="44.8423" lon="0.78638">
        <ele>84.4</ele>
        <time>2026-05-02T09:16:51.000Z</time>
      </trkpt>
      <trkpt lat="44.8423" lon="0.78639">
        <ele>84.6</ele>
        <time>2026-05-02T09:16:52.000Z</time>
      </trkpt>
      <trkpt lat="44.84229" lon="0.7864">
        <ele>83.6</ele>
        <time>2026-05-02T09:16:53.000Z</time>
      </trkpt>
      <trkpt lat="44.84229" lon="0.78641">
        <ele>83.6</ele>
        <time>2026-05-02T09:16:54.000Z</time>
      </trkpt>
      <trkpt lat="44.84229" lon="0.78642">
        <ele>83.5</ele>
        <time>2026-05-02T09:16:55.000Z</time>
      </trkpt>
      <trkpt lat="44.8423" lon="0.78643">
        <ele>83.2</ele>
        <time>2026-05-02T09:16:56.000Z</time>
      </trkpt>
      <trkpt lat="44.84231" lon="0.78644">
        <ele>83.4</ele>
        <time>2026-05-02T09:16:57.000Z</time>
      </trkpt>
      <trkpt lat="44.84231" lon="0.78645">
        <ele>83.5</ele>
        <time>2026-05-02T09:16:58.000Z</time>
      </trkpt>
      <trkpt lat="44.84232" lon="0.78647">
        <ele>83.4</ele>
        <time>2026-05-02T09:16:59.000Z</time>
      </trkpt>
      <trkpt lat="44.84233" lon="0.78649">
        <ele>84.4</ele>
        <time>2026-05-02T09:17:00.000Z</time>
      </trkpt>
      <trkpt lat="44.84233" lon="0.7865">
        <ele>84.6</ele>
        <time>2026-05-02T09:17:01.000Z</time>
      </trkpt>
      <trkpt lat="44.84234" lon="0.78652">
        <ele>84.4</ele>
        <time>2026-05-02T09:17:02.000Z</time>
      </trkpt>
      <trkpt lat="44.84234" lon="0.78654">
        <ele>85.7</ele>
        <time>2026-05-02T09:17:03.000Z</time>
      </trkpt>
      <trkpt lat="44.84235" lon="0.78655">
        <ele>86.2</ele>
        <time>2026-05-02T09:17:04.000Z</time>
      </trkpt>
      <trkpt lat="44.84236" lon="0.78657">
        <ele>87</ele>
        <time>2026-05-02T09:17:05.000Z</time>
      </trkpt>
      <trkpt lat="44.84236" lon="0.78658">
        <ele>86.6</ele>
        <time>2026-05-02T09:17:06.000Z</time>
      </trkpt>
      <trkpt lat="44.84237" lon="0.7866">
        <ele>86.8</ele>
        <time>2026-05-02T09:17:07.000Z</time>
      </trkpt>
      <trkpt lat="44.84237" lon="0.78662">
        <ele>86.1</ele>
        <time>2026-05-02T09:17:08.000Z</time>
      </trkpt>
      <trkpt lat="44.84237" lon="0.78663">
        <ele>86.7</ele>
        <time>2026-05-02T09:17:09.000Z</time>
      </trkpt>
      <trkpt lat="44.8424" lon="0.78663">
        <ele>87.7</ele>
        <time>2026-05-02T09:17:10.000Z</time>
      </trkpt>
      <trkpt lat="44.8424" lon="0.78662">
        <ele>87.1</ele>
        <time>2026-05-02T09:17:11.000Z</time>
      </trkpt>
      <trkpt lat="44.8424" lon="0.78662">
        <ele>87.1</ele>
        <time>2026-05-02T09:17:12.000Z</time>
      </trkpt>
      <trkpt lat="44.84241" lon="0.78663">
        <ele>87.3</ele>
        <time>2026-05-02T09:17:13.000Z</time>
      </trkpt>
      <trkpt lat="44.84241" lon="0.78665">
        <ele>87.1</ele>
        <time>2026-05-02T09:17:14.000Z</time>
      </trkpt>
      <trkpt lat="44.8424" lon="0.78667">
        <ele>86.3</ele>
        <time>2026-05-02T09:17:15.000Z</time>
      </trkpt>
      <trkpt lat="44.8424" lon="0.78668">
        <ele>85.7</ele>
        <time>2026-05-02T09:17:16.000Z</time>
      </trkpt>
      <trkpt lat="44.8424" lon="0.7867">
        <ele>85.3</ele>
        <time>2026-05-02T09:17:17.000Z</time>
      </trkpt>
      <trkpt lat="44.84241" lon="0.78672">
        <ele>84.4</ele>
        <time>2026-05-02T09:17:18.000Z</time>
      </trkpt>
      <trkpt lat="44.84241" lon="0.78674">
        <ele>84</ele>
        <time>2026-05-02T09:17:19.000Z</time>
      </trkpt>
      <trkpt lat="44.84241" lon="0.78676">
        <ele>83.7</ele>
        <time>2026-05-02T09:17:20.000Z</time>
      </trkpt>
      <trkpt lat="44.84242" lon="0.78677">
        <ele>83.3</ele>
        <time>2026-05-02T09:17:21.000Z</time>
      </trkpt>
      <trkpt lat="44.84242" lon="0.78679">
        <ele>83</ele>
        <time>2026-05-02T09:17:22.000Z</time>
      </trkpt>
      <trkpt lat="44.84242" lon="0.7868">
        <ele>83</ele>
        <time>2026-05-02T09:17:23.000Z</time>
      </trkpt>
      <trkpt lat="44.84241" lon="0.78682">
        <ele>82.6</ele>
        <time>2026-05-02T09:17:24.000Z</time>
      </trkpt>
      <trkpt lat="44.84242" lon="0.78683">
        <ele>83.2</ele>
        <time>2026-05-02T09:17:25.000Z</time>
      </trkpt>
      <trkpt lat="44.84243" lon="0.78684">
        <ele>83.3</ele>
        <time>2026-05-02T09:17:26.000Z</time>
      </trkpt>
      <trkpt lat="44.84243" lon="0.78686">
        <ele>84.1</ele>
        <time>2026-05-02T09:17:27.000Z</time>
      </trkpt>
      <trkpt lat="44.84243" lon="0.78687">
        <ele>84.4</ele>
        <time>2026-05-02T09:17:28.000Z</time>
      </trkpt>
      <trkpt lat="44.84243" lon="0.78689">
        <ele>84.5</ele>
        <time>2026-05-02T09:17:29.000Z</time>
      </trkpt>
      <trkpt lat="44.84244" lon="0.7869">
        <ele>84.2</ele>
        <time>2026-05-02T09:17:30.000Z</time>
      </trkpt>
      <trkpt lat="44.84244" lon="0.78691">
        <ele>84.1</ele>
        <time>2026-05-02T09:17:31.000Z</time>
      </trkpt>
      <trkpt lat="44.84245" lon="0.78692">
        <ele>84</ele>
        <time>2026-05-02T09:17:32.000Z</time>
      </trkpt>
      <trkpt lat="44.84245" lon="0.78693">
        <ele>84.2</ele>
        <time>2026-05-02T09:17:33.000Z</time>
      </trkpt>
      <trkpt lat="44.84246" lon="0.78695">
        <ele>84.4</ele>
        <time>2026-05-02T09:17:34.000Z</time>
      </trkpt>
      <trkpt lat="44.84246" lon="0.78696">
        <ele>85.1</ele>
        <time>2026-05-02T09:17:35.000Z</time>
      </trkpt>
      <trkpt lat="44.84247" lon="0.78697">
        <ele>85.6</ele>
        <time>2026-05-02T09:17:36.000Z</time>
      </trkpt>
      <trkpt lat="44.84247" lon="0.78698">
        <ele>85.8</ele>
        <time>2026-05-02T09:17:37.000Z</time>
      </trkpt>
      <trkpt lat="44.84248" lon="0.787">
        <ele>85.4</ele>
        <time>2026-05-02T09:17:38.000Z</time>
      </trkpt>
      <trkpt lat="44.84249" lon="0.78701">
        <ele>85.9</ele>
        <time>2026-05-02T09:17:39.000Z</time>
      </trkpt>
      <trkpt lat="44.8425" lon="0.78703">
        <ele>86</ele>
        <time>2026-05-02T09:17:40.000Z</time>
      </trkpt>
      <trkpt lat="44.84251" lon="0.78704">
        <ele>86.3</ele>
        <time>2026-05-02T09:17:41.000Z</time>
      </trkpt>
      <trkpt lat="44.84251" lon="0.78706">
        <ele>84.9</ele>
        <time>2026-05-02T09:17:42.000Z</time>
      </trkpt>
      <trkpt lat="44.84252" lon="0.78707">
        <ele>84.7</ele>
        <time>2026-05-02T09:17:43.000Z</time>
      </trkpt>
      <trkpt lat="44.84252" lon="0.78709">
        <ele>84.3</ele>
        <time>2026-05-02T09:17:44.000Z</time>
      </trkpt>
      <trkpt lat="44.84253" lon="0.7871">
        <ele>84.6</ele>
        <time>2026-05-02T09:17:45.000Z</time>
      </trkpt>
      <trkpt lat="44.84254" lon="0.78712">
        <ele>84.4</ele>
        <time>2026-05-02T09:17:46.000Z</time>
      </trkpt>
      <trkpt lat="44.84255" lon="0.78713">
        <ele>83.7</ele>
        <time>2026-05-02T09:17:47.000Z</time>
      </trkpt>
      <trkpt lat="44.84255" lon="0.78715">
        <ele>83.9</ele>
        <time>2026-05-02T09:17:48.000Z</time>
      </trkpt>
      <trkpt lat="44.84256" lon="0.78716">
        <ele>84.1</ele>
        <time>2026-05-02T09:17:49.000Z</time>
      </trkpt>
      <trkpt lat="44.84257" lon="0.78718">
        <ele>83.9</ele>
        <time>2026-05-02T09:17:50.000Z</time>
      </trkpt>
      <trkpt lat="44.84257" lon="0.7872">
        <ele>83.8</ele>
        <time>2026-05-02T09:17:51.000Z</time>
      </trkpt>
      <trkpt lat="44.84258" lon="0.78722">
        <ele>83.5</ele>
        <time>2026-05-02T09:17:52.000Z</time>
      </trkpt>
      <trkpt lat="44.84259" lon="0.78723">
        <ele>84.4</ele>
        <time>2026-05-02T09:17:53.000Z</time>
      </trkpt>
      <trkpt lat="44.84259" lon="0.78725">
        <ele>84</ele>
        <time>2026-05-02T09:17:54.000Z</time>
      </trkpt>
      <trkpt lat="44.8426" lon="0.78726">
        <ele>83.8</ele>
        <time>2026-05-02T09:17:55.000Z</time>
      </trkpt>
      <trkpt lat="44.84261" lon="0.78728">
        <ele>82.5</ele>
        <time>2026-05-02T09:17:56.000Z</time>
      </trkpt>
      <trkpt lat="44.84262" lon="0.78729">
        <ele>83.1</ele>
        <time>2026-05-02T09:17:57.000Z</time>
      </trkpt>
      <trkpt lat="44.84263" lon="0.78731">
        <ele>82.9</ele>
        <time>2026-05-02T09:17:58.000Z</time>
      </trkpt>
      <trkpt lat="44.84264" lon="0.78733">
        <ele>83.5</ele>
        <time>2026-05-02T09:17:59.000Z</time>
      </trkpt>
      <trkpt lat="44.84265" lon="0.78734">
        <ele>83.5</ele>
        <time>2026-05-02T09:18:00.000Z</time>
      </trkpt>
      <trkpt lat="44.84265" lon="0.78736">
        <ele>83.7</ele>
        <time>2026-05-02T09:18:01.000Z</time>
      </trkpt>
      <trkpt lat="44.84266" lon="0.78737">
        <ele>83.6</ele>
        <time>2026-05-02T09:18:02.000Z</time>
      </trkpt>
      <trkpt lat="44.84267" lon="0.78738">
        <ele>83.8</ele>
        <time>2026-05-02T09:18:03.000Z</time>
      </trkpt>
      <trkpt lat="44.84268" lon="0.7874">
        <ele>84</ele>
        <time>2026-05-02T09:18:04.000Z</time>
      </trkpt>
      <trkpt lat="44.84268" lon="0.78741">
        <ele>83.9</ele>
        <time>2026-05-02T09:18:05.000Z</time>
      </trkpt>
      <trkpt lat="44.84269" lon="0.78743">
        <ele>83.3</ele>
        <time>2026-05-02T09:18:06.000Z</time>
      </trkpt>
      <trkpt lat="44.84269" lon="0.78745">
        <ele>83.6</ele>
        <time>2026-05-02T09:18:07.000Z</time>
      </trkpt>
      <trkpt lat="44.8427" lon="0.78747">
        <ele>83.9</ele>
        <time>2026-05-02T09:18:08.000Z</time>
      </trkpt>
      <trkpt lat="44.84271" lon="0.78748">
        <ele>84.4</ele>
        <time>2026-05-02T09:18:09.000Z</time>
      </trkpt>
      <trkpt lat="44.84271" lon="0.7875">
        <ele>84.8</ele>
        <time>2026-05-02T09:18:10.000Z</time>
      </trkpt>
      <trkpt lat="44.84272" lon="0.78752">
        <ele>84.3</ele>
        <time>2026-05-02T09:18:11.000Z</time>
      </trkpt>
      <trkpt lat="44.84272" lon="0.78754">
        <ele>83.9</ele>
        <time>2026-05-02T09:18:12.000Z</time>
      </trkpt>
      <trkpt lat="44.84273" lon="0.78756">
        <ele>83.2</ele>
        <time>2026-05-02T09:18:13.000Z</time>
      </trkpt>
      <trkpt lat="44.84274" lon="0.78758">
        <ele>82.4</ele>
        <time>2026-05-02T09:18:14.000Z</time>
      </trkpt>
      <trkpt lat="44.84275" lon="0.7876">
        <ele>82</ele>
        <time>2026-05-02T09:18:15.000Z</time>
      </trkpt>
      <trkpt lat="44.84275" lon="0.78762">
        <ele>82.3</ele>
        <time>2026-05-02T09:18:16.000Z</time>
      </trkpt>
      <trkpt lat="44.84276" lon="0.78764">
        <ele>82.6</ele>
        <time>2026-05-02T09:18:17.000Z</time>
      </trkpt>
      <trkpt lat="44.84276" lon="0.78766">
        <ele>82.9</ele>
        <time>2026-05-02T09:18:18.000Z</time>
      </trkpt>
      <trkpt lat="44.84277" lon="0.78767">
        <ele>82.2</ele>
        <time>2026-05-02T09:18:19.000Z</time>
      </trkpt>
      <trkpt lat="44.84278" lon="0.78768">
        <ele>83.3</ele>
        <time>2026-05-02T09:18:20.000Z</time>
      </trkpt>
      <trkpt lat="44.84279" lon="0.7877">
        <ele>83.8</ele>
        <time>2026-05-02T09:18:21.000Z</time>
      </trkpt>
      <trkpt lat="44.84279" lon="0.78773">
        <ele>83.8</ele>
        <time>2026-05-02T09:18:22.000Z</time>
      </trkpt>
      <trkpt lat="44.84279" lon="0.78775">
        <ele>83.4</ele>
        <time>2026-05-02T09:18:23.000Z</time>
      </trkpt>
      <trkpt lat="44.8428" lon="0.78776">
        <ele>83.6</ele>
        <time>2026-05-02T09:18:24.000Z</time>
      </trkpt>
      <trkpt lat="44.84281" lon="0.78778">
        <ele>84.1</ele>
        <time>2026-05-02T09:18:25.000Z</time>
      </trkpt>
      <trkpt lat="44.84282" lon="0.7878">
        <ele>84.7</ele>
        <time>2026-05-02T09:18:26.000Z</time>
      </trkpt>
      <trkpt lat="44.84282" lon="0.78781">
        <ele>84.8</ele>
        <time>2026-05-02T09:18:27.000Z</time>
      </trkpt>
      <trkpt lat="44.84283" lon="0.78783">
        <ele>85.1</ele>
        <time>2026-05-02T09:18:28.000Z</time>
      </trkpt>
      <trkpt lat="44.84284" lon="0.78785">
        <ele>85.2</ele>
        <time>2026-05-02T09:18:29.000Z</time>
      </trkpt>
      <trkpt lat="44.84284" lon="0.78786">
        <ele>84.9</ele>
        <time>2026-05-02T09:18:30.000Z</time>
      </trkpt>
      <trkpt lat="44.84285" lon="0.78788">
        <ele>85.6</ele>
        <time>2026-05-02T09:18:31.000Z</time>
      </trkpt>
      <trkpt lat="44.84286" lon="0.7879">
        <ele>84.9</ele>
        <time>2026-05-02T09:18:32.000Z</time>
      </trkpt>
      <trkpt lat="44.84287" lon="0.78791">
        <ele>84.9</ele>
        <time>2026-05-02T09:18:33.000Z</time>
      </trkpt>
      <trkpt lat="44.84287" lon="0.78793">
        <ele>84.8</ele>
        <time>2026-05-02T09:18:34.000Z</time>
      </trkpt>
      <trkpt lat="44.84288" lon="0.78794">
        <ele>85</ele>
        <time>2026-05-02T09:18:35.000Z</time>
      </trkpt>
      <trkpt lat="44.84289" lon="0.78795">
        <ele>85</ele>
        <time>2026-05-02T09:18:36.000Z</time>
      </trkpt>
      <trkpt lat="44.8429" lon="0.78797">
        <ele>85.5</ele>
        <time>2026-05-02T09:18:37.000Z</time>
      </trkpt>
      <trkpt lat="44.8429" lon="0.78799">
        <ele>85.2</ele>
        <time>2026-05-02T09:18:38.000Z</time>
      </trkpt>
      <trkpt lat="44.84291" lon="0.78801">
        <ele>85.4</ele>
        <time>2026-05-02T09:18:39.000Z</time>
      </trkpt>
      <trkpt lat="44.84291" lon="0.78803">
        <ele>85.6</ele>
        <time>2026-05-02T09:18:40.000Z</time>
      </trkpt>
      <trkpt lat="44.84292" lon="0.78805">
        <ele>86.5</ele>
        <time>2026-05-02T09:18:41.000Z</time>
      </trkpt>
      <trkpt lat="44.84292" lon="0.78807">
        <ele>86.3</ele>
        <time>2026-05-02T09:18:42.000Z</time>
      </trkpt>
      <trkpt lat="44.84293" lon="0.78809">
        <ele>87.6</ele>
        <time>2026-05-02T09:18:43.000Z</time>
      </trkpt>
      <trkpt lat="44.84294" lon="0.78811">
        <ele>87.8</ele>
        <time>2026-05-02T09:18:44.000Z</time>
      </trkpt>
      <trkpt lat="44.84294" lon="0.78812">
        <ele>87.9</ele>
        <time>2026-05-02T09:18:45.000Z</time>
      </trkpt>
      <trkpt lat="44.84295" lon="0.78814">
        <ele>88</ele>
        <time>2026-05-02T09:18:46.000Z</time>
      </trkpt>
      <trkpt lat="44.84295" lon="0.78816">
        <ele>88.3</ele>
        <time>2026-05-02T09:18:47.000Z</time>
      </trkpt>
      <trkpt lat="44.84296" lon="0.78818">
        <ele>89.5</ele>
        <time>2026-05-02T09:18:48.000Z</time>
      </trkpt>
      <trkpt lat="44.84297" lon="0.7882">
        <ele>89.8</ele>
        <time>2026-05-02T09:18:49.000Z</time>
      </trkpt>
      <trkpt lat="44.84297" lon="0.78822">
        <ele>89.5</ele>
        <time>2026-05-02T09:18:50.000Z</time>
      </trkpt>
      <trkpt lat="44.84298" lon="0.78823">
        <ele>89.7</ele>
        <time>2026-05-02T09:18:51.000Z</time>
      </trkpt>
      <trkpt lat="44.84298" lon="0.78825">
        <ele>89.4</ele>
        <time>2026-05-02T09:18:52.000Z</time>
      </trkpt>
      <trkpt lat="44.84299" lon="0.78826">
        <ele>89</ele>
        <time>2026-05-02T09:18:53.000Z</time>
      </trkpt>
      <trkpt lat="44.843" lon="0.78827">
        <ele>89.3</ele>
        <time>2026-05-02T09:18:54.000Z</time>
      </trkpt>
      <trkpt lat="44.84301" lon="0.78829">
        <ele>89.2</ele>
        <time>2026-05-02T09:18:55.000Z</time>
      </trkpt>
      <trkpt lat="44.84301" lon="0.7883">
        <ele>89.9</ele>
        <time>2026-05-02T09:18:56.000Z</time>
      </trkpt>
      <trkpt lat="44.84301" lon="0.78832">
        <ele>91.2</ele>
        <time>2026-05-02T09:18:57.000Z</time>
      </trkpt>
      <trkpt lat="44.84302" lon="0.78834">
        <ele>91.1</ele>
        <time>2026-05-02T09:18:58.000Z</time>
      </trkpt>
      <trkpt lat="44.84302" lon="0.78835">
        <ele>90.9</ele>
        <time>2026-05-02T09:18:59.000Z</time>
      </trkpt>
      <trkpt lat="44.84303" lon="0.78837">
        <ele>91.1</ele>
        <time>2026-05-02T09:19:00.000Z</time>
      </trkpt>
      <trkpt lat="44.84303" lon="0.78838">
        <ele>92</ele>
        <time>2026-05-02T09:19:01.000Z</time>
      </trkpt>
      <trkpt lat="44.84304" lon="0.7884">
        <ele>92.2</ele>
        <time>2026-05-02T09:19:02.000Z</time>
      </trkpt>
      <trkpt lat="44.84305" lon="0.78841">
        <ele>92</ele>
        <time>2026-05-02T09:19:03.000Z</time>
      </trkpt>
      <trkpt lat="44.84306" lon="0.78842">
        <ele>91.5</ele>
        <time>2026-05-02T09:19:04.000Z</time>
      </trkpt>
      <trkpt lat="44.84306" lon="0.78844">
        <ele>91.3</ele>
        <time>2026-05-02T09:19:05.000Z</time>
      </trkpt>
      <trkpt lat="44.84307" lon="0.78845">
        <ele>91</ele>
        <time>2026-05-02T09:19:06.000Z</time>
      </trkpt>
      <trkpt lat="44.84307" lon="0.78847">
        <ele>91.2</ele>
        <time>2026-05-02T09:19:07.000Z</time>
      </trkpt>
      <trkpt lat="44.84308" lon="0.78849">
        <ele>91.4</ele>
        <time>2026-05-02T09:19:08.000Z</time>
      </trkpt>
      <trkpt lat="44.84308" lon="0.7885">
        <ele>91</ele>
        <time>2026-05-02T09:19:09.000Z</time>
      </trkpt>
      <trkpt lat="44.84309" lon="0.78852">
        <ele>91.3</ele>
        <time>2026-05-02T09:19:10.000Z</time>
      </trkpt>
      <trkpt lat="44.84309" lon="0.78854">
        <ele>90.7</ele>
        <time>2026-05-02T09:19:11.000Z</time>
      </trkpt>
      <trkpt lat="44.8431" lon="0.78856">
        <ele>90.9</ele>
        <time>2026-05-02T09:19:12.000Z</time>
      </trkpt>
      <trkpt lat="44.84311" lon="0.78857">
        <ele>90.6</ele>
        <time>2026-05-02T09:19:13.000Z</time>
      </trkpt>
      <trkpt lat="44.84311" lon="0.78859">
        <ele>89.7</ele>
        <time>2026-05-02T09:19:14.000Z</time>
      </trkpt>
      <trkpt lat="44.84311" lon="0.78861">
        <ele>90.3</ele>
        <time>2026-05-02T09:19:15.000Z</time>
      </trkpt>
      <trkpt lat="44.84312" lon="0.78863">
        <ele>90.2</ele>
        <time>2026-05-02T09:19:16.000Z</time>
      </trkpt>
      <trkpt lat="44.84313" lon="0.78865">
        <ele>90.6</ele>
        <time>2026-05-02T09:19:17.000Z</time>
      </trkpt>
      <trkpt lat="44.84314" lon="0.78867">
        <ele>91.7</ele>
        <time>2026-05-02T09:19:18.000Z</time>
      </trkpt>
      <trkpt lat="44.84314" lon="0.78869">
        <ele>91.1</ele>
        <time>2026-05-02T09:19:19.000Z</time>
      </trkpt>
      <trkpt lat="44.84315" lon="0.7887">
        <ele>91</ele>
        <time>2026-05-02T09:19:20.000Z</time>
      </trkpt>
      <trkpt lat="44.84316" lon="0.78872">
        <ele>91.2</ele>
        <time>2026-05-02T09:19:21.000Z</time>
      </trkpt>
      <trkpt lat="44.84316" lon="0.78873">
        <ele>90.9</ele>
        <time>2026-05-02T09:19:22.000Z</time>
      </trkpt>
      <trkpt lat="44.84317" lon="0.78875">
        <ele>92.2</ele>
        <time>2026-05-02T09:19:23.000Z</time>
      </trkpt>
      <trkpt lat="44.84317" lon="0.78876">
        <ele>93.1</ele>
        <time>2026-05-02T09:19:24.000Z</time>
      </trkpt>
      <trkpt lat="44.84317" lon="0.78878">
        <ele>95.1</ele>
        <time>2026-05-02T09:19:25.000Z</time>
      </trkpt>
      <trkpt lat="44.84317" lon="0.78879">
        <ele>95</ele>
        <time>2026-05-02T09:19:26.000Z</time>
      </trkpt>
      <trkpt lat="44.84317" lon="0.78881">
        <ele>94.4</ele>
        <time>2026-05-02T09:19:27.000Z</time>
      </trkpt>
      <trkpt lat="44.84316" lon="0.78883">
        <ele>93.8</ele>
        <time>2026-05-02T09:19:28.000Z</time>
      </trkpt>
      <trkpt lat="44.84316" lon="0.78884">
        <ele>92.8</ele>
        <time>2026-05-02T09:19:29.000Z</time>
      </trkpt>
      <trkpt lat="44.84315" lon="0.78885">
        <ele>91.5</ele>
        <time>2026-05-02T09:19:30.000Z</time>
      </trkpt>
      <trkpt lat="44.84315" lon="0.78885">
        <ele>91.3</ele>
        <time>2026-05-02T09:19:31.000Z</time>
      </trkpt>
      <trkpt lat="44.84315" lon="0.78884">
        <ele>91.3</ele>
        <time>2026-05-02T09:19:32.000Z</time>
      </trkpt>
      <trkpt lat="44.84315" lon="0.78884">
        <ele>91.3</ele>
        <time>2026-05-02T09:19:33.000Z</time>
      </trkpt>
      <trkpt lat="44.84315" lon="0.78884">
        <ele>91.3</ele>
        <time>2026-05-02T09:19:34.000Z</time>
      </trkpt>
      <trkpt lat="44.84315" lon="0.78885">
        <ele>90.6</ele>
        <time>2026-05-02T09:19:35.000Z</time>
      </trkpt>
      <trkpt lat="44.84315" lon="0.78885">
        <ele>90.6</ele>
        <time>2026-05-02T09:19:36.000Z</time>
      </trkpt>
      <trkpt lat="44.84315" lon="0.78885">
        <ele>90.3</ele>
        <time>2026-05-02T09:19:37.000Z</time>
      </trkpt>
      <trkpt lat="44.84315" lon="0.78885">
        <ele>91.1</ele>
        <time>2026-05-02T09:19:38.000Z</time>
      </trkpt>
      <trkpt lat="44.84313" lon="0.78884">
        <ele>89.6</ele>
        <time>2026-05-02T09:19:39.000Z</time>
      </trkpt>
      <trkpt lat="44.84313" lon="0.78884">
        <ele>89.6</ele>
        <time>2026-05-02T09:19:40.000Z</time>
      </trkpt>
      <trkpt lat="44.84313" lon="0.78884">
        <ele>89.6</ele>
        <time>2026-05-02T09:19:41.000Z</time>
      </trkpt>
      <trkpt lat="44.84313" lon="0.78884">
        <ele>89.6</ele>
        <time>2026-05-02T09:19:42.000Z</time>
      </trkpt>
      <trkpt lat="44.84313" lon="0.78884">
        <ele>89.6</ele>
        <time>2026-05-02T09:19:43.000Z</time>
      </trkpt>
      <trkpt lat="44.84313" lon="0.78884">
        <ele>89.6</ele>
        <time>2026-05-02T09:19:44.000Z</time>
      </trkpt>
      <trkpt lat="44.84313" lon="0.78884">
        <ele>89.6</ele>
        <time>2026-05-02T09:19:45.000Z</time>
      </trkpt>
      <trkpt lat="44.84313" lon="0.78884">
        <ele>89.6</ele>
        <time>2026-05-02T09:19:46.000Z</time>
      </trkpt>
      <trkpt lat="44.84313" lon="0.78884">
        <ele>89.6</ele>
        <time>2026-05-02T09:19:47.000Z</time>
      </trkpt>
      <trkpt lat="44.84313" lon="0.78884">
        <ele>89.6</ele>
        <time>2026-05-02T09:19:48.000Z</time>
      </trkpt>
      <trkpt lat="44.84313" lon="0.78884">
        <ele>89.6</ele>
        <time>2026-05-02T09:19:49.000Z</time>
      </trkpt>
      <trkpt lat="44.84313" lon="0.78884">
        <ele>89.6</ele>
        <time>2026-05-02T09:19:50.000Z</time>
      </trkpt>
      <trkpt lat="44.84313" lon="0.78884">
        <ele>89.6</ele>
        <time>2026-05-02T09:19:51.000Z</time>
      </trkpt>
      <trkpt lat="44.84314" lon="0.78885">
        <ele>89.5</ele>
        <time>2026-05-02T09:19:52.000Z</time>
      </trkpt>
      <trkpt lat="44.84314" lon="0.78886">
        <ele>89.2</ele>
        <time>2026-05-02T09:19:53.000Z</time>
      </trkpt>
      <trkpt lat="44.84316" lon="0.78887">
        <ele>88.1</ele>
        <time>2026-05-02T09:19:54.000Z</time>
      </trkpt>
      <trkpt lat="44.84318" lon="0.78886">
        <ele>88.9</ele>
        <time>2026-05-02T09:19:55.000Z</time>
      </trkpt>
      <trkpt lat="44.84319" lon="0.78885">
        <ele>89.5</ele>
        <time>2026-05-02T09:19:56.000Z</time>
      </trkpt>
      <trkpt lat="44.84319" lon="0.78884">
        <ele>88.7</ele>
        <time>2026-05-02T09:19:57.000Z</time>
      </trkpt>
      <trkpt lat="44.84321" lon="0.78884">
        <ele>89.2</ele>
        <time>2026-05-02T09:19:58.000Z</time>
      </trkpt>
      <trkpt lat="44.84322" lon="0.78883">
        <ele>89.6</ele>
        <time>2026-05-02T09:19:59.000Z</time>
      </trkpt>
      <trkpt lat="44.84323" lon="0.78881">
        <ele>89.6</ele>
        <time>2026-05-02T09:20:00.000Z</time>
      </trkpt>
      <trkpt lat="44.84323" lon="0.78877">
        <ele>89.3</ele>
        <time>2026-05-02T09:20:01.000Z</time>
      </trkpt>
      <trkpt lat="44.84322" lon="0.78875">
        <ele>86.9</ele>
        <time>2026-05-02T09:20:02.000Z</time>
      </trkpt>
      <trkpt lat="44.84321" lon="0.78875">
        <ele>87.1</ele>
        <time>2026-05-02T09:20:03.000Z</time>
      </trkpt>
      <trkpt lat="44.84321" lon="0.78875">
        <ele>87</ele>
        <time>2026-05-02T09:20:04.000Z</time>
      </trkpt>
      <trkpt lat="44.84321" lon="0.78875">
        <ele>87</ele>
        <time>2026-05-02T09:20:05.000Z</time>
      </trkpt>
      <trkpt lat="44.84321" lon="0.78875">
        <ele>87</ele>
        <time>2026-05-02T09:20:06.000Z</time>
      </trkpt>
      <trkpt lat="44.84321" lon="0.78874">
        <ele>87.2</ele>
        <time>2026-05-02T09:20:07.000Z</time>
      </trkpt>
      <trkpt lat="44.8432" lon="0.78872">
        <ele>87</ele>
        <time>2026-05-02T09:20:08.000Z</time>
      </trkpt>
      <trkpt lat="44.84321" lon="0.7887">
        <ele>86.7</ele>
        <time>2026-05-02T09:20:09.000Z</time>
      </trkpt>
      <trkpt lat="44.84322" lon="0.78869">
        <ele>86.5</ele>
        <time>2026-05-02T09:20:10.000Z</time>
      </trkpt>
      <trkpt lat="44.84322" lon="0.7887">
        <ele>86.3</ele>
        <time>2026-05-02T09:20:11.000Z</time>
      </trkpt>
      <trkpt lat="44.84322" lon="0.7887">
        <ele>86.3</ele>
        <time>2026-05-02T09:20:12.000Z</time>
      </trkpt>
      <trkpt lat="44.84322" lon="0.7887">
        <ele>86.3</ele>
        <time>2026-05-02T09:20:13.000Z</time>
      </trkpt>
      <trkpt lat="44.84322" lon="0.7887">
        <ele>86.8</ele>
        <time>2026-05-02T09:20:14.000Z</time>
      </trkpt>
      <trkpt lat="44.84321" lon="0.78871">
        <ele>86.5</ele>
        <time>2026-05-02T09:20:15.000Z</time>
      </trkpt>
      <trkpt lat="44.84321" lon="0.78871">
        <ele>86.6</ele>
        <time>2026-05-02T09:20:16.000Z</time>
      </trkpt>
      <trkpt lat="44.8432" lon="0.78871">
        <ele>86.3</ele>
        <time>2026-05-02T09:20:17.000Z</time>
      </trkpt>
      <trkpt lat="44.8432" lon="0.78871">
        <ele>85.7</ele>
        <time>2026-05-02T09:20:18.000Z</time>
      </trkpt>
      <trkpt lat="44.84319" lon="0.78872">
        <ele>87.1</ele>
        <time>2026-05-02T09:20:19.000Z</time>
      </trkpt>
      <trkpt lat="44.84318" lon="0.78873">
        <ele>88.1</ele>
        <time>2026-05-02T09:20:20.000Z</time>
      </trkpt>
      <trkpt lat="44.84318" lon="0.78874">
        <ele>87.8</ele>
        <time>2026-05-02T09:20:21.000Z</time>
      </trkpt>
      <trkpt lat="44.84318" lon="0.78875">
        <ele>87.1</ele>
        <time>2026-05-02T09:20:22.000Z</time>
      </trkpt>
      <trkpt lat="44.84317" lon="0.78876">
        <ele>86.9</ele>
        <time>2026-05-02T09:20:23.000Z</time>
      </trkpt>
      <trkpt lat="44.84317" lon="0.78877">
        <ele>87</ele>
        <time>2026-05-02T09:20:24.000Z</time>
      </trkpt>
      <trkpt lat="44.84317" lon="0.78877">
        <ele>87.1</ele>
        <time>2026-05-02T09:20:25.000Z</time>
      </trkpt>
      <trkpt lat="44.84316" lon="0.78878">
        <ele>86.5</ele>
        <time>2026-05-02T09:20:26.000Z</time>
      </trkpt>
      <trkpt lat="44.84316" lon="0.78878">
        <ele>86.3</ele>
        <time>2026-05-02T09:20:27.000Z</time>
      </trkpt>
      <trkpt lat="44.84316" lon="0.78878">
        <ele>86.3</ele>
        <time>2026-05-02T09:20:28.000Z</time>
      </trkpt>
      <trkpt lat="44.84316" lon="0.78879">
        <ele>86.5</ele>
        <time>2026-05-02T09:20:29.000Z</time>
      </trkpt>
      <trkpt lat="44.84316" lon="0.7888">
        <ele>86.8</ele>
        <time>2026-05-02T09:20:30.000Z</time>
      </trkpt>
      <trkpt lat="44.84316" lon="0.78881">
        <ele>85.8</ele>
        <time>2026-05-02T09:20:31.000Z</time>
      </trkpt>
      <trkpt lat="44.84316" lon="0.78881">
        <ele>85.3</ele>
        <time>2026-05-02T09:20:32.000Z</time>
      </trkpt>
      <trkpt lat="44.84316" lon="0.78881">
        <ele>85.3</ele>
        <time>2026-05-02T09:20:33.000Z</time>
      </trkpt>
      <trkpt lat="44.84316" lon="0.78882">
        <ele>85.3</ele>
        <time>2026-05-02T09:20:34.000Z</time>
      </trkpt>
      <trkpt lat="44.84314" lon="0.78881">
        <ele>85.4</ele>
        <time>2026-05-02T09:20:35.000Z</time>
      </trkpt>
      <trkpt lat="44.84313" lon="0.78881">
        <ele>83.7</ele>
        <time>2026-05-02T09:20:36.000Z</time>
      </trkpt>
      <trkpt lat="44.84312" lon="0.7888">
        <ele>83.2</ele>
        <time>2026-05-02T09:20:37.000Z</time>
      </trkpt>
      <trkpt lat="44.84311" lon="0.78879">
        <ele>84.3</ele>
        <time>2026-05-02T09:20:38.000Z</time>
      </trkpt>
      <trkpt lat="44.8431" lon="0.78877">
        <ele>84.8</ele>
        <time>2026-05-02T09:20:39.000Z</time>
      </trkpt>
      <trkpt lat="44.8431" lon="0.78876">
        <ele>84.3</ele>
        <time>2026-05-02T09:20:40.000Z</time>
      </trkpt>
      <trkpt lat="44.8431" lon="0.78874">
        <ele>83</ele>
        <time>2026-05-02T09:20:41.000Z</time>
      </trkpt>
      <trkpt lat="44.84312" lon="0.78873">
        <ele>81.3</ele>
        <time>2026-05-02T09:20:42.000Z</time>
      </trkpt>
      <trkpt lat="44.84313" lon="0.78873">
        <ele>79.6</ele>
        <time>2026-05-02T09:20:43.000Z</time>
      </trkpt>
      <trkpt lat="44.84315" lon="0.78874">
        <ele>80.2</ele>
        <time>2026-05-02T09:20:44.000Z</time>
      </trkpt>
      <trkpt lat="44.84317" lon="0.78875">
        <ele>81.3</ele>
        <time>2026-05-02T09:20:45.000Z</time>
      </trkpt>
      <trkpt lat="44.84318" lon="0.78877">
        <ele>81.8</ele>
        <time>2026-05-02T09:20:46.000Z</time>
      </trkpt>
      <trkpt lat="44.84319" lon="0.78878">
        <ele>82.2</ele>
        <time>2026-05-02T09:20:47.000Z</time>
      </trkpt>
      <trkpt lat="44.84319" lon="0.78878">
        <ele>82.2</ele>
        <time>2026-05-02T09:20:48.000Z</time>
      </trkpt>
      <trkpt lat="44.84319" lon="0.78879">
        <ele>82.2</ele>
        <time>2026-05-02T09:20:49.000Z</time>
      </trkpt>
      <trkpt lat="44.84319" lon="0.78879">
        <ele>82.2</ele>
        <time>2026-05-02T09:20:50.000Z</time>
      </trkpt>
      <trkpt lat="44.84319" lon="0.78879">
        <ele>82.2</ele>
        <time>2026-05-02T09:20:51.000Z</time>
      </trkpt>
      <trkpt lat="44.84319" lon="0.78879">
        <ele>82.2</ele>
        <time>2026-05-02T09:20:52.000Z</time>
      </trkpt>
      <trkpt lat="44.84319" lon="0.78879">
        <ele>82.2</ele>
        <time>2026-05-02T09:20:53.000Z</time>
      </trkpt>
      <trkpt lat="44.84319" lon="0.78879">
        <ele>82.2</ele>
        <time>2026-05-02T09:20:54.000Z</time>
      </trkpt>
      <trkpt lat="44.84319" lon="0.78879">
        <ele>82.2</ele>
        <time>2026-05-02T09:20:55.000Z</time>
      </trkpt>
      <trkpt lat="44.84319" lon="0.78879">
        <ele>82.2</ele>
        <time>2026-05-02T09:20:56.000Z</time>
      </trkpt>
      <trkpt lat="44.8432" lon="0.78878">
        <ele>82.3</ele>
        <time>2026-05-02T09:20:57.000Z</time>
      </trkpt>
      <trkpt lat="44.84319" lon="0.78878">
        <ele>82.7</ele>
        <time>2026-05-02T09:20:58.000Z</time>
      </trkpt>
      <trkpt lat="44.84319" lon="0.78877">
        <ele>82.8</ele>
        <time>2026-05-02T09:20:59.000Z</time>
      </trkpt>
      <trkpt lat="44.84319" lon="0.78876">
        <ele>82.6</ele>
        <time>2026-05-02T09:21:00.000Z</time>
      </trkpt>
      <trkpt lat="44.84319" lon="0.78876">
        <ele>82.6</ele>
        <time>2026-05-02T09:21:01.000Z</time>
      </trkpt>
      <trkpt lat="44.84319" lon="0.78876">
        <ele>82.6</ele>
        <time>2026-05-02T09:21:02.000Z</time>
      </trkpt>
      <trkpt lat="44.84319" lon="0.78876">
        <ele>82.6</ele>
        <time>2026-05-02T09:21:03.000Z</time>
      </trkpt>
      <trkpt lat="44.84319" lon="0.78876">
        <ele>82.6</ele>
        <time>2026-05-02T09:21:04.000Z</time>
      </trkpt>
      <trkpt lat="44.84319" lon="0.78876">
        <ele>82.6</ele>
        <time>2026-05-02T09:21:05.000Z</time>
      </trkpt>
      <trkpt lat="44.84319" lon="0.78876">
        <ele>82.6</ele>
        <time>2026-05-02T09:21:06.000Z</time>
      </trkpt>
      <trkpt lat="44.84319" lon="0.78876">
        <ele>82.6</ele>
        <time>2026-05-02T09:21:07.000Z</time>
      </trkpt>
      <trkpt lat="44.84319" lon="0.78876">
        <ele>82.6</ele>
        <time>2026-05-02T09:21:08.000Z</time>
      </trkpt>
      <trkpt lat="44.84319" lon="0.78876">
        <ele>82.9</ele>
        <time>2026-05-02T09:21:09.000Z</time>
      </trkpt>
      <trkpt lat="44.84319" lon="0.78877">
        <ele>82.6</ele>
        <time>2026-05-02T09:21:10.000Z</time>
      </trkpt>
      <trkpt lat="44.84319" lon="0.78877">
        <ele>82.9</ele>
        <time>2026-05-02T09:21:11.000Z</time>
      </trkpt>
      <trkpt lat="44.84319" lon="0.78877">
        <ele>82.9</ele>
        <time>2026-05-02T09:21:12.000Z</time>
      </trkpt>
      <trkpt lat="44.84319" lon="0.78878">
        <ele>82.8</ele>
        <time>2026-05-02T09:21:13.000Z</time>
      </trkpt>
      <trkpt lat="44.84318" lon="0.78878">
        <ele>82</ele>
        <time>2026-05-02T09:21:14.000Z</time>
      </trkpt>
      <trkpt lat="44.84318" lon="0.78879">
        <ele>82.1</ele>
        <time>2026-05-02T09:21:15.000Z</time>
      </trkpt>
      <trkpt lat="44.84318" lon="0.78879">
        <ele>82.1</ele>
        <time>2026-05-02T09:21:16.000Z</time>
      </trkpt>
      <trkpt lat="44.84318" lon="0.78879">
        <ele>82.1</ele>
        <time>2026-05-02T09:21:17.000Z</time>
      </trkpt>
      <trkpt lat="44.84318" lon="0.78879">
        <ele>82</ele>
        <time>2026-05-02T09:21:18.000Z</time>
      </trkpt>
      <trkpt lat="44.84318" lon="0.78879">
        <ele>82</ele>
        <time>2026-05-02T09:21:19.000Z</time>
      </trkpt>
      <trkpt lat="44.84318" lon="0.7888">
        <ele>82</ele>
        <time>2026-05-02T09:21:20.000Z</time>
      </trkpt>
      <trkpt lat="44.84318" lon="0.7888">
        <ele>82</ele>
        <time>2026-05-02T09:21:21.000Z</time>
      </trkpt>
      <trkpt lat="44.84318" lon="0.7888">
        <ele>82</ele>
        <time>2026-05-02T09:21:22.000Z</time>
      </trkpt>
      <trkpt lat="44.84318" lon="0.7888">
        <ele>82.4</ele>
        <time>2026-05-02T09:21:23.000Z</time>
      </trkpt>
      <trkpt lat="44.84318" lon="0.7888">
        <ele>82.2</ele>
        <time>2026-05-02T09:21:24.000Z</time>
      </trkpt>
      <trkpt lat="44.84318" lon="0.78881">
        <ele>82.3</ele>
        <time>2026-05-02T09:21:25.000Z</time>
      </trkpt>
      <trkpt lat="44.84318" lon="0.78881">
        <ele>82.7</ele>
        <time>2026-05-02T09:21:26.000Z</time>
      </trkpt>
      <trkpt lat="44.84318" lon="0.78882">
        <ele>82.7</ele>
        <time>2026-05-02T09:21:27.000Z</time>
      </trkpt>
      <trkpt lat="44.84318" lon="0.78882">
        <ele>82.7</ele>
        <time>2026-05-02T09:21:28.000Z</time>
      </trkpt>
      <trkpt lat="44.84318" lon="0.78883">
        <ele>81.5</ele>
        <time>2026-05-02T09:21:29.000Z</time>
      </trkpt>
      <trkpt lat="44.84317" lon="0.78885">
        <ele>80.5</ele>
        <time>2026-05-02T09:21:30.000Z</time>
      </trkpt>
      <trkpt lat="44.84317" lon="0.78886">
        <ele>80.4</ele>
        <time>2026-05-02T09:21:31.000Z</time>
      </trkpt>
      <trkpt lat="44.84318" lon="0.78887">
        <ele>80.4</ele>
        <time>2026-05-02T09:21:32.000Z</time>
      </trkpt>
      <trkpt lat="44.84318" lon="0.78887">
        <ele>80.4</ele>
        <time>2026-05-02T09:21:33.000Z</time>
      </trkpt>
      <trkpt lat="44.84318" lon="0.78887">
        <ele>80.4</ele>
        <time>2026-05-02T09:21:34.000Z</time>
      </trkpt>
      <trkpt lat="44.84318" lon="0.78887">
        <ele>80.4</ele>
        <time>2026-05-02T09:21:35.000Z</time>
      </trkpt>
      <trkpt lat="44.84318" lon="0.78887">
        <ele>80.4</ele>
        <time>2026-05-02T09:21:36.000Z</time>
      </trkpt>
      <trkpt lat="44.84318" lon="0.78887">
        <ele>80.4</ele>
        <time>2026-05-02T09:21:37.000Z</time>
      </trkpt>
      <trkpt lat="44.84318" lon="0.78887">
        <ele>80.4</ele>
        <time>2026-05-02T09:21:38.000Z</time>
      </trkpt>
      <trkpt lat="44.84318" lon="0.78887">
        <ele>80.5</ele>
        <time>2026-05-02T09:21:39.000Z</time>
      </trkpt>
      <trkpt lat="44.84318" lon="0.78887">
        <ele>80.5</ele>
        <time>2026-05-02T09:21:40.000Z</time>
      </trkpt>
      <trkpt lat="44.84318" lon="0.78887">
        <ele>80.5</ele>
        <time>2026-05-02T09:21:41.000Z</time>
      </trkpt>
      <trkpt lat="44.84318" lon="0.78887">
        <ele>80.5</ele>
        <time>2026-05-02T09:21:42.000Z</time>
      </trkpt>
      <trkpt lat="44.84318" lon="0.78887">
        <ele>80.5</ele>
        <time>2026-05-02T09:21:43.000Z</time>
      </trkpt>
      <trkpt lat="44.84318" lon="0.78887">
        <ele>80.5</ele>
        <time>2026-05-02T09:21:44.000Z</time>
      </trkpt>
      <trkpt lat="44.84318" lon="0.78887">
        <ele>80.5</ele>
        <time>2026-05-02T09:21:45.000Z</time>
      </trkpt>
      <trkpt lat="44.84318" lon="0.78887">
        <ele>80.5</ele>
        <time>2026-05-02T09:21:46.000Z</time>
      </trkpt>
      <trkpt lat="44.84318" lon="0.78887">
        <ele>80.5</ele>
        <time>2026-05-02T09:21:47.000Z</time>
      </trkpt>
      <trkpt lat="44.84318" lon="0.78887">
        <ele>80.5</ele>
        <time>2026-05-02T09:21:48.000Z</time>
      </trkpt>
      <trkpt lat="44.84318" lon="0.78888">
        <ele>80.5</ele>
        <time>2026-05-02T09:21:49.000Z</time>
      </trkpt>
      <trkpt lat="44.84318" lon="0.78889">
        <ele>81</ele>
        <time>2026-05-02T09:21:50.000Z</time>
      </trkpt>
      <trkpt lat="44.84318" lon="0.78889">
        <ele>81</ele>
        <time>2026-05-02T09:21:51.000Z</time>
      </trkpt>
      <trkpt lat="44.84318" lon="0.78889">
        <ele>81</ele>
        <time>2026-05-02T09:21:52.000Z</time>
      </trkpt>
      <trkpt lat="44.84318" lon="0.78889">
        <ele>81</ele>
        <time>2026-05-02T09:21:53.000Z</time>
      </trkpt>
      <trkpt lat="44.84318" lon="0.78889">
        <ele>81</ele>
        <time>2026-05-02T09:21:54.000Z</time>
      </trkpt>
      <trkpt lat="44.84318" lon="0.78889">
        <ele>81.2</ele>
        <time>2026-05-02T09:21:55.000Z</time>
      </trkpt>
      <trkpt lat="44.84319" lon="0.7889">
        <ele>81.2</ele>
        <time>2026-05-02T09:21:56.000Z</time>
      </trkpt>
      <trkpt lat="44.84319" lon="0.78892">
        <ele>81.5</ele>
        <time>2026-05-02T09:21:57.000Z</time>
      </trkpt>
      <trkpt lat="44.8432" lon="0.78894">
        <ele>82.2</ele>
        <time>2026-05-02T09:21:58.000Z</time>
      </trkpt>
      <trkpt lat="44.84321" lon="0.78896">
        <ele>82.3</ele>
        <time>2026-05-02T09:21:59.000Z</time>
      </trkpt>
      <trkpt lat="44.84322" lon="0.78898">
        <ele>82.2</ele>
        <time>2026-05-02T09:22:00.000Z</time>
      </trkpt>
      <trkpt lat="44.84323" lon="0.789">
        <ele>82</ele>
        <time>2026-05-02T09:22:01.000Z</time>
      </trkpt>
      <trkpt lat="44.84323" lon="0.78901">
        <ele>81.4</ele>
        <time>2026-05-02T09:22:02.000Z</time>
      </trkpt>
      <trkpt lat="44.84324" lon="0.78904">
        <ele>81</ele>
        <time>2026-05-02T09:22:03.000Z</time>
      </trkpt>
      <trkpt lat="44.84325" lon="0.78905">
        <ele>81.2</ele>
        <time>2026-05-02T09:22:04.000Z</time>
      </trkpt>
      <trkpt lat="44.84326" lon="0.78907">
        <ele>81.6</ele>
        <time>2026-05-02T09:22:05.000Z</time>
      </trkpt>
      <trkpt lat="44.84327" lon="0.78909">
        <ele>82.8</ele>
        <time>2026-05-02T09:22:06.000Z</time>
      </trkpt>
      <trkpt lat="44.84329" lon="0.78911">
        <ele>83.7</ele>
        <time>2026-05-02T09:22:07.000Z</time>
      </trkpt>
      <trkpt lat="44.8433" lon="0.78913">
        <ele>83.6</ele>
        <time>2026-05-02T09:22:08.000Z</time>
      </trkpt>
      <trkpt lat="44.84331" lon="0.78916">
        <ele>84.3</ele>
        <time>2026-05-02T09:22:09.000Z</time>
      </trkpt>
      <trkpt lat="44.84332" lon="0.78918">
        <ele>84.9</ele>
        <time>2026-05-02T09:22:10.000Z</time>
      </trkpt>
      <trkpt lat="44.84332" lon="0.7892">
        <ele>85.5</ele>
        <time>2026-05-02T09:22:11.000Z</time>
      </trkpt>
      <trkpt lat="44.84333" lon="0.78921">
        <ele>86.4</ele>
        <time>2026-05-02T09:22:12.000Z</time>
      </trkpt>
      <trkpt lat="44.84333" lon="0.78923">
        <ele>87</ele>
        <time>2026-05-02T09:22:13.000Z</time>
      </trkpt>
      <trkpt lat="44.84334" lon="0.78924">
        <ele>87.3</ele>
        <time>2026-05-02T09:22:14.000Z</time>
      </trkpt>
      <trkpt lat="44.84335" lon="0.78926">
        <ele>87.5</ele>
        <time>2026-05-02T09:22:15.000Z</time>
      </trkpt>
      <trkpt lat="44.84336" lon="0.78927">
        <ele>87.8</ele>
        <time>2026-05-02T09:22:16.000Z</time>
      </trkpt>
      <trkpt lat="44.84338" lon="0.78929">
        <ele>87.9</ele>
        <time>2026-05-02T09:22:17.000Z</time>
      </trkpt>
      <trkpt lat="44.84338" lon="0.7893">
        <ele>87.3</ele>
        <time>2026-05-02T09:22:18.000Z</time>
      </trkpt>
      <trkpt lat="44.84339" lon="0.78932">
        <ele>87.3</ele>
        <time>2026-05-02T09:22:19.000Z</time>
      </trkpt>
      <trkpt lat="44.8434" lon="0.78934">
        <ele>87.3</ele>
        <time>2026-05-02T09:22:20.000Z</time>
      </trkpt>
      <trkpt lat="44.84341" lon="0.78935">
        <ele>86.8</ele>
        <time>2026-05-02T09:22:21.000Z</time>
      </trkpt>
      <trkpt lat="44.84341" lon="0.78937">
        <ele>86.5</ele>
        <time>2026-05-02T09:22:22.000Z</time>
      </trkpt>
      <trkpt lat="44.84342" lon="0.78939">
        <ele>86.3</ele>
        <time>2026-05-02T09:22:23.000Z</time>
      </trkpt>
      <trkpt lat="44.84342" lon="0.7894">
        <ele>86.4</ele>
        <time>2026-05-02T09:22:24.000Z</time>
      </trkpt>
      <trkpt lat="44.84343" lon="0.78942">
        <ele>86.3</ele>
        <time>2026-05-02T09:22:25.000Z</time>
      </trkpt>
      <trkpt lat="44.84344" lon="0.78944">
        <ele>86</ele>
        <time>2026-05-02T09:22:26.000Z</time>
      </trkpt>
      <trkpt lat="44.84345" lon="0.78946">
        <ele>85.7</ele>
        <time>2026-05-02T09:22:27.000Z</time>
      </trkpt>
      <trkpt lat="44.84345" lon="0.78948">
        <ele>85.8</ele>
        <time>2026-05-02T09:22:28.000Z</time>
      </trkpt>
      <trkpt lat="44.84346" lon="0.7895">
        <ele>85.8</ele>
        <time>2026-05-02T09:22:29.000Z</time>
      </trkpt>
      <trkpt lat="44.84347" lon="0.78951">
        <ele>86</ele>
        <time>2026-05-02T09:22:30.000Z</time>
      </trkpt>
      <trkpt lat="44.84348" lon="0.78953">
        <ele>85.9</ele>
        <time>2026-05-02T09:22:31.000Z</time>
      </trkpt>
      <trkpt lat="44.84348" lon="0.78955">
        <ele>85.6</ele>
        <time>2026-05-02T09:22:32.000Z</time>
      </trkpt>
      <trkpt lat="44.84349" lon="0.78957">
        <ele>85.5</ele>
        <time>2026-05-02T09:22:33.000Z</time>
      </trkpt>
      <trkpt lat="44.8435" lon="0.78959">
        <ele>86</ele>
        <time>2026-05-02T09:22:34.000Z</time>
      </trkpt>
      <trkpt lat="44.8435" lon="0.78961">
        <ele>85.9</ele>
        <time>2026-05-02T09:22:35.000Z</time>
      </trkpt>
      <trkpt lat="44.84351" lon="0.78963">
        <ele>85.8</ele>
        <time>2026-05-02T09:22:36.000Z</time>
      </trkpt>
      <trkpt lat="44.84352" lon="0.78965">
        <ele>85.5</ele>
        <time>2026-05-02T09:22:37.000Z</time>
      </trkpt>
      <trkpt lat="44.84353" lon="0.78967">
        <ele>85.8</ele>
        <time>2026-05-02T09:22:38.000Z</time>
      </trkpt>
      <trkpt lat="44.84354" lon="0.78969">
        <ele>86.2</ele>
        <time>2026-05-02T09:22:39.000Z</time>
      </trkpt>
      <trkpt lat="44.84354" lon="0.78971">
        <ele>85.8</ele>
        <time>2026-05-02T09:22:40.000Z</time>
      </trkpt>
      <trkpt lat="44.84355" lon="0.78973">
        <ele>85.4</ele>
        <time>2026-05-02T09:22:41.000Z</time>
      </trkpt>
      <trkpt lat="44.84356" lon="0.78975">
        <ele>85.3</ele>
        <time>2026-05-02T09:22:42.000Z</time>
      </trkpt>
      <trkpt lat="44.84357" lon="0.78977">
        <ele>85.1</ele>
        <time>2026-05-02T09:22:43.000Z</time>
      </trkpt>
      <trkpt lat="44.84358" lon="0.78979">
        <ele>85.4</ele>
        <time>2026-05-02T09:22:44.000Z</time>
      </trkpt>
      <trkpt lat="44.84358" lon="0.78981">
        <ele>85.2</ele>
        <time>2026-05-02T09:22:45.000Z</time>
      </trkpt>
      <trkpt lat="44.84359" lon="0.78983">
        <ele>85.1</ele>
        <time>2026-05-02T09:22:46.000Z</time>
      </trkpt>
      <trkpt lat="44.8436" lon="0.78985">
        <ele>84.9</ele>
        <time>2026-05-02T09:22:47.000Z</time>
      </trkpt>
      <trkpt lat="44.84361" lon="0.78987">
        <ele>85.1</ele>
        <time>2026-05-02T09:22:48.000Z</time>
      </trkpt>
      <trkpt lat="44.84362" lon="0.78988">
        <ele>85.1</ele>
        <time>2026-05-02T09:22:49.000Z</time>
      </trkpt>
      <trkpt lat="44.84363" lon="0.7899">
        <ele>85.4</ele>
        <time>2026-05-02T09:22:50.000Z</time>
      </trkpt>
      <trkpt lat="44.84363" lon="0.78992">
        <ele>85</ele>
        <time>2026-05-02T09:22:51.000Z</time>
      </trkpt>
      <trkpt lat="44.84365" lon="0.78994">
        <ele>85.2</ele>
        <time>2026-05-02T09:22:52.000Z</time>
      </trkpt>
      <trkpt lat="44.84365" lon="0.78996">
        <ele>85</ele>
        <time>2026-05-02T09:22:53.000Z</time>
      </trkpt>
      <trkpt lat="44.84366" lon="0.78998">
        <ele>85</ele>
        <time>2026-05-02T09:22:54.000Z</time>
      </trkpt>
      <trkpt lat="44.84367" lon="0.79">
        <ele>85.4</ele>
        <time>2026-05-02T09:22:55.000Z</time>
      </trkpt>
      <trkpt lat="44.84368" lon="0.79002">
        <ele>84.9</ele>
        <time>2026-05-02T09:22:56.000Z</time>
      </trkpt>
      <trkpt lat="44.84369" lon="0.79004">
        <ele>85</ele>
        <time>2026-05-02T09:22:57.000Z</time>
      </trkpt>
      <trkpt lat="44.84369" lon="0.79005">
        <ele>84.6</ele>
        <time>2026-05-02T09:22:58.000Z</time>
      </trkpt>
      <trkpt lat="44.8437" lon="0.79007">
        <ele>84.8</ele>
        <time>2026-05-02T09:22:59.000Z</time>
      </trkpt>
      <trkpt lat="44.84371" lon="0.79009">
        <ele>85.4</ele>
        <time>2026-05-02T09:23:00.000Z</time>
      </trkpt>
      <trkpt lat="44.84372" lon="0.79011">
        <ele>86</ele>
        <time>2026-05-02T09:23:01.000Z</time>
      </trkpt>
      <trkpt lat="44.84373" lon="0.79013">
        <ele>86.3</ele>
        <time>2026-05-02T09:23:02.000Z</time>
      </trkpt>
      <trkpt lat="44.84373" lon="0.79015">
        <ele>86.4</ele>
        <time>2026-05-02T09:23:03.000Z</time>
      </trkpt>
      <trkpt lat="44.84374" lon="0.79017">
        <ele>86.6</ele>
        <time>2026-05-02T09:23:04.000Z</time>
      </trkpt>
      <trkpt lat="44.84375" lon="0.79019">
        <ele>87.1</ele>
        <time>2026-05-02T09:23:05.000Z</time>
      </trkpt>
      <trkpt lat="44.84376" lon="0.79021">
        <ele>86.8</ele>
        <time>2026-05-02T09:23:06.000Z</time>
      </trkpt>
      <trkpt lat="44.84376" lon="0.79023">
        <ele>87.1</ele>
        <time>2026-05-02T09:23:07.000Z</time>
      </trkpt>
      <trkpt lat="44.84377" lon="0.79024">
        <ele>87.3</ele>
        <time>2026-05-02T09:23:08.000Z</time>
      </trkpt>
      <trkpt lat="44.84378" lon="0.79026">
        <ele>87.3</ele>
        <time>2026-05-02T09:23:09.000Z</time>
      </trkpt>
      <trkpt lat="44.84379" lon="0.79028">
        <ele>87.4</ele>
        <time>2026-05-02T09:23:10.000Z</time>
      </trkpt>
      <trkpt lat="44.8438" lon="0.7903">
        <ele>87.5</ele>
        <time>2026-05-02T09:23:11.000Z</time>
      </trkpt>
      <trkpt lat="44.84381" lon="0.79032">
        <ele>87.4</ele>
        <time>2026-05-02T09:23:12.000Z</time>
      </trkpt>
      <trkpt lat="44.84381" lon="0.79034">
        <ele>87.4</ele>
        <time>2026-05-02T09:23:13.000Z</time>
      </trkpt>
      <trkpt lat="44.84382" lon="0.79036">
        <ele>87.4</ele>
        <time>2026-05-02T09:23:14.000Z</time>
      </trkpt>
      <trkpt lat="44.84382" lon="0.79038">
        <ele>87.4</ele>
        <time>2026-05-02T09:23:15.000Z</time>
      </trkpt>
      <trkpt lat="44.84382" lon="0.7904">
        <ele>87.4</ele>
        <time>2026-05-02T09:23:16.000Z</time>
      </trkpt>
      <trkpt lat="44.84383" lon="0.79042">
        <ele>87.6</ele>
        <time>2026-05-02T09:23:17.000Z</time>
      </trkpt>
      <trkpt lat="44.84383" lon="0.79045">
        <ele>88</ele>
        <time>2026-05-02T09:23:18.000Z</time>
      </trkpt>
      <trkpt lat="44.84383" lon="0.79047">
        <ele>87.8</ele>
        <time>2026-05-02T09:23:19.000Z</time>
      </trkpt>
      <trkpt lat="44.84384" lon="0.79049">
        <ele>88</ele>
        <time>2026-05-02T09:23:20.000Z</time>
      </trkpt>
      <trkpt lat="44.84384" lon="0.79051">
        <ele>88.4</ele>
        <time>2026-05-02T09:23:21.000Z</time>
      </trkpt>
      <trkpt lat="44.84385" lon="0.79054">
        <ele>88.7</ele>
        <time>2026-05-02T09:23:22.000Z</time>
      </trkpt>
      <trkpt lat="44.84385" lon="0.79056">
        <ele>88.8</ele>
        <time>2026-05-02T09:23:23.000Z</time>
      </trkpt>
      <trkpt lat="44.84385" lon="0.79058">
        <ele>88.7</ele>
        <time>2026-05-02T09:23:24.000Z</time>
      </trkpt>
      <trkpt lat="44.84385" lon="0.7906">
        <ele>88.9</ele>
        <time>2026-05-02T09:23:25.000Z</time>
      </trkpt>
      <trkpt lat="44.84385" lon="0.79063">
        <ele>88.9</ele>
        <time>2026-05-02T09:23:26.000Z</time>
      </trkpt>
      <trkpt lat="44.84385" lon="0.79065">
        <ele>89</ele>
        <time>2026-05-02T09:23:27.000Z</time>
      </trkpt>
      <trkpt lat="44.84385" lon="0.79067">
        <ele>89.1</ele>
        <time>2026-05-02T09:23:28.000Z</time>
      </trkpt>
      <trkpt lat="44.84385" lon="0.79069">
        <ele>88.8</ele>
        <time>2026-05-02T09:23:29.000Z</time>
      </trkpt>
      <trkpt lat="44.84385" lon="0.79071">
        <ele>88.8</ele>
        <time>2026-05-02T09:23:30.000Z</time>
      </trkpt>
      <trkpt lat="44.84386" lon="0.79074">
        <ele>88.6</ele>
        <time>2026-05-02T09:23:31.000Z</time>
      </trkpt>
      <trkpt lat="44.84386" lon="0.79076">
        <ele>88.7</ele>
        <time>2026-05-02T09:23:32.000Z</time>
      </trkpt>
      <trkpt lat="44.84387" lon="0.79078">
        <ele>88.9</ele>
        <time>2026-05-02T09:23:33.000Z</time>
      </trkpt>
      <trkpt lat="44.84387" lon="0.7908">
        <ele>89.1</ele>
        <time>2026-05-02T09:23:34.000Z</time>
      </trkpt>
      <trkpt lat="44.84388" lon="0.79082">
        <ele>89.4</ele>
        <time>2026-05-02T09:23:35.000Z</time>
      </trkpt>
      <trkpt lat="44.84388" lon="0.79084">
        <ele>89.7</ele>
        <time>2026-05-02T09:23:36.000Z</time>
      </trkpt>
      <trkpt lat="44.84389" lon="0.79086">
        <ele>89.9</ele>
        <time>2026-05-02T09:23:37.000Z</time>
      </trkpt>
      <trkpt lat="44.84389" lon="0.79087">
        <ele>89.7</ele>
        <time>2026-05-02T09:23:38.000Z</time>
      </trkpt>
      <trkpt lat="44.8439" lon="0.79089">
        <ele>89.7</ele>
        <time>2026-05-02T09:23:39.000Z</time>
      </trkpt>
      <trkpt lat="44.84391" lon="0.79092">
        <ele>90</ele>
        <time>2026-05-02T09:23:40.000Z</time>
      </trkpt>
      <trkpt lat="44.84391" lon="0.79094">
        <ele>89.9</ele>
        <time>2026-05-02T09:23:41.000Z</time>
      </trkpt>
      <trkpt lat="44.84392" lon="0.79096">
        <ele>90</ele>
        <time>2026-05-02T09:23:42.000Z</time>
      </trkpt>
      <trkpt lat="44.84392" lon="0.79098">
        <ele>90</ele>
        <time>2026-05-02T09:23:43.000Z</time>
      </trkpt>
      <trkpt lat="44.84392" lon="0.791">
        <ele>90.2</ele>
        <time>2026-05-02T09:23:44.000Z</time>
      </trkpt>
      <trkpt lat="44.84393" lon="0.79102">
        <ele>89.9</ele>
        <time>2026-05-02T09:23:45.000Z</time>
      </trkpt>
      <trkpt lat="44.84394" lon="0.79104">
        <ele>89.9</ele>
        <time>2026-05-02T09:23:46.000Z</time>
      </trkpt>
      <trkpt lat="44.84395" lon="0.79106">
        <ele>90.1</ele>
        <time>2026-05-02T09:23:47.000Z</time>
      </trkpt>
      <trkpt lat="44.84396" lon="0.79107">
        <ele>89.7</ele>
        <time>2026-05-02T09:23:48.000Z</time>
      </trkpt>
      <trkpt lat="44.84396" lon="0.79109">
        <ele>89.9</ele>
        <time>2026-05-02T09:23:49.000Z</time>
      </trkpt>
      <trkpt lat="44.84397" lon="0.79111">
        <ele>89.7</ele>
        <time>2026-05-02T09:23:50.000Z</time>
      </trkpt>
      <trkpt lat="44.84397" lon="0.79113">
        <ele>89.5</ele>
        <time>2026-05-02T09:23:51.000Z</time>
      </trkpt>
      <trkpt lat="44.84398" lon="0.79115">
        <ele>89.6</ele>
        <time>2026-05-02T09:23:52.000Z</time>
      </trkpt>
      <trkpt lat="44.84399" lon="0.79117">
        <ele>89.6</ele>
        <time>2026-05-02T09:23:53.000Z</time>
      </trkpt>
      <trkpt lat="44.84399" lon="0.79119">
        <ele>89.6</ele>
        <time>2026-05-02T09:23:54.000Z</time>
      </trkpt>
      <trkpt lat="44.844" lon="0.79122">
        <ele>89.9</ele>
        <time>2026-05-02T09:23:55.000Z</time>
      </trkpt>
      <trkpt lat="44.844" lon="0.79124">
        <ele>90.2</ele>
        <time>2026-05-02T09:23:56.000Z</time>
      </trkpt>
      <trkpt lat="44.84401" lon="0.79126">
        <ele>90.4</ele>
        <time>2026-05-02T09:23:57.000Z</time>
      </trkpt>
      <trkpt lat="44.84401" lon="0.79128">
        <ele>90.5</ele>
        <time>2026-05-02T09:23:58.000Z</time>
      </trkpt>
      <trkpt lat="44.84402" lon="0.7913">
        <ele>90.5</ele>
        <time>2026-05-02T09:23:59.000Z</time>
      </trkpt>
      <trkpt lat="44.84403" lon="0.79132">
        <ele>90</ele>
        <time>2026-05-02T09:24:00.000Z</time>
      </trkpt>
      <trkpt lat="44.84403" lon="0.79134">
        <ele>90</ele>
        <time>2026-05-02T09:24:01.000Z</time>
      </trkpt>
      <trkpt lat="44.84404" lon="0.79136">
        <ele>90.3</ele>
        <time>2026-05-02T09:24:02.000Z</time>
      </trkpt>
      <trkpt lat="44.84405" lon="0.79138">
        <ele>90.5</ele>
        <time>2026-05-02T09:24:03.000Z</time>
      </trkpt>
      <trkpt lat="44.84406" lon="0.7914">
        <ele>90.5</ele>
        <time>2026-05-02T09:24:04.000Z</time>
      </trkpt>
      <trkpt lat="44.84407" lon="0.79142">
        <ele>90.6</ele>
        <time>2026-05-02T09:24:05.000Z</time>
      </trkpt>
      <trkpt lat="44.84409" lon="0.79145">
        <ele>90.7</ele>
        <time>2026-05-02T09:24:06.000Z</time>
      </trkpt>
      <trkpt lat="44.8441" lon="0.79146">
        <ele>91.1</ele>
        <time>2026-05-02T09:24:07.000Z</time>
      </trkpt>
      <trkpt lat="44.84411" lon="0.79148">
        <ele>91.5</ele>
        <time>2026-05-02T09:24:08.000Z</time>
      </trkpt>
      <trkpt lat="44.84412" lon="0.7915">
        <ele>91.8</ele>
        <time>2026-05-02T09:24:09.000Z</time>
      </trkpt>
      <trkpt lat="44.84413" lon="0.79151">
        <ele>92.1</ele>
        <time>2026-05-02T09:24:10.000Z</time>
      </trkpt>
      <trkpt lat="44.84414" lon="0.79153">
        <ele>92.5</ele>
        <time>2026-05-02T09:24:11.000Z</time>
      </trkpt>
      <trkpt lat="44.84415" lon="0.79155">
        <ele>92.3</ele>
        <time>2026-05-02T09:24:12.000Z</time>
      </trkpt>
      <trkpt lat="44.84416" lon="0.79157">
        <ele>92.5</ele>
        <time>2026-05-02T09:24:13.000Z</time>
      </trkpt>
      <trkpt lat="44.84417" lon="0.79158">
        <ele>92.8</ele>
        <time>2026-05-02T09:24:14.000Z</time>
      </trkpt>
      <trkpt lat="44.84418" lon="0.7916">
        <ele>92.9</ele>
        <time>2026-05-02T09:24:15.000Z</time>
      </trkpt>
      <trkpt lat="44.84419" lon="0.79162">
        <ele>93.1</ele>
        <time>2026-05-02T09:24:16.000Z</time>
      </trkpt>
      <trkpt lat="44.8442" lon="0.79164">
        <ele>93.2</ele>
        <time>2026-05-02T09:24:17.000Z</time>
      </trkpt>
      <trkpt lat="44.84421" lon="0.79165">
        <ele>94</ele>
        <time>2026-05-02T09:24:18.000Z</time>
      </trkpt>
      <trkpt lat="44.84422" lon="0.79167">
        <ele>94</ele>
        <time>2026-05-02T09:24:19.000Z</time>
      </trkpt>
      <trkpt lat="44.84423" lon="0.79169">
        <ele>93.8</ele>
        <time>2026-05-02T09:24:20.000Z</time>
      </trkpt>
      <trkpt lat="44.84424" lon="0.79171">
        <ele>94</ele>
        <time>2026-05-02T09:24:21.000Z</time>
      </trkpt>
      <trkpt lat="44.84426" lon="0.79173">
        <ele>94.3</ele>
        <time>2026-05-02T09:24:22.000Z</time>
      </trkpt>
      <trkpt lat="44.84427" lon="0.79174">
        <ele>94.5</ele>
        <time>2026-05-02T09:24:23.000Z</time>
      </trkpt>
      <trkpt lat="44.84427" lon="0.79176">
        <ele>95</ele>
        <time>2026-05-02T09:24:24.000Z</time>
      </trkpt>
      <trkpt lat="44.84428" lon="0.79178">
        <ele>95.3</ele>
        <time>2026-05-02T09:24:25.000Z</time>
      </trkpt>
      <trkpt lat="44.84429" lon="0.7918">
        <ele>95.1</ele>
        <time>2026-05-02T09:24:26.000Z</time>
      </trkpt>
      <trkpt lat="44.8443" lon="0.79182">
        <ele>95.2</ele>
        <time>2026-05-02T09:24:27.000Z</time>
      </trkpt>
      <trkpt lat="44.84431" lon="0.79183">
        <ele>95.3</ele>
        <time>2026-05-02T09:24:28.000Z</time>
      </trkpt>
      <trkpt lat="44.84432" lon="0.79185">
        <ele>95.5</ele>
        <time>2026-05-02T09:24:29.000Z</time>
      </trkpt>
      <trkpt lat="44.84432" lon="0.79187">
        <ele>95.6</ele>
        <time>2026-05-02T09:24:30.000Z</time>
      </trkpt>
      <trkpt lat="44.84433" lon="0.79189">
        <ele>95.7</ele>
        <time>2026-05-02T09:24:31.000Z</time>
      </trkpt>
      <trkpt lat="44.84434" lon="0.79191">
        <ele>96.3</ele>
        <time>2026-05-02T09:24:32.000Z</time>
      </trkpt>
      <trkpt lat="44.84435" lon="0.79192">
        <ele>96.2</ele>
        <time>2026-05-02T09:24:33.000Z</time>
      </trkpt>
      <trkpt lat="44.84436" lon="0.79194">
        <ele>96.6</ele>
        <time>2026-05-02T09:24:34.000Z</time>
      </trkpt>
      <trkpt lat="44.84437" lon="0.79195">
        <ele>96.4</ele>
        <time>2026-05-02T09:24:35.000Z</time>
      </trkpt>
      <trkpt lat="44.84438" lon="0.79197">
        <ele>96.3</ele>
        <time>2026-05-02T09:24:36.000Z</time>
      </trkpt>
      <trkpt lat="44.84439" lon="0.79199">
        <ele>96.2</ele>
        <time>2026-05-02T09:24:37.000Z</time>
      </trkpt>
      <trkpt lat="44.8444" lon="0.792">
        <ele>96.2</ele>
        <time>2026-05-02T09:24:38.000Z</time>
      </trkpt>
      <trkpt lat="44.84441" lon="0.79202">
        <ele>95.8</ele>
        <time>2026-05-02T09:24:39.000Z</time>
      </trkpt>
      <trkpt lat="44.84442" lon="0.79204">
        <ele>95.9</ele>
        <time>2026-05-02T09:24:40.000Z</time>
      </trkpt>
      <trkpt lat="44.84443" lon="0.79206">
        <ele>95.9</ele>
        <time>2026-05-02T09:24:41.000Z</time>
      </trkpt>
      <trkpt lat="44.84444" lon="0.79208">
        <ele>96.2</ele>
        <time>2026-05-02T09:24:42.000Z</time>
      </trkpt>
      <trkpt lat="44.84445" lon="0.7921">
        <ele>96.3</ele>
        <time>2026-05-02T09:24:43.000Z</time>
      </trkpt>
      <trkpt lat="44.84446" lon="0.79211">
        <ele>96.3</ele>
        <time>2026-05-02T09:24:44.000Z</time>
      </trkpt>
      <trkpt lat="44.84447" lon="0.79213">
        <ele>96.3</ele>
        <time>2026-05-02T09:24:45.000Z</time>
      </trkpt>
      <trkpt lat="44.84447" lon="0.79215">
        <ele>96.4</ele>
        <time>2026-05-02T09:24:46.000Z</time>
      </trkpt>
      <trkpt lat="44.84448" lon="0.79216">
        <ele>96.5</ele>
        <time>2026-05-02T09:24:47.000Z</time>
      </trkpt>
      <trkpt lat="44.84448" lon="0.79216">
        <ele>96.5</ele>
        <time>2026-05-02T09:24:48.000Z</time>
      </trkpt>
      <trkpt lat="44.84448" lon="0.79216">
        <ele>96.5</ele>
        <time>2026-05-02T09:24:49.000Z</time>
      </trkpt>
      <trkpt lat="44.84448" lon="0.79217">
        <ele>96.3</ele>
        <time>2026-05-02T09:24:50.000Z</time>
      </trkpt>
      <trkpt lat="44.84447" lon="0.79218">
        <ele>96.4</ele>
        <time>2026-05-02T09:24:51.000Z</time>
      </trkpt>
      <trkpt lat="44.84445" lon="0.79219">
        <ele>96.2</ele>
        <time>2026-05-02T09:24:52.000Z</time>
      </trkpt>
      <trkpt lat="44.84444" lon="0.79219">
        <ele>96.1</ele>
        <time>2026-05-02T09:24:53.000Z</time>
      </trkpt>
      <trkpt lat="44.84442" lon="0.79218">
        <ele>95.9</ele>
        <time>2026-05-02T09:24:54.000Z</time>
      </trkpt>
      <trkpt lat="44.84441" lon="0.79217">
        <ele>96</ele>
        <time>2026-05-02T09:24:55.000Z</time>
      </trkpt>
      <trkpt lat="44.84439" lon="0.79215">
        <ele>96</ele>
        <time>2026-05-02T09:24:56.000Z</time>
      </trkpt>
      <trkpt lat="44.84438" lon="0.79213">
        <ele>95.8</ele>
        <time>2026-05-02T09:24:57.000Z</time>
      </trkpt>
      <trkpt lat="44.84437" lon="0.79211">
        <ele>95.8</ele>
        <time>2026-05-02T09:24:58.000Z</time>
      </trkpt>
      <trkpt lat="44.84435" lon="0.7921">
        <ele>95.5</ele>
        <time>2026-05-02T09:24:59.000Z</time>
      </trkpt>
      <trkpt lat="44.84434" lon="0.79209">
        <ele>94.9</ele>
        <time>2026-05-02T09:25:00.000Z</time>
      </trkpt>
      <trkpt lat="44.84432" lon="0.79207">
        <ele>94.6</ele>
        <time>2026-05-02T09:25:01.000Z</time>
      </trkpt>
      <trkpt lat="44.84431" lon="0.79207">
        <ele>94.3</ele>
        <time>2026-05-02T09:25:02.000Z</time>
      </trkpt>
      <trkpt lat="44.84429" lon="0.79206">
        <ele>94.2</ele>
        <time>2026-05-02T09:25:03.000Z</time>
      </trkpt>
      <trkpt lat="44.84428" lon="0.79205">
        <ele>93.4</ele>
        <time>2026-05-02T09:25:04.000Z</time>
      </trkpt>
      <trkpt lat="44.84426" lon="0.79204">
        <ele>93.2</ele>
        <time>2026-05-02T09:25:05.000Z</time>
      </trkpt>
      <trkpt lat="44.84424" lon="0.79203">
        <ele>93</ele>
        <time>2026-05-02T09:25:06.000Z</time>
      </trkpt>
      <trkpt lat="44.84423" lon="0.79201">
        <ele>93.4</ele>
        <time>2026-05-02T09:25:07.000Z</time>
      </trkpt>
      <trkpt lat="44.84421" lon="0.792">
        <ele>93.5</ele>
        <time>2026-05-02T09:25:08.000Z</time>
      </trkpt>
      <trkpt lat="44.8442" lon="0.79199">
        <ele>93.4</ele>
        <time>2026-05-02T09:25:09.000Z</time>
      </trkpt>
      <trkpt lat="44.84419" lon="0.79198">
        <ele>93.3</ele>
        <time>2026-05-02T09:25:10.000Z</time>
      </trkpt>
      <trkpt lat="44.84417" lon="0.79197">
        <ele>93.3</ele>
        <time>2026-05-02T09:25:11.000Z</time>
      </trkpt>
      <trkpt lat="44.84416" lon="0.79196">
        <ele>93.3</ele>
        <time>2026-05-02T09:25:12.000Z</time>
      </trkpt>
      <trkpt lat="44.84414" lon="0.79195">
        <ele>93.5</ele>
        <time>2026-05-02T09:25:13.000Z</time>
      </trkpt>
      <trkpt lat="44.84413" lon="0.79194">
        <ele>93.7</ele>
        <time>2026-05-02T09:25:14.000Z</time>
      </trkpt>
      <trkpt lat="44.84411" lon="0.79193">
        <ele>93.6</ele>
        <time>2026-05-02T09:25:15.000Z</time>
      </trkpt>
      <trkpt lat="44.8441" lon="0.79192">
        <ele>93.6</ele>
        <time>2026-05-02T09:25:16.000Z</time>
      </trkpt>
      <trkpt lat="44.84408" lon="0.7919">
        <ele>93.4</ele>
        <time>2026-05-02T09:25:17.000Z</time>
      </trkpt>
      <trkpt lat="44.84407" lon="0.79189">
        <ele>93.4</ele>
        <time>2026-05-02T09:25:18.000Z</time>
      </trkpt>
      <trkpt lat="44.84406" lon="0.79188">
        <ele>93.2</ele>
        <time>2026-05-02T09:25:19.000Z</time>
      </trkpt>
      <trkpt lat="44.84404" lon="0.79188">
        <ele>93.7</ele>
        <time>2026-05-02T09:25:20.000Z</time>
      </trkpt>
      <trkpt lat="44.84403" lon="0.79187">
        <ele>94</ele>
        <time>2026-05-02T09:25:21.000Z</time>
      </trkpt>
      <trkpt lat="44.84402" lon="0.79187">
        <ele>94.1</ele>
        <time>2026-05-02T09:25:22.000Z</time>
      </trkpt>
      <trkpt lat="44.844" lon="0.79186">
        <ele>94.4</ele>
        <time>2026-05-02T09:25:23.000Z</time>
      </trkpt>
      <trkpt lat="44.84399" lon="0.79185">
        <ele>94.7</ele>
        <time>2026-05-02T09:25:24.000Z</time>
      </trkpt>
      <trkpt lat="44.84398" lon="0.79184">
        <ele>94.8</ele>
        <time>2026-05-02T09:25:25.000Z</time>
      </trkpt>
      <trkpt lat="44.84396" lon="0.79183">
        <ele>94.8</ele>
        <time>2026-05-02T09:25:26.000Z</time>
      </trkpt>
      <trkpt lat="44.84395" lon="0.79183">
        <ele>95.2</ele>
        <time>2026-05-02T09:25:27.000Z</time>
      </trkpt>
      <trkpt lat="44.84393" lon="0.79182">
        <ele>95.5</ele>
        <time>2026-05-02T09:25:28.000Z</time>
      </trkpt>
      <trkpt lat="44.84392" lon="0.79181">
        <ele>95.6</ele>
        <time>2026-05-02T09:25:29.000Z</time>
      </trkpt>
      <trkpt lat="44.84391" lon="0.79179">
        <ele>96</ele>
        <time>2026-05-02T09:25:30.000Z</time>
      </trkpt>
      <trkpt lat="44.8439" lon="0.79178">
        <ele>96</ele>
        <time>2026-05-02T09:25:31.000Z</time>
      </trkpt>
      <trkpt lat="44.84389" lon="0.79177">
        <ele>96.4</ele>
        <time>2026-05-02T09:25:32.000Z</time>
      </trkpt>
      <trkpt lat="44.84387" lon="0.79175">
        <ele>96.5</ele>
        <time>2026-05-02T09:25:33.000Z</time>
      </trkpt>
      <trkpt lat="44.84386" lon="0.79174">
        <ele>97</ele>
        <time>2026-05-02T09:25:34.000Z</time>
      </trkpt>
      <trkpt lat="44.84385" lon="0.79173">
        <ele>97</ele>
        <time>2026-05-02T09:25:35.000Z</time>
      </trkpt>
      <trkpt lat="44.84384" lon="0.79172">
        <ele>97</ele>
        <time>2026-05-02T09:25:36.000Z</time>
      </trkpt>
      <trkpt lat="44.84383" lon="0.7917">
        <ele>97.4</ele>
        <time>2026-05-02T09:25:37.000Z</time>
      </trkpt>
      <trkpt lat="44.84381" lon="0.79169">
        <ele>97.6</ele>
        <time>2026-05-02T09:25:38.000Z</time>
      </trkpt>
      <trkpt lat="44.8438" lon="0.79168">
        <ele>97.6</ele>
        <time>2026-05-02T09:25:39.000Z</time>
      </trkpt>
      <trkpt lat="44.84379" lon="0.79167">
        <ele>97.5</ele>
        <time>2026-05-02T09:25:40.000Z</time>
      </trkpt>
      <trkpt lat="44.84377" lon="0.79166">
        <ele>97.7</ele>
        <time>2026-05-02T09:25:41.000Z</time>
      </trkpt>
      <trkpt lat="44.84376" lon="0.79165">
        <ele>97.7</ele>
        <time>2026-05-02T09:25:42.000Z</time>
      </trkpt>
      <trkpt lat="44.84375" lon="0.79164">
        <ele>97.5</ele>
        <time>2026-05-02T09:25:43.000Z</time>
      </trkpt>
      <trkpt lat="44.84373" lon="0.79163">
        <ele>97.3</ele>
        <time>2026-05-02T09:25:44.000Z</time>
      </trkpt>
      <trkpt lat="44.84372" lon="0.79162">
        <ele>97.5</ele>
        <time>2026-05-02T09:25:45.000Z</time>
      </trkpt>
      <trkpt lat="44.8437" lon="0.79161">
        <ele>97.3</ele>
        <time>2026-05-02T09:25:46.000Z</time>
      </trkpt>
      <trkpt lat="44.84369" lon="0.7916">
        <ele>97.5</ele>
        <time>2026-05-02T09:25:47.000Z</time>
      </trkpt>
      <trkpt lat="44.84368" lon="0.79159">
        <ele>97.4</ele>
        <time>2026-05-02T09:25:48.000Z</time>
      </trkpt>
      <trkpt lat="44.84367" lon="0.79157">
        <ele>97.5</ele>
        <time>2026-05-02T09:25:49.000Z</time>
      </trkpt>
      <trkpt lat="44.84366" lon="0.79156">
        <ele>97.3</ele>
        <time>2026-05-02T09:25:50.000Z</time>
      </trkpt>
      <trkpt lat="44.84365" lon="0.79155">
        <ele>97.4</ele>
        <time>2026-05-02T09:25:51.000Z</time>
      </trkpt>
      <trkpt lat="44.84364" lon="0.79154">
        <ele>97.3</ele>
        <time>2026-05-02T09:25:52.000Z</time>
      </trkpt>
      <trkpt lat="44.84363" lon="0.79154">
        <ele>97.1</ele>
        <time>2026-05-02T09:25:53.000Z</time>
      </trkpt>
      <trkpt lat="44.84363" lon="0.79153">
        <ele>97.1</ele>
        <time>2026-05-02T09:25:54.000Z</time>
      </trkpt>
      <trkpt lat="44.84363" lon="0.79153">
        <ele>97.2</ele>
        <time>2026-05-02T09:25:55.000Z</time>
      </trkpt>
      <trkpt lat="44.8436" lon="0.79152">
        <ele>97.2</ele>
        <time>2026-05-02T09:25:56.000Z</time>
      </trkpt>
      <trkpt lat="44.84358" lon="0.79151">
        <ele>97.3</ele>
        <time>2026-05-02T09:25:57.000Z</time>
      </trkpt>
      <trkpt lat="44.84357" lon="0.79151">
        <ele>98</ele>
        <time>2026-05-02T09:25:58.000Z</time>
      </trkpt>
      <trkpt lat="44.84356" lon="0.79151">
        <ele>97.9</ele>
        <time>2026-05-02T09:25:59.000Z</time>
      </trkpt>
      <trkpt lat="44.84355" lon="0.79152">
        <ele>97.7</ele>
        <time>2026-05-02T09:26:00.000Z</time>
      </trkpt>
      <trkpt lat="44.84354" lon="0.79153">
        <ele>97.3</ele>
        <time>2026-05-02T09:26:01.000Z</time>
      </trkpt>
      <trkpt lat="44.84354" lon="0.79155">
        <ele>97.5</ele>
        <time>2026-05-02T09:26:02.000Z</time>
      </trkpt>
      <trkpt lat="44.84354" lon="0.79157">
        <ele>96.6</ele>
        <time>2026-05-02T09:26:03.000Z</time>
      </trkpt>
      <trkpt lat="44.84354" lon="0.79158">
        <ele>96.5</ele>
        <time>2026-05-02T09:26:04.000Z</time>
      </trkpt>
      <trkpt lat="44.84354" lon="0.7916">
        <ele>96.6</ele>
        <time>2026-05-02T09:26:05.000Z</time>
      </trkpt>
      <trkpt lat="44.84354" lon="0.79162">
        <ele>96.5</ele>
        <time>2026-05-02T09:26:06.000Z</time>
      </trkpt>
      <trkpt lat="44.84354" lon="0.79164">
        <ele>96.7</ele>
        <time>2026-05-02T09:26:07.000Z</time>
      </trkpt>
      <trkpt lat="44.84354" lon="0.79166">
        <ele>97.2</ele>
        <time>2026-05-02T09:26:08.000Z</time>
      </trkpt>
      <trkpt lat="44.84353" lon="0.79167">
        <ele>97</ele>
        <time>2026-05-02T09:26:09.000Z</time>
      </trkpt>
      <trkpt lat="44.84353" lon="0.79169">
        <ele>97.2</ele>
        <time>2026-05-02T09:26:10.000Z</time>
      </trkpt>
      <trkpt lat="44.84352" lon="0.79171">
        <ele>97</ele>
        <time>2026-05-02T09:26:11.000Z</time>
      </trkpt>
      <trkpt lat="44.84353" lon="0.79175">
        <ele>97</ele>
        <time>2026-05-02T09:26:12.000Z</time>
      </trkpt>
      <trkpt lat="44.84352" lon="0.79177">
        <ele>97.5</ele>
        <time>2026-05-02T09:26:13.000Z</time>
      </trkpt>
      <trkpt lat="44.84352" lon="0.79179">
        <ele>97.6</ele>
        <time>2026-05-02T09:26:14.000Z</time>
      </trkpt>
      <trkpt lat="44.84351" lon="0.7918">
        <ele>97.7</ele>
        <time>2026-05-02T09:26:15.000Z</time>
      </trkpt>
      <trkpt lat="44.8435" lon="0.79182">
        <ele>97.7</ele>
        <time>2026-05-02T09:26:16.000Z</time>
      </trkpt>
      <trkpt lat="44.84349" lon="0.79184">
        <ele>97.8</ele>
        <time>2026-05-02T09:26:17.000Z</time>
      </trkpt>
      <trkpt lat="44.84348" lon="0.79186">
        <ele>97.8</ele>
        <time>2026-05-02T09:26:18.000Z</time>
      </trkpt>
      <trkpt lat="44.84348" lon="0.79188">
        <ele>97.9</ele>
        <time>2026-05-02T09:26:19.000Z</time>
      </trkpt>
      <trkpt lat="44.84347" lon="0.7919">
        <ele>97.9</ele>
        <time>2026-05-02T09:26:20.000Z</time>
      </trkpt>
      <trkpt lat="44.84347" lon="0.79192">
        <ele>97.8</ele>
        <time>2026-05-02T09:26:21.000Z</time>
      </trkpt>
      <trkpt lat="44.84346" lon="0.79195">
        <ele>98</ele>
        <time>2026-05-02T09:26:22.000Z</time>
      </trkpt>
      <trkpt lat="44.84345" lon="0.79197">
        <ele>98.3</ele>
        <time>2026-05-02T09:26:23.000Z</time>
      </trkpt>
      <trkpt lat="44.84345" lon="0.79199">
        <ele>98.7</ele>
        <time>2026-05-02T09:26:24.000Z</time>
      </trkpt>
      <trkpt lat="44.84344" lon="0.79201">
        <ele>98.7</ele>
        <time>2026-05-02T09:26:25.000Z</time>
      </trkpt>
      <trkpt lat="44.84344" lon="0.79203">
        <ele>98.8</ele>
        <time>2026-05-02T09:26:26.000Z</time>
      </trkpt>
      <trkpt lat="44.84343" lon="0.79205">
        <ele>98.8</ele>
        <time>2026-05-02T09:26:27.000Z</time>
      </trkpt>
      <trkpt lat="44.84343" lon="0.79207">
        <ele>98.6</ele>
        <time>2026-05-02T09:26:28.000Z</time>
      </trkpt>
      <trkpt lat="44.84342" lon="0.79209">
        <ele>98.8</ele>
        <time>2026-05-02T09:26:29.000Z</time>
      </trkpt>
      <trkpt lat="44.84342" lon="0.79211">
        <ele>98.4</ele>
        <time>2026-05-02T09:26:30.000Z</time>
      </trkpt>
      <trkpt lat="44.84341" lon="0.79213">
        <ele>98.7</ele>
        <time>2026-05-02T09:26:31.000Z</time>
      </trkpt>
      <trkpt lat="44.84341" lon="0.79215">
        <ele>98.8</ele>
        <time>2026-05-02T09:26:32.000Z</time>
      </trkpt>
      <trkpt lat="44.84341" lon="0.79217">
        <ele>99.1</ele>
        <time>2026-05-02T09:26:33.000Z</time>
      </trkpt>
      <trkpt lat="44.84341" lon="0.79219">
        <ele>98.9</ele>
        <time>2026-05-02T09:26:34.000Z</time>
      </trkpt>
      <trkpt lat="44.8434" lon="0.79221">
        <ele>99.3</ele>
        <time>2026-05-02T09:26:35.000Z</time>
      </trkpt>
      <trkpt lat="44.8434" lon="0.79223">
        <ele>99.3</ele>
        <time>2026-05-02T09:26:36.000Z</time>
      </trkpt>
      <trkpt lat="44.84339" lon="0.79225">
        <ele>99.3</ele>
        <time>2026-05-02T09:26:37.000Z</time>
      </trkpt>
      <trkpt lat="44.84339" lon="0.79228">
        <ele>99.5</ele>
        <time>2026-05-02T09:26:38.000Z</time>
      </trkpt>
      <trkpt lat="44.84339" lon="0.7923">
        <ele>99.7</ele>
        <time>2026-05-02T09:26:39.000Z</time>
      </trkpt>
      <trkpt lat="44.84338" lon="0.79232">
        <ele>99.9</ele>
        <time>2026-05-02T09:26:40.000Z</time>
      </trkpt>
      <trkpt lat="44.84338" lon="0.79234">
        <ele>99.9</ele>
        <time>2026-05-02T09:26:41.000Z</time>
      </trkpt>
      <trkpt lat="44.84338" lon="0.79237">
        <ele>100.2</ele>
        <time>2026-05-02T09:26:42.000Z</time>
      </trkpt>
      <trkpt lat="44.84337" lon="0.79239">
        <ele>100.2</ele>
        <time>2026-05-02T09:26:43.000Z</time>
      </trkpt>
      <trkpt lat="44.84337" lon="0.7924">
        <ele>100.5</ele>
        <time>2026-05-02T09:26:44.000Z</time>
      </trkpt>
      <trkpt lat="44.84336" lon="0.79242">
        <ele>100.9</ele>
        <time>2026-05-02T09:26:45.000Z</time>
      </trkpt>
      <trkpt lat="44.84335" lon="0.79244">
        <ele>101.2</ele>
        <time>2026-05-02T09:26:46.000Z</time>
      </trkpt>
      <trkpt lat="44.84335" lon="0.79246">
        <ele>101</ele>
        <time>2026-05-02T09:26:47.000Z</time>
      </trkpt>
      <trkpt lat="44.84336" lon="0.79248">
        <ele>101.2</ele>
        <time>2026-05-02T09:26:48.000Z</time>
      </trkpt>
      <trkpt lat="44.84336" lon="0.7925">
        <ele>101.3</ele>
        <time>2026-05-02T09:26:49.000Z</time>
      </trkpt>
      <trkpt lat="44.84336" lon="0.79253">
        <ele>101.6</ele>
        <time>2026-05-02T09:26:50.000Z</time>
      </trkpt>
      <trkpt lat="44.84336" lon="0.79255">
        <ele>101.8</ele>
        <time>2026-05-02T09:26:51.000Z</time>
      </trkpt>
      <trkpt lat="44.84336" lon="0.79257">
        <ele>102.1</ele>
        <time>2026-05-02T09:26:52.000Z</time>
      </trkpt>
      <trkpt lat="44.84336" lon="0.79259">
        <ele>102.4</ele>
        <time>2026-05-02T09:26:53.000Z</time>
      </trkpt>
      <trkpt lat="44.84336" lon="0.79261">
        <ele>102.6</ele>
        <time>2026-05-02T09:26:54.000Z</time>
      </trkpt>
      <trkpt lat="44.84336" lon="0.79263">
        <ele>102.6</ele>
        <time>2026-05-02T09:26:55.000Z</time>
      </trkpt>
      <trkpt lat="44.84336" lon="0.79265">
        <ele>102.1</ele>
        <time>2026-05-02T09:26:56.000Z</time>
      </trkpt>
      <trkpt lat="44.84336" lon="0.79267">
        <ele>102.1</ele>
        <time>2026-05-02T09:26:57.000Z</time>
      </trkpt>
      <trkpt lat="44.84336" lon="0.79269">
        <ele>101.8</ele>
        <time>2026-05-02T09:26:58.000Z</time>
      </trkpt>
      <trkpt lat="44.84335" lon="0.79272">
        <ele>101.8</ele>
        <time>2026-05-02T09:26:59.000Z</time>
      </trkpt>
      <trkpt lat="44.84335" lon="0.79274">
        <ele>101.7</ele>
        <time>2026-05-02T09:27:00.000Z</time>
      </trkpt>
      <trkpt lat="44.84335" lon="0.79276">
        <ele>101.7</ele>
        <time>2026-05-02T09:27:01.000Z</time>
      </trkpt>
      <trkpt lat="44.84334" lon="0.79278">
        <ele>101.6</ele>
        <time>2026-05-02T09:27:02.000Z</time>
      </trkpt>
      <trkpt lat="44.84334" lon="0.7928">
        <ele>101.8</ele>
        <time>2026-05-02T09:27:03.000Z</time>
      </trkpt>
      <trkpt lat="44.84334" lon="0.79282">
        <ele>102.1</ele>
        <time>2026-05-02T09:27:04.000Z</time>
      </trkpt>
      <trkpt lat="44.84333" lon="0.79285">
        <ele>102</ele>
        <time>2026-05-02T09:27:05.000Z</time>
      </trkpt>
      <trkpt lat="44.84333" lon="0.79287">
        <ele>101.7</ele>
        <time>2026-05-02T09:27:06.000Z</time>
      </trkpt>
      <trkpt lat="44.84333" lon="0.79289">
        <ele>101.4</ele>
        <time>2026-05-02T09:27:07.000Z</time>
      </trkpt>
      <trkpt lat="44.84333" lon="0.79291">
        <ele>101.3</ele>
        <time>2026-05-02T09:27:08.000Z</time>
      </trkpt>
      <trkpt lat="44.84334" lon="0.79294">
        <ele>101.3</ele>
        <time>2026-05-02T09:27:09.000Z</time>
      </trkpt>
      <trkpt lat="44.84334" lon="0.79296">
        <ele>101.2</ele>
        <time>2026-05-02T09:27:10.000Z</time>
      </trkpt>
      <trkpt lat="44.84334" lon="0.79298">
        <ele>101.4</ele>
        <time>2026-05-02T09:27:11.000Z</time>
      </trkpt>
      <trkpt lat="44.84334" lon="0.793">
        <ele>101.5</ele>
        <time>2026-05-02T09:27:12.000Z</time>
      </trkpt>
      <trkpt lat="44.84334" lon="0.79302">
        <ele>101.5</ele>
        <time>2026-05-02T09:27:13.000Z</time>
      </trkpt>
      <trkpt lat="44.84335" lon="0.79304">
        <ele>101.5</ele>
        <time>2026-05-02T09:27:14.000Z</time>
      </trkpt>
      <trkpt lat="44.84335" lon="0.79306">
        <ele>101.6</ele>
        <time>2026-05-02T09:27:15.000Z</time>
      </trkpt>
      <trkpt lat="44.84335" lon="0.79309">
        <ele>101.3</ele>
        <time>2026-05-02T09:27:16.000Z</time>
      </trkpt>
      <trkpt lat="44.84334" lon="0.79311">
        <ele>101.5</ele>
        <time>2026-05-02T09:27:17.000Z</time>
      </trkpt>
      <trkpt lat="44.84334" lon="0.79314">
        <ele>101.6</ele>
        <time>2026-05-02T09:27:18.000Z</time>
      </trkpt>
      <trkpt lat="44.84333" lon="0.79316">
        <ele>101.5</ele>
        <time>2026-05-02T09:27:19.000Z</time>
      </trkpt>
      <trkpt lat="44.84332" lon="0.79318">
        <ele>101.9</ele>
        <time>2026-05-02T09:27:20.000Z</time>
      </trkpt>
      <trkpt lat="44.84331" lon="0.79319">
        <ele>102.2</ele>
        <time>2026-05-02T09:27:21.000Z</time>
      </trkpt>
      <trkpt lat="44.84329" lon="0.7932">
        <ele>102.1</ele>
        <time>2026-05-02T09:27:22.000Z</time>
      </trkpt>
      <trkpt lat="44.84328" lon="0.79322">
        <ele>102.1</ele>
        <time>2026-05-02T09:27:23.000Z</time>
      </trkpt>
      <trkpt lat="44.84327" lon="0.79323">
        <ele>102.4</ele>
        <time>2026-05-02T09:27:24.000Z</time>
      </trkpt>
      <trkpt lat="44.84326" lon="0.79325">
        <ele>102.3</ele>
        <time>2026-05-02T09:27:25.000Z</time>
      </trkpt>
      <trkpt lat="44.84325" lon="0.79326">
        <ele>102.1</ele>
        <time>2026-05-02T09:27:26.000Z</time>
      </trkpt>
      <trkpt lat="44.84324" lon="0.79328">
        <ele>101.9</ele>
        <time>2026-05-02T09:27:27.000Z</time>
      </trkpt>
      <trkpt lat="44.84322" lon="0.79329">
        <ele>102.1</ele>
        <time>2026-05-02T09:27:28.000Z</time>
      </trkpt>
      <trkpt lat="44.84321" lon="0.7933">
        <ele>102.3</ele>
        <time>2026-05-02T09:27:29.000Z</time>
      </trkpt>
      <trkpt lat="44.84318" lon="0.79328">
        <ele>101.5</ele>
        <time>2026-05-02T09:27:30.000Z</time>
      </trkpt>
      <trkpt lat="44.84319" lon="0.79333">
        <ele>102.3</ele>
        <time>2026-05-02T09:27:31.000Z</time>
      </trkpt>
      <trkpt lat="44.84319" lon="0.79335">
        <ele>102.3</ele>
        <time>2026-05-02T09:27:32.000Z</time>
      </trkpt>
      <trkpt lat="44.84319" lon="0.79334">
        <ele>102.3</ele>
        <time>2026-05-02T09:27:33.000Z</time>
      </trkpt>
      <trkpt lat="44.84319" lon="0.79334">
        <ele>102.5</ele>
        <time>2026-05-02T09:27:34.000Z</time>
      </trkpt>
      <trkpt lat="44.84319" lon="0.79334">
        <ele>103</ele>
        <time>2026-05-02T09:27:35.000Z</time>
      </trkpt>
      <trkpt lat="44.8432" lon="0.79334">
        <ele>103.4</ele>
        <time>2026-05-02T09:27:36.000Z</time>
      </trkpt>
      <trkpt lat="44.84319" lon="0.79334">
        <ele>103.4</ele>
        <time>2026-05-02T09:27:37.000Z</time>
      </trkpt>
      <trkpt lat="44.84319" lon="0.79334">
        <ele>103.3</ele>
        <time>2026-05-02T09:27:38.000Z</time>
      </trkpt>
      <trkpt lat="44.8432" lon="0.79334">
        <ele>103.2</ele>
        <time>2026-05-02T09:27:39.000Z</time>
      </trkpt>
      <trkpt lat="44.8432" lon="0.79333">
        <ele>103.1</ele>
        <time>2026-05-02T09:27:40.000Z</time>
      </trkpt>
      <trkpt lat="44.8432" lon="0.79333">
        <ele>102.9</ele>
        <time>2026-05-02T09:27:41.000Z</time>
      </trkpt>
      <trkpt lat="44.84321" lon="0.79332">
        <ele>102.7</ele>
        <time>2026-05-02T09:27:42.000Z</time>
      </trkpt>
      <trkpt lat="44.84323" lon="0.79331">
        <ele>102.4</ele>
        <time>2026-05-02T09:27:43.000Z</time>
      </trkpt>
      <trkpt lat="44.84324" lon="0.7933">
        <ele>102.3</ele>
        <time>2026-05-02T09:27:44.000Z</time>
      </trkpt>
      <trkpt lat="44.84326" lon="0.79329">
        <ele>102.2</ele>
        <time>2026-05-02T09:27:45.000Z</time>
      </trkpt>
      <trkpt lat="44.84327" lon="0.79328">
        <ele>102.3</ele>
        <time>2026-05-02T09:27:46.000Z</time>
      </trkpt>
      <trkpt lat="44.84328" lon="0.79327">
        <ele>102.2</ele>
        <time>2026-05-02T09:27:47.000Z</time>
      </trkpt>
      <trkpt lat="44.8433" lon="0.79326">
        <ele>102.2</ele>
        <time>2026-05-02T09:27:48.000Z</time>
      </trkpt>
      <trkpt lat="44.84331" lon="0.79325">
        <ele>102.2</ele>
        <time>2026-05-02T09:27:49.000Z</time>
      </trkpt>
      <trkpt lat="44.84332" lon="0.79324">
        <ele>102.4</ele>
        <time>2026-05-02T09:27:50.000Z</time>
      </trkpt>
      <trkpt lat="44.84333" lon="0.79323">
        <ele>102.5</ele>
        <time>2026-05-02T09:27:51.000Z</time>
      </trkpt>
      <trkpt lat="44.84335" lon="0.79322">
        <ele>102.7</ele>
        <time>2026-05-02T09:27:52.000Z</time>
      </trkpt>
      <trkpt lat="44.84336" lon="0.79321">
        <ele>102.5</ele>
        <time>2026-05-02T09:27:53.000Z</time>
      </trkpt>
      <trkpt lat="44.84336" lon="0.79319">
        <ele>102.4</ele>
        <time>2026-05-02T09:27:54.000Z</time>
      </trkpt>
      <trkpt lat="44.84337" lon="0.79317">
        <ele>102.4</ele>
        <time>2026-05-02T09:27:55.000Z</time>
      </trkpt>
      <trkpt lat="44.84337" lon="0.79315">
        <ele>102.5</ele>
        <time>2026-05-02T09:27:56.000Z</time>
      </trkpt>
      <trkpt lat="44.84337" lon="0.79313">
        <ele>102.4</ele>
        <time>2026-05-02T09:27:57.000Z</time>
      </trkpt>
      <trkpt lat="44.84337" lon="0.7931">
        <ele>102.5</ele>
        <time>2026-05-02T09:27:58.000Z</time>
      </trkpt>
      <trkpt lat="44.84337" lon="0.79308">
        <ele>102.2</ele>
        <time>2026-05-02T09:27:59.000Z</time>
      </trkpt>
      <trkpt lat="44.84336" lon="0.79306">
        <ele>102</ele>
        <time>2026-05-02T09:28:00.000Z</time>
      </trkpt>
      <trkpt lat="44.84336" lon="0.79304">
        <ele>102.2</ele>
        <time>2026-05-02T09:28:01.000Z</time>
      </trkpt>
      <trkpt lat="44.84336" lon="0.79301">
        <ele>102.3</ele>
        <time>2026-05-02T09:28:02.000Z</time>
      </trkpt>
      <trkpt lat="44.84336" lon="0.79299">
        <ele>102.2</ele>
        <time>2026-05-02T09:28:03.000Z</time>
      </trkpt>
      <trkpt lat="44.84335" lon="0.79297">
        <ele>102.2</ele>
        <time>2026-05-02T09:28:04.000Z</time>
      </trkpt>
      <trkpt lat="44.84335" lon="0.79295">
        <ele>102</ele>
        <time>2026-05-02T09:28:05.000Z</time>
      </trkpt>
      <trkpt lat="44.84335" lon="0.79293">
        <ele>101.8</ele>
        <time>2026-05-02T09:28:06.000Z</time>
      </trkpt>
      <trkpt lat="44.84334" lon="0.79291">
        <ele>101.8</ele>
        <time>2026-05-02T09:28:07.000Z</time>
      </trkpt>
      <trkpt lat="44.84334" lon="0.79288">
        <ele>101.7</ele>
        <time>2026-05-02T09:28:08.000Z</time>
      </trkpt>
      <trkpt lat="44.84334" lon="0.79286">
        <ele>101.7</ele>
        <time>2026-05-02T09:28:09.000Z</time>
      </trkpt>
      <trkpt lat="44.84334" lon="0.79284">
        <ele>101.5</ele>
        <time>2026-05-02T09:28:10.000Z</time>
      </trkpt>
      <trkpt lat="44.84334" lon="0.79281">
        <ele>101.5</ele>
        <time>2026-05-02T09:28:11.000Z</time>
      </trkpt>
      <trkpt lat="44.84334" lon="0.79279">
        <ele>101.5</ele>
        <time>2026-05-02T09:28:12.000Z</time>
      </trkpt>
      <trkpt lat="44.84335" lon="0.79277">
        <ele>101.4</ele>
        <time>2026-05-02T09:28:13.000Z</time>
      </trkpt>
      <trkpt lat="44.84334" lon="0.79275">
        <ele>101.2</ele>
        <time>2026-05-02T09:28:14.000Z</time>
      </trkpt>
      <trkpt lat="44.84333" lon="0.79274">
        <ele>101.1</ele>
        <time>2026-05-02T09:28:15.000Z</time>
      </trkpt>
      <trkpt lat="44.84331" lon="0.79273">
        <ele>101.1</ele>
        <time>2026-05-02T09:28:16.000Z</time>
      </trkpt>
      <trkpt lat="44.8433" lon="0.79272">
        <ele>101</ele>
        <time>2026-05-02T09:28:17.000Z</time>
      </trkpt>
      <trkpt lat="44.84328" lon="0.79272">
        <ele>100.9</ele>
        <time>2026-05-02T09:28:18.000Z</time>
      </trkpt>
      <trkpt lat="44.84326" lon="0.79272">
        <ele>100.7</ele>
        <time>2026-05-02T09:28:19.000Z</time>
      </trkpt>
      <trkpt lat="44.84324" lon="0.79272">
        <ele>100.7</ele>
        <time>2026-05-02T09:28:20.000Z</time>
      </trkpt>
      <trkpt lat="44.84322" lon="0.79272">
        <ele>100.7</ele>
        <time>2026-05-02T09:28:21.000Z</time>
      </trkpt>
      <trkpt lat="44.84321" lon="0.79272">
        <ele>100.8</ele>
        <time>2026-05-02T09:28:22.000Z</time>
      </trkpt>
      <trkpt lat="44.84319" lon="0.79272">
        <ele>100.9</ele>
        <time>2026-05-02T09:28:23.000Z</time>
      </trkpt>
      <trkpt lat="44.84317" lon="0.79272">
        <ele>100.7</ele>
        <time>2026-05-02T09:28:24.000Z</time>
      </trkpt>
      <trkpt lat="44.84315" lon="0.79273">
        <ele>100.8</ele>
        <time>2026-05-02T09:28:25.000Z</time>
      </trkpt>
      <trkpt lat="44.84313" lon="0.79273">
        <ele>100.8</ele>
        <time>2026-05-02T09:28:26.000Z</time>
      </trkpt>
      <trkpt lat="44.84311" lon="0.79273">
        <ele>101.2</ele>
        <time>2026-05-02T09:28:27.000Z</time>
      </trkpt>
      <trkpt lat="44.84309" lon="0.79274">
        <ele>101.3</ele>
        <time>2026-05-02T09:28:28.000Z</time>
      </trkpt>
      <trkpt lat="44.84308" lon="0.79274">
        <ele>101.4</ele>
        <time>2026-05-02T09:28:29.000Z</time>
      </trkpt>
      <trkpt lat="44.84306" lon="0.79274">
        <ele>101.2</ele>
        <time>2026-05-02T09:28:30.000Z</time>
      </trkpt>
      <trkpt lat="44.84305" lon="0.79273">
        <ele>100.9</ele>
        <time>2026-05-02T09:28:31.000Z</time>
      </trkpt>
      <trkpt lat="44.84303" lon="0.79274">
        <ele>101</ele>
        <time>2026-05-02T09:28:32.000Z</time>
      </trkpt>
      <trkpt lat="44.84302" lon="0.79274">
        <ele>101.1</ele>
        <time>2026-05-02T09:28:33.000Z</time>
      </trkpt>
      <trkpt lat="44.843" lon="0.79274">
        <ele>101.1</ele>
        <time>2026-05-02T09:28:34.000Z</time>
      </trkpt>
      <trkpt lat="44.84298" lon="0.79274">
        <ele>101.2</ele>
        <time>2026-05-02T09:28:35.000Z</time>
      </trkpt>
      <trkpt lat="44.84297" lon="0.79274">
        <ele>101.3</ele>
        <time>2026-05-02T09:28:36.000Z</time>
      </trkpt>
      <trkpt lat="44.84295" lon="0.79275">
        <ele>101.3</ele>
        <time>2026-05-02T09:28:37.000Z</time>
      </trkpt>
      <trkpt lat="44.84293" lon="0.79275">
        <ele>101.5</ele>
        <time>2026-05-02T09:28:38.000Z</time>
      </trkpt>
      <trkpt lat="44.84292" lon="0.79276">
        <ele>101.5</ele>
        <time>2026-05-02T09:28:39.000Z</time>
      </trkpt>
      <trkpt lat="44.8429" lon="0.79276">
        <ele>101.7</ele>
        <time>2026-05-02T09:28:40.000Z</time>
      </trkpt>
      <trkpt lat="44.84288" lon="0.79276">
        <ele>102</ele>
        <time>2026-05-02T09:28:41.000Z</time>
      </trkpt>
      <trkpt lat="44.84287" lon="0.79277">
        <ele>101.8</ele>
        <time>2026-05-02T09:28:42.000Z</time>
      </trkpt>
      <trkpt lat="44.84285" lon="0.79277">
        <ele>102</ele>
        <time>2026-05-02T09:28:43.000Z</time>
      </trkpt>
      <trkpt lat="44.84283" lon="0.79277">
        <ele>102.1</ele>
        <time>2026-05-02T09:28:44.000Z</time>
      </trkpt>
      <trkpt lat="44.84281" lon="0.79278">
        <ele>102.3</ele>
        <time>2026-05-02T09:28:45.000Z</time>
      </trkpt>
      <trkpt lat="44.84279" lon="0.79279">
        <ele>102.3</ele>
        <time>2026-05-02T09:28:46.000Z</time>
      </trkpt>
      <trkpt lat="44.84277" lon="0.79279">
        <ele>102.6</ele>
        <time>2026-05-02T09:28:47.000Z</time>
      </trkpt>
      <trkpt lat="44.84275" lon="0.7928">
        <ele>102.9</ele>
        <time>2026-05-02T09:28:48.000Z</time>
      </trkpt>
      <trkpt lat="44.84274" lon="0.7928">
        <ele>103.2</ele>
        <time>2026-05-02T09:28:49.000Z</time>
      </trkpt>
      <trkpt lat="44.84272" lon="0.79278">
        <ele>103.6</ele>
        <time>2026-05-02T09:28:50.000Z</time>
      </trkpt>
      <trkpt lat="44.84271" lon="0.79277">
        <ele>103</ele>
        <time>2026-05-02T09:28:51.000Z</time>
      </trkpt>
      <trkpt lat="44.84269" lon="0.7928">
        <ele>104.3</ele>
        <time>2026-05-02T09:28:52.000Z</time>
      </trkpt>
      <trkpt lat="44.84268" lon="0.79282">
        <ele>104.5</ele>
        <time>2026-05-02T09:28:53.000Z</time>
      </trkpt>
      <trkpt lat="44.84267" lon="0.79283">
        <ele>104.7</ele>
        <time>2026-05-02T09:28:54.000Z</time>
      </trkpt>
      <trkpt lat="44.84265" lon="0.79284">
        <ele>104.9</ele>
        <time>2026-05-02T09:28:55.000Z</time>
      </trkpt>
      <trkpt lat="44.84264" lon="0.79286">
        <ele>105.2</ele>
        <time>2026-05-02T09:28:56.000Z</time>
      </trkpt>
      <trkpt lat="44.84263" lon="0.79286">
        <ele>105.1</ele>
        <time>2026-05-02T09:28:57.000Z</time>
      </trkpt>
      <trkpt lat="44.84261" lon="0.79286">
        <ele>104.5</ele>
        <time>2026-05-02T09:28:58.000Z</time>
      </trkpt>
      <trkpt lat="44.84259" lon="0.79286">
        <ele>104.6</ele>
        <time>2026-05-02T09:28:59.000Z</time>
      </trkpt>
      <trkpt lat="44.84257" lon="0.79286">
        <ele>104.7</ele>
        <time>2026-05-02T09:29:00.000Z</time>
      </trkpt>
      <trkpt lat="44.84256" lon="0.79285">
        <ele>105.5</ele>
        <time>2026-05-02T09:29:01.000Z</time>
      </trkpt>
      <trkpt lat="44.84254" lon="0.79283">
        <ele>105.6</ele>
        <time>2026-05-02T09:29:02.000Z</time>
      </trkpt>
      <trkpt lat="44.84253" lon="0.79282">
        <ele>105.6</ele>
        <time>2026-05-02T09:29:03.000Z</time>
      </trkpt>
      <trkpt lat="44.84252" lon="0.79281">
        <ele>106</ele>
        <time>2026-05-02T09:29:04.000Z</time>
      </trkpt>
      <trkpt lat="44.84251" lon="0.7928">
        <ele>106.1</ele>
        <time>2026-05-02T09:29:05.000Z</time>
      </trkpt>
      <trkpt lat="44.84249" lon="0.79279">
        <ele>105.9</ele>
        <time>2026-05-02T09:29:06.000Z</time>
      </trkpt>
      <trkpt lat="44.84248" lon="0.79279">
        <ele>106.1</ele>
        <time>2026-05-02T09:29:07.000Z</time>
      </trkpt>
      <trkpt lat="44.84246" lon="0.7928">
        <ele>106.3</ele>
        <time>2026-05-02T09:29:08.000Z</time>
      </trkpt>
      <trkpt lat="44.84245" lon="0.7928">
        <ele>106.4</ele>
        <time>2026-05-02T09:29:09.000Z</time>
      </trkpt>
      <trkpt lat="44.84244" lon="0.79281">
        <ele>106.2</ele>
        <time>2026-05-02T09:29:10.000Z</time>
      </trkpt>
      <trkpt lat="44.84242" lon="0.79282">
        <ele>106.5</ele>
        <time>2026-05-02T09:29:11.000Z</time>
      </trkpt>
      <trkpt lat="44.8424" lon="0.79283">
        <ele>106.7</ele>
        <time>2026-05-02T09:29:12.000Z</time>
      </trkpt>
      <trkpt lat="44.84239" lon="0.79284">
        <ele>106.9</ele>
        <time>2026-05-02T09:29:13.000Z</time>
      </trkpt>
      <trkpt lat="44.84237" lon="0.79284">
        <ele>106.9</ele>
        <time>2026-05-02T09:29:14.000Z</time>
      </trkpt>
      <trkpt lat="44.84235" lon="0.79285">
        <ele>107.1</ele>
        <time>2026-05-02T09:29:15.000Z</time>
      </trkpt>
      <trkpt lat="44.84233" lon="0.79285">
        <ele>107.4</ele>
        <time>2026-05-02T09:29:16.000Z</time>
      </trkpt>
      <trkpt lat="44.84232" lon="0.79284">
        <ele>107.6</ele>
        <time>2026-05-02T09:29:17.000Z</time>
      </trkpt>
      <trkpt lat="44.8423" lon="0.79284">
        <ele>107.9</ele>
        <time>2026-05-02T09:29:18.000Z</time>
      </trkpt>
      <trkpt lat="44.84228" lon="0.79283">
        <ele>108.3</ele>
        <time>2026-05-02T09:29:19.000Z</time>
      </trkpt>
      <trkpt lat="44.84227" lon="0.79282">
        <ele>108.6</ele>
        <time>2026-05-02T09:29:20.000Z</time>
      </trkpt>
      <trkpt lat="44.84225" lon="0.79281">
        <ele>108.9</ele>
        <time>2026-05-02T09:29:21.000Z</time>
      </trkpt>
      <trkpt lat="44.84223" lon="0.79279">
        <ele>109.3</ele>
        <time>2026-05-02T09:29:22.000Z</time>
      </trkpt>
      <trkpt lat="44.84221" lon="0.79277">
        <ele>109.5</ele>
        <time>2026-05-02T09:29:23.000Z</time>
      </trkpt>
      <trkpt lat="44.84219" lon="0.79275">
        <ele>109.7</ele>
        <time>2026-05-02T09:29:24.000Z</time>
      </trkpt>
      <trkpt lat="44.84218" lon="0.79273">
        <ele>109.9</ele>
        <time>2026-05-02T09:29:25.000Z</time>
      </trkpt>
      <trkpt lat="44.84217" lon="0.79271">
        <ele>110.1</ele>
        <time>2026-05-02T09:29:26.000Z</time>
      </trkpt>
      <trkpt lat="44.84216" lon="0.79268">
        <ele>110.1</ele>
        <time>2026-05-02T09:29:27.000Z</time>
      </trkpt>
      <trkpt lat="44.84215" lon="0.79266">
        <ele>110.2</ele>
        <time>2026-05-02T09:29:28.000Z</time>
      </trkpt>
      <trkpt lat="44.84215" lon="0.79263">
        <ele>110.4</ele>
        <time>2026-05-02T09:29:29.000Z</time>
      </trkpt>
      <trkpt lat="44.84214" lon="0.79261">
        <ele>110.6</ele>
        <time>2026-05-02T09:29:30.000Z</time>
      </trkpt>
      <trkpt lat="44.84212" lon="0.79259">
        <ele>110.6</ele>
        <time>2026-05-02T09:29:31.000Z</time>
      </trkpt>
      <trkpt lat="44.84211" lon="0.79256">
        <ele>110.8</ele>
        <time>2026-05-02T09:29:32.000Z</time>
      </trkpt>
      <trkpt lat="44.8421" lon="0.79254">
        <ele>111</ele>
        <time>2026-05-02T09:29:33.000Z</time>
      </trkpt>
      <trkpt lat="44.84209" lon="0.79252">
        <ele>111.4</ele>
        <time>2026-05-02T09:29:34.000Z</time>
      </trkpt>
      <trkpt lat="44.84208" lon="0.7925">
        <ele>111.5</ele>
        <time>2026-05-02T09:29:35.000Z</time>
      </trkpt>
      <trkpt lat="44.84207" lon="0.79248">
        <ele>111.9</ele>
        <time>2026-05-02T09:29:36.000Z</time>
      </trkpt>
      <trkpt lat="44.84206" lon="0.79246">
        <ele>112</ele>
        <time>2026-05-02T09:29:37.000Z</time>
      </trkpt>
      <trkpt lat="44.84205" lon="0.79244">
        <ele>112.5</ele>
        <time>2026-05-02T09:29:38.000Z</time>
      </trkpt>
      <trkpt lat="44.84205" lon="0.79242">
        <ele>112.7</ele>
        <time>2026-05-02T09:29:39.000Z</time>
      </trkpt>
      <trkpt lat="44.84204" lon="0.7924">
        <ele>113.6</ele>
        <time>2026-05-02T09:29:40.000Z</time>
      </trkpt>
      <trkpt lat="44.84203" lon="0.79238">
        <ele>113.6</ele>
        <time>2026-05-02T09:29:41.000Z</time>
      </trkpt>
      <trkpt lat="44.84202" lon="0.79236">
        <ele>113.9</ele>
        <time>2026-05-02T09:29:42.000Z</time>
      </trkpt>
      <trkpt lat="44.84201" lon="0.79233">
        <ele>114</ele>
        <time>2026-05-02T09:29:43.000Z</time>
      </trkpt>
      <trkpt lat="44.842" lon="0.79231">
        <ele>114.3</ele>
        <time>2026-05-02T09:29:44.000Z</time>
      </trkpt>
      <trkpt lat="44.84199" lon="0.79229">
        <ele>114.7</ele>
        <time>2026-05-02T09:29:45.000Z</time>
      </trkpt>
      <trkpt lat="44.84198" lon="0.79226">
        <ele>114.7</ele>
        <time>2026-05-02T09:29:46.000Z</time>
      </trkpt>
      <trkpt lat="44.84197" lon="0.79224">
        <ele>114.9</ele>
        <time>2026-05-02T09:29:47.000Z</time>
      </trkpt>
      <trkpt lat="44.84196" lon="0.79221">
        <ele>115.1</ele>
        <time>2026-05-02T09:29:48.000Z</time>
      </trkpt>
      <trkpt lat="44.84195" lon="0.79219">
        <ele>115.7</ele>
        <time>2026-05-02T09:29:49.000Z</time>
      </trkpt>
      <trkpt lat="44.84193" lon="0.79217">
        <ele>116</ele>
        <time>2026-05-02T09:29:50.000Z</time>
      </trkpt>
      <trkpt lat="44.84192" lon="0.79214">
        <ele>116.1</ele>
        <time>2026-05-02T09:29:51.000Z</time>
      </trkpt>
      <trkpt lat="44.84191" lon="0.79212">
        <ele>116</ele>
        <time>2026-05-02T09:29:52.000Z</time>
      </trkpt>
      <trkpt lat="44.8419" lon="0.79209">
        <ele>116</ele>
        <time>2026-05-02T09:29:53.000Z</time>
      </trkpt>
      <trkpt lat="44.84189" lon="0.79207">
        <ele>116.2</ele>
        <time>2026-05-02T09:29:54.000Z</time>
      </trkpt>
      <trkpt lat="44.84188" lon="0.79205">
        <ele>116.2</ele>
        <time>2026-05-02T09:29:55.000Z</time>
      </trkpt>
      <trkpt lat="44.84187" lon="0.79203">
        <ele>116.4</ele>
        <time>2026-05-02T09:29:56.000Z</time>
      </trkpt>
      <trkpt lat="44.84186" lon="0.79201">
        <ele>116.5</ele>
        <time>2026-05-02T09:29:57.000Z</time>
      </trkpt>
      <trkpt lat="44.84185" lon="0.79198">
        <ele>116.2</ele>
        <time>2026-05-02T09:29:58.000Z</time>
      </trkpt>
      <trkpt lat="44.84184" lon="0.79196">
        <ele>116.1</ele>
        <time>2026-05-02T09:29:59.000Z</time>
      </trkpt>
      <trkpt lat="44.84183" lon="0.79194">
        <ele>116.3</ele>
        <time>2026-05-02T09:30:00.000Z</time>
      </trkpt>
      <trkpt lat="44.84182" lon="0.79192">
        <ele>116.5</ele>
        <time>2026-05-02T09:30:01.000Z</time>
      </trkpt>
      <trkpt lat="44.84181" lon="0.79189">
        <ele>116.6</ele>
        <time>2026-05-02T09:30:02.000Z</time>
      </trkpt>
      <trkpt lat="44.8418" lon="0.79187">
        <ele>116.8</ele>
        <time>2026-05-02T09:30:03.000Z</time>
      </trkpt>
      <trkpt lat="44.84178" lon="0.79185">
        <ele>117</ele>
        <time>2026-05-02T09:30:04.000Z</time>
      </trkpt>
      <trkpt lat="44.84177" lon="0.79183">
        <ele>117.3</ele>
        <time>2026-05-02T09:30:05.000Z</time>
      </trkpt>
      <trkpt lat="44.84176" lon="0.79181">
        <ele>117.3</ele>
        <time>2026-05-02T09:30:06.000Z</time>
      </trkpt>
      <trkpt lat="44.84175" lon="0.79179">
        <ele>117.5</ele>
        <time>2026-05-02T09:30:07.000Z</time>
      </trkpt>
      <trkpt lat="44.84174" lon="0.79178">
        <ele>117.6</ele>
        <time>2026-05-02T09:30:08.000Z</time>
      </trkpt>
      <trkpt lat="44.84173" lon="0.79176">
        <ele>117.6</ele>
        <time>2026-05-02T09:30:09.000Z</time>
      </trkpt>
      <trkpt lat="44.84172" lon="0.79174">
        <ele>118.1</ele>
        <time>2026-05-02T09:30:10.000Z</time>
      </trkpt>
      <trkpt lat="44.84171" lon="0.79173">
        <ele>118.1</ele>
        <time>2026-05-02T09:30:11.000Z</time>
      </trkpt>
      <trkpt lat="44.8417" lon="0.79171">
        <ele>118.2</ele>
        <time>2026-05-02T09:30:12.000Z</time>
      </trkpt>
      <trkpt lat="44.84168" lon="0.7917">
        <ele>118.2</ele>
        <time>2026-05-02T09:30:13.000Z</time>
      </trkpt>
      <trkpt lat="44.84167" lon="0.79169">
        <ele>118.5</ele>
        <time>2026-05-02T09:30:14.000Z</time>
      </trkpt>
      <trkpt lat="44.84166" lon="0.79167">
        <ele>118.6</ele>
        <time>2026-05-02T09:30:15.000Z</time>
      </trkpt>
      <trkpt lat="44.84165" lon="0.79165">
        <ele>118.9</ele>
        <time>2026-05-02T09:30:16.000Z</time>
      </trkpt>
      <trkpt lat="44.84163" lon="0.79164">
        <ele>119</ele>
        <time>2026-05-02T09:30:17.000Z</time>
      </trkpt>
      <trkpt lat="44.84162" lon="0.79163">
        <ele>119.5</ele>
        <time>2026-05-02T09:30:18.000Z</time>
      </trkpt>
      <trkpt lat="44.84161" lon="0.79161">
        <ele>119.4</ele>
        <time>2026-05-02T09:30:19.000Z</time>
      </trkpt>
      <trkpt lat="44.8416" lon="0.7916">
        <ele>119.6</ele>
        <time>2026-05-02T09:30:20.000Z</time>
      </trkpt>
      <trkpt lat="44.84158" lon="0.79159">
        <ele>119.9</ele>
        <time>2026-05-02T09:30:21.000Z</time>
      </trkpt>
      <trkpt lat="44.84157" lon="0.79158">
        <ele>120.3</ele>
        <time>2026-05-02T09:30:22.000Z</time>
      </trkpt>
      <trkpt lat="44.84156" lon="0.79157">
        <ele>120.6</ele>
        <time>2026-05-02T09:30:23.000Z</time>
      </trkpt>
      <trkpt lat="44.84154" lon="0.79156">
        <ele>120.6</ele>
        <time>2026-05-02T09:30:24.000Z</time>
      </trkpt>
      <trkpt lat="44.84153" lon="0.79155">
        <ele>120.8</ele>
        <time>2026-05-02T09:30:25.000Z</time>
      </trkpt>
      <trkpt lat="44.84151" lon="0.79155">
        <ele>121</ele>
        <time>2026-05-02T09:30:26.000Z</time>
      </trkpt>
      <trkpt lat="44.8415" lon="0.79154">
        <ele>121</ele>
        <time>2026-05-02T09:30:27.000Z</time>
      </trkpt>
      <trkpt lat="44.84148" lon="0.79152">
        <ele>121.3</ele>
        <time>2026-05-02T09:30:28.000Z</time>
      </trkpt>
      <trkpt lat="44.84147" lon="0.79151">
        <ele>121.5</ele>
        <time>2026-05-02T09:30:29.000Z</time>
      </trkpt>
      <trkpt lat="44.84145" lon="0.7915">
        <ele>121.8</ele>
        <time>2026-05-02T09:30:30.000Z</time>
      </trkpt>
      <trkpt lat="44.84144" lon="0.7915">
        <ele>121.8</ele>
        <time>2026-05-02T09:30:31.000Z</time>
      </trkpt>
      <trkpt lat="44.84142" lon="0.79149">
        <ele>122</ele>
        <time>2026-05-02T09:30:32.000Z</time>
      </trkpt>
      <trkpt lat="44.8414" lon="0.79149">
        <ele>122.2</ele>
        <time>2026-05-02T09:30:33.000Z</time>
      </trkpt>
      <trkpt lat="44.84139" lon="0.79148">
        <ele>122.2</ele>
        <time>2026-05-02T09:30:34.000Z</time>
      </trkpt>
      <trkpt lat="44.84137" lon="0.79146">
        <ele>122.3</ele>
        <time>2026-05-02T09:30:35.000Z</time>
      </trkpt>
      <trkpt lat="44.84136" lon="0.79146">
        <ele>122.3</ele>
        <time>2026-05-02T09:30:36.000Z</time>
      </trkpt>
      <trkpt lat="44.84134" lon="0.79145">
        <ele>122.6</ele>
        <time>2026-05-02T09:30:37.000Z</time>
      </trkpt>
      <trkpt lat="44.84133" lon="0.79144">
        <ele>122.8</ele>
        <time>2026-05-02T09:30:38.000Z</time>
      </trkpt>
      <trkpt lat="44.84131" lon="0.79143">
        <ele>123</ele>
        <time>2026-05-02T09:30:39.000Z</time>
      </trkpt>
      <trkpt lat="44.8413" lon="0.79143">
        <ele>123.1</ele>
        <time>2026-05-02T09:30:40.000Z</time>
      </trkpt>
      <trkpt lat="44.84128" lon="0.79142">
        <ele>123.1</ele>
        <time>2026-05-02T09:30:41.000Z</time>
      </trkpt>
      <trkpt lat="44.84127" lon="0.79141">
        <ele>123.2</ele>
        <time>2026-05-02T09:30:42.000Z</time>
      </trkpt>
      <trkpt lat="44.84126" lon="0.79141">
        <ele>124</ele>
        <time>2026-05-02T09:30:43.000Z</time>
      </trkpt>
      <trkpt lat="44.84124" lon="0.79141">
        <ele>124.4</ele>
        <time>2026-05-02T09:30:44.000Z</time>
      </trkpt>
      <trkpt lat="44.84123" lon="0.79141">
        <ele>124.2</ele>
        <time>2026-05-02T09:30:45.000Z</time>
      </trkpt>
      <trkpt lat="44.84121" lon="0.7914">
        <ele>124.2</ele>
        <time>2026-05-02T09:30:46.000Z</time>
      </trkpt>
      <trkpt lat="44.8412" lon="0.7914">
        <ele>124.4</ele>
        <time>2026-05-02T09:30:47.000Z</time>
      </trkpt>
      <trkpt lat="44.84118" lon="0.7914">
        <ele>124.7</ele>
        <time>2026-05-02T09:30:48.000Z</time>
      </trkpt>
      <trkpt lat="44.84117" lon="0.7914">
        <ele>124.8</ele>
        <time>2026-05-02T09:30:49.000Z</time>
      </trkpt>
      <trkpt lat="44.84116" lon="0.7914">
        <ele>124.5</ele>
        <time>2026-05-02T09:30:50.000Z</time>
      </trkpt>
      <trkpt lat="44.84114" lon="0.79139">
        <ele>124.4</ele>
        <time>2026-05-02T09:30:51.000Z</time>
      </trkpt>
      <trkpt lat="44.84112" lon="0.79139">
        <ele>124.4</ele>
        <time>2026-05-02T09:30:52.000Z</time>
      </trkpt>
      <trkpt lat="44.84111" lon="0.79139">
        <ele>124.8</ele>
        <time>2026-05-02T09:30:53.000Z</time>
      </trkpt>
      <trkpt lat="44.84109" lon="0.79138">
        <ele>124.4</ele>
        <time>2026-05-02T09:30:54.000Z</time>
      </trkpt>
      <trkpt lat="44.84107" lon="0.79137">
        <ele>124.4</ele>
        <time>2026-05-02T09:30:55.000Z</time>
      </trkpt>
      <trkpt lat="44.84105" lon="0.79137">
        <ele>124.5</ele>
        <time>2026-05-02T09:30:56.000Z</time>
      </trkpt>
      <trkpt lat="44.84104" lon="0.79136">
        <ele>124.5</ele>
        <time>2026-05-02T09:30:57.000Z</time>
      </trkpt>
      <trkpt lat="44.84102" lon="0.79136">
        <ele>124.7</ele>
        <time>2026-05-02T09:30:58.000Z</time>
      </trkpt>
      <trkpt lat="44.841" lon="0.79135">
        <ele>124.9</ele>
        <time>2026-05-02T09:30:59.000Z</time>
      </trkpt>
      <trkpt lat="44.84099" lon="0.79134">
        <ele>125.1</ele>
        <time>2026-05-02T09:31:00.000Z</time>
      </trkpt>
      <trkpt lat="44.84097" lon="0.79134">
        <ele>125.3</ele>
        <time>2026-05-02T09:31:01.000Z</time>
      </trkpt>
      <trkpt lat="44.84096" lon="0.79132">
        <ele>125.4</ele>
        <time>2026-05-02T09:31:02.000Z</time>
      </trkpt>
      <trkpt lat="44.84094" lon="0.79132">
        <ele>125.5</ele>
        <time>2026-05-02T09:31:03.000Z</time>
      </trkpt>
      <trkpt lat="44.84092" lon="0.79131">
        <ele>125.6</ele>
        <time>2026-05-02T09:31:04.000Z</time>
      </trkpt>
      <trkpt lat="44.84091" lon="0.7913">
        <ele>125.7</ele>
        <time>2026-05-02T09:31:05.000Z</time>
      </trkpt>
      <trkpt lat="44.84089" lon="0.79129">
        <ele>125.8</ele>
        <time>2026-05-02T09:31:06.000Z</time>
      </trkpt>
      <trkpt lat="44.84088" lon="0.79128">
        <ele>125.9</ele>
        <time>2026-05-02T09:31:07.000Z</time>
      </trkpt>
      <trkpt lat="44.84086" lon="0.79128">
        <ele>125.8</ele>
        <time>2026-05-02T09:31:08.000Z</time>
      </trkpt>
      <trkpt lat="44.84084" lon="0.79127">
        <ele>125.6</ele>
        <time>2026-05-02T09:31:09.000Z</time>
      </trkpt>
      <trkpt lat="44.84083" lon="0.79126">
        <ele>126.1</ele>
        <time>2026-05-02T09:31:10.000Z</time>
      </trkpt>
      <trkpt lat="44.84081" lon="0.79125">
        <ele>126.3</ele>
        <time>2026-05-02T09:31:11.000Z</time>
      </trkpt>
      <trkpt lat="44.8408" lon="0.79125">
        <ele>126.5</ele>
        <time>2026-05-02T09:31:12.000Z</time>
      </trkpt>
      <trkpt lat="44.84078" lon="0.79124">
        <ele>127.7</ele>
        <time>2026-05-02T09:31:13.000Z</time>
      </trkpt>
      <trkpt lat="44.84077" lon="0.79124">
        <ele>128.1</ele>
        <time>2026-05-02T09:31:14.000Z</time>
      </trkpt>
      <trkpt lat="44.84075" lon="0.79123">
        <ele>128.6</ele>
        <time>2026-05-02T09:31:15.000Z</time>
      </trkpt>
      <trkpt lat="44.84073" lon="0.79123">
        <ele>128.8</ele>
        <time>2026-05-02T09:31:16.000Z</time>
      </trkpt>
      <trkpt lat="44.84072" lon="0.79122">
        <ele>128.8</ele>
        <time>2026-05-02T09:31:17.000Z</time>
      </trkpt>
      <trkpt lat="44.8407" lon="0.79122">
        <ele>129.3</ele>
        <time>2026-05-02T09:31:18.000Z</time>
      </trkpt>
      <trkpt lat="44.84068" lon="0.79121">
        <ele>129.1</ele>
        <time>2026-05-02T09:31:19.000Z</time>
      </trkpt>
      <trkpt lat="44.84067" lon="0.79121">
        <ele>129.1</ele>
        <time>2026-05-02T09:31:20.000Z</time>
      </trkpt>
      <trkpt lat="44.84065" lon="0.7912">
        <ele>129</ele>
        <time>2026-05-02T09:31:21.000Z</time>
      </trkpt>
      <trkpt lat="44.84064" lon="0.7912">
        <ele>128.8</ele>
        <time>2026-05-02T09:31:22.000Z</time>
      </trkpt>
      <trkpt lat="44.84062" lon="0.79119">
        <ele>128.3</ele>
        <time>2026-05-02T09:31:23.000Z</time>
      </trkpt>
      <trkpt lat="44.84061" lon="0.79118">
        <ele>127.9</ele>
        <time>2026-05-02T09:31:24.000Z</time>
      </trkpt>
      <trkpt lat="44.8406" lon="0.79118">
        <ele>128</ele>
        <time>2026-05-02T09:31:25.000Z</time>
      </trkpt>
      <trkpt lat="44.84058" lon="0.79116">
        <ele>128.2</ele>
        <time>2026-05-02T09:31:26.000Z</time>
      </trkpt>
      <trkpt lat="44.84056" lon="0.79116">
        <ele>127.3</ele>
        <time>2026-05-02T09:31:27.000Z</time>
      </trkpt>
      <trkpt lat="44.84055" lon="0.79115">
        <ele>127.8</ele>
        <time>2026-05-02T09:31:28.000Z</time>
      </trkpt>
      <trkpt lat="44.84053" lon="0.79115">
        <ele>127.7</ele>
        <time>2026-05-02T09:31:29.000Z</time>
      </trkpt>
      <trkpt lat="44.84051" lon="0.79115">
        <ele>127.7</ele>
        <time>2026-05-02T09:31:30.000Z</time>
      </trkpt>
      <trkpt lat="44.8405" lon="0.79114">
        <ele>127.7</ele>
        <time>2026-05-02T09:31:31.000Z</time>
      </trkpt>
      <trkpt lat="44.84048" lon="0.79114">
        <ele>127.9</ele>
        <time>2026-05-02T09:31:32.000Z</time>
      </trkpt>
      <trkpt lat="44.84046" lon="0.79114">
        <ele>127.9</ele>
        <time>2026-05-02T09:31:33.000Z</time>
      </trkpt>
      <trkpt lat="44.84044" lon="0.79114">
        <ele>127.9</ele>
        <time>2026-05-02T09:31:34.000Z</time>
      </trkpt>
      <trkpt lat="44.84042" lon="0.79115">
        <ele>128.2</ele>
        <time>2026-05-02T09:31:35.000Z</time>
      </trkpt>
      <trkpt lat="44.8404" lon="0.79114">
        <ele>128.7</ele>
        <time>2026-05-02T09:31:36.000Z</time>
      </trkpt>
      <trkpt lat="44.84039" lon="0.79115">
        <ele>129</ele>
        <time>2026-05-02T09:31:37.000Z</time>
      </trkpt>
      <trkpt lat="44.84036" lon="0.79115">
        <ele>129.7</ele>
        <time>2026-05-02T09:31:38.000Z</time>
      </trkpt>
      <trkpt lat="44.84035" lon="0.79115">
        <ele>130.2</ele>
        <time>2026-05-02T09:31:39.000Z</time>
      </trkpt>
      <trkpt lat="44.84033" lon="0.79115">
        <ele>130.2</ele>
        <time>2026-05-02T09:31:40.000Z</time>
      </trkpt>
      <trkpt lat="44.84031" lon="0.79115">
        <ele>130.8</ele>
        <time>2026-05-02T09:31:41.000Z</time>
      </trkpt>
      <trkpt lat="44.84029" lon="0.79115">
        <ele>131.5</ele>
        <time>2026-05-02T09:31:42.000Z</time>
      </trkpt>
      <trkpt lat="44.84027" lon="0.79115">
        <ele>131.9</ele>
        <time>2026-05-02T09:31:43.000Z</time>
      </trkpt>
      <trkpt lat="44.84025" lon="0.79115">
        <ele>132.3</ele>
        <time>2026-05-02T09:31:44.000Z</time>
      </trkpt>
      <trkpt lat="44.84023" lon="0.79116">
        <ele>132.9</ele>
        <time>2026-05-02T09:31:45.000Z</time>
      </trkpt>
      <trkpt lat="44.84021" lon="0.79116">
        <ele>133</ele>
        <time>2026-05-02T09:31:46.000Z</time>
      </trkpt>
      <trkpt lat="44.8402" lon="0.79116">
        <ele>133.1</ele>
        <time>2026-05-02T09:31:47.000Z</time>
      </trkpt>
      <trkpt lat="44.84018" lon="0.79116">
        <ele>133.3</ele>
        <time>2026-05-02T09:31:48.000Z</time>
      </trkpt>
      <trkpt lat="44.84017" lon="0.79116">
        <ele>133.3</ele>
        <time>2026-05-02T09:31:49.000Z</time>
      </trkpt>
      <trkpt lat="44.84015" lon="0.79117">
        <ele>133.4</ele>
        <time>2026-05-02T09:31:50.000Z</time>
      </trkpt>
      <trkpt lat="44.84013" lon="0.79117">
        <ele>133.5</ele>
        <time>2026-05-02T09:31:51.000Z</time>
      </trkpt>
      <trkpt lat="44.84012" lon="0.79117">
        <ele>133.8</ele>
        <time>2026-05-02T09:31:52.000Z</time>
      </trkpt>
      <trkpt lat="44.8401" lon="0.79117">
        <ele>134</ele>
        <time>2026-05-02T09:31:53.000Z</time>
      </trkpt>
      <trkpt lat="44.84008" lon="0.79117">
        <ele>134.8</ele>
        <time>2026-05-02T09:31:54.000Z</time>
      </trkpt>
      <trkpt lat="44.84007" lon="0.79118">
        <ele>134.5</ele>
        <time>2026-05-02T09:31:55.000Z</time>
      </trkpt>
      <trkpt lat="44.84005" lon="0.79119">
        <ele>134.5</ele>
        <time>2026-05-02T09:31:56.000Z</time>
      </trkpt>
      <trkpt lat="44.84004" lon="0.79119">
        <ele>134.9</ele>
        <time>2026-05-02T09:31:57.000Z</time>
      </trkpt>
      <trkpt lat="44.84002" lon="0.79119">
        <ele>135.4</ele>
        <time>2026-05-02T09:31:58.000Z</time>
      </trkpt>
      <trkpt lat="44.84001" lon="0.79119">
        <ele>136.3</ele>
        <time>2026-05-02T09:31:59.000Z</time>
      </trkpt>
      <trkpt lat="44.84" lon="0.79118">
        <ele>135.6</ele>
        <time>2026-05-02T09:32:00.000Z</time>
      </trkpt>
      <trkpt lat="44.83998" lon="0.79117">
        <ele>135.2</ele>
        <time>2026-05-02T09:32:01.000Z</time>
      </trkpt>
      <trkpt lat="44.83997" lon="0.79116">
        <ele>135.1</ele>
        <time>2026-05-02T09:32:02.000Z</time>
      </trkpt>
      <trkpt lat="44.83995" lon="0.79117">
        <ele>135.5</ele>
        <time>2026-05-02T09:32:03.000Z</time>
      </trkpt>
      <trkpt lat="44.83993" lon="0.79117">
        <ele>135.8</ele>
        <time>2026-05-02T09:32:04.000Z</time>
      </trkpt>
      <trkpt lat="44.83991" lon="0.79118">
        <ele>135.8</ele>
        <time>2026-05-02T09:32:05.000Z</time>
      </trkpt>
      <trkpt lat="44.83989" lon="0.79118">
        <ele>135.8</ele>
        <time>2026-05-02T09:32:06.000Z</time>
      </trkpt>
      <trkpt lat="44.83987" lon="0.79118">
        <ele>136.3</ele>
        <time>2026-05-02T09:32:07.000Z</time>
      </trkpt>
      <trkpt lat="44.83985" lon="0.79118">
        <ele>136.9</ele>
        <time>2026-05-02T09:32:08.000Z</time>
      </trkpt>
      <trkpt lat="44.83983" lon="0.79117">
        <ele>137</ele>
        <time>2026-05-02T09:32:09.000Z</time>
      </trkpt>
      <trkpt lat="44.83981" lon="0.79118">
        <ele>137.3</ele>
        <time>2026-05-02T09:32:10.000Z</time>
      </trkpt>
      <trkpt lat="44.83979" lon="0.79117">
        <ele>137.4</ele>
        <time>2026-05-02T09:32:11.000Z</time>
      </trkpt>
      <trkpt lat="44.83978" lon="0.79117">
        <ele>137.8</ele>
        <time>2026-05-02T09:32:12.000Z</time>
      </trkpt>
      <trkpt lat="44.83976" lon="0.79117">
        <ele>137.9</ele>
        <time>2026-05-02T09:32:13.000Z</time>
      </trkpt>
      <trkpt lat="44.83974" lon="0.79116">
        <ele>138</ele>
        <time>2026-05-02T09:32:14.000Z</time>
      </trkpt>
      <trkpt lat="44.83973" lon="0.79116">
        <ele>138.2</ele>
        <time>2026-05-02T09:32:15.000Z</time>
      </trkpt>
      <trkpt lat="44.83971" lon="0.79115">
        <ele>138.2</ele>
        <time>2026-05-02T09:32:16.000Z</time>
      </trkpt>
      <trkpt lat="44.83969" lon="0.79115">
        <ele>138.5</ele>
        <time>2026-05-02T09:32:17.000Z</time>
      </trkpt>
      <trkpt lat="44.83967" lon="0.79114">
        <ele>138.7</ele>
        <time>2026-05-02T09:32:18.000Z</time>
      </trkpt>
      <trkpt lat="44.83966" lon="0.79113">
        <ele>138.7</ele>
        <time>2026-05-02T09:32:19.000Z</time>
      </trkpt>
      <trkpt lat="44.83964" lon="0.79113">
        <ele>139.2</ele>
        <time>2026-05-02T09:32:20.000Z</time>
      </trkpt>
      <trkpt lat="44.83963" lon="0.79112">
        <ele>139.1</ele>
        <time>2026-05-02T09:32:21.000Z</time>
      </trkpt>
      <trkpt lat="44.83961" lon="0.79111">
        <ele>139.5</ele>
        <time>2026-05-02T09:32:22.000Z</time>
      </trkpt>
      <trkpt lat="44.83959" lon="0.79111">
        <ele>139.7</ele>
        <time>2026-05-02T09:32:23.000Z</time>
      </trkpt>
      <trkpt lat="44.83958" lon="0.7911">
        <ele>140</ele>
        <time>2026-05-02T09:32:24.000Z</time>
      </trkpt>
      <trkpt lat="44.83956" lon="0.7911">
        <ele>140.3</ele>
        <time>2026-05-02T09:32:25.000Z</time>
      </trkpt>
      <trkpt lat="44.83954" lon="0.79109">
        <ele>140.9</ele>
        <time>2026-05-02T09:32:26.000Z</time>
      </trkpt>
      <trkpt lat="44.83953" lon="0.79108">
        <ele>141.2</ele>
        <time>2026-05-02T09:32:27.000Z</time>
      </trkpt>
      <trkpt lat="44.83951" lon="0.79108">
        <ele>141.4</ele>
        <time>2026-05-02T09:32:28.000Z</time>
      </trkpt>
      <trkpt lat="44.8395" lon="0.79107">
        <ele>141.6</ele>
        <time>2026-05-02T09:32:29.000Z</time>
      </trkpt>
      <trkpt lat="44.83948" lon="0.79107">
        <ele>141.9</ele>
        <time>2026-05-02T09:32:30.000Z</time>
      </trkpt>
      <trkpt lat="44.83947" lon="0.79106">
        <ele>142.1</ele>
        <time>2026-05-02T09:32:31.000Z</time>
      </trkpt>
      <trkpt lat="44.83945" lon="0.79105">
        <ele>141.9</ele>
        <time>2026-05-02T09:32:32.000Z</time>
      </trkpt>
      <trkpt lat="44.83944" lon="0.79105">
        <ele>142.3</ele>
        <time>2026-05-02T09:32:33.000Z</time>
      </trkpt>
      <trkpt lat="44.83942" lon="0.79104">
        <ele>142.5</ele>
        <time>2026-05-02T09:32:34.000Z</time>
      </trkpt>
      <trkpt lat="44.83941" lon="0.79103">
        <ele>142.5</ele>
        <time>2026-05-02T09:32:35.000Z</time>
      </trkpt>
      <trkpt lat="44.83939" lon="0.79103">
        <ele>142.5</ele>
        <time>2026-05-02T09:32:36.000Z</time>
      </trkpt>
      <trkpt lat="44.83938" lon="0.791">
        <ele>142.4</ele>
        <time>2026-05-02T09:32:37.000Z</time>
      </trkpt>
      <trkpt lat="44.83937" lon="0.79098">
        <ele>142.7</ele>
        <time>2026-05-02T09:32:38.000Z</time>
      </trkpt>
      <trkpt lat="44.83935" lon="0.79099">
        <ele>143.2</ele>
        <time>2026-05-02T09:32:39.000Z</time>
      </trkpt>
      <trkpt lat="44.83933" lon="0.79098">
        <ele>143.7</ele>
        <time>2026-05-02T09:32:40.000Z</time>
      </trkpt>
      <trkpt lat="44.83932" lon="0.79098">
        <ele>143.9</ele>
        <time>2026-05-02T09:32:41.000Z</time>
      </trkpt>
      <trkpt lat="44.8393" lon="0.79098">
        <ele>144.3</ele>
        <time>2026-05-02T09:32:42.000Z</time>
      </trkpt>
      <trkpt lat="44.83929" lon="0.79097">
        <ele>144.6</ele>
        <time>2026-05-02T09:32:43.000Z</time>
      </trkpt>
      <trkpt lat="44.83926" lon="0.79096">
        <ele>144.3</ele>
        <time>2026-05-02T09:32:44.000Z</time>
      </trkpt>
      <trkpt lat="44.83924" lon="0.79096">
        <ele>144.3</ele>
        <time>2026-05-02T09:32:45.000Z</time>
      </trkpt>
      <trkpt lat="44.83923" lon="0.79095">
        <ele>144.6</ele>
        <time>2026-05-02T09:32:46.000Z</time>
      </trkpt>
      <trkpt lat="44.83921" lon="0.79095">
        <ele>144.6</ele>
        <time>2026-05-02T09:32:47.000Z</time>
      </trkpt>
      <trkpt lat="44.8392" lon="0.79094">
        <ele>144.2</ele>
        <time>2026-05-02T09:32:48.000Z</time>
      </trkpt>
      <trkpt lat="44.83918" lon="0.79093">
        <ele>142.8</ele>
        <time>2026-05-02T09:32:49.000Z</time>
      </trkpt>
      <trkpt lat="44.83917" lon="0.79092">
        <ele>142.9</ele>
        <time>2026-05-02T09:32:50.000Z</time>
      </trkpt>
      <trkpt lat="44.83915" lon="0.79091">
        <ele>143.2</ele>
        <time>2026-05-02T09:32:51.000Z</time>
      </trkpt>
      <trkpt lat="44.83914" lon="0.7909">
        <ele>143.7</ele>
        <time>2026-05-02T09:32:52.000Z</time>
      </trkpt>
      <trkpt lat="44.83912" lon="0.7909">
        <ele>143.7</ele>
        <time>2026-05-02T09:32:53.000Z</time>
      </trkpt>
      <trkpt lat="44.8391" lon="0.79089">
        <ele>144.1</ele>
        <time>2026-05-02T09:32:54.000Z</time>
      </trkpt>
      <trkpt lat="44.83907" lon="0.79088">
        <ele>144.6</ele>
        <time>2026-05-02T09:32:55.000Z</time>
      </trkpt>
      <trkpt lat="44.83905" lon="0.79089">
        <ele>145.6</ele>
        <time>2026-05-02T09:32:56.000Z</time>
      </trkpt>
      <trkpt lat="44.83903" lon="0.79088">
        <ele>146.3</ele>
        <time>2026-05-02T09:32:57.000Z</time>
      </trkpt>
      <trkpt lat="44.83901" lon="0.79087">
        <ele>147</ele>
        <time>2026-05-02T09:32:58.000Z</time>
      </trkpt>
      <trkpt lat="44.839" lon="0.79087">
        <ele>146.9</ele>
        <time>2026-05-02T09:32:59.000Z</time>
      </trkpt>
      <trkpt lat="44.83898" lon="0.79085">
        <ele>146.4</ele>
        <time>2026-05-02T09:33:00.000Z</time>
      </trkpt>
      <trkpt lat="44.83897" lon="0.79084">
        <ele>147.1</ele>
        <time>2026-05-02T09:33:01.000Z</time>
      </trkpt>
      <trkpt lat="44.83895" lon="0.79083">
        <ele>147.3</ele>
        <time>2026-05-02T09:33:02.000Z</time>
      </trkpt>
      <trkpt lat="44.83893" lon="0.79082">
        <ele>147.7</ele>
        <time>2026-05-02T09:33:03.000Z</time>
      </trkpt>
      <trkpt lat="44.83891" lon="0.79081">
        <ele>148.4</ele>
        <time>2026-05-02T09:33:04.000Z</time>
      </trkpt>
      <trkpt lat="44.8389" lon="0.79081">
        <ele>148.4</ele>
        <time>2026-05-02T09:33:05.000Z</time>
      </trkpt>
      <trkpt lat="44.83888" lon="0.7908">
        <ele>148.9</ele>
        <time>2026-05-02T09:33:06.000Z</time>
      </trkpt>
      <trkpt lat="44.83887" lon="0.7908">
        <ele>148.3</ele>
        <time>2026-05-02T09:33:07.000Z</time>
      </trkpt>
      <trkpt lat="44.83885" lon="0.79079">
        <ele>148.3</ele>
        <time>2026-05-02T09:33:08.000Z</time>
      </trkpt>
      <trkpt lat="44.83884" lon="0.79078">
        <ele>148.3</ele>
        <time>2026-05-02T09:33:09.000Z</time>
      </trkpt>
      <trkpt lat="44.83882" lon="0.79077">
        <ele>148.2</ele>
        <time>2026-05-02T09:33:10.000Z</time>
      </trkpt>
      <trkpt lat="44.83881" lon="0.79077">
        <ele>148.6</ele>
        <time>2026-05-02T09:33:11.000Z</time>
      </trkpt>
      <trkpt lat="44.8388" lon="0.79076">
        <ele>148.7</ele>
        <time>2026-05-02T09:33:12.000Z</time>
      </trkpt>
      <trkpt lat="44.83878" lon="0.79076">
        <ele>149</ele>
        <time>2026-05-02T09:33:13.000Z</time>
      </trkpt>
      <trkpt lat="44.83877" lon="0.79075">
        <ele>148.8</ele>
        <time>2026-05-02T09:33:14.000Z</time>
      </trkpt>
      <trkpt lat="44.83875" lon="0.79074">
        <ele>148.6</ele>
        <time>2026-05-02T09:33:15.000Z</time>
      </trkpt>
      <trkpt lat="44.83874" lon="0.79074">
        <ele>148.5</ele>
        <time>2026-05-02T09:33:16.000Z</time>
      </trkpt>
      <trkpt lat="44.83872" lon="0.79073">
        <ele>148.8</ele>
        <time>2026-05-02T09:33:17.000Z</time>
      </trkpt>
      <trkpt lat="44.83871" lon="0.79073">
        <ele>148.9</ele>
        <time>2026-05-02T09:33:18.000Z</time>
      </trkpt>
      <trkpt lat="44.83869" lon="0.79072">
        <ele>149.1</ele>
        <time>2026-05-02T09:33:19.000Z</time>
      </trkpt>
      <trkpt lat="44.83868" lon="0.79071">
        <ele>149.2</ele>
        <time>2026-05-02T09:33:20.000Z</time>
      </trkpt>
      <trkpt lat="44.83866" lon="0.79071">
        <ele>149.5</ele>
        <time>2026-05-02T09:33:21.000Z</time>
      </trkpt>
      <trkpt lat="44.83864" lon="0.79071">
        <ele>149.4</ele>
        <time>2026-05-02T09:33:22.000Z</time>
      </trkpt>
      <trkpt lat="44.83863" lon="0.7907">
        <ele>149.4</ele>
        <time>2026-05-02T09:33:23.000Z</time>
      </trkpt>
      <trkpt lat="44.83861" lon="0.7907">
        <ele>149.5</ele>
        <time>2026-05-02T09:33:24.000Z</time>
      </trkpt>
      <trkpt lat="44.83859" lon="0.79069">
        <ele>149.2</ele>
        <time>2026-05-02T09:33:25.000Z</time>
      </trkpt>
      <trkpt lat="44.83858" lon="0.79069">
        <ele>148.9</ele>
        <time>2026-05-02T09:33:26.000Z</time>
      </trkpt>
      <trkpt lat="44.83856" lon="0.79069">
        <ele>148.7</ele>
        <time>2026-05-02T09:33:27.000Z</time>
      </trkpt>
      <trkpt lat="44.83855" lon="0.79068">
        <ele>148.8</ele>
        <time>2026-05-02T09:33:28.000Z</time>
      </trkpt>
      <trkpt lat="44.83853" lon="0.79068">
        <ele>149</ele>
        <time>2026-05-02T09:33:29.000Z</time>
      </trkpt>
      <trkpt lat="44.83851" lon="0.79067">
        <ele>148.8</ele>
        <time>2026-05-02T09:33:30.000Z</time>
      </trkpt>
      <trkpt lat="44.8385" lon="0.79067">
        <ele>148.5</ele>
        <time>2026-05-02T09:33:31.000Z</time>
      </trkpt>
      <trkpt lat="44.83848" lon="0.79067">
        <ele>148.6</ele>
        <time>2026-05-02T09:33:32.000Z</time>
      </trkpt>
      <trkpt lat="44.83847" lon="0.79066">
        <ele>148.7</ele>
        <time>2026-05-02T09:33:33.000Z</time>
      </trkpt>
      <trkpt lat="44.83845" lon="0.79066">
        <ele>149</ele>
        <time>2026-05-02T09:33:34.000Z</time>
      </trkpt>
      <trkpt lat="44.83843" lon="0.79066">
        <ele>149</ele>
        <time>2026-05-02T09:33:35.000Z</time>
      </trkpt>
      <trkpt lat="44.83842" lon="0.79066">
        <ele>149</ele>
        <time>2026-05-02T09:33:36.000Z</time>
      </trkpt>
      <trkpt lat="44.8384" lon="0.79065">
        <ele>148.9</ele>
        <time>2026-05-02T09:33:37.000Z</time>
      </trkpt>
      <trkpt lat="44.83838" lon="0.79065">
        <ele>148.7</ele>
        <time>2026-05-02T09:33:38.000Z</time>
      </trkpt>
      <trkpt lat="44.83837" lon="0.79064">
        <ele>148.8</ele>
        <time>2026-05-02T09:33:39.000Z</time>
      </trkpt>
      <trkpt lat="44.83835" lon="0.79064">
        <ele>148.8</ele>
        <time>2026-05-02T09:33:40.000Z</time>
      </trkpt>
      <trkpt lat="44.83833" lon="0.79063">
        <ele>149</ele>
        <time>2026-05-02T09:33:41.000Z</time>
      </trkpt>
      <trkpt lat="44.83832" lon="0.79063">
        <ele>149.3</ele>
        <time>2026-05-02T09:33:42.000Z</time>
      </trkpt>
      <trkpt lat="44.8383" lon="0.79062">
        <ele>148.9</ele>
        <time>2026-05-02T09:33:43.000Z</time>
      </trkpt>
      <trkpt lat="44.83829" lon="0.79061">
        <ele>149</ele>
        <time>2026-05-02T09:33:44.000Z</time>
      </trkpt>
      <trkpt lat="44.83827" lon="0.79061">
        <ele>149.5</ele>
        <time>2026-05-02T09:33:45.000Z</time>
      </trkpt>
      <trkpt lat="44.83826" lon="0.79061">
        <ele>149.4</ele>
        <time>2026-05-02T09:33:46.000Z</time>
      </trkpt>
      <trkpt lat="44.83825" lon="0.79061">
        <ele>149</ele>
        <time>2026-05-02T09:33:47.000Z</time>
      </trkpt>
      <trkpt lat="44.83823" lon="0.7906">
        <ele>149</ele>
        <time>2026-05-02T09:33:48.000Z</time>
      </trkpt>
      <trkpt lat="44.83822" lon="0.7906">
        <ele>149</ele>
        <time>2026-05-02T09:33:49.000Z</time>
      </trkpt>
      <trkpt lat="44.8382" lon="0.7906">
        <ele>148.8</ele>
        <time>2026-05-02T09:33:50.000Z</time>
      </trkpt>
      <trkpt lat="44.83819" lon="0.79059">
        <ele>148.4</ele>
        <time>2026-05-02T09:33:51.000Z</time>
      </trkpt>
      <trkpt lat="44.83817" lon="0.79059">
        <ele>148.6</ele>
        <time>2026-05-02T09:33:52.000Z</time>
      </trkpt>
      <trkpt lat="44.83816" lon="0.79059">
        <ele>148.6</ele>
        <time>2026-05-02T09:33:53.000Z</time>
      </trkpt>
      <trkpt lat="44.83814" lon="0.79059">
        <ele>148.2</ele>
        <time>2026-05-02T09:33:54.000Z</time>
      </trkpt>
      <trkpt lat="44.83813" lon="0.79058">
        <ele>148.7</ele>
        <time>2026-05-02T09:33:55.000Z</time>
      </trkpt>
      <trkpt lat="44.83811" lon="0.79058">
        <ele>148.4</ele>
        <time>2026-05-02T09:33:56.000Z</time>
      </trkpt>
      <trkpt lat="44.8381" lon="0.79057">
        <ele>148.3</ele>
        <time>2026-05-02T09:33:57.000Z</time>
      </trkpt>
      <trkpt lat="44.83808" lon="0.79057">
        <ele>148.4</ele>
        <time>2026-05-02T09:33:58.000Z</time>
      </trkpt>
      <trkpt lat="44.83807" lon="0.79056">
        <ele>149.5</ele>
        <time>2026-05-02T09:33:59.000Z</time>
      </trkpt>
      <trkpt lat="44.83806" lon="0.79054">
        <ele>149.2</ele>
        <time>2026-05-02T09:34:00.000Z</time>
      </trkpt>
      <trkpt lat="44.83804" lon="0.79054">
        <ele>148.6</ele>
        <time>2026-05-02T09:34:01.000Z</time>
      </trkpt>
      <trkpt lat="44.83802" lon="0.79053">
        <ele>148.5</ele>
        <time>2026-05-02T09:34:02.000Z</time>
      </trkpt>
      <trkpt lat="44.83801" lon="0.79053">
        <ele>148.4</ele>
        <time>2026-05-02T09:34:03.000Z</time>
      </trkpt>
      <trkpt lat="44.83799" lon="0.79053">
        <ele>148.4</ele>
        <time>2026-05-02T09:34:04.000Z</time>
      </trkpt>
      <trkpt lat="44.83797" lon="0.79052">
        <ele>148</ele>
        <time>2026-05-02T09:34:05.000Z</time>
      </trkpt>
      <trkpt lat="44.83795" lon="0.79052">
        <ele>147.8</ele>
        <time>2026-05-02T09:34:06.000Z</time>
      </trkpt>
      <trkpt lat="44.83794" lon="0.79052">
        <ele>147.8</ele>
        <time>2026-05-02T09:34:07.000Z</time>
      </trkpt>
      <trkpt lat="44.83792" lon="0.79051">
        <ele>147.7</ele>
        <time>2026-05-02T09:34:08.000Z</time>
      </trkpt>
      <trkpt lat="44.83791" lon="0.79051">
        <ele>147.6</ele>
        <time>2026-05-02T09:34:09.000Z</time>
      </trkpt>
      <trkpt lat="44.83789" lon="0.79051">
        <ele>147.5</ele>
        <time>2026-05-02T09:34:10.000Z</time>
      </trkpt>
      <trkpt lat="44.83787" lon="0.7905">
        <ele>147.7</ele>
        <time>2026-05-02T09:34:11.000Z</time>
      </trkpt>
      <trkpt lat="44.83786" lon="0.7905">
        <ele>147.7</ele>
        <time>2026-05-02T09:34:12.000Z</time>
      </trkpt>
      <trkpt lat="44.83784" lon="0.7905">
        <ele>147.6</ele>
        <time>2026-05-02T09:34:13.000Z</time>
      </trkpt>
      <trkpt lat="44.83782" lon="0.79049">
        <ele>147.5</ele>
        <time>2026-05-02T09:34:14.000Z</time>
      </trkpt>
      <trkpt lat="44.83781" lon="0.79049">
        <ele>147.4</ele>
        <time>2026-05-02T09:34:15.000Z</time>
      </trkpt>
      <trkpt lat="44.83779" lon="0.79048">
        <ele>147.4</ele>
        <time>2026-05-02T09:34:16.000Z</time>
      </trkpt>
      <trkpt lat="44.83778" lon="0.79048">
        <ele>147.8</ele>
        <time>2026-05-02T09:34:17.000Z</time>
      </trkpt>
      <trkpt lat="44.83776" lon="0.79048">
        <ele>147.5</ele>
        <time>2026-05-02T09:34:18.000Z</time>
      </trkpt>
      <trkpt lat="44.83775" lon="0.79047">
        <ele>147.4</ele>
        <time>2026-05-02T09:34:19.000Z</time>
      </trkpt>
      <trkpt lat="44.83774" lon="0.79047">
        <ele>147.7</ele>
        <time>2026-05-02T09:34:20.000Z</time>
      </trkpt>
      <trkpt lat="44.83772" lon="0.79047">
        <ele>147.7</ele>
        <time>2026-05-02T09:34:21.000Z</time>
      </trkpt>
      <trkpt lat="44.8377" lon="0.79047">
        <ele>147.3</ele>
        <time>2026-05-02T09:34:22.000Z</time>
      </trkpt>
      <trkpt lat="44.83768" lon="0.79046">
        <ele>146.9</ele>
        <time>2026-05-02T09:34:23.000Z</time>
      </trkpt>
      <trkpt lat="44.83767" lon="0.79046">
        <ele>146.6</ele>
        <time>2026-05-02T09:34:24.000Z</time>
      </trkpt>
      <trkpt lat="44.83765" lon="0.79045">
        <ele>147.1</ele>
        <time>2026-05-02T09:34:25.000Z</time>
      </trkpt>
      <trkpt lat="44.83763" lon="0.79044">
        <ele>147.9</ele>
        <time>2026-05-02T09:34:26.000Z</time>
      </trkpt>
      <trkpt lat="44.83761" lon="0.79045">
        <ele>148</ele>
        <time>2026-05-02T09:34:27.000Z</time>
      </trkpt>
      <trkpt lat="44.83759" lon="0.79045">
        <ele>147.4</ele>
        <time>2026-05-02T09:34:28.000Z</time>
      </trkpt>
      <trkpt lat="44.83757" lon="0.79044">
        <ele>147.3</ele>
        <time>2026-05-02T09:34:29.000Z</time>
      </trkpt>
      <trkpt lat="44.83756" lon="0.79044">
        <ele>146.5</ele>
        <time>2026-05-02T09:34:30.000Z</time>
      </trkpt>
      <trkpt lat="44.83754" lon="0.79045">
        <ele>146.4</ele>
        <time>2026-05-02T09:34:31.000Z</time>
      </trkpt>
      <trkpt lat="44.83752" lon="0.79045">
        <ele>146.3</ele>
        <time>2026-05-02T09:34:32.000Z</time>
      </trkpt>
      <trkpt lat="44.8375" lon="0.79045">
        <ele>146.5</ele>
        <time>2026-05-02T09:34:33.000Z</time>
      </trkpt>
      <trkpt lat="44.83748" lon="0.79045">
        <ele>146.7</ele>
        <time>2026-05-02T09:34:34.000Z</time>
      </trkpt>
      <trkpt lat="44.83747" lon="0.79045">
        <ele>146.4</ele>
        <time>2026-05-02T09:34:35.000Z</time>
      </trkpt>
      <trkpt lat="44.83745" lon="0.79045">
        <ele>146.5</ele>
        <time>2026-05-02T09:34:36.000Z</time>
      </trkpt>
      <trkpt lat="44.83743" lon="0.79046">
        <ele>146.6</ele>
        <time>2026-05-02T09:34:37.000Z</time>
      </trkpt>
      <trkpt lat="44.83742" lon="0.79046">
        <ele>147.2</ele>
        <time>2026-05-02T09:34:38.000Z</time>
      </trkpt>
      <trkpt lat="44.8374" lon="0.79046">
        <ele>146.8</ele>
        <time>2026-05-02T09:34:39.000Z</time>
      </trkpt>
      <trkpt lat="44.83738" lon="0.79046">
        <ele>146.9</ele>
        <time>2026-05-02T09:34:40.000Z</time>
      </trkpt>
      <trkpt lat="44.83736" lon="0.79046">
        <ele>146.5</ele>
        <time>2026-05-02T09:34:41.000Z</time>
      </trkpt>
      <trkpt lat="44.83735" lon="0.79047">
        <ele>146.5</ele>
        <time>2026-05-02T09:34:42.000Z</time>
      </trkpt>
      <trkpt lat="44.83733" lon="0.79047">
        <ele>146.3</ele>
        <time>2026-05-02T09:34:43.000Z</time>
      </trkpt>
      <trkpt lat="44.83731" lon="0.79048">
        <ele>145.9</ele>
        <time>2026-05-02T09:34:44.000Z</time>
      </trkpt>
      <trkpt lat="44.8373" lon="0.79049">
        <ele>145.5</ele>
        <time>2026-05-02T09:34:45.000Z</time>
      </trkpt>
      <trkpt lat="44.83728" lon="0.79049">
        <ele>145.3</ele>
        <time>2026-05-02T09:34:46.000Z</time>
      </trkpt>
      <trkpt lat="44.83726" lon="0.7905">
        <ele>145.2</ele>
        <time>2026-05-02T09:34:47.000Z</time>
      </trkpt>
      <trkpt lat="44.83724" lon="0.79049">
        <ele>145.8</ele>
        <time>2026-05-02T09:34:48.000Z</time>
      </trkpt>
      <trkpt lat="44.83722" lon="0.7905">
        <ele>146.1</ele>
        <time>2026-05-02T09:34:49.000Z</time>
      </trkpt>
      <trkpt lat="44.83721" lon="0.79051">
        <ele>146.1</ele>
        <time>2026-05-02T09:34:50.000Z</time>
      </trkpt>
      <trkpt lat="44.83719" lon="0.79051">
        <ele>146.2</ele>
        <time>2026-05-02T09:34:51.000Z</time>
      </trkpt>
      <trkpt lat="44.83717" lon="0.79051">
        <ele>145.7</ele>
        <time>2026-05-02T09:34:52.000Z</time>
      </trkpt>
      <trkpt lat="44.83715" lon="0.79051">
        <ele>146</ele>
        <time>2026-05-02T09:34:53.000Z</time>
      </trkpt>
      <trkpt lat="44.83713" lon="0.79052">
        <ele>145.8</ele>
        <time>2026-05-02T09:34:54.000Z</time>
      </trkpt>
      <trkpt lat="44.83711" lon="0.79053">
        <ele>145.8</ele>
        <time>2026-05-02T09:34:55.000Z</time>
      </trkpt>
      <trkpt lat="44.83707" lon="0.79053">
        <ele>145.6</ele>
        <time>2026-05-02T09:34:56.000Z</time>
      </trkpt>
      <trkpt lat="44.83704" lon="0.79053">
        <ele>145.9</ele>
        <time>2026-05-02T09:34:57.000Z</time>
      </trkpt>
      <trkpt lat="44.83701" lon="0.79053">
        <ele>146</ele>
        <time>2026-05-02T09:34:58.000Z</time>
      </trkpt>
      <trkpt lat="44.83697" lon="0.79054">
        <ele>146.5</ele>
        <time>2026-05-02T09:34:59.000Z</time>
      </trkpt>
      <trkpt lat="44.83694" lon="0.79055">
        <ele>147.6</ele>
        <time>2026-05-02T09:35:00.000Z</time>
      </trkpt>
      <trkpt lat="44.83691" lon="0.79056">
        <ele>147.3</ele>
        <time>2026-05-02T09:35:01.000Z</time>
      </trkpt>
      <trkpt lat="44.83688" lon="0.79057">
        <ele>146.9</ele>
        <time>2026-05-02T09:35:02.000Z</time>
      </trkpt>
      <trkpt lat="44.83684" lon="0.79058">
        <ele>147.4</ele>
        <time>2026-05-02T09:35:03.000Z</time>
      </trkpt>
      <trkpt lat="44.83682" lon="0.79059">
        <ele>146.2</ele>
        <time>2026-05-02T09:35:04.000Z</time>
      </trkpt>
      <trkpt lat="44.83678" lon="0.79059">
        <ele>145.8</ele>
        <time>2026-05-02T09:35:05.000Z</time>
      </trkpt>
      <trkpt lat="44.83675" lon="0.7906">
        <ele>146.1</ele>
        <time>2026-05-02T09:35:06.000Z</time>
      </trkpt>
      <trkpt lat="44.83672" lon="0.79061">
        <ele>145.8</ele>
        <time>2026-05-02T09:35:07.000Z</time>
      </trkpt>
      <trkpt lat="44.83669" lon="0.79062">
        <ele>145.6</ele>
        <time>2026-05-02T09:35:08.000Z</time>
      </trkpt>
      <trkpt lat="44.83666" lon="0.79063">
        <ele>145</ele>
        <time>2026-05-02T09:35:09.000Z</time>
      </trkpt>
      <trkpt lat="44.83663" lon="0.79064">
        <ele>145.5</ele>
        <time>2026-05-02T09:35:10.000Z</time>
      </trkpt>
      <trkpt lat="44.8366" lon="0.79066">
        <ele>145.3</ele>
        <time>2026-05-02T09:35:11.000Z</time>
      </trkpt>
      <trkpt lat="44.83657" lon="0.79067">
        <ele>144.7</ele>
        <time>2026-05-02T09:35:12.000Z</time>
      </trkpt>
      <trkpt lat="44.83654" lon="0.79067">
        <ele>144.7</ele>
        <time>2026-05-02T09:35:13.000Z</time>
      </trkpt>
      <trkpt lat="44.83651" lon="0.79068">
        <ele>144.3</ele>
        <time>2026-05-02T09:35:14.000Z</time>
      </trkpt>
      <trkpt lat="44.83648" lon="0.79069">
        <ele>144.4</ele>
        <time>2026-05-02T09:35:15.000Z</time>
      </trkpt>
      <trkpt lat="44.83644" lon="0.7907">
        <ele>144.5</ele>
        <time>2026-05-02T09:35:16.000Z</time>
      </trkpt>
      <trkpt lat="44.83641" lon="0.79071">
        <ele>144.3</ele>
        <time>2026-05-02T09:35:17.000Z</time>
      </trkpt>
      <trkpt lat="44.83638" lon="0.79072">
        <ele>144.5</ele>
        <time>2026-05-02T09:35:18.000Z</time>
      </trkpt>
      <trkpt lat="44.83634" lon="0.79074">
        <ele>144.5</ele>
        <time>2026-05-02T09:35:19.000Z</time>
      </trkpt>
      <trkpt lat="44.83631" lon="0.79075">
        <ele>144.5</ele>
        <time>2026-05-02T09:35:20.000Z</time>
      </trkpt>
      <trkpt lat="44.83628" lon="0.79077">
        <ele>144.6</ele>
        <time>2026-05-02T09:35:21.000Z</time>
      </trkpt>
      <trkpt lat="44.83626" lon="0.79078">
        <ele>144.1</ele>
        <time>2026-05-02T09:35:22.000Z</time>
      </trkpt>
      <trkpt lat="44.83623" lon="0.79079">
        <ele>143.9</ele>
        <time>2026-05-02T09:35:23.000Z</time>
      </trkpt>
      <trkpt lat="44.8362" lon="0.7908">
        <ele>143.7</ele>
        <time>2026-05-02T09:35:24.000Z</time>
      </trkpt>
      <trkpt lat="44.83617" lon="0.79081">
        <ele>143.8</ele>
        <time>2026-05-02T09:35:25.000Z</time>
      </trkpt>
      <trkpt lat="44.83614" lon="0.79083">
        <ele>143.9</ele>
        <time>2026-05-02T09:35:26.000Z</time>
      </trkpt>
      <trkpt lat="44.83611" lon="0.79084">
        <ele>144.7</ele>
        <time>2026-05-02T09:35:27.000Z</time>
      </trkpt>
      <trkpt lat="44.83608" lon="0.79085">
        <ele>144.4</ele>
        <time>2026-05-02T09:35:28.000Z</time>
      </trkpt>
      <trkpt lat="44.83605" lon="0.79086">
        <ele>144</ele>
        <time>2026-05-02T09:35:29.000Z</time>
      </trkpt>
      <trkpt lat="44.83601" lon="0.79087">
        <ele>143.8</ele>
        <time>2026-05-02T09:35:30.000Z</time>
      </trkpt>
      <trkpt lat="44.83598" lon="0.79089">
        <ele>143.5</ele>
        <time>2026-05-02T09:35:31.000Z</time>
      </trkpt>
      <trkpt lat="44.83595" lon="0.7909">
        <ele>144.4</ele>
        <time>2026-05-02T09:35:32.000Z</time>
      </trkpt>
      <trkpt lat="44.83593" lon="0.79091">
        <ele>144.8</ele>
        <time>2026-05-02T09:35:33.000Z</time>
      </trkpt>
      <trkpt lat="44.8359" lon="0.79092">
        <ele>145</ele>
        <time>2026-05-02T09:35:34.000Z</time>
      </trkpt>
      <trkpt lat="44.83587" lon="0.79094">
        <ele>145.3</ele>
        <time>2026-05-02T09:35:35.000Z</time>
      </trkpt>
      <trkpt lat="44.83584" lon="0.79095">
        <ele>145.1</ele>
        <time>2026-05-02T09:35:36.000Z</time>
      </trkpt>
      <trkpt lat="44.83581" lon="0.79096">
        <ele>145.5</ele>
        <time>2026-05-02T09:35:37.000Z</time>
      </trkpt>
      <trkpt lat="44.83578" lon="0.79098">
        <ele>145.3</ele>
        <time>2026-05-02T09:35:38.000Z</time>
      </trkpt>
      <trkpt lat="44.83575" lon="0.79099">
        <ele>144.7</ele>
        <time>2026-05-02T09:35:39.000Z</time>
      </trkpt>
      <trkpt lat="44.83571" lon="0.791">
        <ele>144.3</ele>
        <time>2026-05-02T09:35:40.000Z</time>
      </trkpt>
      <trkpt lat="44.83568" lon="0.79101">
        <ele>144.2</ele>
        <time>2026-05-02T09:35:41.000Z</time>
      </trkpt>
      <trkpt lat="44.83565" lon="0.79102">
        <ele>144.5</ele>
        <time>2026-05-02T09:35:42.000Z</time>
      </trkpt>
      <trkpt lat="44.83562" lon="0.79104">
        <ele>144.4</ele>
        <time>2026-05-02T09:35:43.000Z</time>
      </trkpt>
      <trkpt lat="44.8356" lon="0.79105">
        <ele>144.5</ele>
        <time>2026-05-02T09:35:44.000Z</time>
      </trkpt>
      <trkpt lat="44.83557" lon="0.79107">
        <ele>144.4</ele>
        <time>2026-05-02T09:35:45.000Z</time>
      </trkpt>
      <trkpt lat="44.83554" lon="0.79108">
        <ele>144.5</ele>
        <time>2026-05-02T09:35:46.000Z</time>
      </trkpt>
      <trkpt lat="44.83552" lon="0.7911">
        <ele>144.2</ele>
        <time>2026-05-02T09:35:47.000Z</time>
      </trkpt>
      <trkpt lat="44.83549" lon="0.79111">
        <ele>144.3</ele>
        <time>2026-05-02T09:35:48.000Z</time>
      </trkpt>
      <trkpt lat="44.83546" lon="0.79113">
        <ele>144.6</ele>
        <time>2026-05-02T09:35:49.000Z</time>
      </trkpt>
      <trkpt lat="44.83543" lon="0.79115">
        <ele>144.1</ele>
        <time>2026-05-02T09:35:50.000Z</time>
      </trkpt>
      <trkpt lat="44.8354" lon="0.79117">
        <ele>144.2</ele>
        <time>2026-05-02T09:35:51.000Z</time>
      </trkpt>
      <trkpt lat="44.83538" lon="0.79119">
        <ele>144.9</ele>
        <time>2026-05-02T09:35:52.000Z</time>
      </trkpt>
      <trkpt lat="44.83535" lon="0.79121">
        <ele>145.3</ele>
        <time>2026-05-02T09:35:53.000Z</time>
      </trkpt>
      <trkpt lat="44.83532" lon="0.79123">
        <ele>145.5</ele>
        <time>2026-05-02T09:35:54.000Z</time>
      </trkpt>
      <trkpt lat="44.83529" lon="0.79124">
        <ele>145.2</ele>
        <time>2026-05-02T09:35:55.000Z</time>
      </trkpt>
      <trkpt lat="44.83526" lon="0.79126">
        <ele>145.1</ele>
        <time>2026-05-02T09:35:56.000Z</time>
      </trkpt>
      <trkpt lat="44.83523" lon="0.79129">
        <ele>145.2</ele>
        <time>2026-05-02T09:35:57.000Z</time>
      </trkpt>
      <trkpt lat="44.8352" lon="0.79131">
        <ele>145.8</ele>
        <time>2026-05-02T09:35:58.000Z</time>
      </trkpt>
      <trkpt lat="44.83518" lon="0.79134">
        <ele>146.1</ele>
        <time>2026-05-02T09:35:59.000Z</time>
      </trkpt>
      <trkpt lat="44.83515" lon="0.79137">
        <ele>145.6</ele>
        <time>2026-05-02T09:36:00.000Z</time>
      </trkpt>
      <trkpt lat="44.83512" lon="0.7914">
        <ele>144.9</ele>
        <time>2026-05-02T09:36:01.000Z</time>
      </trkpt>
      <trkpt lat="44.83509" lon="0.79143">
        <ele>144.9</ele>
        <time>2026-05-02T09:36:02.000Z</time>
      </trkpt>
      <trkpt lat="44.83507" lon="0.79148">
        <ele>145.9</ele>
        <time>2026-05-02T09:36:03.000Z</time>
      </trkpt>
      <trkpt lat="44.83505" lon="0.79151">
        <ele>146.4</ele>
        <time>2026-05-02T09:36:04.000Z</time>
      </trkpt>
      <trkpt lat="44.83502" lon="0.79154">
        <ele>147</ele>
        <time>2026-05-02T09:36:05.000Z</time>
      </trkpt>
      <trkpt lat="44.83499" lon="0.79159">
        <ele>148.2</ele>
        <time>2026-05-02T09:36:06.000Z</time>
      </trkpt>
      <trkpt lat="44.83496" lon="0.79164">
        <ele>148.2</ele>
        <time>2026-05-02T09:36:07.000Z</time>
      </trkpt>
      <trkpt lat="44.83493" lon="0.79169">
        <ele>148.7</ele>
        <time>2026-05-02T09:36:08.000Z</time>
      </trkpt>
      <trkpt lat="44.83491" lon="0.79175">
        <ele>149.1</ele>
        <time>2026-05-02T09:36:09.000Z</time>
      </trkpt>
      <trkpt lat="44.83488" lon="0.79181">
        <ele>148.7</ele>
        <time>2026-05-02T09:36:10.000Z</time>
      </trkpt>
      <trkpt lat="44.83485" lon="0.79186">
        <ele>149.1</ele>
        <time>2026-05-02T09:36:11.000Z</time>
      </trkpt>
      <trkpt lat="44.83484" lon="0.79192">
        <ele>149.9</ele>
        <time>2026-05-02T09:36:12.000Z</time>
      </trkpt>
      <trkpt lat="44.83482" lon="0.79197">
        <ele>150.7</ele>
        <time>2026-05-02T09:36:13.000Z</time>
      </trkpt>
      <trkpt lat="44.8348" lon="0.79202">
        <ele>150.6</ele>
        <time>2026-05-02T09:36:14.000Z</time>
      </trkpt>
      <trkpt lat="44.83478" lon="0.79207">
        <ele>150.8</ele>
        <time>2026-05-02T09:36:15.000Z</time>
      </trkpt>
      <trkpt lat="44.83476" lon="0.79213">
        <ele>152</ele>
        <time>2026-05-02T09:36:16.000Z</time>
      </trkpt>
      <trkpt lat="44.83474" lon="0.7922">
        <ele>151.7</ele>
        <time>2026-05-02T09:36:17.000Z</time>
      </trkpt>
      <trkpt lat="44.83472" lon="0.79227">
        <ele>151.3</ele>
        <time>2026-05-02T09:36:18.000Z</time>
      </trkpt>
      <trkpt lat="44.8347" lon="0.79234">
        <ele>151.5</ele>
        <time>2026-05-02T09:36:19.000Z</time>
      </trkpt>
      <trkpt lat="44.83468" lon="0.79242">
        <ele>151.6</ele>
        <time>2026-05-02T09:36:20.000Z</time>
      </trkpt>
      <trkpt lat="44.83465" lon="0.7925">
        <ele>151.9</ele>
        <time>2026-05-02T09:36:21.000Z</time>
      </trkpt>
      <trkpt lat="44.83462" lon="0.79258">
        <ele>151.5</ele>
        <time>2026-05-02T09:36:22.000Z</time>
      </trkpt>
      <trkpt lat="44.83459" lon="0.79265">
        <ele>152</ele>
        <time>2026-05-02T09:36:23.000Z</time>
      </trkpt>
      <trkpt lat="44.83456" lon="0.79271">
        <ele>152.2</ele>
        <time>2026-05-02T09:36:24.000Z</time>
      </trkpt>
      <trkpt lat="44.83452" lon="0.79277">
        <ele>152.6</ele>
        <time>2026-05-02T09:36:25.000Z</time>
      </trkpt>
      <trkpt lat="44.83448" lon="0.79283">
        <ele>153</ele>
        <time>2026-05-02T09:36:26.000Z</time>
      </trkpt>
      <trkpt lat="44.83444" lon="0.7929">
        <ele>153</ele>
        <time>2026-05-02T09:36:27.000Z</time>
      </trkpt>
      <trkpt lat="44.83439" lon="0.79295">
        <ele>153.7</ele>
        <time>2026-05-02T09:36:28.000Z</time>
      </trkpt>
      <trkpt lat="44.83435" lon="0.793">
        <ele>154.2</ele>
        <time>2026-05-02T09:36:29.000Z</time>
      </trkpt>
      <trkpt lat="44.8343" lon="0.79305">
        <ele>153.1</ele>
        <time>2026-05-02T09:36:30.000Z</time>
      </trkpt>
      <trkpt lat="44.83425" lon="0.79309">
        <ele>153.8</ele>
        <time>2026-05-02T09:36:31.000Z</time>
      </trkpt>
      <trkpt lat="44.83422" lon="0.79314">
        <ele>154.9</ele>
        <time>2026-05-02T09:36:32.000Z</time>
      </trkpt>
      <trkpt lat="44.83418" lon="0.79318">
        <ele>155.2</ele>
        <time>2026-05-02T09:36:33.000Z</time>
      </trkpt>
      <trkpt lat="44.83414" lon="0.79322">
        <ele>155.5</ele>
        <time>2026-05-02T09:36:34.000Z</time>
      </trkpt>
      <trkpt lat="44.83411" lon="0.79325">
        <ele>156.7</ele>
        <time>2026-05-02T09:36:35.000Z</time>
      </trkpt>
      <trkpt lat="44.83407" lon="0.79329">
        <ele>157.1</ele>
        <time>2026-05-02T09:36:36.000Z</time>
      </trkpt>
      <trkpt lat="44.83403" lon="0.79333">
        <ele>156.7</ele>
        <time>2026-05-02T09:36:37.000Z</time>
      </trkpt>
      <trkpt lat="44.83399" lon="0.79337">
        <ele>155.9</ele>
        <time>2026-05-02T09:36:38.000Z</time>
      </trkpt>
      <trkpt lat="44.83395" lon="0.79339">
        <ele>156.4</ele>
        <time>2026-05-02T09:36:39.000Z</time>
      </trkpt>
      <trkpt lat="44.8339" lon="0.79341">
        <ele>154.8</ele>
        <time>2026-05-02T09:36:40.000Z</time>
      </trkpt>
      <trkpt lat="44.83386" lon="0.79342">
        <ele>155.8</ele>
        <time>2026-05-02T09:36:41.000Z</time>
      </trkpt>
      <trkpt lat="44.83381" lon="0.79344">
        <ele>155.3</ele>
        <time>2026-05-02T09:36:42.000Z</time>
      </trkpt>
      <trkpt lat="44.83376" lon="0.79344">
        <ele>155.9</ele>
        <time>2026-05-02T09:36:43.000Z</time>
      </trkpt>
      <trkpt lat="44.83372" lon="0.79346">
        <ele>156.6</ele>
        <time>2026-05-02T09:36:44.000Z</time>
      </trkpt>
      <trkpt lat="44.83367" lon="0.79348">
        <ele>156.9</ele>
        <time>2026-05-02T09:36:45.000Z</time>
      </trkpt>
      <trkpt lat="44.83361" lon="0.7935">
        <ele>156.7</ele>
        <time>2026-05-02T09:36:46.000Z</time>
      </trkpt>
      <trkpt lat="44.83355" lon="0.79352">
        <ele>156.9</ele>
        <time>2026-05-02T09:36:47.000Z</time>
      </trkpt>
      <trkpt lat="44.83351" lon="0.79354">
        <ele>158.3</ele>
        <time>2026-05-02T09:36:48.000Z</time>
      </trkpt>
      <trkpt lat="44.83346" lon="0.79357">
        <ele>158.4</ele>
        <time>2026-05-02T09:36:49.000Z</time>
      </trkpt>
      <trkpt lat="44.83342" lon="0.7936">
        <ele>159.1</ele>
        <time>2026-05-02T09:36:50.000Z</time>
      </trkpt>
      <trkpt lat="44.83337" lon="0.79363">
        <ele>160.8</ele>
        <time>2026-05-02T09:36:51.000Z</time>
      </trkpt>
      <trkpt lat="44.83334" lon="0.79367">
        <ele>161.9</ele>
        <time>2026-05-02T09:36:52.000Z</time>
      </trkpt>
      <trkpt lat="44.83329" lon="0.79373">
        <ele>162.8</ele>
        <time>2026-05-02T09:36:53.000Z</time>
      </trkpt>
      <trkpt lat="44.83326" lon="0.79377">
        <ele>164.1</ele>
        <time>2026-05-02T09:36:54.000Z</time>
      </trkpt>
      <trkpt lat="44.83323" lon="0.79382">
        <ele>164.9</ele>
        <time>2026-05-02T09:36:55.000Z</time>
      </trkpt>
      <trkpt lat="44.83321" lon="0.79387">
        <ele>166.1</ele>
        <time>2026-05-02T09:36:56.000Z</time>
      </trkpt>
      <trkpt lat="44.83318" lon="0.79392">
        <ele>167.3</ele>
        <time>2026-05-02T09:36:57.000Z</time>
      </trkpt>
      <trkpt lat="44.83315" lon="0.79398">
        <ele>168.1</ele>
        <time>2026-05-02T09:36:58.000Z</time>
      </trkpt>
      <trkpt lat="44.83312" lon="0.79403">
        <ele>169.5</ele>
        <time>2026-05-02T09:36:59.000Z</time>
      </trkpt>
      <trkpt lat="44.83309" lon="0.79409">
        <ele>170.7</ele>
        <time>2026-05-02T09:37:00.000Z</time>
      </trkpt>
      <trkpt lat="44.83305" lon="0.79415">
        <ele>171.9</ele>
        <time>2026-05-02T09:37:01.000Z</time>
      </trkpt>
      <trkpt lat="44.83302" lon="0.79421">
        <ele>173.1</ele>
        <time>2026-05-02T09:37:02.000Z</time>
      </trkpt>
      <trkpt lat="44.83299" lon="0.79426">
        <ele>174.2</ele>
        <time>2026-05-02T09:37:03.000Z</time>
      </trkpt>
      <trkpt lat="44.83296" lon="0.79432">
        <ele>174.9</ele>
        <time>2026-05-02T09:37:04.000Z</time>
      </trkpt>
      <trkpt lat="44.83294" lon="0.79437">
        <ele>175.6</ele>
        <time>2026-05-02T09:37:05.000Z</time>
      </trkpt>
      <trkpt lat="44.8329" lon="0.79443">
        <ele>175.8</ele>
        <time>2026-05-02T09:37:06.000Z</time>
      </trkpt>
      <trkpt lat="44.83287" lon="0.79448">
        <ele>176.4</ele>
        <time>2026-05-02T09:37:07.000Z</time>
      </trkpt>
      <trkpt lat="44.83284" lon="0.79453">
        <ele>178</ele>
        <time>2026-05-02T09:37:08.000Z</time>
      </trkpt>
      <trkpt lat="44.83282" lon="0.79459">
        <ele>179.1</ele>
        <time>2026-05-02T09:37:09.000Z</time>
      </trkpt>
      <trkpt lat="44.8328" lon="0.79465">
        <ele>179.5</ele>
        <time>2026-05-02T09:37:10.000Z</time>
      </trkpt>
      <trkpt lat="44.83275" lon="0.79473">
        <ele>176</ele>
        <time>2026-05-02T09:37:11.000Z</time>
      </trkpt>
      <trkpt lat="44.83272" lon="0.7948">
        <ele>176.6</ele>
        <time>2026-05-02T09:37:12.000Z</time>
      </trkpt>
      <trkpt lat="44.83269" lon="0.79487">
        <ele>177.1</ele>
        <time>2026-05-02T09:37:13.000Z</time>
      </trkpt>
      <trkpt lat="44.83266" lon="0.79492">
        <ele>178.1</ele>
        <time>2026-05-02T09:37:14.000Z</time>
      </trkpt>
      <trkpt lat="44.83264" lon="0.79497">
        <ele>178.2</ele>
        <time>2026-05-02T09:37:15.000Z</time>
      </trkpt>
      <trkpt lat="44.83262" lon="0.79504">
        <ele>177.3</ele>
        <time>2026-05-02T09:37:16.000Z</time>
      </trkpt>
      <trkpt lat="44.8326" lon="0.7951">
        <ele>177.7</ele>
        <time>2026-05-02T09:37:17.000Z</time>
      </trkpt>
      <trkpt lat="44.83258" lon="0.79516">
        <ele>179</ele>
        <time>2026-05-02T09:37:18.000Z</time>
      </trkpt>
      <trkpt lat="44.83256" lon="0.79522">
        <ele>179.2</ele>
        <time>2026-05-02T09:37:19.000Z</time>
      </trkpt>
      <trkpt lat="44.83254" lon="0.79527">
        <ele>178.9</ele>
        <time>2026-05-02T09:37:20.000Z</time>
      </trkpt>
      <trkpt lat="44.83251" lon="0.79533">
        <ele>178.9</ele>
        <time>2026-05-02T09:37:21.000Z</time>
      </trkpt>
      <trkpt lat="44.83248" lon="0.79538">
        <ele>179.4</ele>
        <time>2026-05-02T09:37:22.000Z</time>
      </trkpt>
      <trkpt lat="44.83246" lon="0.79542">
        <ele>179.8</ele>
        <time>2026-05-02T09:37:23.000Z</time>
      </trkpt>
      <trkpt lat="44.83245" lon="0.79546">
        <ele>179.9</ele>
        <time>2026-05-02T09:37:24.000Z</time>
      </trkpt>
      <trkpt lat="44.83243" lon="0.7955">
        <ele>181.2</ele>
        <time>2026-05-02T09:37:25.000Z</time>
      </trkpt>
      <trkpt lat="44.83241" lon="0.79555">
        <ele>182.1</ele>
        <time>2026-05-02T09:37:26.000Z</time>
      </trkpt>
      <trkpt lat="44.83238" lon="0.79561">
        <ele>181.1</ele>
        <time>2026-05-02T09:37:27.000Z</time>
      </trkpt>
      <trkpt lat="44.83236" lon="0.79565">
        <ele>181.2</ele>
        <time>2026-05-02T09:37:28.000Z</time>
      </trkpt>
      <trkpt lat="44.83234" lon="0.7957">
        <ele>182.1</ele>
        <time>2026-05-02T09:37:29.000Z</time>
      </trkpt>
      <trkpt lat="44.83233" lon="0.79575">
        <ele>182.9</ele>
        <time>2026-05-02T09:37:30.000Z</time>
      </trkpt>
      <trkpt lat="44.83233" lon="0.7958">
        <ele>184.2</ele>
        <time>2026-05-02T09:37:31.000Z</time>
      </trkpt>
      <trkpt lat="44.83232" lon="0.79584">
        <ele>184.3</ele>
        <time>2026-05-02T09:37:32.000Z</time>
      </trkpt>
      <trkpt lat="44.83231" lon="0.79589">
        <ele>183.7</ele>
        <time>2026-05-02T09:37:33.000Z</time>
      </trkpt>
      <trkpt lat="44.8323" lon="0.79594">
        <ele>183.4</ele>
        <time>2026-05-02T09:37:34.000Z</time>
      </trkpt>
      <trkpt lat="44.83229" lon="0.79599">
        <ele>182.6</ele>
        <time>2026-05-02T09:37:35.000Z</time>
      </trkpt>
      <trkpt lat="44.83228" lon="0.79604">
        <ele>183.3</ele>
        <time>2026-05-02T09:37:36.000Z</time>
      </trkpt>
      <trkpt lat="44.83228" lon="0.79608">
        <ele>183.4</ele>
        <time>2026-05-02T09:37:37.000Z</time>
      </trkpt>
      <trkpt lat="44.83227" lon="0.79613">
        <ele>183.3</ele>
        <time>2026-05-02T09:37:38.000Z</time>
      </trkpt>
      <trkpt lat="44.83227" lon="0.79617">
        <ele>183.3</ele>
        <time>2026-05-02T09:37:39.000Z</time>
      </trkpt>
      <trkpt lat="44.83227" lon="0.79622">
        <ele>183.2</ele>
        <time>2026-05-02T09:37:40.000Z</time>
      </trkpt>
      <trkpt lat="44.83226" lon="0.79627">
        <ele>183.3</ele>
        <time>2026-05-02T09:37:41.000Z</time>
      </trkpt>
      <trkpt lat="44.83226" lon="0.79631">
        <ele>183.3</ele>
        <time>2026-05-02T09:37:42.000Z</time>
      </trkpt>
      <trkpt lat="44.83225" lon="0.79636">
        <ele>182.5</ele>
        <time>2026-05-02T09:37:43.000Z</time>
      </trkpt>
      <trkpt lat="44.83225" lon="0.7964">
        <ele>182.1</ele>
        <time>2026-05-02T09:37:44.000Z</time>
      </trkpt>
      <trkpt lat="44.83224" lon="0.79645">
        <ele>181.8</ele>
        <time>2026-05-02T09:37:45.000Z</time>
      </trkpt>
      <trkpt lat="44.83224" lon="0.79649">
        <ele>181.6</ele>
        <time>2026-05-02T09:37:46.000Z</time>
      </trkpt>
      <trkpt lat="44.83223" lon="0.79652">
        <ele>181.6</ele>
        <time>2026-05-02T09:37:47.000Z</time>
      </trkpt>
      <trkpt lat="44.83223" lon="0.79655">
        <ele>182.1</ele>
        <time>2026-05-02T09:37:48.000Z</time>
      </trkpt>
      <trkpt lat="44.83222" lon="0.79657">
        <ele>183.8</ele>
        <time>2026-05-02T09:37:49.000Z</time>
      </trkpt>
      <trkpt lat="44.83222" lon="0.7966">
        <ele>182.6</ele>
        <time>2026-05-02T09:37:50.000Z</time>
      </trkpt>
      <trkpt lat="44.83221" lon="0.79662">
        <ele>182.9</ele>
        <time>2026-05-02T09:37:51.000Z</time>
      </trkpt>
      <trkpt lat="44.83221" lon="0.79665">
        <ele>182.9</ele>
        <time>2026-05-02T09:37:52.000Z</time>
      </trkpt>
      <trkpt lat="44.83221" lon="0.79668">
        <ele>181.5</ele>
        <time>2026-05-02T09:37:53.000Z</time>
      </trkpt>
      <trkpt lat="44.83221" lon="0.7967">
        <ele>181.7</ele>
        <time>2026-05-02T09:37:54.000Z</time>
      </trkpt>
      <trkpt lat="44.8322" lon="0.79672">
        <ele>181.9</ele>
        <time>2026-05-02T09:37:55.000Z</time>
      </trkpt>
      <trkpt lat="44.8322" lon="0.79675">
        <ele>182.1</ele>
        <time>2026-05-02T09:37:56.000Z</time>
      </trkpt>
      <trkpt lat="44.8322" lon="0.79677">
        <ele>182.2</ele>
        <time>2026-05-02T09:37:57.000Z</time>
      </trkpt>
      <trkpt lat="44.83219" lon="0.79679">
        <ele>182.8</ele>
        <time>2026-05-02T09:37:58.000Z</time>
      </trkpt>
      <trkpt lat="44.83218" lon="0.79682">
        <ele>182.8</ele>
        <time>2026-05-02T09:37:59.000Z</time>
      </trkpt>
      <trkpt lat="44.83217" lon="0.79684">
        <ele>183.6</ele>
        <time>2026-05-02T09:38:00.000Z</time>
      </trkpt>
      <trkpt lat="44.83217" lon="0.79687">
        <ele>183.9</ele>
        <time>2026-05-02T09:38:01.000Z</time>
      </trkpt>
      <trkpt lat="44.83217" lon="0.79689">
        <ele>184</ele>
        <time>2026-05-02T09:38:02.000Z</time>
      </trkpt>
      <trkpt lat="44.83216" lon="0.79692">
        <ele>184.2</ele>
        <time>2026-05-02T09:38:03.000Z</time>
      </trkpt>
      <trkpt lat="44.83216" lon="0.79694">
        <ele>184.3</ele>
        <time>2026-05-02T09:38:04.000Z</time>
      </trkpt>
      <trkpt lat="44.83215" lon="0.79696">
        <ele>184.3</ele>
        <time>2026-05-02T09:38:05.000Z</time>
      </trkpt>
      <trkpt lat="44.83215" lon="0.79699">
        <ele>184.7</ele>
        <time>2026-05-02T09:38:06.000Z</time>
      </trkpt>
      <trkpt lat="44.83215" lon="0.79701">
        <ele>184.8</ele>
        <time>2026-05-02T09:38:07.000Z</time>
      </trkpt>
      <trkpt lat="44.83214" lon="0.79703">
        <ele>184.9</ele>
        <time>2026-05-02T09:38:08.000Z</time>
      </trkpt>
      <trkpt lat="44.83214" lon="0.79705">
        <ele>185</ele>
        <time>2026-05-02T09:38:09.000Z</time>
      </trkpt>
      <trkpt lat="44.83214" lon="0.79707">
        <ele>185.6</ele>
        <time>2026-05-02T09:38:10.000Z</time>
      </trkpt>
      <trkpt lat="44.83214" lon="0.79709">
        <ele>185.7</ele>
        <time>2026-05-02T09:38:11.000Z</time>
      </trkpt>
      <trkpt lat="44.83213" lon="0.79711">
        <ele>186</ele>
        <time>2026-05-02T09:38:12.000Z</time>
      </trkpt>
      <trkpt lat="44.83213" lon="0.79713">
        <ele>186.2</ele>
        <time>2026-05-02T09:38:13.000Z</time>
      </trkpt>
      <trkpt lat="44.83213" lon="0.79716">
        <ele>186.3</ele>
        <time>2026-05-02T09:38:14.000Z</time>
      </trkpt>
      <trkpt lat="44.83212" lon="0.79718">
        <ele>186.5</ele>
        <time>2026-05-02T09:38:15.000Z</time>
      </trkpt>
      <trkpt lat="44.83212" lon="0.7972">
        <ele>186.5</ele>
        <time>2026-05-02T09:38:16.000Z</time>
      </trkpt>
      <trkpt lat="44.83212" lon="0.79722">
        <ele>186.6</ele>
        <time>2026-05-02T09:38:17.000Z</time>
      </trkpt>
      <trkpt lat="44.83212" lon="0.79724">
        <ele>186.6</ele>
        <time>2026-05-02T09:38:18.000Z</time>
      </trkpt>
      <trkpt lat="44.83211" lon="0.79726">
        <ele>186.9</ele>
        <time>2026-05-02T09:38:19.000Z</time>
      </trkpt>
      <trkpt lat="44.83211" lon="0.79729">
        <ele>187.1</ele>
        <time>2026-05-02T09:38:20.000Z</time>
      </trkpt>
      <trkpt lat="44.83211" lon="0.79731">
        <ele>187</ele>
        <time>2026-05-02T09:38:21.000Z</time>
      </trkpt>
      <trkpt lat="44.83211" lon="0.79733">
        <ele>187</ele>
        <time>2026-05-02T09:38:22.000Z</time>
      </trkpt>
      <trkpt lat="44.8321" lon="0.79735">
        <ele>186.8</ele>
        <time>2026-05-02T09:38:23.000Z</time>
      </trkpt>
      <trkpt lat="44.8321" lon="0.79737">
        <ele>186.9</ele>
        <time>2026-05-02T09:38:24.000Z</time>
      </trkpt>
      <trkpt lat="44.83209" lon="0.79739">
        <ele>187.1</ele>
        <time>2026-05-02T09:38:25.000Z</time>
      </trkpt>
      <trkpt lat="44.83209" lon="0.79742">
        <ele>187.4</ele>
        <time>2026-05-02T09:38:26.000Z</time>
      </trkpt>
      <trkpt lat="44.83208" lon="0.79744">
        <ele>187.7</ele>
        <time>2026-05-02T09:38:27.000Z</time>
      </trkpt>
      <trkpt lat="44.83207" lon="0.79746">
        <ele>187.9</ele>
        <time>2026-05-02T09:38:28.000Z</time>
      </trkpt>
      <trkpt lat="44.83207" lon="0.79748">
        <ele>187.9</ele>
        <time>2026-05-02T09:38:29.000Z</time>
      </trkpt>
      <trkpt lat="44.83207" lon="0.79751">
        <ele>188.4</ele>
        <time>2026-05-02T09:38:30.000Z</time>
      </trkpt>
      <trkpt lat="44.83206" lon="0.79753">
        <ele>188.4</ele>
        <time>2026-05-02T09:38:31.000Z</time>
      </trkpt>
      <trkpt lat="44.83206" lon="0.79755">
        <ele>188.5</ele>
        <time>2026-05-02T09:38:32.000Z</time>
      </trkpt>
      <trkpt lat="44.83205" lon="0.79757">
        <ele>188.6</ele>
        <time>2026-05-02T09:38:33.000Z</time>
      </trkpt>
      <trkpt lat="44.83205" lon="0.79758">
        <ele>188.6</ele>
        <time>2026-05-02T09:38:34.000Z</time>
      </trkpt>
      <trkpt lat="44.83205" lon="0.79759">
        <ele>187.8</ele>
        <time>2026-05-02T09:38:35.000Z</time>
      </trkpt>
      <trkpt lat="44.83206" lon="0.7976">
        <ele>188.4</ele>
        <time>2026-05-02T09:38:36.000Z</time>
      </trkpt>
      <trkpt lat="44.83208" lon="0.79761">
        <ele>189.5</ele>
        <time>2026-05-02T09:38:37.000Z</time>
      </trkpt>
      <trkpt lat="44.83209" lon="0.79761">
        <ele>190.6</ele>
        <time>2026-05-02T09:38:38.000Z</time>
      </trkpt>
      <trkpt lat="44.8321" lon="0.79762">
        <ele>191.6</ele>
        <time>2026-05-02T09:38:39.000Z</time>
      </trkpt>
      <trkpt lat="44.8321" lon="0.79764">
        <ele>191.6</ele>
        <time>2026-05-02T09:38:40.000Z</time>
      </trkpt>
      <trkpt lat="44.83209" lon="0.79764">
        <ele>192.4</ele>
        <time>2026-05-02T09:38:41.000Z</time>
      </trkpt>
      <trkpt lat="44.83207" lon="0.79765">
        <ele>192.4</ele>
        <time>2026-05-02T09:38:42.000Z</time>
      </trkpt>
      <trkpt lat="44.83205" lon="0.79766">
        <ele>192.4</ele>
        <time>2026-05-02T09:38:43.000Z</time>
      </trkpt>
      <trkpt lat="44.83204" lon="0.79767">
        <ele>192.6</ele>
        <time>2026-05-02T09:38:44.000Z</time>
      </trkpt>
      <trkpt lat="44.83202" lon="0.79768">
        <ele>192.8</ele>
        <time>2026-05-02T09:38:45.000Z</time>
      </trkpt>
      <trkpt lat="44.832" lon="0.79768">
        <ele>192.6</ele>
        <time>2026-05-02T09:38:46.000Z</time>
      </trkpt>
      <trkpt lat="44.83198" lon="0.79768">
        <ele>192.7</ele>
        <time>2026-05-02T09:38:47.000Z</time>
      </trkpt>
      <trkpt lat="44.83197" lon="0.79769">
        <ele>192.6</ele>
        <time>2026-05-02T09:38:48.000Z</time>
      </trkpt>
      <trkpt lat="44.83196" lon="0.7977">
        <ele>192.3</ele>
        <time>2026-05-02T09:38:49.000Z</time>
      </trkpt>
      <trkpt lat="44.83195" lon="0.7977">
        <ele>192.3</ele>
        <time>2026-05-02T09:38:50.000Z</time>
      </trkpt>
      <trkpt lat="44.83193" lon="0.7977">
        <ele>192.4</ele>
        <time>2026-05-02T09:38:51.000Z</time>
      </trkpt>
      <trkpt lat="44.83191" lon="0.79771">
        <ele>191.2</ele>
        <time>2026-05-02T09:38:52.000Z</time>
      </trkpt>
      <trkpt lat="44.8319" lon="0.79771">
        <ele>192.3</ele>
        <time>2026-05-02T09:38:53.000Z</time>
      </trkpt>
      <trkpt lat="44.83189" lon="0.79772">
        <ele>193.5</ele>
        <time>2026-05-02T09:38:54.000Z</time>
      </trkpt>
      <trkpt lat="44.83188" lon="0.79773">
        <ele>194.5</ele>
        <time>2026-05-02T09:38:55.000Z</time>
      </trkpt>
      <trkpt lat="44.83186" lon="0.79773">
        <ele>194.8</ele>
        <time>2026-05-02T09:38:56.000Z</time>
      </trkpt>
      <trkpt lat="44.83185" lon="0.79774">
        <ele>195.5</ele>
        <time>2026-05-02T09:38:57.000Z</time>
      </trkpt>
      <trkpt lat="44.83184" lon="0.79775">
        <ele>195.5</ele>
        <time>2026-05-02T09:38:58.000Z</time>
      </trkpt>
      <trkpt lat="44.83182" lon="0.79776">
        <ele>195.3</ele>
        <time>2026-05-02T09:38:59.000Z</time>
      </trkpt>
      <trkpt lat="44.8318" lon="0.79777">
        <ele>195.6</ele>
        <time>2026-05-02T09:39:00.000Z</time>
      </trkpt>
      <trkpt lat="44.83178" lon="0.79778">
        <ele>195.4</ele>
        <time>2026-05-02T09:39:01.000Z</time>
      </trkpt>
      <trkpt lat="44.83177" lon="0.79779">
        <ele>195.1</ele>
        <time>2026-05-02T09:39:02.000Z</time>
      </trkpt>
      <trkpt lat="44.83175" lon="0.7978">
        <ele>194.8</ele>
        <time>2026-05-02T09:39:03.000Z</time>
      </trkpt>
      <trkpt lat="44.83173" lon="0.79781">
        <ele>195.2</ele>
        <time>2026-05-02T09:39:04.000Z</time>
      </trkpt>
      <trkpt lat="44.83172" lon="0.79782">
        <ele>194.8</ele>
        <time>2026-05-02T09:39:05.000Z</time>
      </trkpt>
      <trkpt lat="44.8317" lon="0.79783">
        <ele>194.6</ele>
        <time>2026-05-02T09:39:06.000Z</time>
      </trkpt>
      <trkpt lat="44.83168" lon="0.79784">
        <ele>193.8</ele>
        <time>2026-05-02T09:39:07.000Z</time>
      </trkpt>
      <trkpt lat="44.83167" lon="0.79784">
        <ele>193.5</ele>
        <time>2026-05-02T09:39:08.000Z</time>
      </trkpt>
      <trkpt lat="44.83165" lon="0.79785">
        <ele>195.1</ele>
        <time>2026-05-02T09:39:09.000Z</time>
      </trkpt>
      <trkpt lat="44.83163" lon="0.79786">
        <ele>194.5</ele>
        <time>2026-05-02T09:39:10.000Z</time>
      </trkpt>
      <trkpt lat="44.83162" lon="0.79786">
        <ele>195</ele>
        <time>2026-05-02T09:39:11.000Z</time>
      </trkpt>
      <trkpt lat="44.8316" lon="0.79787">
        <ele>195.9</ele>
        <time>2026-05-02T09:39:12.000Z</time>
      </trkpt>
      <trkpt lat="44.83159" lon="0.79787">
        <ele>197.1</ele>
        <time>2026-05-02T09:39:13.000Z</time>
      </trkpt>
      <trkpt lat="44.83157" lon="0.79788">
        <ele>196.9</ele>
        <time>2026-05-02T09:39:14.000Z</time>
      </trkpt>
      <trkpt lat="44.83156" lon="0.79789">
        <ele>196.8</ele>
        <time>2026-05-02T09:39:15.000Z</time>
      </trkpt>
      <trkpt lat="44.83154" lon="0.7979">
        <ele>196.6</ele>
        <time>2026-05-02T09:39:16.000Z</time>
      </trkpt>
      <trkpt lat="44.83153" lon="0.79791">
        <ele>196.4</ele>
        <time>2026-05-02T09:39:17.000Z</time>
      </trkpt>
      <trkpt lat="44.83152" lon="0.79792">
        <ele>196.2</ele>
        <time>2026-05-02T09:39:18.000Z</time>
      </trkpt>
      <trkpt lat="44.83151" lon="0.79793">
        <ele>196.5</ele>
        <time>2026-05-02T09:39:19.000Z</time>
      </trkpt>
      <trkpt lat="44.83149" lon="0.79794">
        <ele>196.1</ele>
        <time>2026-05-02T09:39:20.000Z</time>
      </trkpt>
      <trkpt lat="44.83148" lon="0.79794">
        <ele>196.5</ele>
        <time>2026-05-02T09:39:21.000Z</time>
      </trkpt>
      <trkpt lat="44.83146" lon="0.79795">
        <ele>196.7</ele>
        <time>2026-05-02T09:39:22.000Z</time>
      </trkpt>
      <trkpt lat="44.83143" lon="0.79796">
        <ele>197.1</ele>
        <time>2026-05-02T09:39:23.000Z</time>
      </trkpt>
      <trkpt lat="44.83142" lon="0.79797">
        <ele>197.7</ele>
        <time>2026-05-02T09:39:24.000Z</time>
      </trkpt>
      <trkpt lat="44.8314" lon="0.79797">
        <ele>197.6</ele>
        <time>2026-05-02T09:39:25.000Z</time>
      </trkpt>
      <trkpt lat="44.83138" lon="0.79798">
        <ele>197.3</ele>
        <time>2026-05-02T09:39:26.000Z</time>
      </trkpt>
      <trkpt lat="44.83136" lon="0.79799">
        <ele>197</ele>
        <time>2026-05-02T09:39:27.000Z</time>
      </trkpt>
      <trkpt lat="44.83135" lon="0.798">
        <ele>197.4</ele>
        <time>2026-05-02T09:39:28.000Z</time>
      </trkpt>
      <trkpt lat="44.83133" lon="0.798">
        <ele>197.2</ele>
        <time>2026-05-02T09:39:29.000Z</time>
      </trkpt>
      <trkpt lat="44.83131" lon="0.79801">
        <ele>196.4</ele>
        <time>2026-05-02T09:39:30.000Z</time>
      </trkpt>
      <trkpt lat="44.8313" lon="0.79802">
        <ele>196.2</ele>
        <time>2026-05-02T09:39:31.000Z</time>
      </trkpt>
      <trkpt lat="44.83129" lon="0.79804">
        <ele>196.1</ele>
        <time>2026-05-02T09:39:32.000Z</time>
      </trkpt>
      <trkpt lat="44.83127" lon="0.79805">
        <ele>197.2</ele>
        <time>2026-05-02T09:39:33.000Z</time>
      </trkpt>
      <trkpt lat="44.83126" lon="0.79805">
        <ele>197.7</ele>
        <time>2026-05-02T09:39:34.000Z</time>
      </trkpt>
      <trkpt lat="44.83124" lon="0.79806">
        <ele>198.3</ele>
        <time>2026-05-02T09:39:35.000Z</time>
      </trkpt>
      <trkpt lat="44.83123" lon="0.79807">
        <ele>198.8</ele>
        <time>2026-05-02T09:39:36.000Z</time>
      </trkpt>
      <trkpt lat="44.83121" lon="0.79808">
        <ele>199.2</ele>
        <time>2026-05-02T09:39:37.000Z</time>
      </trkpt>
      <trkpt lat="44.8312" lon="0.79808">
        <ele>199.1</ele>
        <time>2026-05-02T09:39:38.000Z</time>
      </trkpt>
      <trkpt lat="44.83118" lon="0.79809">
        <ele>199.2</ele>
        <time>2026-05-02T09:39:39.000Z</time>
      </trkpt>
      <trkpt lat="44.83116" lon="0.7981">
        <ele>198.6</ele>
        <time>2026-05-02T09:39:40.000Z</time>
      </trkpt>
      <trkpt lat="44.83114" lon="0.79811">
        <ele>198.4</ele>
        <time>2026-05-02T09:39:41.000Z</time>
      </trkpt>
      <trkpt lat="44.83112" lon="0.79811">
        <ele>198.4</ele>
        <time>2026-05-02T09:39:42.000Z</time>
      </trkpt>
      <trkpt lat="44.8311" lon="0.79812">
        <ele>198.8</ele>
        <time>2026-05-02T09:39:43.000Z</time>
      </trkpt>
      <trkpt lat="44.83108" lon="0.79814">
        <ele>198</ele>
        <time>2026-05-02T09:39:44.000Z</time>
      </trkpt>
      <trkpt lat="44.83106" lon="0.79815">
        <ele>198.1</ele>
        <time>2026-05-02T09:39:45.000Z</time>
      </trkpt>
      <trkpt lat="44.83104" lon="0.79816">
        <ele>197.8</ele>
        <time>2026-05-02T09:39:46.000Z</time>
      </trkpt>
      <trkpt lat="44.83102" lon="0.79817">
        <ele>197.2</ele>
        <time>2026-05-02T09:39:47.000Z</time>
      </trkpt>
      <trkpt lat="44.831" lon="0.79818">
        <ele>196.1</ele>
        <time>2026-05-02T09:39:48.000Z</time>
      </trkpt>
      <trkpt lat="44.83098" lon="0.79818">
        <ele>196.2</ele>
        <time>2026-05-02T09:39:49.000Z</time>
      </trkpt>
      <trkpt lat="44.83096" lon="0.7982">
        <ele>195.6</ele>
        <time>2026-05-02T09:39:50.000Z</time>
      </trkpt>
      <trkpt lat="44.83095" lon="0.79821">
        <ele>195.2</ele>
        <time>2026-05-02T09:39:51.000Z</time>
      </trkpt>
      <trkpt lat="44.83093" lon="0.79822">
        <ele>195</ele>
        <time>2026-05-02T09:39:52.000Z</time>
      </trkpt>
      <trkpt lat="44.83091" lon="0.79823">
        <ele>195</ele>
        <time>2026-05-02T09:39:53.000Z</time>
      </trkpt>
      <trkpt lat="44.83089" lon="0.79825">
        <ele>194.2</ele>
        <time>2026-05-02T09:39:54.000Z</time>
      </trkpt>
      <trkpt lat="44.83087" lon="0.79826">
        <ele>193.4</ele>
        <time>2026-05-02T09:39:55.000Z</time>
      </trkpt>
      <trkpt lat="44.83085" lon="0.79826">
        <ele>193.2</ele>
        <time>2026-05-02T09:39:56.000Z</time>
      </trkpt>
      <trkpt lat="44.83084" lon="0.79827">
        <ele>192.9</ele>
        <time>2026-05-02T09:39:57.000Z</time>
      </trkpt>
      <trkpt lat="44.83083" lon="0.79828">
        <ele>193.1</ele>
        <time>2026-05-02T09:39:58.000Z</time>
      </trkpt>
      <trkpt lat="44.83081" lon="0.79828">
        <ele>193.5</ele>
        <time>2026-05-02T09:39:59.000Z</time>
      </trkpt>
      <trkpt lat="44.8308" lon="0.79829">
        <ele>193.4</ele>
        <time>2026-05-02T09:40:00.000Z</time>
      </trkpt>
      <trkpt lat="44.83079" lon="0.7983">
        <ele>193.6</ele>
        <time>2026-05-02T09:40:01.000Z</time>
      </trkpt>
      <trkpt lat="44.83077" lon="0.79831">
        <ele>193.6</ele>
        <time>2026-05-02T09:40:02.000Z</time>
      </trkpt>
      <trkpt lat="44.83076" lon="0.79832">
        <ele>193.9</ele>
        <time>2026-05-02T09:40:03.000Z</time>
      </trkpt>
      <trkpt lat="44.83074" lon="0.79832">
        <ele>194.5</ele>
        <time>2026-05-02T09:40:04.000Z</time>
      </trkpt>
      <trkpt lat="44.83073" lon="0.79832">
        <ele>195</ele>
        <time>2026-05-02T09:40:05.000Z</time>
      </trkpt>
      <trkpt lat="44.83072" lon="0.79834">
        <ele>195.1</ele>
        <time>2026-05-02T09:40:06.000Z</time>
      </trkpt>
      <trkpt lat="44.8307" lon="0.79834">
        <ele>195.3</ele>
        <time>2026-05-02T09:40:07.000Z</time>
      </trkpt>
      <trkpt lat="44.83068" lon="0.79834">
        <ele>195.6</ele>
        <time>2026-05-02T09:40:08.000Z</time>
      </trkpt>
      <trkpt lat="44.83067" lon="0.79835">
        <ele>196.3</ele>
        <time>2026-05-02T09:40:09.000Z</time>
      </trkpt>
      <trkpt lat="44.83065" lon="0.79836">
        <ele>195.8</ele>
        <time>2026-05-02T09:40:10.000Z</time>
      </trkpt>
      <trkpt lat="44.83064" lon="0.79837">
        <ele>195.3</ele>
        <time>2026-05-02T09:40:11.000Z</time>
      </trkpt>
      <trkpt lat="44.83062" lon="0.79837">
        <ele>195.8</ele>
        <time>2026-05-02T09:40:12.000Z</time>
      </trkpt>
      <trkpt lat="44.83061" lon="0.79838">
        <ele>196</ele>
        <time>2026-05-02T09:40:13.000Z</time>
      </trkpt>
      <trkpt lat="44.83059" lon="0.79838">
        <ele>197.2</ele>
        <time>2026-05-02T09:40:14.000Z</time>
      </trkpt>
      <trkpt lat="44.83057" lon="0.79839">
        <ele>196.7</ele>
        <time>2026-05-02T09:40:15.000Z</time>
      </trkpt>
      <trkpt lat="44.83056" lon="0.7984">
        <ele>197.3</ele>
        <time>2026-05-02T09:40:16.000Z</time>
      </trkpt>
      <trkpt lat="44.83054" lon="0.79841">
        <ele>197.1</ele>
        <time>2026-05-02T09:40:17.000Z</time>
      </trkpt>
      <trkpt lat="44.83052" lon="0.79841">
        <ele>196.8</ele>
        <time>2026-05-02T09:40:18.000Z</time>
      </trkpt>
      <trkpt lat="44.83051" lon="0.79841">
        <ele>197.3</ele>
        <time>2026-05-02T09:40:19.000Z</time>
      </trkpt>
      <trkpt lat="44.83049" lon="0.79841">
        <ele>197.6</ele>
        <time>2026-05-02T09:40:20.000Z</time>
      </trkpt>
      <trkpt lat="44.83047" lon="0.79842">
        <ele>198.1</ele>
        <time>2026-05-02T09:40:21.000Z</time>
      </trkpt>
      <trkpt lat="44.83046" lon="0.79843">
        <ele>199.1</ele>
        <time>2026-05-02T09:40:22.000Z</time>
      </trkpt>
      <trkpt lat="44.83044" lon="0.79842">
        <ele>198.7</ele>
        <time>2026-05-02T09:40:23.000Z</time>
      </trkpt>
      <trkpt lat="44.83042" lon="0.79842">
        <ele>197.9</ele>
        <time>2026-05-02T09:40:24.000Z</time>
      </trkpt>
      <trkpt lat="44.8304" lon="0.79842">
        <ele>197.9</ele>
        <time>2026-05-02T09:40:25.000Z</time>
      </trkpt>
      <trkpt lat="44.83038" lon="0.79842">
        <ele>198.3</ele>
        <time>2026-05-02T09:40:26.000Z</time>
      </trkpt>
      <trkpt lat="44.83037" lon="0.79842">
        <ele>198.5</ele>
        <time>2026-05-02T09:40:27.000Z</time>
      </trkpt>
      <trkpt lat="44.83034" lon="0.79843">
        <ele>198.5</ele>
        <time>2026-05-02T09:40:28.000Z</time>
      </trkpt>
      <trkpt lat="44.83032" lon="0.79844">
        <ele>198.3</ele>
        <time>2026-05-02T09:40:29.000Z</time>
      </trkpt>
      <trkpt lat="44.8303" lon="0.79844">
        <ele>198.4</ele>
        <time>2026-05-02T09:40:30.000Z</time>
      </trkpt>
      <trkpt lat="44.83028" lon="0.79844">
        <ele>198.4</ele>
        <time>2026-05-02T09:40:31.000Z</time>
      </trkpt>
      <trkpt lat="44.83027" lon="0.79844">
        <ele>198.3</ele>
        <time>2026-05-02T09:40:32.000Z</time>
      </trkpt>
      <trkpt lat="44.83025" lon="0.79844">
        <ele>199</ele>
        <time>2026-05-02T09:40:33.000Z</time>
      </trkpt>
      <trkpt lat="44.83023" lon="0.79844">
        <ele>198.6</ele>
        <time>2026-05-02T09:40:34.000Z</time>
      </trkpt>
      <trkpt lat="44.83021" lon="0.79845">
        <ele>199.3</ele>
        <time>2026-05-02T09:40:35.000Z</time>
      </trkpt>
      <trkpt lat="44.83019" lon="0.79845">
        <ele>201</ele>
        <time>2026-05-02T09:40:36.000Z</time>
      </trkpt>
      <trkpt lat="44.83017" lon="0.79846">
        <ele>201.5</ele>
        <time>2026-05-02T09:40:37.000Z</time>
      </trkpt>
      <trkpt lat="44.83015" lon="0.79846">
        <ele>202.9</ele>
        <time>2026-05-02T09:40:38.000Z</time>
      </trkpt>
      <trkpt lat="44.83014" lon="0.79845">
        <ele>202.5</ele>
        <time>2026-05-02T09:40:39.000Z</time>
      </trkpt>
      <trkpt lat="44.83012" lon="0.79845">
        <ele>203.1</ele>
        <time>2026-05-02T09:40:40.000Z</time>
      </trkpt>
      <trkpt lat="44.8301" lon="0.79844">
        <ele>203.7</ele>
        <time>2026-05-02T09:40:41.000Z</time>
      </trkpt>
      <trkpt lat="44.83008" lon="0.79844">
        <ele>204.8</ele>
        <time>2026-05-02T09:40:42.000Z</time>
      </trkpt>
      <trkpt lat="44.83007" lon="0.79844">
        <ele>205.5</ele>
        <time>2026-05-02T09:40:43.000Z</time>
      </trkpt>
      <trkpt lat="44.83006" lon="0.79844">
        <ele>205.1</ele>
        <time>2026-05-02T09:40:44.000Z</time>
      </trkpt>
      <trkpt lat="44.83004" lon="0.79844">
        <ele>204.8</ele>
        <time>2026-05-02T09:40:45.000Z</time>
      </trkpt>
      <trkpt lat="44.83002" lon="0.79843">
        <ele>204.6</ele>
        <time>2026-05-02T09:40:46.000Z</time>
      </trkpt>
      <trkpt lat="44.83" lon="0.79843">
        <ele>204</ele>
        <time>2026-05-02T09:40:47.000Z</time>
      </trkpt>
      <trkpt lat="44.82998" lon="0.79843">
        <ele>202.8</ele>
        <time>2026-05-02T09:40:48.000Z</time>
      </trkpt>
      <trkpt lat="44.82996" lon="0.79843">
        <ele>202.4</ele>
        <time>2026-05-02T09:40:49.000Z</time>
      </trkpt>
      <trkpt lat="44.82994" lon="0.79842">
        <ele>202.2</ele>
        <time>2026-05-02T09:40:50.000Z</time>
      </trkpt>
      <trkpt lat="44.82993" lon="0.79842">
        <ele>202.2</ele>
        <time>2026-05-02T09:40:51.000Z</time>
      </trkpt>
      <trkpt lat="44.82992" lon="0.79842">
        <ele>202.7</ele>
        <time>2026-05-02T09:40:52.000Z</time>
      </trkpt>
      <trkpt lat="44.82991" lon="0.79842">
        <ele>203.2</ele>
        <time>2026-05-02T09:40:53.000Z</time>
      </trkpt>
      <trkpt lat="44.8299" lon="0.79842">
        <ele>202.8</ele>
        <time>2026-05-02T09:40:54.000Z</time>
      </trkpt>
      <trkpt lat="44.82988" lon="0.79841">
        <ele>202.9</ele>
        <time>2026-05-02T09:40:55.000Z</time>
      </trkpt>
      <trkpt lat="44.82987" lon="0.79841">
        <ele>202.7</ele>
        <time>2026-05-02T09:40:56.000Z</time>
      </trkpt>
      <trkpt lat="44.82985" lon="0.79841">
        <ele>202.5</ele>
        <time>2026-05-02T09:40:57.000Z</time>
      </trkpt>
      <trkpt lat="44.82982" lon="0.79841">
        <ele>199.9</ele>
        <time>2026-05-02T09:40:58.000Z</time>
      </trkpt>
      <trkpt lat="44.82979" lon="0.7984">
        <ele>196.7</ele>
        <time>2026-05-02T09:40:59.000Z</time>
      </trkpt>
      <trkpt lat="44.82977" lon="0.7984">
        <ele>196.5</ele>
        <time>2026-05-02T09:41:00.000Z</time>
      </trkpt>
      <trkpt lat="44.82974" lon="0.7984">
        <ele>196.6</ele>
        <time>2026-05-02T09:41:01.000Z</time>
      </trkpt>
      <trkpt lat="44.82972" lon="0.79839">
        <ele>196.9</ele>
        <time>2026-05-02T09:41:02.000Z</time>
      </trkpt>
      <trkpt lat="44.8297" lon="0.79838">
        <ele>196.3</ele>
        <time>2026-05-02T09:41:03.000Z</time>
      </trkpt>
      <trkpt lat="44.82968" lon="0.79837">
        <ele>196.4</ele>
        <time>2026-05-02T09:41:04.000Z</time>
      </trkpt>
      <trkpt lat="44.82966" lon="0.79837">
        <ele>196.7</ele>
        <time>2026-05-02T09:41:05.000Z</time>
      </trkpt>
      <trkpt lat="44.82964" lon="0.79835">
        <ele>197.2</ele>
        <time>2026-05-02T09:41:06.000Z</time>
      </trkpt>
      <trkpt lat="44.82962" lon="0.79834">
        <ele>197.5</ele>
        <time>2026-05-02T09:41:07.000Z</time>
      </trkpt>
      <trkpt lat="44.8296" lon="0.79832">
        <ele>197.5</ele>
        <time>2026-05-02T09:41:08.000Z</time>
      </trkpt>
      <trkpt lat="44.82958" lon="0.79831">
        <ele>197.3</ele>
        <time>2026-05-02T09:41:09.000Z</time>
      </trkpt>
      <trkpt lat="44.82956" lon="0.79829">
        <ele>197.5</ele>
        <time>2026-05-02T09:41:10.000Z</time>
      </trkpt>
      <trkpt lat="44.82955" lon="0.79827">
        <ele>197.8</ele>
        <time>2026-05-02T09:41:11.000Z</time>
      </trkpt>
      <trkpt lat="44.82953" lon="0.79825">
        <ele>197.6</ele>
        <time>2026-05-02T09:41:12.000Z</time>
      </trkpt>
      <trkpt lat="44.82952" lon="0.79823">
        <ele>197.8</ele>
        <time>2026-05-02T09:41:13.000Z</time>
      </trkpt>
      <trkpt lat="44.82951" lon="0.79822">
        <ele>197.7</ele>
        <time>2026-05-02T09:41:14.000Z</time>
      </trkpt>
      <trkpt lat="44.8295" lon="0.7982">
        <ele>197.8</ele>
        <time>2026-05-02T09:41:15.000Z</time>
      </trkpt>
      <trkpt lat="44.82948" lon="0.79818">
        <ele>197.7</ele>
        <time>2026-05-02T09:41:16.000Z</time>
      </trkpt>
      <trkpt lat="44.82947" lon="0.79816">
        <ele>197.8</ele>
        <time>2026-05-02T09:41:17.000Z</time>
      </trkpt>
      <trkpt lat="44.82946" lon="0.79813">
        <ele>198.1</ele>
        <time>2026-05-02T09:41:18.000Z</time>
      </trkpt>
      <trkpt lat="44.82945" lon="0.79811">
        <ele>198.4</ele>
        <time>2026-05-02T09:41:19.000Z</time>
      </trkpt>
      <trkpt lat="44.82944" lon="0.79809">
        <ele>198.1</ele>
        <time>2026-05-02T09:41:20.000Z</time>
      </trkpt>
      <trkpt lat="44.82943" lon="0.79807">
        <ele>198.2</ele>
        <time>2026-05-02T09:41:21.000Z</time>
      </trkpt>
      <trkpt lat="44.82943" lon="0.79805">
        <ele>198.2</ele>
        <time>2026-05-02T09:41:22.000Z</time>
      </trkpt>
      <trkpt lat="44.82942" lon="0.79803">
        <ele>198.4</ele>
        <time>2026-05-02T09:41:23.000Z</time>
      </trkpt>
      <trkpt lat="44.82941" lon="0.79801">
        <ele>198.7</ele>
        <time>2026-05-02T09:41:24.000Z</time>
      </trkpt>
      <trkpt lat="44.8294" lon="0.79798">
        <ele>199.1</ele>
        <time>2026-05-02T09:41:25.000Z</time>
      </trkpt>
      <trkpt lat="44.82939" lon="0.79796">
        <ele>199</ele>
        <time>2026-05-02T09:41:26.000Z</time>
      </trkpt>
      <trkpt lat="44.82939" lon="0.79794">
        <ele>199</ele>
        <time>2026-05-02T09:41:27.000Z</time>
      </trkpt>
      <trkpt lat="44.82938" lon="0.79792">
        <ele>199</ele>
        <time>2026-05-02T09:41:28.000Z</time>
      </trkpt>
      <trkpt lat="44.82937" lon="0.79789">
        <ele>199.1</ele>
        <time>2026-05-02T09:41:29.000Z</time>
      </trkpt>
      <trkpt lat="44.82937" lon="0.79787">
        <ele>199.1</ele>
        <time>2026-05-02T09:41:30.000Z</time>
      </trkpt>
      <trkpt lat="44.82936" lon="0.79785">
        <ele>199</ele>
        <time>2026-05-02T09:41:31.000Z</time>
      </trkpt>
      <trkpt lat="44.82936" lon="0.79783">
        <ele>198.6</ele>
        <time>2026-05-02T09:41:32.000Z</time>
      </trkpt>
      <trkpt lat="44.82937" lon="0.7978">
        <ele>198.7</ele>
        <time>2026-05-02T09:41:33.000Z</time>
      </trkpt>
      <trkpt lat="44.82936" lon="0.79778">
        <ele>198.8</ele>
        <time>2026-05-02T09:41:34.000Z</time>
      </trkpt>
      <trkpt lat="44.82936" lon="0.79776">
        <ele>199</ele>
        <time>2026-05-02T09:41:35.000Z</time>
      </trkpt>
      <trkpt lat="44.82935" lon="0.79774">
        <ele>199.1</ele>
        <time>2026-05-02T09:41:36.000Z</time>
      </trkpt>
      <trkpt lat="44.82934" lon="0.79772">
        <ele>199.2</ele>
        <time>2026-05-02T09:41:37.000Z</time>
      </trkpt>
      <trkpt lat="44.82934" lon="0.7977">
        <ele>199.2</ele>
        <time>2026-05-02T09:41:38.000Z</time>
      </trkpt>
      <trkpt lat="44.82933" lon="0.79768">
        <ele>199.4</ele>
        <time>2026-05-02T09:41:39.000Z</time>
      </trkpt>
      <trkpt lat="44.82933" lon="0.79766">
        <ele>199.5</ele>
        <time>2026-05-02T09:41:40.000Z</time>
      </trkpt>
      <trkpt lat="44.82934" lon="0.79763">
        <ele>199.6</ele>
        <time>2026-05-02T09:41:41.000Z</time>
      </trkpt>
      <trkpt lat="44.82934" lon="0.79761">
        <ele>200.6</ele>
        <time>2026-05-02T09:41:42.000Z</time>
      </trkpt>
      <trkpt lat="44.82929" lon="0.7976">
        <ele>199</ele>
        <time>2026-05-02T09:41:43.000Z</time>
      </trkpt>
      <trkpt lat="44.82928" lon="0.79759">
        <ele>198.7</ele>
        <time>2026-05-02T09:41:44.000Z</time>
      </trkpt>
      <trkpt lat="44.82928" lon="0.79757">
        <ele>197.6</ele>
        <time>2026-05-02T09:41:45.000Z</time>
      </trkpt>
      <trkpt lat="44.82927" lon="0.79754">
        <ele>197</ele>
        <time>2026-05-02T09:41:46.000Z</time>
      </trkpt>
      <trkpt lat="44.82926" lon="0.79755">
        <ele>197.4</ele>
        <time>2026-05-02T09:41:47.000Z</time>
      </trkpt>
      <trkpt lat="44.82925" lon="0.79754">
        <ele>198.5</ele>
        <time>2026-05-02T09:41:48.000Z</time>
      </trkpt>
      <trkpt lat="44.82924" lon="0.79753">
        <ele>198.8</ele>
        <time>2026-05-02T09:41:49.000Z</time>
      </trkpt>
      <trkpt lat="44.82924" lon="0.79751">
        <ele>199</ele>
        <time>2026-05-02T09:41:50.000Z</time>
      </trkpt>
      <trkpt lat="44.82924" lon="0.79749">
        <ele>198.9</ele>
        <time>2026-05-02T09:41:51.000Z</time>
      </trkpt>
      <trkpt lat="44.82923" lon="0.79748">
        <ele>198.8</ele>
        <time>2026-05-02T09:41:52.000Z</time>
      </trkpt>
      <trkpt lat="44.82922" lon="0.79746">
        <ele>198.6</ele>
        <time>2026-05-02T09:41:53.000Z</time>
      </trkpt>
      <trkpt lat="44.82921" lon="0.79744">
        <ele>198.5</ele>
        <time>2026-05-02T09:41:54.000Z</time>
      </trkpt>
      <trkpt lat="44.8292" lon="0.79743">
        <ele>199.3</ele>
        <time>2026-05-02T09:41:55.000Z</time>
      </trkpt>
      <trkpt lat="44.8292" lon="0.79741">
        <ele>200.1</ele>
        <time>2026-05-02T09:41:56.000Z</time>
      </trkpt>
      <trkpt lat="44.82919" lon="0.7974">
        <ele>200</ele>
        <time>2026-05-02T09:41:57.000Z</time>
      </trkpt>
      <trkpt lat="44.82918" lon="0.79738">
        <ele>200.3</ele>
        <time>2026-05-02T09:41:58.000Z</time>
      </trkpt>
      <trkpt lat="44.82917" lon="0.79736">
        <ele>200.3</ele>
        <time>2026-05-02T09:41:59.000Z</time>
      </trkpt>
      <trkpt lat="44.82917" lon="0.79735">
        <ele>200.2</ele>
        <time>2026-05-02T09:42:00.000Z</time>
      </trkpt>
      <trkpt lat="44.82916" lon="0.79733">
        <ele>200.3</ele>
        <time>2026-05-02T09:42:01.000Z</time>
      </trkpt>
      <trkpt lat="44.82915" lon="0.79731">
        <ele>200.8</ele>
        <time>2026-05-02T09:42:02.000Z</time>
      </trkpt>
      <trkpt lat="44.82914" lon="0.79729">
        <ele>200.7</ele>
        <time>2026-05-02T09:42:03.000Z</time>
      </trkpt>
      <trkpt lat="44.82914" lon="0.79728">
        <ele>201</ele>
        <time>2026-05-02T09:42:04.000Z</time>
      </trkpt>
      <trkpt lat="44.82913" lon="0.79726">
        <ele>201.1</ele>
        <time>2026-05-02T09:42:05.000Z</time>
      </trkpt>
      <trkpt lat="44.82913" lon="0.79724">
        <ele>200.9</ele>
        <time>2026-05-02T09:42:06.000Z</time>
      </trkpt>
      <trkpt lat="44.82913" lon="0.79721">
        <ele>200.8</ele>
        <time>2026-05-02T09:42:07.000Z</time>
      </trkpt>
      <trkpt lat="44.82912" lon="0.79719">
        <ele>201</ele>
        <time>2026-05-02T09:42:08.000Z</time>
      </trkpt>
      <trkpt lat="44.82911" lon="0.79717">
        <ele>201</ele>
        <time>2026-05-02T09:42:09.000Z</time>
      </trkpt>
      <trkpt lat="44.8291" lon="0.79715">
        <ele>201.5</ele>
        <time>2026-05-02T09:42:10.000Z</time>
      </trkpt>
      <trkpt lat="44.82909" lon="0.79713">
        <ele>200.9</ele>
        <time>2026-05-02T09:42:11.000Z</time>
      </trkpt>
      <trkpt lat="44.82908" lon="0.79712">
        <ele>201.8</ele>
        <time>2026-05-02T09:42:12.000Z</time>
      </trkpt>
      <trkpt lat="44.82907" lon="0.7971">
        <ele>201.4</ele>
        <time>2026-05-02T09:42:13.000Z</time>
      </trkpt>
      <trkpt lat="44.82906" lon="0.79708">
        <ele>201</ele>
        <time>2026-05-02T09:42:14.000Z</time>
      </trkpt>
      <trkpt lat="44.82905" lon="0.79706">
        <ele>201.4</ele>
        <time>2026-05-02T09:42:15.000Z</time>
      </trkpt>
      <trkpt lat="44.82905" lon="0.79704">
        <ele>201</ele>
        <time>2026-05-02T09:42:16.000Z</time>
      </trkpt>
      <trkpt lat="44.82904" lon="0.79702">
        <ele>201.1</ele>
        <time>2026-05-02T09:42:17.000Z</time>
      </trkpt>
      <trkpt lat="44.82903" lon="0.797">
        <ele>201.1</ele>
        <time>2026-05-02T09:42:18.000Z</time>
      </trkpt>
      <trkpt lat="44.82902" lon="0.79698">
        <ele>200.9</ele>
        <time>2026-05-02T09:42:19.000Z</time>
      </trkpt>
      <trkpt lat="44.82901" lon="0.79696">
        <ele>201.8</ele>
        <time>2026-05-02T09:42:20.000Z</time>
      </trkpt>
      <trkpt lat="44.829" lon="0.79694">
        <ele>202.3</ele>
        <time>2026-05-02T09:42:21.000Z</time>
      </trkpt>
      <trkpt lat="44.82899" lon="0.79691">
        <ele>202.3</ele>
        <time>2026-05-02T09:42:22.000Z</time>
      </trkpt>
      <trkpt lat="44.82899" lon="0.79689">
        <ele>202.9</ele>
        <time>2026-05-02T09:42:23.000Z</time>
      </trkpt>
      <trkpt lat="44.82898" lon="0.79687">
        <ele>202.5</ele>
        <time>2026-05-02T09:42:24.000Z</time>
      </trkpt>
      <trkpt lat="44.82898" lon="0.79685">
        <ele>203.4</ele>
        <time>2026-05-02T09:42:25.000Z</time>
      </trkpt>
      <trkpt lat="44.82897" lon="0.79683">
        <ele>202.7</ele>
        <time>2026-05-02T09:42:26.000Z</time>
      </trkpt>
      <trkpt lat="44.82897" lon="0.79681">
        <ele>202.4</ele>
        <time>2026-05-02T09:42:27.000Z</time>
      </trkpt>
      <trkpt lat="44.82896" lon="0.79679">
        <ele>202.9</ele>
        <time>2026-05-02T09:42:28.000Z</time>
      </trkpt>
      <trkpt lat="44.82896" lon="0.79677">
        <ele>203.1</ele>
        <time>2026-05-02T09:42:29.000Z</time>
      </trkpt>
      <trkpt lat="44.82895" lon="0.79675">
        <ele>202.6</ele>
        <time>2026-05-02T09:42:30.000Z</time>
      </trkpt>
      <trkpt lat="44.82894" lon="0.79673">
        <ele>202.3</ele>
        <time>2026-05-02T09:42:31.000Z</time>
      </trkpt>
      <trkpt lat="44.82893" lon="0.79671">
        <ele>202.2</ele>
        <time>2026-05-02T09:42:32.000Z</time>
      </trkpt>
      <trkpt lat="44.82892" lon="0.79669">
        <ele>202.1</ele>
        <time>2026-05-02T09:42:33.000Z</time>
      </trkpt>
      <trkpt lat="44.82892" lon="0.79667">
        <ele>202.1</ele>
        <time>2026-05-02T09:42:34.000Z</time>
      </trkpt>
      <trkpt lat="44.82891" lon="0.79665">
        <ele>201.6</ele>
        <time>2026-05-02T09:42:35.000Z</time>
      </trkpt>
      <trkpt lat="44.8289" lon="0.79663">
        <ele>202.3</ele>
        <time>2026-05-02T09:42:36.000Z</time>
      </trkpt>
      <trkpt lat="44.8289" lon="0.79661">
        <ele>202.6</ele>
        <time>2026-05-02T09:42:37.000Z</time>
      </trkpt>
      <trkpt lat="44.82889" lon="0.79659">
        <ele>202.7</ele>
        <time>2026-05-02T09:42:38.000Z</time>
      </trkpt>
      <trkpt lat="44.82888" lon="0.79658">
        <ele>202.4</ele>
        <time>2026-05-02T09:42:39.000Z</time>
      </trkpt>
      <trkpt lat="44.82887" lon="0.79657">
        <ele>202</ele>
        <time>2026-05-02T09:42:40.000Z</time>
      </trkpt>
      <trkpt lat="44.82886" lon="0.79656">
        <ele>201.7</ele>
        <time>2026-05-02T09:42:41.000Z</time>
      </trkpt>
      <trkpt lat="44.82885" lon="0.79656">
        <ele>201</ele>
        <time>2026-05-02T09:42:42.000Z</time>
      </trkpt>
      <trkpt lat="44.82884" lon="0.79656">
        <ele>200.5</ele>
        <time>2026-05-02T09:42:43.000Z</time>
      </trkpt>
      <trkpt lat="44.82883" lon="0.79656">
        <ele>199.9</ele>
        <time>2026-05-02T09:42:44.000Z</time>
      </trkpt>
      <trkpt lat="44.82882" lon="0.79657">
        <ele>199.3</ele>
        <time>2026-05-02T09:42:45.000Z</time>
      </trkpt>
      <trkpt lat="44.82881" lon="0.79657">
        <ele>198.9</ele>
        <time>2026-05-02T09:42:46.000Z</time>
      </trkpt>
      <trkpt lat="44.82879" lon="0.79657">
        <ele>199</ele>
        <time>2026-05-02T09:42:47.000Z</time>
      </trkpt>
      <trkpt lat="44.82877" lon="0.79658">
        <ele>198.9</ele>
        <time>2026-05-02T09:42:48.000Z</time>
      </trkpt>
      <trkpt lat="44.82876" lon="0.79658">
        <ele>198.4</ele>
        <time>2026-05-02T09:42:49.000Z</time>
      </trkpt>
      <trkpt lat="44.82875" lon="0.79657">
        <ele>198.2</ele>
        <time>2026-05-02T09:42:50.000Z</time>
      </trkpt>
      <trkpt lat="44.82873" lon="0.79657">
        <ele>198.4</ele>
        <time>2026-05-02T09:42:51.000Z</time>
      </trkpt>
      <trkpt lat="44.82872" lon="0.79657">
        <ele>199.1</ele>
        <time>2026-05-02T09:42:52.000Z</time>
      </trkpt>
      <trkpt lat="44.82871" lon="0.79658">
        <ele>199.1</ele>
        <time>2026-05-02T09:42:53.000Z</time>
      </trkpt>
      <trkpt lat="44.8287" lon="0.79658">
        <ele>199.5</ele>
        <time>2026-05-02T09:42:54.000Z</time>
      </trkpt>
      <trkpt lat="44.82868" lon="0.79657">
        <ele>199.7</ele>
        <time>2026-05-02T09:42:55.000Z</time>
      </trkpt>
      <trkpt lat="44.82867" lon="0.79656">
        <ele>199.7</ele>
        <time>2026-05-02T09:42:56.000Z</time>
      </trkpt>
      <trkpt lat="44.82866" lon="0.79654">
        <ele>198.6</ele>
        <time>2026-05-02T09:42:57.000Z</time>
      </trkpt>
      <trkpt lat="44.82864" lon="0.79653">
        <ele>197.9</ele>
        <time>2026-05-02T09:42:58.000Z</time>
      </trkpt>
      <trkpt lat="44.82863" lon="0.79652">
        <ele>198</ele>
        <time>2026-05-02T09:42:59.000Z</time>
      </trkpt>
      <trkpt lat="44.82862" lon="0.7965">
        <ele>197.9</ele>
        <time>2026-05-02T09:43:00.000Z</time>
      </trkpt>
      <trkpt lat="44.8286" lon="0.79648">
        <ele>199.5</ele>
        <time>2026-05-02T09:43:01.000Z</time>
      </trkpt>
      <trkpt lat="44.82859" lon="0.79647">
        <ele>199.5</ele>
        <time>2026-05-02T09:43:02.000Z</time>
      </trkpt>
      <trkpt lat="44.82857" lon="0.79646">
        <ele>199.4</ele>
        <time>2026-05-02T09:43:03.000Z</time>
      </trkpt>
      <trkpt lat="44.82855" lon="0.79645">
        <ele>199</ele>
        <time>2026-05-02T09:43:04.000Z</time>
      </trkpt>
      <trkpt lat="44.82854" lon="0.79644">
        <ele>198.8</ele>
        <time>2026-05-02T09:43:05.000Z</time>
      </trkpt>
      <trkpt lat="44.82852" lon="0.79643">
        <ele>198.8</ele>
        <time>2026-05-02T09:43:06.000Z</time>
      </trkpt>
      <trkpt lat="44.8285" lon="0.79642">
        <ele>198.3</ele>
        <time>2026-05-02T09:43:07.000Z</time>
      </trkpt>
      <trkpt lat="44.82849" lon="0.79641">
        <ele>199.5</ele>
        <time>2026-05-02T09:43:08.000Z</time>
      </trkpt>
      <trkpt lat="44.82847" lon="0.7964">
        <ele>199.1</ele>
        <time>2026-05-02T09:43:09.000Z</time>
      </trkpt>
      <trkpt lat="44.82846" lon="0.79638">
        <ele>200</ele>
        <time>2026-05-02T09:43:10.000Z</time>
      </trkpt>
      <trkpt lat="44.82845" lon="0.79637">
        <ele>200.2</ele>
        <time>2026-05-02T09:43:11.000Z</time>
      </trkpt>
      <trkpt lat="44.82843" lon="0.79636">
        <ele>200.2</ele>
        <time>2026-05-02T09:43:12.000Z</time>
      </trkpt>
      <trkpt lat="44.82842" lon="0.79635">
        <ele>200.3</ele>
        <time>2026-05-02T09:43:13.000Z</time>
      </trkpt>
      <trkpt lat="44.8284" lon="0.79634">
        <ele>200.4</ele>
        <time>2026-05-02T09:43:14.000Z</time>
      </trkpt>
      <trkpt lat="44.82839" lon="0.79633">
        <ele>200.5</ele>
        <time>2026-05-02T09:43:15.000Z</time>
      </trkpt>
      <trkpt lat="44.82838" lon="0.79631">
        <ele>200</ele>
        <time>2026-05-02T09:43:16.000Z</time>
      </trkpt>
      <trkpt lat="44.82837" lon="0.7963">
        <ele>199.7</ele>
        <time>2026-05-02T09:43:17.000Z</time>
      </trkpt>
      <trkpt lat="44.82835" lon="0.79629">
        <ele>199</ele>
        <time>2026-05-02T09:43:18.000Z</time>
      </trkpt>
      <trkpt lat="44.82834" lon="0.79629">
        <ele>198.2</ele>
        <time>2026-05-02T09:43:19.000Z</time>
      </trkpt>
      <trkpt lat="44.82832" lon="0.79628">
        <ele>197.1</ele>
        <time>2026-05-02T09:43:20.000Z</time>
      </trkpt>
      <trkpt lat="44.82831" lon="0.79626">
        <ele>196.8</ele>
        <time>2026-05-02T09:43:21.000Z</time>
      </trkpt>
      <trkpt lat="44.8283" lon="0.79625">
        <ele>196.3</ele>
        <time>2026-05-02T09:43:22.000Z</time>
      </trkpt>
      <trkpt lat="44.82828" lon="0.79624">
        <ele>196.2</ele>
        <time>2026-05-02T09:43:23.000Z</time>
      </trkpt>
      <trkpt lat="44.82827" lon="0.79623">
        <ele>196.5</ele>
        <time>2026-05-02T09:43:24.000Z</time>
      </trkpt>
      <trkpt lat="44.82825" lon="0.79622">
        <ele>196.8</ele>
        <time>2026-05-02T09:43:25.000Z</time>
      </trkpt>
      <trkpt lat="44.82824" lon="0.79621">
        <ele>197</ele>
        <time>2026-05-02T09:43:26.000Z</time>
      </trkpt>
      <trkpt lat="44.82823" lon="0.79619">
        <ele>196.9</ele>
        <time>2026-05-02T09:43:27.000Z</time>
      </trkpt>
      <trkpt lat="44.82821" lon="0.79618">
        <ele>197.7</ele>
        <time>2026-05-02T09:43:28.000Z</time>
      </trkpt>
      <trkpt lat="44.8282" lon="0.79617">
        <ele>197.4</ele>
        <time>2026-05-02T09:43:29.000Z</time>
      </trkpt>
      <trkpt lat="44.82818" lon="0.79616">
        <ele>196.9</ele>
        <time>2026-05-02T09:43:30.000Z</time>
      </trkpt>
      <trkpt lat="44.82817" lon="0.79614">
        <ele>197.1</ele>
        <time>2026-05-02T09:43:31.000Z</time>
      </trkpt>
      <trkpt lat="44.82816" lon="0.79613">
        <ele>196.8</ele>
        <time>2026-05-02T09:43:32.000Z</time>
      </trkpt>
      <trkpt lat="44.82814" lon="0.79612">
        <ele>196.5</ele>
        <time>2026-05-02T09:43:33.000Z</time>
      </trkpt>
      <trkpt lat="44.82813" lon="0.79611">
        <ele>196.5</ele>
        <time>2026-05-02T09:43:34.000Z</time>
      </trkpt>
      <trkpt lat="44.82811" lon="0.7961">
        <ele>197.5</ele>
        <time>2026-05-02T09:43:35.000Z</time>
      </trkpt>
      <trkpt lat="44.8281" lon="0.79608">
        <ele>197.9</ele>
        <time>2026-05-02T09:43:36.000Z</time>
      </trkpt>
      <trkpt lat="44.82808" lon="0.79607">
        <ele>197.2</ele>
        <time>2026-05-02T09:43:37.000Z</time>
      </trkpt>
      <trkpt lat="44.82807" lon="0.79605">
        <ele>197.1</ele>
        <time>2026-05-02T09:43:38.000Z</time>
      </trkpt>
      <trkpt lat="44.82806" lon="0.79604">
        <ele>197.1</ele>
        <time>2026-05-02T09:43:39.000Z</time>
      </trkpt>
      <trkpt lat="44.82804" lon="0.79602">
        <ele>196.7</ele>
        <time>2026-05-02T09:43:40.000Z</time>
      </trkpt>
      <trkpt lat="44.82803" lon="0.796">
        <ele>197.1</ele>
        <time>2026-05-02T09:43:41.000Z</time>
      </trkpt>
      <trkpt lat="44.82802" lon="0.79599">
        <ele>197.2</ele>
        <time>2026-05-02T09:43:42.000Z</time>
      </trkpt>
      <trkpt lat="44.82801" lon="0.79597">
        <ele>197.1</ele>
        <time>2026-05-02T09:43:43.000Z</time>
      </trkpt>
      <trkpt lat="44.828" lon="0.79596">
        <ele>196.6</ele>
        <time>2026-05-02T09:43:44.000Z</time>
      </trkpt>
      <trkpt lat="44.82799" lon="0.79594">
        <ele>196.7</ele>
        <time>2026-05-02T09:43:45.000Z</time>
      </trkpt>
      <trkpt lat="44.82798" lon="0.79592">
        <ele>197.4</ele>
        <time>2026-05-02T09:43:46.000Z</time>
      </trkpt>
      <trkpt lat="44.82797" lon="0.7959">
        <ele>196.5</ele>
        <time>2026-05-02T09:43:47.000Z</time>
      </trkpt>
      <trkpt lat="44.82795" lon="0.79588">
        <ele>196.6</ele>
        <time>2026-05-02T09:43:48.000Z</time>
      </trkpt>
      <trkpt lat="44.82796" lon="0.79584">
        <ele>196.6</ele>
        <time>2026-05-02T09:43:49.000Z</time>
      </trkpt>
      <trkpt lat="44.82791" lon="0.79585">
        <ele>199</ele>
        <time>2026-05-02T09:43:50.000Z</time>
      </trkpt>
      <trkpt lat="44.82791" lon="0.79583">
        <ele>198.7</ele>
        <time>2026-05-02T09:43:51.000Z</time>
      </trkpt>
      <trkpt lat="44.8279" lon="0.79581">
        <ele>198.5</ele>
        <time>2026-05-02T09:43:52.000Z</time>
      </trkpt>
      <trkpt lat="44.82789" lon="0.79579">
        <ele>198.3</ele>
        <time>2026-05-02T09:43:53.000Z</time>
      </trkpt>
      <trkpt lat="44.82788" lon="0.79576">
        <ele>197</ele>
        <time>2026-05-02T09:43:54.000Z</time>
      </trkpt>
      <trkpt lat="44.82788" lon="0.79574">
        <ele>196.5</ele>
        <time>2026-05-02T09:43:55.000Z</time>
      </trkpt>
      <trkpt lat="44.82787" lon="0.79573">
        <ele>196.4</ele>
        <time>2026-05-02T09:43:56.000Z</time>
      </trkpt>
      <trkpt lat="44.82786" lon="0.79571">
        <ele>196.4</ele>
        <time>2026-05-02T09:43:57.000Z</time>
      </trkpt>
      <trkpt lat="44.82785" lon="0.79571">
        <ele>196.2</ele>
        <time>2026-05-02T09:43:58.000Z</time>
      </trkpt>
      <trkpt lat="44.82785" lon="0.7957">
        <ele>196.9</ele>
        <time>2026-05-02T09:43:59.000Z</time>
      </trkpt>
      <trkpt lat="44.82785" lon="0.79569">
        <ele>197.7</ele>
        <time>2026-05-02T09:44:00.000Z</time>
      </trkpt>
      <trkpt lat="44.82784" lon="0.79568">
        <ele>197.7</ele>
        <time>2026-05-02T09:44:01.000Z</time>
      </trkpt>
      <trkpt lat="44.82783" lon="0.79567">
        <ele>198</ele>
        <time>2026-05-02T09:44:02.000Z</time>
      </trkpt>
      <trkpt lat="44.82782" lon="0.79567">
        <ele>199.4</ele>
        <time>2026-05-02T09:44:03.000Z</time>
      </trkpt>
      <trkpt lat="44.82781" lon="0.79567">
        <ele>199.5</ele>
        <time>2026-05-02T09:44:04.000Z</time>
      </trkpt>
      <trkpt lat="44.8278" lon="0.79566">
        <ele>199</ele>
        <time>2026-05-02T09:44:05.000Z</time>
      </trkpt>
      <trkpt lat="44.82778" lon="0.79566">
        <ele>199.6</ele>
        <time>2026-05-02T09:44:06.000Z</time>
      </trkpt>
      <trkpt lat="44.82777" lon="0.79566">
        <ele>200.2</ele>
        <time>2026-05-02T09:44:07.000Z</time>
      </trkpt>
      <trkpt lat="44.82776" lon="0.79566">
        <ele>200.9</ele>
        <time>2026-05-02T09:44:08.000Z</time>
      </trkpt>
      <trkpt lat="44.82775" lon="0.79565">
        <ele>200.3</ele>
        <time>2026-05-02T09:44:09.000Z</time>
      </trkpt>
      <trkpt lat="44.82773" lon="0.79565">
        <ele>199.9</ele>
        <time>2026-05-02T09:44:10.000Z</time>
      </trkpt>
      <trkpt lat="44.82772" lon="0.79565">
        <ele>200.7</ele>
        <time>2026-05-02T09:44:11.000Z</time>
      </trkpt>
      <trkpt lat="44.82771" lon="0.79564">
        <ele>202.1</ele>
        <time>2026-05-02T09:44:12.000Z</time>
      </trkpt>
      <trkpt lat="44.8277" lon="0.79563">
        <ele>202.7</ele>
        <time>2026-05-02T09:44:13.000Z</time>
      </trkpt>
      <trkpt lat="44.82769" lon="0.79562">
        <ele>202.7</ele>
        <time>2026-05-02T09:44:14.000Z</time>
      </trkpt>
      <trkpt lat="44.82768" lon="0.79561">
        <ele>203.6</ele>
        <time>2026-05-02T09:44:15.000Z</time>
      </trkpt>
      <trkpt lat="44.82767" lon="0.7956">
        <ele>203.5</ele>
        <time>2026-05-02T09:44:16.000Z</time>
      </trkpt>
      <trkpt lat="44.82766" lon="0.79559">
        <ele>203.3</ele>
        <time>2026-05-02T09:44:17.000Z</time>
      </trkpt>
      <trkpt lat="44.82766" lon="0.79558">
        <ele>204.2</ele>
        <time>2026-05-02T09:44:18.000Z</time>
      </trkpt>
      <trkpt lat="44.82764" lon="0.79556">
        <ele>204.2</ele>
        <time>2026-05-02T09:44:19.000Z</time>
      </trkpt>
      <trkpt lat="44.82763" lon="0.79555">
        <ele>204.6</ele>
        <time>2026-05-02T09:44:20.000Z</time>
      </trkpt>
      <trkpt lat="44.82762" lon="0.79553">
        <ele>205</ele>
        <time>2026-05-02T09:44:21.000Z</time>
      </trkpt>
      <trkpt lat="44.82761" lon="0.79552">
        <ele>205.3</ele>
        <time>2026-05-02T09:44:22.000Z</time>
      </trkpt>
      <trkpt lat="44.8276" lon="0.79551">
        <ele>205.4</ele>
        <time>2026-05-02T09:44:23.000Z</time>
      </trkpt>
      <trkpt lat="44.82759" lon="0.7955">
        <ele>205.5</ele>
        <time>2026-05-02T09:44:24.000Z</time>
      </trkpt>
      <trkpt lat="44.8276" lon="0.7955">
        <ele>203.4</ele>
        <time>2026-05-02T09:44:25.000Z</time>
      </trkpt>
      <trkpt lat="44.82758" lon="0.79549">
        <ele>203.8</ele>
        <time>2026-05-02T09:44:26.000Z</time>
      </trkpt>
      <trkpt lat="44.82756" lon="0.79547">
        <ele>204.2</ele>
        <time>2026-05-02T09:44:27.000Z</time>
      </trkpt>
      <trkpt lat="44.82755" lon="0.79546">
        <ele>204.4</ele>
        <time>2026-05-02T09:44:28.000Z</time>
      </trkpt>
      <trkpt lat="44.82753" lon="0.79544">
        <ele>203.8</ele>
        <time>2026-05-02T09:44:29.000Z</time>
      </trkpt>
      <trkpt lat="44.82752" lon="0.79543">
        <ele>204.3</ele>
        <time>2026-05-02T09:44:30.000Z</time>
      </trkpt>
      <trkpt lat="44.82752" lon="0.79542">
        <ele>203.9</ele>
        <time>2026-05-02T09:44:31.000Z</time>
      </trkpt>
      <trkpt lat="44.82751" lon="0.79541">
        <ele>204.4</ele>
        <time>2026-05-02T09:44:32.000Z</time>
      </trkpt>
      <trkpt lat="44.8275" lon="0.7954">
        <ele>204.7</ele>
        <time>2026-05-02T09:44:33.000Z</time>
      </trkpt>
      <trkpt lat="44.82749" lon="0.79539">
        <ele>204</ele>
        <time>2026-05-02T09:44:34.000Z</time>
      </trkpt>
      <trkpt lat="44.82748" lon="0.79537">
        <ele>204</ele>
        <time>2026-05-02T09:44:35.000Z</time>
      </trkpt>
      <trkpt lat="44.82748" lon="0.79535">
        <ele>203.8</ele>
        <time>2026-05-02T09:44:36.000Z</time>
      </trkpt>
      <trkpt lat="44.82747" lon="0.79534">
        <ele>204.4</ele>
        <time>2026-05-02T09:44:37.000Z</time>
      </trkpt>
      <trkpt lat="44.82746" lon="0.79532">
        <ele>205.7</ele>
        <time>2026-05-02T09:44:38.000Z</time>
      </trkpt>
      <trkpt lat="44.82745" lon="0.79531">
        <ele>204.9</ele>
        <time>2026-05-02T09:44:39.000Z</time>
      </trkpt>
      <trkpt lat="44.82744" lon="0.7953">
        <ele>204.6</ele>
        <time>2026-05-02T09:44:40.000Z</time>
      </trkpt>
      <trkpt lat="44.82743" lon="0.79529">
        <ele>204</ele>
        <time>2026-05-02T09:44:41.000Z</time>
      </trkpt>
      <trkpt lat="44.82742" lon="0.79527">
        <ele>203.4</ele>
        <time>2026-05-02T09:44:42.000Z</time>
      </trkpt>
      <trkpt lat="44.82741" lon="0.79524">
        <ele>202.9</ele>
        <time>2026-05-02T09:44:43.000Z</time>
      </trkpt>
      <trkpt lat="44.82739" lon="0.79523">
        <ele>202.7</ele>
        <time>2026-05-02T09:44:44.000Z</time>
      </trkpt>
      <trkpt lat="44.82738" lon="0.79521">
        <ele>203</ele>
        <time>2026-05-02T09:44:45.000Z</time>
      </trkpt>
      <trkpt lat="44.82737" lon="0.79519">
        <ele>202.7</ele>
        <time>2026-05-02T09:44:46.000Z</time>
      </trkpt>
      <trkpt lat="44.82736" lon="0.79518">
        <ele>201.8</ele>
        <time>2026-05-02T09:44:47.000Z</time>
      </trkpt>
      <trkpt lat="44.82735" lon="0.79517">
        <ele>202.2</ele>
        <time>2026-05-02T09:44:48.000Z</time>
      </trkpt>
      <trkpt lat="44.82734" lon="0.79515">
        <ele>202.3</ele>
        <time>2026-05-02T09:44:49.000Z</time>
      </trkpt>
      <trkpt lat="44.82733" lon="0.79513">
        <ele>202</ele>
        <time>2026-05-02T09:44:50.000Z</time>
      </trkpt>
      <trkpt lat="44.82733" lon="0.79511">
        <ele>201.9</ele>
        <time>2026-05-02T09:44:51.000Z</time>
      </trkpt>
      <trkpt lat="44.82732" lon="0.79509">
        <ele>200.6</ele>
        <time>2026-05-02T09:44:52.000Z</time>
      </trkpt>
      <trkpt lat="44.82731" lon="0.79508">
        <ele>200.1</ele>
        <time>2026-05-02T09:44:53.000Z</time>
      </trkpt>
      <trkpt lat="44.8273" lon="0.79506">
        <ele>199.4</ele>
        <time>2026-05-02T09:44:54.000Z</time>
      </trkpt>
      <trkpt lat="44.82729" lon="0.79505">
        <ele>198.3</ele>
        <time>2026-05-02T09:44:55.000Z</time>
      </trkpt>
      <trkpt lat="44.82728" lon="0.79503">
        <ele>197.5</ele>
        <time>2026-05-02T09:44:56.000Z</time>
      </trkpt>
      <trkpt lat="44.82727" lon="0.79501">
        <ele>197.1</ele>
        <time>2026-05-02T09:44:57.000Z</time>
      </trkpt>
      <trkpt lat="44.82726" lon="0.79499">
        <ele>197.1</ele>
        <time>2026-05-02T09:44:58.000Z</time>
      </trkpt>
      <trkpt lat="44.82726" lon="0.79498">
        <ele>196.8</ele>
        <time>2026-05-02T09:44:59.000Z</time>
      </trkpt>
      <trkpt lat="44.82724" lon="0.79496">
        <ele>197</ele>
        <time>2026-05-02T09:45:00.000Z</time>
      </trkpt>
      <trkpt lat="44.82723" lon="0.79494">
        <ele>197.2</ele>
        <time>2026-05-02T09:45:01.000Z</time>
      </trkpt>
      <trkpt lat="44.82722" lon="0.79492">
        <ele>197</ele>
        <time>2026-05-02T09:45:02.000Z</time>
      </trkpt>
      <trkpt lat="44.82721" lon="0.7949">
        <ele>197.3</ele>
        <time>2026-05-02T09:45:03.000Z</time>
      </trkpt>
      <trkpt lat="44.8272" lon="0.79488">
        <ele>196</ele>
        <time>2026-05-02T09:45:04.000Z</time>
      </trkpt>
      <trkpt lat="44.82719" lon="0.79486">
        <ele>196.3</ele>
        <time>2026-05-02T09:45:05.000Z</time>
      </trkpt>
      <trkpt lat="44.82719" lon="0.79483">
        <ele>196.7</ele>
        <time>2026-05-02T09:45:06.000Z</time>
      </trkpt>
      <trkpt lat="44.82718" lon="0.79481">
        <ele>196.4</ele>
        <time>2026-05-02T09:45:07.000Z</time>
      </trkpt>
      <trkpt lat="44.82717" lon="0.79479">
        <ele>195</ele>
        <time>2026-05-02T09:45:08.000Z</time>
      </trkpt>
      <trkpt lat="44.82716" lon="0.79477">
        <ele>193.7</ele>
        <time>2026-05-02T09:45:09.000Z</time>
      </trkpt>
      <trkpt lat="44.82715" lon="0.79474">
        <ele>191.8</ele>
        <time>2026-05-02T09:45:10.000Z</time>
      </trkpt>
      <trkpt lat="44.82714" lon="0.79472">
        <ele>191.1</ele>
        <time>2026-05-02T09:45:11.000Z</time>
      </trkpt>
      <trkpt lat="44.82714" lon="0.7947">
        <ele>189.9</ele>
        <time>2026-05-02T09:45:12.000Z</time>
      </trkpt>
      <trkpt lat="44.82715" lon="0.79471">
        <ele>189.9</ele>
        <time>2026-05-02T09:45:13.000Z</time>
      </trkpt>
      <trkpt lat="44.82715" lon="0.7947">
        <ele>189.1</ele>
        <time>2026-05-02T09:45:14.000Z</time>
      </trkpt>
      <trkpt lat="44.82714" lon="0.79469">
        <ele>188.4</ele>
        <time>2026-05-02T09:45:15.000Z</time>
      </trkpt>
      <trkpt lat="44.82714" lon="0.79467">
        <ele>188</ele>
        <time>2026-05-02T09:45:16.000Z</time>
      </trkpt>
      <trkpt lat="44.82714" lon="0.79466">
        <ele>187.7</ele>
        <time>2026-05-02T09:45:17.000Z</time>
      </trkpt>
      <trkpt lat="44.82713" lon="0.79464">
        <ele>188.1</ele>
        <time>2026-05-02T09:45:18.000Z</time>
      </trkpt>
      <trkpt lat="44.82713" lon="0.79462">
        <ele>186.3</ele>
        <time>2026-05-02T09:45:19.000Z</time>
      </trkpt>
      <trkpt lat="44.82712" lon="0.7946">
        <ele>185.5</ele>
        <time>2026-05-02T09:45:20.000Z</time>
      </trkpt>
      <trkpt lat="44.82711" lon="0.79458">
        <ele>185.1</ele>
        <time>2026-05-02T09:45:21.000Z</time>
      </trkpt>
      <trkpt lat="44.8271" lon="0.79456">
        <ele>185.1</ele>
        <time>2026-05-02T09:45:22.000Z</time>
      </trkpt>
      <trkpt lat="44.8271" lon="0.79455">
        <ele>184.4</ele>
        <time>2026-05-02T09:45:23.000Z</time>
      </trkpt>
      <trkpt lat="44.8271" lon="0.79453">
        <ele>183.3</ele>
        <time>2026-05-02T09:45:24.000Z</time>
      </trkpt>
      <trkpt lat="44.8271" lon="0.79452">
        <ele>183.6</ele>
        <time>2026-05-02T09:45:25.000Z</time>
      </trkpt>
      <trkpt lat="44.8271" lon="0.79452">
        <ele>183.4</ele>
        <time>2026-05-02T09:45:26.000Z</time>
      </trkpt>
      <trkpt lat="44.8271" lon="0.79452">
        <ele>183.4</ele>
        <time>2026-05-02T09:45:27.000Z</time>
      </trkpt>
      <trkpt lat="44.8271" lon="0.79452">
        <ele>183.4</ele>
        <time>2026-05-02T09:45:28.000Z</time>
      </trkpt>
      <trkpt lat="44.8271" lon="0.79452">
        <ele>183.4</ele>
        <time>2026-05-02T09:45:29.000Z</time>
      </trkpt>
      <trkpt lat="44.82709" lon="0.79452">
        <ele>183.7</ele>
        <time>2026-05-02T09:45:30.000Z</time>
      </trkpt>
      <trkpt lat="44.82709" lon="0.79452">
        <ele>183.7</ele>
        <time>2026-05-02T09:45:31.000Z</time>
      </trkpt>
      <trkpt lat="44.82709" lon="0.79451">
        <ele>183.7</ele>
        <time>2026-05-02T09:45:32.000Z</time>
      </trkpt>
      <trkpt lat="44.82709" lon="0.79451">
        <ele>183.7</ele>
        <time>2026-05-02T09:45:33.000Z</time>
      </trkpt>
      <trkpt lat="44.82709" lon="0.79451">
        <ele>183.6</ele>
        <time>2026-05-02T09:45:34.000Z</time>
      </trkpt>
      <trkpt lat="44.82709" lon="0.79451">
        <ele>183.6</ele>
        <time>2026-05-02T09:45:35.000Z</time>
      </trkpt>
      <trkpt lat="44.82709" lon="0.79451">
        <ele>183.6</ele>
        <time>2026-05-02T09:45:36.000Z</time>
      </trkpt>
      <trkpt lat="44.82709" lon="0.79451">
        <ele>183.6</ele>
        <time>2026-05-02T09:45:37.000Z</time>
      </trkpt>
      <trkpt lat="44.82709" lon="0.79451">
        <ele>183.6</ele>
        <time>2026-05-02T09:45:38.000Z</time>
      </trkpt>
      <trkpt lat="44.82708" lon="0.7945">
        <ele>183.3</ele>
        <time>2026-05-02T09:45:39.000Z</time>
      </trkpt>
      <trkpt lat="44.82707" lon="0.79448">
        <ele>183.4</ele>
        <time>2026-05-02T09:45:40.000Z</time>
      </trkpt>
      <trkpt lat="44.82705" lon="0.79446">
        <ele>182.9</ele>
        <time>2026-05-02T09:45:41.000Z</time>
      </trkpt>
      <trkpt lat="44.82705" lon="0.79444">
        <ele>182.3</ele>
        <time>2026-05-02T09:45:42.000Z</time>
      </trkpt>
      <trkpt lat="44.82704" lon="0.79442">
        <ele>181.9</ele>
        <time>2026-05-02T09:45:43.000Z</time>
      </trkpt>
      <trkpt lat="44.82702" lon="0.79441">
        <ele>182</ele>
        <time>2026-05-02T09:45:44.000Z</time>
      </trkpt>
      <trkpt lat="44.82701" lon="0.79439">
        <ele>181.6</ele>
        <time>2026-05-02T09:45:45.000Z</time>
      </trkpt>
      <trkpt lat="44.827" lon="0.79437">
        <ele>181.2</ele>
        <time>2026-05-02T09:45:46.000Z</time>
      </trkpt>
      <trkpt lat="44.82699" lon="0.79435">
        <ele>181.1</ele>
        <time>2026-05-02T09:45:47.000Z</time>
      </trkpt>
      <trkpt lat="44.82698" lon="0.79434">
        <ele>181.4</ele>
        <time>2026-05-02T09:45:48.000Z</time>
      </trkpt>
      <trkpt lat="44.82697" lon="0.79432">
        <ele>181</ele>
        <time>2026-05-02T09:45:49.000Z</time>
      </trkpt>
      <trkpt lat="44.82696" lon="0.7943">
        <ele>180.6</ele>
        <time>2026-05-02T09:45:50.000Z</time>
      </trkpt>
      <trkpt lat="44.82695" lon="0.79428">
        <ele>180.6</ele>
        <time>2026-05-02T09:45:51.000Z</time>
      </trkpt>
      <trkpt lat="44.82695" lon="0.79426">
        <ele>179.7</ele>
        <time>2026-05-02T09:45:52.000Z</time>
      </trkpt>
      <trkpt lat="44.82694" lon="0.79424">
        <ele>179.5</ele>
        <time>2026-05-02T09:45:53.000Z</time>
      </trkpt>
      <trkpt lat="44.82693" lon="0.79422">
        <ele>179.7</ele>
        <time>2026-05-02T09:45:54.000Z</time>
      </trkpt>
      <trkpt lat="44.82693" lon="0.79421">
        <ele>179.7</ele>
        <time>2026-05-02T09:45:55.000Z</time>
      </trkpt>
      <trkpt lat="44.82692" lon="0.79419">
        <ele>179.7</ele>
        <time>2026-05-02T09:45:56.000Z</time>
      </trkpt>
      <trkpt lat="44.82691" lon="0.79417">
        <ele>179.3</ele>
        <time>2026-05-02T09:45:57.000Z</time>
      </trkpt>
      <trkpt lat="44.8269" lon="0.79414">
        <ele>179</ele>
        <time>2026-05-02T09:45:58.000Z</time>
      </trkpt>
      <trkpt lat="44.82689" lon="0.79412">
        <ele>178.6</ele>
        <time>2026-05-02T09:45:59.000Z</time>
      </trkpt>
      <trkpt lat="44.82688" lon="0.7941">
        <ele>178.6</ele>
        <time>2026-05-02T09:46:00.000Z</time>
      </trkpt>
      <trkpt lat="44.82687" lon="0.79407">
        <ele>178.6</ele>
        <time>2026-05-02T09:46:01.000Z</time>
      </trkpt>
      <trkpt lat="44.82687" lon="0.79405">
        <ele>178.1</ele>
        <time>2026-05-02T09:46:02.000Z</time>
      </trkpt>
      <trkpt lat="44.82686" lon="0.79403">
        <ele>177.9</ele>
        <time>2026-05-02T09:46:03.000Z</time>
      </trkpt>
      <trkpt lat="44.82685" lon="0.794">
        <ele>177.7</ele>
        <time>2026-05-02T09:46:04.000Z</time>
      </trkpt>
      <trkpt lat="44.82684" lon="0.79398">
        <ele>177.3</ele>
        <time>2026-05-02T09:46:05.000Z</time>
      </trkpt>
      <trkpt lat="44.82684" lon="0.79396">
        <ele>177.2</ele>
        <time>2026-05-02T09:46:06.000Z</time>
      </trkpt>
      <trkpt lat="44.82683" lon="0.79394">
        <ele>177.3</ele>
        <time>2026-05-02T09:46:07.000Z</time>
      </trkpt>
      <trkpt lat="44.82682" lon="0.79392">
        <ele>176.2</ele>
        <time>2026-05-02T09:46:08.000Z</time>
      </trkpt>
      <trkpt lat="44.82681" lon="0.7939">
        <ele>175.8</ele>
        <time>2026-05-02T09:46:09.000Z</time>
      </trkpt>
      <trkpt lat="44.8268" lon="0.79388">
        <ele>175.1</ele>
        <time>2026-05-02T09:46:10.000Z</time>
      </trkpt>
      <trkpt lat="44.82679" lon="0.79386">
        <ele>174.7</ele>
        <time>2026-05-02T09:46:11.000Z</time>
      </trkpt>
      <trkpt lat="44.82678" lon="0.79384">
        <ele>174.6</ele>
        <time>2026-05-02T09:46:12.000Z</time>
      </trkpt>
      <trkpt lat="44.82677" lon="0.79382">
        <ele>174.9</ele>
        <time>2026-05-02T09:46:13.000Z</time>
      </trkpt>
      <trkpt lat="44.82677" lon="0.79379">
        <ele>175.5</ele>
        <time>2026-05-02T09:46:14.000Z</time>
      </trkpt>
      <trkpt lat="44.82676" lon="0.79377">
        <ele>174.9</ele>
        <time>2026-05-02T09:46:15.000Z</time>
      </trkpt>
      <trkpt lat="44.82675" lon="0.79374">
        <ele>173.8</ele>
        <time>2026-05-02T09:46:16.000Z</time>
      </trkpt>
      <trkpt lat="44.82674" lon="0.79371">
        <ele>173.5</ele>
        <time>2026-05-02T09:46:17.000Z</time>
      </trkpt>
      <trkpt lat="44.82673" lon="0.79368">
        <ele>173</ele>
        <time>2026-05-02T09:46:18.000Z</time>
      </trkpt>
      <trkpt lat="44.82672" lon="0.79365">
        <ele>173.3</ele>
        <time>2026-05-02T09:46:19.000Z</time>
      </trkpt>
      <trkpt lat="44.8267" lon="0.79363">
        <ele>173.5</ele>
        <time>2026-05-02T09:46:20.000Z</time>
      </trkpt>
      <trkpt lat="44.82669" lon="0.79361">
        <ele>173.6</ele>
        <time>2026-05-02T09:46:21.000Z</time>
      </trkpt>
      <trkpt lat="44.82667" lon="0.7936">
        <ele>172.8</ele>
        <time>2026-05-02T09:46:22.000Z</time>
      </trkpt>
      <trkpt lat="44.82665" lon="0.7936">
        <ele>171.8</ele>
        <time>2026-05-02T09:46:23.000Z</time>
      </trkpt>
      <trkpt lat="44.82663" lon="0.79361">
        <ele>171.4</ele>
        <time>2026-05-02T09:46:24.000Z</time>
      </trkpt>
      <trkpt lat="44.82662" lon="0.79361">
        <ele>171.6</ele>
        <time>2026-05-02T09:46:25.000Z</time>
      </trkpt>
      <trkpt lat="44.82661" lon="0.79353">
        <ele>171.3</ele>
        <time>2026-05-02T09:46:26.000Z</time>
      </trkpt>
      <trkpt lat="44.82659" lon="0.79357">
        <ele>171.7</ele>
        <time>2026-05-02T09:46:27.000Z</time>
      </trkpt>
      <trkpt lat="44.82657" lon="0.7936">
        <ele>172.9</ele>
        <time>2026-05-02T09:46:28.000Z</time>
      </trkpt>
      <trkpt lat="44.82656" lon="0.79362">
        <ele>172.6</ele>
        <time>2026-05-02T09:46:29.000Z</time>
      </trkpt>
      <trkpt lat="44.82654" lon="0.79363">
        <ele>172</ele>
        <time>2026-05-02T09:46:30.000Z</time>
      </trkpt>
      <trkpt lat="44.82652" lon="0.79364">
        <ele>171.9</ele>
        <time>2026-05-02T09:46:31.000Z</time>
      </trkpt>
      <trkpt lat="44.82651" lon="0.79365">
        <ele>171.6</ele>
        <time>2026-05-02T09:46:32.000Z</time>
      </trkpt>
      <trkpt lat="44.82649" lon="0.79367">
        <ele>171.3</ele>
        <time>2026-05-02T09:46:33.000Z</time>
      </trkpt>
      <trkpt lat="44.82647" lon="0.79368">
        <ele>171.6</ele>
        <time>2026-05-02T09:46:34.000Z</time>
      </trkpt>
      <trkpt lat="44.82645" lon="0.79369">
        <ele>171.9</ele>
        <time>2026-05-02T09:46:35.000Z</time>
      </trkpt>
      <trkpt lat="44.82643" lon="0.7937">
        <ele>173.2</ele>
        <time>2026-05-02T09:46:36.000Z</time>
      </trkpt>
      <trkpt lat="44.82642" lon="0.7937">
        <ele>172.8</ele>
        <time>2026-05-02T09:46:37.000Z</time>
      </trkpt>
      <trkpt lat="44.82641" lon="0.79374">
        <ele>173.8</ele>
        <time>2026-05-02T09:46:38.000Z</time>
      </trkpt>
      <trkpt lat="44.8264" lon="0.79373">
        <ele>174.5</ele>
        <time>2026-05-02T09:46:39.000Z</time>
      </trkpt>
      <trkpt lat="44.82639" lon="0.79374">
        <ele>173.9</ele>
        <time>2026-05-02T09:46:40.000Z</time>
      </trkpt>
      <trkpt lat="44.82638" lon="0.79374">
        <ele>173.2</ele>
        <time>2026-05-02T09:46:41.000Z</time>
      </trkpt>
      <trkpt lat="44.82637" lon="0.79374">
        <ele>172.9</ele>
        <time>2026-05-02T09:46:42.000Z</time>
      </trkpt>
      <trkpt lat="44.82636" lon="0.79374">
        <ele>173.3</ele>
        <time>2026-05-02T09:46:43.000Z</time>
      </trkpt>
      <trkpt lat="44.82635" lon="0.79375">
        <ele>173.9</ele>
        <time>2026-05-02T09:46:44.000Z</time>
      </trkpt>
      <trkpt lat="44.82634" lon="0.79376">
        <ele>174</ele>
        <time>2026-05-02T09:46:45.000Z</time>
      </trkpt>
      <trkpt lat="44.82633" lon="0.79376">
        <ele>173.8</ele>
        <time>2026-05-02T09:46:46.000Z</time>
      </trkpt>
      <trkpt lat="44.82632" lon="0.79376">
        <ele>175.9</ele>
        <time>2026-05-02T09:46:47.000Z</time>
      </trkpt>
      <trkpt lat="44.82632" lon="0.79377">
        <ele>177</ele>
        <time>2026-05-02T09:46:48.000Z</time>
      </trkpt>
      <trkpt lat="44.82632" lon="0.79377">
        <ele>176.7</ele>
        <time>2026-05-02T09:46:49.000Z</time>
      </trkpt>
      <trkpt lat="44.8263" lon="0.79378">
        <ele>176.3</ele>
        <time>2026-05-02T09:46:50.000Z</time>
      </trkpt>
      <trkpt lat="44.8263" lon="0.7938">
        <ele>176</ele>
        <time>2026-05-02T09:46:51.000Z</time>
      </trkpt>
      <trkpt lat="44.82629" lon="0.79381">
        <ele>176.5</ele>
        <time>2026-05-02T09:46:52.000Z</time>
      </trkpt>
      <trkpt lat="44.82629" lon="0.79382">
        <ele>177.1</ele>
        <time>2026-05-02T09:46:53.000Z</time>
      </trkpt>
      <trkpt lat="44.82628" lon="0.79382">
        <ele>178</ele>
        <time>2026-05-02T09:46:54.000Z</time>
      </trkpt>
      <trkpt lat="44.82627" lon="0.79383">
        <ele>178.7</ele>
        <time>2026-05-02T09:46:55.000Z</time>
      </trkpt>
      <trkpt lat="44.82625" lon="0.79384">
        <ele>180.1</ele>
        <time>2026-05-02T09:46:56.000Z</time>
      </trkpt>
      <trkpt lat="44.82624" lon="0.79384">
        <ele>180</ele>
        <time>2026-05-02T09:46:57.000Z</time>
      </trkpt>
      <trkpt lat="44.82622" lon="0.79385">
        <ele>180.5</ele>
        <time>2026-05-02T09:46:58.000Z</time>
      </trkpt>
      <trkpt lat="44.82621" lon="0.79385">
        <ele>180.4</ele>
        <time>2026-05-02T09:46:59.000Z</time>
      </trkpt>
      <trkpt lat="44.82619" lon="0.79385">
        <ele>181.3</ele>
        <time>2026-05-02T09:47:00.000Z</time>
      </trkpt>
      <trkpt lat="44.82618" lon="0.79386">
        <ele>182</ele>
        <time>2026-05-02T09:47:01.000Z</time>
      </trkpt>
      <trkpt lat="44.82617" lon="0.79387">
        <ele>182.5</ele>
        <time>2026-05-02T09:47:02.000Z</time>
      </trkpt>
      <trkpt lat="44.82616" lon="0.79388">
        <ele>182.5</ele>
        <time>2026-05-02T09:47:03.000Z</time>
      </trkpt>
      <trkpt lat="44.82615" lon="0.79389">
        <ele>182.5</ele>
        <time>2026-05-02T09:47:04.000Z</time>
      </trkpt>
      <trkpt lat="44.82613" lon="0.7939">
        <ele>182.8</ele>
        <time>2026-05-02T09:47:05.000Z</time>
      </trkpt>
      <trkpt lat="44.82612" lon="0.7939">
        <ele>183.1</ele>
        <time>2026-05-02T09:47:06.000Z</time>
      </trkpt>
      <trkpt lat="44.8261" lon="0.79391">
        <ele>183.2</ele>
        <time>2026-05-02T09:47:07.000Z</time>
      </trkpt>
      <trkpt lat="44.82609" lon="0.79392">
        <ele>182.9</ele>
        <time>2026-05-02T09:47:08.000Z</time>
      </trkpt>
      <trkpt lat="44.82607" lon="0.79392">
        <ele>182.7</ele>
        <time>2026-05-02T09:47:09.000Z</time>
      </trkpt>
      <trkpt lat="44.82606" lon="0.79392">
        <ele>182.8</ele>
        <time>2026-05-02T09:47:10.000Z</time>
      </trkpt>
      <trkpt lat="44.82604" lon="0.79393">
        <ele>182.6</ele>
        <time>2026-05-02T09:47:11.000Z</time>
      </trkpt>
      <trkpt lat="44.82603" lon="0.79393">
        <ele>182.8</ele>
        <time>2026-05-02T09:47:12.000Z</time>
      </trkpt>
      <trkpt lat="44.82601" lon="0.79394">
        <ele>183</ele>
        <time>2026-05-02T09:47:13.000Z</time>
      </trkpt>
      <trkpt lat="44.826" lon="0.79395">
        <ele>182.9</ele>
        <time>2026-05-02T09:47:14.000Z</time>
      </trkpt>
      <trkpt lat="44.82598" lon="0.79395">
        <ele>183.3</ele>
        <time>2026-05-02T09:47:15.000Z</time>
      </trkpt>
      <trkpt lat="44.82597" lon="0.79396">
        <ele>183.2</ele>
        <time>2026-05-02T09:47:16.000Z</time>
      </trkpt>
      <trkpt lat="44.82596" lon="0.79396">
        <ele>183.9</ele>
        <time>2026-05-02T09:47:17.000Z</time>
      </trkpt>
      <trkpt lat="44.82594" lon="0.79397">
        <ele>183.7</ele>
        <time>2026-05-02T09:47:18.000Z</time>
      </trkpt>
      <trkpt lat="44.82593" lon="0.79397">
        <ele>183.9</ele>
        <time>2026-05-02T09:47:19.000Z</time>
      </trkpt>
      <trkpt lat="44.82591" lon="0.79398">
        <ele>184.4</ele>
        <time>2026-05-02T09:47:20.000Z</time>
      </trkpt>
      <trkpt lat="44.8259" lon="0.79399">
        <ele>184</ele>
        <time>2026-05-02T09:47:21.000Z</time>
      </trkpt>
      <trkpt lat="44.82589" lon="0.794">
        <ele>183.9</ele>
        <time>2026-05-02T09:47:22.000Z</time>
      </trkpt>
      <trkpt lat="44.82587" lon="0.79401">
        <ele>183.6</ele>
        <time>2026-05-02T09:47:23.000Z</time>
      </trkpt>
      <trkpt lat="44.82586" lon="0.79402">
        <ele>183.6</ele>
        <time>2026-05-02T09:47:24.000Z</time>
      </trkpt>
      <trkpt lat="44.82583" lon="0.79403">
        <ele>182.8</ele>
        <time>2026-05-02T09:47:25.000Z</time>
      </trkpt>
      <trkpt lat="44.82581" lon="0.79404">
        <ele>182.9</ele>
        <time>2026-05-02T09:47:26.000Z</time>
      </trkpt>
      <trkpt lat="44.82579" lon="0.79405">
        <ele>182.6</ele>
        <time>2026-05-02T09:47:27.000Z</time>
      </trkpt>
      <trkpt lat="44.82578" lon="0.79406">
        <ele>181.5</ele>
        <time>2026-05-02T09:47:28.000Z</time>
      </trkpt>
      <trkpt lat="44.82576" lon="0.79408">
        <ele>180.7</ele>
        <time>2026-05-02T09:47:29.000Z</time>
      </trkpt>
      <trkpt lat="44.82574" lon="0.79409">
        <ele>181.1</ele>
        <time>2026-05-02T09:47:30.000Z</time>
      </trkpt>
      <trkpt lat="44.82572" lon="0.7941">
        <ele>181.2</ele>
        <time>2026-05-02T09:47:31.000Z</time>
      </trkpt>
      <trkpt lat="44.8257" lon="0.79411">
        <ele>181.5</ele>
        <time>2026-05-02T09:47:32.000Z</time>
      </trkpt>
      <trkpt lat="44.82568" lon="0.79412">
        <ele>181.5</ele>
        <time>2026-05-02T09:47:33.000Z</time>
      </trkpt>
      <trkpt lat="44.82566" lon="0.79413">
        <ele>182.1</ele>
        <time>2026-05-02T09:47:34.000Z</time>
      </trkpt>
      <trkpt lat="44.82565" lon="0.79413">
        <ele>182.5</ele>
        <time>2026-05-02T09:47:35.000Z</time>
      </trkpt>
      <trkpt lat="44.82563" lon="0.79414">
        <ele>182.5</ele>
        <time>2026-05-02T09:47:36.000Z</time>
      </trkpt>
      <trkpt lat="44.82562" lon="0.79415">
        <ele>182.8</ele>
        <time>2026-05-02T09:47:37.000Z</time>
      </trkpt>
      <trkpt lat="44.8256" lon="0.79416">
        <ele>183.7</ele>
        <time>2026-05-02T09:47:38.000Z</time>
      </trkpt>
      <trkpt lat="44.82558" lon="0.79416">
        <ele>184.1</ele>
        <time>2026-05-02T09:47:39.000Z</time>
      </trkpt>
      <trkpt lat="44.82556" lon="0.79416">
        <ele>185.2</ele>
        <time>2026-05-02T09:47:40.000Z</time>
      </trkpt>
      <trkpt lat="44.82554" lon="0.79417">
        <ele>185.3</ele>
        <time>2026-05-02T09:47:41.000Z</time>
      </trkpt>
      <trkpt lat="44.82552" lon="0.79418">
        <ele>185.3</ele>
        <time>2026-05-02T09:47:42.000Z</time>
      </trkpt>
      <trkpt lat="44.8255" lon="0.79419">
        <ele>185.7</ele>
        <time>2026-05-02T09:47:43.000Z</time>
      </trkpt>
      <trkpt lat="44.82547" lon="0.79418">
        <ele>183.3</ele>
        <time>2026-05-02T09:47:44.000Z</time>
      </trkpt>
      <trkpt lat="44.82546" lon="0.79417">
        <ele>183.2</ele>
        <time>2026-05-02T09:47:45.000Z</time>
      </trkpt>
      <trkpt lat="44.82544" lon="0.79417">
        <ele>184.3</ele>
        <time>2026-05-02T09:47:46.000Z</time>
      </trkpt>
      <trkpt lat="44.82542" lon="0.79418">
        <ele>184.4</ele>
        <time>2026-05-02T09:47:47.000Z</time>
      </trkpt>
      <trkpt lat="44.8254" lon="0.79419">
        <ele>185.2</ele>
        <time>2026-05-02T09:47:48.000Z</time>
      </trkpt>
      <trkpt lat="44.82539" lon="0.7942">
        <ele>186.2</ele>
        <time>2026-05-02T09:47:49.000Z</time>
      </trkpt>
      <trkpt lat="44.82538" lon="0.79421">
        <ele>186.5</ele>
        <time>2026-05-02T09:47:50.000Z</time>
      </trkpt>
      <trkpt lat="44.82536" lon="0.79422">
        <ele>186.4</ele>
        <time>2026-05-02T09:47:51.000Z</time>
      </trkpt>
      <trkpt lat="44.82535" lon="0.79422">
        <ele>186.4</ele>
        <time>2026-05-02T09:47:52.000Z</time>
      </trkpt>
      <trkpt lat="44.82534" lon="0.79422">
        <ele>186.4</ele>
        <time>2026-05-02T09:47:53.000Z</time>
      </trkpt>
      <trkpt lat="44.82532" lon="0.79423">
        <ele>187.5</ele>
        <time>2026-05-02T09:47:54.000Z</time>
      </trkpt>
      <trkpt lat="44.82531" lon="0.79423">
        <ele>187.9</ele>
        <time>2026-05-02T09:47:55.000Z</time>
      </trkpt>
      <trkpt lat="44.8253" lon="0.79424">
        <ele>189.3</ele>
        <time>2026-05-02T09:47:56.000Z</time>
      </trkpt>
      <trkpt lat="44.82529" lon="0.79425">
        <ele>189.3</ele>
        <time>2026-05-02T09:47:57.000Z</time>
      </trkpt>
      <trkpt lat="44.82526" lon="0.79426">
        <ele>188.8</ele>
        <time>2026-05-02T09:47:58.000Z</time>
      </trkpt>
      <trkpt lat="44.82524" lon="0.79426">
        <ele>188.8</ele>
        <time>2026-05-02T09:47:59.000Z</time>
      </trkpt>
      <trkpt lat="44.82522" lon="0.79427">
        <ele>188.4</ele>
        <time>2026-05-02T09:48:00.000Z</time>
      </trkpt>
      <trkpt lat="44.8252" lon="0.79428">
        <ele>188.2</ele>
        <time>2026-05-02T09:48:01.000Z</time>
      </trkpt>
      <trkpt lat="44.82518" lon="0.79428">
        <ele>187.8</ele>
        <time>2026-05-02T09:48:02.000Z</time>
      </trkpt>
      <trkpt lat="44.82516" lon="0.79428">
        <ele>187.4</ele>
        <time>2026-05-02T09:48:03.000Z</time>
      </trkpt>
      <trkpt lat="44.82515" lon="0.79427">
        <ele>187.2</ele>
        <time>2026-05-02T09:48:04.000Z</time>
      </trkpt>
      <trkpt lat="44.82513" lon="0.79427">
        <ele>187.9</ele>
        <time>2026-05-02T09:48:05.000Z</time>
      </trkpt>
      <trkpt lat="44.82512" lon="0.79427">
        <ele>187.9</ele>
        <time>2026-05-02T09:48:06.000Z</time>
      </trkpt>
      <trkpt lat="44.82511" lon="0.79427">
        <ele>188.4</ele>
        <time>2026-05-02T09:48:07.000Z</time>
      </trkpt>
      <trkpt lat="44.82509" lon="0.79427">
        <ele>188.7</ele>
        <time>2026-05-02T09:48:08.000Z</time>
      </trkpt>
      <trkpt lat="44.82508" lon="0.79428">
        <ele>189.7</ele>
        <time>2026-05-02T09:48:09.000Z</time>
      </trkpt>
      <trkpt lat="44.82507" lon="0.79429">
        <ele>190.1</ele>
        <time>2026-05-02T09:48:10.000Z</time>
      </trkpt>
      <trkpt lat="44.82506" lon="0.79429">
        <ele>189.8</ele>
        <time>2026-05-02T09:48:11.000Z</time>
      </trkpt>
      <trkpt lat="44.82504" lon="0.7943">
        <ele>189.9</ele>
        <time>2026-05-02T09:48:12.000Z</time>
      </trkpt>
      <trkpt lat="44.82502" lon="0.79431">
        <ele>189.7</ele>
        <time>2026-05-02T09:48:13.000Z</time>
      </trkpt>
      <trkpt lat="44.82501" lon="0.79432">
        <ele>189.5</ele>
        <time>2026-05-02T09:48:14.000Z</time>
      </trkpt>
      <trkpt lat="44.82499" lon="0.79433">
        <ele>189.5</ele>
        <time>2026-05-02T09:48:15.000Z</time>
      </trkpt>
      <trkpt lat="44.82496" lon="0.79434">
        <ele>186.8</ele>
        <time>2026-05-02T09:48:16.000Z</time>
      </trkpt>
      <trkpt lat="44.82493" lon="0.79436">
        <ele>186.8</ele>
        <time>2026-05-02T09:48:17.000Z</time>
      </trkpt>
      <trkpt lat="44.82491" lon="0.79437">
        <ele>186.6</ele>
        <time>2026-05-02T09:48:18.000Z</time>
      </trkpt>
      <trkpt lat="44.82489" lon="0.79438">
        <ele>186.7</ele>
        <time>2026-05-02T09:48:19.000Z</time>
      </trkpt>
      <trkpt lat="44.82487" lon="0.79439">
        <ele>185.7</ele>
        <time>2026-05-02T09:48:20.000Z</time>
      </trkpt>
      <trkpt lat="44.82486" lon="0.7944">
        <ele>185</ele>
        <time>2026-05-02T09:48:21.000Z</time>
      </trkpt>
      <trkpt lat="44.82484" lon="0.79441">
        <ele>185</ele>
        <time>2026-05-02T09:48:22.000Z</time>
      </trkpt>
      <trkpt lat="44.82482" lon="0.79442">
        <ele>185</ele>
        <time>2026-05-02T09:48:23.000Z</time>
      </trkpt>
      <trkpt lat="44.82481" lon="0.79443">
        <ele>185</ele>
        <time>2026-05-02T09:48:24.000Z</time>
      </trkpt>
      <trkpt lat="44.8248" lon="0.79445">
        <ele>182.7</ele>
        <time>2026-05-02T09:48:25.000Z</time>
      </trkpt>
      <trkpt lat="44.82477" lon="0.79446">
        <ele>182.1</ele>
        <time>2026-05-02T09:48:26.000Z</time>
      </trkpt>
      <trkpt lat="44.82473" lon="0.79448">
        <ele>181.5</ele>
        <time>2026-05-02T09:48:27.000Z</time>
      </trkpt>
      <trkpt lat="44.8247" lon="0.7945">
        <ele>182</ele>
        <time>2026-05-02T09:48:28.000Z</time>
      </trkpt>
      <trkpt lat="44.82469" lon="0.79451">
        <ele>181.7</ele>
        <time>2026-05-02T09:48:29.000Z</time>
      </trkpt>
      <trkpt lat="44.82467" lon="0.79452">
        <ele>181.1</ele>
        <time>2026-05-02T09:48:30.000Z</time>
      </trkpt>
      <trkpt lat="44.82464" lon="0.79453">
        <ele>181.8</ele>
        <time>2026-05-02T09:48:31.000Z</time>
      </trkpt>
      <trkpt lat="44.82462" lon="0.79455">
        <ele>181.9</ele>
        <time>2026-05-02T09:48:32.000Z</time>
      </trkpt>
      <trkpt lat="44.8246" lon="0.79456">
        <ele>182.9</ele>
        <time>2026-05-02T09:48:33.000Z</time>
      </trkpt>
      <trkpt lat="44.82457" lon="0.79459">
        <ele>182.7</ele>
        <time>2026-05-02T09:48:34.000Z</time>
      </trkpt>
      <trkpt lat="44.82455" lon="0.7946">
        <ele>182.6</ele>
        <time>2026-05-02T09:48:35.000Z</time>
      </trkpt>
      <trkpt lat="44.82453" lon="0.79462">
        <ele>182.5</ele>
        <time>2026-05-02T09:48:36.000Z</time>
      </trkpt>
      <trkpt lat="44.82451" lon="0.79464">
        <ele>182.5</ele>
        <time>2026-05-02T09:48:37.000Z</time>
      </trkpt>
      <trkpt lat="44.82449" lon="0.79464">
        <ele>182.6</ele>
        <time>2026-05-02T09:48:38.000Z</time>
      </trkpt>
      <trkpt lat="44.82447" lon="0.79466">
        <ele>183.4</ele>
        <time>2026-05-02T09:48:39.000Z</time>
      </trkpt>
      <trkpt lat="44.82445" lon="0.79468">
        <ele>184.1</ele>
        <time>2026-05-02T09:48:40.000Z</time>
      </trkpt>
      <trkpt lat="44.82443" lon="0.7947">
        <ele>184</ele>
        <time>2026-05-02T09:48:41.000Z</time>
      </trkpt>
      <trkpt lat="44.82441" lon="0.79471">
        <ele>184.2</ele>
        <time>2026-05-02T09:48:42.000Z</time>
      </trkpt>
      <trkpt lat="44.82439" lon="0.79472">
        <ele>184.9</ele>
        <time>2026-05-02T09:48:43.000Z</time>
      </trkpt>
      <trkpt lat="44.82437" lon="0.79474">
        <ele>185.3</ele>
        <time>2026-05-02T09:48:44.000Z</time>
      </trkpt>
      <trkpt lat="44.82435" lon="0.79475">
        <ele>185.6</ele>
        <time>2026-05-02T09:48:45.000Z</time>
      </trkpt>
      <trkpt lat="44.82434" lon="0.79477">
        <ele>185.8</ele>
        <time>2026-05-02T09:48:46.000Z</time>
      </trkpt>
      <trkpt lat="44.82433" lon="0.79478">
        <ele>185.7</ele>
        <time>2026-05-02T09:48:47.000Z</time>
      </trkpt>
      <trkpt lat="44.82431" lon="0.79479">
        <ele>186.1</ele>
        <time>2026-05-02T09:48:48.000Z</time>
      </trkpt>
      <trkpt lat="44.82429" lon="0.7948">
        <ele>186.1</ele>
        <time>2026-05-02T09:48:49.000Z</time>
      </trkpt>
      <trkpt lat="44.82428" lon="0.79481">
        <ele>187.2</ele>
        <time>2026-05-02T09:48:50.000Z</time>
      </trkpt>
      <trkpt lat="44.82427" lon="0.79483">
        <ele>187.4</ele>
        <time>2026-05-02T09:48:51.000Z</time>
      </trkpt>
      <trkpt lat="44.82426" lon="0.79484">
        <ele>188</ele>
        <time>2026-05-02T09:48:52.000Z</time>
      </trkpt>
      <trkpt lat="44.82424" lon="0.79485">
        <ele>188.2</ele>
        <time>2026-05-02T09:48:53.000Z</time>
      </trkpt>
      <trkpt lat="44.82423" lon="0.79486">
        <ele>187.2</ele>
        <time>2026-05-02T09:48:54.000Z</time>
      </trkpt>
      <trkpt lat="44.82422" lon="0.79487">
        <ele>187.4</ele>
        <time>2026-05-02T09:48:55.000Z</time>
      </trkpt>
      <trkpt lat="44.82422" lon="0.79487">
        <ele>185.8</ele>
        <time>2026-05-02T09:48:56.000Z</time>
      </trkpt>
      <trkpt lat="44.82421" lon="0.79487">
        <ele>185.5</ele>
        <time>2026-05-02T09:48:57.000Z</time>
      </trkpt>
      <trkpt lat="44.8242" lon="0.79488">
        <ele>185.8</ele>
        <time>2026-05-02T09:48:58.000Z</time>
      </trkpt>
      <trkpt lat="44.82419" lon="0.79489">
        <ele>185.2</ele>
        <time>2026-05-02T09:48:59.000Z</time>
      </trkpt>
      <trkpt lat="44.82417" lon="0.79491">
        <ele>184.8</ele>
        <time>2026-05-02T09:49:00.000Z</time>
      </trkpt>
      <trkpt lat="44.82416" lon="0.79492">
        <ele>184.3</ele>
        <time>2026-05-02T09:49:01.000Z</time>
      </trkpt>
      <trkpt lat="44.82414" lon="0.79493">
        <ele>184.5</ele>
        <time>2026-05-02T09:49:02.000Z</time>
      </trkpt>
      <trkpt lat="44.82413" lon="0.79494">
        <ele>183.6</ele>
        <time>2026-05-02T09:49:03.000Z</time>
      </trkpt>
      <trkpt lat="44.82411" lon="0.79496">
        <ele>183.2</ele>
        <time>2026-05-02T09:49:04.000Z</time>
      </trkpt>
      <trkpt lat="44.8241" lon="0.79497">
        <ele>184</ele>
        <time>2026-05-02T09:49:05.000Z</time>
      </trkpt>
      <trkpt lat="44.82409" lon="0.79499">
        <ele>183.9</ele>
        <time>2026-05-02T09:49:06.000Z</time>
      </trkpt>
      <trkpt lat="44.82409" lon="0.79502">
        <ele>184.4</ele>
        <time>2026-05-02T09:49:07.000Z</time>
      </trkpt>
      <trkpt lat="44.8241" lon="0.79504">
        <ele>184</ele>
        <time>2026-05-02T09:49:08.000Z</time>
      </trkpt>
      <trkpt lat="44.82411" lon="0.79506">
        <ele>183.7</ele>
        <time>2026-05-02T09:49:09.000Z</time>
      </trkpt>
      <trkpt lat="44.82412" lon="0.79508">
        <ele>183.7</ele>
        <time>2026-05-02T09:49:10.000Z</time>
      </trkpt>
      <trkpt lat="44.82413" lon="0.79509">
        <ele>183</ele>
        <time>2026-05-02T09:49:11.000Z</time>
      </trkpt>
      <trkpt lat="44.82413" lon="0.79511">
        <ele>182.8</ele>
        <time>2026-05-02T09:49:12.000Z</time>
      </trkpt>
      <trkpt lat="44.82414" lon="0.79512">
        <ele>182.8</ele>
        <time>2026-05-02T09:49:13.000Z</time>
      </trkpt>
      <trkpt lat="44.82414" lon="0.79515">
        <ele>182.8</ele>
        <time>2026-05-02T09:49:14.000Z</time>
      </trkpt>
      <trkpt lat="44.82416" lon="0.79516">
        <ele>182.8</ele>
        <time>2026-05-02T09:49:15.000Z</time>
      </trkpt>
      <trkpt lat="44.82416" lon="0.79519">
        <ele>183.2</ele>
        <time>2026-05-02T09:49:16.000Z</time>
      </trkpt>
      <trkpt lat="44.82417" lon="0.79521">
        <ele>183.3</ele>
        <time>2026-05-02T09:49:17.000Z</time>
      </trkpt>
      <trkpt lat="44.82418" lon="0.79523">
        <ele>183.5</ele>
        <time>2026-05-02T09:49:18.000Z</time>
      </trkpt>
      <trkpt lat="44.82419" lon="0.79525">
        <ele>183.9</ele>
        <time>2026-05-02T09:49:19.000Z</time>
      </trkpt>
      <trkpt lat="44.8242" lon="0.79528">
        <ele>183.6</ele>
        <time>2026-05-02T09:49:20.000Z</time>
      </trkpt>
      <trkpt lat="44.82421" lon="0.7953">
        <ele>183.6</ele>
        <time>2026-05-02T09:49:21.000Z</time>
      </trkpt>
      <trkpt lat="44.82422" lon="0.79532">
        <ele>183.8</ele>
        <time>2026-05-02T09:49:22.000Z</time>
      </trkpt>
      <trkpt lat="44.82423" lon="0.79534">
        <ele>184</ele>
        <time>2026-05-02T09:49:23.000Z</time>
      </trkpt>
      <trkpt lat="44.82424" lon="0.79536">
        <ele>185.2</ele>
        <time>2026-05-02T09:49:24.000Z</time>
      </trkpt>
      <trkpt lat="44.82425" lon="0.79537">
        <ele>185.2</ele>
        <time>2026-05-02T09:49:25.000Z</time>
      </trkpt>
      <trkpt lat="44.82426" lon="0.79539">
        <ele>185.5</ele>
        <time>2026-05-02T09:49:26.000Z</time>
      </trkpt>
      <trkpt lat="44.82427" lon="0.79541">
        <ele>186</ele>
        <time>2026-05-02T09:49:27.000Z</time>
      </trkpt>
      <trkpt lat="44.82428" lon="0.79542">
        <ele>185.7</ele>
        <time>2026-05-02T09:49:28.000Z</time>
      </trkpt>
      <trkpt lat="44.82429" lon="0.79543">
        <ele>185.9</ele>
        <time>2026-05-02T09:49:29.000Z</time>
      </trkpt>
      <trkpt lat="44.8243" lon="0.79545">
        <ele>185.8</ele>
        <time>2026-05-02T09:49:30.000Z</time>
      </trkpt>
      <trkpt lat="44.82431" lon="0.79547">
        <ele>184.7</ele>
        <time>2026-05-02T09:49:31.000Z</time>
      </trkpt>
      <trkpt lat="44.82433" lon="0.79549">
        <ele>185.1</ele>
        <time>2026-05-02T09:49:32.000Z</time>
      </trkpt>
      <trkpt lat="44.82434" lon="0.79551">
        <ele>185.5</ele>
        <time>2026-05-02T09:49:33.000Z</time>
      </trkpt>
      <trkpt lat="44.82435" lon="0.79553">
        <ele>186.4</ele>
        <time>2026-05-02T09:49:34.000Z</time>
      </trkpt>
      <trkpt lat="44.82437" lon="0.79555">
        <ele>185.3</ele>
        <time>2026-05-02T09:49:35.000Z</time>
      </trkpt>
      <trkpt lat="44.82439" lon="0.79557">
        <ele>185</ele>
        <time>2026-05-02T09:49:36.000Z</time>
      </trkpt>
      <trkpt lat="44.8244" lon="0.79558">
        <ele>185.5</ele>
        <time>2026-05-02T09:49:37.000Z</time>
      </trkpt>
      <trkpt lat="44.82442" lon="0.7956">
        <ele>185.5</ele>
        <time>2026-05-02T09:49:38.000Z</time>
      </trkpt>
      <trkpt lat="44.82443" lon="0.79563">
        <ele>185.5</ele>
        <time>2026-05-02T09:49:39.000Z</time>
      </trkpt>
      <trkpt lat="44.82444" lon="0.79564">
        <ele>188.1</ele>
        <time>2026-05-02T09:49:40.000Z</time>
      </trkpt>
      <trkpt lat="44.82445" lon="0.79566">
        <ele>189.4</ele>
        <time>2026-05-02T09:49:41.000Z</time>
      </trkpt>
      <trkpt lat="44.82446" lon="0.79567">
        <ele>190.2</ele>
        <time>2026-05-02T09:49:42.000Z</time>
      </trkpt>
      <trkpt lat="44.82444" lon="0.79566">
        <ele>190.1</ele>
        <time>2026-05-02T09:49:43.000Z</time>
      </trkpt>
      <trkpt lat="44.82445" lon="0.79567">
        <ele>190.4</ele>
        <time>2026-05-02T09:49:44.000Z</time>
      </trkpt>
      <trkpt lat="44.82446" lon="0.79567">
        <ele>191.1</ele>
        <time>2026-05-02T09:49:45.000Z</time>
      </trkpt>
      <trkpt lat="44.82447" lon="0.79568">
        <ele>191.4</ele>
        <time>2026-05-02T09:49:46.000Z</time>
      </trkpt>
      <trkpt lat="44.82447" lon="0.79568">
        <ele>191.9</ele>
        <time>2026-05-02T09:49:47.000Z</time>
      </trkpt>
      <trkpt lat="44.82446" lon="0.79568">
        <ele>192</ele>
        <time>2026-05-02T09:49:48.000Z</time>
      </trkpt>
      <trkpt lat="44.82446" lon="0.79568">
        <ele>192</ele>
        <time>2026-05-02T09:49:49.000Z</time>
      </trkpt>
      <trkpt lat="44.82446" lon="0.79568">
        <ele>192</ele>
        <time>2026-05-02T09:49:50.000Z</time>
      </trkpt>
      <trkpt lat="44.82447" lon="0.79568">
        <ele>192.1</ele>
        <time>2026-05-02T09:49:51.000Z</time>
      </trkpt>
      <trkpt lat="44.82447" lon="0.7957">
        <ele>192.5</ele>
        <time>2026-05-02T09:49:52.000Z</time>
      </trkpt>
      <trkpt lat="44.82447" lon="0.7957">
        <ele>191.5</ele>
        <time>2026-05-02T09:49:53.000Z</time>
      </trkpt>
      <trkpt lat="44.82447" lon="0.7957">
        <ele>191.5</ele>
        <time>2026-05-02T09:49:54.000Z</time>
      </trkpt>
      <trkpt lat="44.82447" lon="0.79572">
        <ele>191.4</ele>
        <time>2026-05-02T09:49:55.000Z</time>
      </trkpt>
      <trkpt lat="44.82447" lon="0.79572">
        <ele>191.6</ele>
        <time>2026-05-02T09:49:56.000Z</time>
      </trkpt>
      <trkpt lat="44.82448" lon="0.79575">
        <ele>193.2</ele>
        <time>2026-05-02T09:49:57.000Z</time>
      </trkpt>
      <trkpt lat="44.82449" lon="0.79576">
        <ele>192.8</ele>
        <time>2026-05-02T09:49:58.000Z</time>
      </trkpt>
      <trkpt lat="44.82449" lon="0.79578">
        <ele>193.4</ele>
        <time>2026-05-02T09:49:59.000Z</time>
      </trkpt>
      <trkpt lat="44.8245" lon="0.79579">
        <ele>193.4</ele>
        <time>2026-05-02T09:50:00.000Z</time>
      </trkpt>
      <trkpt lat="44.82451" lon="0.79581">
        <ele>193.3</ele>
        <time>2026-05-02T09:50:01.000Z</time>
      </trkpt>
      <trkpt lat="44.82452" lon="0.79582">
        <ele>193.2</ele>
        <time>2026-05-02T09:50:02.000Z</time>
      </trkpt>
      <trkpt lat="44.82452" lon="0.79584">
        <ele>193.1</ele>
        <time>2026-05-02T09:50:03.000Z</time>
      </trkpt>
      <trkpt lat="44.82453" lon="0.79585">
        <ele>193.5</ele>
        <time>2026-05-02T09:50:04.000Z</time>
      </trkpt>
      <trkpt lat="44.82454" lon="0.79587">
        <ele>193.6</ele>
        <time>2026-05-02T09:50:05.000Z</time>
      </trkpt>
      <trkpt lat="44.82455" lon="0.79588">
        <ele>193.3</ele>
        <time>2026-05-02T09:50:06.000Z</time>
      </trkpt>
      <trkpt lat="44.82456" lon="0.79589">
        <ele>193</ele>
        <time>2026-05-02T09:50:07.000Z</time>
      </trkpt>
      <trkpt lat="44.82457" lon="0.79591">
        <ele>193.3</ele>
        <time>2026-05-02T09:50:08.000Z</time>
      </trkpt>
      <trkpt lat="44.82458" lon="0.79592">
        <ele>193.4</ele>
        <time>2026-05-02T09:50:09.000Z</time>
      </trkpt>
      <trkpt lat="44.82458" lon="0.79594">
        <ele>194.5</ele>
        <time>2026-05-02T09:50:10.000Z</time>
      </trkpt>
      <trkpt lat="44.82459" lon="0.79595">
        <ele>195.2</ele>
        <time>2026-05-02T09:50:11.000Z</time>
      </trkpt>
      <trkpt lat="44.8246" lon="0.79595">
        <ele>195.4</ele>
        <time>2026-05-02T09:50:12.000Z</time>
      </trkpt>
      <trkpt lat="44.82461" lon="0.79597">
        <ele>196</ele>
        <time>2026-05-02T09:50:13.000Z</time>
      </trkpt>
      <trkpt lat="44.82462" lon="0.79598">
        <ele>196.4</ele>
        <time>2026-05-02T09:50:14.000Z</time>
      </trkpt>
      <trkpt lat="44.82463" lon="0.79599">
        <ele>196.8</ele>
        <time>2026-05-02T09:50:15.000Z</time>
      </trkpt>
      <trkpt lat="44.82464" lon="0.79599">
        <ele>195.7</ele>
        <time>2026-05-02T09:50:16.000Z</time>
      </trkpt>
      <trkpt lat="44.82465" lon="0.79599">
        <ele>196.9</ele>
        <time>2026-05-02T09:50:17.000Z</time>
      </trkpt>
      <trkpt lat="44.82467" lon="0.79599">
        <ele>197.4</ele>
        <time>2026-05-02T09:50:18.000Z</time>
      </trkpt>
      <trkpt lat="44.82468" lon="0.79599">
        <ele>197.8</ele>
        <time>2026-05-02T09:50:19.000Z</time>
      </trkpt>
      <trkpt lat="44.82469" lon="0.79601">
        <ele>197.7</ele>
        <time>2026-05-02T09:50:20.000Z</time>
      </trkpt>
      <trkpt lat="44.8247" lon="0.79602">
        <ele>198.4</ele>
        <time>2026-05-02T09:50:21.000Z</time>
      </trkpt>
      <trkpt lat="44.82471" lon="0.79603">
        <ele>198.3</ele>
        <time>2026-05-02T09:50:22.000Z</time>
      </trkpt>
      <trkpt lat="44.82472" lon="0.79603">
        <ele>200.1</ele>
        <time>2026-05-02T09:50:23.000Z</time>
      </trkpt>
      <trkpt lat="44.82474" lon="0.79604">
        <ele>200.2</ele>
        <time>2026-05-02T09:50:24.000Z</time>
      </trkpt>
      <trkpt lat="44.82474" lon="0.79604">
        <ele>201</ele>
        <time>2026-05-02T09:50:25.000Z</time>
      </trkpt>
      <trkpt lat="44.82475" lon="0.79605">
        <ele>201.7</ele>
        <time>2026-05-02T09:50:26.000Z</time>
      </trkpt>
      <trkpt lat="44.82476" lon="0.79606">
        <ele>202</ele>
        <time>2026-05-02T09:50:27.000Z</time>
      </trkpt>
      <trkpt lat="44.82477" lon="0.79607">
        <ele>202.2</ele>
        <time>2026-05-02T09:50:28.000Z</time>
      </trkpt>
      <trkpt lat="44.82478" lon="0.79609">
        <ele>203</ele>
        <time>2026-05-02T09:50:29.000Z</time>
      </trkpt>
      <trkpt lat="44.82479" lon="0.7961">
        <ele>203.2</ele>
        <time>2026-05-02T09:50:30.000Z</time>
      </trkpt>
      <trkpt lat="44.8248" lon="0.79611">
        <ele>203.8</ele>
        <time>2026-05-02T09:50:31.000Z</time>
      </trkpt>
      <trkpt lat="44.82481" lon="0.79612">
        <ele>204.6</ele>
        <time>2026-05-02T09:50:32.000Z</time>
      </trkpt>
      <trkpt lat="44.82482" lon="0.79614">
        <ele>204.6</ele>
        <time>2026-05-02T09:50:33.000Z</time>
      </trkpt>
      <trkpt lat="44.82483" lon="0.79615">
        <ele>205.5</ele>
        <time>2026-05-02T09:50:34.000Z</time>
      </trkpt>
      <trkpt lat="44.82482" lon="0.79613">
        <ele>206</ele>
        <time>2026-05-02T09:50:35.000Z</time>
      </trkpt>
      <trkpt lat="44.82483" lon="0.79615">
        <ele>206.1</ele>
        <time>2026-05-02T09:50:36.000Z</time>
      </trkpt>
      <trkpt lat="44.82484" lon="0.79616">
        <ele>205.8</ele>
        <time>2026-05-02T09:50:37.000Z</time>
      </trkpt>
      <trkpt lat="44.82485" lon="0.79617">
        <ele>206.7</ele>
        <time>2026-05-02T09:50:38.000Z</time>
      </trkpt>
      <trkpt lat="44.82486" lon="0.79618">
        <ele>207.8</ele>
        <time>2026-05-02T09:50:39.000Z</time>
      </trkpt>
      <trkpt lat="44.82487" lon="0.79619">
        <ele>208.3</ele>
        <time>2026-05-02T09:50:40.000Z</time>
      </trkpt>
      <trkpt lat="44.82487" lon="0.7962">
        <ele>208.4</ele>
        <time>2026-05-02T09:50:41.000Z</time>
      </trkpt>
      <trkpt lat="44.82488" lon="0.79623">
        <ele>208.5</ele>
        <time>2026-05-02T09:50:42.000Z</time>
      </trkpt>
      <trkpt lat="44.82489" lon="0.79625">
        <ele>207.7</ele>
        <time>2026-05-02T09:50:43.000Z</time>
      </trkpt>
      <trkpt lat="44.8249" lon="0.79627">
        <ele>207.1</ele>
        <time>2026-05-02T09:50:44.000Z</time>
      </trkpt>
      <trkpt lat="44.8249" lon="0.79629">
        <ele>207</ele>
        <time>2026-05-02T09:50:45.000Z</time>
      </trkpt>
      <trkpt lat="44.82491" lon="0.79631">
        <ele>206.4</ele>
        <time>2026-05-02T09:50:46.000Z</time>
      </trkpt>
      <trkpt lat="44.82491" lon="0.79632">
        <ele>206.6</ele>
        <time>2026-05-02T09:50:47.000Z</time>
      </trkpt>
      <trkpt lat="44.82492" lon="0.79634">
        <ele>206.6</ele>
        <time>2026-05-02T09:50:48.000Z</time>
      </trkpt>
      <trkpt lat="44.82492" lon="0.79636">
        <ele>206.9</ele>
        <time>2026-05-02T09:50:49.000Z</time>
      </trkpt>
      <trkpt lat="44.82493" lon="0.79639">
        <ele>207.1</ele>
        <time>2026-05-02T09:50:50.000Z</time>
      </trkpt>
      <trkpt lat="44.82494" lon="0.7964">
        <ele>207.3</ele>
        <time>2026-05-02T09:50:51.000Z</time>
      </trkpt>
      <trkpt lat="44.82494" lon="0.79642">
        <ele>206.7</ele>
        <time>2026-05-02T09:50:52.000Z</time>
      </trkpt>
      <trkpt lat="44.82495" lon="0.79644">
        <ele>208.1</ele>
        <time>2026-05-02T09:50:53.000Z</time>
      </trkpt>
      <trkpt lat="44.82495" lon="0.79647">
        <ele>207.6</ele>
        <time>2026-05-02T09:50:54.000Z</time>
      </trkpt>
      <trkpt lat="44.82495" lon="0.79651">
        <ele>207.4</ele>
        <time>2026-05-02T09:50:55.000Z</time>
      </trkpt>
      <trkpt lat="44.82496" lon="0.79653">
        <ele>207.1</ele>
        <time>2026-05-02T09:50:56.000Z</time>
      </trkpt>
      <trkpt lat="44.82496" lon="0.79656">
        <ele>207</ele>
        <time>2026-05-02T09:50:57.000Z</time>
      </trkpt>
      <trkpt lat="44.82496" lon="0.79658">
        <ele>206.7</ele>
        <time>2026-05-02T09:50:58.000Z</time>
      </trkpt>
      <trkpt lat="44.82496" lon="0.79661">
        <ele>207</ele>
        <time>2026-05-02T09:50:59.000Z</time>
      </trkpt>
      <trkpt lat="44.82496" lon="0.79663">
        <ele>207.6</ele>
        <time>2026-05-02T09:51:00.000Z</time>
      </trkpt>
      <trkpt lat="44.82497" lon="0.79666">
        <ele>207.5</ele>
        <time>2026-05-02T09:51:01.000Z</time>
      </trkpt>
      <trkpt lat="44.82496" lon="0.79669">
        <ele>207.6</ele>
        <time>2026-05-02T09:51:02.000Z</time>
      </trkpt>
      <trkpt lat="44.82497" lon="0.79671">
        <ele>207.8</ele>
        <time>2026-05-02T09:51:03.000Z</time>
      </trkpt>
      <trkpt lat="44.82497" lon="0.79673">
        <ele>207.3</ele>
        <time>2026-05-02T09:51:04.000Z</time>
      </trkpt>
      <trkpt lat="44.82497" lon="0.79676">
        <ele>207.8</ele>
        <time>2026-05-02T09:51:05.000Z</time>
      </trkpt>
      <trkpt lat="44.82497" lon="0.79679">
        <ele>207.7</ele>
        <time>2026-05-02T09:51:06.000Z</time>
      </trkpt>
      <trkpt lat="44.82498" lon="0.79683">
        <ele>207.5</ele>
        <time>2026-05-02T09:51:07.000Z</time>
      </trkpt>
      <trkpt lat="44.82498" lon="0.79686">
        <ele>208.6</ele>
        <time>2026-05-02T09:51:08.000Z</time>
      </trkpt>
      <trkpt lat="44.82499" lon="0.79689">
        <ele>208.6</ele>
        <time>2026-05-02T09:51:09.000Z</time>
      </trkpt>
      <trkpt lat="44.825" lon="0.79691">
        <ele>208.9</ele>
        <time>2026-05-02T09:51:10.000Z</time>
      </trkpt>
      <trkpt lat="44.82499" lon="0.79695">
        <ele>208.8</ele>
        <time>2026-05-02T09:51:11.000Z</time>
      </trkpt>
      <trkpt lat="44.82499" lon="0.79697">
        <ele>208.2</ele>
        <time>2026-05-02T09:51:12.000Z</time>
      </trkpt>
      <trkpt lat="44.82499" lon="0.797">
        <ele>208.1</ele>
        <time>2026-05-02T09:51:13.000Z</time>
      </trkpt>
      <trkpt lat="44.825" lon="0.79702">
        <ele>208.2</ele>
        <time>2026-05-02T09:51:14.000Z</time>
      </trkpt>
      <trkpt lat="44.825" lon="0.79705">
        <ele>208.3</ele>
        <time>2026-05-02T09:51:15.000Z</time>
      </trkpt>
      <trkpt lat="44.825" lon="0.79707">
        <ele>208.2</ele>
        <time>2026-05-02T09:51:16.000Z</time>
      </trkpt>
      <trkpt lat="44.825" lon="0.7971">
        <ele>208.8</ele>
        <time>2026-05-02T09:51:17.000Z</time>
      </trkpt>
      <trkpt lat="44.825" lon="0.79712">
        <ele>208.8</ele>
        <time>2026-05-02T09:51:18.000Z</time>
      </trkpt>
      <trkpt lat="44.825" lon="0.79715">
        <ele>208.7</ele>
        <time>2026-05-02T09:51:19.000Z</time>
      </trkpt>
      <trkpt lat="44.825" lon="0.79717">
        <ele>209</ele>
        <time>2026-05-02T09:51:20.000Z</time>
      </trkpt>
      <trkpt lat="44.825" lon="0.79719">
        <ele>208.6</ele>
        <time>2026-05-02T09:51:21.000Z</time>
      </trkpt>
      <trkpt lat="44.82501" lon="0.79722">
        <ele>208.7</ele>
        <time>2026-05-02T09:51:22.000Z</time>
      </trkpt>
      <trkpt lat="44.82501" lon="0.79724">
        <ele>208.9</ele>
        <time>2026-05-02T09:51:23.000Z</time>
      </trkpt>
      <trkpt lat="44.82501" lon="0.79727">
        <ele>209.5</ele>
        <time>2026-05-02T09:51:24.000Z</time>
      </trkpt>
      <trkpt lat="44.82501" lon="0.79729">
        <ele>209.9</ele>
        <time>2026-05-02T09:51:25.000Z</time>
      </trkpt>
      <trkpt lat="44.82501" lon="0.79731">
        <ele>210.2</ele>
        <time>2026-05-02T09:51:26.000Z</time>
      </trkpt>
      <trkpt lat="44.82501" lon="0.79733">
        <ele>210.9</ele>
        <time>2026-05-02T09:51:27.000Z</time>
      </trkpt>
      <trkpt lat="44.82501" lon="0.79735">
        <ele>211.2</ele>
        <time>2026-05-02T09:51:28.000Z</time>
      </trkpt>
      <trkpt lat="44.82501" lon="0.79736">
        <ele>210.8</ele>
        <time>2026-05-02T09:51:29.000Z</time>
      </trkpt>
      <trkpt lat="44.82501" lon="0.79739">
        <ele>210.8</ele>
        <time>2026-05-02T09:51:30.000Z</time>
      </trkpt>
      <trkpt lat="44.82501" lon="0.79741">
        <ele>210.7</ele>
        <time>2026-05-02T09:51:31.000Z</time>
      </trkpt>
      <trkpt lat="44.825" lon="0.79744">
        <ele>209.3</ele>
        <time>2026-05-02T09:51:32.000Z</time>
      </trkpt>
      <trkpt lat="44.82499" lon="0.79747">
        <ele>208.7</ele>
        <time>2026-05-02T09:51:33.000Z</time>
      </trkpt>
      <trkpt lat="44.82499" lon="0.79749">
        <ele>208.6</ele>
        <time>2026-05-02T09:51:34.000Z</time>
      </trkpt>
      <trkpt lat="44.82498" lon="0.79751">
        <ele>208.9</ele>
        <time>2026-05-02T09:51:35.000Z</time>
      </trkpt>
      <trkpt lat="44.82498" lon="0.79754">
        <ele>207.6</ele>
        <time>2026-05-02T09:51:36.000Z</time>
      </trkpt>
      <trkpt lat="44.82498" lon="0.79755">
        <ele>207.5</ele>
        <time>2026-05-02T09:51:37.000Z</time>
      </trkpt>
      <trkpt lat="44.82498" lon="0.79758">
        <ele>207.4</ele>
        <time>2026-05-02T09:51:38.000Z</time>
      </trkpt>
      <trkpt lat="44.82497" lon="0.7976">
        <ele>208.2</ele>
        <time>2026-05-02T09:51:39.000Z</time>
      </trkpt>
      <trkpt lat="44.82497" lon="0.79762">
        <ele>208.9</ele>
        <time>2026-05-02T09:51:40.000Z</time>
      </trkpt>
      <trkpt lat="44.82496" lon="0.79764">
        <ele>208.7</ele>
        <time>2026-05-02T09:51:41.000Z</time>
      </trkpt>
      <trkpt lat="44.82495" lon="0.79766">
        <ele>208.6</ele>
        <time>2026-05-02T09:51:42.000Z</time>
      </trkpt>
      <trkpt lat="44.82495" lon="0.79768">
        <ele>207.7</ele>
        <time>2026-05-02T09:51:43.000Z</time>
      </trkpt>
      <trkpt lat="44.82495" lon="0.79771">
        <ele>207.6</ele>
        <time>2026-05-02T09:51:44.000Z</time>
      </trkpt>
      <trkpt lat="44.82494" lon="0.79773">
        <ele>207.2</ele>
        <time>2026-05-02T09:51:45.000Z</time>
      </trkpt>
      <trkpt lat="44.82494" lon="0.79775">
        <ele>207.1</ele>
        <time>2026-05-02T09:51:46.000Z</time>
      </trkpt>
      <trkpt lat="44.82494" lon="0.79777">
        <ele>207</ele>
        <time>2026-05-02T09:51:47.000Z</time>
      </trkpt>
      <trkpt lat="44.82495" lon="0.79779">
        <ele>208.2</ele>
        <time>2026-05-02T09:51:48.000Z</time>
      </trkpt>
      <trkpt lat="44.82495" lon="0.79782">
        <ele>208.4</ele>
        <time>2026-05-02T09:51:49.000Z</time>
      </trkpt>
      <trkpt lat="44.82494" lon="0.79784">
        <ele>208.8</ele>
        <time>2026-05-02T09:51:50.000Z</time>
      </trkpt>
      <trkpt lat="44.82494" lon="0.79786">
        <ele>208.9</ele>
        <time>2026-05-02T09:51:51.000Z</time>
      </trkpt>
      <trkpt lat="44.82494" lon="0.79787">
        <ele>208.3</ele>
        <time>2026-05-02T09:51:52.000Z</time>
      </trkpt>
      <trkpt lat="44.82494" lon="0.79789">
        <ele>208.5</ele>
        <time>2026-05-02T09:51:53.000Z</time>
      </trkpt>
      <trkpt lat="44.82493" lon="0.79792">
        <ele>208.5</ele>
        <time>2026-05-02T09:51:54.000Z</time>
      </trkpt>
      <trkpt lat="44.82493" lon="0.79794">
        <ele>208.4</ele>
        <time>2026-05-02T09:51:55.000Z</time>
      </trkpt>
      <trkpt lat="44.82492" lon="0.79797">
        <ele>207.8</ele>
        <time>2026-05-02T09:51:56.000Z</time>
      </trkpt>
      <trkpt lat="44.82493" lon="0.798">
        <ele>207.7</ele>
        <time>2026-05-02T09:51:57.000Z</time>
      </trkpt>
      <trkpt lat="44.82493" lon="0.79803">
        <ele>207.7</ele>
        <time>2026-05-02T09:51:58.000Z</time>
      </trkpt>
      <trkpt lat="44.82493" lon="0.79805">
        <ele>207.7</ele>
        <time>2026-05-02T09:51:59.000Z</time>
      </trkpt>
      <trkpt lat="44.82493" lon="0.79807">
        <ele>208.1</ele>
        <time>2026-05-02T09:52:00.000Z</time>
      </trkpt>
      <trkpt lat="44.82494" lon="0.79809">
        <ele>208.7</ele>
        <time>2026-05-02T09:52:01.000Z</time>
      </trkpt>
      <trkpt lat="44.82494" lon="0.79811">
        <ele>209.4</ele>
        <time>2026-05-02T09:52:02.000Z</time>
      </trkpt>
      <trkpt lat="44.82494" lon="0.79813">
        <ele>210</ele>
        <time>2026-05-02T09:52:03.000Z</time>
      </trkpt>
      <trkpt lat="44.82495" lon="0.79815">
        <ele>210.4</ele>
        <time>2026-05-02T09:52:04.000Z</time>
      </trkpt>
      <trkpt lat="44.82495" lon="0.79818">
        <ele>210.1</ele>
        <time>2026-05-02T09:52:05.000Z</time>
      </trkpt>
      <trkpt lat="44.82495" lon="0.7982">
        <ele>210.3</ele>
        <time>2026-05-02T09:52:06.000Z</time>
      </trkpt>
      <trkpt lat="44.82494" lon="0.79823">
        <ele>209.9</ele>
        <time>2026-05-02T09:52:07.000Z</time>
      </trkpt>
      <trkpt lat="44.82493" lon="0.79826">
        <ele>208.6</ele>
        <time>2026-05-02T09:52:08.000Z</time>
      </trkpt>
      <trkpt lat="44.82492" lon="0.79829">
        <ele>207.6</ele>
        <time>2026-05-02T09:52:09.000Z</time>
      </trkpt>
      <trkpt lat="44.82492" lon="0.79832">
        <ele>206.7</ele>
        <time>2026-05-02T09:52:10.000Z</time>
      </trkpt>
      <trkpt lat="44.82491" lon="0.79835">
        <ele>206.3</ele>
        <time>2026-05-02T09:52:11.000Z</time>
      </trkpt>
      <trkpt lat="44.82491" lon="0.79837">
        <ele>205.9</ele>
        <time>2026-05-02T09:52:12.000Z</time>
      </trkpt>
      <trkpt lat="44.82491" lon="0.79839">
        <ele>205.5</ele>
        <time>2026-05-02T09:52:13.000Z</time>
      </trkpt>
      <trkpt lat="44.82491" lon="0.7984">
        <ele>205.4</ele>
        <time>2026-05-02T09:52:14.000Z</time>
      </trkpt>
      <trkpt lat="44.82491" lon="0.79842">
        <ele>205.6</ele>
        <time>2026-05-02T09:52:15.000Z</time>
      </trkpt>
      <trkpt lat="44.82491" lon="0.79842">
        <ele>205.9</ele>
        <time>2026-05-02T09:52:16.000Z</time>
      </trkpt>
      <trkpt lat="44.82491" lon="0.79842">
        <ele>206.3</ele>
        <time>2026-05-02T09:52:17.000Z</time>
      </trkpt>
      <trkpt lat="44.8249" lon="0.79843">
        <ele>206.5</ele>
        <time>2026-05-02T09:52:18.000Z</time>
      </trkpt>
      <trkpt lat="44.8249" lon="0.79843">
        <ele>206.5</ele>
        <time>2026-05-02T09:52:19.000Z</time>
      </trkpt>
      <trkpt lat="44.8249" lon="0.79843">
        <ele>206.5</ele>
        <time>2026-05-02T09:52:20.000Z</time>
      </trkpt>
      <trkpt lat="44.8249" lon="0.79843">
        <ele>206.1</ele>
        <time>2026-05-02T09:52:21.000Z</time>
      </trkpt>
      <trkpt lat="44.82489" lon="0.79843">
        <ele>206.1</ele>
        <time>2026-05-02T09:52:22.000Z</time>
      </trkpt>
      <trkpt lat="44.82488" lon="0.79842">
        <ele>205.9</ele>
        <time>2026-05-02T09:52:23.000Z</time>
      </trkpt>
      <trkpt lat="44.82486" lon="0.79842">
        <ele>206.1</ele>
        <time>2026-05-02T09:52:24.000Z</time>
      </trkpt>
      <trkpt lat="44.82484" lon="0.79842">
        <ele>206.5</ele>
        <time>2026-05-02T09:52:25.000Z</time>
      </trkpt>
      <trkpt lat="44.82483" lon="0.79841">
        <ele>206.7</ele>
        <time>2026-05-02T09:52:26.000Z</time>
      </trkpt>
      <trkpt lat="44.82481" lon="0.79841">
        <ele>207.1</ele>
        <time>2026-05-02T09:52:27.000Z</time>
      </trkpt>
      <trkpt lat="44.82479" lon="0.79841">
        <ele>207.4</ele>
        <time>2026-05-02T09:52:28.000Z</time>
      </trkpt>
      <trkpt lat="44.82477" lon="0.7984">
        <ele>207.6</ele>
        <time>2026-05-02T09:52:29.000Z</time>
      </trkpt>
      <trkpt lat="44.82476" lon="0.7984">
        <ele>207.5</ele>
        <time>2026-05-02T09:52:30.000Z</time>
      </trkpt>
      <trkpt lat="44.82474" lon="0.7984">
        <ele>207.9</ele>
        <time>2026-05-02T09:52:31.000Z</time>
      </trkpt>
      <trkpt lat="44.82472" lon="0.79839">
        <ele>208.2</ele>
        <time>2026-05-02T09:52:32.000Z</time>
      </trkpt>
      <trkpt lat="44.8247" lon="0.79839">
        <ele>208.4</ele>
        <time>2026-05-02T09:52:33.000Z</time>
      </trkpt>
      <trkpt lat="44.82468" lon="0.79838">
        <ele>208.6</ele>
        <time>2026-05-02T09:52:34.000Z</time>
      </trkpt>
      <trkpt lat="44.82466" lon="0.79838">
        <ele>209</ele>
        <time>2026-05-02T09:52:35.000Z</time>
      </trkpt>
      <trkpt lat="44.82464" lon="0.79838">
        <ele>209.1</ele>
        <time>2026-05-02T09:52:36.000Z</time>
      </trkpt>
      <trkpt lat="44.82463" lon="0.79838">
        <ele>209.3</ele>
        <time>2026-05-02T09:52:37.000Z</time>
      </trkpt>
      <trkpt lat="44.82461" lon="0.79837">
        <ele>209.6</ele>
        <time>2026-05-02T09:52:38.000Z</time>
      </trkpt>
      <trkpt lat="44.8246" lon="0.79837">
        <ele>210.1</ele>
        <time>2026-05-02T09:52:39.000Z</time>
      </trkpt>
      <trkpt lat="44.82459" lon="0.79834">
        <ele>209.3</ele>
        <time>2026-05-02T09:52:40.000Z</time>
      </trkpt>
      <trkpt lat="44.82457" lon="0.79833">
        <ele>209.1</ele>
        <time>2026-05-02T09:52:41.000Z</time>
      </trkpt>
      <trkpt lat="44.82455" lon="0.79834">
        <ele>209.9</ele>
        <time>2026-05-02T09:52:42.000Z</time>
      </trkpt>
      <trkpt lat="44.82453" lon="0.79834">
        <ele>210</ele>
        <time>2026-05-02T09:52:43.000Z</time>
      </trkpt>
      <trkpt lat="44.82451" lon="0.79834">
        <ele>209.9</ele>
        <time>2026-05-02T09:52:44.000Z</time>
      </trkpt>
      <trkpt lat="44.8245" lon="0.79834">
        <ele>209.9</ele>
        <time>2026-05-02T09:52:45.000Z</time>
      </trkpt>
      <trkpt lat="44.82448" lon="0.79834">
        <ele>209.9</ele>
        <time>2026-05-02T09:52:46.000Z</time>
      </trkpt>
      <trkpt lat="44.82446" lon="0.79833">
        <ele>210</ele>
        <time>2026-05-02T09:52:47.000Z</time>
      </trkpt>
      <trkpt lat="44.82444" lon="0.79833">
        <ele>210.3</ele>
        <time>2026-05-02T09:52:48.000Z</time>
      </trkpt>
      <trkpt lat="44.82442" lon="0.79833">
        <ele>210.5</ele>
        <time>2026-05-02T09:52:49.000Z</time>
      </trkpt>
      <trkpt lat="44.82441" lon="0.79833">
        <ele>210.6</ele>
        <time>2026-05-02T09:52:50.000Z</time>
      </trkpt>
      <trkpt lat="44.82439" lon="0.79832">
        <ele>210.7</ele>
        <time>2026-05-02T09:52:51.000Z</time>
      </trkpt>
      <trkpt lat="44.82438" lon="0.79833">
        <ele>210.7</ele>
        <time>2026-05-02T09:52:52.000Z</time>
      </trkpt>
      <trkpt lat="44.82436" lon="0.79833">
        <ele>210.7</ele>
        <time>2026-05-02T09:52:53.000Z</time>
      </trkpt>
      <trkpt lat="44.82435" lon="0.79833">
        <ele>211</ele>
        <time>2026-05-02T09:52:54.000Z</time>
      </trkpt>
      <trkpt lat="44.82433" lon="0.79833">
        <ele>211.1</ele>
        <time>2026-05-02T09:52:55.000Z</time>
      </trkpt>
      <trkpt lat="44.82432" lon="0.79833">
        <ele>211.3</ele>
        <time>2026-05-02T09:52:56.000Z</time>
      </trkpt>
      <trkpt lat="44.8243" lon="0.79833">
        <ele>211.3</ele>
        <time>2026-05-02T09:52:57.000Z</time>
      </trkpt>
      <trkpt lat="44.82429" lon="0.79833">
        <ele>211.7</ele>
        <time>2026-05-02T09:52:58.000Z</time>
      </trkpt>
      <trkpt lat="44.82427" lon="0.79833">
        <ele>211.7</ele>
        <time>2026-05-02T09:52:59.000Z</time>
      </trkpt>
      <trkpt lat="44.82426" lon="0.79834">
        <ele>211.6</ele>
        <time>2026-05-02T09:53:00.000Z</time>
      </trkpt>
      <trkpt lat="44.82424" lon="0.79834">
        <ele>212</ele>
        <time>2026-05-02T09:53:01.000Z</time>
      </trkpt>
      <trkpt lat="44.82423" lon="0.79834">
        <ele>212</ele>
        <time>2026-05-02T09:53:02.000Z</time>
      </trkpt>
      <trkpt lat="44.82421" lon="0.79834">
        <ele>212</ele>
        <time>2026-05-02T09:53:03.000Z</time>
      </trkpt>
      <trkpt lat="44.8242" lon="0.79834">
        <ele>212.1</ele>
        <time>2026-05-02T09:53:04.000Z</time>
      </trkpt>
      <trkpt lat="44.82419" lon="0.79833">
        <ele>211.6</ele>
        <time>2026-05-02T09:53:05.000Z</time>
      </trkpt>
      <trkpt lat="44.82417" lon="0.79833">
        <ele>211.5</ele>
        <time>2026-05-02T09:53:06.000Z</time>
      </trkpt>
      <trkpt lat="44.82416" lon="0.79834">
        <ele>211.5</ele>
        <time>2026-05-02T09:53:07.000Z</time>
      </trkpt>
      <trkpt lat="44.82414" lon="0.79834">
        <ele>211.6</ele>
        <time>2026-05-02T09:53:08.000Z</time>
      </trkpt>
      <trkpt lat="44.82413" lon="0.79834">
        <ele>211.4</ele>
        <time>2026-05-02T09:53:09.000Z</time>
      </trkpt>
      <trkpt lat="44.82411" lon="0.79834">
        <ele>211.6</ele>
        <time>2026-05-02T09:53:10.000Z</time>
      </trkpt>
      <trkpt lat="44.8241" lon="0.79834">
        <ele>211.5</ele>
        <time>2026-05-02T09:53:11.000Z</time>
      </trkpt>
      <trkpt lat="44.82408" lon="0.79834">
        <ele>211.3</ele>
        <time>2026-05-02T09:53:12.000Z</time>
      </trkpt>
      <trkpt lat="44.82407" lon="0.79834">
        <ele>211.1</ele>
        <time>2026-05-02T09:53:13.000Z</time>
      </trkpt>
      <trkpt lat="44.82405" lon="0.79834">
        <ele>211.1</ele>
        <time>2026-05-02T09:53:14.000Z</time>
      </trkpt>
      <trkpt lat="44.82403" lon="0.79834">
        <ele>211.2</ele>
        <time>2026-05-02T09:53:15.000Z</time>
      </trkpt>
      <trkpt lat="44.82402" lon="0.79834">
        <ele>210.9</ele>
        <time>2026-05-02T09:53:16.000Z</time>
      </trkpt>
      <trkpt lat="44.82401" lon="0.79834">
        <ele>211</ele>
        <time>2026-05-02T09:53:17.000Z</time>
      </trkpt>
      <trkpt lat="44.82399" lon="0.79834">
        <ele>211.2</ele>
        <time>2026-05-02T09:53:18.000Z</time>
      </trkpt>
      <trkpt lat="44.82398" lon="0.79834">
        <ele>211.2</ele>
        <time>2026-05-02T09:53:19.000Z</time>
      </trkpt>
      <trkpt lat="44.82397" lon="0.79834">
        <ele>211.5</ele>
        <time>2026-05-02T09:53:20.000Z</time>
      </trkpt>
      <trkpt lat="44.82395" lon="0.79834">
        <ele>211.7</ele>
        <time>2026-05-02T09:53:21.000Z</time>
      </trkpt>
      <trkpt lat="44.82394" lon="0.79834">
        <ele>211.8</ele>
        <time>2026-05-02T09:53:22.000Z</time>
      </trkpt>
      <trkpt lat="44.82392" lon="0.79835">
        <ele>211.8</ele>
        <time>2026-05-02T09:53:23.000Z</time>
      </trkpt>
      <trkpt lat="44.82391" lon="0.79835">
        <ele>212.1</ele>
        <time>2026-05-02T09:53:24.000Z</time>
      </trkpt>
      <trkpt lat="44.8239" lon="0.79835">
        <ele>212.2</ele>
        <time>2026-05-02T09:53:25.000Z</time>
      </trkpt>
      <trkpt lat="44.82388" lon="0.79836">
        <ele>212.1</ele>
        <time>2026-05-02T09:53:26.000Z</time>
      </trkpt>
      <trkpt lat="44.82387" lon="0.79836">
        <ele>212.3</ele>
        <time>2026-05-02T09:53:27.000Z</time>
      </trkpt>
      <trkpt lat="44.82385" lon="0.79836">
        <ele>212.2</ele>
        <time>2026-05-02T09:53:28.000Z</time>
      </trkpt>
      <trkpt lat="44.82384" lon="0.79834">
        <ele>212</ele>
        <time>2026-05-02T09:53:29.000Z</time>
      </trkpt>
      <trkpt lat="44.82384" lon="0.79832">
        <ele>212</ele>
        <time>2026-05-02T09:53:30.000Z</time>
      </trkpt>
      <trkpt lat="44.82382" lon="0.79832">
        <ele>212.2</ele>
        <time>2026-05-02T09:53:31.000Z</time>
      </trkpt>
      <trkpt lat="44.82381" lon="0.79833">
        <ele>211.5</ele>
        <time>2026-05-02T09:53:32.000Z</time>
      </trkpt>
      <trkpt lat="44.82381" lon="0.79834">
        <ele>211.4</ele>
        <time>2026-05-02T09:53:33.000Z</time>
      </trkpt>
      <trkpt lat="44.82381" lon="0.79834">
        <ele>211.4</ele>
        <time>2026-05-02T09:53:34.000Z</time>
      </trkpt>
      <trkpt lat="44.8238" lon="0.79835">
        <ele>211.2</ele>
        <time>2026-05-02T09:53:35.000Z</time>
      </trkpt>
      <trkpt lat="44.82379" lon="0.79836">
        <ele>211.4</ele>
        <time>2026-05-02T09:53:36.000Z</time>
      </trkpt>
      <trkpt lat="44.82378" lon="0.79838">
        <ele>211.5</ele>
        <time>2026-05-02T09:53:37.000Z</time>
      </trkpt>
      <trkpt lat="44.82376" lon="0.79839">
        <ele>211.6</ele>
        <time>2026-05-02T09:53:38.000Z</time>
      </trkpt>
      <trkpt lat="44.82375" lon="0.79839">
        <ele>211.9</ele>
        <time>2026-05-02T09:53:39.000Z</time>
      </trkpt>
      <trkpt lat="44.82374" lon="0.7984">
        <ele>212</ele>
        <time>2026-05-02T09:53:40.000Z</time>
      </trkpt>
      <trkpt lat="44.82372" lon="0.79841">
        <ele>212</ele>
        <time>2026-05-02T09:53:41.000Z</time>
      </trkpt>
      <trkpt lat="44.82371" lon="0.79841">
        <ele>212</ele>
        <time>2026-05-02T09:53:42.000Z</time>
      </trkpt>
      <trkpt lat="44.8237" lon="0.79841">
        <ele>212.1</ele>
        <time>2026-05-02T09:53:43.000Z</time>
      </trkpt>
      <trkpt lat="44.82368" lon="0.79842">
        <ele>212</ele>
        <time>2026-05-02T09:53:44.000Z</time>
      </trkpt>
      <trkpt lat="44.82367" lon="0.79842">
        <ele>212</ele>
        <time>2026-05-02T09:53:45.000Z</time>
      </trkpt>
      <trkpt lat="44.82365" lon="0.79843">
        <ele>211.9</ele>
        <time>2026-05-02T09:53:46.000Z</time>
      </trkpt>
      <trkpt lat="44.82364" lon="0.79843">
        <ele>212.2</ele>
        <time>2026-05-02T09:53:47.000Z</time>
      </trkpt>
      <trkpt lat="44.82363" lon="0.79844">
        <ele>212.2</ele>
        <time>2026-05-02T09:53:48.000Z</time>
      </trkpt>
      <trkpt lat="44.82361" lon="0.79844">
        <ele>212.3</ele>
        <time>2026-05-02T09:53:49.000Z</time>
      </trkpt>
      <trkpt lat="44.8236" lon="0.79845">
        <ele>212.3</ele>
        <time>2026-05-02T09:53:50.000Z</time>
      </trkpt>
      <trkpt lat="44.82358" lon="0.79846">
        <ele>212</ele>
        <time>2026-05-02T09:53:51.000Z</time>
      </trkpt>
      <trkpt lat="44.82357" lon="0.79846">
        <ele>211.9</ele>
        <time>2026-05-02T09:53:52.000Z</time>
      </trkpt>
      <trkpt lat="44.82355" lon="0.79847">
        <ele>211.8</ele>
        <time>2026-05-02T09:53:53.000Z</time>
      </trkpt>
      <trkpt lat="44.82354" lon="0.79848">
        <ele>211.8</ele>
        <time>2026-05-02T09:53:54.000Z</time>
      </trkpt>
      <trkpt lat="44.82352" lon="0.79848">
        <ele>211.6</ele>
        <time>2026-05-02T09:53:55.000Z</time>
      </trkpt>
      <trkpt lat="44.82351" lon="0.79849">
        <ele>211.5</ele>
        <time>2026-05-02T09:53:56.000Z</time>
      </trkpt>
      <trkpt lat="44.8235" lon="0.7985">
        <ele>211.4</ele>
        <time>2026-05-02T09:53:57.000Z</time>
      </trkpt>
      <trkpt lat="44.82348" lon="0.7985">
        <ele>211.4</ele>
        <time>2026-05-02T09:53:58.000Z</time>
      </trkpt>
      <trkpt lat="44.82347" lon="0.79851">
        <ele>211.4</ele>
        <time>2026-05-02T09:53:59.000Z</time>
      </trkpt>
      <trkpt lat="44.82345" lon="0.79852">
        <ele>211.3</ele>
        <time>2026-05-02T09:54:00.000Z</time>
      </trkpt>
      <trkpt lat="44.82344" lon="0.79852">
        <ele>211.3</ele>
        <time>2026-05-02T09:54:01.000Z</time>
      </trkpt>
      <trkpt lat="44.82343" lon="0.79853">
        <ele>211.3</ele>
        <time>2026-05-02T09:54:02.000Z</time>
      </trkpt>
      <trkpt lat="44.82341" lon="0.79854">
        <ele>211.1</ele>
        <time>2026-05-02T09:54:03.000Z</time>
      </trkpt>
      <trkpt lat="44.8234" lon="0.79854">
        <ele>211</ele>
        <time>2026-05-02T09:54:04.000Z</time>
      </trkpt>
      <trkpt lat="44.82338" lon="0.79855">
        <ele>210.9</ele>
        <time>2026-05-02T09:54:05.000Z</time>
      </trkpt>
      <trkpt lat="44.82337" lon="0.79856">
        <ele>210.8</ele>
        <time>2026-05-02T09:54:06.000Z</time>
      </trkpt>
      <trkpt lat="44.82335" lon="0.79857">
        <ele>210.7</ele>
        <time>2026-05-02T09:54:07.000Z</time>
      </trkpt>
      <trkpt lat="44.82334" lon="0.79858">
        <ele>210.5</ele>
        <time>2026-05-02T09:54:08.000Z</time>
      </trkpt>
      <trkpt lat="44.82332" lon="0.79859">
        <ele>210.4</ele>
        <time>2026-05-02T09:54:09.000Z</time>
      </trkpt>
      <trkpt lat="44.82331" lon="0.79859">
        <ele>210.4</ele>
        <time>2026-05-02T09:54:10.000Z</time>
      </trkpt>
      <trkpt lat="44.82329" lon="0.7986">
        <ele>210.3</ele>
        <time>2026-05-02T09:54:11.000Z</time>
      </trkpt>
      <trkpt lat="44.82328" lon="0.79861">
        <ele>210.3</ele>
        <time>2026-05-02T09:54:12.000Z</time>
      </trkpt>
      <trkpt lat="44.82326" lon="0.79861">
        <ele>210.3</ele>
        <time>2026-05-02T09:54:13.000Z</time>
      </trkpt>
      <trkpt lat="44.82325" lon="0.79862">
        <ele>210.3</ele>
        <time>2026-05-02T09:54:14.000Z</time>
      </trkpt>
      <trkpt lat="44.82323" lon="0.79863">
        <ele>210</ele>
        <time>2026-05-02T09:54:15.000Z</time>
      </trkpt>
      <trkpt lat="44.82322" lon="0.79863">
        <ele>209.8</ele>
        <time>2026-05-02T09:54:16.000Z</time>
      </trkpt>
      <trkpt lat="44.82321" lon="0.79864">
        <ele>209.7</ele>
        <time>2026-05-02T09:54:17.000Z</time>
      </trkpt>
      <trkpt lat="44.82319" lon="0.79865">
        <ele>209.6</ele>
        <time>2026-05-02T09:54:18.000Z</time>
      </trkpt>
      <trkpt lat="44.82318" lon="0.79865">
        <ele>209.5</ele>
        <time>2026-05-02T09:54:19.000Z</time>
      </trkpt>
      <trkpt lat="44.82316" lon="0.79866">
        <ele>209.2</ele>
        <time>2026-05-02T09:54:20.000Z</time>
      </trkpt>
      <trkpt lat="44.82315" lon="0.79867">
        <ele>209.2</ele>
        <time>2026-05-02T09:54:21.000Z</time>
      </trkpt>
      <trkpt lat="44.82313" lon="0.79867">
        <ele>209.1</ele>
        <time>2026-05-02T09:54:22.000Z</time>
      </trkpt>
      <trkpt lat="44.82312" lon="0.79868">
        <ele>208.9</ele>
        <time>2026-05-02T09:54:23.000Z</time>
      </trkpt>
      <trkpt lat="44.8231" lon="0.79868">
        <ele>208.9</ele>
        <time>2026-05-02T09:54:24.000Z</time>
      </trkpt>
      <trkpt lat="44.82309" lon="0.79869">
        <ele>208.7</ele>
        <time>2026-05-02T09:54:25.000Z</time>
      </trkpt>
      <trkpt lat="44.82307" lon="0.7987">
        <ele>208.6</ele>
        <time>2026-05-02T09:54:26.000Z</time>
      </trkpt>
      <trkpt lat="44.82306" lon="0.7987">
        <ele>208.6</ele>
        <time>2026-05-02T09:54:27.000Z</time>
      </trkpt>
      <trkpt lat="44.82304" lon="0.7987">
        <ele>208.5</ele>
        <time>2026-05-02T09:54:28.000Z</time>
      </trkpt>
      <trkpt lat="44.82302" lon="0.7987">
        <ele>208.2</ele>
        <time>2026-05-02T09:54:29.000Z</time>
      </trkpt>
      <trkpt lat="44.82301" lon="0.79871">
        <ele>208.1</ele>
        <time>2026-05-02T09:54:30.000Z</time>
      </trkpt>
      <trkpt lat="44.823" lon="0.79872">
        <ele>207.1</ele>
        <time>2026-05-02T09:54:31.000Z</time>
      </trkpt>
      <trkpt lat="44.82296" lon="0.79872">
        <ele>208.5</ele>
        <time>2026-05-02T09:54:32.000Z</time>
      </trkpt>
      <trkpt lat="44.82294" lon="0.79873">
        <ele>208.4</ele>
        <time>2026-05-02T09:54:33.000Z</time>
      </trkpt>
      <trkpt lat="44.82292" lon="0.79873">
        <ele>208.3</ele>
        <time>2026-05-02T09:54:34.000Z</time>
      </trkpt>
      <trkpt lat="44.82291" lon="0.79873">
        <ele>208.3</ele>
        <time>2026-05-02T09:54:35.000Z</time>
      </trkpt>
      <trkpt lat="44.82289" lon="0.79874">
        <ele>208.3</ele>
        <time>2026-05-02T09:54:36.000Z</time>
      </trkpt>
      <trkpt lat="44.82288" lon="0.79874">
        <ele>208.2</ele>
        <time>2026-05-02T09:54:37.000Z</time>
      </trkpt>
      <trkpt lat="44.82286" lon="0.79874">
        <ele>208.2</ele>
        <time>2026-05-02T09:54:38.000Z</time>
      </trkpt>
      <trkpt lat="44.82284" lon="0.79875">
        <ele>208.2</ele>
        <time>2026-05-02T09:54:39.000Z</time>
      </trkpt>
      <trkpt lat="44.82283" lon="0.79875">
        <ele>208.1</ele>
        <time>2026-05-02T09:54:40.000Z</time>
      </trkpt>
      <trkpt lat="44.82281" lon="0.79876">
        <ele>208.1</ele>
        <time>2026-05-02T09:54:41.000Z</time>
      </trkpt>
      <trkpt lat="44.82279" lon="0.79876">
        <ele>208.2</ele>
        <time>2026-05-02T09:54:42.000Z</time>
      </trkpt>
      <trkpt lat="44.82278" lon="0.79876">
        <ele>208.1</ele>
        <time>2026-05-02T09:54:43.000Z</time>
      </trkpt>
      <trkpt lat="44.82277" lon="0.79876">
        <ele>207.8</ele>
        <time>2026-05-02T09:54:44.000Z</time>
      </trkpt>
      <trkpt lat="44.82277" lon="0.79877">
        <ele>208</ele>
        <time>2026-05-02T09:54:45.000Z</time>
      </trkpt>
      <trkpt lat="44.82276" lon="0.79877">
        <ele>207.9</ele>
        <time>2026-05-02T09:54:46.000Z</time>
      </trkpt>
      <trkpt lat="44.82276" lon="0.79877">
        <ele>207.9</ele>
        <time>2026-05-02T09:54:47.000Z</time>
      </trkpt>
      <trkpt lat="44.82275" lon="0.79878">
        <ele>207.7</ele>
        <time>2026-05-02T09:54:48.000Z</time>
      </trkpt>
      <trkpt lat="44.82273" lon="0.79879">
        <ele>207.5</ele>
        <time>2026-05-02T09:54:49.000Z</time>
      </trkpt>
      <trkpt lat="44.82272" lon="0.79879">
        <ele>207.2</ele>
        <time>2026-05-02T09:54:50.000Z</time>
      </trkpt>
      <trkpt lat="44.82271" lon="0.79879">
        <ele>206.6</ele>
        <time>2026-05-02T09:54:51.000Z</time>
      </trkpt>
      <trkpt lat="44.8227" lon="0.79879">
        <ele>206.1</ele>
        <time>2026-05-02T09:54:52.000Z</time>
      </trkpt>
      <trkpt lat="44.8227" lon="0.79879">
        <ele>206</ele>
        <time>2026-05-02T09:54:53.000Z</time>
      </trkpt>
      <trkpt lat="44.8227" lon="0.79879">
        <ele>206</ele>
        <time>2026-05-02T09:54:54.000Z</time>
      </trkpt>
      <trkpt lat="44.8227" lon="0.79879">
        <ele>206</ele>
        <time>2026-05-02T09:54:55.000Z</time>
      </trkpt>
      <trkpt lat="44.8227" lon="0.7988">
        <ele>205.9</ele>
        <time>2026-05-02T09:54:56.000Z</time>
      </trkpt>
      <trkpt lat="44.82268" lon="0.7988">
        <ele>205.9</ele>
        <time>2026-05-02T09:54:57.000Z</time>
      </trkpt>
      <trkpt lat="44.82267" lon="0.7988">
        <ele>206.1</ele>
        <time>2026-05-02T09:54:58.000Z</time>
      </trkpt>
      <trkpt lat="44.82266" lon="0.7988">
        <ele>206.2</ele>
        <time>2026-05-02T09:54:59.000Z</time>
      </trkpt>
      <trkpt lat="44.82264" lon="0.79881">
        <ele>206.1</ele>
        <time>2026-05-02T09:55:00.000Z</time>
      </trkpt>
      <trkpt lat="44.82263" lon="0.79881">
        <ele>205.5</ele>
        <time>2026-05-02T09:55:01.000Z</time>
      </trkpt>
      <trkpt lat="44.82262" lon="0.79881">
        <ele>205.2</ele>
        <time>2026-05-02T09:55:02.000Z</time>
      </trkpt>
      <trkpt lat="44.8226" lon="0.79881">
        <ele>204.9</ele>
        <time>2026-05-02T09:55:03.000Z</time>
      </trkpt>
      <trkpt lat="44.82259" lon="0.79881">
        <ele>204.9</ele>
        <time>2026-05-02T09:55:04.000Z</time>
      </trkpt>
      <trkpt lat="44.82258" lon="0.79882">
        <ele>204.4</ele>
        <time>2026-05-02T09:55:05.000Z</time>
      </trkpt>
      <trkpt lat="44.82256" lon="0.79882">
        <ele>204.5</ele>
        <time>2026-05-02T09:55:06.000Z</time>
      </trkpt>
      <trkpt lat="44.82255" lon="0.79882">
        <ele>204.7</ele>
        <time>2026-05-02T09:55:07.000Z</time>
      </trkpt>
      <trkpt lat="44.82253" lon="0.79882">
        <ele>204.1</ele>
        <time>2026-05-02T09:55:08.000Z</time>
      </trkpt>
      <trkpt lat="44.82252" lon="0.79882">
        <ele>204.1</ele>
        <time>2026-05-02T09:55:09.000Z</time>
      </trkpt>
      <trkpt lat="44.8225" lon="0.79882">
        <ele>203.9</ele>
        <time>2026-05-02T09:55:10.000Z</time>
      </trkpt>
      <trkpt lat="44.82249" lon="0.79882">
        <ele>203.4</ele>
        <time>2026-05-02T09:55:11.000Z</time>
      </trkpt>
      <trkpt lat="44.82247" lon="0.79882">
        <ele>203.2</ele>
        <time>2026-05-02T09:55:12.000Z</time>
      </trkpt>
      <trkpt lat="44.82245" lon="0.79882">
        <ele>203.4</ele>
        <time>2026-05-02T09:55:13.000Z</time>
      </trkpt>
      <trkpt lat="44.82243" lon="0.79882">
        <ele>203.8</ele>
        <time>2026-05-02T09:55:14.000Z</time>
      </trkpt>
      <trkpt lat="44.82242" lon="0.79882">
        <ele>203.7</ele>
        <time>2026-05-02T09:55:15.000Z</time>
      </trkpt>
      <trkpt lat="44.8224" lon="0.79882">
        <ele>203.4</ele>
        <time>2026-05-02T09:55:16.000Z</time>
      </trkpt>
      <trkpt lat="44.82239" lon="0.79883">
        <ele>203.1</ele>
        <time>2026-05-02T09:55:17.000Z</time>
      </trkpt>
      <trkpt lat="44.82237" lon="0.79883">
        <ele>203.6</ele>
        <time>2026-05-02T09:55:18.000Z</time>
      </trkpt>
      <trkpt lat="44.82236" lon="0.79884">
        <ele>203.5</ele>
        <time>2026-05-02T09:55:19.000Z</time>
      </trkpt>
      <trkpt lat="44.82234" lon="0.79884">
        <ele>203.9</ele>
        <time>2026-05-02T09:55:20.000Z</time>
      </trkpt>
      <trkpt lat="44.82232" lon="0.79884">
        <ele>203.9</ele>
        <time>2026-05-02T09:55:21.000Z</time>
      </trkpt>
      <trkpt lat="44.82231" lon="0.79883">
        <ele>203.7</ele>
        <time>2026-05-02T09:55:22.000Z</time>
      </trkpt>
      <trkpt lat="44.8223" lon="0.79883">
        <ele>203.7</ele>
        <time>2026-05-02T09:55:23.000Z</time>
      </trkpt>
      <trkpt lat="44.82228" lon="0.79882">
        <ele>203.9</ele>
        <time>2026-05-02T09:55:24.000Z</time>
      </trkpt>
      <trkpt lat="44.82227" lon="0.79882">
        <ele>203.9</ele>
        <time>2026-05-02T09:55:25.000Z</time>
      </trkpt>
      <trkpt lat="44.82225" lon="0.79882">
        <ele>204</ele>
        <time>2026-05-02T09:55:26.000Z</time>
      </trkpt>
      <trkpt lat="44.82224" lon="0.79882">
        <ele>203.9</ele>
        <time>2026-05-02T09:55:27.000Z</time>
      </trkpt>
      <trkpt lat="44.82222" lon="0.79882">
        <ele>204</ele>
        <time>2026-05-02T09:55:28.000Z</time>
      </trkpt>
      <trkpt lat="44.8222" lon="0.79882">
        <ele>204</ele>
        <time>2026-05-02T09:55:29.000Z</time>
      </trkpt>
      <trkpt lat="44.82219" lon="0.79882">
        <ele>204.4</ele>
        <time>2026-05-02T09:55:30.000Z</time>
      </trkpt>
      <trkpt lat="44.82217" lon="0.79882">
        <ele>204.5</ele>
        <time>2026-05-02T09:55:31.000Z</time>
      </trkpt>
      <trkpt lat="44.82216" lon="0.79882">
        <ele>204.7</ele>
        <time>2026-05-02T09:55:32.000Z</time>
      </trkpt>
      <trkpt lat="44.82214" lon="0.79882">
        <ele>204.5</ele>
        <time>2026-05-02T09:55:33.000Z</time>
      </trkpt>
      <trkpt lat="44.82213" lon="0.79881">
        <ele>204.5</ele>
        <time>2026-05-02T09:55:34.000Z</time>
      </trkpt>
      <trkpt lat="44.82211" lon="0.79881">
        <ele>204.8</ele>
        <time>2026-05-02T09:55:35.000Z</time>
      </trkpt>
      <trkpt lat="44.82209" lon="0.79881">
        <ele>204.3</ele>
        <time>2026-05-02T09:55:36.000Z</time>
      </trkpt>
      <trkpt lat="44.82208" lon="0.79881">
        <ele>204.5</ele>
        <time>2026-05-02T09:55:37.000Z</time>
      </trkpt>
      <trkpt lat="44.82206" lon="0.79881">
        <ele>204.6</ele>
        <time>2026-05-02T09:55:38.000Z</time>
      </trkpt>
      <trkpt lat="44.82204" lon="0.79881">
        <ele>205</ele>
        <time>2026-05-02T09:55:39.000Z</time>
      </trkpt>
      <trkpt lat="44.82203" lon="0.7988">
        <ele>204.9</ele>
        <time>2026-05-02T09:55:40.000Z</time>
      </trkpt>
      <trkpt lat="44.82201" lon="0.7988">
        <ele>204.6</ele>
        <time>2026-05-02T09:55:41.000Z</time>
      </trkpt>
      <trkpt lat="44.822" lon="0.7988">
        <ele>204.6</ele>
        <time>2026-05-02T09:55:42.000Z</time>
      </trkpt>
      <trkpt lat="44.82198" lon="0.79879">
        <ele>204.6</ele>
        <time>2026-05-02T09:55:43.000Z</time>
      </trkpt>
      <trkpt lat="44.82197" lon="0.79878">
        <ele>204.6</ele>
        <time>2026-05-02T09:55:44.000Z</time>
      </trkpt>
      <trkpt lat="44.82195" lon="0.79878">
        <ele>205</ele>
        <time>2026-05-02T09:55:45.000Z</time>
      </trkpt>
      <trkpt lat="44.82194" lon="0.79878">
        <ele>205.5</ele>
        <time>2026-05-02T09:55:46.000Z</time>
      </trkpt>
      <trkpt lat="44.82194" lon="0.79878">
        <ele>205.7</ele>
        <time>2026-05-02T09:55:47.000Z</time>
      </trkpt>
      <trkpt lat="44.82192" lon="0.79877">
        <ele>205.9</ele>
        <time>2026-05-02T09:55:48.000Z</time>
      </trkpt>
      <trkpt lat="44.82191" lon="0.79877">
        <ele>206.2</ele>
        <time>2026-05-02T09:55:49.000Z</time>
      </trkpt>
      <trkpt lat="44.82189" lon="0.79875">
        <ele>206.6</ele>
        <time>2026-05-02T09:55:50.000Z</time>
      </trkpt>
      <trkpt lat="44.82187" lon="0.79874">
        <ele>207</ele>
        <time>2026-05-02T09:55:51.000Z</time>
      </trkpt>
      <trkpt lat="44.82185" lon="0.79874">
        <ele>207.2</ele>
        <time>2026-05-02T09:55:52.000Z</time>
      </trkpt>
      <trkpt lat="44.82184" lon="0.79873">
        <ele>207.5</ele>
        <time>2026-05-02T09:55:53.000Z</time>
      </trkpt>
      <trkpt lat="44.82182" lon="0.79872">
        <ele>207.4</ele>
        <time>2026-05-02T09:55:54.000Z</time>
      </trkpt>
      <trkpt lat="44.8218" lon="0.79871">
        <ele>207.5</ele>
        <time>2026-05-02T09:55:55.000Z</time>
      </trkpt>
      <trkpt lat="44.82178" lon="0.79871">
        <ele>207.5</ele>
        <time>2026-05-02T09:55:56.000Z</time>
      </trkpt>
      <trkpt lat="44.82177" lon="0.7987">
        <ele>207.5</ele>
        <time>2026-05-02T09:55:57.000Z</time>
      </trkpt>
      <trkpt lat="44.82175" lon="0.79869">
        <ele>207.4</ele>
        <time>2026-05-02T09:55:58.000Z</time>
      </trkpt>
      <trkpt lat="44.82173" lon="0.79869">
        <ele>207.7</ele>
        <time>2026-05-02T09:55:59.000Z</time>
      </trkpt>
      <trkpt lat="44.82172" lon="0.79868">
        <ele>207.9</ele>
        <time>2026-05-02T09:56:00.000Z</time>
      </trkpt>
      <trkpt lat="44.8217" lon="0.79868">
        <ele>208</ele>
        <time>2026-05-02T09:56:01.000Z</time>
      </trkpt>
      <trkpt lat="44.82168" lon="0.79867">
        <ele>208.4</ele>
        <time>2026-05-02T09:56:02.000Z</time>
      </trkpt>
      <trkpt lat="44.82167" lon="0.79866">
        <ele>208.7</ele>
        <time>2026-05-02T09:56:03.000Z</time>
      </trkpt>
      <trkpt lat="44.82165" lon="0.79866">
        <ele>208.7</ele>
        <time>2026-05-02T09:56:04.000Z</time>
      </trkpt>
      <trkpt lat="44.82163" lon="0.79865">
        <ele>208.7</ele>
        <time>2026-05-02T09:56:05.000Z</time>
      </trkpt>
      <trkpt lat="44.82162" lon="0.79865">
        <ele>209</ele>
        <time>2026-05-02T09:56:06.000Z</time>
      </trkpt>
      <trkpt lat="44.8216" lon="0.79864">
        <ele>209</ele>
        <time>2026-05-02T09:56:07.000Z</time>
      </trkpt>
      <trkpt lat="44.82158" lon="0.79864">
        <ele>209.2</ele>
        <time>2026-05-02T09:56:08.000Z</time>
      </trkpt>
      <trkpt lat="44.82156" lon="0.79863">
        <ele>209</ele>
        <time>2026-05-02T09:56:09.000Z</time>
      </trkpt>
      <trkpt lat="44.82155" lon="0.79863">
        <ele>209.3</ele>
        <time>2026-05-02T09:56:10.000Z</time>
      </trkpt>
      <trkpt lat="44.82153" lon="0.79862">
        <ele>209.1</ele>
        <time>2026-05-02T09:56:11.000Z</time>
      </trkpt>
      <trkpt lat="44.82152" lon="0.79861">
        <ele>209.1</ele>
        <time>2026-05-02T09:56:12.000Z</time>
      </trkpt>
      <trkpt lat="44.8215" lon="0.7986">
        <ele>209</ele>
        <time>2026-05-02T09:56:13.000Z</time>
      </trkpt>
      <trkpt lat="44.82149" lon="0.7986">
        <ele>209.1</ele>
        <time>2026-05-02T09:56:14.000Z</time>
      </trkpt>
      <trkpt lat="44.82147" lon="0.79859">
        <ele>208.9</ele>
        <time>2026-05-02T09:56:15.000Z</time>
      </trkpt>
      <trkpt lat="44.82146" lon="0.79858">
        <ele>208.8</ele>
        <time>2026-05-02T09:56:16.000Z</time>
      </trkpt>
      <trkpt lat="44.82144" lon="0.79858">
        <ele>208.6</ele>
        <time>2026-05-02T09:56:17.000Z</time>
      </trkpt>
      <trkpt lat="44.82143" lon="0.79857">
        <ele>208.6</ele>
        <time>2026-05-02T09:56:18.000Z</time>
      </trkpt>
      <trkpt lat="44.82141" lon="0.79856">
        <ele>208.6</ele>
        <time>2026-05-02T09:56:19.000Z</time>
      </trkpt>
      <trkpt lat="44.8214" lon="0.79856">
        <ele>208.8</ele>
        <time>2026-05-02T09:56:20.000Z</time>
      </trkpt>
      <trkpt lat="44.82138" lon="0.79855">
        <ele>208.7</ele>
        <time>2026-05-02T09:56:21.000Z</time>
      </trkpt>
      <trkpt lat="44.82137" lon="0.79854">
        <ele>208.5</ele>
        <time>2026-05-02T09:56:22.000Z</time>
      </trkpt>
      <trkpt lat="44.82135" lon="0.79853">
        <ele>208.3</ele>
        <time>2026-05-02T09:56:23.000Z</time>
      </trkpt>
      <trkpt lat="44.82133" lon="0.79852">
        <ele>208.3</ele>
        <time>2026-05-02T09:56:24.000Z</time>
      </trkpt>
      <trkpt lat="44.82132" lon="0.79852">
        <ele>208.2</ele>
        <time>2026-05-02T09:56:25.000Z</time>
      </trkpt>
      <trkpt lat="44.8213" lon="0.79851">
        <ele>208.3</ele>
        <time>2026-05-02T09:56:26.000Z</time>
      </trkpt>
      <trkpt lat="44.82129" lon="0.7985">
        <ele>208.2</ele>
        <time>2026-05-02T09:56:27.000Z</time>
      </trkpt>
      <trkpt lat="44.82127" lon="0.79849">
        <ele>208.3</ele>
        <time>2026-05-02T09:56:28.000Z</time>
      </trkpt>
      <trkpt lat="44.82126" lon="0.79848">
        <ele>208.4</ele>
        <time>2026-05-02T09:56:29.000Z</time>
      </trkpt>
      <trkpt lat="44.82124" lon="0.79847">
        <ele>208.3</ele>
        <time>2026-05-02T09:56:30.000Z</time>
      </trkpt>
      <trkpt lat="44.82123" lon="0.79846">
        <ele>208.2</ele>
        <time>2026-05-02T09:56:31.000Z</time>
      </trkpt>
      <trkpt lat="44.82121" lon="0.79845">
        <ele>208.2</ele>
        <time>2026-05-02T09:56:32.000Z</time>
      </trkpt>
      <trkpt lat="44.8212" lon="0.79844">
        <ele>208.1</ele>
        <time>2026-05-02T09:56:33.000Z</time>
      </trkpt>
      <trkpt lat="44.82118" lon="0.79843">
        <ele>207.9</ele>
        <time>2026-05-02T09:56:34.000Z</time>
      </trkpt>
      <trkpt lat="44.82117" lon="0.79841">
        <ele>207.9</ele>
        <time>2026-05-02T09:56:35.000Z</time>
      </trkpt>
      <trkpt lat="44.82115" lon="0.7984">
        <ele>207.8</ele>
        <time>2026-05-02T09:56:36.000Z</time>
      </trkpt>
      <trkpt lat="44.82114" lon="0.79839">
        <ele>207.8</ele>
        <time>2026-05-02T09:56:37.000Z</time>
      </trkpt>
      <trkpt lat="44.82113" lon="0.79838">
        <ele>207.8</ele>
        <time>2026-05-02T09:56:38.000Z</time>
      </trkpt>
      <trkpt lat="44.82111" lon="0.79837">
        <ele>207.7</ele>
        <time>2026-05-02T09:56:39.000Z</time>
      </trkpt>
      <trkpt lat="44.8211" lon="0.79836">
        <ele>207.7</ele>
        <time>2026-05-02T09:56:40.000Z</time>
      </trkpt>
      <trkpt lat="44.82108" lon="0.79835">
        <ele>207.7</ele>
        <time>2026-05-02T09:56:41.000Z</time>
      </trkpt>
      <trkpt lat="44.82107" lon="0.79833">
        <ele>207.6</ele>
        <time>2026-05-02T09:56:42.000Z</time>
      </trkpt>
      <trkpt lat="44.82105" lon="0.79832">
        <ele>208</ele>
        <time>2026-05-02T09:56:43.000Z</time>
      </trkpt>
      <trkpt lat="44.82104" lon="0.79831">
        <ele>208.4</ele>
        <time>2026-05-02T09:56:44.000Z</time>
      </trkpt>
      <trkpt lat="44.82102" lon="0.79829">
        <ele>208.1</ele>
        <time>2026-05-02T09:56:45.000Z</time>
      </trkpt>
      <trkpt lat="44.82101" lon="0.79828">
        <ele>207.8</ele>
        <time>2026-05-02T09:56:46.000Z</time>
      </trkpt>
      <trkpt lat="44.821" lon="0.79827">
        <ele>207.9</ele>
        <time>2026-05-02T09:56:47.000Z</time>
      </trkpt>
      <trkpt lat="44.82099" lon="0.79826">
        <ele>208</ele>
        <time>2026-05-02T09:56:48.000Z</time>
      </trkpt>
      <trkpt lat="44.82097" lon="0.79824">
        <ele>208.2</ele>
        <time>2026-05-02T09:56:49.000Z</time>
      </trkpt>
      <trkpt lat="44.82096" lon="0.79824">
        <ele>208.3</ele>
        <time>2026-05-02T09:56:50.000Z</time>
      </trkpt>
      <trkpt lat="44.82094" lon="0.79823">
        <ele>208.5</ele>
        <time>2026-05-02T09:56:51.000Z</time>
      </trkpt>
      <trkpt lat="44.82093" lon="0.79822">
        <ele>208.9</ele>
        <time>2026-05-02T09:56:52.000Z</time>
      </trkpt>
      <trkpt lat="44.8209" lon="0.79824">
        <ele>209.5</ele>
        <time>2026-05-02T09:56:53.000Z</time>
      </trkpt>
      <trkpt lat="44.82089" lon="0.79823">
        <ele>209.2</ele>
        <time>2026-05-02T09:56:54.000Z</time>
      </trkpt>
      <trkpt lat="44.82088" lon="0.79822">
        <ele>208.9</ele>
        <time>2026-05-02T09:56:55.000Z</time>
      </trkpt>
      <trkpt lat="44.82086" lon="0.79821">
        <ele>208.9</ele>
        <time>2026-05-02T09:56:56.000Z</time>
      </trkpt>
      <trkpt lat="44.82085" lon="0.7982">
        <ele>208.9</ele>
        <time>2026-05-02T09:56:57.000Z</time>
      </trkpt>
      <trkpt lat="44.82083" lon="0.79819">
        <ele>209</ele>
        <time>2026-05-02T09:56:58.000Z</time>
      </trkpt>
      <trkpt lat="44.82082" lon="0.79818">
        <ele>209.4</ele>
        <time>2026-05-02T09:56:59.000Z</time>
      </trkpt>
      <trkpt lat="44.8208" lon="0.79817">
        <ele>210</ele>
        <time>2026-05-02T09:57:00.000Z</time>
      </trkpt>
      <trkpt lat="44.82078" lon="0.79816">
        <ele>209.8</ele>
        <time>2026-05-02T09:57:01.000Z</time>
      </trkpt>
      <trkpt lat="44.82077" lon="0.79815">
        <ele>210.1</ele>
        <time>2026-05-02T09:57:02.000Z</time>
      </trkpt>
      <trkpt lat="44.82075" lon="0.79814">
        <ele>210.3</ele>
        <time>2026-05-02T09:57:03.000Z</time>
      </trkpt>
      <trkpt lat="44.82073" lon="0.79813">
        <ele>210.2</ele>
        <time>2026-05-02T09:57:04.000Z</time>
      </trkpt>
      <trkpt lat="44.82072" lon="0.79811">
        <ele>210.3</ele>
        <time>2026-05-02T09:57:05.000Z</time>
      </trkpt>
      <trkpt lat="44.82071" lon="0.7981">
        <ele>210.4</ele>
        <time>2026-05-02T09:57:06.000Z</time>
      </trkpt>
      <trkpt lat="44.82069" lon="0.79809">
        <ele>210.7</ele>
        <time>2026-05-02T09:57:07.000Z</time>
      </trkpt>
      <trkpt lat="44.82068" lon="0.79808">
        <ele>210.7</ele>
        <time>2026-05-02T09:57:08.000Z</time>
      </trkpt>
      <trkpt lat="44.82066" lon="0.79807">
        <ele>211</ele>
        <time>2026-05-02T09:57:09.000Z</time>
      </trkpt>
      <trkpt lat="44.82065" lon="0.79806">
        <ele>211</ele>
        <time>2026-05-02T09:57:10.000Z</time>
      </trkpt>
      <trkpt lat="44.82063" lon="0.79805">
        <ele>211.3</ele>
        <time>2026-05-02T09:57:11.000Z</time>
      </trkpt>
      <trkpt lat="44.82062" lon="0.79804">
        <ele>211.3</ele>
        <time>2026-05-02T09:57:12.000Z</time>
      </trkpt>
      <trkpt lat="44.8206" lon="0.79804">
        <ele>211.4</ele>
        <time>2026-05-02T09:57:13.000Z</time>
      </trkpt>
      <trkpt lat="44.82059" lon="0.79803">
        <ele>211.3</ele>
        <time>2026-05-02T09:57:14.000Z</time>
      </trkpt>
      <trkpt lat="44.82057" lon="0.79802">
        <ele>211.3</ele>
        <time>2026-05-02T09:57:15.000Z</time>
      </trkpt>
      <trkpt lat="44.82056" lon="0.79801">
        <ele>211.2</ele>
        <time>2026-05-02T09:57:16.000Z</time>
      </trkpt>
      <trkpt lat="44.82054" lon="0.79801">
        <ele>211.4</ele>
        <time>2026-05-02T09:57:17.000Z</time>
      </trkpt>
      <trkpt lat="44.82053" lon="0.798">
        <ele>211.4</ele>
        <time>2026-05-02T09:57:18.000Z</time>
      </trkpt>
      <trkpt lat="44.82052" lon="0.79799">
        <ele>211.5</ele>
        <time>2026-05-02T09:57:19.000Z</time>
      </trkpt>
      <trkpt lat="44.8205" lon="0.79798">
        <ele>211.6</ele>
        <time>2026-05-02T09:57:20.000Z</time>
      </trkpt>
      <trkpt lat="44.82049" lon="0.79797">
        <ele>211.5</ele>
        <time>2026-05-02T09:57:21.000Z</time>
      </trkpt>
      <trkpt lat="44.82047" lon="0.79797">
        <ele>211.5</ele>
        <time>2026-05-02T09:57:22.000Z</time>
      </trkpt>
      <trkpt lat="44.82046" lon="0.79796">
        <ele>211.7</ele>
        <time>2026-05-02T09:57:23.000Z</time>
      </trkpt>
      <trkpt lat="44.82044" lon="0.79796">
        <ele>211.7</ele>
        <time>2026-05-02T09:57:24.000Z</time>
      </trkpt>
      <trkpt lat="44.82043" lon="0.79795">
        <ele>211.6</ele>
        <time>2026-05-02T09:57:25.000Z</time>
      </trkpt>
      <trkpt lat="44.82041" lon="0.79794">
        <ele>211.5</ele>
        <time>2026-05-02T09:57:26.000Z</time>
      </trkpt>
      <trkpt lat="44.82039" lon="0.79793">
        <ele>211.6</ele>
        <time>2026-05-02T09:57:27.000Z</time>
      </trkpt>
      <trkpt lat="44.82038" lon="0.79793">
        <ele>211.5</ele>
        <time>2026-05-02T09:57:28.000Z</time>
      </trkpt>
      <trkpt lat="44.82036" lon="0.79792">
        <ele>211.4</ele>
        <time>2026-05-02T09:57:29.000Z</time>
      </trkpt>
      <trkpt lat="44.82035" lon="0.79792">
        <ele>211.5</ele>
        <time>2026-05-02T09:57:30.000Z</time>
      </trkpt>
      <trkpt lat="44.82033" lon="0.79791">
        <ele>211.7</ele>
        <time>2026-05-02T09:57:31.000Z</time>
      </trkpt>
      <trkpt lat="44.82032" lon="0.7979">
        <ele>212.4</ele>
        <time>2026-05-02T09:57:32.000Z</time>
      </trkpt>
      <trkpt lat="44.82029" lon="0.7979">
        <ele>213.4</ele>
        <time>2026-05-02T09:57:33.000Z</time>
      </trkpt>
      <trkpt lat="44.82028" lon="0.79789">
        <ele>213.4</ele>
        <time>2026-05-02T09:57:34.000Z</time>
      </trkpt>
      <trkpt lat="44.82026" lon="0.79789">
        <ele>213.6</ele>
        <time>2026-05-02T09:57:35.000Z</time>
      </trkpt>
      <trkpt lat="44.82024" lon="0.79788">
        <ele>213.5</ele>
        <time>2026-05-02T09:57:36.000Z</time>
      </trkpt>
      <trkpt lat="44.82023" lon="0.79788">
        <ele>213.7</ele>
        <time>2026-05-02T09:57:37.000Z</time>
      </trkpt>
      <trkpt lat="44.82021" lon="0.79788">
        <ele>213.3</ele>
        <time>2026-05-02T09:57:38.000Z</time>
      </trkpt>
      <trkpt lat="44.8202" lon="0.79788">
        <ele>213.2</ele>
        <time>2026-05-02T09:57:39.000Z</time>
      </trkpt>
      <trkpt lat="44.82018" lon="0.79788">
        <ele>213.1</ele>
        <time>2026-05-02T09:57:40.000Z</time>
      </trkpt>
      <trkpt lat="44.82017" lon="0.79789">
        <ele>213.1</ele>
        <time>2026-05-02T09:57:41.000Z</time>
      </trkpt>
      <trkpt lat="44.82015" lon="0.7979">
        <ele>213</ele>
        <time>2026-05-02T09:57:42.000Z</time>
      </trkpt>
      <trkpt lat="44.82014" lon="0.7979">
        <ele>212.9</ele>
        <time>2026-05-02T09:57:43.000Z</time>
      </trkpt>
      <trkpt lat="44.82013" lon="0.79791">
        <ele>212.8</ele>
        <time>2026-05-02T09:57:44.000Z</time>
      </trkpt>
      <trkpt lat="44.82012" lon="0.79792">
        <ele>212.1</ele>
        <time>2026-05-02T09:57:45.000Z</time>
      </trkpt>
      <trkpt lat="44.82011" lon="0.79794">
        <ele>211.8</ele>
        <time>2026-05-02T09:57:46.000Z</time>
      </trkpt>
      <trkpt lat="44.8201" lon="0.79795">
        <ele>211.5</ele>
        <time>2026-05-02T09:57:47.000Z</time>
      </trkpt>
      <trkpt lat="44.82009" lon="0.79797">
        <ele>212.1</ele>
        <time>2026-05-02T09:57:48.000Z</time>
      </trkpt>
      <trkpt lat="44.82008" lon="0.79798">
        <ele>212.1</ele>
        <time>2026-05-02T09:57:49.000Z</time>
      </trkpt>
      <trkpt lat="44.82007" lon="0.798">
        <ele>211.7</ele>
        <time>2026-05-02T09:57:50.000Z</time>
      </trkpt>
      <trkpt lat="44.82006" lon="0.79802">
        <ele>211.3</ele>
        <time>2026-05-02T09:57:51.000Z</time>
      </trkpt>
      <trkpt lat="44.82005" lon="0.79804">
        <ele>211.3</ele>
        <time>2026-05-02T09:57:52.000Z</time>
      </trkpt>
      <trkpt lat="44.82004" lon="0.79805">
        <ele>211.5</ele>
        <time>2026-05-02T09:57:53.000Z</time>
      </trkpt>
      <trkpt lat="44.82003" lon="0.79806">
        <ele>211.5</ele>
        <time>2026-05-02T09:57:54.000Z</time>
      </trkpt>
      <trkpt lat="44.82002" lon="0.79808">
        <ele>211.7</ele>
        <time>2026-05-02T09:57:55.000Z</time>
      </trkpt>
      <trkpt lat="44.82001" lon="0.79809">
        <ele>211.1</ele>
        <time>2026-05-02T09:57:56.000Z</time>
      </trkpt>
      <trkpt lat="44.82" lon="0.7981">
        <ele>210.9</ele>
        <time>2026-05-02T09:57:57.000Z</time>
      </trkpt>
      <trkpt lat="44.81999" lon="0.79812">
        <ele>210.8</ele>
        <time>2026-05-02T09:57:58.000Z</time>
      </trkpt>
      <trkpt lat="44.81998" lon="0.79813">
        <ele>210.6</ele>
        <time>2026-05-02T09:57:59.000Z</time>
      </trkpt>
      <trkpt lat="44.81997" lon="0.79814">
        <ele>210.3</ele>
        <time>2026-05-02T09:58:00.000Z</time>
      </trkpt>
      <trkpt lat="44.81996" lon="0.79815">
        <ele>210.3</ele>
        <time>2026-05-02T09:58:01.000Z</time>
      </trkpt>
      <trkpt lat="44.81995" lon="0.79817">
        <ele>210.8</ele>
        <time>2026-05-02T09:58:02.000Z</time>
      </trkpt>
      <trkpt lat="44.81994" lon="0.79819">
        <ele>211.3</ele>
        <time>2026-05-02T09:58:03.000Z</time>
      </trkpt>
      <trkpt lat="44.81994" lon="0.79821">
        <ele>210.6</ele>
        <time>2026-05-02T09:58:04.000Z</time>
      </trkpt>
      <trkpt lat="44.81993" lon="0.79823">
        <ele>210.1</ele>
        <time>2026-05-02T09:58:05.000Z</time>
      </trkpt>
      <trkpt lat="44.81992" lon="0.79824">
        <ele>209.5</ele>
        <time>2026-05-02T09:58:06.000Z</time>
      </trkpt>
      <trkpt lat="44.81992" lon="0.79826">
        <ele>209.3</ele>
        <time>2026-05-02T09:58:07.000Z</time>
      </trkpt>
      <trkpt lat="44.81991" lon="0.79827">
        <ele>209.5</ele>
        <time>2026-05-02T09:58:08.000Z</time>
      </trkpt>
      <trkpt lat="44.8199" lon="0.79829">
        <ele>209.7</ele>
        <time>2026-05-02T09:58:09.000Z</time>
      </trkpt>
      <trkpt lat="44.81989" lon="0.7983">
        <ele>210.1</ele>
        <time>2026-05-02T09:58:10.000Z</time>
      </trkpt>
      <trkpt lat="44.8199" lon="0.79831">
        <ele>209.3</ele>
        <time>2026-05-02T09:58:11.000Z</time>
      </trkpt>
      <trkpt lat="44.8199" lon="0.79831">
        <ele>208.8</ele>
        <time>2026-05-02T09:58:12.000Z</time>
      </trkpt>
      <trkpt lat="44.8199" lon="0.79831">
        <ele>208.6</ele>
        <time>2026-05-02T09:58:13.000Z</time>
      </trkpt>
      <trkpt lat="44.8199" lon="0.79832">
        <ele>208.9</ele>
        <time>2026-05-02T09:58:14.000Z</time>
      </trkpt>
      <trkpt lat="44.8199" lon="0.79831">
        <ele>208.8</ele>
        <time>2026-05-02T09:58:15.000Z</time>
      </trkpt>
      <trkpt lat="44.8199" lon="0.79831">
        <ele>208.8</ele>
        <time>2026-05-02T09:58:16.000Z</time>
      </trkpt>
      <trkpt lat="44.8199" lon="0.79831">
        <ele>208.4</ele>
        <time>2026-05-02T09:58:17.000Z</time>
      </trkpt>
      <trkpt lat="44.8199" lon="0.79831">
        <ele>208.3</ele>
        <time>2026-05-02T09:58:18.000Z</time>
      </trkpt>
      <trkpt lat="44.8199" lon="0.79831">
        <ele>208.3</ele>
        <time>2026-05-02T09:58:19.000Z</time>
      </trkpt>
      <trkpt lat="44.8199" lon="0.79831">
        <ele>208.3</ele>
        <time>2026-05-02T09:58:20.000Z</time>
      </trkpt>
      <trkpt lat="44.8199" lon="0.79831">
        <ele>208.3</ele>
        <time>2026-05-02T09:58:21.000Z</time>
      </trkpt>
      <trkpt lat="44.8199" lon="0.79831">
        <ele>207.7</ele>
        <time>2026-05-02T09:58:22.000Z</time>
      </trkpt>
      <trkpt lat="44.8199" lon="0.79831">
        <ele>207.8</ele>
        <time>2026-05-02T09:58:23.000Z</time>
      </trkpt>
      <trkpt lat="44.81991" lon="0.79832">
        <ele>208</ele>
        <time>2026-05-02T09:58:24.000Z</time>
      </trkpt>
      <trkpt lat="44.81991" lon="0.79832">
        <ele>207.4</ele>
        <time>2026-05-02T09:58:25.000Z</time>
      </trkpt>
      <trkpt lat="44.8199" lon="0.79832">
        <ele>207.1</ele>
        <time>2026-05-02T09:58:26.000Z</time>
      </trkpt>
      <trkpt lat="44.8199" lon="0.79833">
        <ele>207.1</ele>
        <time>2026-05-02T09:58:27.000Z</time>
      </trkpt>
      <trkpt lat="44.81991" lon="0.79833">
        <ele>207.3</ele>
        <time>2026-05-02T09:58:28.000Z</time>
      </trkpt>
      <trkpt lat="44.81991" lon="0.79833">
        <ele>207.2</ele>
        <time>2026-05-02T09:58:29.000Z</time>
      </trkpt>
      <trkpt lat="44.81991" lon="0.79833">
        <ele>207.2</ele>
        <time>2026-05-02T09:58:30.000Z</time>
      </trkpt>
      <trkpt lat="44.8199" lon="0.79833">
        <ele>207.1</ele>
        <time>2026-05-02T09:58:31.000Z</time>
      </trkpt>
      <trkpt lat="44.81991" lon="0.79832">
        <ele>207.1</ele>
        <time>2026-05-02T09:58:32.000Z</time>
      </trkpt>
      <trkpt lat="44.81991" lon="0.79832">
        <ele>207.2</ele>
        <time>2026-05-02T09:58:33.000Z</time>
      </trkpt>
      <trkpt lat="44.81991" lon="0.79833">
        <ele>207.2</ele>
        <time>2026-05-02T09:58:34.000Z</time>
      </trkpt>
      <trkpt lat="44.81991" lon="0.79832">
        <ele>207</ele>
        <time>2026-05-02T09:58:35.000Z</time>
      </trkpt>
      <trkpt lat="44.81991" lon="0.79832">
        <ele>206.9</ele>
        <time>2026-05-02T09:58:36.000Z</time>
      </trkpt>
      <trkpt lat="44.81991" lon="0.79832">
        <ele>206.6</ele>
        <time>2026-05-02T09:58:37.000Z</time>
      </trkpt>
      <trkpt lat="44.81991" lon="0.79831">
        <ele>205.7</ele>
        <time>2026-05-02T09:58:38.000Z</time>
      </trkpt>
      <trkpt lat="44.8199" lon="0.79831">
        <ele>205.2</ele>
        <time>2026-05-02T09:58:39.000Z</time>
      </trkpt>
      <trkpt lat="44.8199" lon="0.79831">
        <ele>205</ele>
        <time>2026-05-02T09:58:40.000Z</time>
      </trkpt>
      <trkpt lat="44.8199" lon="0.79831">
        <ele>204.7</ele>
        <time>2026-05-02T09:58:41.000Z</time>
      </trkpt>
      <trkpt lat="44.8199" lon="0.79831">
        <ele>204.6</ele>
        <time>2026-05-02T09:58:42.000Z</time>
      </trkpt>
      <trkpt lat="44.8199" lon="0.79831">
        <ele>204.7</ele>
        <time>2026-05-02T09:58:43.000Z</time>
      </trkpt>
      <trkpt lat="44.8199" lon="0.79831">
        <ele>203.6</ele>
        <time>2026-05-02T09:58:44.000Z</time>
      </trkpt>
      <trkpt lat="44.81989" lon="0.79832">
        <ele>203.1</ele>
        <time>2026-05-02T09:58:45.000Z</time>
      </trkpt>
      <trkpt lat="44.81988" lon="0.79834">
        <ele>203.9</ele>
        <time>2026-05-02T09:58:46.000Z</time>
      </trkpt>
      <trkpt lat="44.81987" lon="0.79836">
        <ele>202.7</ele>
        <time>2026-05-02T09:58:47.000Z</time>
      </trkpt>
      <trkpt lat="44.81986" lon="0.79837">
        <ele>202.8</ele>
        <time>2026-05-02T09:58:48.000Z</time>
      </trkpt>
      <trkpt lat="44.81985" lon="0.79839">
        <ele>203.1</ele>
        <time>2026-05-02T09:58:49.000Z</time>
      </trkpt>
      <trkpt lat="44.81983" lon="0.79841">
        <ele>203.3</ele>
        <time>2026-05-02T09:58:50.000Z</time>
      </trkpt>
      <trkpt lat="44.81983" lon="0.79844">
        <ele>203.2</ele>
        <time>2026-05-02T09:58:51.000Z</time>
      </trkpt>
      <trkpt lat="44.81982" lon="0.79845">
        <ele>203.5</ele>
        <time>2026-05-02T09:58:52.000Z</time>
      </trkpt>
      <trkpt lat="44.81981" lon="0.79847">
        <ele>203.5</ele>
        <time>2026-05-02T09:58:53.000Z</time>
      </trkpt>
      <trkpt lat="44.81981" lon="0.79847">
        <ele>202.7</ele>
        <time>2026-05-02T09:58:54.000Z</time>
      </trkpt>
      <trkpt lat="44.8198" lon="0.79848">
        <ele>203.6</ele>
        <time>2026-05-02T09:58:55.000Z</time>
      </trkpt>
      <trkpt lat="44.81979" lon="0.79849">
        <ele>203.7</ele>
        <time>2026-05-02T09:58:56.000Z</time>
      </trkpt>
      <trkpt lat="44.81978" lon="0.7985">
        <ele>203.8</ele>
        <time>2026-05-02T09:58:57.000Z</time>
      </trkpt>
      <trkpt lat="44.81978" lon="0.79851">
        <ele>204.4</ele>
        <time>2026-05-02T09:58:58.000Z</time>
      </trkpt>
      <trkpt lat="44.81978" lon="0.79852">
        <ele>203.8</ele>
        <time>2026-05-02T09:58:59.000Z</time>
      </trkpt>
      <trkpt lat="44.81978" lon="0.79854">
        <ele>203.8</ele>
        <time>2026-05-02T09:59:00.000Z</time>
      </trkpt>
      <trkpt lat="44.81978" lon="0.79855">
        <ele>203.9</ele>
        <time>2026-05-02T09:59:01.000Z</time>
      </trkpt>
      <trkpt lat="44.81977" lon="0.79856">
        <ele>204</ele>
        <time>2026-05-02T09:59:02.000Z</time>
      </trkpt>
      <trkpt lat="44.81976" lon="0.79856">
        <ele>203.7</ele>
        <time>2026-05-02T09:59:03.000Z</time>
      </trkpt>
      <trkpt lat="44.81977" lon="0.79857">
        <ele>203.5</ele>
        <time>2026-05-02T09:59:04.000Z</time>
      </trkpt>
      <trkpt lat="44.81977" lon="0.79858">
        <ele>203.2</ele>
        <time>2026-05-02T09:59:05.000Z</time>
      </trkpt>
      <trkpt lat="44.81976" lon="0.79859">
        <ele>202.8</ele>
        <time>2026-05-02T09:59:06.000Z</time>
      </trkpt>
      <trkpt lat="44.81975" lon="0.7986">
        <ele>202.8</ele>
        <time>2026-05-02T09:59:07.000Z</time>
      </trkpt>
      <trkpt lat="44.81974" lon="0.79861">
        <ele>202.9</ele>
        <time>2026-05-02T09:59:08.000Z</time>
      </trkpt>
      <trkpt lat="44.81973" lon="0.79862">
        <ele>202.5</ele>
        <time>2026-05-02T09:59:09.000Z</time>
      </trkpt>
      <trkpt lat="44.81973" lon="0.79864">
        <ele>202.1</ele>
        <time>2026-05-02T09:59:10.000Z</time>
      </trkpt>
      <trkpt lat="44.81972" lon="0.79865">
        <ele>201.9</ele>
        <time>2026-05-02T09:59:11.000Z</time>
      </trkpt>
      <trkpt lat="44.81972" lon="0.79866">
        <ele>202.3</ele>
        <time>2026-05-02T09:59:12.000Z</time>
      </trkpt>
      <trkpt lat="44.81972" lon="0.79868">
        <ele>202.1</ele>
        <time>2026-05-02T09:59:13.000Z</time>
      </trkpt>
      <trkpt lat="44.81973" lon="0.79869">
        <ele>202.5</ele>
        <time>2026-05-02T09:59:14.000Z</time>
      </trkpt>
      <trkpt lat="44.81973" lon="0.7987">
        <ele>202.9</ele>
        <time>2026-05-02T09:59:15.000Z</time>
      </trkpt>
      <trkpt lat="44.81972" lon="0.79871">
        <ele>202.6</ele>
        <time>2026-05-02T09:59:16.000Z</time>
      </trkpt>
      <trkpt lat="44.81972" lon="0.79872">
        <ele>201</ele>
        <time>2026-05-02T09:59:17.000Z</time>
      </trkpt>
      <trkpt lat="44.81971" lon="0.79873">
        <ele>200.5</ele>
        <time>2026-05-02T09:59:18.000Z</time>
      </trkpt>
      <trkpt lat="44.81971" lon="0.79874">
        <ele>200.1</ele>
        <time>2026-05-02T09:59:19.000Z</time>
      </trkpt>
      <trkpt lat="44.8197" lon="0.79876">
        <ele>200.6</ele>
        <time>2026-05-02T09:59:20.000Z</time>
      </trkpt>
      <trkpt lat="44.81969" lon="0.79877">
        <ele>200.7</ele>
        <time>2026-05-02T09:59:21.000Z</time>
      </trkpt>
      <trkpt lat="44.81968" lon="0.79878">
        <ele>200.8</ele>
        <time>2026-05-02T09:59:22.000Z</time>
      </trkpt>
      <trkpt lat="44.81967" lon="0.79879">
        <ele>200.4</ele>
        <time>2026-05-02T09:59:23.000Z</time>
      </trkpt>
      <trkpt lat="44.81966" lon="0.7988">
        <ele>199.8</ele>
        <time>2026-05-02T09:59:24.000Z</time>
      </trkpt>
      <trkpt lat="44.81966" lon="0.79881">
        <ele>199.3</ele>
        <time>2026-05-02T09:59:25.000Z</time>
      </trkpt>
      <trkpt lat="44.81965" lon="0.79882">
        <ele>197.9</ele>
        <time>2026-05-02T09:59:26.000Z</time>
      </trkpt>
      <trkpt lat="44.81963" lon="0.79883">
        <ele>196.7</ele>
        <time>2026-05-02T09:59:27.000Z</time>
      </trkpt>
      <trkpt lat="44.81962" lon="0.79883">
        <ele>195.4</ele>
        <time>2026-05-02T09:59:28.000Z</time>
      </trkpt>
      <trkpt lat="44.81961" lon="0.79883">
        <ele>194.1</ele>
        <time>2026-05-02T09:59:29.000Z</time>
      </trkpt>
      <trkpt lat="44.8196" lon="0.79883">
        <ele>193.1</ele>
        <time>2026-05-02T09:59:30.000Z</time>
      </trkpt>
      <trkpt lat="44.8196" lon="0.79883">
        <ele>193</ele>
        <time>2026-05-02T09:59:31.000Z</time>
      </trkpt>
      <trkpt lat="44.81959" lon="0.79882">
        <ele>192.3</ele>
        <time>2026-05-02T09:59:32.000Z</time>
      </trkpt>
      <trkpt lat="44.81958" lon="0.79881">
        <ele>191.7</ele>
        <time>2026-05-02T09:59:33.000Z</time>
      </trkpt>
      <trkpt lat="44.81958" lon="0.79879">
        <ele>190.7</ele>
        <time>2026-05-02T09:59:34.000Z</time>
      </trkpt>
      <trkpt lat="44.81959" lon="0.79879">
        <ele>190.4</ele>
        <time>2026-05-02T09:59:35.000Z</time>
      </trkpt>
      <trkpt lat="44.81959" lon="0.79878">
        <ele>190</ele>
        <time>2026-05-02T09:59:36.000Z</time>
      </trkpt>
      <trkpt lat="44.81958" lon="0.79878">
        <ele>191.1</ele>
        <time>2026-05-02T09:59:37.000Z</time>
      </trkpt>
      <trkpt lat="44.81958" lon="0.79878">
        <ele>191</ele>
        <time>2026-05-02T09:59:38.000Z</time>
      </trkpt>
      <trkpt lat="44.81957" lon="0.79878">
        <ele>191</ele>
        <time>2026-05-02T09:59:39.000Z</time>
      </trkpt>
      <trkpt lat="44.81957" lon="0.79878">
        <ele>191</ele>
        <time>2026-05-02T09:59:40.000Z</time>
      </trkpt>
      <trkpt lat="44.81957" lon="0.79878">
        <ele>191</ele>
        <time>2026-05-02T09:59:41.000Z</time>
      </trkpt>
      <trkpt lat="44.81957" lon="0.79878">
        <ele>191</ele>
        <time>2026-05-02T09:59:42.000Z</time>
      </trkpt>
      <trkpt lat="44.81957" lon="0.79878">
        <ele>190.9</ele>
        <time>2026-05-02T09:59:43.000Z</time>
      </trkpt>
      <trkpt lat="44.81957" lon="0.79878">
        <ele>191.9</ele>
        <time>2026-05-02T09:59:44.000Z</time>
      </trkpt>
      <trkpt lat="44.81957" lon="0.79878">
        <ele>192.5</ele>
        <time>2026-05-02T09:59:45.000Z</time>
      </trkpt>
      <trkpt lat="44.81957" lon="0.79878">
        <ele>192.5</ele>
        <time>2026-05-02T09:59:46.000Z</time>
      </trkpt>
      <trkpt lat="44.81957" lon="0.79878">
        <ele>192.5</ele>
        <time>2026-05-02T09:59:47.000Z</time>
      </trkpt>
      <trkpt lat="44.81957" lon="0.79878">
        <ele>192.5</ele>
        <time>2026-05-02T09:59:48.000Z</time>
      </trkpt>
      <trkpt lat="44.81957" lon="0.79878">
        <ele>192.5</ele>
        <time>2026-05-02T09:59:49.000Z</time>
      </trkpt>
      <trkpt lat="44.81957" lon="0.79878">
        <ele>192.5</ele>
        <time>2026-05-02T09:59:50.000Z</time>
      </trkpt>
      <trkpt lat="44.81957" lon="0.79878">
        <ele>192.5</ele>
        <time>2026-05-02T09:59:51.000Z</time>
      </trkpt>
      <trkpt lat="44.81957" lon="0.79878">
        <ele>192.5</ele>
        <time>2026-05-02T09:59:52.000Z</time>
      </trkpt>
      <trkpt lat="44.81957" lon="0.79878">
        <ele>192.5</ele>
        <time>2026-05-02T09:59:53.000Z</time>
      </trkpt>
      <trkpt lat="44.81957" lon="0.79878">
        <ele>192.5</ele>
        <time>2026-05-02T09:59:54.000Z</time>
      </trkpt>
      <trkpt lat="44.81957" lon="0.79878">
        <ele>192.5</ele>
        <time>2026-05-02T09:59:55.000Z</time>
      </trkpt>
      <trkpt lat="44.81957" lon="0.79878">
        <ele>192.5</ele>
        <time>2026-05-02T09:59:56.000Z</time>
      </trkpt>
      <trkpt lat="44.81957" lon="0.79878">
        <ele>192.5</ele>
        <time>2026-05-02T09:59:57.000Z</time>
      </trkpt>
      <trkpt lat="44.81957" lon="0.79878">
        <ele>192.3</ele>
        <time>2026-05-02T09:59:58.000Z</time>
      </trkpt>
      <trkpt lat="44.81957" lon="0.79878">
        <ele>192.3</ele>
        <time>2026-05-02T09:59:59.000Z</time>
      </trkpt>
      <trkpt lat="44.81957" lon="0.79878">
        <ele>192.3</ele>
        <time>2026-05-02T10:00:00.000Z</time>
      </trkpt>
      <trkpt lat="44.81957" lon="0.79878">
        <ele>192.3</ele>
        <time>2026-05-02T10:00:01.000Z</time>
      </trkpt>
      <trkpt lat="44.81957" lon="0.79878">
        <ele>192.3</ele>
        <time>2026-05-02T10:00:02.000Z</time>
      </trkpt>
      <trkpt lat="44.81957" lon="0.79878">
        <ele>192.4</ele>
        <time>2026-05-02T10:00:03.000Z</time>
      </trkpt>
      <trkpt lat="44.81956" lon="0.79878">
        <ele>192.4</ele>
        <time>2026-05-02T10:00:04.000Z</time>
      </trkpt>
      <trkpt lat="44.81956" lon="0.79878">
        <ele>192.4</ele>
        <time>2026-05-02T10:00:05.000Z</time>
      </trkpt>
      <trkpt lat="44.81956" lon="0.79878">
        <ele>192.4</ele>
        <time>2026-05-02T10:00:06.000Z</time>
      </trkpt>
      <trkpt lat="44.81956" lon="0.79878">
        <ele>192.5</ele>
        <time>2026-05-02T10:00:07.000Z</time>
      </trkpt>
      <trkpt lat="44.81957" lon="0.79879">
        <ele>191.9</ele>
        <time>2026-05-02T10:00:08.000Z</time>
      </trkpt>
      <trkpt lat="44.81957" lon="0.7988">
        <ele>192.3</ele>
        <time>2026-05-02T10:00:09.000Z</time>
      </trkpt>
      <trkpt lat="44.81957" lon="0.7988">
        <ele>192.2</ele>
        <time>2026-05-02T10:00:10.000Z</time>
      </trkpt>
      <trkpt lat="44.81958" lon="0.79881">
        <ele>192.9</ele>
        <time>2026-05-02T10:00:11.000Z</time>
      </trkpt>
      <trkpt lat="44.81958" lon="0.79882">
        <ele>192.9</ele>
        <time>2026-05-02T10:00:12.000Z</time>
      </trkpt>
      <trkpt lat="44.81957" lon="0.79882">
        <ele>193.6</ele>
        <time>2026-05-02T10:00:13.000Z</time>
      </trkpt>
      <trkpt lat="44.81957" lon="0.79882">
        <ele>193.8</ele>
        <time>2026-05-02T10:00:14.000Z</time>
      </trkpt>
      <trkpt lat="44.81956" lon="0.79882">
        <ele>193.8</ele>
        <time>2026-05-02T10:00:15.000Z</time>
      </trkpt>
      <trkpt lat="44.81956" lon="0.79882">
        <ele>193.7</ele>
        <time>2026-05-02T10:00:16.000Z</time>
      </trkpt>
      <trkpt lat="44.81956" lon="0.79882">
        <ele>193.7</ele>
        <time>2026-05-02T10:00:17.000Z</time>
      </trkpt>
      <trkpt lat="44.81956" lon="0.79882">
        <ele>193.7</ele>
        <time>2026-05-02T10:00:18.000Z</time>
      </trkpt>
      <trkpt lat="44.81956" lon="0.79882">
        <ele>193.7</ele>
        <time>2026-05-02T10:00:19.000Z</time>
      </trkpt>
      <trkpt lat="44.81956" lon="0.79882">
        <ele>193.7</ele>
        <time>2026-05-02T10:00:20.000Z</time>
      </trkpt>
      <trkpt lat="44.81956" lon="0.79882">
        <ele>193.7</ele>
        <time>2026-05-02T10:00:21.000Z</time>
      </trkpt>
      <trkpt lat="44.81956" lon="0.79882">
        <ele>193.7</ele>
        <time>2026-05-02T10:00:22.000Z</time>
      </trkpt>
      <trkpt lat="44.81956" lon="0.79882">
        <ele>193.8</ele>
        <time>2026-05-02T10:00:23.000Z</time>
      </trkpt>
      <trkpt lat="44.81956" lon="0.79882">
        <ele>193.8</ele>
        <time>2026-05-02T10:00:24.000Z</time>
      </trkpt>
      <trkpt lat="44.81956" lon="0.79882">
        <ele>193.8</ele>
        <time>2026-05-02T10:00:25.000Z</time>
      </trkpt>
      <trkpt lat="44.81956" lon="0.79882">
        <ele>193.8</ele>
        <time>2026-05-02T10:00:26.000Z</time>
      </trkpt>
      <trkpt lat="44.81956" lon="0.79882">
        <ele>193.8</ele>
        <time>2026-05-02T10:00:27.000Z</time>
      </trkpt>
      <trkpt lat="44.81956" lon="0.79882">
        <ele>193.8</ele>
        <time>2026-05-02T10:00:28.000Z</time>
      </trkpt>
      <trkpt lat="44.81956" lon="0.79882">
        <ele>194.1</ele>
        <time>2026-05-02T10:00:29.000Z</time>
      </trkpt>
      <trkpt lat="44.81956" lon="0.79882">
        <ele>194.1</ele>
        <time>2026-05-02T10:00:30.000Z</time>
      </trkpt>
      <trkpt lat="44.81956" lon="0.79882">
        <ele>194.1</ele>
        <time>2026-05-02T10:00:31.000Z</time>
      </trkpt>
      <trkpt lat="44.81956" lon="0.79882">
        <ele>194.1</ele>
        <time>2026-05-02T10:00:32.000Z</time>
      </trkpt>
      <trkpt lat="44.81956" lon="0.79882">
        <ele>194.1</ele>
        <time>2026-05-02T10:00:33.000Z</time>
      </trkpt>
      <trkpt lat="44.81956" lon="0.79882">
        <ele>194.1</ele>
        <time>2026-05-02T10:00:34.000Z</time>
      </trkpt>
      <trkpt lat="44.81956" lon="0.79882">
        <ele>194.1</ele>
        <time>2026-05-02T10:00:35.000Z</time>
      </trkpt>
      <trkpt lat="44.81956" lon="0.79882">
        <ele>194.1</ele>
        <time>2026-05-02T10:00:36.000Z</time>
      </trkpt>
      <trkpt lat="44.81956" lon="0.79882">
        <ele>194.1</ele>
        <time>2026-05-02T10:00:37.000Z</time>
      </trkpt>
      <trkpt lat="44.81956" lon="0.79882">
        <ele>194.1</ele>
        <time>2026-05-02T10:00:38.000Z</time>
      </trkpt>
      <trkpt lat="44.81956" lon="0.79882">
        <ele>194.1</ele>
        <time>2026-05-02T10:00:39.000Z</time>
      </trkpt>
      <trkpt lat="44.81956" lon="0.79882">
        <ele>194.2</ele>
        <time>2026-05-02T10:00:40.000Z</time>
      </trkpt>
      <trkpt lat="44.81956" lon="0.79882">
        <ele>194.2</ele>
        <time>2026-05-02T10:00:41.000Z</time>
      </trkpt>
      <trkpt lat="44.81956" lon="0.79882">
        <ele>194.2</ele>
        <time>2026-05-02T10:00:42.000Z</time>
      </trkpt>
      <trkpt lat="44.81956" lon="0.79882">
        <ele>194.2</ele>
        <time>2026-05-02T10:00:43.000Z</time>
      </trkpt>
      <trkpt lat="44.81956" lon="0.79882">
        <ele>194.2</ele>
        <time>2026-05-02T10:00:44.000Z</time>
      </trkpt>
      <trkpt lat="44.81956" lon="0.79882">
        <ele>194.2</ele>
        <time>2026-05-02T10:00:45.000Z</time>
      </trkpt>
      <trkpt lat="44.81956" lon="0.79882">
        <ele>194.2</ele>
        <time>2026-05-02T10:00:46.000Z</time>
      </trkpt>
      <trkpt lat="44.81956" lon="0.79882">
        <ele>194.2</ele>
        <time>2026-05-02T10:00:47.000Z</time>
      </trkpt>
      <trkpt lat="44.81956" lon="0.79882">
        <ele>194.2</ele>
        <time>2026-05-02T10:00:48.000Z</time>
      </trkpt>
      <trkpt lat="44.81956" lon="0.79882">
        <ele>194.2</ele>
        <time>2026-05-02T10:00:49.000Z</time>
      </trkpt>
      <trkpt lat="44.81956" lon="0.79882">
        <ele>194.2</ele>
        <time>2026-05-02T10:00:50.000Z</time>
      </trkpt>
      <trkpt lat="44.81956" lon="0.79882">
        <ele>194.2</ele>
        <time>2026-05-02T10:00:51.000Z</time>
      </trkpt>
      <trkpt lat="44.81956" lon="0.79882">
        <ele>194.2</ele>
        <time>2026-05-02T10:00:52.000Z</time>
      </trkpt>
      <trkpt lat="44.81956" lon="0.79882">
        <ele>194.2</ele>
        <time>2026-05-02T10:00:53.000Z</time>
      </trkpt>
      <trkpt lat="44.81956" lon="0.79882">
        <ele>194.2</ele>
        <time>2026-05-02T10:00:54.000Z</time>
      </trkpt>
      <trkpt lat="44.81956" lon="0.79882">
        <ele>194.2</ele>
        <time>2026-05-02T10:00:55.000Z</time>
      </trkpt>
      <trkpt lat="44.81956" lon="0.79882">
        <ele>194.2</ele>
        <time>2026-05-02T10:00:56.000Z</time>
      </trkpt>
      <trkpt lat="44.81956" lon="0.79882">
        <ele>194.2</ele>
        <time>2026-05-02T10:00:57.000Z</time>
      </trkpt>
      <trkpt lat="44.81956" lon="0.79882">
        <ele>194.2</ele>
        <time>2026-05-02T10:00:58.000Z</time>
      </trkpt>
      <trkpt lat="44.81956" lon="0.79882">
        <ele>194.2</ele>
        <time>2026-05-02T10:00:59.000Z</time>
      </trkpt>
      <trkpt lat="44.81955" lon="0.79881">
        <ele>194.3</ele>
        <time>2026-05-02T10:01:00.000Z</time>
      </trkpt>
      <trkpt lat="44.81955" lon="0.79882">
        <ele>194.6</ele>
        <time>2026-05-02T10:01:01.000Z</time>
      </trkpt>
      <trkpt lat="44.81954" lon="0.79882">
        <ele>195</ele>
        <time>2026-05-02T10:01:02.000Z</time>
      </trkpt>
      <trkpt lat="44.81954" lon="0.79882">
        <ele>195.1</ele>
        <time>2026-05-02T10:01:03.000Z</time>
      </trkpt>
      <trkpt lat="44.81954" lon="0.79882">
        <ele>195.1</ele>
        <time>2026-05-02T10:01:04.000Z</time>
      </trkpt>
      <trkpt lat="44.81954" lon="0.79882">
        <ele>195.1</ele>
        <time>2026-05-02T10:01:05.000Z</time>
      </trkpt>
      <trkpt lat="44.81954" lon="0.79882">
        <ele>195.1</ele>
        <time>2026-05-02T10:01:06.000Z</time>
      </trkpt>
      <trkpt lat="44.81954" lon="0.79882">
        <ele>195.1</ele>
        <time>2026-05-02T10:01:07.000Z</time>
      </trkpt>
      <trkpt lat="44.81954" lon="0.79882">
        <ele>195.1</ele>
        <time>2026-05-02T10:01:08.000Z</time>
      </trkpt>
      <trkpt lat="44.81954" lon="0.79882">
        <ele>195.1</ele>
        <time>2026-05-02T10:01:09.000Z</time>
      </trkpt>
      <trkpt lat="44.81954" lon="0.79882">
        <ele>195.1</ele>
        <time>2026-05-02T10:01:10.000Z</time>
      </trkpt>
      <trkpt lat="44.81954" lon="0.79882">
        <ele>195.1</ele>
        <time>2026-05-02T10:01:11.000Z</time>
      </trkpt>
      <trkpt lat="44.81954" lon="0.79882">
        <ele>195.1</ele>
        <time>2026-05-02T10:01:12.000Z</time>
      </trkpt>
      <trkpt lat="44.81954" lon="0.79882">
        <ele>195.1</ele>
        <time>2026-05-02T10:01:13.000Z</time>
      </trkpt>
      <trkpt lat="44.81954" lon="0.79882">
        <ele>195.1</ele>
        <time>2026-05-02T10:01:14.000Z</time>
      </trkpt>
      <trkpt lat="44.81954" lon="0.79882">
        <ele>195.1</ele>
        <time>2026-05-02T10:01:15.000Z</time>
      </trkpt>
      <trkpt lat="44.81954" lon="0.79882">
        <ele>195.1</ele>
        <time>2026-05-02T10:01:16.000Z</time>
      </trkpt>
      <trkpt lat="44.81954" lon="0.79882">
        <ele>195.1</ele>
        <time>2026-05-02T10:01:17.000Z</time>
      </trkpt>
      <trkpt lat="44.81954" lon="0.79882">
        <ele>195.1</ele>
        <time>2026-05-02T10:01:18.000Z</time>
      </trkpt>
      <trkpt lat="44.81954" lon="0.79882">
        <ele>195.1</ele>
        <time>2026-05-02T10:01:19.000Z</time>
      </trkpt>
      <trkpt lat="44.81954" lon="0.79882">
        <ele>195.1</ele>
        <time>2026-05-02T10:01:20.000Z</time>
      </trkpt>
      <trkpt lat="44.81954" lon="0.79882">
        <ele>195.1</ele>
        <time>2026-05-02T10:01:21.000Z</time>
      </trkpt>
      <trkpt lat="44.81954" lon="0.79882">
        <ele>195.1</ele>
        <time>2026-05-02T10:01:22.000Z</time>
      </trkpt>
      <trkpt lat="44.81954" lon="0.79882">
        <ele>195.1</ele>
        <time>2026-05-02T10:01:23.000Z</time>
      </trkpt>
      <trkpt lat="44.81954" lon="0.79882">
        <ele>195.1</ele>
        <time>2026-05-02T10:01:24.000Z</time>
      </trkpt>
      <trkpt lat="44.81954" lon="0.79882">
        <ele>195.1</ele>
        <time>2026-05-02T10:01:25.000Z</time>
      </trkpt>
      <trkpt lat="44.81954" lon="0.79882">
        <ele>195.1</ele>
        <time>2026-05-02T10:01:26.000Z</time>
      </trkpt>
      <trkpt lat="44.81954" lon="0.79882">
        <ele>194.6</ele>
        <time>2026-05-02T10:01:27.000Z</time>
      </trkpt>
      <trkpt lat="44.81954" lon="0.79882">
        <ele>194.4</ele>
        <time>2026-05-02T10:01:28.000Z</time>
      </trkpt>
      <trkpt lat="44.81953" lon="0.79882">
        <ele>194.4</ele>
        <time>2026-05-02T10:01:29.000Z</time>
      </trkpt>
      <trkpt lat="44.81953" lon="0.79882">
        <ele>194.4</ele>
        <time>2026-05-02T10:01:30.000Z</time>
      </trkpt>
      <trkpt lat="44.81953" lon="0.79882">
        <ele>194.1</ele>
        <time>2026-05-02T10:01:31.000Z</time>
      </trkpt>
      <trkpt lat="44.81953" lon="0.79882">
        <ele>195</ele>
        <time>2026-05-02T10:01:32.000Z</time>
      </trkpt>
      <trkpt lat="44.81953" lon="0.79882">
        <ele>194.8</ele>
        <time>2026-05-02T10:01:33.000Z</time>
      </trkpt>
      <trkpt lat="44.81952" lon="0.79881">
        <ele>194.9</ele>
        <time>2026-05-02T10:01:34.000Z</time>
      </trkpt>
      <trkpt lat="44.81952" lon="0.79881">
        <ele>195.2</ele>
        <time>2026-05-02T10:01:35.000Z</time>
      </trkpt>
      <trkpt lat="44.81952" lon="0.79883">
        <ele>195.1</ele>
        <time>2026-05-02T10:01:36.000Z</time>
      </trkpt>
      <trkpt lat="44.81952" lon="0.79883">
        <ele>195.2</ele>
        <time>2026-05-02T10:01:37.000Z</time>
      </trkpt>
      <trkpt lat="44.81952" lon="0.79884">
        <ele>195</ele>
        <time>2026-05-02T10:01:38.000Z</time>
      </trkpt>
      <trkpt lat="44.81952" lon="0.79884">
        <ele>194.6</ele>
        <time>2026-05-02T10:01:39.000Z</time>
      </trkpt>
      <trkpt lat="44.81952" lon="0.79884">
        <ele>194.2</ele>
        <time>2026-05-02T10:01:40.000Z</time>
      </trkpt>
      <trkpt lat="44.81951" lon="0.79884">
        <ele>193.1</ele>
        <time>2026-05-02T10:01:41.000Z</time>
      </trkpt>
      <trkpt lat="44.8195" lon="0.79884">
        <ele>192.3</ele>
        <time>2026-05-02T10:01:42.000Z</time>
      </trkpt>
      <trkpt lat="44.81948" lon="0.79884">
        <ele>191.8</ele>
        <time>2026-05-02T10:01:43.000Z</time>
      </trkpt>
      <trkpt lat="44.81949" lon="0.79884">
        <ele>192.5</ele>
        <time>2026-05-02T10:01:44.000Z</time>
      </trkpt>
      <trkpt lat="44.8195" lon="0.79884">
        <ele>192.2</ele>
        <time>2026-05-02T10:01:45.000Z</time>
      </trkpt>
      <trkpt lat="44.8195" lon="0.79884">
        <ele>192.2</ele>
        <time>2026-05-02T10:01:46.000Z</time>
      </trkpt>
      <trkpt lat="44.8195" lon="0.79885">
        <ele>192.2</ele>
        <time>2026-05-02T10:01:47.000Z</time>
      </trkpt>
      <trkpt lat="44.8195" lon="0.79885">
        <ele>192.2</ele>
        <time>2026-05-02T10:01:48.000Z</time>
      </trkpt>
      <trkpt lat="44.8195" lon="0.79885">
        <ele>192.1</ele>
        <time>2026-05-02T10:01:49.000Z</time>
      </trkpt>
      <trkpt lat="44.81949" lon="0.79885">
        <ele>191.8</ele>
        <time>2026-05-02T10:01:50.000Z</time>
      </trkpt>
      <trkpt lat="44.81949" lon="0.79885">
        <ele>192.1</ele>
        <time>2026-05-02T10:01:51.000Z</time>
      </trkpt>
      <trkpt lat="44.81949" lon="0.79886">
        <ele>192.1</ele>
        <time>2026-05-02T10:01:52.000Z</time>
      </trkpt>
      <trkpt lat="44.81949" lon="0.79886">
        <ele>192.1</ele>
        <time>2026-05-02T10:01:53.000Z</time>
      </trkpt>
      <trkpt lat="44.81949" lon="0.79886">
        <ele>192.2</ele>
        <time>2026-05-02T10:01:54.000Z</time>
      </trkpt>
      <trkpt lat="44.81949" lon="0.79886">
        <ele>192.2</ele>
        <time>2026-05-02T10:01:55.000Z</time>
      </trkpt>
      <trkpt lat="44.81949" lon="0.79886">
        <ele>192.2</ele>
        <time>2026-05-02T10:01:56.000Z</time>
      </trkpt>
      <trkpt lat="44.81949" lon="0.79885">
        <ele>192.1</ele>
        <time>2026-05-02T10:01:57.000Z</time>
      </trkpt>
      <trkpt lat="44.8195" lon="0.79885">
        <ele>192.1</ele>
        <time>2026-05-02T10:01:58.000Z</time>
      </trkpt>
      <trkpt lat="44.8195" lon="0.79885">
        <ele>192.1</ele>
        <time>2026-05-02T10:01:59.000Z</time>
      </trkpt>
      <trkpt lat="44.8195" lon="0.79885">
        <ele>192.5</ele>
        <time>2026-05-02T10:02:00.000Z</time>
      </trkpt>
      <trkpt lat="44.8195" lon="0.79885">
        <ele>192.8</ele>
        <time>2026-05-02T10:02:01.000Z</time>
      </trkpt>
      <trkpt lat="44.81949" lon="0.79885">
        <ele>192.8</ele>
        <time>2026-05-02T10:02:02.000Z</time>
      </trkpt>
      <trkpt lat="44.81949" lon="0.79886">
        <ele>192.8</ele>
        <time>2026-05-02T10:02:03.000Z</time>
      </trkpt>
      <trkpt lat="44.81949" lon="0.79886">
        <ele>193.3</ele>
        <time>2026-05-02T10:02:04.000Z</time>
      </trkpt>
      <trkpt lat="44.81948" lon="0.79885">
        <ele>193.7</ele>
        <time>2026-05-02T10:02:05.000Z</time>
      </trkpt>
      <trkpt lat="44.81948" lon="0.79885">
        <ele>193.7</ele>
        <time>2026-05-02T10:02:06.000Z</time>
      </trkpt>
      <trkpt lat="44.81948" lon="0.79885">
        <ele>193.8</ele>
        <time>2026-05-02T10:02:07.000Z</time>
      </trkpt>
      <trkpt lat="44.81948" lon="0.79886">
        <ele>194.6</ele>
        <time>2026-05-02T10:02:08.000Z</time>
      </trkpt>
      <trkpt lat="44.81948" lon="0.79886">
        <ele>194.5</ele>
        <time>2026-05-02T10:02:09.000Z</time>
      </trkpt>
      <trkpt lat="44.81948" lon="0.79886">
        <ele>194.6</ele>
        <time>2026-05-02T10:02:10.000Z</time>
      </trkpt>
      <trkpt lat="44.81948" lon="0.79886">
        <ele>194.6</ele>
        <time>2026-05-02T10:02:11.000Z</time>
      </trkpt>
      <trkpt lat="44.81948" lon="0.79886">
        <ele>194.6</ele>
        <time>2026-05-02T10:02:12.000Z</time>
      </trkpt>
      <trkpt lat="44.81948" lon="0.79886">
        <ele>194.6</ele>
        <time>2026-05-02T10:02:13.000Z</time>
      </trkpt>
      <trkpt lat="44.81948" lon="0.79886">
        <ele>194.6</ele>
        <time>2026-05-02T10:02:14.000Z</time>
      </trkpt>
      <trkpt lat="44.81948" lon="0.79886">
        <ele>194.6</ele>
        <time>2026-05-02T10:02:15.000Z</time>
      </trkpt>
      <trkpt lat="44.81948" lon="0.79886">
        <ele>194.6</ele>
        <time>2026-05-02T10:02:16.000Z</time>
      </trkpt>
      <trkpt lat="44.81948" lon="0.79886">
        <ele>194.6</ele>
        <time>2026-05-02T10:02:17.000Z</time>
      </trkpt>
      <trkpt lat="44.81948" lon="0.79886">
        <ele>194.6</ele>
        <time>2026-05-02T10:02:18.000Z</time>
      </trkpt>
      <trkpt lat="44.81948" lon="0.79886">
        <ele>194.6</ele>
        <time>2026-05-02T10:02:19.000Z</time>
      </trkpt>
      <trkpt lat="44.81948" lon="0.79886">
        <ele>194.6</ele>
        <time>2026-05-02T10:02:20.000Z</time>
      </trkpt>
      <trkpt lat="44.81948" lon="0.79886">
        <ele>194.6</ele>
        <time>2026-05-02T10:02:21.000Z</time>
      </trkpt>
      <trkpt lat="44.81948" lon="0.79886">
        <ele>194.6</ele>
        <time>2026-05-02T10:02:22.000Z</time>
      </trkpt>
      <trkpt lat="44.81948" lon="0.79886">
        <ele>194.6</ele>
        <time>2026-05-02T10:02:23.000Z</time>
      </trkpt>
      <trkpt lat="44.81948" lon="0.79886">
        <ele>194.6</ele>
        <time>2026-05-02T10:02:24.000Z</time>
      </trkpt>
      <trkpt lat="44.81948" lon="0.79886">
        <ele>194.6</ele>
        <time>2026-05-02T10:02:25.000Z</time>
      </trkpt>
      <trkpt lat="44.81948" lon="0.79886">
        <ele>194.6</ele>
        <time>2026-05-02T10:02:26.000Z</time>
      </trkpt>
      <trkpt lat="44.81948" lon="0.79886">
        <ele>194.6</ele>
        <time>2026-05-02T10:02:27.000Z</time>
      </trkpt>
      <trkpt lat="44.81948" lon="0.79886">
        <ele>194.6</ele>
        <time>2026-05-02T10:02:28.000Z</time>
      </trkpt>
      <trkpt lat="44.81948" lon="0.79886">
        <ele>194.6</ele>
        <time>2026-05-02T10:02:29.000Z</time>
      </trkpt>
      <trkpt lat="44.81948" lon="0.79886">
        <ele>194.6</ele>
        <time>2026-05-02T10:02:30.000Z</time>
      </trkpt>
      <trkpt lat="44.81948" lon="0.79886">
        <ele>194.6</ele>
        <time>2026-05-02T10:02:31.000Z</time>
      </trkpt>
      <trkpt lat="44.81948" lon="0.79886">
        <ele>194.6</ele>
        <time>2026-05-02T10:02:32.000Z</time>
      </trkpt>
      <trkpt lat="44.81948" lon="0.79886">
        <ele>194.6</ele>
        <time>2026-05-02T10:02:33.000Z</time>
      </trkpt>
      <trkpt lat="44.81948" lon="0.79886">
        <ele>194.6</ele>
        <time>2026-05-02T10:02:34.000Z</time>
      </trkpt>
      <trkpt lat="44.81948" lon="0.79886">
        <ele>194.6</ele>
        <time>2026-05-02T10:02:35.000Z</time>
      </trkpt>
      <trkpt lat="44.81948" lon="0.79886">
        <ele>194.6</ele>
        <time>2026-05-02T10:02:36.000Z</time>
      </trkpt>
      <trkpt lat="44.81948" lon="0.79886">
        <ele>194.6</ele>
        <time>2026-05-02T10:02:37.000Z</time>
      </trkpt>
      <trkpt lat="44.81948" lon="0.79886">
        <ele>194.6</ele>
        <time>2026-05-02T10:02:38.000Z</time>
      </trkpt>
      <trkpt lat="44.81948" lon="0.79886">
        <ele>194.6</ele>
        <time>2026-05-02T10:02:39.000Z</time>
      </trkpt>
      <trkpt lat="44.81948" lon="0.79886">
        <ele>194.6</ele>
        <time>2026-05-02T10:02:40.000Z</time>
      </trkpt>
      <trkpt lat="44.81948" lon="0.79886">
        <ele>194.6</ele>
        <time>2026-05-02T10:02:41.000Z</time>
      </trkpt>
      <trkpt lat="44.81948" lon="0.79886">
        <ele>194.6</ele>
        <time>2026-05-02T10:02:42.000Z</time>
      </trkpt>
      <trkpt lat="44.81948" lon="0.79886">
        <ele>194.6</ele>
        <time>2026-05-02T10:02:43.000Z</time>
      </trkpt>
      <trkpt lat="44.81948" lon="0.79886">
        <ele>194.6</ele>
        <time>2026-05-02T10:02:44.000Z</time>
      </trkpt>
      <trkpt lat="44.81948" lon="0.79886">
        <ele>194.6</ele>
        <time>2026-05-02T10:02:45.000Z</time>
      </trkpt>
      <trkpt lat="44.81948" lon="0.79887">
        <ele>195.6</ele>
        <time>2026-05-02T10:02:46.000Z</time>
      </trkpt>
      <trkpt lat="44.81948" lon="0.79887">
        <ele>196</ele>
        <time>2026-05-02T10:02:47.000Z</time>
      </trkpt>
      <trkpt lat="44.81948" lon="0.79887">
        <ele>196</ele>
        <time>2026-05-02T10:02:48.000Z</time>
      </trkpt>
      <trkpt lat="44.81948" lon="0.79887">
        <ele>196.1</ele>
        <time>2026-05-02T10:02:49.000Z</time>
      </trkpt>
      <trkpt lat="44.81948" lon="0.79887">
        <ele>196.1</ele>
        <time>2026-05-02T10:02:50.000Z</time>
      </trkpt>
      <trkpt lat="44.81948" lon="0.79887">
        <ele>196.3</ele>
        <time>2026-05-02T10:02:51.000Z</time>
      </trkpt>
      <trkpt lat="44.81948" lon="0.79887">
        <ele>196.3</ele>
        <time>2026-05-02T10:02:52.000Z</time>
      </trkpt>
      <trkpt lat="44.81948" lon="0.79887">
        <ele>196.3</ele>
        <time>2026-05-02T10:02:53.000Z</time>
      </trkpt>
      <trkpt lat="44.81948" lon="0.79887">
        <ele>196.3</ele>
        <time>2026-05-02T10:02:54.000Z</time>
      </trkpt>
      <trkpt lat="44.81948" lon="0.79887">
        <ele>196.3</ele>
        <time>2026-05-02T10:02:55.000Z</time>
      </trkpt>
      <trkpt lat="44.81948" lon="0.79887">
        <ele>196.3</ele>
        <time>2026-05-02T10:02:56.000Z</time>
      </trkpt>
      <trkpt lat="44.81948" lon="0.79887">
        <ele>196.3</ele>
        <time>2026-05-02T10:02:57.000Z</time>
      </trkpt>
      <trkpt lat="44.81948" lon="0.79887">
        <ele>196.3</ele>
        <time>2026-05-02T10:02:58.000Z</time>
      </trkpt>
      <trkpt lat="44.81948" lon="0.79887">
        <ele>196.3</ele>
        <time>2026-05-02T10:02:59.000Z</time>
      </trkpt>
      <trkpt lat="44.81948" lon="0.79887">
        <ele>196.3</ele>
        <time>2026-05-02T10:03:00.000Z</time>
      </trkpt>
      <trkpt lat="44.81948" lon="0.79887">
        <ele>196.3</ele>
        <time>2026-05-02T10:03:01.000Z</time>
      </trkpt>
      <trkpt lat="44.81948" lon="0.79887">
        <ele>196.6</ele>
        <time>2026-05-02T10:03:02.000Z</time>
      </trkpt>
      <trkpt lat="44.81949" lon="0.79887">
        <ele>197.6</ele>
        <time>2026-05-02T10:03:03.000Z</time>
      </trkpt>
      <trkpt lat="44.8195" lon="0.79886">
        <ele>197.3</ele>
        <time>2026-05-02T10:03:04.000Z</time>
      </trkpt>
      <trkpt lat="44.81951" lon="0.79886">
        <ele>197.2</ele>
        <time>2026-05-02T10:03:05.000Z</time>
      </trkpt>
      <trkpt lat="44.81952" lon="0.79885">
        <ele>197</ele>
        <time>2026-05-02T10:03:06.000Z</time>
      </trkpt>
      <trkpt lat="44.81953" lon="0.79884">
        <ele>196.4</ele>
        <time>2026-05-02T10:03:07.000Z</time>
      </trkpt>
      <trkpt lat="44.81953" lon="0.79883">
        <ele>195</ele>
        <time>2026-05-02T10:03:08.000Z</time>
      </trkpt>
      <trkpt lat="44.81951" lon="0.79886">
        <ele>198.7</ele>
        <time>2026-05-02T10:03:09.000Z</time>
      </trkpt>
      <trkpt lat="44.81952" lon="0.79888">
        <ele>199.2</ele>
        <time>2026-05-02T10:03:10.000Z</time>
      </trkpt>
      <trkpt lat="44.81952" lon="0.7989">
        <ele>199.4</ele>
        <time>2026-05-02T10:03:11.000Z</time>
      </trkpt>
      <trkpt lat="44.81952" lon="0.79891">
        <ele>199</ele>
        <time>2026-05-02T10:03:12.000Z</time>
      </trkpt>
      <trkpt lat="44.81951" lon="0.79891">
        <ele>198.8</ele>
        <time>2026-05-02T10:03:13.000Z</time>
      </trkpt>
      <trkpt lat="44.8195" lon="0.79892">
        <ele>198.7</ele>
        <time>2026-05-02T10:03:14.000Z</time>
      </trkpt>
      <trkpt lat="44.8195" lon="0.79892">
        <ele>198.7</ele>
        <time>2026-05-02T10:03:15.000Z</time>
      </trkpt>
      <trkpt lat="44.8195" lon="0.79891">
        <ele>198.7</ele>
        <time>2026-05-02T10:03:16.000Z</time>
      </trkpt>
      <trkpt lat="44.8195" lon="0.79891">
        <ele>198.7</ele>
        <time>2026-05-02T10:03:17.000Z</time>
      </trkpt>
      <trkpt lat="44.8195" lon="0.7989">
        <ele>198.7</ele>
        <time>2026-05-02T10:03:18.000Z</time>
      </trkpt>
      <trkpt lat="44.8195" lon="0.7989">
        <ele>198.7</ele>
        <time>2026-05-02T10:03:19.000Z</time>
      </trkpt>
      <trkpt lat="44.81949" lon="0.79891">
        <ele>198.7</ele>
        <time>2026-05-02T10:03:20.000Z</time>
      </trkpt>
      <trkpt lat="44.81948" lon="0.79891">
        <ele>198.1</ele>
        <time>2026-05-02T10:03:21.000Z</time>
      </trkpt>
      <trkpt lat="44.81948" lon="0.7989">
        <ele>198.1</ele>
        <time>2026-05-02T10:03:22.000Z</time>
      </trkpt>
      <trkpt lat="44.81949" lon="0.79891">
        <ele>198.3</ele>
        <time>2026-05-02T10:03:23.000Z</time>
      </trkpt>
      <trkpt lat="44.81949" lon="0.79891">
        <ele>198.3</ele>
        <time>2026-05-02T10:03:24.000Z</time>
      </trkpt>
      <trkpt lat="44.81949" lon="0.79891">
        <ele>198.3</ele>
        <time>2026-05-02T10:03:25.000Z</time>
      </trkpt>
      <trkpt lat="44.81949" lon="0.79891">
        <ele>198.1</ele>
        <time>2026-05-02T10:03:26.000Z</time>
      </trkpt>
      <trkpt lat="44.81949" lon="0.79891">
        <ele>197.5</ele>
        <time>2026-05-02T10:03:27.000Z</time>
      </trkpt>
      <trkpt lat="44.81949" lon="0.79891">
        <ele>197.4</ele>
        <time>2026-05-02T10:03:28.000Z</time>
      </trkpt>
      <trkpt lat="44.81949" lon="0.79891">
        <ele>197.4</ele>
        <time>2026-05-02T10:03:29.000Z</time>
      </trkpt>
      <trkpt lat="44.81949" lon="0.79891">
        <ele>197.4</ele>
        <time>2026-05-02T10:03:30.000Z</time>
      </trkpt>
      <trkpt lat="44.81949" lon="0.79891">
        <ele>197.4</ele>
        <time>2026-05-02T10:03:31.000Z</time>
      </trkpt>
      <trkpt lat="44.81949" lon="0.79891">
        <ele>197.4</ele>
        <time>2026-05-02T10:03:32.000Z</time>
      </trkpt>
      <trkpt lat="44.81949" lon="0.79891">
        <ele>197.4</ele>
        <time>2026-05-02T10:03:33.000Z</time>
      </trkpt>
      <trkpt lat="44.81949" lon="0.79891">
        <ele>197.4</ele>
        <time>2026-05-02T10:03:34.000Z</time>
      </trkpt>
      <trkpt lat="44.81949" lon="0.79891">
        <ele>197.4</ele>
        <time>2026-05-02T10:03:35.000Z</time>
      </trkpt>
      <trkpt lat="44.81949" lon="0.79891">
        <ele>197.4</ele>
        <time>2026-05-02T10:03:36.000Z</time>
      </trkpt>
      <trkpt lat="44.81949" lon="0.79891">
        <ele>197.4</ele>
        <time>2026-05-02T10:03:37.000Z</time>
      </trkpt>
      <trkpt lat="44.81949" lon="0.79891">
        <ele>197.4</ele>
        <time>2026-05-02T10:03:38.000Z</time>
      </trkpt>
      <trkpt lat="44.81949" lon="0.79891">
        <ele>197.4</ele>
        <time>2026-05-02T10:03:39.000Z</time>
      </trkpt>
      <trkpt lat="44.81949" lon="0.79891">
        <ele>197.4</ele>
        <time>2026-05-02T10:03:40.000Z</time>
      </trkpt>
      <trkpt lat="44.81949" lon="0.79891">
        <ele>197.4</ele>
        <time>2026-05-02T10:03:41.000Z</time>
      </trkpt>
      <trkpt lat="44.81949" lon="0.79891">
        <ele>197.4</ele>
        <time>2026-05-02T10:03:42.000Z</time>
      </trkpt>
      <trkpt lat="44.81949" lon="0.79891">
        <ele>197.4</ele>
        <time>2026-05-02T10:03:43.000Z</time>
      </trkpt>
      <trkpt lat="44.81949" lon="0.79891">
        <ele>197.4</ele>
        <time>2026-05-02T10:03:44.000Z</time>
      </trkpt>
      <trkpt lat="44.81949" lon="0.79891">
        <ele>197.4</ele>
        <time>2026-05-02T10:03:45.000Z</time>
      </trkpt>
      <trkpt lat="44.81949" lon="0.7989">
        <ele>197.2</ele>
        <time>2026-05-02T10:03:46.000Z</time>
      </trkpt>
      <trkpt lat="44.81949" lon="0.7989">
        <ele>197.2</ele>
        <time>2026-05-02T10:03:47.000Z</time>
      </trkpt>
      <trkpt lat="44.81949" lon="0.7989">
        <ele>197.2</ele>
        <time>2026-05-02T10:03:48.000Z</time>
      </trkpt>
      <trkpt lat="44.81949" lon="0.7989">
        <ele>197.2</ele>
        <time>2026-05-02T10:03:49.000Z</time>
      </trkpt>
      <trkpt lat="44.81949" lon="0.7989">
        <ele>197.2</ele>
        <time>2026-05-02T10:03:50.000Z</time>
      </trkpt>
      <trkpt lat="44.81949" lon="0.7989">
        <ele>197.2</ele>
        <time>2026-05-02T10:03:51.000Z</time>
      </trkpt>
      <trkpt lat="44.81949" lon="0.7989">
        <ele>197.3</ele>
        <time>2026-05-02T10:03:52.000Z</time>
      </trkpt>
      <trkpt lat="44.81949" lon="0.79891">
        <ele>197.3</ele>
        <time>2026-05-02T10:03:53.000Z</time>
      </trkpt>
      <trkpt lat="44.81948" lon="0.79891">
        <ele>197</ele>
        <time>2026-05-02T10:03:54.000Z</time>
      </trkpt>
      <trkpt lat="44.81948" lon="0.79891">
        <ele>196.9</ele>
        <time>2026-05-02T10:03:55.000Z</time>
      </trkpt>
      <trkpt lat="44.81947" lon="0.79891">
        <ele>196.6</ele>
        <time>2026-05-02T10:03:56.000Z</time>
      </trkpt>
      <trkpt lat="44.81946" lon="0.79892">
        <ele>196.2</ele>
        <time>2026-05-02T10:03:57.000Z</time>
      </trkpt>
      <trkpt lat="44.81945" lon="0.79892">
        <ele>196.1</ele>
        <time>2026-05-02T10:03:58.000Z</time>
      </trkpt>
      <trkpt lat="44.81944" lon="0.79893">
        <ele>196.4</ele>
        <time>2026-05-02T10:03:59.000Z</time>
      </trkpt>
      <trkpt lat="44.81942" lon="0.79894">
        <ele>196.4</ele>
        <time>2026-05-02T10:04:00.000Z</time>
      </trkpt>
      <trkpt lat="44.81941" lon="0.79895">
        <ele>197.1</ele>
        <time>2026-05-02T10:04:01.000Z</time>
      </trkpt>
      <trkpt lat="44.81939" lon="0.79895">
        <ele>197.3</ele>
        <time>2026-05-02T10:04:02.000Z</time>
      </trkpt>
      <trkpt lat="44.81938" lon="0.79896">
        <ele>197.4</ele>
        <time>2026-05-02T10:04:03.000Z</time>
      </trkpt>
      <trkpt lat="44.81937" lon="0.79898">
        <ele>196.9</ele>
        <time>2026-05-02T10:04:04.000Z</time>
      </trkpt>
      <trkpt lat="44.81936" lon="0.79898">
        <ele>196.4</ele>
        <time>2026-05-02T10:04:05.000Z</time>
      </trkpt>
      <trkpt lat="44.81935" lon="0.79898">
        <ele>195.9</ele>
        <time>2026-05-02T10:04:06.000Z</time>
      </trkpt>
      <trkpt lat="44.81934" lon="0.79898">
        <ele>196.2</ele>
        <time>2026-05-02T10:04:07.000Z</time>
      </trkpt>
      <trkpt lat="44.81934" lon="0.79898">
        <ele>195.9</ele>
        <time>2026-05-02T10:04:08.000Z</time>
      </trkpt>
      <trkpt lat="44.81934" lon="0.79898">
        <ele>195.1</ele>
        <time>2026-05-02T10:04:09.000Z</time>
      </trkpt>
      <trkpt lat="44.81934" lon="0.79897">
        <ele>194.9</ele>
        <time>2026-05-02T10:04:10.000Z</time>
      </trkpt>
      <trkpt lat="44.81934" lon="0.79897">
        <ele>194.9</ele>
        <time>2026-05-02T10:04:11.000Z</time>
      </trkpt>
      <trkpt lat="44.81934" lon="0.79896">
        <ele>194.9</ele>
        <time>2026-05-02T10:04:12.000Z</time>
      </trkpt>
      <trkpt lat="44.81934" lon="0.79896">
        <ele>194.9</ele>
        <time>2026-05-02T10:04:13.000Z</time>
      </trkpt>
      <trkpt lat="44.81934" lon="0.79896">
        <ele>194.9</ele>
        <time>2026-05-02T10:04:14.000Z</time>
      </trkpt>
      <trkpt lat="44.81934" lon="0.79896">
        <ele>194.9</ele>
        <time>2026-05-02T10:04:15.000Z</time>
      </trkpt>
      <trkpt lat="44.81934" lon="0.79896">
        <ele>194.9</ele>
        <time>2026-05-02T10:04:16.000Z</time>
      </trkpt>
      <trkpt lat="44.81934" lon="0.79896">
        <ele>194.9</ele>
        <time>2026-05-02T10:04:17.000Z</time>
      </trkpt>
      <trkpt lat="44.81934" lon="0.79896">
        <ele>194.9</ele>
        <time>2026-05-02T10:04:18.000Z</time>
      </trkpt>
      <trkpt lat="44.81935" lon="0.79897">
        <ele>195.1</ele>
        <time>2026-05-02T10:04:19.000Z</time>
      </trkpt>
      <trkpt lat="44.81935" lon="0.79897">
        <ele>195.1</ele>
        <time>2026-05-02T10:04:20.000Z</time>
      </trkpt>
      <trkpt lat="44.81935" lon="0.79897">
        <ele>195.1</ele>
        <time>2026-05-02T10:04:21.000Z</time>
      </trkpt>
      <trkpt lat="44.81935" lon="0.79897">
        <ele>195.1</ele>
        <time>2026-05-02T10:04:22.000Z</time>
      </trkpt>
      <trkpt lat="44.81935" lon="0.79897">
        <ele>195.1</ele>
        <time>2026-05-02T10:04:23.000Z</time>
      </trkpt>
      <trkpt lat="44.81935" lon="0.79897">
        <ele>195.1</ele>
        <time>2026-05-02T10:04:24.000Z</time>
      </trkpt>
      <trkpt lat="44.81935" lon="0.79897">
        <ele>195.1</ele>
        <time>2026-05-02T10:04:25.000Z</time>
      </trkpt>
      <trkpt lat="44.81935" lon="0.79897">
        <ele>195.1</ele>
        <time>2026-05-02T10:04:26.000Z</time>
      </trkpt>
      <trkpt lat="44.81935" lon="0.79897">
        <ele>195.1</ele>
        <time>2026-05-02T10:04:27.000Z</time>
      </trkpt>
      <trkpt lat="44.81935" lon="0.79897">
        <ele>195.1</ele>
        <time>2026-05-02T10:04:28.000Z</time>
      </trkpt>
      <trkpt lat="44.81935" lon="0.79897">
        <ele>195.1</ele>
        <time>2026-05-02T10:04:29.000Z</time>
      </trkpt>
      <trkpt lat="44.81935" lon="0.79897">
        <ele>195</ele>
        <time>2026-05-02T10:04:30.000Z</time>
      </trkpt>
      <trkpt lat="44.81935" lon="0.79897">
        <ele>194.5</ele>
        <time>2026-05-02T10:04:31.000Z</time>
      </trkpt>
      <trkpt lat="44.81934" lon="0.79896">
        <ele>194.4</ele>
        <time>2026-05-02T10:04:32.000Z</time>
      </trkpt>
      <trkpt lat="44.81933" lon="0.79896">
        <ele>194.6</ele>
        <time>2026-05-02T10:04:33.000Z</time>
      </trkpt>
      <trkpt lat="44.81932" lon="0.79896">
        <ele>194.9</ele>
        <time>2026-05-02T10:04:34.000Z</time>
      </trkpt>
      <trkpt lat="44.81931" lon="0.79896">
        <ele>194.3</ele>
        <time>2026-05-02T10:04:35.000Z</time>
      </trkpt>
      <trkpt lat="44.81931" lon="0.79897">
        <ele>193.8</ele>
        <time>2026-05-02T10:04:36.000Z</time>
      </trkpt>
      <trkpt lat="44.8193" lon="0.79898">
        <ele>193.1</ele>
        <time>2026-05-02T10:04:37.000Z</time>
      </trkpt>
      <trkpt lat="44.81929" lon="0.79898">
        <ele>193.4</ele>
        <time>2026-05-02T10:04:38.000Z</time>
      </trkpt>
      <trkpt lat="44.81929" lon="0.79899">
        <ele>193.4</ele>
        <time>2026-05-02T10:04:39.000Z</time>
      </trkpt>
      <trkpt lat="44.81929" lon="0.79899">
        <ele>193.4</ele>
        <time>2026-05-02T10:04:40.000Z</time>
      </trkpt>
      <trkpt lat="44.81929" lon="0.799">
        <ele>193.1</ele>
        <time>2026-05-02T10:04:41.000Z</time>
      </trkpt>
      <trkpt lat="44.81928" lon="0.799">
        <ele>193.6</ele>
        <time>2026-05-02T10:04:42.000Z</time>
      </trkpt>
      <trkpt lat="44.81927" lon="0.79901">
        <ele>193</ele>
        <time>2026-05-02T10:04:43.000Z</time>
      </trkpt>
      <trkpt lat="44.81926" lon="0.79902">
        <ele>193</ele>
        <time>2026-05-02T10:04:44.000Z</time>
      </trkpt>
      <trkpt lat="44.81925" lon="0.79903">
        <ele>192.1</ele>
        <time>2026-05-02T10:04:45.000Z</time>
      </trkpt>
      <trkpt lat="44.81924" lon="0.79904">
        <ele>191</ele>
        <time>2026-05-02T10:04:46.000Z</time>
      </trkpt>
      <trkpt lat="44.81923" lon="0.79905">
        <ele>191.3</ele>
        <time>2026-05-02T10:04:47.000Z</time>
      </trkpt>
      <trkpt lat="44.81922" lon="0.79906">
        <ele>190.5</ele>
        <time>2026-05-02T10:04:48.000Z</time>
      </trkpt>
      <trkpt lat="44.81921" lon="0.79907">
        <ele>190.6</ele>
        <time>2026-05-02T10:04:49.000Z</time>
      </trkpt>
      <trkpt lat="44.8192" lon="0.79908">
        <ele>190.7</ele>
        <time>2026-05-02T10:04:50.000Z</time>
      </trkpt>
      <trkpt lat="44.81919" lon="0.79909">
        <ele>190.7</ele>
        <time>2026-05-02T10:04:51.000Z</time>
      </trkpt>
      <trkpt lat="44.81917" lon="0.79909">
        <ele>190.7</ele>
        <time>2026-05-02T10:04:52.000Z</time>
      </trkpt>
      <trkpt lat="44.81915" lon="0.7991">
        <ele>191.5</ele>
        <time>2026-05-02T10:04:53.000Z</time>
      </trkpt>
      <trkpt lat="44.81914" lon="0.79911">
        <ele>191.5</ele>
        <time>2026-05-02T10:04:54.000Z</time>
      </trkpt>
      <trkpt lat="44.81913" lon="0.79911">
        <ele>190.4</ele>
        <time>2026-05-02T10:04:55.000Z</time>
      </trkpt>
      <trkpt lat="44.81912" lon="0.79912">
        <ele>190.1</ele>
        <time>2026-05-02T10:04:56.000Z</time>
      </trkpt>
      <trkpt lat="44.81911" lon="0.79913">
        <ele>190.1</ele>
        <time>2026-05-02T10:04:57.000Z</time>
      </trkpt>
      <trkpt lat="44.8191" lon="0.79914">
        <ele>189.9</ele>
        <time>2026-05-02T10:04:58.000Z</time>
      </trkpt>
      <trkpt lat="44.81909" lon="0.79915">
        <ele>189.8</ele>
        <time>2026-05-02T10:04:59.000Z</time>
      </trkpt>
      <trkpt lat="44.81908" lon="0.79916">
        <ele>189.3</ele>
        <time>2026-05-02T10:05:00.000Z</time>
      </trkpt>
      <trkpt lat="44.81907" lon="0.79917">
        <ele>189.7</ele>
        <time>2026-05-02T10:05:01.000Z</time>
      </trkpt>
      <trkpt lat="44.81906" lon="0.79919">
        <ele>189.6</ele>
        <time>2026-05-02T10:05:02.000Z</time>
      </trkpt>
      <trkpt lat="44.81905" lon="0.7992">
        <ele>189.6</ele>
        <time>2026-05-02T10:05:03.000Z</time>
      </trkpt>
      <trkpt lat="44.81903" lon="0.79921">
        <ele>189.4</ele>
        <time>2026-05-02T10:05:04.000Z</time>
      </trkpt>
      <trkpt lat="44.81902" lon="0.79922">
        <ele>190.3</ele>
        <time>2026-05-02T10:05:05.000Z</time>
      </trkpt>
      <trkpt lat="44.81901" lon="0.79924">
        <ele>190.2</ele>
        <time>2026-05-02T10:05:06.000Z</time>
      </trkpt>
      <trkpt lat="44.819" lon="0.79925">
        <ele>190.6</ele>
        <time>2026-05-02T10:05:07.000Z</time>
      </trkpt>
      <trkpt lat="44.81899" lon="0.79927">
        <ele>190.4</ele>
        <time>2026-05-02T10:05:08.000Z</time>
      </trkpt>
      <trkpt lat="44.81897" lon="0.79928">
        <ele>190.2</ele>
        <time>2026-05-02T10:05:09.000Z</time>
      </trkpt>
      <trkpt lat="44.81896" lon="0.79929">
        <ele>190.6</ele>
        <time>2026-05-02T10:05:10.000Z</time>
      </trkpt>
      <trkpt lat="44.81895" lon="0.7993">
        <ele>190.6</ele>
        <time>2026-05-02T10:05:11.000Z</time>
      </trkpt>
      <trkpt lat="44.81894" lon="0.79931">
        <ele>189.8</ele>
        <time>2026-05-02T10:05:12.000Z</time>
      </trkpt>
      <trkpt lat="44.81893" lon="0.79931">
        <ele>189.1</ele>
        <time>2026-05-02T10:05:13.000Z</time>
      </trkpt>
      <trkpt lat="44.81892" lon="0.79932">
        <ele>188.7</ele>
        <time>2026-05-02T10:05:14.000Z</time>
      </trkpt>
      <trkpt lat="44.8189" lon="0.79933">
        <ele>187.6</ele>
        <time>2026-05-02T10:05:15.000Z</time>
      </trkpt>
      <trkpt lat="44.81889" lon="0.79933">
        <ele>187.6</ele>
        <time>2026-05-02T10:05:16.000Z</time>
      </trkpt>
      <trkpt lat="44.81887" lon="0.79934">
        <ele>187.5</ele>
        <time>2026-05-02T10:05:17.000Z</time>
      </trkpt>
      <trkpt lat="44.81886" lon="0.79933">
        <ele>188.2</ele>
        <time>2026-05-02T10:05:18.000Z</time>
      </trkpt>
      <trkpt lat="44.81885" lon="0.79933">
        <ele>187.8</ele>
        <time>2026-05-02T10:05:19.000Z</time>
      </trkpt>
      <trkpt lat="44.81884" lon="0.79932">
        <ele>188.2</ele>
        <time>2026-05-02T10:05:20.000Z</time>
      </trkpt>
      <trkpt lat="44.81883" lon="0.79931">
        <ele>189.7</ele>
        <time>2026-05-02T10:05:21.000Z</time>
      </trkpt>
      <trkpt lat="44.81882" lon="0.7993">
        <ele>190.7</ele>
        <time>2026-05-02T10:05:22.000Z</time>
      </trkpt>
      <trkpt lat="44.81881" lon="0.79929">
        <ele>191.6</ele>
        <time>2026-05-02T10:05:23.000Z</time>
      </trkpt>
      <trkpt lat="44.81881" lon="0.79929">
        <ele>191.2</ele>
        <time>2026-05-02T10:05:24.000Z</time>
      </trkpt>
      <trkpt lat="44.81882" lon="0.79928">
        <ele>191.2</ele>
        <time>2026-05-02T10:05:25.000Z</time>
      </trkpt>
      <trkpt lat="44.81882" lon="0.79928">
        <ele>191.3</ele>
        <time>2026-05-02T10:05:26.000Z</time>
      </trkpt>
      <trkpt lat="44.81881" lon="0.79927">
        <ele>190.9</ele>
        <time>2026-05-02T10:05:27.000Z</time>
      </trkpt>
      <trkpt lat="44.81881" lon="0.79926">
        <ele>190.6</ele>
        <time>2026-05-02T10:05:28.000Z</time>
      </trkpt>
      <trkpt lat="44.8188" lon="0.79926">
        <ele>190.7</ele>
        <time>2026-05-02T10:05:29.000Z</time>
      </trkpt>
      <trkpt lat="44.81878" lon="0.79926">
        <ele>190.9</ele>
        <time>2026-05-02T10:05:30.000Z</time>
      </trkpt>
      <trkpt lat="44.81877" lon="0.79926">
        <ele>192.1</ele>
        <time>2026-05-02T10:05:31.000Z</time>
      </trkpt>
      <trkpt lat="44.81875" lon="0.79927">
        <ele>191.4</ele>
        <time>2026-05-02T10:05:32.000Z</time>
      </trkpt>
      <trkpt lat="44.81874" lon="0.79928">
        <ele>191.8</ele>
        <time>2026-05-02T10:05:33.000Z</time>
      </trkpt>
      <trkpt lat="44.81873" lon="0.79927">
        <ele>191.8</ele>
        <time>2026-05-02T10:05:34.000Z</time>
      </trkpt>
      <trkpt lat="44.81873" lon="0.79925">
        <ele>193.7</ele>
        <time>2026-05-02T10:05:35.000Z</time>
      </trkpt>
      <trkpt lat="44.81874" lon="0.79924">
        <ele>194.6</ele>
        <time>2026-05-02T10:05:36.000Z</time>
      </trkpt>
      <trkpt lat="44.81875" lon="0.79924">
        <ele>194.3</ele>
        <time>2026-05-02T10:05:37.000Z</time>
      </trkpt>
      <trkpt lat="44.81875" lon="0.79924">
        <ele>194.7</ele>
        <time>2026-05-02T10:05:38.000Z</time>
      </trkpt>
      <trkpt lat="44.81875" lon="0.79924">
        <ele>194.7</ele>
        <time>2026-05-02T10:05:39.000Z</time>
      </trkpt>
      <trkpt lat="44.81875" lon="0.79924">
        <ele>193.3</ele>
        <time>2026-05-02T10:05:40.000Z</time>
      </trkpt>
      <trkpt lat="44.81875" lon="0.79924">
        <ele>193.4</ele>
        <time>2026-05-02T10:05:41.000Z</time>
      </trkpt>
      <trkpt lat="44.81875" lon="0.79924">
        <ele>194.1</ele>
        <time>2026-05-02T10:05:42.000Z</time>
      </trkpt>
      <trkpt lat="44.81873" lon="0.79925">
        <ele>194.7</ele>
        <time>2026-05-02T10:05:43.000Z</time>
      </trkpt>
      <trkpt lat="44.81873" lon="0.79921">
        <ele>194.7</ele>
        <time>2026-05-02T10:05:44.000Z</time>
      </trkpt>
      <trkpt lat="44.81872" lon="0.7992">
        <ele>193.9</ele>
        <time>2026-05-02T10:05:45.000Z</time>
      </trkpt>
      <trkpt lat="44.8187" lon="0.79921">
        <ele>193.3</ele>
        <time>2026-05-02T10:05:46.000Z</time>
      </trkpt>
      <trkpt lat="44.81866" lon="0.79929">
        <ele>192.7</ele>
        <time>2026-05-02T10:05:47.000Z</time>
      </trkpt>
      <trkpt lat="44.81865" lon="0.79929">
        <ele>192.7</ele>
        <time>2026-05-02T10:05:48.000Z</time>
      </trkpt>
      <trkpt lat="44.81863" lon="0.7993">
        <ele>193.4</ele>
        <time>2026-05-02T10:05:49.000Z</time>
      </trkpt>
      <trkpt lat="44.81862" lon="0.79932">
        <ele>194.3</ele>
        <time>2026-05-02T10:05:50.000Z</time>
      </trkpt>
      <trkpt lat="44.81862" lon="0.7993">
        <ele>194.8</ele>
        <time>2026-05-02T10:05:51.000Z</time>
      </trkpt>
      <trkpt lat="44.81861" lon="0.7993">
        <ele>195.3</ele>
        <time>2026-05-02T10:05:52.000Z</time>
      </trkpt>
      <trkpt lat="44.81859" lon="0.79929">
        <ele>194.4</ele>
        <time>2026-05-02T10:05:53.000Z</time>
      </trkpt>
      <trkpt lat="44.81858" lon="0.79929">
        <ele>194</ele>
        <time>2026-05-02T10:05:54.000Z</time>
      </trkpt>
      <trkpt lat="44.81857" lon="0.7993">
        <ele>195.3</ele>
        <time>2026-05-02T10:05:55.000Z</time>
      </trkpt>
      <trkpt lat="44.81856" lon="0.7993">
        <ele>195.5</ele>
        <time>2026-05-02T10:05:56.000Z</time>
      </trkpt>
      <trkpt lat="44.81855" lon="0.7993">
        <ele>195.7</ele>
        <time>2026-05-02T10:05:57.000Z</time>
      </trkpt>
      <trkpt lat="44.81855" lon="0.79931">
        <ele>196.1</ele>
        <time>2026-05-02T10:05:58.000Z</time>
      </trkpt>
      <trkpt lat="44.81855" lon="0.79931">
        <ele>196.3</ele>
        <time>2026-05-02T10:05:59.000Z</time>
      </trkpt>
      <trkpt lat="44.81855" lon="0.79931">
        <ele>196.3</ele>
        <time>2026-05-02T10:06:00.000Z</time>
      </trkpt>
      <trkpt lat="44.81855" lon="0.79931">
        <ele>196.3</ele>
        <time>2026-05-02T10:06:01.000Z</time>
      </trkpt>
      <trkpt lat="44.81855" lon="0.79931">
        <ele>196.3</ele>
        <time>2026-05-02T10:06:02.000Z</time>
      </trkpt>
      <trkpt lat="44.81855" lon="0.79931">
        <ele>196.3</ele>
        <time>2026-05-02T10:06:03.000Z</time>
      </trkpt>
      <trkpt lat="44.81855" lon="0.79931">
        <ele>196.4</ele>
        <time>2026-05-02T10:06:04.000Z</time>
      </trkpt>
      <trkpt lat="44.81855" lon="0.79931">
        <ele>196.5</ele>
        <time>2026-05-02T10:06:05.000Z</time>
      </trkpt>
      <trkpt lat="44.81855" lon="0.79931">
        <ele>196.1</ele>
        <time>2026-05-02T10:06:06.000Z</time>
      </trkpt>
      <trkpt lat="44.81855" lon="0.79929">
        <ele>195.4</ele>
        <time>2026-05-02T10:06:07.000Z</time>
      </trkpt>
      <trkpt lat="44.81856" lon="0.79928">
        <ele>195.3</ele>
        <time>2026-05-02T10:06:08.000Z</time>
      </trkpt>
      <trkpt lat="44.81856" lon="0.79928">
        <ele>196</ele>
        <time>2026-05-02T10:06:09.000Z</time>
      </trkpt>
      <trkpt lat="44.81855" lon="0.7993">
        <ele>196.1</ele>
        <time>2026-05-02T10:06:10.000Z</time>
      </trkpt>
      <trkpt lat="44.81855" lon="0.79931">
        <ele>196.1</ele>
        <time>2026-05-02T10:06:11.000Z</time>
      </trkpt>
      <trkpt lat="44.81855" lon="0.79931">
        <ele>196</ele>
        <time>2026-05-02T10:06:12.000Z</time>
      </trkpt>
      <trkpt lat="44.81855" lon="0.79931">
        <ele>196</ele>
        <time>2026-05-02T10:06:13.000Z</time>
      </trkpt>
      <trkpt lat="44.81856" lon="0.7993">
        <ele>195.3</ele>
        <time>2026-05-02T10:06:14.000Z</time>
      </trkpt>
      <trkpt lat="44.81856" lon="0.79929">
        <ele>195.5</ele>
        <time>2026-05-02T10:06:15.000Z</time>
      </trkpt>
      <trkpt lat="44.81858" lon="0.79928">
        <ele>195.3</ele>
        <time>2026-05-02T10:06:16.000Z</time>
      </trkpt>
      <trkpt lat="44.81858" lon="0.79929">
        <ele>197.1</ele>
        <time>2026-05-02T10:06:17.000Z</time>
      </trkpt>
      <trkpt lat="44.81858" lon="0.79929">
        <ele>197</ele>
        <time>2026-05-02T10:06:18.000Z</time>
      </trkpt>
      <trkpt lat="44.81857" lon="0.7993">
        <ele>197.5</ele>
        <time>2026-05-02T10:06:19.000Z</time>
      </trkpt>
      <trkpt lat="44.81855" lon="0.79929">
        <ele>198</ele>
        <time>2026-05-02T10:06:20.000Z</time>
      </trkpt>
      <trkpt lat="44.81854" lon="0.79929">
        <ele>199.1</ele>
        <time>2026-05-02T10:06:21.000Z</time>
      </trkpt>
      <trkpt lat="44.81853" lon="0.79929">
        <ele>199</ele>
        <time>2026-05-02T10:06:22.000Z</time>
      </trkpt>
      <trkpt lat="44.81853" lon="0.7993">
        <ele>199</ele>
        <time>2026-05-02T10:06:23.000Z</time>
      </trkpt>
      <trkpt lat="44.81852" lon="0.7993">
        <ele>199</ele>
        <time>2026-05-02T10:06:24.000Z</time>
      </trkpt>
      <trkpt lat="44.81852" lon="0.7993">
        <ele>199.2</ele>
        <time>2026-05-02T10:06:25.000Z</time>
      </trkpt>
      <trkpt lat="44.81852" lon="0.7993">
        <ele>199.6</ele>
        <time>2026-05-02T10:06:26.000Z</time>
      </trkpt>
      <trkpt lat="44.81851" lon="0.79931">
        <ele>200.4</ele>
        <time>2026-05-02T10:06:27.000Z</time>
      </trkpt>
      <trkpt lat="44.81851" lon="0.79932">
        <ele>201</ele>
        <time>2026-05-02T10:06:28.000Z</time>
      </trkpt>
      <trkpt lat="44.81849" lon="0.79933">
        <ele>201.6</ele>
        <time>2026-05-02T10:06:29.000Z</time>
      </trkpt>
      <trkpt lat="44.81847" lon="0.79933">
        <ele>201.8</ele>
        <time>2026-05-02T10:06:30.000Z</time>
      </trkpt>
      <trkpt lat="44.81847" lon="0.79933">
        <ele>202.2</ele>
        <time>2026-05-02T10:06:31.000Z</time>
      </trkpt>
      <trkpt lat="44.81845" lon="0.79933">
        <ele>202.4</ele>
        <time>2026-05-02T10:06:32.000Z</time>
      </trkpt>
      <trkpt lat="44.81844" lon="0.79933">
        <ele>202.7</ele>
        <time>2026-05-02T10:06:33.000Z</time>
      </trkpt>
      <trkpt lat="44.81843" lon="0.79932">
        <ele>201.5</ele>
        <time>2026-05-02T10:06:34.000Z</time>
      </trkpt>
      <trkpt lat="44.81842" lon="0.79931">
        <ele>201.5</ele>
        <time>2026-05-02T10:06:35.000Z</time>
      </trkpt>
      <trkpt lat="44.81841" lon="0.79932">
        <ele>201.1</ele>
        <time>2026-05-02T10:06:36.000Z</time>
      </trkpt>
      <trkpt lat="44.8184" lon="0.79931">
        <ele>201.1</ele>
        <time>2026-05-02T10:06:37.000Z</time>
      </trkpt>
      <trkpt lat="44.8184" lon="0.79931">
        <ele>201</ele>
        <time>2026-05-02T10:06:38.000Z</time>
      </trkpt>
      <trkpt lat="44.8184" lon="0.7993">
        <ele>201</ele>
        <time>2026-05-02T10:06:39.000Z</time>
      </trkpt>
      <trkpt lat="44.8184" lon="0.7993">
        <ele>201</ele>
        <time>2026-05-02T10:06:40.000Z</time>
      </trkpt>
      <trkpt lat="44.8184" lon="0.7993">
        <ele>201</ele>
        <time>2026-05-02T10:06:41.000Z</time>
      </trkpt>
      <trkpt lat="44.8184" lon="0.7993">
        <ele>201</ele>
        <time>2026-05-02T10:06:42.000Z</time>
      </trkpt>
      <trkpt lat="44.8184" lon="0.7993">
        <ele>201</ele>
        <time>2026-05-02T10:06:43.000Z</time>
      </trkpt>
      <trkpt lat="44.8184" lon="0.7993">
        <ele>201</ele>
        <time>2026-05-02T10:06:44.000Z</time>
      </trkpt>
      <trkpt lat="44.8184" lon="0.7993">
        <ele>201</ele>
        <time>2026-05-02T10:06:45.000Z</time>
      </trkpt>
      <trkpt lat="44.8184" lon="0.7993">
        <ele>200.6</ele>
        <time>2026-05-02T10:06:46.000Z</time>
      </trkpt>
      <trkpt lat="44.8184" lon="0.79931">
        <ele>200.6</ele>
        <time>2026-05-02T10:06:47.000Z</time>
      </trkpt>
      <trkpt lat="44.8184" lon="0.7993">
        <ele>200.5</ele>
        <time>2026-05-02T10:06:48.000Z</time>
      </trkpt>
      <trkpt lat="44.81839" lon="0.79931">
        <ele>200.9</ele>
        <time>2026-05-02T10:06:49.000Z</time>
      </trkpt>
      <trkpt lat="44.81838" lon="0.7993">
        <ele>201.3</ele>
        <time>2026-05-02T10:06:50.000Z</time>
      </trkpt>
      <trkpt lat="44.81836" lon="0.7993">
        <ele>201.5</ele>
        <time>2026-05-02T10:06:51.000Z</time>
      </trkpt>
      <trkpt lat="44.81835" lon="0.79929">
        <ele>200.6</ele>
        <time>2026-05-02T10:06:52.000Z</time>
      </trkpt>
      <trkpt lat="44.81834" lon="0.79928">
        <ele>200.1</ele>
        <time>2026-05-02T10:06:53.000Z</time>
      </trkpt>
      <trkpt lat="44.81833" lon="0.79927">
        <ele>200.4</ele>
        <time>2026-05-02T10:06:54.000Z</time>
      </trkpt>
      <trkpt lat="44.81832" lon="0.79927">
        <ele>200.9</ele>
        <time>2026-05-02T10:06:55.000Z</time>
      </trkpt>
      <trkpt lat="44.81831" lon="0.79927">
        <ele>201.5</ele>
        <time>2026-05-02T10:06:56.000Z</time>
      </trkpt>
      <trkpt lat="44.81829" lon="0.79926">
        <ele>201.1</ele>
        <time>2026-05-02T10:06:57.000Z</time>
      </trkpt>
      <trkpt lat="44.81828" lon="0.79925">
        <ele>201.9</ele>
        <time>2026-05-02T10:06:58.000Z</time>
      </trkpt>
      <trkpt lat="44.81826" lon="0.79925">
        <ele>201.9</ele>
        <time>2026-05-02T10:06:59.000Z</time>
      </trkpt>
      <trkpt lat="44.81824" lon="0.79925">
        <ele>202</ele>
        <time>2026-05-02T10:07:00.000Z</time>
      </trkpt>
      <trkpt lat="44.81823" lon="0.79925">
        <ele>202.4</ele>
        <time>2026-05-02T10:07:01.000Z</time>
      </trkpt>
      <trkpt lat="44.81821" lon="0.79924">
        <ele>201.8</ele>
        <time>2026-05-02T10:07:02.000Z</time>
      </trkpt>
      <trkpt lat="44.8182" lon="0.79923">
        <ele>202</ele>
        <time>2026-05-02T10:07:03.000Z</time>
      </trkpt>
      <trkpt lat="44.81818" lon="0.79923">
        <ele>202.4</ele>
        <time>2026-05-02T10:07:04.000Z</time>
      </trkpt>
      <trkpt lat="44.81817" lon="0.79922">
        <ele>203</ele>
        <time>2026-05-02T10:07:05.000Z</time>
      </trkpt>
      <trkpt lat="44.81816" lon="0.79922">
        <ele>203.7</ele>
        <time>2026-05-02T10:07:06.000Z</time>
      </trkpt>
      <trkpt lat="44.81816" lon="0.79922">
        <ele>203.5</ele>
        <time>2026-05-02T10:07:07.000Z</time>
      </trkpt>
      <trkpt lat="44.81814" lon="0.79921">
        <ele>203.4</ele>
        <time>2026-05-02T10:07:08.000Z</time>
      </trkpt>
      <trkpt lat="44.81812" lon="0.7992">
        <ele>203.4</ele>
        <time>2026-05-02T10:07:09.000Z</time>
      </trkpt>
      <trkpt lat="44.8181" lon="0.7992">
        <ele>203.7</ele>
        <time>2026-05-02T10:07:10.000Z</time>
      </trkpt>
      <trkpt lat="44.81808" lon="0.79919">
        <ele>204.1</ele>
        <time>2026-05-02T10:07:11.000Z</time>
      </trkpt>
      <trkpt lat="44.81806" lon="0.79919">
        <ele>204.5</ele>
        <time>2026-05-02T10:07:12.000Z</time>
      </trkpt>
      <trkpt lat="44.81804" lon="0.79918">
        <ele>204.5</ele>
        <time>2026-05-02T10:07:13.000Z</time>
      </trkpt>
      <trkpt lat="44.81802" lon="0.79918">
        <ele>204.3</ele>
        <time>2026-05-02T10:07:14.000Z</time>
      </trkpt>
      <trkpt lat="44.818" lon="0.79917">
        <ele>204.6</ele>
        <time>2026-05-02T10:07:15.000Z</time>
      </trkpt>
      <trkpt lat="44.81798" lon="0.79917">
        <ele>205</ele>
        <time>2026-05-02T10:07:16.000Z</time>
      </trkpt>
      <trkpt lat="44.81797" lon="0.79917">
        <ele>204.6</ele>
        <time>2026-05-02T10:07:17.000Z</time>
      </trkpt>
      <trkpt lat="44.81795" lon="0.79916">
        <ele>204.2</ele>
        <time>2026-05-02T10:07:18.000Z</time>
      </trkpt>
      <trkpt lat="44.81793" lon="0.79916">
        <ele>203.6</ele>
        <time>2026-05-02T10:07:19.000Z</time>
      </trkpt>
      <trkpt lat="44.81791" lon="0.79915">
        <ele>203.8</ele>
        <time>2026-05-02T10:07:20.000Z</time>
      </trkpt>
      <trkpt lat="44.81789" lon="0.79914">
        <ele>203.5</ele>
        <time>2026-05-02T10:07:21.000Z</time>
      </trkpt>
      <trkpt lat="44.81787" lon="0.79913">
        <ele>203.4</ele>
        <time>2026-05-02T10:07:22.000Z</time>
      </trkpt>
      <trkpt lat="44.81785" lon="0.79913">
        <ele>201.7</ele>
        <time>2026-05-02T10:07:23.000Z</time>
      </trkpt>
      <trkpt lat="44.81784" lon="0.79912">
        <ele>201.1</ele>
        <time>2026-05-02T10:07:24.000Z</time>
      </trkpt>
      <trkpt lat="44.81782" lon="0.7991">
        <ele>200.9</ele>
        <time>2026-05-02T10:07:25.000Z</time>
      </trkpt>
      <trkpt lat="44.8178" lon="0.79908">
        <ele>200.5</ele>
        <time>2026-05-02T10:07:26.000Z</time>
      </trkpt>
      <trkpt lat="44.81778" lon="0.79907">
        <ele>199.8</ele>
        <time>2026-05-02T10:07:27.000Z</time>
      </trkpt>
      <trkpt lat="44.81776" lon="0.79906">
        <ele>200</ele>
        <time>2026-05-02T10:07:28.000Z</time>
      </trkpt>
      <trkpt lat="44.81774" lon="0.79906">
        <ele>200.4</ele>
        <time>2026-05-02T10:07:29.000Z</time>
      </trkpt>
      <trkpt lat="44.81773" lon="0.79905">
        <ele>200.4</ele>
        <time>2026-05-02T10:07:30.000Z</time>
      </trkpt>
      <trkpt lat="44.81771" lon="0.79904">
        <ele>200.6</ele>
        <time>2026-05-02T10:07:31.000Z</time>
      </trkpt>
      <trkpt lat="44.81769" lon="0.79904">
        <ele>200.4</ele>
        <time>2026-05-02T10:07:32.000Z</time>
      </trkpt>
      <trkpt lat="44.81767" lon="0.79903">
        <ele>200.5</ele>
        <time>2026-05-02T10:07:33.000Z</time>
      </trkpt>
      <trkpt lat="44.81765" lon="0.79902">
        <ele>200.4</ele>
        <time>2026-05-02T10:07:34.000Z</time>
      </trkpt>
      <trkpt lat="44.81763" lon="0.79902">
        <ele>200.6</ele>
        <time>2026-05-02T10:07:35.000Z</time>
      </trkpt>
      <trkpt lat="44.81762" lon="0.79901">
        <ele>200.4</ele>
        <time>2026-05-02T10:07:36.000Z</time>
      </trkpt>
      <trkpt lat="44.8176" lon="0.799">
        <ele>200.6</ele>
        <time>2026-05-02T10:07:37.000Z</time>
      </trkpt>
      <trkpt lat="44.81758" lon="0.79899">
        <ele>200.7</ele>
        <time>2026-05-02T10:07:38.000Z</time>
      </trkpt>
      <trkpt lat="44.81756" lon="0.79899">
        <ele>200.8</ele>
        <time>2026-05-02T10:07:39.000Z</time>
      </trkpt>
      <trkpt lat="44.81754" lon="0.79898">
        <ele>200.8</ele>
        <time>2026-05-02T10:07:40.000Z</time>
      </trkpt>
      <trkpt lat="44.81753" lon="0.79897">
        <ele>201.2</ele>
        <time>2026-05-02T10:07:41.000Z</time>
      </trkpt>
      <trkpt lat="44.81751" lon="0.79897">
        <ele>201.6</ele>
        <time>2026-05-02T10:07:42.000Z</time>
      </trkpt>
      <trkpt lat="44.81749" lon="0.79897">
        <ele>201.5</ele>
        <time>2026-05-02T10:07:43.000Z</time>
      </trkpt>
      <trkpt lat="44.81747" lon="0.79897">
        <ele>201.8</ele>
        <time>2026-05-02T10:07:44.000Z</time>
      </trkpt>
      <trkpt lat="44.81745" lon="0.79899">
        <ele>202.1</ele>
        <time>2026-05-02T10:07:45.000Z</time>
      </trkpt>
      <trkpt lat="44.81744" lon="0.79901">
        <ele>201.5</ele>
        <time>2026-05-02T10:07:46.000Z</time>
      </trkpt>
      <trkpt lat="44.81742" lon="0.79903">
        <ele>201.9</ele>
        <time>2026-05-02T10:07:47.000Z</time>
      </trkpt>
      <trkpt lat="44.81741" lon="0.79905">
        <ele>202.1</ele>
        <time>2026-05-02T10:07:48.000Z</time>
      </trkpt>
      <trkpt lat="44.8174" lon="0.79908">
        <ele>202.2</ele>
        <time>2026-05-02T10:07:49.000Z</time>
      </trkpt>
      <trkpt lat="44.81739" lon="0.7991">
        <ele>202.2</ele>
        <time>2026-05-02T10:07:50.000Z</time>
      </trkpt>
      <trkpt lat="44.81739" lon="0.79914">
        <ele>202.4</ele>
        <time>2026-05-02T10:07:51.000Z</time>
      </trkpt>
      <trkpt lat="44.81739" lon="0.79917">
        <ele>202.4</ele>
        <time>2026-05-02T10:07:52.000Z</time>
      </trkpt>
      <trkpt lat="44.81738" lon="0.79921">
        <ele>202.9</ele>
        <time>2026-05-02T10:07:53.000Z</time>
      </trkpt>
      <trkpt lat="44.81738" lon="0.79924">
        <ele>204.5</ele>
        <time>2026-05-02T10:07:54.000Z</time>
      </trkpt>
      <trkpt lat="44.81738" lon="0.79928">
        <ele>205.1</ele>
        <time>2026-05-02T10:07:55.000Z</time>
      </trkpt>
      <trkpt lat="44.81738" lon="0.79931">
        <ele>204.8</ele>
        <time>2026-05-02T10:07:56.000Z</time>
      </trkpt>
      <trkpt lat="44.81738" lon="0.79933">
        <ele>204.7</ele>
        <time>2026-05-02T10:07:57.000Z</time>
      </trkpt>
      <trkpt lat="44.81739" lon="0.79935">
        <ele>204.8</ele>
        <time>2026-05-02T10:07:58.000Z</time>
      </trkpt>
      <trkpt lat="44.81738" lon="0.79937">
        <ele>204.5</ele>
        <time>2026-05-02T10:07:59.000Z</time>
      </trkpt>
      <trkpt lat="44.81738" lon="0.79939">
        <ele>204.3</ele>
        <time>2026-05-02T10:08:00.000Z</time>
      </trkpt>
      <trkpt lat="44.81737" lon="0.79942">
        <ele>204.9</ele>
        <time>2026-05-02T10:08:01.000Z</time>
      </trkpt>
      <trkpt lat="44.81737" lon="0.79944">
        <ele>205.1</ele>
        <time>2026-05-02T10:08:02.000Z</time>
      </trkpt>
      <trkpt lat="44.81736" lon="0.79946">
        <ele>205.5</ele>
        <time>2026-05-02T10:08:03.000Z</time>
      </trkpt>
      <trkpt lat="44.81736" lon="0.79947">
        <ele>205.4</ele>
        <time>2026-05-02T10:08:04.000Z</time>
      </trkpt>
      <trkpt lat="44.81736" lon="0.79947">
        <ele>205.3</ele>
        <time>2026-05-02T10:08:05.000Z</time>
      </trkpt>
      <trkpt lat="44.81736" lon="0.79947">
        <ele>205.2</ele>
        <time>2026-05-02T10:08:06.000Z</time>
      </trkpt>
      <trkpt lat="44.81736" lon="0.79947">
        <ele>205.2</ele>
        <time>2026-05-02T10:08:07.000Z</time>
      </trkpt>
      <trkpt lat="44.81735" lon="0.79947">
        <ele>205.3</ele>
        <time>2026-05-02T10:08:08.000Z</time>
      </trkpt>
      <trkpt lat="44.81734" lon="0.79949">
        <ele>205.2</ele>
        <time>2026-05-02T10:08:09.000Z</time>
      </trkpt>
      <trkpt lat="44.81734" lon="0.79951">
        <ele>204.8</ele>
        <time>2026-05-02T10:08:10.000Z</time>
      </trkpt>
      <trkpt lat="44.81733" lon="0.79952">
        <ele>205.1</ele>
        <time>2026-05-02T10:08:11.000Z</time>
      </trkpt>
      <trkpt lat="44.81731" lon="0.79953">
        <ele>205.1</ele>
        <time>2026-05-02T10:08:12.000Z</time>
      </trkpt>
      <trkpt lat="44.81729" lon="0.79953">
        <ele>205.3</ele>
        <time>2026-05-02T10:08:13.000Z</time>
      </trkpt>
      <trkpt lat="44.81728" lon="0.79953">
        <ele>205.5</ele>
        <time>2026-05-02T10:08:14.000Z</time>
      </trkpt>
      <trkpt lat="44.81726" lon="0.79953">
        <ele>205.9</ele>
        <time>2026-05-02T10:08:15.000Z</time>
      </trkpt>
      <trkpt lat="44.81724" lon="0.79953">
        <ele>206.1</ele>
        <time>2026-05-02T10:08:16.000Z</time>
      </trkpt>
      <trkpt lat="44.81722" lon="0.79954">
        <ele>206.2</ele>
        <time>2026-05-02T10:08:17.000Z</time>
      </trkpt>
      <trkpt lat="44.8172" lon="0.79954">
        <ele>206.7</ele>
        <time>2026-05-02T10:08:18.000Z</time>
      </trkpt>
      <trkpt lat="44.81719" lon="0.79954">
        <ele>206.8</ele>
        <time>2026-05-02T10:08:19.000Z</time>
      </trkpt>
      <trkpt lat="44.81717" lon="0.79954">
        <ele>207.2</ele>
        <time>2026-05-02T10:08:20.000Z</time>
      </trkpt>
      <trkpt lat="44.81715" lon="0.79954">
        <ele>207.5</ele>
        <time>2026-05-02T10:08:21.000Z</time>
      </trkpt>
      <trkpt lat="44.81713" lon="0.79954">
        <ele>207.6</ele>
        <time>2026-05-02T10:08:22.000Z</time>
      </trkpt>
      <trkpt lat="44.81711" lon="0.79954">
        <ele>207.6</ele>
        <time>2026-05-02T10:08:23.000Z</time>
      </trkpt>
      <trkpt lat="44.8171" lon="0.79954">
        <ele>207.6</ele>
        <time>2026-05-02T10:08:24.000Z</time>
      </trkpt>
      <trkpt lat="44.81708" lon="0.79954">
        <ele>207.9</ele>
        <time>2026-05-02T10:08:25.000Z</time>
      </trkpt>
      <trkpt lat="44.81707" lon="0.79953">
        <ele>208</ele>
        <time>2026-05-02T10:08:26.000Z</time>
      </trkpt>
      <trkpt lat="44.81706" lon="0.79953">
        <ele>208.2</ele>
        <time>2026-05-02T10:08:27.000Z</time>
      </trkpt>
      <trkpt lat="44.81704" lon="0.79953">
        <ele>208.5</ele>
        <time>2026-05-02T10:08:28.000Z</time>
      </trkpt>
      <trkpt lat="44.81702" lon="0.79953">
        <ele>208.6</ele>
        <time>2026-05-02T10:08:29.000Z</time>
      </trkpt>
      <trkpt lat="44.817" lon="0.79953">
        <ele>208.8</ele>
        <time>2026-05-02T10:08:30.000Z</time>
      </trkpt>
      <trkpt lat="44.81699" lon="0.79953">
        <ele>208.8</ele>
        <time>2026-05-02T10:08:31.000Z</time>
      </trkpt>
      <trkpt lat="44.81697" lon="0.79954">
        <ele>209.1</ele>
        <time>2026-05-02T10:08:32.000Z</time>
      </trkpt>
      <trkpt lat="44.81696" lon="0.79954">
        <ele>209.1</ele>
        <time>2026-05-02T10:08:33.000Z</time>
      </trkpt>
      <trkpt lat="44.81694" lon="0.79955">
        <ele>209.1</ele>
        <time>2026-05-02T10:08:34.000Z</time>
      </trkpt>
      <trkpt lat="44.81693" lon="0.79956">
        <ele>208.7</ele>
        <time>2026-05-02T10:08:35.000Z</time>
      </trkpt>
      <trkpt lat="44.81691" lon="0.79956">
        <ele>209.1</ele>
        <time>2026-05-02T10:08:36.000Z</time>
      </trkpt>
      <trkpt lat="44.8169" lon="0.79957">
        <ele>209.4</ele>
        <time>2026-05-02T10:08:37.000Z</time>
      </trkpt>
      <trkpt lat="44.81688" lon="0.79958">
        <ele>209.7</ele>
        <time>2026-05-02T10:08:38.000Z</time>
      </trkpt>
      <trkpt lat="44.81686" lon="0.79958">
        <ele>209.8</ele>
        <time>2026-05-02T10:08:39.000Z</time>
      </trkpt>
      <trkpt lat="44.81685" lon="0.79959">
        <ele>209.9</ele>
        <time>2026-05-02T10:08:40.000Z</time>
      </trkpt>
      <trkpt lat="44.81683" lon="0.79959">
        <ele>209.7</ele>
        <time>2026-05-02T10:08:41.000Z</time>
      </trkpt>
      <trkpt lat="44.81682" lon="0.7996">
        <ele>209.9</ele>
        <time>2026-05-02T10:08:42.000Z</time>
      </trkpt>
      <trkpt lat="44.8168" lon="0.7996">
        <ele>209.9</ele>
        <time>2026-05-02T10:08:43.000Z</time>
      </trkpt>
      <trkpt lat="44.81679" lon="0.79961">
        <ele>210.1</ele>
        <time>2026-05-02T10:08:44.000Z</time>
      </trkpt>
      <trkpt lat="44.81677" lon="0.79961">
        <ele>210.3</ele>
        <time>2026-05-02T10:08:45.000Z</time>
      </trkpt>
      <trkpt lat="44.81675" lon="0.79961">
        <ele>210.6</ele>
        <time>2026-05-02T10:08:46.000Z</time>
      </trkpt>
      <trkpt lat="44.81674" lon="0.79961">
        <ele>211</ele>
        <time>2026-05-02T10:08:47.000Z</time>
      </trkpt>
      <trkpt lat="44.81672" lon="0.79961">
        <ele>211.2</ele>
        <time>2026-05-02T10:08:48.000Z</time>
      </trkpt>
      <trkpt lat="44.81671" lon="0.79961">
        <ele>211.3</ele>
        <time>2026-05-02T10:08:49.000Z</time>
      </trkpt>
      <trkpt lat="44.81669" lon="0.79961">
        <ele>211.4</ele>
        <time>2026-05-02T10:08:50.000Z</time>
      </trkpt>
      <trkpt lat="44.81668" lon="0.79961">
        <ele>211.4</ele>
        <time>2026-05-02T10:08:51.000Z</time>
      </trkpt>
      <trkpt lat="44.81666" lon="0.79962">
        <ele>211.3</ele>
        <time>2026-05-02T10:08:52.000Z</time>
      </trkpt>
      <trkpt lat="44.81665" lon="0.79962">
        <ele>211.5</ele>
        <time>2026-05-02T10:08:53.000Z</time>
      </trkpt>
      <trkpt lat="44.81663" lon="0.79962">
        <ele>211.7</ele>
        <time>2026-05-02T10:08:54.000Z</time>
      </trkpt>
      <trkpt lat="44.81662" lon="0.79962">
        <ele>212</ele>
        <time>2026-05-02T10:08:55.000Z</time>
      </trkpt>
      <trkpt lat="44.8166" lon="0.79962">
        <ele>212</ele>
        <time>2026-05-02T10:08:56.000Z</time>
      </trkpt>
      <trkpt lat="44.81659" lon="0.79963">
        <ele>212</ele>
        <time>2026-05-02T10:08:57.000Z</time>
      </trkpt>
      <trkpt lat="44.81657" lon="0.79964">
        <ele>211.9</ele>
        <time>2026-05-02T10:08:58.000Z</time>
      </trkpt>
      <trkpt lat="44.81656" lon="0.79966">
        <ele>211.7</ele>
        <time>2026-05-02T10:08:59.000Z</time>
      </trkpt>
      <trkpt lat="44.81655" lon="0.79967">
        <ele>211.5</ele>
        <time>2026-05-02T10:09:00.000Z</time>
      </trkpt>
      <trkpt lat="44.81654" lon="0.79969">
        <ele>211.2</ele>
        <time>2026-05-02T10:09:01.000Z</time>
      </trkpt>
      <trkpt lat="44.81653" lon="0.7997">
        <ele>211.4</ele>
        <time>2026-05-02T10:09:02.000Z</time>
      </trkpt>
      <trkpt lat="44.81653" lon="0.7997">
        <ele>211.1</ele>
        <time>2026-05-02T10:09:03.000Z</time>
      </trkpt>
      <trkpt lat="44.81653" lon="0.7997">
        <ele>211.2</ele>
        <time>2026-05-02T10:09:04.000Z</time>
      </trkpt>
      <trkpt lat="44.81653" lon="0.7997">
        <ele>211.2</ele>
        <time>2026-05-02T10:09:05.000Z</time>
      </trkpt>
      <trkpt lat="44.81653" lon="0.7997">
        <ele>211.2</ele>
        <time>2026-05-02T10:09:06.000Z</time>
      </trkpt>
      <trkpt lat="44.81653" lon="0.7997">
        <ele>211.2</ele>
        <time>2026-05-02T10:09:07.000Z</time>
      </trkpt>
      <trkpt lat="44.81653" lon="0.7997">
        <ele>211.3</ele>
        <time>2026-05-02T10:09:08.000Z</time>
      </trkpt>
      <trkpt lat="44.81653" lon="0.79971">
        <ele>211.2</ele>
        <time>2026-05-02T10:09:09.000Z</time>
      </trkpt>
      <trkpt lat="44.81653" lon="0.79973">
        <ele>211.2</ele>
        <time>2026-05-02T10:09:10.000Z</time>
      </trkpt>
      <trkpt lat="44.81652" lon="0.79975">
        <ele>211.4</ele>
        <time>2026-05-02T10:09:11.000Z</time>
      </trkpt>
      <trkpt lat="44.81652" lon="0.79977">
        <ele>211.3</ele>
        <time>2026-05-02T10:09:12.000Z</time>
      </trkpt>
      <trkpt lat="44.81652" lon="0.79979">
        <ele>211.5</ele>
        <time>2026-05-02T10:09:13.000Z</time>
      </trkpt>
      <trkpt lat="44.81652" lon="0.7998">
        <ele>211.4</ele>
        <time>2026-05-02T10:09:14.000Z</time>
      </trkpt>
      <trkpt lat="44.81652" lon="0.79982">
        <ele>211.5</ele>
        <time>2026-05-02T10:09:15.000Z</time>
      </trkpt>
      <trkpt lat="44.81652" lon="0.79984">
        <ele>211.6</ele>
        <time>2026-05-02T10:09:16.000Z</time>
      </trkpt>
      <trkpt lat="44.81652" lon="0.79986">
        <ele>211.7</ele>
        <time>2026-05-02T10:09:17.000Z</time>
      </trkpt>
      <trkpt lat="44.81651" lon="0.79988">
        <ele>212</ele>
        <time>2026-05-02T10:09:18.000Z</time>
      </trkpt>
      <trkpt lat="44.81651" lon="0.7999">
        <ele>212.1</ele>
        <time>2026-05-02T10:09:19.000Z</time>
      </trkpt>
      <trkpt lat="44.81651" lon="0.79992">
        <ele>212.3</ele>
        <time>2026-05-02T10:09:20.000Z</time>
      </trkpt>
      <trkpt lat="44.81651" lon="0.79993">
        <ele>212.4</ele>
        <time>2026-05-02T10:09:21.000Z</time>
      </trkpt>
      <trkpt lat="44.81651" lon="0.79995">
        <ele>212.4</ele>
        <time>2026-05-02T10:09:22.000Z</time>
      </trkpt>
      <trkpt lat="44.81651" lon="0.79997">
        <ele>212.2</ele>
        <time>2026-05-02T10:09:23.000Z</time>
      </trkpt>
      <trkpt lat="44.8165" lon="0.79999">
        <ele>211.9</ele>
        <time>2026-05-02T10:09:24.000Z</time>
      </trkpt>
      <trkpt lat="44.8165" lon="0.80001">
        <ele>212.4</ele>
        <time>2026-05-02T10:09:25.000Z</time>
      </trkpt>
      <trkpt lat="44.8165" lon="0.80003">
        <ele>212.3</ele>
        <time>2026-05-02T10:09:26.000Z</time>
      </trkpt>
      <trkpt lat="44.8165" lon="0.80005">
        <ele>212.3</ele>
        <time>2026-05-02T10:09:27.000Z</time>
      </trkpt>
      <trkpt lat="44.81649" lon="0.80007">
        <ele>212.2</ele>
        <time>2026-05-02T10:09:28.000Z</time>
      </trkpt>
      <trkpt lat="44.81649" lon="0.80009">
        <ele>211.8</ele>
        <time>2026-05-02T10:09:29.000Z</time>
      </trkpt>
      <trkpt lat="44.81649" lon="0.80011">
        <ele>212</ele>
        <time>2026-05-02T10:09:30.000Z</time>
      </trkpt>
      <trkpt lat="44.81649" lon="0.80013">
        <ele>211</ele>
        <time>2026-05-02T10:09:31.000Z</time>
      </trkpt>
      <trkpt lat="44.81649" lon="0.80015">
        <ele>210.6</ele>
        <time>2026-05-02T10:09:32.000Z</time>
      </trkpt>
      <trkpt lat="44.81648" lon="0.80017">
        <ele>210</ele>
        <time>2026-05-02T10:09:33.000Z</time>
      </trkpt>
      <trkpt lat="44.81648" lon="0.80019">
        <ele>210.4</ele>
        <time>2026-05-02T10:09:34.000Z</time>
      </trkpt>
      <trkpt lat="44.81649" lon="0.80021">
        <ele>210.2</ele>
        <time>2026-05-02T10:09:35.000Z</time>
      </trkpt>
      <trkpt lat="44.81649" lon="0.80023">
        <ele>211.2</ele>
        <time>2026-05-02T10:09:36.000Z</time>
      </trkpt>
      <trkpt lat="44.81649" lon="0.80025">
        <ele>211.7</ele>
        <time>2026-05-02T10:09:37.000Z</time>
      </trkpt>
      <trkpt lat="44.81648" lon="0.80027">
        <ele>211.6</ele>
        <time>2026-05-02T10:09:38.000Z</time>
      </trkpt>
      <trkpt lat="44.81648" lon="0.80029">
        <ele>212.2</ele>
        <time>2026-05-02T10:09:39.000Z</time>
      </trkpt>
      <trkpt lat="44.81649" lon="0.80031">
        <ele>211.8</ele>
        <time>2026-05-02T10:09:40.000Z</time>
      </trkpt>
      <trkpt lat="44.81649" lon="0.80033">
        <ele>211.9</ele>
        <time>2026-05-02T10:09:41.000Z</time>
      </trkpt>
      <trkpt lat="44.81648" lon="0.80035">
        <ele>212.1</ele>
        <time>2026-05-02T10:09:42.000Z</time>
      </trkpt>
      <trkpt lat="44.81648" lon="0.80037">
        <ele>212.1</ele>
        <time>2026-05-02T10:09:43.000Z</time>
      </trkpt>
      <trkpt lat="44.81649" lon="0.8004">
        <ele>211.9</ele>
        <time>2026-05-02T10:09:44.000Z</time>
      </trkpt>
      <trkpt lat="44.81648" lon="0.80042">
        <ele>212</ele>
        <time>2026-05-02T10:09:45.000Z</time>
      </trkpt>
      <trkpt lat="44.81648" lon="0.80045">
        <ele>211.8</ele>
        <time>2026-05-02T10:09:46.000Z</time>
      </trkpt>
      <trkpt lat="44.81648" lon="0.80047">
        <ele>211.4</ele>
        <time>2026-05-02T10:09:47.000Z</time>
      </trkpt>
      <trkpt lat="44.81647" lon="0.80049">
        <ele>211</ele>
        <time>2026-05-02T10:09:48.000Z</time>
      </trkpt>
      <trkpt lat="44.81647" lon="0.80051">
        <ele>211.2</ele>
        <time>2026-05-02T10:09:49.000Z</time>
      </trkpt>
      <trkpt lat="44.81647" lon="0.80053">
        <ele>211.2</ele>
        <time>2026-05-02T10:09:50.000Z</time>
      </trkpt>
      <trkpt lat="44.81646" lon="0.80055">
        <ele>210.7</ele>
        <time>2026-05-02T10:09:51.000Z</time>
      </trkpt>
      <trkpt lat="44.81646" lon="0.80058">
        <ele>210.3</ele>
        <time>2026-05-02T10:09:52.000Z</time>
      </trkpt>
      <trkpt lat="44.81646" lon="0.8006">
        <ele>209.8</ele>
        <time>2026-05-02T10:09:53.000Z</time>
      </trkpt>
      <trkpt lat="44.81645" lon="0.80062">
        <ele>209.4</ele>
        <time>2026-05-02T10:09:54.000Z</time>
      </trkpt>
      <trkpt lat="44.81645" lon="0.80064">
        <ele>209.1</ele>
        <time>2026-05-02T10:09:55.000Z</time>
      </trkpt>
      <trkpt lat="44.81645" lon="0.80066">
        <ele>208.8</ele>
        <time>2026-05-02T10:09:56.000Z</time>
      </trkpt>
      <trkpt lat="44.81644" lon="0.80069">
        <ele>208.5</ele>
        <time>2026-05-02T10:09:57.000Z</time>
      </trkpt>
      <trkpt lat="44.81644" lon="0.80071">
        <ele>208.6</ele>
        <time>2026-05-02T10:09:58.000Z</time>
      </trkpt>
      <trkpt lat="44.81643" lon="0.80073">
        <ele>208.8</ele>
        <time>2026-05-02T10:09:59.000Z</time>
      </trkpt>
      <trkpt lat="44.81643" lon="0.80075">
        <ele>208.6</ele>
        <time>2026-05-02T10:10:00.000Z</time>
      </trkpt>
      <trkpt lat="44.81643" lon="0.80077">
        <ele>208.6</ele>
        <time>2026-05-02T10:10:01.000Z</time>
      </trkpt>
      <trkpt lat="44.81643" lon="0.80079">
        <ele>208.2</ele>
        <time>2026-05-02T10:10:02.000Z</time>
      </trkpt>
      <trkpt lat="44.81642" lon="0.80081">
        <ele>208.2</ele>
        <time>2026-05-02T10:10:03.000Z</time>
      </trkpt>
      <trkpt lat="44.81641" lon="0.80083">
        <ele>207.8</ele>
        <time>2026-05-02T10:10:04.000Z</time>
      </trkpt>
      <trkpt lat="44.81641" lon="0.80087">
        <ele>208.9</ele>
        <time>2026-05-02T10:10:05.000Z</time>
      </trkpt>
      <trkpt lat="44.8164" lon="0.8009">
        <ele>208.6</ele>
        <time>2026-05-02T10:10:06.000Z</time>
      </trkpt>
      <trkpt lat="44.81641" lon="0.80092">
        <ele>208.3</ele>
        <time>2026-05-02T10:10:07.000Z</time>
      </trkpt>
      <trkpt lat="44.8164" lon="0.80094">
        <ele>207.6</ele>
        <time>2026-05-02T10:10:08.000Z</time>
      </trkpt>
      <trkpt lat="44.8164" lon="0.80096">
        <ele>207.8</ele>
        <time>2026-05-02T10:10:09.000Z</time>
      </trkpt>
      <trkpt lat="44.81641" lon="0.80098">
        <ele>208.2</ele>
        <time>2026-05-02T10:10:10.000Z</time>
      </trkpt>
      <trkpt lat="44.81641" lon="0.80101">
        <ele>208.7</ele>
        <time>2026-05-02T10:10:11.000Z</time>
      </trkpt>
      <trkpt lat="44.81641" lon="0.80103">
        <ele>209</ele>
        <time>2026-05-02T10:10:12.000Z</time>
      </trkpt>
      <trkpt lat="44.81641" lon="0.80105">
        <ele>209</ele>
        <time>2026-05-02T10:10:13.000Z</time>
      </trkpt>
      <trkpt lat="44.81641" lon="0.80107">
        <ele>209.5</ele>
        <time>2026-05-02T10:10:14.000Z</time>
      </trkpt>
      <trkpt lat="44.81641" lon="0.80109">
        <ele>209.9</ele>
        <time>2026-05-02T10:10:15.000Z</time>
      </trkpt>
      <trkpt lat="44.81641" lon="0.80111">
        <ele>209.9</ele>
        <time>2026-05-02T10:10:16.000Z</time>
      </trkpt>
      <trkpt lat="44.81641" lon="0.80113">
        <ele>209.6</ele>
        <time>2026-05-02T10:10:17.000Z</time>
      </trkpt>
      <trkpt lat="44.8164" lon="0.80115">
        <ele>208.8</ele>
        <time>2026-05-02T10:10:18.000Z</time>
      </trkpt>
      <trkpt lat="44.8164" lon="0.80117">
        <ele>209.3</ele>
        <time>2026-05-02T10:10:19.000Z</time>
      </trkpt>
      <trkpt lat="44.8164" lon="0.80119">
        <ele>208.3</ele>
        <time>2026-05-02T10:10:20.000Z</time>
      </trkpt>
      <trkpt lat="44.81641" lon="0.80121">
        <ele>207.7</ele>
        <time>2026-05-02T10:10:21.000Z</time>
      </trkpt>
      <trkpt lat="44.8164" lon="0.80123">
        <ele>207.9</ele>
        <time>2026-05-02T10:10:22.000Z</time>
      </trkpt>
      <trkpt lat="44.8164" lon="0.80125">
        <ele>207.7</ele>
        <time>2026-05-02T10:10:23.000Z</time>
      </trkpt>
      <trkpt lat="44.8164" lon="0.80128">
        <ele>207.7</ele>
        <time>2026-05-02T10:10:24.000Z</time>
      </trkpt>
      <trkpt lat="44.8164" lon="0.8013">
        <ele>207.6</ele>
        <time>2026-05-02T10:10:25.000Z</time>
      </trkpt>
      <trkpt lat="44.81639" lon="0.80132">
        <ele>205.5</ele>
        <time>2026-05-02T10:10:26.000Z</time>
      </trkpt>
      <trkpt lat="44.81639" lon="0.80134">
        <ele>205.3</ele>
        <time>2026-05-02T10:10:27.000Z</time>
      </trkpt>
      <trkpt lat="44.81638" lon="0.80137">
        <ele>205.1</ele>
        <time>2026-05-02T10:10:28.000Z</time>
      </trkpt>
      <trkpt lat="44.81638" lon="0.80139">
        <ele>205.4</ele>
        <time>2026-05-02T10:10:29.000Z</time>
      </trkpt>
      <trkpt lat="44.81638" lon="0.80142">
        <ele>205.5</ele>
        <time>2026-05-02T10:10:30.000Z</time>
      </trkpt>
      <trkpt lat="44.81638" lon="0.80144">
        <ele>205.5</ele>
        <time>2026-05-02T10:10:31.000Z</time>
      </trkpt>
      <trkpt lat="44.81638" lon="0.80147">
        <ele>205.6</ele>
        <time>2026-05-02T10:10:32.000Z</time>
      </trkpt>
      <trkpt lat="44.81638" lon="0.80149">
        <ele>205.8</ele>
        <time>2026-05-02T10:10:33.000Z</time>
      </trkpt>
      <trkpt lat="44.81638" lon="0.80152">
        <ele>205.1</ele>
        <time>2026-05-02T10:10:34.000Z</time>
      </trkpt>
      <trkpt lat="44.81638" lon="0.80154">
        <ele>206.5</ele>
        <time>2026-05-02T10:10:35.000Z</time>
      </trkpt>
      <trkpt lat="44.81637" lon="0.80156">
        <ele>206.4</ele>
        <time>2026-05-02T10:10:36.000Z</time>
      </trkpt>
      <trkpt lat="44.81637" lon="0.80159">
        <ele>206.2</ele>
        <time>2026-05-02T10:10:37.000Z</time>
      </trkpt>
      <trkpt lat="44.81637" lon="0.80162">
        <ele>206</ele>
        <time>2026-05-02T10:10:38.000Z</time>
      </trkpt>
      <trkpt lat="44.81637" lon="0.80164">
        <ele>205.5</ele>
        <time>2026-05-02T10:10:39.000Z</time>
      </trkpt>
      <trkpt lat="44.81637" lon="0.80167">
        <ele>205.6</ele>
        <time>2026-05-02T10:10:40.000Z</time>
      </trkpt>
      <trkpt lat="44.81637" lon="0.80169">
        <ele>205.3</ele>
        <time>2026-05-02T10:10:41.000Z</time>
      </trkpt>
      <trkpt lat="44.81637" lon="0.80172">
        <ele>205.4</ele>
        <time>2026-05-02T10:10:42.000Z</time>
      </trkpt>
      <trkpt lat="44.81637" lon="0.80175">
        <ele>205.3</ele>
        <time>2026-05-02T10:10:43.000Z</time>
      </trkpt>
      <trkpt lat="44.81637" lon="0.80177">
        <ele>205.2</ele>
        <time>2026-05-02T10:10:44.000Z</time>
      </trkpt>
      <trkpt lat="44.81636" lon="0.8018">
        <ele>205.3</ele>
        <time>2026-05-02T10:10:45.000Z</time>
      </trkpt>
      <trkpt lat="44.81636" lon="0.80183">
        <ele>205.6</ele>
        <time>2026-05-02T10:10:46.000Z</time>
      </trkpt>
      <trkpt lat="44.81636" lon="0.80185">
        <ele>206</ele>
        <time>2026-05-02T10:10:47.000Z</time>
      </trkpt>
      <trkpt lat="44.81636" lon="0.80187">
        <ele>206.7</ele>
        <time>2026-05-02T10:10:48.000Z</time>
      </trkpt>
      <trkpt lat="44.81636" lon="0.80189">
        <ele>206.6</ele>
        <time>2026-05-02T10:10:49.000Z</time>
      </trkpt>
      <trkpt lat="44.81636" lon="0.80191">
        <ele>206.7</ele>
        <time>2026-05-02T10:10:50.000Z</time>
      </trkpt>
      <trkpt lat="44.81636" lon="0.80193">
        <ele>207</ele>
        <time>2026-05-02T10:10:51.000Z</time>
      </trkpt>
      <trkpt lat="44.81636" lon="0.80195">
        <ele>206.8</ele>
        <time>2026-05-02T10:10:52.000Z</time>
      </trkpt>
      <trkpt lat="44.81636" lon="0.80197">
        <ele>206.9</ele>
        <time>2026-05-02T10:10:53.000Z</time>
      </trkpt>
      <trkpt lat="44.81636" lon="0.80199">
        <ele>206.8</ele>
        <time>2026-05-02T10:10:54.000Z</time>
      </trkpt>
      <trkpt lat="44.81636" lon="0.80202">
        <ele>206.8</ele>
        <time>2026-05-02T10:10:55.000Z</time>
      </trkpt>
      <trkpt lat="44.81636" lon="0.80205">
        <ele>206.9</ele>
        <time>2026-05-02T10:10:56.000Z</time>
      </trkpt>
      <trkpt lat="44.81636" lon="0.80207">
        <ele>207</ele>
        <time>2026-05-02T10:10:57.000Z</time>
      </trkpt>
      <trkpt lat="44.81636" lon="0.8021">
        <ele>206.7</ele>
        <time>2026-05-02T10:10:58.000Z</time>
      </trkpt>
      <trkpt lat="44.81636" lon="0.80213">
        <ele>206.7</ele>
        <time>2026-05-02T10:10:59.000Z</time>
      </trkpt>
      <trkpt lat="44.81635" lon="0.80215">
        <ele>206.9</ele>
        <time>2026-05-02T10:11:00.000Z</time>
      </trkpt>
      <trkpt lat="44.81636" lon="0.80218">
        <ele>206.8</ele>
        <time>2026-05-02T10:11:01.000Z</time>
      </trkpt>
      <trkpt lat="44.81636" lon="0.80219">
        <ele>207.8</ele>
        <time>2026-05-02T10:11:02.000Z</time>
      </trkpt>
      <trkpt lat="44.81637" lon="0.80221">
        <ele>207.7</ele>
        <time>2026-05-02T10:11:03.000Z</time>
      </trkpt>
      <trkpt lat="44.81637" lon="0.80224">
        <ele>207.3</ele>
        <time>2026-05-02T10:11:04.000Z</time>
      </trkpt>
      <trkpt lat="44.81637" lon="0.80226">
        <ele>207.2</ele>
        <time>2026-05-02T10:11:05.000Z</time>
      </trkpt>
      <trkpt lat="44.81637" lon="0.80229">
        <ele>208</ele>
        <time>2026-05-02T10:11:06.000Z</time>
      </trkpt>
      <trkpt lat="44.81637" lon="0.80231">
        <ele>208.2</ele>
        <time>2026-05-02T10:11:07.000Z</time>
      </trkpt>
      <trkpt lat="44.81637" lon="0.80234">
        <ele>207.6</ele>
        <time>2026-05-02T10:11:08.000Z</time>
      </trkpt>
      <trkpt lat="44.81637" lon="0.80236">
        <ele>209.6</ele>
        <time>2026-05-02T10:11:09.000Z</time>
      </trkpt>
      <trkpt lat="44.81637" lon="0.80239">
        <ele>209.6</ele>
        <time>2026-05-02T10:11:10.000Z</time>
      </trkpt>
      <trkpt lat="44.81637" lon="0.80241">
        <ele>209.6</ele>
        <time>2026-05-02T10:11:11.000Z</time>
      </trkpt>
      <trkpt lat="44.81637" lon="0.80244">
        <ele>210</ele>
        <time>2026-05-02T10:11:12.000Z</time>
      </trkpt>
      <trkpt lat="44.81638" lon="0.80244">
        <ele>211.7</ele>
        <time>2026-05-02T10:11:13.000Z</time>
      </trkpt>
      <trkpt lat="44.81638" lon="0.80245">
        <ele>212.4</ele>
        <time>2026-05-02T10:11:14.000Z</time>
      </trkpt>
      <trkpt lat="44.81638" lon="0.80247">
        <ele>212.4</ele>
        <time>2026-05-02T10:11:15.000Z</time>
      </trkpt>
      <trkpt lat="44.81638" lon="0.80249">
        <ele>212.8</ele>
        <time>2026-05-02T10:11:16.000Z</time>
      </trkpt>
      <trkpt lat="44.81638" lon="0.80252">
        <ele>212.9</ele>
        <time>2026-05-02T10:11:17.000Z</time>
      </trkpt>
      <trkpt lat="44.81638" lon="0.80254">
        <ele>212.9</ele>
        <time>2026-05-02T10:11:18.000Z</time>
      </trkpt>
      <trkpt lat="44.81637" lon="0.80256">
        <ele>212.4</ele>
        <time>2026-05-02T10:11:19.000Z</time>
      </trkpt>
      <trkpt lat="44.81637" lon="0.80259">
        <ele>211.9</ele>
        <time>2026-05-02T10:11:20.000Z</time>
      </trkpt>
      <trkpt lat="44.81636" lon="0.80261">
        <ele>211.8</ele>
        <time>2026-05-02T10:11:21.000Z</time>
      </trkpt>
      <trkpt lat="44.81636" lon="0.80263">
        <ele>212.2</ele>
        <time>2026-05-02T10:11:22.000Z</time>
      </trkpt>
      <trkpt lat="44.81636" lon="0.80266">
        <ele>210.6</ele>
        <time>2026-05-02T10:11:23.000Z</time>
      </trkpt>
      <trkpt lat="44.81636" lon="0.8027">
        <ele>210</ele>
        <time>2026-05-02T10:11:24.000Z</time>
      </trkpt>
      <trkpt lat="44.81636" lon="0.80272">
        <ele>210.9</ele>
        <time>2026-05-02T10:11:25.000Z</time>
      </trkpt>
      <trkpt lat="44.81635" lon="0.80274">
        <ele>211.2</ele>
        <time>2026-05-02T10:11:26.000Z</time>
      </trkpt>
      <trkpt lat="44.81635" lon="0.80275">
        <ele>211.9</ele>
        <time>2026-05-02T10:11:27.000Z</time>
      </trkpt>
      <trkpt lat="44.81634" lon="0.80277">
        <ele>211.7</ele>
        <time>2026-05-02T10:11:28.000Z</time>
      </trkpt>
      <trkpt lat="44.81634" lon="0.80279">
        <ele>212.5</ele>
        <time>2026-05-02T10:11:29.000Z</time>
      </trkpt>
      <trkpt lat="44.81633" lon="0.80281">
        <ele>212.5</ele>
        <time>2026-05-02T10:11:30.000Z</time>
      </trkpt>
      <trkpt lat="44.81633" lon="0.80284">
        <ele>212</ele>
        <time>2026-05-02T10:11:31.000Z</time>
      </trkpt>
      <trkpt lat="44.81632" lon="0.80287">
        <ele>211.2</ele>
        <time>2026-05-02T10:11:32.000Z</time>
      </trkpt>
      <trkpt lat="44.81631" lon="0.8029">
        <ele>211.3</ele>
        <time>2026-05-02T10:11:33.000Z</time>
      </trkpt>
      <trkpt lat="44.8163" lon="0.80293">
        <ele>210.2</ele>
        <time>2026-05-02T10:11:34.000Z</time>
      </trkpt>
      <trkpt lat="44.81629" lon="0.80293">
        <ele>212.5</ele>
        <time>2026-05-02T10:11:35.000Z</time>
      </trkpt>
      <trkpt lat="44.81628" lon="0.80295">
        <ele>212.3</ele>
        <time>2026-05-02T10:11:36.000Z</time>
      </trkpt>
      <trkpt lat="44.81628" lon="0.80297">
        <ele>212</ele>
        <time>2026-05-02T10:11:37.000Z</time>
      </trkpt>
      <trkpt lat="44.81627" lon="0.803">
        <ele>212.2</ele>
        <time>2026-05-02T10:11:38.000Z</time>
      </trkpt>
      <trkpt lat="44.81626" lon="0.80303">
        <ele>212.3</ele>
        <time>2026-05-02T10:11:39.000Z</time>
      </trkpt>
      <trkpt lat="44.81625" lon="0.80305">
        <ele>213.3</ele>
        <time>2026-05-02T10:11:40.000Z</time>
      </trkpt>
      <trkpt lat="44.81624" lon="0.80307">
        <ele>213.7</ele>
        <time>2026-05-02T10:11:41.000Z</time>
      </trkpt>
      <trkpt lat="44.81623" lon="0.80309">
        <ele>213.4</ele>
        <time>2026-05-02T10:11:42.000Z</time>
      </trkpt>
      <trkpt lat="44.81622" lon="0.80312">
        <ele>213.4</ele>
        <time>2026-05-02T10:11:43.000Z</time>
      </trkpt>
      <trkpt lat="44.81621" lon="0.80314">
        <ele>213.6</ele>
        <time>2026-05-02T10:11:44.000Z</time>
      </trkpt>
      <trkpt lat="44.81621" lon="0.80316">
        <ele>213.7</ele>
        <time>2026-05-02T10:11:45.000Z</time>
      </trkpt>
      <trkpt lat="44.8162" lon="0.80319">
        <ele>214.3</ele>
        <time>2026-05-02T10:11:46.000Z</time>
      </trkpt>
      <trkpt lat="44.81619" lon="0.80321">
        <ele>213.2</ele>
        <time>2026-05-02T10:11:47.000Z</time>
      </trkpt>
      <trkpt lat="44.81618" lon="0.80324">
        <ele>213</ele>
        <time>2026-05-02T10:11:48.000Z</time>
      </trkpt>
      <trkpt lat="44.81616" lon="0.80327">
        <ele>212.6</ele>
        <time>2026-05-02T10:11:49.000Z</time>
      </trkpt>
      <trkpt lat="44.81614" lon="0.80329">
        <ele>211.7</ele>
        <time>2026-05-02T10:11:50.000Z</time>
      </trkpt>
      <trkpt lat="44.81613" lon="0.80331">
        <ele>211.1</ele>
        <time>2026-05-02T10:11:51.000Z</time>
      </trkpt>
      <trkpt lat="44.81612" lon="0.80332">
        <ele>211.5</ele>
        <time>2026-05-02T10:11:52.000Z</time>
      </trkpt>
      <trkpt lat="44.81612" lon="0.80334">
        <ele>212.1</ele>
        <time>2026-05-02T10:11:53.000Z</time>
      </trkpt>
      <trkpt lat="44.81611" lon="0.80335">
        <ele>211.6</ele>
        <time>2026-05-02T10:11:54.000Z</time>
      </trkpt>
      <trkpt lat="44.8161" lon="0.80337">
        <ele>211.7</ele>
        <time>2026-05-02T10:11:55.000Z</time>
      </trkpt>
      <trkpt lat="44.8161" lon="0.80339">
        <ele>211.8</ele>
        <time>2026-05-02T10:11:56.000Z</time>
      </trkpt>
      <trkpt lat="44.81609" lon="0.80341">
        <ele>211.5</ele>
        <time>2026-05-02T10:11:57.000Z</time>
      </trkpt>
      <trkpt lat="44.81608" lon="0.80343">
        <ele>211.5</ele>
        <time>2026-05-02T10:11:58.000Z</time>
      </trkpt>
      <trkpt lat="44.81607" lon="0.80344">
        <ele>211.9</ele>
        <time>2026-05-02T10:11:59.000Z</time>
      </trkpt>
      <trkpt lat="44.81605" lon="0.80347">
        <ele>211.8</ele>
        <time>2026-05-02T10:12:00.000Z</time>
      </trkpt>
      <trkpt lat="44.81602" lon="0.80348">
        <ele>210.4</ele>
        <time>2026-05-02T10:12:01.000Z</time>
      </trkpt>
      <trkpt lat="44.816" lon="0.80349">
        <ele>209.9</ele>
        <time>2026-05-02T10:12:02.000Z</time>
      </trkpt>
      <trkpt lat="44.81599" lon="0.80351">
        <ele>210.3</ele>
        <time>2026-05-02T10:12:03.000Z</time>
      </trkpt>
      <trkpt lat="44.81597" lon="0.80353">
        <ele>210.3</ele>
        <time>2026-05-02T10:12:04.000Z</time>
      </trkpt>
      <trkpt lat="44.81596" lon="0.80355">
        <ele>211.4</ele>
        <time>2026-05-02T10:12:05.000Z</time>
      </trkpt>
      <trkpt lat="44.81594" lon="0.80357">
        <ele>212.2</ele>
        <time>2026-05-02T10:12:06.000Z</time>
      </trkpt>
      <trkpt lat="44.81593" lon="0.80361">
        <ele>211.9</ele>
        <time>2026-05-02T10:12:07.000Z</time>
      </trkpt>
      <trkpt lat="44.81591" lon="0.80364">
        <ele>211.9</ele>
        <time>2026-05-02T10:12:08.000Z</time>
      </trkpt>
      <trkpt lat="44.81589" lon="0.80366">
        <ele>211.9</ele>
        <time>2026-05-02T10:12:09.000Z</time>
      </trkpt>
      <trkpt lat="44.81586" lon="0.80368">
        <ele>211.3</ele>
        <time>2026-05-02T10:12:10.000Z</time>
      </trkpt>
      <trkpt lat="44.81583" lon="0.8037">
        <ele>210.3</ele>
        <time>2026-05-02T10:12:11.000Z</time>
      </trkpt>
      <trkpt lat="44.81581" lon="0.80372">
        <ele>210.4</ele>
        <time>2026-05-02T10:12:12.000Z</time>
      </trkpt>
      <trkpt lat="44.81579" lon="0.80374">
        <ele>210.6</ele>
        <time>2026-05-02T10:12:13.000Z</time>
      </trkpt>
      <trkpt lat="44.81577" lon="0.80377">
        <ele>210.2</ele>
        <time>2026-05-02T10:12:14.000Z</time>
      </trkpt>
      <trkpt lat="44.81575" lon="0.80379">
        <ele>210.6</ele>
        <time>2026-05-02T10:12:15.000Z</time>
      </trkpt>
      <trkpt lat="44.81572" lon="0.80381">
        <ele>210.2</ele>
        <time>2026-05-02T10:12:16.000Z</time>
      </trkpt>
      <trkpt lat="44.8157" lon="0.80383">
        <ele>209.6</ele>
        <time>2026-05-02T10:12:17.000Z</time>
      </trkpt>
      <trkpt lat="44.81568" lon="0.80386">
        <ele>209.5</ele>
        <time>2026-05-02T10:12:18.000Z</time>
      </trkpt>
      <trkpt lat="44.81566" lon="0.80389">
        <ele>209.9</ele>
        <time>2026-05-02T10:12:19.000Z</time>
      </trkpt>
      <trkpt lat="44.81564" lon="0.80392">
        <ele>208.7</ele>
        <time>2026-05-02T10:12:20.000Z</time>
      </trkpt>
      <trkpt lat="44.81563" lon="0.80395">
        <ele>208</ele>
        <time>2026-05-02T10:12:21.000Z</time>
      </trkpt>
      <trkpt lat="44.81563" lon="0.80399">
        <ele>208.1</ele>
        <time>2026-05-02T10:12:22.000Z</time>
      </trkpt>
      <trkpt lat="44.81563" lon="0.80403">
        <ele>207</ele>
        <time>2026-05-02T10:12:23.000Z</time>
      </trkpt>
      <trkpt lat="44.81565" lon="0.80407">
        <ele>207.1</ele>
        <time>2026-05-02T10:12:24.000Z</time>
      </trkpt>
      <trkpt lat="44.81566" lon="0.80411">
        <ele>207.4</ele>
        <time>2026-05-02T10:12:25.000Z</time>
      </trkpt>
      <trkpt lat="44.81568" lon="0.80416">
        <ele>207.8</ele>
        <time>2026-05-02T10:12:26.000Z</time>
      </trkpt>
      <trkpt lat="44.8157" lon="0.80419">
        <ele>209.3</ele>
        <time>2026-05-02T10:12:27.000Z</time>
      </trkpt>
      <trkpt lat="44.81571" lon="0.80422">
        <ele>210.4</ele>
        <time>2026-05-02T10:12:28.000Z</time>
      </trkpt>
      <trkpt lat="44.81571" lon="0.80425">
        <ele>211</ele>
        <time>2026-05-02T10:12:29.000Z</time>
      </trkpt>
      <trkpt lat="44.81573" lon="0.80428">
        <ele>211.6</ele>
        <time>2026-05-02T10:12:30.000Z</time>
      </trkpt>
      <trkpt lat="44.81574" lon="0.8043">
        <ele>212.3</ele>
        <time>2026-05-02T10:12:31.000Z</time>
      </trkpt>
      <trkpt lat="44.81576" lon="0.80433">
        <ele>213.6</ele>
        <time>2026-05-02T10:12:32.000Z</time>
      </trkpt>
      <trkpt lat="44.81577" lon="0.80436">
        <ele>214.9</ele>
        <time>2026-05-02T10:12:33.000Z</time>
      </trkpt>
      <trkpt lat="44.81579" lon="0.80439">
        <ele>216.8</ele>
        <time>2026-05-02T10:12:34.000Z</time>
      </trkpt>
      <trkpt lat="44.8158" lon="0.80442">
        <ele>217.9</ele>
        <time>2026-05-02T10:12:35.000Z</time>
      </trkpt>
      <trkpt lat="44.81582" lon="0.80445">
        <ele>218.7</ele>
        <time>2026-05-02T10:12:36.000Z</time>
      </trkpt>
      <trkpt lat="44.81583" lon="0.80448">
        <ele>219.7</ele>
        <time>2026-05-02T10:12:37.000Z</time>
      </trkpt>
      <trkpt lat="44.81583" lon="0.80453">
        <ele>220.4</ele>
        <time>2026-05-02T10:12:38.000Z</time>
      </trkpt>
      <trkpt lat="44.81584" lon="0.80456">
        <ele>220.9</ele>
        <time>2026-05-02T10:12:39.000Z</time>
      </trkpt>
      <trkpt lat="44.81584" lon="0.80461">
        <ele>220.5</ele>
        <time>2026-05-02T10:12:40.000Z</time>
      </trkpt>
      <trkpt lat="44.81584" lon="0.8047">
        <ele>217.6</ele>
        <time>2026-05-02T10:12:41.000Z</time>
      </trkpt>
      <trkpt lat="44.81584" lon="0.8048">
        <ele>214.8</ele>
        <time>2026-05-02T10:12:42.000Z</time>
      </trkpt>
      <trkpt lat="44.81582" lon="0.8049">
        <ele>214.5</ele>
        <time>2026-05-02T10:12:43.000Z</time>
      </trkpt>
      <trkpt lat="44.81581" lon="0.80499">
        <ele>214.5</ele>
        <time>2026-05-02T10:12:44.000Z</time>
      </trkpt>
      <trkpt lat="44.81579" lon="0.80507">
        <ele>214.8</ele>
        <time>2026-05-02T10:12:45.000Z</time>
      </trkpt>
      <trkpt lat="44.81577" lon="0.80515">
        <ele>214.2</ele>
        <time>2026-05-02T10:12:46.000Z</time>
      </trkpt>
      <trkpt lat="44.81576" lon="0.80524">
        <ele>214.6</ele>
        <time>2026-05-02T10:12:47.000Z</time>
      </trkpt>
      <trkpt lat="44.81574" lon="0.80532">
        <ele>215</ele>
        <time>2026-05-02T10:12:48.000Z</time>
      </trkpt>
      <trkpt lat="44.81572" lon="0.8054">
        <ele>214.4</ele>
        <time>2026-05-02T10:12:49.000Z</time>
      </trkpt>
      <trkpt lat="44.8157" lon="0.80546">
        <ele>214.3</ele>
        <time>2026-05-02T10:12:50.000Z</time>
      </trkpt>
      <trkpt lat="44.81568" lon="0.80552">
        <ele>214.6</ele>
        <time>2026-05-02T10:12:51.000Z</time>
      </trkpt>
      <trkpt lat="44.81566" lon="0.80557">
        <ele>214.7</ele>
        <time>2026-05-02T10:12:52.000Z</time>
      </trkpt>
      <trkpt lat="44.81565" lon="0.80562">
        <ele>214.8</ele>
        <time>2026-05-02T10:12:53.000Z</time>
      </trkpt>
      <trkpt lat="44.81564" lon="0.80565">
        <ele>216</ele>
        <time>2026-05-02T10:12:54.000Z</time>
      </trkpt>
      <trkpt lat="44.81564" lon="0.80571">
        <ele>216.2</ele>
        <time>2026-05-02T10:12:55.000Z</time>
      </trkpt>
      <trkpt lat="44.81564" lon="0.80575">
        <ele>216.9</ele>
        <time>2026-05-02T10:12:56.000Z</time>
      </trkpt>
      <trkpt lat="44.81563" lon="0.80579">
        <ele>217.1</ele>
        <time>2026-05-02T10:12:57.000Z</time>
      </trkpt>
      <trkpt lat="44.81562" lon="0.80583">
        <ele>217.7</ele>
        <time>2026-05-02T10:12:58.000Z</time>
      </trkpt>
      <trkpt lat="44.81561" lon="0.80586">
        <ele>218.7</ele>
        <time>2026-05-02T10:12:59.000Z</time>
      </trkpt>
      <trkpt lat="44.8156" lon="0.80588">
        <ele>220</ele>
        <time>2026-05-02T10:13:00.000Z</time>
      </trkpt>
      <trkpt lat="44.81559" lon="0.80591">
        <ele>220.7</ele>
        <time>2026-05-02T10:13:01.000Z</time>
      </trkpt>
      <trkpt lat="44.81557" lon="0.80594">
        <ele>221.4</ele>
        <time>2026-05-02T10:13:02.000Z</time>
      </trkpt>
      <trkpt lat="44.81557" lon="0.80599">
        <ele>221.8</ele>
        <time>2026-05-02T10:13:03.000Z</time>
      </trkpt>
      <trkpt lat="44.81556" lon="0.80602">
        <ele>222.8</ele>
        <time>2026-05-02T10:13:04.000Z</time>
      </trkpt>
      <trkpt lat="44.81555" lon="0.80605">
        <ele>224.1</ele>
        <time>2026-05-02T10:13:05.000Z</time>
      </trkpt>
      <trkpt lat="44.81555" lon="0.80608">
        <ele>225.3</ele>
        <time>2026-05-02T10:13:06.000Z</time>
      </trkpt>
      <trkpt lat="44.81554" lon="0.80612">
        <ele>224.6</ele>
        <time>2026-05-02T10:13:07.000Z</time>
      </trkpt>
      <trkpt lat="44.81554" lon="0.80616">
        <ele>225.1</ele>
        <time>2026-05-02T10:13:08.000Z</time>
      </trkpt>
      <trkpt lat="44.81554" lon="0.8062">
        <ele>225.6</ele>
        <time>2026-05-02T10:13:09.000Z</time>
      </trkpt>
      <trkpt lat="44.81553" lon="0.80624">
        <ele>224.8</ele>
        <time>2026-05-02T10:13:10.000Z</time>
      </trkpt>
      <trkpt lat="44.81552" lon="0.80628">
        <ele>225.1</ele>
        <time>2026-05-02T10:13:11.000Z</time>
      </trkpt>
      <trkpt lat="44.81551" lon="0.80632">
        <ele>225</ele>
        <time>2026-05-02T10:13:12.000Z</time>
      </trkpt>
      <trkpt lat="44.8155" lon="0.80634">
        <ele>224.9</ele>
        <time>2026-05-02T10:13:13.000Z</time>
      </trkpt>
      <trkpt lat="44.8155" lon="0.80637">
        <ele>225.1</ele>
        <time>2026-05-02T10:13:14.000Z</time>
      </trkpt>
      <trkpt lat="44.81549" lon="0.8064">
        <ele>225.1</ele>
        <time>2026-05-02T10:13:15.000Z</time>
      </trkpt>
      <trkpt lat="44.81549" lon="0.80643">
        <ele>225.3</ele>
        <time>2026-05-02T10:13:16.000Z</time>
      </trkpt>
      <trkpt lat="44.81548" lon="0.80646">
        <ele>225.4</ele>
        <time>2026-05-02T10:13:17.000Z</time>
      </trkpt>
      <trkpt lat="44.81548" lon="0.80649">
        <ele>225.8</ele>
        <time>2026-05-02T10:13:18.000Z</time>
      </trkpt>
      <trkpt lat="44.81548" lon="0.80651">
        <ele>226.4</ele>
        <time>2026-05-02T10:13:19.000Z</time>
      </trkpt>
      <trkpt lat="44.81548" lon="0.80655">
        <ele>226.5</ele>
        <time>2026-05-02T10:13:20.000Z</time>
      </trkpt>
      <trkpt lat="44.81548" lon="0.80659">
        <ele>227.2</ele>
        <time>2026-05-02T10:13:21.000Z</time>
      </trkpt>
      <trkpt lat="44.81547" lon="0.80663">
        <ele>226.1</ele>
        <time>2026-05-02T10:13:22.000Z</time>
      </trkpt>
      <trkpt lat="44.81546" lon="0.80666">
        <ele>226.6</ele>
        <time>2026-05-02T10:13:23.000Z</time>
      </trkpt>
      <trkpt lat="44.81545" lon="0.80669">
        <ele>227.2</ele>
        <time>2026-05-02T10:13:24.000Z</time>
      </trkpt>
      <trkpt lat="44.81545" lon="0.80672">
        <ele>227</ele>
        <time>2026-05-02T10:13:25.000Z</time>
      </trkpt>
      <trkpt lat="44.81544" lon="0.80674">
        <ele>227</ele>
        <time>2026-05-02T10:13:26.000Z</time>
      </trkpt>
      <trkpt lat="44.81544" lon="0.80676">
        <ele>226</ele>
        <time>2026-05-02T10:13:27.000Z</time>
      </trkpt>
      <trkpt lat="44.81541" lon="0.8068">
        <ele>221.3</ele>
        <time>2026-05-02T10:13:28.000Z</time>
      </trkpt>
      <trkpt lat="44.8154" lon="0.80684">
        <ele>218.4</ele>
        <time>2026-05-02T10:13:29.000Z</time>
      </trkpt>
      <trkpt lat="44.81538" lon="0.80688">
        <ele>216.3</ele>
        <time>2026-05-02T10:13:30.000Z</time>
      </trkpt>
      <trkpt lat="44.81538" lon="0.80691">
        <ele>215.2</ele>
        <time>2026-05-02T10:13:31.000Z</time>
      </trkpt>
      <trkpt lat="44.81536" lon="0.80694">
        <ele>214.7</ele>
        <time>2026-05-02T10:13:32.000Z</time>
      </trkpt>
      <trkpt lat="44.81535" lon="0.80696">
        <ele>213.8</ele>
        <time>2026-05-02T10:13:33.000Z</time>
      </trkpt>
      <trkpt lat="44.81534" lon="0.80699">
        <ele>212.9</ele>
        <time>2026-05-02T10:13:34.000Z</time>
      </trkpt>
      <trkpt lat="44.81532" lon="0.80701">
        <ele>212.6</ele>
        <time>2026-05-02T10:13:35.000Z</time>
      </trkpt>
      <trkpt lat="44.81531" lon="0.80703">
        <ele>212.7</ele>
        <time>2026-05-02T10:13:36.000Z</time>
      </trkpt>
      <trkpt lat="44.81529" lon="0.80705">
        <ele>212.6</ele>
        <time>2026-05-02T10:13:37.000Z</time>
      </trkpt>
      <trkpt lat="44.81527" lon="0.80707">
        <ele>212.6</ele>
        <time>2026-05-02T10:13:38.000Z</time>
      </trkpt>
      <trkpt lat="44.81526" lon="0.8071">
        <ele>212</ele>
        <time>2026-05-02T10:13:39.000Z</time>
      </trkpt>
      <trkpt lat="44.81524" lon="0.80712">
        <ele>211.8</ele>
        <time>2026-05-02T10:13:40.000Z</time>
      </trkpt>
      <trkpt lat="44.81522" lon="0.80713">
        <ele>212</ele>
        <time>2026-05-02T10:13:41.000Z</time>
      </trkpt>
      <trkpt lat="44.81521" lon="0.80715">
        <ele>212.3</ele>
        <time>2026-05-02T10:13:42.000Z</time>
      </trkpt>
      <trkpt lat="44.81521" lon="0.8072">
        <ele>213.1</ele>
        <time>2026-05-02T10:13:43.000Z</time>
      </trkpt>
      <trkpt lat="44.81521" lon="0.80723">
        <ele>213.3</ele>
        <time>2026-05-02T10:13:44.000Z</time>
      </trkpt>
      <trkpt lat="44.81518" lon="0.80722">
        <ele>212.3</ele>
        <time>2026-05-02T10:13:45.000Z</time>
      </trkpt>
      <trkpt lat="44.81517" lon="0.80723">
        <ele>211.7</ele>
        <time>2026-05-02T10:13:46.000Z</time>
      </trkpt>
      <trkpt lat="44.81515" lon="0.80724">
        <ele>211.1</ele>
        <time>2026-05-02T10:13:47.000Z</time>
      </trkpt>
      <trkpt lat="44.81514" lon="0.80726">
        <ele>210.8</ele>
        <time>2026-05-02T10:13:48.000Z</time>
      </trkpt>
      <trkpt lat="44.81512" lon="0.80727">
        <ele>210.8</ele>
        <time>2026-05-02T10:13:49.000Z</time>
      </trkpt>
      <trkpt lat="44.81511" lon="0.80728">
        <ele>210.5</ele>
        <time>2026-05-02T10:13:50.000Z</time>
      </trkpt>
      <trkpt lat="44.8151" lon="0.8073">
        <ele>210.4</ele>
        <time>2026-05-02T10:13:51.000Z</time>
      </trkpt>
      <trkpt lat="44.81509" lon="0.80732">
        <ele>211.1</ele>
        <time>2026-05-02T10:13:52.000Z</time>
      </trkpt>
      <trkpt lat="44.81508" lon="0.80734">
        <ele>211.5</ele>
        <time>2026-05-02T10:13:53.000Z</time>
      </trkpt>
      <trkpt lat="44.81507" lon="0.80736">
        <ele>210.9</ele>
        <time>2026-05-02T10:13:54.000Z</time>
      </trkpt>
      <trkpt lat="44.81505" lon="0.80738">
        <ele>210.6</ele>
        <time>2026-05-02T10:13:55.000Z</time>
      </trkpt>
      <trkpt lat="44.81504" lon="0.80739">
        <ele>210.8</ele>
        <time>2026-05-02T10:13:56.000Z</time>
      </trkpt>
      <trkpt lat="44.81502" lon="0.8074">
        <ele>210.2</ele>
        <time>2026-05-02T10:13:57.000Z</time>
      </trkpt>
      <trkpt lat="44.81501" lon="0.80742">
        <ele>210.1</ele>
        <time>2026-05-02T10:13:58.000Z</time>
      </trkpt>
      <trkpt lat="44.815" lon="0.80744">
        <ele>210</ele>
        <time>2026-05-02T10:13:59.000Z</time>
      </trkpt>
      <trkpt lat="44.81499" lon="0.80746">
        <ele>210</ele>
        <time>2026-05-02T10:14:00.000Z</time>
      </trkpt>
      <trkpt lat="44.81499" lon="0.80748">
        <ele>210.1</ele>
        <time>2026-05-02T10:14:01.000Z</time>
      </trkpt>
      <trkpt lat="44.81497" lon="0.8075">
        <ele>210.3</ele>
        <time>2026-05-02T10:14:02.000Z</time>
      </trkpt>
      <trkpt lat="44.81496" lon="0.80752">
        <ele>210.6</ele>
        <time>2026-05-02T10:14:03.000Z</time>
      </trkpt>
      <trkpt lat="44.81495" lon="0.80753">
        <ele>210.5</ele>
        <time>2026-05-02T10:14:04.000Z</time>
      </trkpt>
      <trkpt lat="44.81493" lon="0.80753">
        <ele>209.1</ele>
        <time>2026-05-02T10:14:05.000Z</time>
      </trkpt>
      <trkpt lat="44.81492" lon="0.80754">
        <ele>209.3</ele>
        <time>2026-05-02T10:14:06.000Z</time>
      </trkpt>
      <trkpt lat="44.8149" lon="0.80755">
        <ele>209.4</ele>
        <time>2026-05-02T10:14:07.000Z</time>
      </trkpt>
      <trkpt lat="44.81489" lon="0.80757">
        <ele>210.3</ele>
        <time>2026-05-02T10:14:08.000Z</time>
      </trkpt>
      <trkpt lat="44.81488" lon="0.80759">
        <ele>210.8</ele>
        <time>2026-05-02T10:14:09.000Z</time>
      </trkpt>
      <trkpt lat="44.81487" lon="0.80761">
        <ele>210.3</ele>
        <time>2026-05-02T10:14:10.000Z</time>
      </trkpt>
      <trkpt lat="44.81486" lon="0.80763">
        <ele>210.3</ele>
        <time>2026-05-02T10:14:11.000Z</time>
      </trkpt>
      <trkpt lat="44.81484" lon="0.80764">
        <ele>210.3</ele>
        <time>2026-05-02T10:14:12.000Z</time>
      </trkpt>
      <trkpt lat="44.81483" lon="0.80766">
        <ele>209.8</ele>
        <time>2026-05-02T10:14:13.000Z</time>
      </trkpt>
      <trkpt lat="44.81481" lon="0.80767">
        <ele>208.8</ele>
        <time>2026-05-02T10:14:14.000Z</time>
      </trkpt>
      <trkpt lat="44.81479" lon="0.80768">
        <ele>208.4</ele>
        <time>2026-05-02T10:14:15.000Z</time>
      </trkpt>
      <trkpt lat="44.81478" lon="0.80769">
        <ele>208.2</ele>
        <time>2026-05-02T10:14:16.000Z</time>
      </trkpt>
      <trkpt lat="44.81476" lon="0.80771">
        <ele>207.6</ele>
        <time>2026-05-02T10:14:17.000Z</time>
      </trkpt>
      <trkpt lat="44.81475" lon="0.80774">
        <ele>207.9</ele>
        <time>2026-05-02T10:14:18.000Z</time>
      </trkpt>
      <trkpt lat="44.81474" lon="0.80775">
        <ele>206.8</ele>
        <time>2026-05-02T10:14:19.000Z</time>
      </trkpt>
      <trkpt lat="44.81472" lon="0.80777">
        <ele>207</ele>
        <time>2026-05-02T10:14:20.000Z</time>
      </trkpt>
      <trkpt lat="44.8147" lon="0.80779">
        <ele>207.1</ele>
        <time>2026-05-02T10:14:21.000Z</time>
      </trkpt>
      <trkpt lat="44.81472" lon="0.8078">
        <ele>207</ele>
        <time>2026-05-02T10:14:22.000Z</time>
      </trkpt>
      <trkpt lat="44.81473" lon="0.80779">
        <ele>207.3</ele>
        <time>2026-05-02T10:14:23.000Z</time>
      </trkpt>
      <trkpt lat="44.81474" lon="0.80779">
        <ele>207.2</ele>
        <time>2026-05-02T10:14:24.000Z</time>
      </trkpt>
      <trkpt lat="44.81476" lon="0.80777">
        <ele>206.3</ele>
        <time>2026-05-02T10:14:25.000Z</time>
      </trkpt>
      <trkpt lat="44.81477" lon="0.80777">
        <ele>206.2</ele>
        <time>2026-05-02T10:14:26.000Z</time>
      </trkpt>
      <trkpt lat="44.81477" lon="0.80777">
        <ele>206.2</ele>
        <time>2026-05-02T10:14:27.000Z</time>
      </trkpt>
      <trkpt lat="44.81477" lon="0.80777">
        <ele>206.1</ele>
        <time>2026-05-02T10:14:28.000Z</time>
      </trkpt>
      <trkpt lat="44.81477" lon="0.80777">
        <ele>206.1</ele>
        <time>2026-05-02T10:14:29.000Z</time>
      </trkpt>
      <trkpt lat="44.81477" lon="0.80777">
        <ele>206.1</ele>
        <time>2026-05-02T10:14:30.000Z</time>
      </trkpt>
      <trkpt lat="44.81477" lon="0.80777">
        <ele>206.2</ele>
        <time>2026-05-02T10:14:31.000Z</time>
      </trkpt>
      <trkpt lat="44.81477" lon="0.80777">
        <ele>206.2</ele>
        <time>2026-05-02T10:14:32.000Z</time>
      </trkpt>
      <trkpt lat="44.81477" lon="0.80777">
        <ele>206.2</ele>
        <time>2026-05-02T10:14:33.000Z</time>
      </trkpt>
      <trkpt lat="44.81477" lon="0.80777">
        <ele>206.1</ele>
        <time>2026-05-02T10:14:34.000Z</time>
      </trkpt>
      <trkpt lat="44.81477" lon="0.80777">
        <ele>206.1</ele>
        <time>2026-05-02T10:14:35.000Z</time>
      </trkpt>
      <trkpt lat="44.81477" lon="0.80777">
        <ele>206.1</ele>
        <time>2026-05-02T10:14:36.000Z</time>
      </trkpt>
      <trkpt lat="44.81477" lon="0.80777">
        <ele>206.1</ele>
        <time>2026-05-02T10:14:37.000Z</time>
      </trkpt>
      <trkpt lat="44.81477" lon="0.80777">
        <ele>206.1</ele>
        <time>2026-05-02T10:14:38.000Z</time>
      </trkpt>
      <trkpt lat="44.81477" lon="0.80777">
        <ele>206.1</ele>
        <time>2026-05-02T10:14:39.000Z</time>
      </trkpt>
      <trkpt lat="44.81476" lon="0.80777">
        <ele>206.3</ele>
        <time>2026-05-02T10:14:40.000Z</time>
      </trkpt>
      <trkpt lat="44.81476" lon="0.80777">
        <ele>206.4</ele>
        <time>2026-05-02T10:14:41.000Z</time>
      </trkpt>
      <trkpt lat="44.81476" lon="0.80778">
        <ele>206.5</ele>
        <time>2026-05-02T10:14:42.000Z</time>
      </trkpt>
      <trkpt lat="44.81473" lon="0.80776">
        <ele>206.9</ele>
        <time>2026-05-02T10:14:43.000Z</time>
      </trkpt>
      <trkpt lat="44.81472" lon="0.80777">
        <ele>206.7</ele>
        <time>2026-05-02T10:14:44.000Z</time>
      </trkpt>
      <trkpt lat="44.81471" lon="0.8078">
        <ele>207</ele>
        <time>2026-05-02T10:14:45.000Z</time>
      </trkpt>
      <trkpt lat="44.81471" lon="0.80782">
        <ele>207</ele>
        <time>2026-05-02T10:14:46.000Z</time>
      </trkpt>
      <trkpt lat="44.81469" lon="0.80784">
        <ele>207.2</ele>
        <time>2026-05-02T10:14:47.000Z</time>
      </trkpt>
      <trkpt lat="44.81469" lon="0.80786">
        <ele>207.7</ele>
        <time>2026-05-02T10:14:48.000Z</time>
      </trkpt>
      <trkpt lat="44.81468" lon="0.80788">
        <ele>207.9</ele>
        <time>2026-05-02T10:14:49.000Z</time>
      </trkpt>
      <trkpt lat="44.81468" lon="0.8079">
        <ele>208.7</ele>
        <time>2026-05-02T10:14:50.000Z</time>
      </trkpt>
      <trkpt lat="44.81467" lon="0.80792">
        <ele>208.7</ele>
        <time>2026-05-02T10:14:51.000Z</time>
      </trkpt>
      <trkpt lat="44.81467" lon="0.80795">
        <ele>208.4</ele>
        <time>2026-05-02T10:14:52.000Z</time>
      </trkpt>
      <trkpt lat="44.81466" lon="0.80797">
        <ele>209</ele>
        <time>2026-05-02T10:14:53.000Z</time>
      </trkpt>
      <trkpt lat="44.81466" lon="0.80799">
        <ele>208.8</ele>
        <time>2026-05-02T10:14:54.000Z</time>
      </trkpt>
      <trkpt lat="44.81465" lon="0.80801">
        <ele>209.4</ele>
        <time>2026-05-02T10:14:55.000Z</time>
      </trkpt>
      <trkpt lat="44.81464" lon="0.80804">
        <ele>209.3</ele>
        <time>2026-05-02T10:14:56.000Z</time>
      </trkpt>
      <trkpt lat="44.81464" lon="0.80806">
        <ele>210.3</ele>
        <time>2026-05-02T10:14:57.000Z</time>
      </trkpt>
      <trkpt lat="44.81463" lon="0.80808">
        <ele>210.7</ele>
        <time>2026-05-02T10:14:58.000Z</time>
      </trkpt>
      <trkpt lat="44.81462" lon="0.8081">
        <ele>210.1</ele>
        <time>2026-05-02T10:14:59.000Z</time>
      </trkpt>
      <trkpt lat="44.81462" lon="0.80813">
        <ele>210.4</ele>
        <time>2026-05-02T10:15:00.000Z</time>
      </trkpt>
      <trkpt lat="44.81461" lon="0.80815">
        <ele>210.8</ele>
        <time>2026-05-02T10:15:01.000Z</time>
      </trkpt>
      <trkpt lat="44.81461" lon="0.80817">
        <ele>210.9</ele>
        <time>2026-05-02T10:15:02.000Z</time>
      </trkpt>
      <trkpt lat="44.8146" lon="0.80819">
        <ele>211</ele>
        <time>2026-05-02T10:15:03.000Z</time>
      </trkpt>
      <trkpt lat="44.8146" lon="0.80821">
        <ele>210.6</ele>
        <time>2026-05-02T10:15:04.000Z</time>
      </trkpt>
      <trkpt lat="44.81459" lon="0.80823">
        <ele>210.4</ele>
        <time>2026-05-02T10:15:05.000Z</time>
      </trkpt>
      <trkpt lat="44.81459" lon="0.80824">
        <ele>210.3</ele>
        <time>2026-05-02T10:15:06.000Z</time>
      </trkpt>
      <trkpt lat="44.81458" lon="0.80826">
        <ele>210.4</ele>
        <time>2026-05-02T10:15:07.000Z</time>
      </trkpt>
      <trkpt lat="44.81457" lon="0.80828">
        <ele>210.2</ele>
        <time>2026-05-02T10:15:08.000Z</time>
      </trkpt>
      <trkpt lat="44.81457" lon="0.8083">
        <ele>210</ele>
        <time>2026-05-02T10:15:09.000Z</time>
      </trkpt>
      <trkpt lat="44.81457" lon="0.80832">
        <ele>209.7</ele>
        <time>2026-05-02T10:15:10.000Z</time>
      </trkpt>
      <trkpt lat="44.81457" lon="0.80834">
        <ele>209.9</ele>
        <time>2026-05-02T10:15:11.000Z</time>
      </trkpt>
      <trkpt lat="44.81457" lon="0.80836">
        <ele>211</ele>
        <time>2026-05-02T10:15:12.000Z</time>
      </trkpt>
      <trkpt lat="44.81456" lon="0.80839">
        <ele>210.5</ele>
        <time>2026-05-02T10:15:13.000Z</time>
      </trkpt>
      <trkpt lat="44.81456" lon="0.80841">
        <ele>210.8</ele>
        <time>2026-05-02T10:15:14.000Z</time>
      </trkpt>
      <trkpt lat="44.81456" lon="0.80843">
        <ele>211</ele>
        <time>2026-05-02T10:15:15.000Z</time>
      </trkpt>
      <trkpt lat="44.81455" lon="0.80845">
        <ele>211.3</ele>
        <time>2026-05-02T10:15:16.000Z</time>
      </trkpt>
      <trkpt lat="44.81455" lon="0.80847">
        <ele>212.2</ele>
        <time>2026-05-02T10:15:17.000Z</time>
      </trkpt>
      <trkpt lat="44.81454" lon="0.80849">
        <ele>211.9</ele>
        <time>2026-05-02T10:15:18.000Z</time>
      </trkpt>
      <trkpt lat="44.81454" lon="0.80851">
        <ele>212.5</ele>
        <time>2026-05-02T10:15:19.000Z</time>
      </trkpt>
      <trkpt lat="44.81453" lon="0.80852">
        <ele>213.2</ele>
        <time>2026-05-02T10:15:20.000Z</time>
      </trkpt>
      <trkpt lat="44.81453" lon="0.80854">
        <ele>213.6</ele>
        <time>2026-05-02T10:15:21.000Z</time>
      </trkpt>
      <trkpt lat="44.81452" lon="0.80856">
        <ele>213.7</ele>
        <time>2026-05-02T10:15:22.000Z</time>
      </trkpt>
      <trkpt lat="44.81452" lon="0.80858">
        <ele>213.4</ele>
        <time>2026-05-02T10:15:23.000Z</time>
      </trkpt>
      <trkpt lat="44.81452" lon="0.80859">
        <ele>213.6</ele>
        <time>2026-05-02T10:15:24.000Z</time>
      </trkpt>
      <trkpt lat="44.81452" lon="0.80861">
        <ele>214.7</ele>
        <time>2026-05-02T10:15:25.000Z</time>
      </trkpt>
      <trkpt lat="44.81451" lon="0.80863">
        <ele>214.4</ele>
        <time>2026-05-02T10:15:26.000Z</time>
      </trkpt>
      <trkpt lat="44.81451" lon="0.80865">
        <ele>214.7</ele>
        <time>2026-05-02T10:15:27.000Z</time>
      </trkpt>
      <trkpt lat="44.8145" lon="0.80867">
        <ele>215.2</ele>
        <time>2026-05-02T10:15:28.000Z</time>
      </trkpt>
      <trkpt lat="44.81449" lon="0.80869">
        <ele>215.6</ele>
        <time>2026-05-02T10:15:29.000Z</time>
      </trkpt>
      <trkpt lat="44.81448" lon="0.80871">
        <ele>215.8</ele>
        <time>2026-05-02T10:15:30.000Z</time>
      </trkpt>
      <trkpt lat="44.81448" lon="0.80873">
        <ele>217.2</ele>
        <time>2026-05-02T10:15:31.000Z</time>
      </trkpt>
      <trkpt lat="44.81448" lon="0.80875">
        <ele>217</ele>
        <time>2026-05-02T10:15:32.000Z</time>
      </trkpt>
      <trkpt lat="44.81447" lon="0.80878">
        <ele>216.5</ele>
        <time>2026-05-02T10:15:33.000Z</time>
      </trkpt>
      <trkpt lat="44.81446" lon="0.8088">
        <ele>216.2</ele>
        <time>2026-05-02T10:15:34.000Z</time>
      </trkpt>
      <trkpt lat="44.81445" lon="0.80883">
        <ele>215.5</ele>
        <time>2026-05-02T10:15:35.000Z</time>
      </trkpt>
      <trkpt lat="44.81444" lon="0.80885">
        <ele>215.1</ele>
        <time>2026-05-02T10:15:36.000Z</time>
      </trkpt>
      <trkpt lat="44.81443" lon="0.80887">
        <ele>214.9</ele>
        <time>2026-05-02T10:15:37.000Z</time>
      </trkpt>
      <trkpt lat="44.81442" lon="0.80889">
        <ele>214.8</ele>
        <time>2026-05-02T10:15:38.000Z</time>
      </trkpt>
      <trkpt lat="44.81441" lon="0.80891">
        <ele>214.8</ele>
        <time>2026-05-02T10:15:39.000Z</time>
      </trkpt>
      <trkpt lat="44.8144" lon="0.80894">
        <ele>215.5</ele>
        <time>2026-05-02T10:15:40.000Z</time>
      </trkpt>
      <trkpt lat="44.81439" lon="0.80896">
        <ele>215.9</ele>
        <time>2026-05-02T10:15:41.000Z</time>
      </trkpt>
      <trkpt lat="44.81438" lon="0.80898">
        <ele>215.4</ele>
        <time>2026-05-02T10:15:42.000Z</time>
      </trkpt>
      <trkpt lat="44.81437" lon="0.809">
        <ele>215</ele>
        <time>2026-05-02T10:15:43.000Z</time>
      </trkpt>
      <trkpt lat="44.81436" lon="0.80902">
        <ele>214.3</ele>
        <time>2026-05-02T10:15:44.000Z</time>
      </trkpt>
      <trkpt lat="44.81435" lon="0.80904">
        <ele>214</ele>
        <time>2026-05-02T10:15:45.000Z</time>
      </trkpt>
      <trkpt lat="44.81434" lon="0.80907">
        <ele>213.4</ele>
        <time>2026-05-02T10:15:46.000Z</time>
      </trkpt>
      <trkpt lat="44.81434" lon="0.80909">
        <ele>213.3</ele>
        <time>2026-05-02T10:15:47.000Z</time>
      </trkpt>
      <trkpt lat="44.81433" lon="0.80912">
        <ele>212.3</ele>
        <time>2026-05-02T10:15:48.000Z</time>
      </trkpt>
      <trkpt lat="44.81432" lon="0.80915">
        <ele>211.6</ele>
        <time>2026-05-02T10:15:49.000Z</time>
      </trkpt>
      <trkpt lat="44.81431" lon="0.80917">
        <ele>211.3</ele>
        <time>2026-05-02T10:15:50.000Z</time>
      </trkpt>
      <trkpt lat="44.8143" lon="0.80919">
        <ele>211.2</ele>
        <time>2026-05-02T10:15:51.000Z</time>
      </trkpt>
      <trkpt lat="44.81429" lon="0.80921">
        <ele>212.1</ele>
        <time>2026-05-02T10:15:52.000Z</time>
      </trkpt>
      <trkpt lat="44.81428" lon="0.80923">
        <ele>212.4</ele>
        <time>2026-05-02T10:15:53.000Z</time>
      </trkpt>
      <trkpt lat="44.81427" lon="0.80925">
        <ele>212.4</ele>
        <time>2026-05-02T10:15:54.000Z</time>
      </trkpt>
      <trkpt lat="44.81427" lon="0.80927">
        <ele>213</ele>
        <time>2026-05-02T10:15:55.000Z</time>
      </trkpt>
      <trkpt lat="44.81426" lon="0.80929">
        <ele>213.5</ele>
        <time>2026-05-02T10:15:56.000Z</time>
      </trkpt>
      <trkpt lat="44.81425" lon="0.80931">
        <ele>213.4</ele>
        <time>2026-05-02T10:15:57.000Z</time>
      </trkpt>
      <trkpt lat="44.81424" lon="0.80933">
        <ele>213.6</ele>
        <time>2026-05-02T10:15:58.000Z</time>
      </trkpt>
      <trkpt lat="44.81424" lon="0.80935">
        <ele>213.7</ele>
        <time>2026-05-02T10:15:59.000Z</time>
      </trkpt>
      <trkpt lat="44.81423" lon="0.80937">
        <ele>213.9</ele>
        <time>2026-05-02T10:16:00.000Z</time>
      </trkpt>
      <trkpt lat="44.81422" lon="0.80939">
        <ele>213.4</ele>
        <time>2026-05-02T10:16:01.000Z</time>
      </trkpt>
      <trkpt lat="44.81421" lon="0.80942">
        <ele>212.9</ele>
        <time>2026-05-02T10:16:02.000Z</time>
      </trkpt>
      <trkpt lat="44.8142" lon="0.80944">
        <ele>213.2</ele>
        <time>2026-05-02T10:16:03.000Z</time>
      </trkpt>
      <trkpt lat="44.81419" lon="0.80946">
        <ele>212.9</ele>
        <time>2026-05-02T10:16:04.000Z</time>
      </trkpt>
      <trkpt lat="44.81417" lon="0.80947">
        <ele>212.7</ele>
        <time>2026-05-02T10:16:05.000Z</time>
      </trkpt>
      <trkpt lat="44.81416" lon="0.80949">
        <ele>212.6</ele>
        <time>2026-05-02T10:16:06.000Z</time>
      </trkpt>
      <trkpt lat="44.81415" lon="0.80951">
        <ele>212.6</ele>
        <time>2026-05-02T10:16:07.000Z</time>
      </trkpt>
      <trkpt lat="44.81414" lon="0.80953">
        <ele>212.4</ele>
        <time>2026-05-02T10:16:08.000Z</time>
      </trkpt>
      <trkpt lat="44.81414" lon="0.80955">
        <ele>213.2</ele>
        <time>2026-05-02T10:16:09.000Z</time>
      </trkpt>
      <trkpt lat="44.81413" lon="0.80956">
        <ele>213.6</ele>
        <time>2026-05-02T10:16:10.000Z</time>
      </trkpt>
      <trkpt lat="44.81412" lon="0.80958">
        <ele>213.6</ele>
        <time>2026-05-02T10:16:11.000Z</time>
      </trkpt>
      <trkpt lat="44.81412" lon="0.8096">
        <ele>213.7</ele>
        <time>2026-05-02T10:16:12.000Z</time>
      </trkpt>
      <trkpt lat="44.81411" lon="0.80962">
        <ele>213.1</ele>
        <time>2026-05-02T10:16:13.000Z</time>
      </trkpt>
      <trkpt lat="44.8141" lon="0.80964">
        <ele>212.9</ele>
        <time>2026-05-02T10:16:14.000Z</time>
      </trkpt>
      <trkpt lat="44.8141" lon="0.80965">
        <ele>213.1</ele>
        <time>2026-05-02T10:16:15.000Z</time>
      </trkpt>
      <trkpt lat="44.81409" lon="0.80967">
        <ele>213.6</ele>
        <time>2026-05-02T10:16:16.000Z</time>
      </trkpt>
      <trkpt lat="44.81408" lon="0.80968">
        <ele>212.8</ele>
        <time>2026-05-02T10:16:17.000Z</time>
      </trkpt>
      <trkpt lat="44.81408" lon="0.80971">
        <ele>212.8</ele>
        <time>2026-05-02T10:16:18.000Z</time>
      </trkpt>
      <trkpt lat="44.81407" lon="0.80973">
        <ele>211.9</ele>
        <time>2026-05-02T10:16:19.000Z</time>
      </trkpt>
      <trkpt lat="44.81407" lon="0.80975">
        <ele>213.2</ele>
        <time>2026-05-02T10:16:20.000Z</time>
      </trkpt>
      <trkpt lat="44.81406" lon="0.80977">
        <ele>213.3</ele>
        <time>2026-05-02T10:16:21.000Z</time>
      </trkpt>
      <trkpt lat="44.81406" lon="0.80979">
        <ele>213.3</ele>
        <time>2026-05-02T10:16:22.000Z</time>
      </trkpt>
      <trkpt lat="44.81405" lon="0.80981">
        <ele>213.1</ele>
        <time>2026-05-02T10:16:23.000Z</time>
      </trkpt>
      <trkpt lat="44.81404" lon="0.80982">
        <ele>213.8</ele>
        <time>2026-05-02T10:16:24.000Z</time>
      </trkpt>
      <trkpt lat="44.81403" lon="0.80984">
        <ele>214.3</ele>
        <time>2026-05-02T10:16:25.000Z</time>
      </trkpt>
      <trkpt lat="44.81403" lon="0.80986">
        <ele>214.4</ele>
        <time>2026-05-02T10:16:26.000Z</time>
      </trkpt>
      <trkpt lat="44.81402" lon="0.80988">
        <ele>214.2</ele>
        <time>2026-05-02T10:16:27.000Z</time>
      </trkpt>
      <trkpt lat="44.81401" lon="0.8099">
        <ele>213.9</ele>
        <time>2026-05-02T10:16:28.000Z</time>
      </trkpt>
      <trkpt lat="44.814" lon="0.80992">
        <ele>214.1</ele>
        <time>2026-05-02T10:16:29.000Z</time>
      </trkpt>
      <trkpt lat="44.814" lon="0.80994">
        <ele>214.2</ele>
        <time>2026-05-02T10:16:30.000Z</time>
      </trkpt>
      <trkpt lat="44.81399" lon="0.80996">
        <ele>214.3</ele>
        <time>2026-05-02T10:16:31.000Z</time>
      </trkpt>
      <trkpt lat="44.81399" lon="0.80998">
        <ele>214</ele>
        <time>2026-05-02T10:16:32.000Z</time>
      </trkpt>
      <trkpt lat="44.81398" lon="0.81">
        <ele>214.5</ele>
        <time>2026-05-02T10:16:33.000Z</time>
      </trkpt>
      <trkpt lat="44.81398" lon="0.81002">
        <ele>214.8</ele>
        <time>2026-05-02T10:16:34.000Z</time>
      </trkpt>
      <trkpt lat="44.81397" lon="0.81004">
        <ele>214.8</ele>
        <time>2026-05-02T10:16:35.000Z</time>
      </trkpt>
      <trkpt lat="44.81397" lon="0.81006">
        <ele>214.8</ele>
        <time>2026-05-02T10:16:36.000Z</time>
      </trkpt>
      <trkpt lat="44.81396" lon="0.81008">
        <ele>214.3</ele>
        <time>2026-05-02T10:16:37.000Z</time>
      </trkpt>
      <trkpt lat="44.81395" lon="0.8101">
        <ele>214.3</ele>
        <time>2026-05-02T10:16:38.000Z</time>
      </trkpt>
      <trkpt lat="44.81395" lon="0.81012">
        <ele>214.7</ele>
        <time>2026-05-02T10:16:39.000Z</time>
      </trkpt>
      <trkpt lat="44.81394" lon="0.81014">
        <ele>214.2</ele>
        <time>2026-05-02T10:16:40.000Z</time>
      </trkpt>
      <trkpt lat="44.81393" lon="0.81016">
        <ele>213.9</ele>
        <time>2026-05-02T10:16:41.000Z</time>
      </trkpt>
      <trkpt lat="44.81392" lon="0.81018">
        <ele>214</ele>
        <time>2026-05-02T10:16:42.000Z</time>
      </trkpt>
      <trkpt lat="44.81391" lon="0.8102">
        <ele>212.8</ele>
        <time>2026-05-02T10:16:43.000Z</time>
      </trkpt>
      <trkpt lat="44.8139" lon="0.81022">
        <ele>212.3</ele>
        <time>2026-05-02T10:16:44.000Z</time>
      </trkpt>
      <trkpt lat="44.81389" lon="0.81024">
        <ele>211.3</ele>
        <time>2026-05-02T10:16:45.000Z</time>
      </trkpt>
      <trkpt lat="44.81388" lon="0.81026">
        <ele>211.2</ele>
        <time>2026-05-02T10:16:46.000Z</time>
      </trkpt>
      <trkpt lat="44.81387" lon="0.81027">
        <ele>211.3</ele>
        <time>2026-05-02T10:16:47.000Z</time>
      </trkpt>
      <trkpt lat="44.81385" lon="0.81028">
        <ele>211.1</ele>
        <time>2026-05-02T10:16:48.000Z</time>
      </trkpt>
      <trkpt lat="44.81384" lon="0.8103">
        <ele>211.4</ele>
        <time>2026-05-02T10:16:49.000Z</time>
      </trkpt>
      <trkpt lat="44.81383" lon="0.81031">
        <ele>210</ele>
        <time>2026-05-02T10:16:50.000Z</time>
      </trkpt>
      <trkpt lat="44.81382" lon="0.81033">
        <ele>210</ele>
        <time>2026-05-02T10:16:51.000Z</time>
      </trkpt>
      <trkpt lat="44.8138" lon="0.81035">
        <ele>209.6</ele>
        <time>2026-05-02T10:16:52.000Z</time>
      </trkpt>
      <trkpt lat="44.81378" lon="0.81037">
        <ele>209.3</ele>
        <time>2026-05-02T10:16:53.000Z</time>
      </trkpt>
      <trkpt lat="44.81376" lon="0.81038">
        <ele>209.4</ele>
        <time>2026-05-02T10:16:54.000Z</time>
      </trkpt>
      <trkpt lat="44.81373" lon="0.8104">
        <ele>207.2</ele>
        <time>2026-05-02T10:16:55.000Z</time>
      </trkpt>
      <trkpt lat="44.81371" lon="0.81042">
        <ele>206.2</ele>
        <time>2026-05-02T10:16:56.000Z</time>
      </trkpt>
      <trkpt lat="44.81369" lon="0.81044">
        <ele>207</ele>
        <time>2026-05-02T10:16:57.000Z</time>
      </trkpt>
      <trkpt lat="44.81367" lon="0.81045">
        <ele>207</ele>
        <time>2026-05-02T10:16:58.000Z</time>
      </trkpt>
      <trkpt lat="44.81365" lon="0.81047">
        <ele>205.7</ele>
        <time>2026-05-02T10:16:59.000Z</time>
      </trkpt>
      <trkpt lat="44.81364" lon="0.81048">
        <ele>206.5</ele>
        <time>2026-05-02T10:17:00.000Z</time>
      </trkpt>
      <trkpt lat="44.81362" lon="0.8105">
        <ele>205.6</ele>
        <time>2026-05-02T10:17:01.000Z</time>
      </trkpt>
      <trkpt lat="44.8136" lon="0.81051">
        <ele>206.3</ele>
        <time>2026-05-02T10:17:02.000Z</time>
      </trkpt>
      <trkpt lat="44.81358" lon="0.81053">
        <ele>206.9</ele>
        <time>2026-05-02T10:17:03.000Z</time>
      </trkpt>
      <trkpt lat="44.81357" lon="0.81054">
        <ele>207.3</ele>
        <time>2026-05-02T10:17:04.000Z</time>
      </trkpt>
      <trkpt lat="44.81355" lon="0.81056">
        <ele>207.4</ele>
        <time>2026-05-02T10:17:05.000Z</time>
      </trkpt>
      <trkpt lat="44.81353" lon="0.81057">
        <ele>207.2</ele>
        <time>2026-05-02T10:17:06.000Z</time>
      </trkpt>
      <trkpt lat="44.81351" lon="0.81058">
        <ele>207.2</ele>
        <time>2026-05-02T10:17:07.000Z</time>
      </trkpt>
      <trkpt lat="44.8135" lon="0.81059">
        <ele>207.1</ele>
        <time>2026-05-02T10:17:08.000Z</time>
      </trkpt>
      <trkpt lat="44.81348" lon="0.81061">
        <ele>208.3</ele>
        <time>2026-05-02T10:17:09.000Z</time>
      </trkpt>
      <trkpt lat="44.81347" lon="0.81061">
        <ele>208.6</ele>
        <time>2026-05-02T10:17:10.000Z</time>
      </trkpt>
      <trkpt lat="44.81346" lon="0.81062">
        <ele>208.7</ele>
        <time>2026-05-02T10:17:11.000Z</time>
      </trkpt>
      <trkpt lat="44.81344" lon="0.81063">
        <ele>209</ele>
        <time>2026-05-02T10:17:12.000Z</time>
      </trkpt>
      <trkpt lat="44.81343" lon="0.81065">
        <ele>209.5</ele>
        <time>2026-05-02T10:17:13.000Z</time>
      </trkpt>
      <trkpt lat="44.81342" lon="0.81066">
        <ele>209.2</ele>
        <time>2026-05-02T10:17:14.000Z</time>
      </trkpt>
      <trkpt lat="44.81341" lon="0.81066">
        <ele>208.9</ele>
        <time>2026-05-02T10:17:15.000Z</time>
      </trkpt>
      <trkpt lat="44.8134" lon="0.81067">
        <ele>209.4</ele>
        <time>2026-05-02T10:17:16.000Z</time>
      </trkpt>
      <trkpt lat="44.81338" lon="0.81069">
        <ele>210.1</ele>
        <time>2026-05-02T10:17:17.000Z</time>
      </trkpt>
      <trkpt lat="44.81336" lon="0.81069">
        <ele>210.3</ele>
        <time>2026-05-02T10:17:18.000Z</time>
      </trkpt>
      <trkpt lat="44.81334" lon="0.8107">
        <ele>209.7</ele>
        <time>2026-05-02T10:17:19.000Z</time>
      </trkpt>
      <trkpt lat="44.81333" lon="0.81071">
        <ele>210.3</ele>
        <time>2026-05-02T10:17:20.000Z</time>
      </trkpt>
      <trkpt lat="44.81331" lon="0.81072">
        <ele>209.9</ele>
        <time>2026-05-02T10:17:21.000Z</time>
      </trkpt>
      <trkpt lat="44.81329" lon="0.81074">
        <ele>210</ele>
        <time>2026-05-02T10:17:22.000Z</time>
      </trkpt>
      <trkpt lat="44.81328" lon="0.81075">
        <ele>209.8</ele>
        <time>2026-05-02T10:17:23.000Z</time>
      </trkpt>
      <trkpt lat="44.81327" lon="0.81076">
        <ele>209.4</ele>
        <time>2026-05-02T10:17:24.000Z</time>
      </trkpt>
      <trkpt lat="44.81325" lon="0.81077">
        <ele>209.8</ele>
        <time>2026-05-02T10:17:25.000Z</time>
      </trkpt>
      <trkpt lat="44.81324" lon="0.81078">
        <ele>209.9</ele>
        <time>2026-05-02T10:17:26.000Z</time>
      </trkpt>
      <trkpt lat="44.81323" lon="0.81079">
        <ele>209.7</ele>
        <time>2026-05-02T10:17:27.000Z</time>
      </trkpt>
      <trkpt lat="44.81321" lon="0.8108">
        <ele>209.9</ele>
        <time>2026-05-02T10:17:28.000Z</time>
      </trkpt>
      <trkpt lat="44.8132" lon="0.81081">
        <ele>209.8</ele>
        <time>2026-05-02T10:17:29.000Z</time>
      </trkpt>
      <trkpt lat="44.81319" lon="0.81082">
        <ele>210.1</ele>
        <time>2026-05-02T10:17:30.000Z</time>
      </trkpt>
      <trkpt lat="44.81317" lon="0.81083">
        <ele>210.1</ele>
        <time>2026-05-02T10:17:31.000Z</time>
      </trkpt>
      <trkpt lat="44.81316" lon="0.81084">
        <ele>210.2</ele>
        <time>2026-05-02T10:17:32.000Z</time>
      </trkpt>
      <trkpt lat="44.81314" lon="0.81085">
        <ele>209.7</ele>
        <time>2026-05-02T10:17:33.000Z</time>
      </trkpt>
      <trkpt lat="44.81313" lon="0.81086">
        <ele>209.1</ele>
        <time>2026-05-02T10:17:34.000Z</time>
      </trkpt>
      <trkpt lat="44.81312" lon="0.81088">
        <ele>209.8</ele>
        <time>2026-05-02T10:17:35.000Z</time>
      </trkpt>
      <trkpt lat="44.81311" lon="0.8109">
        <ele>210</ele>
        <time>2026-05-02T10:17:36.000Z</time>
      </trkpt>
      <trkpt lat="44.8131" lon="0.81092">
        <ele>210.5</ele>
        <time>2026-05-02T10:17:37.000Z</time>
      </trkpt>
      <trkpt lat="44.81309" lon="0.81094">
        <ele>210.4</ele>
        <time>2026-05-02T10:17:38.000Z</time>
      </trkpt>
      <trkpt lat="44.81309" lon="0.81096">
        <ele>210.2</ele>
        <time>2026-05-02T10:17:39.000Z</time>
      </trkpt>
      <trkpt lat="44.81309" lon="0.81099">
        <ele>210.2</ele>
        <time>2026-05-02T10:17:40.000Z</time>
      </trkpt>
      <trkpt lat="44.81309" lon="0.81102">
        <ele>210</ele>
        <time>2026-05-02T10:17:41.000Z</time>
      </trkpt>
      <trkpt lat="44.8131" lon="0.81105">
        <ele>210.1</ele>
        <time>2026-05-02T10:17:42.000Z</time>
      </trkpt>
      <trkpt lat="44.8131" lon="0.81107">
        <ele>209.3</ele>
        <time>2026-05-02T10:17:43.000Z</time>
      </trkpt>
      <trkpt lat="44.8131" lon="0.8111">
        <ele>208.7</ele>
        <time>2026-05-02T10:17:44.000Z</time>
      </trkpt>
      <trkpt lat="44.81311" lon="0.81112">
        <ele>208.1</ele>
        <time>2026-05-02T10:17:45.000Z</time>
      </trkpt>
      <trkpt lat="44.81311" lon="0.81115">
        <ele>207.6</ele>
        <time>2026-05-02T10:17:46.000Z</time>
      </trkpt>
      <trkpt lat="44.81312" lon="0.81117">
        <ele>208</ele>
        <time>2026-05-02T10:17:47.000Z</time>
      </trkpt>
      <trkpt lat="44.81313" lon="0.81119">
        <ele>207.3</ele>
        <time>2026-05-02T10:17:48.000Z</time>
      </trkpt>
      <trkpt lat="44.81313" lon="0.81122">
        <ele>206.6</ele>
        <time>2026-05-02T10:17:49.000Z</time>
      </trkpt>
      <trkpt lat="44.81313" lon="0.81125">
        <ele>205.3</ele>
        <time>2026-05-02T10:17:50.000Z</time>
      </trkpt>
      <trkpt lat="44.81313" lon="0.81127">
        <ele>205.5</ele>
        <time>2026-05-02T10:17:51.000Z</time>
      </trkpt>
      <trkpt lat="44.81314" lon="0.81129">
        <ele>205.9</ele>
        <time>2026-05-02T10:17:52.000Z</time>
      </trkpt>
      <trkpt lat="44.81314" lon="0.81132">
        <ele>206.9</ele>
        <time>2026-05-02T10:17:53.000Z</time>
      </trkpt>
      <trkpt lat="44.81314" lon="0.81135">
        <ele>206.7</ele>
        <time>2026-05-02T10:17:54.000Z</time>
      </trkpt>
      <trkpt lat="44.81313" lon="0.81138">
        <ele>204.3</ele>
        <time>2026-05-02T10:17:55.000Z</time>
      </trkpt>
      <trkpt lat="44.81313" lon="0.81141">
        <ele>204.4</ele>
        <time>2026-05-02T10:17:56.000Z</time>
      </trkpt>
      <trkpt lat="44.81313" lon="0.81144">
        <ele>204</ele>
        <time>2026-05-02T10:17:57.000Z</time>
      </trkpt>
      <trkpt lat="44.81313" lon="0.81146">
        <ele>205</ele>
        <time>2026-05-02T10:17:58.000Z</time>
      </trkpt>
      <trkpt lat="44.81312" lon="0.81149">
        <ele>205.5</ele>
        <time>2026-05-02T10:17:59.000Z</time>
      </trkpt>
      <trkpt lat="44.81312" lon="0.81151">
        <ele>205.1</ele>
        <time>2026-05-02T10:18:00.000Z</time>
      </trkpt>
      <trkpt lat="44.81312" lon="0.81154">
        <ele>205.4</ele>
        <time>2026-05-02T10:18:01.000Z</time>
      </trkpt>
      <trkpt lat="44.81311" lon="0.81156">
        <ele>206.2</ele>
        <time>2026-05-02T10:18:02.000Z</time>
      </trkpt>
      <trkpt lat="44.8131" lon="0.81158">
        <ele>206.6</ele>
        <time>2026-05-02T10:18:03.000Z</time>
      </trkpt>
      <trkpt lat="44.8131" lon="0.81159">
        <ele>206.4</ele>
        <time>2026-05-02T10:18:04.000Z</time>
      </trkpt>
      <trkpt lat="44.81309" lon="0.81161">
        <ele>206.2</ele>
        <time>2026-05-02T10:18:05.000Z</time>
      </trkpt>
      <trkpt lat="44.8131" lon="0.81162">
        <ele>206.1</ele>
        <time>2026-05-02T10:18:06.000Z</time>
      </trkpt>
      <trkpt lat="44.81311" lon="0.81162">
        <ele>207.1</ele>
        <time>2026-05-02T10:18:07.000Z</time>
      </trkpt>
      <trkpt lat="44.81311" lon="0.81162">
        <ele>206.7</ele>
        <time>2026-05-02T10:18:08.000Z</time>
      </trkpt>
      <trkpt lat="44.81311" lon="0.81162">
        <ele>207.2</ele>
        <time>2026-05-02T10:18:09.000Z</time>
      </trkpt>
      <trkpt lat="44.81311" lon="0.81161">
        <ele>207.2</ele>
        <time>2026-05-02T10:18:10.000Z</time>
      </trkpt>
      <trkpt lat="44.8131" lon="0.81161">
        <ele>207.1</ele>
        <time>2026-05-02T10:18:11.000Z</time>
      </trkpt>
      <trkpt lat="44.8131" lon="0.81162">
        <ele>207.6</ele>
        <time>2026-05-02T10:18:12.000Z</time>
      </trkpt>
      <trkpt lat="44.8131" lon="0.81162">
        <ele>207.4</ele>
        <time>2026-05-02T10:18:13.000Z</time>
      </trkpt>
      <trkpt lat="44.8131" lon="0.81163">
        <ele>208.5</ele>
        <time>2026-05-02T10:18:14.000Z</time>
      </trkpt>
      <trkpt lat="44.81309" lon="0.81165">
        <ele>208.9</ele>
        <time>2026-05-02T10:18:15.000Z</time>
      </trkpt>
      <trkpt lat="44.81308" lon="0.81166">
        <ele>208.5</ele>
        <time>2026-05-02T10:18:16.000Z</time>
      </trkpt>
      <trkpt lat="44.81307" lon="0.81168">
        <ele>208.9</ele>
        <time>2026-05-02T10:18:17.000Z</time>
      </trkpt>
      <trkpt lat="44.81306" lon="0.81169">
        <ele>209.7</ele>
        <time>2026-05-02T10:18:18.000Z</time>
      </trkpt>
      <trkpt lat="44.81304" lon="0.81171">
        <ele>209.5</ele>
        <time>2026-05-02T10:18:19.000Z</time>
      </trkpt>
      <trkpt lat="44.81302" lon="0.81172">
        <ele>210.5</ele>
        <time>2026-05-02T10:18:20.000Z</time>
      </trkpt>
      <trkpt lat="44.81301" lon="0.81172">
        <ele>212</ele>
        <time>2026-05-02T10:18:21.000Z</time>
      </trkpt>
      <trkpt lat="44.813" lon="0.81173">
        <ele>213.4</ele>
        <time>2026-05-02T10:18:22.000Z</time>
      </trkpt>
      <trkpt lat="44.81299" lon="0.81175">
        <ele>213.4</ele>
        <time>2026-05-02T10:18:23.000Z</time>
      </trkpt>
      <trkpt lat="44.81298" lon="0.81176">
        <ele>214.1</ele>
        <time>2026-05-02T10:18:24.000Z</time>
      </trkpt>
      <trkpt lat="44.81296" lon="0.81178">
        <ele>214.1</ele>
        <time>2026-05-02T10:18:25.000Z</time>
      </trkpt>
      <trkpt lat="44.81295" lon="0.81179">
        <ele>213.9</ele>
        <time>2026-05-02T10:18:26.000Z</time>
      </trkpt>
      <trkpt lat="44.81294" lon="0.81181">
        <ele>214.3</ele>
        <time>2026-05-02T10:18:27.000Z</time>
      </trkpt>
      <trkpt lat="44.81292" lon="0.81182">
        <ele>215.4</ele>
        <time>2026-05-02T10:18:28.000Z</time>
      </trkpt>
      <trkpt lat="44.81291" lon="0.81182">
        <ele>215.7</ele>
        <time>2026-05-02T10:18:29.000Z</time>
      </trkpt>
      <trkpt lat="44.8129" lon="0.81183">
        <ele>216.4</ele>
        <time>2026-05-02T10:18:30.000Z</time>
      </trkpt>
      <trkpt lat="44.81289" lon="0.81184">
        <ele>217</ele>
        <time>2026-05-02T10:18:31.000Z</time>
      </trkpt>
      <trkpt lat="44.81287" lon="0.81186">
        <ele>216.1</ele>
        <time>2026-05-02T10:18:32.000Z</time>
      </trkpt>
      <trkpt lat="44.81286" lon="0.81188">
        <ele>216.7</ele>
        <time>2026-05-02T10:18:33.000Z</time>
      </trkpt>
      <trkpt lat="44.81284" lon="0.81189">
        <ele>216.8</ele>
        <time>2026-05-02T10:18:34.000Z</time>
      </trkpt>
      <trkpt lat="44.81282" lon="0.81191">
        <ele>216.9</ele>
        <time>2026-05-02T10:18:35.000Z</time>
      </trkpt>
      <trkpt lat="44.81281" lon="0.81192">
        <ele>216.9</ele>
        <time>2026-05-02T10:18:36.000Z</time>
      </trkpt>
      <trkpt lat="44.81279" lon="0.81194">
        <ele>217</ele>
        <time>2026-05-02T10:18:37.000Z</time>
      </trkpt>
      <trkpt lat="44.81277" lon="0.81196">
        <ele>216.5</ele>
        <time>2026-05-02T10:18:38.000Z</time>
      </trkpt>
      <trkpt lat="44.81276" lon="0.81198">
        <ele>216.7</ele>
        <time>2026-05-02T10:18:39.000Z</time>
      </trkpt>
      <trkpt lat="44.81274" lon="0.812">
        <ele>217</ele>
        <time>2026-05-02T10:18:40.000Z</time>
      </trkpt>
      <trkpt lat="44.81273" lon="0.81201">
        <ele>216.7</ele>
        <time>2026-05-02T10:18:41.000Z</time>
      </trkpt>
      <trkpt lat="44.81271" lon="0.81203">
        <ele>217.1</ele>
        <time>2026-05-02T10:18:42.000Z</time>
      </trkpt>
      <trkpt lat="44.8127" lon="0.81205">
        <ele>217.3</ele>
        <time>2026-05-02T10:18:43.000Z</time>
      </trkpt>
      <trkpt lat="44.81269" lon="0.81206">
        <ele>217.5</ele>
        <time>2026-05-02T10:18:44.000Z</time>
      </trkpt>
      <trkpt lat="44.81268" lon="0.81208">
        <ele>217.6</ele>
        <time>2026-05-02T10:18:45.000Z</time>
      </trkpt>
      <trkpt lat="44.81267" lon="0.8121">
        <ele>217.8</ele>
        <time>2026-05-02T10:18:46.000Z</time>
      </trkpt>
      <trkpt lat="44.81266" lon="0.81211">
        <ele>217.9</ele>
        <time>2026-05-02T10:18:47.000Z</time>
      </trkpt>
      <trkpt lat="44.81265" lon="0.81213">
        <ele>218.1</ele>
        <time>2026-05-02T10:18:48.000Z</time>
      </trkpt>
      <trkpt lat="44.81264" lon="0.81215">
        <ele>218.5</ele>
        <time>2026-05-02T10:18:49.000Z</time>
      </trkpt>
      <trkpt lat="44.81263" lon="0.81216">
        <ele>218.9</ele>
        <time>2026-05-02T10:18:50.000Z</time>
      </trkpt>
      <trkpt lat="44.81262" lon="0.81218">
        <ele>219.2</ele>
        <time>2026-05-02T10:18:51.000Z</time>
      </trkpt>
      <trkpt lat="44.81261" lon="0.81219">
        <ele>219.6</ele>
        <time>2026-05-02T10:18:52.000Z</time>
      </trkpt>
      <trkpt lat="44.8126" lon="0.81221">
        <ele>220.2</ele>
        <time>2026-05-02T10:18:53.000Z</time>
      </trkpt>
      <trkpt lat="44.81259" lon="0.81223">
        <ele>220.8</ele>
        <time>2026-05-02T10:18:54.000Z</time>
      </trkpt>
      <trkpt lat="44.81258" lon="0.81225">
        <ele>220.7</ele>
        <time>2026-05-02T10:18:55.000Z</time>
      </trkpt>
      <trkpt lat="44.81257" lon="0.81227">
        <ele>220.8</ele>
        <time>2026-05-02T10:18:56.000Z</time>
      </trkpt>
      <trkpt lat="44.81255" lon="0.81229">
        <ele>220.9</ele>
        <time>2026-05-02T10:18:57.000Z</time>
      </trkpt>
      <trkpt lat="44.81254" lon="0.8123">
        <ele>221</ele>
        <time>2026-05-02T10:18:58.000Z</time>
      </trkpt>
      <trkpt lat="44.81254" lon="0.81232">
        <ele>221.3</ele>
        <time>2026-05-02T10:18:59.000Z</time>
      </trkpt>
      <trkpt lat="44.81253" lon="0.81234">
        <ele>221.4</ele>
        <time>2026-05-02T10:19:00.000Z</time>
      </trkpt>
      <trkpt lat="44.81252" lon="0.81235">
        <ele>221.6</ele>
        <time>2026-05-02T10:19:01.000Z</time>
      </trkpt>
      <trkpt lat="44.81251" lon="0.81237">
        <ele>221.5</ele>
        <time>2026-05-02T10:19:02.000Z</time>
      </trkpt>
      <trkpt lat="44.81251" lon="0.81239">
        <ele>221.7</ele>
        <time>2026-05-02T10:19:03.000Z</time>
      </trkpt>
      <trkpt lat="44.8125" lon="0.81241">
        <ele>222</ele>
        <time>2026-05-02T10:19:04.000Z</time>
      </trkpt>
      <trkpt lat="44.81249" lon="0.81242">
        <ele>221.8</ele>
        <time>2026-05-02T10:19:05.000Z</time>
      </trkpt>
      <trkpt lat="44.81249" lon="0.81244">
        <ele>221.8</ele>
        <time>2026-05-02T10:19:06.000Z</time>
      </trkpt>
      <trkpt lat="44.81248" lon="0.81245">
        <ele>221.9</ele>
        <time>2026-05-02T10:19:07.000Z</time>
      </trkpt>
      <trkpt lat="44.81247" lon="0.81247">
        <ele>222.8</ele>
        <time>2026-05-02T10:19:08.000Z</time>
      </trkpt>
      <trkpt lat="44.81247" lon="0.81249">
        <ele>222.9</ele>
        <time>2026-05-02T10:19:09.000Z</time>
      </trkpt>
      <trkpt lat="44.81246" lon="0.81251">
        <ele>223</ele>
        <time>2026-05-02T10:19:10.000Z</time>
      </trkpt>
      <trkpt lat="44.81246" lon="0.81253">
        <ele>223</ele>
        <time>2026-05-02T10:19:11.000Z</time>
      </trkpt>
      <trkpt lat="44.81245" lon="0.81255">
        <ele>222.9</ele>
        <time>2026-05-02T10:19:12.000Z</time>
      </trkpt>
      <trkpt lat="44.81244" lon="0.81257">
        <ele>222.8</ele>
        <time>2026-05-02T10:19:13.000Z</time>
      </trkpt>
      <trkpt lat="44.81243" lon="0.81259">
        <ele>222.9</ele>
        <time>2026-05-02T10:19:14.000Z</time>
      </trkpt>
      <trkpt lat="44.81243" lon="0.81261">
        <ele>222.8</ele>
        <time>2026-05-02T10:19:15.000Z</time>
      </trkpt>
      <trkpt lat="44.81242" lon="0.81262">
        <ele>223.1</ele>
        <time>2026-05-02T10:19:16.000Z</time>
      </trkpt>
      <trkpt lat="44.81241" lon="0.81264">
        <ele>223.2</ele>
        <time>2026-05-02T10:19:17.000Z</time>
      </trkpt>
      <trkpt lat="44.8124" lon="0.81266">
        <ele>223.4</ele>
        <time>2026-05-02T10:19:18.000Z</time>
      </trkpt>
      <trkpt lat="44.81239" lon="0.81268">
        <ele>223.6</ele>
        <time>2026-05-02T10:19:19.000Z</time>
      </trkpt>
      <trkpt lat="44.81238" lon="0.8127">
        <ele>223.9</ele>
        <time>2026-05-02T10:19:20.000Z</time>
      </trkpt>
      <trkpt lat="44.81238" lon="0.81272">
        <ele>224</ele>
        <time>2026-05-02T10:19:21.000Z</time>
      </trkpt>
      <trkpt lat="44.81237" lon="0.81274">
        <ele>223.9</ele>
        <time>2026-05-02T10:19:22.000Z</time>
      </trkpt>
      <trkpt lat="44.81235" lon="0.81275">
        <ele>224.1</ele>
        <time>2026-05-02T10:19:23.000Z</time>
      </trkpt>
      <trkpt lat="44.81234" lon="0.81277">
        <ele>224.1</ele>
        <time>2026-05-02T10:19:24.000Z</time>
      </trkpt>
      <trkpt lat="44.81234" lon="0.81279">
        <ele>224.2</ele>
        <time>2026-05-02T10:19:25.000Z</time>
      </trkpt>
      <trkpt lat="44.81233" lon="0.81281">
        <ele>224.4</ele>
        <time>2026-05-02T10:19:26.000Z</time>
      </trkpt>
      <trkpt lat="44.81232" lon="0.81283">
        <ele>225.1</ele>
        <time>2026-05-02T10:19:27.000Z</time>
      </trkpt>
      <trkpt lat="44.81231" lon="0.81285">
        <ele>225.2</ele>
        <time>2026-05-02T10:19:28.000Z</time>
      </trkpt>
      <trkpt lat="44.8123" lon="0.81288">
        <ele>225.2</ele>
        <time>2026-05-02T10:19:29.000Z</time>
      </trkpt>
      <trkpt lat="44.81228" lon="0.8129">
        <ele>224.9</ele>
        <time>2026-05-02T10:19:30.000Z</time>
      </trkpt>
      <trkpt lat="44.81226" lon="0.81292">
        <ele>224.2</ele>
        <time>2026-05-02T10:19:31.000Z</time>
      </trkpt>
      <trkpt lat="44.81224" lon="0.81295">
        <ele>224.4</ele>
        <time>2026-05-02T10:19:32.000Z</time>
      </trkpt>
      <trkpt lat="44.81223" lon="0.81297">
        <ele>224.3</ele>
        <time>2026-05-02T10:19:33.000Z</time>
      </trkpt>
      <trkpt lat="44.81221" lon="0.81299">
        <ele>224.5</ele>
        <time>2026-05-02T10:19:34.000Z</time>
      </trkpt>
      <trkpt lat="44.8122" lon="0.81301">
        <ele>224.4</ele>
        <time>2026-05-02T10:19:35.000Z</time>
      </trkpt>
      <trkpt lat="44.81218" lon="0.81303">
        <ele>224.4</ele>
        <time>2026-05-02T10:19:36.000Z</time>
      </trkpt>
      <trkpt lat="44.81217" lon="0.81306">
        <ele>224.8</ele>
        <time>2026-05-02T10:19:37.000Z</time>
      </trkpt>
      <trkpt lat="44.81216" lon="0.81308">
        <ele>224.7</ele>
        <time>2026-05-02T10:19:38.000Z</time>
      </trkpt>
      <trkpt lat="44.81215" lon="0.8131">
        <ele>224.8</ele>
        <time>2026-05-02T10:19:39.000Z</time>
      </trkpt>
      <trkpt lat="44.81214" lon="0.81312">
        <ele>224.9</ele>
        <time>2026-05-02T10:19:40.000Z</time>
      </trkpt>
      <trkpt lat="44.81213" lon="0.81314">
        <ele>225</ele>
        <time>2026-05-02T10:19:41.000Z</time>
      </trkpt>
      <trkpt lat="44.81212" lon="0.81316">
        <ele>225.1</ele>
        <time>2026-05-02T10:19:42.000Z</time>
      </trkpt>
      <trkpt lat="44.81211" lon="0.81318">
        <ele>225.4</ele>
        <time>2026-05-02T10:19:43.000Z</time>
      </trkpt>
      <trkpt lat="44.8121" lon="0.8132">
        <ele>225.6</ele>
        <time>2026-05-02T10:19:44.000Z</time>
      </trkpt>
      <trkpt lat="44.81209" lon="0.81323">
        <ele>226.2</ele>
        <time>2026-05-02T10:19:45.000Z</time>
      </trkpt>
      <trkpt lat="44.81208" lon="0.81325">
        <ele>226</ele>
        <time>2026-05-02T10:19:46.000Z</time>
      </trkpt>
      <trkpt lat="44.81208" lon="0.81327">
        <ele>225.3</ele>
        <time>2026-05-02T10:19:47.000Z</time>
      </trkpt>
      <trkpt lat="44.81207" lon="0.81328">
        <ele>225.4</ele>
        <time>2026-05-02T10:19:48.000Z</time>
      </trkpt>
      <trkpt lat="44.81206" lon="0.8133">
        <ele>225.9</ele>
        <time>2026-05-02T10:19:49.000Z</time>
      </trkpt>
      <trkpt lat="44.81206" lon="0.81332">
        <ele>226.6</ele>
        <time>2026-05-02T10:19:50.000Z</time>
      </trkpt>
      <trkpt lat="44.81205" lon="0.81333">
        <ele>226.8</ele>
        <time>2026-05-02T10:19:51.000Z</time>
      </trkpt>
      <trkpt lat="44.81204" lon="0.81335">
        <ele>226.8</ele>
        <time>2026-05-02T10:19:52.000Z</time>
      </trkpt>
      <trkpt lat="44.81203" lon="0.81336">
        <ele>227.4</ele>
        <time>2026-05-02T10:19:53.000Z</time>
      </trkpt>
      <trkpt lat="44.81202" lon="0.81337">
        <ele>227.7</ele>
        <time>2026-05-02T10:19:54.000Z</time>
      </trkpt>
      <trkpt lat="44.81202" lon="0.81339">
        <ele>228.2</ele>
        <time>2026-05-02T10:19:55.000Z</time>
      </trkpt>
      <trkpt lat="44.81201" lon="0.8134">
        <ele>228.2</ele>
        <time>2026-05-02T10:19:56.000Z</time>
      </trkpt>
      <trkpt lat="44.812" lon="0.81342">
        <ele>227.5</ele>
        <time>2026-05-02T10:19:57.000Z</time>
      </trkpt>
      <trkpt lat="44.812" lon="0.81344">
        <ele>227.7</ele>
        <time>2026-05-02T10:19:58.000Z</time>
      </trkpt>
      <trkpt lat="44.81199" lon="0.81346">
        <ele>227.5</ele>
        <time>2026-05-02T10:19:59.000Z</time>
      </trkpt>
      <trkpt lat="44.81198" lon="0.81348">
        <ele>227.3</ele>
        <time>2026-05-02T10:20:00.000Z</time>
      </trkpt>
      <trkpt lat="44.81197" lon="0.8135">
        <ele>227.2</ele>
        <time>2026-05-02T10:20:01.000Z</time>
      </trkpt>
      <trkpt lat="44.81197" lon="0.81353">
        <ele>227.2</ele>
        <time>2026-05-02T10:20:02.000Z</time>
      </trkpt>
      <trkpt lat="44.81196" lon="0.81355">
        <ele>227.4</ele>
        <time>2026-05-02T10:20:03.000Z</time>
      </trkpt>
      <trkpt lat="44.81195" lon="0.81357">
        <ele>227.3</ele>
        <time>2026-05-02T10:20:04.000Z</time>
      </trkpt>
      <trkpt lat="44.81194" lon="0.81359">
        <ele>227.7</ele>
        <time>2026-05-02T10:20:05.000Z</time>
      </trkpt>
      <trkpt lat="44.81193" lon="0.81361">
        <ele>227.7</ele>
        <time>2026-05-02T10:20:06.000Z</time>
      </trkpt>
      <trkpt lat="44.81192" lon="0.81364">
        <ele>227.4</ele>
        <time>2026-05-02T10:20:07.000Z</time>
      </trkpt>
      <trkpt lat="44.81191" lon="0.81365">
        <ele>228</ele>
        <time>2026-05-02T10:20:08.000Z</time>
      </trkpt>
      <trkpt lat="44.8119" lon="0.81367">
        <ele>228.4</ele>
        <time>2026-05-02T10:20:09.000Z</time>
      </trkpt>
      <trkpt lat="44.8119" lon="0.81369">
        <ele>228.7</ele>
        <time>2026-05-02T10:20:10.000Z</time>
      </trkpt>
      <trkpt lat="44.81189" lon="0.8137">
        <ele>228.8</ele>
        <time>2026-05-02T10:20:11.000Z</time>
      </trkpt>
      <trkpt lat="44.81188" lon="0.81372">
        <ele>229</ele>
        <time>2026-05-02T10:20:12.000Z</time>
      </trkpt>
      <trkpt lat="44.81187" lon="0.81374">
        <ele>229.4</ele>
        <time>2026-05-02T10:20:13.000Z</time>
      </trkpt>
      <trkpt lat="44.81187" lon="0.81375">
        <ele>229.9</ele>
        <time>2026-05-02T10:20:14.000Z</time>
      </trkpt>
      <trkpt lat="44.81186" lon="0.81377">
        <ele>229.9</ele>
        <time>2026-05-02T10:20:15.000Z</time>
      </trkpt>
      <trkpt lat="44.81185" lon="0.81379">
        <ele>230</ele>
        <time>2026-05-02T10:20:16.000Z</time>
      </trkpt>
      <trkpt lat="44.81184" lon="0.81381">
        <ele>230.2</ele>
        <time>2026-05-02T10:20:17.000Z</time>
      </trkpt>
      <trkpt lat="44.81183" lon="0.81382">
        <ele>230.4</ele>
        <time>2026-05-02T10:20:18.000Z</time>
      </trkpt>
      <trkpt lat="44.81183" lon="0.81384">
        <ele>230.5</ele>
        <time>2026-05-02T10:20:19.000Z</time>
      </trkpt>
      <trkpt lat="44.81182" lon="0.81386">
        <ele>230.8</ele>
        <time>2026-05-02T10:20:20.000Z</time>
      </trkpt>
      <trkpt lat="44.81181" lon="0.81388">
        <ele>231.1</ele>
        <time>2026-05-02T10:20:21.000Z</time>
      </trkpt>
      <trkpt lat="44.8118" lon="0.81389">
        <ele>231.3</ele>
        <time>2026-05-02T10:20:22.000Z</time>
      </trkpt>
      <trkpt lat="44.81179" lon="0.81391">
        <ele>231.3</ele>
        <time>2026-05-02T10:20:23.000Z</time>
      </trkpt>
      <trkpt lat="44.81178" lon="0.81393">
        <ele>231.4</ele>
        <time>2026-05-02T10:20:24.000Z</time>
      </trkpt>
      <trkpt lat="44.81178" lon="0.81394">
        <ele>231.2</ele>
        <time>2026-05-02T10:20:25.000Z</time>
      </trkpt>
      <trkpt lat="44.81177" lon="0.81396">
        <ele>231.1</ele>
        <time>2026-05-02T10:20:26.000Z</time>
      </trkpt>
      <trkpt lat="44.81176" lon="0.81398">
        <ele>232.5</ele>
        <time>2026-05-02T10:20:27.000Z</time>
      </trkpt>
      <trkpt lat="44.81176" lon="0.81399">
        <ele>232.9</ele>
        <time>2026-05-02T10:20:28.000Z</time>
      </trkpt>
      <trkpt lat="44.81175" lon="0.81401">
        <ele>233</ele>
        <time>2026-05-02T10:20:29.000Z</time>
      </trkpt>
      <trkpt lat="44.81174" lon="0.81403">
        <ele>233.5</ele>
        <time>2026-05-02T10:20:30.000Z</time>
      </trkpt>
      <trkpt lat="44.81173" lon="0.81404">
        <ele>233.4</ele>
        <time>2026-05-02T10:20:31.000Z</time>
      </trkpt>
      <trkpt lat="44.81172" lon="0.81406">
        <ele>233.4</ele>
        <time>2026-05-02T10:20:32.000Z</time>
      </trkpt>
      <trkpt lat="44.81172" lon="0.81407">
        <ele>233</ele>
        <time>2026-05-02T10:20:33.000Z</time>
      </trkpt>
      <trkpt lat="44.81171" lon="0.81409">
        <ele>233.2</ele>
        <time>2026-05-02T10:20:34.000Z</time>
      </trkpt>
      <trkpt lat="44.81171" lon="0.81411">
        <ele>232.4</ele>
        <time>2026-05-02T10:20:35.000Z</time>
      </trkpt>
      <trkpt lat="44.8117" lon="0.81413">
        <ele>232.6</ele>
        <time>2026-05-02T10:20:36.000Z</time>
      </trkpt>
      <trkpt lat="44.8117" lon="0.81414">
        <ele>232.1</ele>
        <time>2026-05-02T10:20:37.000Z</time>
      </trkpt>
      <trkpt lat="44.81171" lon="0.81416">
        <ele>232.3</ele>
        <time>2026-05-02T10:20:38.000Z</time>
      </trkpt>
      <trkpt lat="44.81171" lon="0.81417">
        <ele>232.3</ele>
        <time>2026-05-02T10:20:39.000Z</time>
      </trkpt>
      <trkpt lat="44.81172" lon="0.81419">
        <ele>232.2</ele>
        <time>2026-05-02T10:20:40.000Z</time>
      </trkpt>
      <trkpt lat="44.81173" lon="0.8142">
        <ele>232.5</ele>
        <time>2026-05-02T10:20:41.000Z</time>
      </trkpt>
      <trkpt lat="44.81174" lon="0.81421">
        <ele>232.8</ele>
        <time>2026-05-02T10:20:42.000Z</time>
      </trkpt>
      <trkpt lat="44.81174" lon="0.81422">
        <ele>232.7</ele>
        <time>2026-05-02T10:20:43.000Z</time>
      </trkpt>
      <trkpt lat="44.81175" lon="0.81423">
        <ele>232.9</ele>
        <time>2026-05-02T10:20:44.000Z</time>
      </trkpt>
      <trkpt lat="44.81176" lon="0.81424">
        <ele>233</ele>
        <time>2026-05-02T10:20:45.000Z</time>
      </trkpt>
      <trkpt lat="44.81177" lon="0.81425">
        <ele>232.9</ele>
        <time>2026-05-02T10:20:46.000Z</time>
      </trkpt>
      <trkpt lat="44.81178" lon="0.81426">
        <ele>232.8</ele>
        <time>2026-05-02T10:20:47.000Z</time>
      </trkpt>
      <trkpt lat="44.81179" lon="0.81428">
        <ele>232.4</ele>
        <time>2026-05-02T10:20:48.000Z</time>
      </trkpt>
      <trkpt lat="44.8118" lon="0.81429">
        <ele>232.7</ele>
        <time>2026-05-02T10:20:49.000Z</time>
      </trkpt>
      <trkpt lat="44.81181" lon="0.8143">
        <ele>233.3</ele>
        <time>2026-05-02T10:20:50.000Z</time>
      </trkpt>
      <trkpt lat="44.81182" lon="0.81431">
        <ele>233.4</ele>
        <time>2026-05-02T10:20:51.000Z</time>
      </trkpt>
      <trkpt lat="44.81183" lon="0.81432">
        <ele>233</ele>
        <time>2026-05-02T10:20:52.000Z</time>
      </trkpt>
      <trkpt lat="44.81184" lon="0.81433">
        <ele>233.1</ele>
        <time>2026-05-02T10:20:53.000Z</time>
      </trkpt>
      <trkpt lat="44.81185" lon="0.81435">
        <ele>233.1</ele>
        <time>2026-05-02T10:20:54.000Z</time>
      </trkpt>
      <trkpt lat="44.81187" lon="0.81436">
        <ele>232.5</ele>
        <time>2026-05-02T10:20:55.000Z</time>
      </trkpt>
      <trkpt lat="44.81188" lon="0.81437">
        <ele>232.7</ele>
        <time>2026-05-02T10:20:56.000Z</time>
      </trkpt>
      <trkpt lat="44.81189" lon="0.81438">
        <ele>232.7</ele>
        <time>2026-05-02T10:20:57.000Z</time>
      </trkpt>
      <trkpt lat="44.81191" lon="0.81439">
        <ele>232.6</ele>
        <time>2026-05-02T10:20:58.000Z</time>
      </trkpt>
      <trkpt lat="44.81192" lon="0.8144">
        <ele>232.5</ele>
        <time>2026-05-02T10:20:59.000Z</time>
      </trkpt>
      <trkpt lat="44.81193" lon="0.8144">
        <ele>232.2</ele>
        <time>2026-05-02T10:21:00.000Z</time>
      </trkpt>
      <trkpt lat="44.81194" lon="0.81442">
        <ele>232.4</ele>
        <time>2026-05-02T10:21:01.000Z</time>
      </trkpt>
      <trkpt lat="44.81196" lon="0.81444">
        <ele>232.5</ele>
        <time>2026-05-02T10:21:02.000Z</time>
      </trkpt>
      <trkpt lat="44.81196" lon="0.81446">
        <ele>231.7</ele>
        <time>2026-05-02T10:21:03.000Z</time>
      </trkpt>
      <trkpt lat="44.81197" lon="0.81449">
        <ele>231.3</ele>
        <time>2026-05-02T10:21:04.000Z</time>
      </trkpt>
      <trkpt lat="44.81197" lon="0.81452">
        <ele>231.2</ele>
        <time>2026-05-02T10:21:05.000Z</time>
      </trkpt>
      <trkpt lat="44.81198" lon="0.81454">
        <ele>230.9</ele>
        <time>2026-05-02T10:21:06.000Z</time>
      </trkpt>
      <trkpt lat="44.81198" lon="0.81457">
        <ele>230.8</ele>
        <time>2026-05-02T10:21:07.000Z</time>
      </trkpt>
      <trkpt lat="44.81198" lon="0.81459">
        <ele>230.5</ele>
        <time>2026-05-02T10:21:08.000Z</time>
      </trkpt>
      <trkpt lat="44.81198" lon="0.81461">
        <ele>230.4</ele>
        <time>2026-05-02T10:21:09.000Z</time>
      </trkpt>
      <trkpt lat="44.81199" lon="0.81463">
        <ele>229.9</ele>
        <time>2026-05-02T10:21:10.000Z</time>
      </trkpt>
      <trkpt lat="44.81199" lon="0.81465">
        <ele>229.8</ele>
        <time>2026-05-02T10:21:11.000Z</time>
      </trkpt>
      <trkpt lat="44.81198" lon="0.81467">
        <ele>229.7</ele>
        <time>2026-05-02T10:21:12.000Z</time>
      </trkpt>
      <trkpt lat="44.81198" lon="0.8147">
        <ele>229.3</ele>
        <time>2026-05-02T10:21:13.000Z</time>
      </trkpt>
      <trkpt lat="44.81198" lon="0.81472">
        <ele>228.9</ele>
        <time>2026-05-02T10:21:14.000Z</time>
      </trkpt>
      <trkpt lat="44.81198" lon="0.81474">
        <ele>228.5</ele>
        <time>2026-05-02T10:21:15.000Z</time>
      </trkpt>
      <trkpt lat="44.81198" lon="0.81476">
        <ele>228.1</ele>
        <time>2026-05-02T10:21:16.000Z</time>
      </trkpt>
      <trkpt lat="44.81198" lon="0.81479">
        <ele>227.8</ele>
        <time>2026-05-02T10:21:17.000Z</time>
      </trkpt>
      <trkpt lat="44.81198" lon="0.81481">
        <ele>227.3</ele>
        <time>2026-05-02T10:21:18.000Z</time>
      </trkpt>
      <trkpt lat="44.81198" lon="0.81483">
        <ele>226.9</ele>
        <time>2026-05-02T10:21:19.000Z</time>
      </trkpt>
      <trkpt lat="44.81198" lon="0.81485">
        <ele>226.9</ele>
        <time>2026-05-02T10:21:20.000Z</time>
      </trkpt>
      <trkpt lat="44.81198" lon="0.81487">
        <ele>226.4</ele>
        <time>2026-05-02T10:21:21.000Z</time>
      </trkpt>
      <trkpt lat="44.81198" lon="0.81489">
        <ele>225.9</ele>
        <time>2026-05-02T10:21:22.000Z</time>
      </trkpt>
      <trkpt lat="44.81198" lon="0.81491">
        <ele>225.5</ele>
        <time>2026-05-02T10:21:23.000Z</time>
      </trkpt>
      <trkpt lat="44.81198" lon="0.81493">
        <ele>225.2</ele>
        <time>2026-05-02T10:21:24.000Z</time>
      </trkpt>
      <trkpt lat="44.81197" lon="0.81495">
        <ele>225.8</ele>
        <time>2026-05-02T10:21:25.000Z</time>
      </trkpt>
      <trkpt lat="44.81197" lon="0.81496">
        <ele>225.9</ele>
        <time>2026-05-02T10:21:26.000Z</time>
      </trkpt>
      <trkpt lat="44.81198" lon="0.81498">
        <ele>226.1</ele>
        <time>2026-05-02T10:21:27.000Z</time>
      </trkpt>
      <trkpt lat="44.81198" lon="0.815">
        <ele>225.7</ele>
        <time>2026-05-02T10:21:28.000Z</time>
      </trkpt>
      <trkpt lat="44.81198" lon="0.81502">
        <ele>224.4</ele>
        <time>2026-05-02T10:21:29.000Z</time>
      </trkpt>
      <trkpt lat="44.81198" lon="0.81504">
        <ele>223.7</ele>
        <time>2026-05-02T10:21:30.000Z</time>
      </trkpt>
      <trkpt lat="44.81197" lon="0.81505">
        <ele>223.2</ele>
        <time>2026-05-02T10:21:31.000Z</time>
      </trkpt>
      <trkpt lat="44.81197" lon="0.81507">
        <ele>222.9</ele>
        <time>2026-05-02T10:21:32.000Z</time>
      </trkpt>
      <trkpt lat="44.81197" lon="0.81509">
        <ele>222.5</ele>
        <time>2026-05-02T10:21:33.000Z</time>
      </trkpt>
      <trkpt lat="44.81196" lon="0.81511">
        <ele>222.9</ele>
        <time>2026-05-02T10:21:34.000Z</time>
      </trkpt>
      <trkpt lat="44.81196" lon="0.81513">
        <ele>222.8</ele>
        <time>2026-05-02T10:21:35.000Z</time>
      </trkpt>
      <trkpt lat="44.81196" lon="0.81515">
        <ele>222.5</ele>
        <time>2026-05-02T10:21:36.000Z</time>
      </trkpt>
      <trkpt lat="44.81196" lon="0.81518">
        <ele>222.3</ele>
        <time>2026-05-02T10:21:37.000Z</time>
      </trkpt>
      <trkpt lat="44.81195" lon="0.8152">
        <ele>221.9</ele>
        <time>2026-05-02T10:21:38.000Z</time>
      </trkpt>
      <trkpt lat="44.81195" lon="0.81522">
        <ele>221.9</ele>
        <time>2026-05-02T10:21:39.000Z</time>
      </trkpt>
      <trkpt lat="44.81196" lon="0.81524">
        <ele>223.1</ele>
        <time>2026-05-02T10:21:40.000Z</time>
      </trkpt>
      <trkpt lat="44.81196" lon="0.81526">
        <ele>223.3</ele>
        <time>2026-05-02T10:21:41.000Z</time>
      </trkpt>
      <trkpt lat="44.81199" lon="0.81528">
        <ele>223.3</ele>
        <time>2026-05-02T10:21:42.000Z</time>
      </trkpt>
      <trkpt lat="44.81199" lon="0.8153">
        <ele>222.6</ele>
        <time>2026-05-02T10:21:43.000Z</time>
      </trkpt>
      <trkpt lat="44.81198" lon="0.81532">
        <ele>222.5</ele>
        <time>2026-05-02T10:21:44.000Z</time>
      </trkpt>
      <trkpt lat="44.81197" lon="0.81534">
        <ele>222.1</ele>
        <time>2026-05-02T10:21:45.000Z</time>
      </trkpt>
      <trkpt lat="44.81197" lon="0.81536">
        <ele>221.8</ele>
        <time>2026-05-02T10:21:46.000Z</time>
      </trkpt>
      <trkpt lat="44.81197" lon="0.81538">
        <ele>221.5</ele>
        <time>2026-05-02T10:21:47.000Z</time>
      </trkpt>
      <trkpt lat="44.81197" lon="0.8154">
        <ele>222.5</ele>
        <time>2026-05-02T10:21:48.000Z</time>
      </trkpt>
      <trkpt lat="44.81197" lon="0.81542">
        <ele>223.4</ele>
        <time>2026-05-02T10:21:49.000Z</time>
      </trkpt>
      <trkpt lat="44.81197" lon="0.81544">
        <ele>223.1</ele>
        <time>2026-05-02T10:21:50.000Z</time>
      </trkpt>
      <trkpt lat="44.81197" lon="0.81545">
        <ele>223.6</ele>
        <time>2026-05-02T10:21:51.000Z</time>
      </trkpt>
      <trkpt lat="44.81196" lon="0.81547">
        <ele>224.3</ele>
        <time>2026-05-02T10:21:52.000Z</time>
      </trkpt>
      <trkpt lat="44.81195" lon="0.81548">
        <ele>224.8</ele>
        <time>2026-05-02T10:21:53.000Z</time>
      </trkpt>
      <trkpt lat="44.81195" lon="0.8155">
        <ele>223.4</ele>
        <time>2026-05-02T10:21:54.000Z</time>
      </trkpt>
      <trkpt lat="44.81195" lon="0.81553">
        <ele>222.9</ele>
        <time>2026-05-02T10:21:55.000Z</time>
      </trkpt>
      <trkpt lat="44.81195" lon="0.81555">
        <ele>222.9</ele>
        <time>2026-05-02T10:21:56.000Z</time>
      </trkpt>
      <trkpt lat="44.81194" lon="0.81557">
        <ele>222.7</ele>
        <time>2026-05-02T10:21:57.000Z</time>
      </trkpt>
      <trkpt lat="44.81194" lon="0.81559">
        <ele>223.6</ele>
        <time>2026-05-02T10:21:58.000Z</time>
      </trkpt>
      <trkpt lat="44.81194" lon="0.81561">
        <ele>224.6</ele>
        <time>2026-05-02T10:21:59.000Z</time>
      </trkpt>
      <trkpt lat="44.81193" lon="0.81563">
        <ele>224.7</ele>
        <time>2026-05-02T10:22:00.000Z</time>
      </trkpt>
      <trkpt lat="44.81193" lon="0.81565">
        <ele>224.6</ele>
        <time>2026-05-02T10:22:01.000Z</time>
      </trkpt>
      <trkpt lat="44.81193" lon="0.81568">
        <ele>224.7</ele>
        <time>2026-05-02T10:22:02.000Z</time>
      </trkpt>
      <trkpt lat="44.81193" lon="0.8157">
        <ele>225.7</ele>
        <time>2026-05-02T10:22:03.000Z</time>
      </trkpt>
      <trkpt lat="44.81193" lon="0.81571">
        <ele>226.9</ele>
        <time>2026-05-02T10:22:04.000Z</time>
      </trkpt>
      <trkpt lat="44.81192" lon="0.81573">
        <ele>226.8</ele>
        <time>2026-05-02T10:22:05.000Z</time>
      </trkpt>
      <trkpt lat="44.81192" lon="0.81576">
        <ele>226.1</ele>
        <time>2026-05-02T10:22:06.000Z</time>
      </trkpt>
      <trkpt lat="44.81191" lon="0.81578">
        <ele>225.6</ele>
        <time>2026-05-02T10:22:07.000Z</time>
      </trkpt>
      <trkpt lat="44.8119" lon="0.8158">
        <ele>225.8</ele>
        <time>2026-05-02T10:22:08.000Z</time>
      </trkpt>
      <trkpt lat="44.8119" lon="0.81582">
        <ele>225.9</ele>
        <time>2026-05-02T10:22:09.000Z</time>
      </trkpt>
      <trkpt lat="44.8119" lon="0.81585">
        <ele>225.6</ele>
        <time>2026-05-02T10:22:10.000Z</time>
      </trkpt>
      <trkpt lat="44.81189" lon="0.81587">
        <ele>225.4</ele>
        <time>2026-05-02T10:22:11.000Z</time>
      </trkpt>
      <trkpt lat="44.81188" lon="0.81589">
        <ele>224.8</ele>
        <time>2026-05-02T10:22:12.000Z</time>
      </trkpt>
      <trkpt lat="44.81187" lon="0.81591">
        <ele>224.2</ele>
        <time>2026-05-02T10:22:13.000Z</time>
      </trkpt>
      <trkpt lat="44.81187" lon="0.81593">
        <ele>224.3</ele>
        <time>2026-05-02T10:22:14.000Z</time>
      </trkpt>
      <trkpt lat="44.81186" lon="0.81595">
        <ele>224.4</ele>
        <time>2026-05-02T10:22:15.000Z</time>
      </trkpt>
      <trkpt lat="44.81187" lon="0.81597">
        <ele>225.6</ele>
        <time>2026-05-02T10:22:16.000Z</time>
      </trkpt>
      <trkpt lat="44.81186" lon="0.81599">
        <ele>225.3</ele>
        <time>2026-05-02T10:22:17.000Z</time>
      </trkpt>
      <trkpt lat="44.81186" lon="0.81601">
        <ele>225.9</ele>
        <time>2026-05-02T10:22:18.000Z</time>
      </trkpt>
      <trkpt lat="44.81186" lon="0.81604">
        <ele>225.3</ele>
        <time>2026-05-02T10:22:19.000Z</time>
      </trkpt>
      <trkpt lat="44.81185" lon="0.81606">
        <ele>225.4</ele>
        <time>2026-05-02T10:22:20.000Z</time>
      </trkpt>
      <trkpt lat="44.81185" lon="0.81608">
        <ele>225.5</ele>
        <time>2026-05-02T10:22:21.000Z</time>
      </trkpt>
      <trkpt lat="44.81185" lon="0.81611">
        <ele>225.6</ele>
        <time>2026-05-02T10:22:22.000Z</time>
      </trkpt>
      <trkpt lat="44.81184" lon="0.81613">
        <ele>225.7</ele>
        <time>2026-05-02T10:22:23.000Z</time>
      </trkpt>
      <trkpt lat="44.81184" lon="0.81615">
        <ele>226.4</ele>
        <time>2026-05-02T10:22:24.000Z</time>
      </trkpt>
      <trkpt lat="44.81184" lon="0.81617">
        <ele>226.8</ele>
        <time>2026-05-02T10:22:25.000Z</time>
      </trkpt>
      <trkpt lat="44.81184" lon="0.81619">
        <ele>227.3</ele>
        <time>2026-05-02T10:22:26.000Z</time>
      </trkpt>
      <trkpt lat="44.81183" lon="0.81621">
        <ele>228</ele>
        <time>2026-05-02T10:22:27.000Z</time>
      </trkpt>
      <trkpt lat="44.81183" lon="0.81623">
        <ele>228.5</ele>
        <time>2026-05-02T10:22:28.000Z</time>
      </trkpt>
      <trkpt lat="44.81183" lon="0.81625">
        <ele>228.8</ele>
        <time>2026-05-02T10:22:29.000Z</time>
      </trkpt>
      <trkpt lat="44.81183" lon="0.81627">
        <ele>227.8</ele>
        <time>2026-05-02T10:22:30.000Z</time>
      </trkpt>
      <trkpt lat="44.81182" lon="0.81629">
        <ele>228</ele>
        <time>2026-05-02T10:22:31.000Z</time>
      </trkpt>
      <trkpt lat="44.81182" lon="0.81631">
        <ele>228.3</ele>
        <time>2026-05-02T10:22:32.000Z</time>
      </trkpt>
      <trkpt lat="44.81181" lon="0.81633">
        <ele>228.2</ele>
        <time>2026-05-02T10:22:33.000Z</time>
      </trkpt>
      <trkpt lat="44.8118" lon="0.81635">
        <ele>227.7</ele>
        <time>2026-05-02T10:22:34.000Z</time>
      </trkpt>
      <trkpt lat="44.8118" lon="0.81637">
        <ele>227.3</ele>
        <time>2026-05-02T10:22:35.000Z</time>
      </trkpt>
      <trkpt lat="44.8118" lon="0.8164">
        <ele>226.5</ele>
        <time>2026-05-02T10:22:36.000Z</time>
      </trkpt>
      <trkpt lat="44.81179" lon="0.81642">
        <ele>226.6</ele>
        <time>2026-05-02T10:22:37.000Z</time>
      </trkpt>
      <trkpt lat="44.81179" lon="0.81644">
        <ele>226.4</ele>
        <time>2026-05-02T10:22:38.000Z</time>
      </trkpt>
      <trkpt lat="44.81178" lon="0.81646">
        <ele>225.9</ele>
        <time>2026-05-02T10:22:39.000Z</time>
      </trkpt>
      <trkpt lat="44.81178" lon="0.81648">
        <ele>225.2</ele>
        <time>2026-05-02T10:22:40.000Z</time>
      </trkpt>
      <trkpt lat="44.81177" lon="0.8165">
        <ele>224.9</ele>
        <time>2026-05-02T10:22:41.000Z</time>
      </trkpt>
      <trkpt lat="44.81177" lon="0.81652">
        <ele>224.8</ele>
        <time>2026-05-02T10:22:42.000Z</time>
      </trkpt>
      <trkpt lat="44.81176" lon="0.81655">
        <ele>223.6</ele>
        <time>2026-05-02T10:22:43.000Z</time>
      </trkpt>
      <trkpt lat="44.81175" lon="0.81657">
        <ele>223.2</ele>
        <time>2026-05-02T10:22:44.000Z</time>
      </trkpt>
      <trkpt lat="44.81175" lon="0.81659">
        <ele>223.1</ele>
        <time>2026-05-02T10:22:45.000Z</time>
      </trkpt>
      <trkpt lat="44.81174" lon="0.81661">
        <ele>223</ele>
        <time>2026-05-02T10:22:46.000Z</time>
      </trkpt>
      <trkpt lat="44.81173" lon="0.81663">
        <ele>223.6</ele>
        <time>2026-05-02T10:22:47.000Z</time>
      </trkpt>
      <trkpt lat="44.81173" lon="0.81665">
        <ele>223.9</ele>
        <time>2026-05-02T10:22:48.000Z</time>
      </trkpt>
      <trkpt lat="44.81172" lon="0.81667">
        <ele>224.1</ele>
        <time>2026-05-02T10:22:49.000Z</time>
      </trkpt>
      <trkpt lat="44.81172" lon="0.81669">
        <ele>223.6</ele>
        <time>2026-05-02T10:22:50.000Z</time>
      </trkpt>
      <trkpt lat="44.81171" lon="0.81671">
        <ele>223.6</ele>
        <time>2026-05-02T10:22:51.000Z</time>
      </trkpt>
      <trkpt lat="44.8117" lon="0.81673">
        <ele>223.7</ele>
        <time>2026-05-02T10:22:52.000Z</time>
      </trkpt>
      <trkpt lat="44.81169" lon="0.81675">
        <ele>223.9</ele>
        <time>2026-05-02T10:22:53.000Z</time>
      </trkpt>
      <trkpt lat="44.81168" lon="0.81677">
        <ele>224.2</ele>
        <time>2026-05-02T10:22:54.000Z</time>
      </trkpt>
      <trkpt lat="44.81167" lon="0.81679">
        <ele>223.9</ele>
        <time>2026-05-02T10:22:55.000Z</time>
      </trkpt>
      <trkpt lat="44.81166" lon="0.81681">
        <ele>223.1</ele>
        <time>2026-05-02T10:22:56.000Z</time>
      </trkpt>
      <trkpt lat="44.81166" lon="0.81683">
        <ele>222.9</ele>
        <time>2026-05-02T10:22:57.000Z</time>
      </trkpt>
      <trkpt lat="44.81165" lon="0.81685">
        <ele>223</ele>
        <time>2026-05-02T10:22:58.000Z</time>
      </trkpt>
      <trkpt lat="44.81164" lon="0.81687">
        <ele>222.3</ele>
        <time>2026-05-02T10:22:59.000Z</time>
      </trkpt>
      <trkpt lat="44.81163" lon="0.81689">
        <ele>222.3</ele>
        <time>2026-05-02T10:23:00.000Z</time>
      </trkpt>
      <trkpt lat="44.81163" lon="0.81691">
        <ele>221.1</ele>
        <time>2026-05-02T10:23:01.000Z</time>
      </trkpt>
      <trkpt lat="44.81162" lon="0.81693">
        <ele>220.6</ele>
        <time>2026-05-02T10:23:02.000Z</time>
      </trkpt>
      <trkpt lat="44.81162" lon="0.81695">
        <ele>220.5</ele>
        <time>2026-05-02T10:23:03.000Z</time>
      </trkpt>
      <trkpt lat="44.81162" lon="0.81697">
        <ele>219.7</ele>
        <time>2026-05-02T10:23:04.000Z</time>
      </trkpt>
      <trkpt lat="44.81161" lon="0.81699">
        <ele>218.9</ele>
        <time>2026-05-02T10:23:05.000Z</time>
      </trkpt>
      <trkpt lat="44.81161" lon="0.81701">
        <ele>218.6</ele>
        <time>2026-05-02T10:23:06.000Z</time>
      </trkpt>
      <trkpt lat="44.8116" lon="0.81703">
        <ele>218.8</ele>
        <time>2026-05-02T10:23:07.000Z</time>
      </trkpt>
      <trkpt lat="44.81159" lon="0.81704">
        <ele>218.8</ele>
        <time>2026-05-02T10:23:08.000Z</time>
      </trkpt>
      <trkpt lat="44.81158" lon="0.81706">
        <ele>218.9</ele>
        <time>2026-05-02T10:23:09.000Z</time>
      </trkpt>
      <trkpt lat="44.81157" lon="0.81708">
        <ele>219</ele>
        <time>2026-05-02T10:23:10.000Z</time>
      </trkpt>
      <trkpt lat="44.81156" lon="0.81709">
        <ele>219.1</ele>
        <time>2026-05-02T10:23:11.000Z</time>
      </trkpt>
      <trkpt lat="44.81155" lon="0.81711">
        <ele>218.7</ele>
        <time>2026-05-02T10:23:12.000Z</time>
      </trkpt>
      <trkpt lat="44.81155" lon="0.81713">
        <ele>218</ele>
        <time>2026-05-02T10:23:13.000Z</time>
      </trkpt>
      <trkpt lat="44.81154" lon="0.81715">
        <ele>217.7</ele>
        <time>2026-05-02T10:23:14.000Z</time>
      </trkpt>
      <trkpt lat="44.81154" lon="0.81717">
        <ele>217.4</ele>
        <time>2026-05-02T10:23:15.000Z</time>
      </trkpt>
      <trkpt lat="44.81154" lon="0.81719">
        <ele>216.9</ele>
        <time>2026-05-02T10:23:16.000Z</time>
      </trkpt>
      <trkpt lat="44.81153" lon="0.81721">
        <ele>216.8</ele>
        <time>2026-05-02T10:23:17.000Z</time>
      </trkpt>
      <trkpt lat="44.81152" lon="0.81723">
        <ele>216.6</ele>
        <time>2026-05-02T10:23:18.000Z</time>
      </trkpt>
      <trkpt lat="44.81151" lon="0.81725">
        <ele>215.3</ele>
        <time>2026-05-02T10:23:19.000Z</time>
      </trkpt>
      <trkpt lat="44.8115" lon="0.81727">
        <ele>215.2</ele>
        <time>2026-05-02T10:23:20.000Z</time>
      </trkpt>
      <trkpt lat="44.81149" lon="0.8173">
        <ele>214.9</ele>
        <time>2026-05-02T10:23:21.000Z</time>
      </trkpt>
      <trkpt lat="44.81149" lon="0.81732">
        <ele>214.8</ele>
        <time>2026-05-02T10:23:22.000Z</time>
      </trkpt>
      <trkpt lat="44.81148" lon="0.81734">
        <ele>214.3</ele>
        <time>2026-05-02T10:23:23.000Z</time>
      </trkpt>
      <trkpt lat="44.81147" lon="0.81735">
        <ele>214.7</ele>
        <time>2026-05-02T10:23:24.000Z</time>
      </trkpt>
      <trkpt lat="44.81146" lon="0.81737">
        <ele>214.9</ele>
        <time>2026-05-02T10:23:25.000Z</time>
      </trkpt>
      <trkpt lat="44.81145" lon="0.81739">
        <ele>215.3</ele>
        <time>2026-05-02T10:23:26.000Z</time>
      </trkpt>
      <trkpt lat="44.81144" lon="0.81741">
        <ele>215.1</ele>
        <time>2026-05-02T10:23:27.000Z</time>
      </trkpt>
      <trkpt lat="44.81143" lon="0.81743">
        <ele>214.7</ele>
        <time>2026-05-02T10:23:28.000Z</time>
      </trkpt>
      <trkpt lat="44.81143" lon="0.81745">
        <ele>215.8</ele>
        <time>2026-05-02T10:23:29.000Z</time>
      </trkpt>
      <trkpt lat="44.81142" lon="0.81747">
        <ele>215.5</ele>
        <time>2026-05-02T10:23:30.000Z</time>
      </trkpt>
      <trkpt lat="44.81141" lon="0.81748">
        <ele>214.6</ele>
        <time>2026-05-02T10:23:31.000Z</time>
      </trkpt>
      <trkpt lat="44.8114" lon="0.81749">
        <ele>214</ele>
        <time>2026-05-02T10:23:32.000Z</time>
      </trkpt>
      <trkpt lat="44.81139" lon="0.81751">
        <ele>213</ele>
        <time>2026-05-02T10:23:33.000Z</time>
      </trkpt>
      <trkpt lat="44.81137" lon="0.81753">
        <ele>212</ele>
        <time>2026-05-02T10:23:34.000Z</time>
      </trkpt>
      <trkpt lat="44.81136" lon="0.81755">
        <ele>211.4</ele>
        <time>2026-05-02T10:23:35.000Z</time>
      </trkpt>
      <trkpt lat="44.81136" lon="0.81757">
        <ele>211</ele>
        <time>2026-05-02T10:23:36.000Z</time>
      </trkpt>
      <trkpt lat="44.81135" lon="0.81758">
        <ele>210.8</ele>
        <time>2026-05-02T10:23:37.000Z</time>
      </trkpt>
      <trkpt lat="44.81134" lon="0.8176">
        <ele>210.8</ele>
        <time>2026-05-02T10:23:38.000Z</time>
      </trkpt>
      <trkpt lat="44.81132" lon="0.81761">
        <ele>210.8</ele>
        <time>2026-05-02T10:23:39.000Z</time>
      </trkpt>
      <trkpt lat="44.81133" lon="0.81762">
        <ele>211.1</ele>
        <time>2026-05-02T10:23:40.000Z</time>
      </trkpt>
      <trkpt lat="44.81131" lon="0.81764">
        <ele>210.9</ele>
        <time>2026-05-02T10:23:41.000Z</time>
      </trkpt>
      <trkpt lat="44.8113" lon="0.81765">
        <ele>210.4</ele>
        <time>2026-05-02T10:23:42.000Z</time>
      </trkpt>
      <trkpt lat="44.8113" lon="0.81765">
        <ele>210.1</ele>
        <time>2026-05-02T10:23:43.000Z</time>
      </trkpt>
      <trkpt lat="44.8113" lon="0.81765">
        <ele>210.1</ele>
        <time>2026-05-02T10:23:44.000Z</time>
      </trkpt>
      <trkpt lat="44.8113" lon="0.81765">
        <ele>210.1</ele>
        <time>2026-05-02T10:23:45.000Z</time>
      </trkpt>
      <trkpt lat="44.8113" lon="0.81765">
        <ele>210.1</ele>
        <time>2026-05-02T10:23:46.000Z</time>
      </trkpt>
      <trkpt lat="44.8113" lon="0.81765">
        <ele>210.1</ele>
        <time>2026-05-02T10:23:47.000Z</time>
      </trkpt>
      <trkpt lat="44.8113" lon="0.81765">
        <ele>210.1</ele>
        <time>2026-05-02T10:23:48.000Z</time>
      </trkpt>
      <trkpt lat="44.8113" lon="0.81765">
        <ele>209.3</ele>
        <time>2026-05-02T10:23:49.000Z</time>
      </trkpt>
      <trkpt lat="44.81129" lon="0.81765">
        <ele>208.5</ele>
        <time>2026-05-02T10:23:50.000Z</time>
      </trkpt>
      <trkpt lat="44.81129" lon="0.81766">
        <ele>208.6</ele>
        <time>2026-05-02T10:23:51.000Z</time>
      </trkpt>
      <trkpt lat="44.81128" lon="0.81768">
        <ele>208.5</ele>
        <time>2026-05-02T10:23:52.000Z</time>
      </trkpt>
      <trkpt lat="44.81127" lon="0.8177">
        <ele>208</ele>
        <time>2026-05-02T10:23:53.000Z</time>
      </trkpt>
      <trkpt lat="44.81127" lon="0.81772">
        <ele>208.1</ele>
        <time>2026-05-02T10:23:54.000Z</time>
      </trkpt>
      <trkpt lat="44.81126" lon="0.81773">
        <ele>207.9</ele>
        <time>2026-05-02T10:23:55.000Z</time>
      </trkpt>
      <trkpt lat="44.81125" lon="0.81775">
        <ele>207.9</ele>
        <time>2026-05-02T10:23:56.000Z</time>
      </trkpt>
      <trkpt lat="44.81124" lon="0.81776">
        <ele>207.7</ele>
        <time>2026-05-02T10:23:57.000Z</time>
      </trkpt>
      <trkpt lat="44.81124" lon="0.81778">
        <ele>206.8</ele>
        <time>2026-05-02T10:23:58.000Z</time>
      </trkpt>
      <trkpt lat="44.81123" lon="0.8178">
        <ele>206.8</ele>
        <time>2026-05-02T10:23:59.000Z</time>
      </trkpt>
      <trkpt lat="44.81123" lon="0.81782">
        <ele>206.2</ele>
        <time>2026-05-02T10:24:00.000Z</time>
      </trkpt>
      <trkpt lat="44.81123" lon="0.81784">
        <ele>206</ele>
        <time>2026-05-02T10:24:01.000Z</time>
      </trkpt>
      <trkpt lat="44.81122" lon="0.81786">
        <ele>205.2</ele>
        <time>2026-05-02T10:24:02.000Z</time>
      </trkpt>
      <trkpt lat="44.81122" lon="0.81788">
        <ele>204.5</ele>
        <time>2026-05-02T10:24:03.000Z</time>
      </trkpt>
      <trkpt lat="44.81121" lon="0.8179">
        <ele>205.3</ele>
        <time>2026-05-02T10:24:04.000Z</time>
      </trkpt>
      <trkpt lat="44.81121" lon="0.81792">
        <ele>204.9</ele>
        <time>2026-05-02T10:24:05.000Z</time>
      </trkpt>
      <trkpt lat="44.8112" lon="0.81794">
        <ele>205.1</ele>
        <time>2026-05-02T10:24:06.000Z</time>
      </trkpt>
      <trkpt lat="44.81119" lon="0.81796">
        <ele>205.5</ele>
        <time>2026-05-02T10:24:07.000Z</time>
      </trkpt>
      <trkpt lat="44.81118" lon="0.81797">
        <ele>205.1</ele>
        <time>2026-05-02T10:24:08.000Z</time>
      </trkpt>
      <trkpt lat="44.81117" lon="0.81799">
        <ele>204.8</ele>
        <time>2026-05-02T10:24:09.000Z</time>
      </trkpt>
      <trkpt lat="44.81117" lon="0.81801">
        <ele>205.2</ele>
        <time>2026-05-02T10:24:10.000Z</time>
      </trkpt>
      <trkpt lat="44.81116" lon="0.81803">
        <ele>204.6</ele>
        <time>2026-05-02T10:24:11.000Z</time>
      </trkpt>
      <trkpt lat="44.81115" lon="0.81805">
        <ele>203.8</ele>
        <time>2026-05-02T10:24:12.000Z</time>
      </trkpt>
      <trkpt lat="44.81114" lon="0.81807">
        <ele>203.7</ele>
        <time>2026-05-02T10:24:13.000Z</time>
      </trkpt>
      <trkpt lat="44.81114" lon="0.81808">
        <ele>203.9</ele>
        <time>2026-05-02T10:24:14.000Z</time>
      </trkpt>
      <trkpt lat="44.81114" lon="0.8181">
        <ele>204</ele>
        <time>2026-05-02T10:24:15.000Z</time>
      </trkpt>
      <trkpt lat="44.81113" lon="0.81813">
        <ele>203.8</ele>
        <time>2026-05-02T10:24:16.000Z</time>
      </trkpt>
      <trkpt lat="44.81113" lon="0.81814">
        <ele>203.5</ele>
        <time>2026-05-02T10:24:17.000Z</time>
      </trkpt>
      <trkpt lat="44.81112" lon="0.81816">
        <ele>203.4</ele>
        <time>2026-05-02T10:24:18.000Z</time>
      </trkpt>
      <trkpt lat="44.81112" lon="0.81817">
        <ele>203.7</ele>
        <time>2026-05-02T10:24:19.000Z</time>
      </trkpt>
      <trkpt lat="44.81111" lon="0.81819">
        <ele>203.5</ele>
        <time>2026-05-02T10:24:20.000Z</time>
      </trkpt>
      <trkpt lat="44.81109" lon="0.8182">
        <ele>203.4</ele>
        <time>2026-05-02T10:24:21.000Z</time>
      </trkpt>
      <trkpt lat="44.81109" lon="0.81822">
        <ele>203.5</ele>
        <time>2026-05-02T10:24:22.000Z</time>
      </trkpt>
      <trkpt lat="44.81108" lon="0.81824">
        <ele>204.3</ele>
        <time>2026-05-02T10:24:23.000Z</time>
      </trkpt>
      <trkpt lat="44.81107" lon="0.81826">
        <ele>204.4</ele>
        <time>2026-05-02T10:24:24.000Z</time>
      </trkpt>
      <trkpt lat="44.81107" lon="0.81827">
        <ele>204.3</ele>
        <time>2026-05-02T10:24:25.000Z</time>
      </trkpt>
      <trkpt lat="44.81106" lon="0.81829">
        <ele>204.3</ele>
        <time>2026-05-02T10:24:26.000Z</time>
      </trkpt>
      <trkpt lat="44.81106" lon="0.8183">
        <ele>203.1</ele>
        <time>2026-05-02T10:24:27.000Z</time>
      </trkpt>
      <trkpt lat="44.81105" lon="0.81832">
        <ele>202.8</ele>
        <time>2026-05-02T10:24:28.000Z</time>
      </trkpt>
      <trkpt lat="44.81105" lon="0.81834">
        <ele>202.7</ele>
        <time>2026-05-02T10:24:29.000Z</time>
      </trkpt>
      <trkpt lat="44.81104" lon="0.81836">
        <ele>201.4</ele>
        <time>2026-05-02T10:24:30.000Z</time>
      </trkpt>
      <trkpt lat="44.81103" lon="0.81838">
        <ele>200.9</ele>
        <time>2026-05-02T10:24:31.000Z</time>
      </trkpt>
      <trkpt lat="44.81103" lon="0.81839">
        <ele>200.8</ele>
        <time>2026-05-02T10:24:32.000Z</time>
      </trkpt>
      <trkpt lat="44.81102" lon="0.81841">
        <ele>200.8</ele>
        <time>2026-05-02T10:24:33.000Z</time>
      </trkpt>
      <trkpt lat="44.81101" lon="0.81843">
        <ele>200.5</ele>
        <time>2026-05-02T10:24:34.000Z</time>
      </trkpt>
      <trkpt lat="44.811" lon="0.81845">
        <ele>200.7</ele>
        <time>2026-05-02T10:24:35.000Z</time>
      </trkpt>
      <trkpt lat="44.81099" lon="0.81847">
        <ele>200.5</ele>
        <time>2026-05-02T10:24:36.000Z</time>
      </trkpt>
      <trkpt lat="44.81098" lon="0.81849">
        <ele>200.3</ele>
        <time>2026-05-02T10:24:37.000Z</time>
      </trkpt>
      <trkpt lat="44.81098" lon="0.81852">
        <ele>200.6</ele>
        <time>2026-05-02T10:24:38.000Z</time>
      </trkpt>
      <trkpt lat="44.81097" lon="0.81854">
        <ele>200.6</ele>
        <time>2026-05-02T10:24:39.000Z</time>
      </trkpt>
      <trkpt lat="44.81096" lon="0.81856">
        <ele>200.5</ele>
        <time>2026-05-02T10:24:40.000Z</time>
      </trkpt>
      <trkpt lat="44.81094" lon="0.81858">
        <ele>200.6</ele>
        <time>2026-05-02T10:24:41.000Z</time>
      </trkpt>
      <trkpt lat="44.81093" lon="0.81859">
        <ele>200.6</ele>
        <time>2026-05-02T10:24:42.000Z</time>
      </trkpt>
      <trkpt lat="44.81092" lon="0.81861">
        <ele>200.6</ele>
        <time>2026-05-02T10:24:43.000Z</time>
      </trkpt>
      <trkpt lat="44.81091" lon="0.81863">
        <ele>200.5</ele>
        <time>2026-05-02T10:24:44.000Z</time>
      </trkpt>
      <trkpt lat="44.8109" lon="0.81865">
        <ele>200.3</ele>
        <time>2026-05-02T10:24:45.000Z</time>
      </trkpt>
      <trkpt lat="44.81089" lon="0.81867">
        <ele>200.2</ele>
        <time>2026-05-02T10:24:46.000Z</time>
      </trkpt>
      <trkpt lat="44.81088" lon="0.81869">
        <ele>199.6</ele>
        <time>2026-05-02T10:24:47.000Z</time>
      </trkpt>
      <trkpt lat="44.81087" lon="0.81871">
        <ele>199.2</ele>
        <time>2026-05-02T10:24:48.000Z</time>
      </trkpt>
      <trkpt lat="44.81086" lon="0.81873">
        <ele>199.2</ele>
        <time>2026-05-02T10:24:49.000Z</time>
      </trkpt>
      <trkpt lat="44.81085" lon="0.81875">
        <ele>199.2</ele>
        <time>2026-05-02T10:24:50.000Z</time>
      </trkpt>
      <trkpt lat="44.81084" lon="0.81877">
        <ele>199.3</ele>
        <time>2026-05-02T10:24:51.000Z</time>
      </trkpt>
      <trkpt lat="44.81083" lon="0.81879">
        <ele>199.3</ele>
        <time>2026-05-02T10:24:52.000Z</time>
      </trkpt>
      <trkpt lat="44.81082" lon="0.81881">
        <ele>199.6</ele>
        <time>2026-05-02T10:24:53.000Z</time>
      </trkpt>
      <trkpt lat="44.81081" lon="0.81882">
        <ele>199.5</ele>
        <time>2026-05-02T10:24:54.000Z</time>
      </trkpt>
      <trkpt lat="44.8108" lon="0.81884">
        <ele>199.4</ele>
        <time>2026-05-02T10:24:55.000Z</time>
      </trkpt>
      <trkpt lat="44.8108" lon="0.81886">
        <ele>199.4</ele>
        <time>2026-05-02T10:24:56.000Z</time>
      </trkpt>
      <trkpt lat="44.81079" lon="0.81888">
        <ele>199.5</ele>
        <time>2026-05-02T10:24:57.000Z</time>
      </trkpt>
      <trkpt lat="44.81078" lon="0.8189">
        <ele>199.4</ele>
        <time>2026-05-02T10:24:58.000Z</time>
      </trkpt>
      <trkpt lat="44.81077" lon="0.81892">
        <ele>199.4</ele>
        <time>2026-05-02T10:24:59.000Z</time>
      </trkpt>
      <trkpt lat="44.81076" lon="0.81894">
        <ele>199.4</ele>
        <time>2026-05-02T10:25:00.000Z</time>
      </trkpt>
      <trkpt lat="44.81075" lon="0.81896">
        <ele>199.5</ele>
        <time>2026-05-02T10:25:01.000Z</time>
      </trkpt>
      <trkpt lat="44.81074" lon="0.81898">
        <ele>199.4</ele>
        <time>2026-05-02T10:25:02.000Z</time>
      </trkpt>
      <trkpt lat="44.81073" lon="0.819">
        <ele>199.4</ele>
        <time>2026-05-02T10:25:03.000Z</time>
      </trkpt>
      <trkpt lat="44.81072" lon="0.81902">
        <ele>199.3</ele>
        <time>2026-05-02T10:25:04.000Z</time>
      </trkpt>
      <trkpt lat="44.81071" lon="0.81905">
        <ele>199.2</ele>
        <time>2026-05-02T10:25:05.000Z</time>
      </trkpt>
      <trkpt lat="44.8107" lon="0.81907">
        <ele>199.1</ele>
        <time>2026-05-02T10:25:06.000Z</time>
      </trkpt>
      <trkpt lat="44.81069" lon="0.81909">
        <ele>199.1</ele>
        <time>2026-05-02T10:25:07.000Z</time>
      </trkpt>
      <trkpt lat="44.81068" lon="0.81911">
        <ele>199</ele>
        <time>2026-05-02T10:25:08.000Z</time>
      </trkpt>
      <trkpt lat="44.81067" lon="0.81913">
        <ele>198.9</ele>
        <time>2026-05-02T10:25:09.000Z</time>
      </trkpt>
      <trkpt lat="44.81066" lon="0.81915">
        <ele>198.8</ele>
        <time>2026-05-02T10:25:10.000Z</time>
      </trkpt>
      <trkpt lat="44.81066" lon="0.81917">
        <ele>198.5</ele>
        <time>2026-05-02T10:25:11.000Z</time>
      </trkpt>
      <trkpt lat="44.81065" lon="0.81919">
        <ele>198.6</ele>
        <time>2026-05-02T10:25:12.000Z</time>
      </trkpt>
      <trkpt lat="44.81064" lon="0.81921">
        <ele>198.8</ele>
        <time>2026-05-02T10:25:13.000Z</time>
      </trkpt>
      <trkpt lat="44.81064" lon="0.81923">
        <ele>198.6</ele>
        <time>2026-05-02T10:25:14.000Z</time>
      </trkpt>
      <trkpt lat="44.81063" lon="0.81925">
        <ele>198.7</ele>
        <time>2026-05-02T10:25:15.000Z</time>
      </trkpt>
      <trkpt lat="44.81063" lon="0.81927">
        <ele>198.6</ele>
        <time>2026-05-02T10:25:16.000Z</time>
      </trkpt>
      <trkpt lat="44.81062" lon="0.81929">
        <ele>198.8</ele>
        <time>2026-05-02T10:25:17.000Z</time>
      </trkpt>
      <trkpt lat="44.81062" lon="0.81931">
        <ele>198.9</ele>
        <time>2026-05-02T10:25:18.000Z</time>
      </trkpt>
      <trkpt lat="44.81061" lon="0.81933">
        <ele>198.9</ele>
        <time>2026-05-02T10:25:19.000Z</time>
      </trkpt>
      <trkpt lat="44.81061" lon="0.81936">
        <ele>198.6</ele>
        <time>2026-05-02T10:25:20.000Z</time>
      </trkpt>
      <trkpt lat="44.81061" lon="0.81938">
        <ele>198.5</ele>
        <time>2026-05-02T10:25:21.000Z</time>
      </trkpt>
      <trkpt lat="44.8106" lon="0.8194">
        <ele>198.5</ele>
        <time>2026-05-02T10:25:22.000Z</time>
      </trkpt>
      <trkpt lat="44.8106" lon="0.81942">
        <ele>198.6</ele>
        <time>2026-05-02T10:25:23.000Z</time>
      </trkpt>
      <trkpt lat="44.8106" lon="0.81944">
        <ele>198.8</ele>
        <time>2026-05-02T10:25:24.000Z</time>
      </trkpt>
      <trkpt lat="44.8106" lon="0.81947">
        <ele>198.2</ele>
        <time>2026-05-02T10:25:25.000Z</time>
      </trkpt>
      <trkpt lat="44.81059" lon="0.81949">
        <ele>198.2</ele>
        <time>2026-05-02T10:25:26.000Z</time>
      </trkpt>
      <trkpt lat="44.81059" lon="0.81951">
        <ele>198.1</ele>
        <time>2026-05-02T10:25:27.000Z</time>
      </trkpt>
      <trkpt lat="44.81059" lon="0.81953">
        <ele>198</ele>
        <time>2026-05-02T10:25:28.000Z</time>
      </trkpt>
      <trkpt lat="44.81059" lon="0.81955">
        <ele>198</ele>
        <time>2026-05-02T10:25:29.000Z</time>
      </trkpt>
      <trkpt lat="44.81058" lon="0.81957">
        <ele>197.7</ele>
        <time>2026-05-02T10:25:30.000Z</time>
      </trkpt>
      <trkpt lat="44.81057" lon="0.81959">
        <ele>197.1</ele>
        <time>2026-05-02T10:25:31.000Z</time>
      </trkpt>
      <trkpt lat="44.81057" lon="0.81961">
        <ele>197.2</ele>
        <time>2026-05-02T10:25:32.000Z</time>
      </trkpt>
      <trkpt lat="44.81057" lon="0.81964">
        <ele>197</ele>
        <time>2026-05-02T10:25:33.000Z</time>
      </trkpt>
      <trkpt lat="44.81057" lon="0.81967">
        <ele>196.6</ele>
        <time>2026-05-02T10:25:34.000Z</time>
      </trkpt>
      <trkpt lat="44.81057" lon="0.81969">
        <ele>196.3</ele>
        <time>2026-05-02T10:25:35.000Z</time>
      </trkpt>
      <trkpt lat="44.81057" lon="0.81971">
        <ele>196</ele>
        <time>2026-05-02T10:25:36.000Z</time>
      </trkpt>
      <trkpt lat="44.81057" lon="0.81973">
        <ele>196.2</ele>
        <time>2026-05-02T10:25:37.000Z</time>
      </trkpt>
      <trkpt lat="44.81057" lon="0.81975">
        <ele>196.7</ele>
        <time>2026-05-02T10:25:38.000Z</time>
      </trkpt>
      <trkpt lat="44.81057" lon="0.81977">
        <ele>196.8</ele>
        <time>2026-05-02T10:25:39.000Z</time>
      </trkpt>
      <trkpt lat="44.81056" lon="0.81979">
        <ele>196.9</ele>
        <time>2026-05-02T10:25:40.000Z</time>
      </trkpt>
      <trkpt lat="44.81056" lon="0.81981">
        <ele>197.3</ele>
        <time>2026-05-02T10:25:41.000Z</time>
      </trkpt>
      <trkpt lat="44.81056" lon="0.81983">
        <ele>198.3</ele>
        <time>2026-05-02T10:25:42.000Z</time>
      </trkpt>
      <trkpt lat="44.81056" lon="0.81985">
        <ele>198.6</ele>
        <time>2026-05-02T10:25:43.000Z</time>
      </trkpt>
      <trkpt lat="44.81057" lon="0.81987">
        <ele>198.6</ele>
        <time>2026-05-02T10:25:44.000Z</time>
      </trkpt>
      <trkpt lat="44.81057" lon="0.81989">
        <ele>198.6</ele>
        <time>2026-05-02T10:25:45.000Z</time>
      </trkpt>
      <trkpt lat="44.81057" lon="0.8199">
        <ele>198.7</ele>
        <time>2026-05-02T10:25:46.000Z</time>
      </trkpt>
      <trkpt lat="44.81057" lon="0.81992">
        <ele>198.8</ele>
        <time>2026-05-02T10:25:47.000Z</time>
      </trkpt>
      <trkpt lat="44.81058" lon="0.81994">
        <ele>198.9</ele>
        <time>2026-05-02T10:25:48.000Z</time>
      </trkpt>
      <trkpt lat="44.81058" lon="0.81996">
        <ele>198.9</ele>
        <time>2026-05-02T10:25:49.000Z</time>
      </trkpt>
      <trkpt lat="44.81058" lon="0.81998">
        <ele>199.3</ele>
        <time>2026-05-02T10:25:50.000Z</time>
      </trkpt>
      <trkpt lat="44.81058" lon="0.82">
        <ele>199.6</ele>
        <time>2026-05-02T10:25:51.000Z</time>
      </trkpt>
      <trkpt lat="44.81058" lon="0.82002">
        <ele>200.1</ele>
        <time>2026-05-02T10:25:52.000Z</time>
      </trkpt>
      <trkpt lat="44.81059" lon="0.82005">
        <ele>200.2</ele>
        <time>2026-05-02T10:25:53.000Z</time>
      </trkpt>
      <trkpt lat="44.81059" lon="0.82007">
        <ele>200.2</ele>
        <time>2026-05-02T10:25:54.000Z</time>
      </trkpt>
      <trkpt lat="44.81059" lon="0.82009">
        <ele>200.6</ele>
        <time>2026-05-02T10:25:55.000Z</time>
      </trkpt>
      <trkpt lat="44.81059" lon="0.82011">
        <ele>200.7</ele>
        <time>2026-05-02T10:25:56.000Z</time>
      </trkpt>
      <trkpt lat="44.81058" lon="0.82013">
        <ele>200.7</ele>
        <time>2026-05-02T10:25:57.000Z</time>
      </trkpt>
      <trkpt lat="44.81058" lon="0.82015">
        <ele>200.2</ele>
        <time>2026-05-02T10:25:58.000Z</time>
      </trkpt>
      <trkpt lat="44.81058" lon="0.82018">
        <ele>199.9</ele>
        <time>2026-05-02T10:25:59.000Z</time>
      </trkpt>
      <trkpt lat="44.81059" lon="0.8202">
        <ele>200.4</ele>
        <time>2026-05-02T10:26:00.000Z</time>
      </trkpt>
      <trkpt lat="44.81059" lon="0.82022">
        <ele>201</ele>
        <time>2026-05-02T10:26:01.000Z</time>
      </trkpt>
      <trkpt lat="44.81059" lon="0.82024">
        <ele>201.1</ele>
        <time>2026-05-02T10:26:02.000Z</time>
      </trkpt>
      <trkpt lat="44.81059" lon="0.82026">
        <ele>201</ele>
        <time>2026-05-02T10:26:03.000Z</time>
      </trkpt>
      <trkpt lat="44.81058" lon="0.82029">
        <ele>201.1</ele>
        <time>2026-05-02T10:26:04.000Z</time>
      </trkpt>
      <trkpt lat="44.81058" lon="0.82031">
        <ele>201.3</ele>
        <time>2026-05-02T10:26:05.000Z</time>
      </trkpt>
      <trkpt lat="44.81058" lon="0.82033">
        <ele>201.1</ele>
        <time>2026-05-02T10:26:06.000Z</time>
      </trkpt>
      <trkpt lat="44.81058" lon="0.82035">
        <ele>201.1</ele>
        <time>2026-05-02T10:26:07.000Z</time>
      </trkpt>
      <trkpt lat="44.81058" lon="0.82037">
        <ele>201.3</ele>
        <time>2026-05-02T10:26:08.000Z</time>
      </trkpt>
      <trkpt lat="44.81058" lon="0.8204">
        <ele>201.7</ele>
        <time>2026-05-02T10:26:09.000Z</time>
      </trkpt>
      <trkpt lat="44.81058" lon="0.82042">
        <ele>202</ele>
        <time>2026-05-02T10:26:10.000Z</time>
      </trkpt>
      <trkpt lat="44.81058" lon="0.82044">
        <ele>202</ele>
        <time>2026-05-02T10:26:11.000Z</time>
      </trkpt>
      <trkpt lat="44.81058" lon="0.82046">
        <ele>202.1</ele>
        <time>2026-05-02T10:26:12.000Z</time>
      </trkpt>
      <trkpt lat="44.81058" lon="0.82049">
        <ele>202.5</ele>
        <time>2026-05-02T10:26:13.000Z</time>
      </trkpt>
      <trkpt lat="44.81058" lon="0.82051">
        <ele>202.6</ele>
        <time>2026-05-02T10:26:14.000Z</time>
      </trkpt>
      <trkpt lat="44.81058" lon="0.82053">
        <ele>202.6</ele>
        <time>2026-05-02T10:26:15.000Z</time>
      </trkpt>
      <trkpt lat="44.81058" lon="0.82055">
        <ele>202.6</ele>
        <time>2026-05-02T10:26:16.000Z</time>
      </trkpt>
      <trkpt lat="44.81058" lon="0.82058">
        <ele>202.7</ele>
        <time>2026-05-02T10:26:17.000Z</time>
      </trkpt>
      <trkpt lat="44.81058" lon="0.8206">
        <ele>203</ele>
        <time>2026-05-02T10:26:18.000Z</time>
      </trkpt>
      <trkpt lat="44.81058" lon="0.82062">
        <ele>203</ele>
        <time>2026-05-02T10:26:19.000Z</time>
      </trkpt>
      <trkpt lat="44.81058" lon="0.82064">
        <ele>203.1</ele>
        <time>2026-05-02T10:26:20.000Z</time>
      </trkpt>
      <trkpt lat="44.81059" lon="0.82067">
        <ele>203</ele>
        <time>2026-05-02T10:26:21.000Z</time>
      </trkpt>
      <trkpt lat="44.81059" lon="0.82069">
        <ele>203.4</ele>
        <time>2026-05-02T10:26:22.000Z</time>
      </trkpt>
      <trkpt lat="44.81059" lon="0.82071">
        <ele>203.6</ele>
        <time>2026-05-02T10:26:23.000Z</time>
      </trkpt>
      <trkpt lat="44.81059" lon="0.82073">
        <ele>203.7</ele>
        <time>2026-05-02T10:26:24.000Z</time>
      </trkpt>
      <trkpt lat="44.81059" lon="0.82075">
        <ele>204</ele>
        <time>2026-05-02T10:26:25.000Z</time>
      </trkpt>
      <trkpt lat="44.81058" lon="0.82078">
        <ele>203.8</ele>
        <time>2026-05-02T10:26:26.000Z</time>
      </trkpt>
      <trkpt lat="44.81058" lon="0.8208">
        <ele>203.3</ele>
        <time>2026-05-02T10:26:27.000Z</time>
      </trkpt>
      <trkpt lat="44.81058" lon="0.82082">
        <ele>202.7</ele>
        <time>2026-05-02T10:26:28.000Z</time>
      </trkpt>
      <trkpt lat="44.81058" lon="0.82085">
        <ele>199.4</ele>
        <time>2026-05-02T10:26:29.000Z</time>
      </trkpt>
      <trkpt lat="44.81057" lon="0.82086">
        <ele>200.7</ele>
        <time>2026-05-02T10:26:30.000Z</time>
      </trkpt>
      <trkpt lat="44.81058" lon="0.8209">
        <ele>198.1</ele>
        <time>2026-05-02T10:26:31.000Z</time>
      </trkpt>
      <trkpt lat="44.81058" lon="0.82093">
        <ele>198.1</ele>
        <time>2026-05-02T10:26:32.000Z</time>
      </trkpt>
      <trkpt lat="44.81058" lon="0.82096">
        <ele>197.8</ele>
        <time>2026-05-02T10:26:33.000Z</time>
      </trkpt>
      <trkpt lat="44.81058" lon="0.82098">
        <ele>197.6</ele>
        <time>2026-05-02T10:26:34.000Z</time>
      </trkpt>
      <trkpt lat="44.81059" lon="0.821">
        <ele>197.8</ele>
        <time>2026-05-02T10:26:35.000Z</time>
      </trkpt>
      <trkpt lat="44.81059" lon="0.82103">
        <ele>197.7</ele>
        <time>2026-05-02T10:26:36.000Z</time>
      </trkpt>
      <trkpt lat="44.81059" lon="0.82105">
        <ele>198</ele>
        <time>2026-05-02T10:26:37.000Z</time>
      </trkpt>
      <trkpt lat="44.81059" lon="0.82107">
        <ele>198.3</ele>
        <time>2026-05-02T10:26:38.000Z</time>
      </trkpt>
      <trkpt lat="44.81059" lon="0.8211">
        <ele>198.2</ele>
        <time>2026-05-02T10:26:39.000Z</time>
      </trkpt>
      <trkpt lat="44.81059" lon="0.82112">
        <ele>198.1</ele>
        <time>2026-05-02T10:26:40.000Z</time>
      </trkpt>
      <trkpt lat="44.81059" lon="0.82114">
        <ele>198.2</ele>
        <time>2026-05-02T10:26:41.000Z</time>
      </trkpt>
      <trkpt lat="44.8106" lon="0.82116">
        <ele>198.1</ele>
        <time>2026-05-02T10:26:42.000Z</time>
      </trkpt>
      <trkpt lat="44.8106" lon="0.82118">
        <ele>198.2</ele>
        <time>2026-05-02T10:26:43.000Z</time>
      </trkpt>
      <trkpt lat="44.8106" lon="0.8212">
        <ele>198.2</ele>
        <time>2026-05-02T10:26:44.000Z</time>
      </trkpt>
      <trkpt lat="44.81061" lon="0.82122">
        <ele>198.5</ele>
        <time>2026-05-02T10:26:45.000Z</time>
      </trkpt>
      <trkpt lat="44.81061" lon="0.82124">
        <ele>198.5</ele>
        <time>2026-05-02T10:26:46.000Z</time>
      </trkpt>
      <trkpt lat="44.81061" lon="0.82126">
        <ele>198.7</ele>
        <time>2026-05-02T10:26:47.000Z</time>
      </trkpt>
      <trkpt lat="44.81062" lon="0.82128">
        <ele>199.1</ele>
        <time>2026-05-02T10:26:48.000Z</time>
      </trkpt>
      <trkpt lat="44.81062" lon="0.8213">
        <ele>199.4</ele>
        <time>2026-05-02T10:26:49.000Z</time>
      </trkpt>
      <trkpt lat="44.81062" lon="0.82132">
        <ele>199.9</ele>
        <time>2026-05-02T10:26:50.000Z</time>
      </trkpt>
      <trkpt lat="44.81062" lon="0.82134">
        <ele>199.9</ele>
        <time>2026-05-02T10:26:51.000Z</time>
      </trkpt>
      <trkpt lat="44.81062" lon="0.82136">
        <ele>200.7</ele>
        <time>2026-05-02T10:26:52.000Z</time>
      </trkpt>
      <trkpt lat="44.81062" lon="0.82138">
        <ele>201.3</ele>
        <time>2026-05-02T10:26:53.000Z</time>
      </trkpt>
      <trkpt lat="44.81063" lon="0.8214">
        <ele>201.9</ele>
        <time>2026-05-02T10:26:54.000Z</time>
      </trkpt>
      <trkpt lat="44.81063" lon="0.82142">
        <ele>202.2</ele>
        <time>2026-05-02T10:26:55.000Z</time>
      </trkpt>
      <trkpt lat="44.81064" lon="0.82144">
        <ele>202.5</ele>
        <time>2026-05-02T10:26:56.000Z</time>
      </trkpt>
      <trkpt lat="44.81064" lon="0.82146">
        <ele>202.8</ele>
        <time>2026-05-02T10:26:57.000Z</time>
      </trkpt>
      <trkpt lat="44.81065" lon="0.82148">
        <ele>203</ele>
        <time>2026-05-02T10:26:58.000Z</time>
      </trkpt>
      <trkpt lat="44.81065" lon="0.8215">
        <ele>203.3</ele>
        <time>2026-05-02T10:26:59.000Z</time>
      </trkpt>
      <trkpt lat="44.81066" lon="0.82152">
        <ele>203.7</ele>
        <time>2026-05-02T10:27:00.000Z</time>
      </trkpt>
      <trkpt lat="44.81066" lon="0.82153">
        <ele>204.2</ele>
        <time>2026-05-02T10:27:01.000Z</time>
      </trkpt>
      <trkpt lat="44.81067" lon="0.82155">
        <ele>204.1</ele>
        <time>2026-05-02T10:27:02.000Z</time>
      </trkpt>
      <trkpt lat="44.81067" lon="0.82158">
        <ele>204.4</ele>
        <time>2026-05-02T10:27:03.000Z</time>
      </trkpt>
      <trkpt lat="44.81067" lon="0.8216">
        <ele>204.3</ele>
        <time>2026-05-02T10:27:04.000Z</time>
      </trkpt>
      <trkpt lat="44.81068" lon="0.82162">
        <ele>204.7</ele>
        <time>2026-05-02T10:27:05.000Z</time>
      </trkpt>
      <trkpt lat="44.81068" lon="0.82164">
        <ele>205</ele>
        <time>2026-05-02T10:27:06.000Z</time>
      </trkpt>
      <trkpt lat="44.81068" lon="0.82166">
        <ele>205.2</ele>
        <time>2026-05-02T10:27:07.000Z</time>
      </trkpt>
      <trkpt lat="44.81068" lon="0.82168">
        <ele>205.2</ele>
        <time>2026-05-02T10:27:08.000Z</time>
      </trkpt>
      <trkpt lat="44.81069" lon="0.8217">
        <ele>205.5</ele>
        <time>2026-05-02T10:27:09.000Z</time>
      </trkpt>
      <trkpt lat="44.81069" lon="0.82172">
        <ele>205.7</ele>
        <time>2026-05-02T10:27:10.000Z</time>
      </trkpt>
      <trkpt lat="44.81069" lon="0.82174">
        <ele>206</ele>
        <time>2026-05-02T10:27:11.000Z</time>
      </trkpt>
      <trkpt lat="44.81069" lon="0.82176">
        <ele>205.9</ele>
        <time>2026-05-02T10:27:12.000Z</time>
      </trkpt>
      <trkpt lat="44.8107" lon="0.82178">
        <ele>206</ele>
        <time>2026-05-02T10:27:13.000Z</time>
      </trkpt>
      <trkpt lat="44.8107" lon="0.8218">
        <ele>206.3</ele>
        <time>2026-05-02T10:27:14.000Z</time>
      </trkpt>
      <trkpt lat="44.8107" lon="0.82182">
        <ele>206.6</ele>
        <time>2026-05-02T10:27:15.000Z</time>
      </trkpt>
      <trkpt lat="44.8107" lon="0.82185">
        <ele>206.1</ele>
        <time>2026-05-02T10:27:16.000Z</time>
      </trkpt>
      <trkpt lat="44.8107" lon="0.82187">
        <ele>206.7</ele>
        <time>2026-05-02T10:27:17.000Z</time>
      </trkpt>
      <trkpt lat="44.8107" lon="0.82189">
        <ele>207.4</ele>
        <time>2026-05-02T10:27:18.000Z</time>
      </trkpt>
      <trkpt lat="44.8107" lon="0.82191">
        <ele>207.4</ele>
        <time>2026-05-02T10:27:19.000Z</time>
      </trkpt>
      <trkpt lat="44.8107" lon="0.82193">
        <ele>207.1</ele>
        <time>2026-05-02T10:27:20.000Z</time>
      </trkpt>
      <trkpt lat="44.81069" lon="0.82195">
        <ele>207.4</ele>
        <time>2026-05-02T10:27:21.000Z</time>
      </trkpt>
      <trkpt lat="44.81069" lon="0.82197">
        <ele>207.7</ele>
        <time>2026-05-02T10:27:22.000Z</time>
      </trkpt>
      <trkpt lat="44.81069" lon="0.82199">
        <ele>207.5</ele>
        <time>2026-05-02T10:27:23.000Z</time>
      </trkpt>
      <trkpt lat="44.81068" lon="0.82201">
        <ele>207.8</ele>
        <time>2026-05-02T10:27:24.000Z</time>
      </trkpt>
      <trkpt lat="44.81068" lon="0.82203">
        <ele>207.6</ele>
        <time>2026-05-02T10:27:25.000Z</time>
      </trkpt>
      <trkpt lat="44.81068" lon="0.82205">
        <ele>208.5</ele>
        <time>2026-05-02T10:27:26.000Z</time>
      </trkpt>
      <trkpt lat="44.81067" lon="0.82207">
        <ele>208.9</ele>
        <time>2026-05-02T10:27:27.000Z</time>
      </trkpt>
      <trkpt lat="44.81067" lon="0.82209">
        <ele>208.9</ele>
        <time>2026-05-02T10:27:28.000Z</time>
      </trkpt>
      <trkpt lat="44.81066" lon="0.82211">
        <ele>209.2</ele>
        <time>2026-05-02T10:27:29.000Z</time>
      </trkpt>
      <trkpt lat="44.81065" lon="0.82213">
        <ele>209.3</ele>
        <time>2026-05-02T10:27:30.000Z</time>
      </trkpt>
      <trkpt lat="44.81065" lon="0.82216">
        <ele>209.4</ele>
        <time>2026-05-02T10:27:31.000Z</time>
      </trkpt>
      <trkpt lat="44.81064" lon="0.82218">
        <ele>208.9</ele>
        <time>2026-05-02T10:27:32.000Z</time>
      </trkpt>
      <trkpt lat="44.81063" lon="0.8222">
        <ele>209.1</ele>
        <time>2026-05-02T10:27:33.000Z</time>
      </trkpt>
      <trkpt lat="44.81062" lon="0.82222">
        <ele>209.1</ele>
        <time>2026-05-02T10:27:34.000Z</time>
      </trkpt>
      <trkpt lat="44.81061" lon="0.82224">
        <ele>208.4</ele>
        <time>2026-05-02T10:27:35.000Z</time>
      </trkpt>
      <trkpt lat="44.81061" lon="0.82226">
        <ele>208.6</ele>
        <time>2026-05-02T10:27:36.000Z</time>
      </trkpt>
      <trkpt lat="44.8106" lon="0.82229">
        <ele>208.8</ele>
        <time>2026-05-02T10:27:37.000Z</time>
      </trkpt>
      <trkpt lat="44.81059" lon="0.82231">
        <ele>208.7</ele>
        <time>2026-05-02T10:27:38.000Z</time>
      </trkpt>
      <trkpt lat="44.81059" lon="0.82233">
        <ele>209.2</ele>
        <time>2026-05-02T10:27:39.000Z</time>
      </trkpt>
      <trkpt lat="44.81058" lon="0.82234">
        <ele>209.4</ele>
        <time>2026-05-02T10:27:40.000Z</time>
      </trkpt>
      <trkpt lat="44.81057" lon="0.82236">
        <ele>209.6</ele>
        <time>2026-05-02T10:27:41.000Z</time>
      </trkpt>
      <trkpt lat="44.81056" lon="0.82238">
        <ele>209.7</ele>
        <time>2026-05-02T10:27:42.000Z</time>
      </trkpt>
      <trkpt lat="44.81056" lon="0.8224">
        <ele>209.8</ele>
        <time>2026-05-02T10:27:43.000Z</time>
      </trkpt>
      <trkpt lat="44.81055" lon="0.82242">
        <ele>210</ele>
        <time>2026-05-02T10:27:44.000Z</time>
      </trkpt>
      <trkpt lat="44.81054" lon="0.82244">
        <ele>210.6</ele>
        <time>2026-05-02T10:27:45.000Z</time>
      </trkpt>
      <trkpt lat="44.81054" lon="0.82246">
        <ele>211.4</ele>
        <time>2026-05-02T10:27:46.000Z</time>
      </trkpt>
      <trkpt lat="44.81054" lon="0.82249">
        <ele>211.5</ele>
        <time>2026-05-02T10:27:47.000Z</time>
      </trkpt>
      <trkpt lat="44.81052" lon="0.82252">
        <ele>210.9</ele>
        <time>2026-05-02T10:27:48.000Z</time>
      </trkpt>
      <trkpt lat="44.81051" lon="0.82254">
        <ele>209.8</ele>
        <time>2026-05-02T10:27:49.000Z</time>
      </trkpt>
      <trkpt lat="44.81049" lon="0.82257">
        <ele>208.8</ele>
        <time>2026-05-02T10:27:50.000Z</time>
      </trkpt>
      <trkpt lat="44.81048" lon="0.82259">
        <ele>208.2</ele>
        <time>2026-05-02T10:27:51.000Z</time>
      </trkpt>
      <trkpt lat="44.81047" lon="0.82262">
        <ele>207.9</ele>
        <time>2026-05-02T10:27:52.000Z</time>
      </trkpt>
      <trkpt lat="44.81046" lon="0.82264">
        <ele>207.5</ele>
        <time>2026-05-02T10:27:53.000Z</time>
      </trkpt>
      <trkpt lat="44.81045" lon="0.82266">
        <ele>207</ele>
        <time>2026-05-02T10:27:54.000Z</time>
      </trkpt>
      <trkpt lat="44.81044" lon="0.82268">
        <ele>207.2</ele>
        <time>2026-05-02T10:27:55.000Z</time>
      </trkpt>
      <trkpt lat="44.81043" lon="0.8227">
        <ele>207</ele>
        <time>2026-05-02T10:27:56.000Z</time>
      </trkpt>
      <trkpt lat="44.81043" lon="0.82273">
        <ele>206.8</ele>
        <time>2026-05-02T10:27:57.000Z</time>
      </trkpt>
      <trkpt lat="44.81042" lon="0.82275">
        <ele>206.6</ele>
        <time>2026-05-02T10:27:58.000Z</time>
      </trkpt>
      <trkpt lat="44.81041" lon="0.82277">
        <ele>206.4</ele>
        <time>2026-05-02T10:27:59.000Z</time>
      </trkpt>
      <trkpt lat="44.8104" lon="0.82279">
        <ele>206.2</ele>
        <time>2026-05-02T10:28:00.000Z</time>
      </trkpt>
      <trkpt lat="44.81039" lon="0.82281">
        <ele>206.4</ele>
        <time>2026-05-02T10:28:01.000Z</time>
      </trkpt>
      <trkpt lat="44.81039" lon="0.82283">
        <ele>206.8</ele>
        <time>2026-05-02T10:28:02.000Z</time>
      </trkpt>
      <trkpt lat="44.81038" lon="0.82285">
        <ele>206.6</ele>
        <time>2026-05-02T10:28:03.000Z</time>
      </trkpt>
      <trkpt lat="44.81037" lon="0.82287">
        <ele>206.8</ele>
        <time>2026-05-02T10:28:04.000Z</time>
      </trkpt>
      <trkpt lat="44.81036" lon="0.82289">
        <ele>207.1</ele>
        <time>2026-05-02T10:28:05.000Z</time>
      </trkpt>
      <trkpt lat="44.81036" lon="0.82291">
        <ele>207.4</ele>
        <time>2026-05-02T10:28:06.000Z</time>
      </trkpt>
      <trkpt lat="44.81035" lon="0.82293">
        <ele>207.7</ele>
        <time>2026-05-02T10:28:07.000Z</time>
      </trkpt>
      <trkpt lat="44.81034" lon="0.82295">
        <ele>207.8</ele>
        <time>2026-05-02T10:28:08.000Z</time>
      </trkpt>
      <trkpt lat="44.81034" lon="0.82297">
        <ele>208.1</ele>
        <time>2026-05-02T10:28:09.000Z</time>
      </trkpt>
      <trkpt lat="44.81033" lon="0.82299">
        <ele>208.3</ele>
        <time>2026-05-02T10:28:10.000Z</time>
      </trkpt>
      <trkpt lat="44.81033" lon="0.82301">
        <ele>208.1</ele>
        <time>2026-05-02T10:28:11.000Z</time>
      </trkpt>
      <trkpt lat="44.81032" lon="0.82303">
        <ele>208.4</ele>
        <time>2026-05-02T10:28:12.000Z</time>
      </trkpt>
      <trkpt lat="44.81032" lon="0.82304">
        <ele>208.6</ele>
        <time>2026-05-02T10:28:13.000Z</time>
      </trkpt>
      <trkpt lat="44.81031" lon="0.82306">
        <ele>208.8</ele>
        <time>2026-05-02T10:28:14.000Z</time>
      </trkpt>
      <trkpt lat="44.81031" lon="0.82308">
        <ele>208.9</ele>
        <time>2026-05-02T10:28:15.000Z</time>
      </trkpt>
      <trkpt lat="44.8103" lon="0.8231">
        <ele>208.9</ele>
        <time>2026-05-02T10:28:16.000Z</time>
      </trkpt>
      <trkpt lat="44.81029" lon="0.82312">
        <ele>209</ele>
        <time>2026-05-02T10:28:17.000Z</time>
      </trkpt>
      <trkpt lat="44.81029" lon="0.82314">
        <ele>208.9</ele>
        <time>2026-05-02T10:28:18.000Z</time>
      </trkpt>
      <trkpt lat="44.81028" lon="0.82315">
        <ele>208.9</ele>
        <time>2026-05-02T10:28:19.000Z</time>
      </trkpt>
      <trkpt lat="44.81027" lon="0.82317">
        <ele>209.3</ele>
        <time>2026-05-02T10:28:20.000Z</time>
      </trkpt>
      <trkpt lat="44.81026" lon="0.82318">
        <ele>209.6</ele>
        <time>2026-05-02T10:28:21.000Z</time>
      </trkpt>
      <trkpt lat="44.81026" lon="0.8232">
        <ele>210</ele>
        <time>2026-05-02T10:28:22.000Z</time>
      </trkpt>
      <trkpt lat="44.81025" lon="0.82322">
        <ele>210.8</ele>
        <time>2026-05-02T10:28:23.000Z</time>
      </trkpt>
      <trkpt lat="44.81025" lon="0.82322">
        <ele>210.5</ele>
        <time>2026-05-02T10:28:24.000Z</time>
      </trkpt>
      <trkpt lat="44.81025" lon="0.82321">
        <ele>210.5</ele>
        <time>2026-05-02T10:28:25.000Z</time>
      </trkpt>
      <trkpt lat="44.81025" lon="0.82321">
        <ele>210.5</ele>
        <time>2026-05-02T10:28:26.000Z</time>
      </trkpt>
      <trkpt lat="44.81025" lon="0.82321">
        <ele>210.5</ele>
        <time>2026-05-02T10:28:27.000Z</time>
      </trkpt>
      <trkpt lat="44.81025" lon="0.82321">
        <ele>210.5</ele>
        <time>2026-05-02T10:28:28.000Z</time>
      </trkpt>
      <trkpt lat="44.81025" lon="0.82321">
        <ele>210.5</ele>
        <time>2026-05-02T10:28:29.000Z</time>
      </trkpt>
      <trkpt lat="44.81025" lon="0.82321">
        <ele>210.5</ele>
        <time>2026-05-02T10:28:30.000Z</time>
      </trkpt>
      <trkpt lat="44.81025" lon="0.82321">
        <ele>210.5</ele>
        <time>2026-05-02T10:28:31.000Z</time>
      </trkpt>
      <trkpt lat="44.81025" lon="0.82321">
        <ele>210.5</ele>
        <time>2026-05-02T10:28:32.000Z</time>
      </trkpt>
      <trkpt lat="44.81025" lon="0.82322">
        <ele>209.8</ele>
        <time>2026-05-02T10:28:33.000Z</time>
      </trkpt>
      <trkpt lat="44.81024" lon="0.82323">
        <ele>209.5</ele>
        <time>2026-05-02T10:28:34.000Z</time>
      </trkpt>
      <trkpt lat="44.81024" lon="0.82325">
        <ele>209.7</ele>
        <time>2026-05-02T10:28:35.000Z</time>
      </trkpt>
      <trkpt lat="44.81024" lon="0.82326">
        <ele>209.4</ele>
        <time>2026-05-02T10:28:36.000Z</time>
      </trkpt>
      <trkpt lat="44.81024" lon="0.82328">
        <ele>209.2</ele>
        <time>2026-05-02T10:28:37.000Z</time>
      </trkpt>
      <trkpt lat="44.81024" lon="0.82328">
        <ele>209</ele>
        <time>2026-05-02T10:28:38.000Z</time>
      </trkpt>
      <trkpt lat="44.81024" lon="0.82328">
        <ele>208.9</ele>
        <time>2026-05-02T10:28:39.000Z</time>
      </trkpt>
      <trkpt lat="44.81024" lon="0.82329">
        <ele>208.6</ele>
        <time>2026-05-02T10:28:40.000Z</time>
      </trkpt>
      <trkpt lat="44.81024" lon="0.82329">
        <ele>208.6</ele>
        <time>2026-05-02T10:28:41.000Z</time>
      </trkpt>
      <trkpt lat="44.81024" lon="0.82329">
        <ele>208.6</ele>
        <time>2026-05-02T10:28:42.000Z</time>
      </trkpt>
      <trkpt lat="44.81024" lon="0.82329">
        <ele>208.6</ele>
        <time>2026-05-02T10:28:43.000Z</time>
      </trkpt>
      <trkpt lat="44.81024" lon="0.82329">
        <ele>208.6</ele>
        <time>2026-05-02T10:28:44.000Z</time>
      </trkpt>
      <trkpt lat="44.81024" lon="0.82329">
        <ele>208.6</ele>
        <time>2026-05-02T10:28:45.000Z</time>
      </trkpt>
      <trkpt lat="44.81024" lon="0.82329">
        <ele>208.6</ele>
        <time>2026-05-02T10:28:46.000Z</time>
      </trkpt>
      <trkpt lat="44.81024" lon="0.82329">
        <ele>208.6</ele>
        <time>2026-05-02T10:28:47.000Z</time>
      </trkpt>
      <trkpt lat="44.81024" lon="0.82329">
        <ele>208.6</ele>
        <time>2026-05-02T10:28:48.000Z</time>
      </trkpt>
      <trkpt lat="44.81024" lon="0.82329">
        <ele>208.6</ele>
        <time>2026-05-02T10:28:49.000Z</time>
      </trkpt>
      <trkpt lat="44.81024" lon="0.82329">
        <ele>208.6</ele>
        <time>2026-05-02T10:28:50.000Z</time>
      </trkpt>
      <trkpt lat="44.81024" lon="0.82329">
        <ele>208.6</ele>
        <time>2026-05-02T10:28:51.000Z</time>
      </trkpt>
      <trkpt lat="44.81024" lon="0.82329">
        <ele>208.6</ele>
        <time>2026-05-02T10:28:52.000Z</time>
      </trkpt>
      <trkpt lat="44.81024" lon="0.82329">
        <ele>208.6</ele>
        <time>2026-05-02T10:28:53.000Z</time>
      </trkpt>
      <trkpt lat="44.81024" lon="0.82329">
        <ele>208.5</ele>
        <time>2026-05-02T10:28:54.000Z</time>
      </trkpt>
      <trkpt lat="44.81024" lon="0.82329">
        <ele>208.7</ele>
        <time>2026-05-02T10:28:55.000Z</time>
      </trkpt>
      <trkpt lat="44.81024" lon="0.8233">
        <ele>208.6</ele>
        <time>2026-05-02T10:28:56.000Z</time>
      </trkpt>
      <trkpt lat="44.81023" lon="0.82331">
        <ele>208.4</ele>
        <time>2026-05-02T10:28:57.000Z</time>
      </trkpt>
      <trkpt lat="44.81023" lon="0.82333">
        <ele>208.3</ele>
        <time>2026-05-02T10:28:58.000Z</time>
      </trkpt>
      <trkpt lat="44.81022" lon="0.82334">
        <ele>208.1</ele>
        <time>2026-05-02T10:28:59.000Z</time>
      </trkpt>
      <trkpt lat="44.81022" lon="0.82336">
        <ele>208.3</ele>
        <time>2026-05-02T10:29:00.000Z</time>
      </trkpt>
      <trkpt lat="44.81021" lon="0.82338">
        <ele>208.2</ele>
        <time>2026-05-02T10:29:01.000Z</time>
      </trkpt>
      <trkpt lat="44.81021" lon="0.8234">
        <ele>208</ele>
        <time>2026-05-02T10:29:02.000Z</time>
      </trkpt>
      <trkpt lat="44.8102" lon="0.82342">
        <ele>208</ele>
        <time>2026-05-02T10:29:03.000Z</time>
      </trkpt>
      <trkpt lat="44.8102" lon="0.82344">
        <ele>207.8</ele>
        <time>2026-05-02T10:29:04.000Z</time>
      </trkpt>
      <trkpt lat="44.81019" lon="0.82345">
        <ele>207.7</ele>
        <time>2026-05-02T10:29:05.000Z</time>
      </trkpt>
      <trkpt lat="44.81019" lon="0.82347">
        <ele>209</ele>
        <time>2026-05-02T10:29:06.000Z</time>
      </trkpt>
      <trkpt lat="44.81019" lon="0.82348">
        <ele>209</ele>
        <time>2026-05-02T10:29:07.000Z</time>
      </trkpt>
      <trkpt lat="44.81018" lon="0.82349">
        <ele>209</ele>
        <time>2026-05-02T10:29:08.000Z</time>
      </trkpt>
      <trkpt lat="44.81018" lon="0.82349">
        <ele>209</ele>
        <time>2026-05-02T10:29:09.000Z</time>
      </trkpt>
      <trkpt lat="44.81018" lon="0.82349">
        <ele>209.2</ele>
        <time>2026-05-02T10:29:10.000Z</time>
      </trkpt>
      <trkpt lat="44.81018" lon="0.82348">
        <ele>209.2</ele>
        <time>2026-05-02T10:29:11.000Z</time>
      </trkpt>
      <trkpt lat="44.81018" lon="0.82348">
        <ele>209.2</ele>
        <time>2026-05-02T10:29:12.000Z</time>
      </trkpt>
      <trkpt lat="44.81018" lon="0.82348">
        <ele>209.2</ele>
        <time>2026-05-02T10:29:13.000Z</time>
      </trkpt>
      <trkpt lat="44.81018" lon="0.82348">
        <ele>209.2</ele>
        <time>2026-05-02T10:29:14.000Z</time>
      </trkpt>
      <trkpt lat="44.81018" lon="0.82348">
        <ele>209.2</ele>
        <time>2026-05-02T10:29:15.000Z</time>
      </trkpt>
      <trkpt lat="44.81018" lon="0.82348">
        <ele>209.2</ele>
        <time>2026-05-02T10:29:16.000Z</time>
      </trkpt>
      <trkpt lat="44.81018" lon="0.82348">
        <ele>209.2</ele>
        <time>2026-05-02T10:29:17.000Z</time>
      </trkpt>
      <trkpt lat="44.81018" lon="0.82348">
        <ele>209.2</ele>
        <time>2026-05-02T10:29:18.000Z</time>
      </trkpt>
      <trkpt lat="44.81018" lon="0.82348">
        <ele>209.2</ele>
        <time>2026-05-02T10:29:19.000Z</time>
      </trkpt>
      <trkpt lat="44.81018" lon="0.8235">
        <ele>210.5</ele>
        <time>2026-05-02T10:29:20.000Z</time>
      </trkpt>
      <trkpt lat="44.81017" lon="0.8235">
        <ele>210.5</ele>
        <time>2026-05-02T10:29:21.000Z</time>
      </trkpt>
      <trkpt lat="44.81018" lon="0.8235">
        <ele>210.5</ele>
        <time>2026-05-02T10:29:22.000Z</time>
      </trkpt>
      <trkpt lat="44.81018" lon="0.8235">
        <ele>210.5</ele>
        <time>2026-05-02T10:29:23.000Z</time>
      </trkpt>
      <trkpt lat="44.81018" lon="0.8235">
        <ele>210.5</ele>
        <time>2026-05-02T10:29:24.000Z</time>
      </trkpt>
      <trkpt lat="44.81017" lon="0.8235">
        <ele>210.6</ele>
        <time>2026-05-02T10:29:25.000Z</time>
      </trkpt>
      <trkpt lat="44.81017" lon="0.82351">
        <ele>210.5</ele>
        <time>2026-05-02T10:29:26.000Z</time>
      </trkpt>
      <trkpt lat="44.81016" lon="0.82351">
        <ele>209.7</ele>
        <time>2026-05-02T10:29:27.000Z</time>
      </trkpt>
      <trkpt lat="44.81016" lon="0.82352">
        <ele>209.5</ele>
        <time>2026-05-02T10:29:28.000Z</time>
      </trkpt>
      <trkpt lat="44.81016" lon="0.82351">
        <ele>209.5</ele>
        <time>2026-05-02T10:29:29.000Z</time>
      </trkpt>
      <trkpt lat="44.81016" lon="0.82352">
        <ele>209.2</ele>
        <time>2026-05-02T10:29:30.000Z</time>
      </trkpt>
      <trkpt lat="44.81016" lon="0.82354">
        <ele>209.2</ele>
        <time>2026-05-02T10:29:31.000Z</time>
      </trkpt>
      <trkpt lat="44.81015" lon="0.82356">
        <ele>209.1</ele>
        <time>2026-05-02T10:29:32.000Z</time>
      </trkpt>
      <trkpt lat="44.81015" lon="0.82357">
        <ele>209</ele>
        <time>2026-05-02T10:29:33.000Z</time>
      </trkpt>
      <trkpt lat="44.81014" lon="0.82359">
        <ele>208.7</ele>
        <time>2026-05-02T10:29:34.000Z</time>
      </trkpt>
      <trkpt lat="44.81014" lon="0.8236">
        <ele>208.5</ele>
        <time>2026-05-02T10:29:35.000Z</time>
      </trkpt>
      <trkpt lat="44.81013" lon="0.82362">
        <ele>208.2</ele>
        <time>2026-05-02T10:29:36.000Z</time>
      </trkpt>
      <trkpt lat="44.81013" lon="0.82364">
        <ele>207.5</ele>
        <time>2026-05-02T10:29:37.000Z</time>
      </trkpt>
      <trkpt lat="44.81012" lon="0.82365">
        <ele>207.4</ele>
        <time>2026-05-02T10:29:38.000Z</time>
      </trkpt>
      <trkpt lat="44.81011" lon="0.82366">
        <ele>207.2</ele>
        <time>2026-05-02T10:29:39.000Z</time>
      </trkpt>
      <trkpt lat="44.81011" lon="0.82368">
        <ele>207.1</ele>
        <time>2026-05-02T10:29:40.000Z</time>
      </trkpt>
      <trkpt lat="44.8101" lon="0.8237">
        <ele>207</ele>
        <time>2026-05-02T10:29:41.000Z</time>
      </trkpt>
      <trkpt lat="44.8101" lon="0.82372">
        <ele>206.3</ele>
        <time>2026-05-02T10:29:42.000Z</time>
      </trkpt>
      <trkpt lat="44.81009" lon="0.82374">
        <ele>205.7</ele>
        <time>2026-05-02T10:29:43.000Z</time>
      </trkpt>
      <trkpt lat="44.81008" lon="0.82376">
        <ele>206</ele>
        <time>2026-05-02T10:29:44.000Z</time>
      </trkpt>
      <trkpt lat="44.81007" lon="0.82378">
        <ele>205.7</ele>
        <time>2026-05-02T10:29:45.000Z</time>
      </trkpt>
      <trkpt lat="44.81006" lon="0.8238">
        <ele>205.8</ele>
        <time>2026-05-02T10:29:46.000Z</time>
      </trkpt>
      <trkpt lat="44.81006" lon="0.82382">
        <ele>205.6</ele>
        <time>2026-05-02T10:29:47.000Z</time>
      </trkpt>
      <trkpt lat="44.81006" lon="0.82384">
        <ele>205.9</ele>
        <time>2026-05-02T10:29:48.000Z</time>
      </trkpt>
      <trkpt lat="44.81006" lon="0.82386">
        <ele>205.2</ele>
        <time>2026-05-02T10:29:49.000Z</time>
      </trkpt>
      <trkpt lat="44.81006" lon="0.82388">
        <ele>204.5</ele>
        <time>2026-05-02T10:29:50.000Z</time>
      </trkpt>
      <trkpt lat="44.81005" lon="0.8239">
        <ele>203.9</ele>
        <time>2026-05-02T10:29:51.000Z</time>
      </trkpt>
      <trkpt lat="44.81005" lon="0.82391">
        <ele>203.7</ele>
        <time>2026-05-02T10:29:52.000Z</time>
      </trkpt>
      <trkpt lat="44.81005" lon="0.82393">
        <ele>203.5</ele>
        <time>2026-05-02T10:29:53.000Z</time>
      </trkpt>
      <trkpt lat="44.81005" lon="0.82395">
        <ele>203.4</ele>
        <time>2026-05-02T10:29:54.000Z</time>
      </trkpt>
      <trkpt lat="44.81004" lon="0.82397">
        <ele>203.4</ele>
        <time>2026-05-02T10:29:55.000Z</time>
      </trkpt>
      <trkpt lat="44.81003" lon="0.82398">
        <ele>203.1</ele>
        <time>2026-05-02T10:29:56.000Z</time>
      </trkpt>
      <trkpt lat="44.81003" lon="0.824">
        <ele>202.6</ele>
        <time>2026-05-02T10:29:57.000Z</time>
      </trkpt>
      <trkpt lat="44.81002" lon="0.82402">
        <ele>202.1</ele>
        <time>2026-05-02T10:29:58.000Z</time>
      </trkpt>
      <trkpt lat="44.81002" lon="0.82404">
        <ele>201.6</ele>
        <time>2026-05-02T10:29:59.000Z</time>
      </trkpt>
      <trkpt lat="44.81001" lon="0.82406">
        <ele>201.6</ele>
        <time>2026-05-02T10:30:00.000Z</time>
      </trkpt>
      <trkpt lat="44.81001" lon="0.82408">
        <ele>201.5</ele>
        <time>2026-05-02T10:30:01.000Z</time>
      </trkpt>
      <trkpt lat="44.81" lon="0.8241">
        <ele>201.3</ele>
        <time>2026-05-02T10:30:02.000Z</time>
      </trkpt>
      <trkpt lat="44.81" lon="0.82412">
        <ele>201.7</ele>
        <time>2026-05-02T10:30:03.000Z</time>
      </trkpt>
      <trkpt lat="44.81" lon="0.82414">
        <ele>201.7</ele>
        <time>2026-05-02T10:30:04.000Z</time>
      </trkpt>
      <trkpt lat="44.80999" lon="0.82415">
        <ele>201.4</ele>
        <time>2026-05-02T10:30:05.000Z</time>
      </trkpt>
      <trkpt lat="44.80999" lon="0.82417">
        <ele>201.8</ele>
        <time>2026-05-02T10:30:06.000Z</time>
      </trkpt>
      <trkpt lat="44.80998" lon="0.8242">
        <ele>202.7</ele>
        <time>2026-05-02T10:30:07.000Z</time>
      </trkpt>
      <trkpt lat="44.80997" lon="0.82422">
        <ele>202.5</ele>
        <time>2026-05-02T10:30:08.000Z</time>
      </trkpt>
      <trkpt lat="44.80996" lon="0.82424">
        <ele>202</ele>
        <time>2026-05-02T10:30:09.000Z</time>
      </trkpt>
      <trkpt lat="44.80996" lon="0.82425">
        <ele>201.6</ele>
        <time>2026-05-02T10:30:10.000Z</time>
      </trkpt>
      <trkpt lat="44.80995" lon="0.82427">
        <ele>201.5</ele>
        <time>2026-05-02T10:30:11.000Z</time>
      </trkpt>
      <trkpt lat="44.80995" lon="0.82429">
        <ele>201.5</ele>
        <time>2026-05-02T10:30:12.000Z</time>
      </trkpt>
      <trkpt lat="44.80994" lon="0.82431">
        <ele>201.2</ele>
        <time>2026-05-02T10:30:13.000Z</time>
      </trkpt>
      <trkpt lat="44.80994" lon="0.82432">
        <ele>200.8</ele>
        <time>2026-05-02T10:30:14.000Z</time>
      </trkpt>
      <trkpt lat="44.80993" lon="0.82434">
        <ele>200.3</ele>
        <time>2026-05-02T10:30:15.000Z</time>
      </trkpt>
      <trkpt lat="44.80992" lon="0.82436">
        <ele>200.9</ele>
        <time>2026-05-02T10:30:16.000Z</time>
      </trkpt>
      <trkpt lat="44.80991" lon="0.82438">
        <ele>200.9</ele>
        <time>2026-05-02T10:30:17.000Z</time>
      </trkpt>
      <trkpt lat="44.80991" lon="0.8244">
        <ele>200.4</ele>
        <time>2026-05-02T10:30:18.000Z</time>
      </trkpt>
      <trkpt lat="44.8099" lon="0.82441">
        <ele>200.3</ele>
        <time>2026-05-02T10:30:19.000Z</time>
      </trkpt>
      <trkpt lat="44.8099" lon="0.82443">
        <ele>200.2</ele>
        <time>2026-05-02T10:30:20.000Z</time>
      </trkpt>
      <trkpt lat="44.80989" lon="0.82445">
        <ele>200.1</ele>
        <time>2026-05-02T10:30:21.000Z</time>
      </trkpt>
      <trkpt lat="44.80988" lon="0.82446">
        <ele>200</ele>
        <time>2026-05-02T10:30:22.000Z</time>
      </trkpt>
      <trkpt lat="44.80987" lon="0.82448">
        <ele>199.7</ele>
        <time>2026-05-02T10:30:23.000Z</time>
      </trkpt>
      <trkpt lat="44.80986" lon="0.8245">
        <ele>200.2</ele>
        <time>2026-05-02T10:30:24.000Z</time>
      </trkpt>
      <trkpt lat="44.80985" lon="0.82452">
        <ele>200.7</ele>
        <time>2026-05-02T10:30:25.000Z</time>
      </trkpt>
      <trkpt lat="44.80985" lon="0.82454">
        <ele>200.8</ele>
        <time>2026-05-02T10:30:26.000Z</time>
      </trkpt>
      <trkpt lat="44.80984" lon="0.82456">
        <ele>200.7</ele>
        <time>2026-05-02T10:30:27.000Z</time>
      </trkpt>
      <trkpt lat="44.80984" lon="0.82457">
        <ele>200.5</ele>
        <time>2026-05-02T10:30:28.000Z</time>
      </trkpt>
      <trkpt lat="44.80983" lon="0.82459">
        <ele>200</ele>
        <time>2026-05-02T10:30:29.000Z</time>
      </trkpt>
      <trkpt lat="44.80983" lon="0.82461">
        <ele>199.6</ele>
        <time>2026-05-02T10:30:30.000Z</time>
      </trkpt>
      <trkpt lat="44.80982" lon="0.82462">
        <ele>199</ele>
        <time>2026-05-02T10:30:31.000Z</time>
      </trkpt>
      <trkpt lat="44.80982" lon="0.82464">
        <ele>199</ele>
        <time>2026-05-02T10:30:32.000Z</time>
      </trkpt>
      <trkpt lat="44.80981" lon="0.82466">
        <ele>198.2</ele>
        <time>2026-05-02T10:30:33.000Z</time>
      </trkpt>
      <trkpt lat="44.80981" lon="0.82468">
        <ele>197.6</ele>
        <time>2026-05-02T10:30:34.000Z</time>
      </trkpt>
      <trkpt lat="44.8098" lon="0.8247">
        <ele>197.5</ele>
        <time>2026-05-02T10:30:35.000Z</time>
      </trkpt>
      <trkpt lat="44.8098" lon="0.82471">
        <ele>197</ele>
        <time>2026-05-02T10:30:36.000Z</time>
      </trkpt>
      <trkpt lat="44.80979" lon="0.82473">
        <ele>196.1</ele>
        <time>2026-05-02T10:30:37.000Z</time>
      </trkpt>
      <trkpt lat="44.80978" lon="0.82475">
        <ele>195.7</ele>
        <time>2026-05-02T10:30:38.000Z</time>
      </trkpt>
      <trkpt lat="44.80977" lon="0.82477">
        <ele>194.7</ele>
        <time>2026-05-02T10:30:39.000Z</time>
      </trkpt>
      <trkpt lat="44.80976" lon="0.82479">
        <ele>194.9</ele>
        <time>2026-05-02T10:30:40.000Z</time>
      </trkpt>
      <trkpt lat="44.80976" lon="0.82481">
        <ele>194.7</ele>
        <time>2026-05-02T10:30:41.000Z</time>
      </trkpt>
      <trkpt lat="44.80975" lon="0.82483">
        <ele>194.7</ele>
        <time>2026-05-02T10:30:42.000Z</time>
      </trkpt>
      <trkpt lat="44.80975" lon="0.82485">
        <ele>194.8</ele>
        <time>2026-05-02T10:30:43.000Z</time>
      </trkpt>
      <trkpt lat="44.80974" lon="0.82487">
        <ele>194.5</ele>
        <time>2026-05-02T10:30:44.000Z</time>
      </trkpt>
      <trkpt lat="44.80973" lon="0.82488">
        <ele>194.3</ele>
        <time>2026-05-02T10:30:45.000Z</time>
      </trkpt>
      <trkpt lat="44.80972" lon="0.8249">
        <ele>193.9</ele>
        <time>2026-05-02T10:30:46.000Z</time>
      </trkpt>
      <trkpt lat="44.80972" lon="0.82492">
        <ele>193.9</ele>
        <time>2026-05-02T10:30:47.000Z</time>
      </trkpt>
      <trkpt lat="44.80971" lon="0.82494">
        <ele>192.9</ele>
        <time>2026-05-02T10:30:48.000Z</time>
      </trkpt>
      <trkpt lat="44.8097" lon="0.82495">
        <ele>193.3</ele>
        <time>2026-05-02T10:30:49.000Z</time>
      </trkpt>
      <trkpt lat="44.80969" lon="0.82497">
        <ele>193.2</ele>
        <time>2026-05-02T10:30:50.000Z</time>
      </trkpt>
      <trkpt lat="44.80967" lon="0.82498">
        <ele>193.7</ele>
        <time>2026-05-02T10:30:51.000Z</time>
      </trkpt>
      <trkpt lat="44.80966" lon="0.82498">
        <ele>194.3</ele>
        <time>2026-05-02T10:30:52.000Z</time>
      </trkpt>
      <trkpt lat="44.80966" lon="0.82497">
        <ele>193</ele>
        <time>2026-05-02T10:30:53.000Z</time>
      </trkpt>
      <trkpt lat="44.80965" lon="0.82497">
        <ele>192.9</ele>
        <time>2026-05-02T10:30:54.000Z</time>
      </trkpt>
      <trkpt lat="44.80965" lon="0.82497">
        <ele>192.8</ele>
        <time>2026-05-02T10:30:55.000Z</time>
      </trkpt>
      <trkpt lat="44.80965" lon="0.82497">
        <ele>192.9</ele>
        <time>2026-05-02T10:30:56.000Z</time>
      </trkpt>
      <trkpt lat="44.80964" lon="0.82497">
        <ele>192.6</ele>
        <time>2026-05-02T10:30:57.000Z</time>
      </trkpt>
      <trkpt lat="44.80963" lon="0.82496">
        <ele>192.7</ele>
        <time>2026-05-02T10:30:58.000Z</time>
      </trkpt>
      <trkpt lat="44.80962" lon="0.82496">
        <ele>192.3</ele>
        <time>2026-05-02T10:30:59.000Z</time>
      </trkpt>
      <trkpt lat="44.8096" lon="0.82495">
        <ele>192.3</ele>
        <time>2026-05-02T10:31:00.000Z</time>
      </trkpt>
      <trkpt lat="44.80958" lon="0.82495">
        <ele>191.5</ele>
        <time>2026-05-02T10:31:01.000Z</time>
      </trkpt>
      <trkpt lat="44.80958" lon="0.82497">
        <ele>190.8</ele>
        <time>2026-05-02T10:31:02.000Z</time>
      </trkpt>
      <trkpt lat="44.80956" lon="0.82495">
        <ele>190.8</ele>
        <time>2026-05-02T10:31:03.000Z</time>
      </trkpt>
      <trkpt lat="44.80955" lon="0.82493">
        <ele>190.3</ele>
        <time>2026-05-02T10:31:04.000Z</time>
      </trkpt>
      <trkpt lat="44.80953" lon="0.82491">
        <ele>190.5</ele>
        <time>2026-05-02T10:31:05.000Z</time>
      </trkpt>
      <trkpt lat="44.80952" lon="0.8249">
        <ele>191</ele>
        <time>2026-05-02T10:31:06.000Z</time>
      </trkpt>
      <trkpt lat="44.8095" lon="0.82489">
        <ele>190.5</ele>
        <time>2026-05-02T10:31:07.000Z</time>
      </trkpt>
      <trkpt lat="44.80949" lon="0.82488">
        <ele>191.2</ele>
        <time>2026-05-02T10:31:08.000Z</time>
      </trkpt>
      <trkpt lat="44.80948" lon="0.82486">
        <ele>191.8</ele>
        <time>2026-05-02T10:31:09.000Z</time>
      </trkpt>
      <trkpt lat="44.80947" lon="0.82485">
        <ele>191.6</ele>
        <time>2026-05-02T10:31:10.000Z</time>
      </trkpt>
      <trkpt lat="44.80945" lon="0.82484">
        <ele>191.7</ele>
        <time>2026-05-02T10:31:11.000Z</time>
      </trkpt>
      <trkpt lat="44.80944" lon="0.82483">
        <ele>192.3</ele>
        <time>2026-05-02T10:31:12.000Z</time>
      </trkpt>
      <trkpt lat="44.80942" lon="0.82481">
        <ele>192.9</ele>
        <time>2026-05-02T10:31:13.000Z</time>
      </trkpt>
      <trkpt lat="44.80941" lon="0.8248">
        <ele>193</ele>
        <time>2026-05-02T10:31:14.000Z</time>
      </trkpt>
      <trkpt lat="44.8094" lon="0.82479">
        <ele>193.5</ele>
        <time>2026-05-02T10:31:15.000Z</time>
      </trkpt>
      <trkpt lat="44.80938" lon="0.82477">
        <ele>193.6</ele>
        <time>2026-05-02T10:31:16.000Z</time>
      </trkpt>
      <trkpt lat="44.80937" lon="0.82475">
        <ele>193.9</ele>
        <time>2026-05-02T10:31:17.000Z</time>
      </trkpt>
      <trkpt lat="44.80935" lon="0.82474">
        <ele>193.7</ele>
        <time>2026-05-02T10:31:18.000Z</time>
      </trkpt>
      <trkpt lat="44.80933" lon="0.82473">
        <ele>193.3</ele>
        <time>2026-05-02T10:31:19.000Z</time>
      </trkpt>
      <trkpt lat="44.80932" lon="0.82471">
        <ele>193.3</ele>
        <time>2026-05-02T10:31:20.000Z</time>
      </trkpt>
      <trkpt lat="44.8093" lon="0.8247">
        <ele>193.6</ele>
        <time>2026-05-02T10:31:21.000Z</time>
      </trkpt>
      <trkpt lat="44.80929" lon="0.82469">
        <ele>194</ele>
        <time>2026-05-02T10:31:22.000Z</time>
      </trkpt>
      <trkpt lat="44.80927" lon="0.82468">
        <ele>194.1</ele>
        <time>2026-05-02T10:31:23.000Z</time>
      </trkpt>
      <trkpt lat="44.80926" lon="0.82466">
        <ele>194.1</ele>
        <time>2026-05-02T10:31:24.000Z</time>
      </trkpt>
      <trkpt lat="44.80925" lon="0.82465">
        <ele>194.6</ele>
        <time>2026-05-02T10:31:25.000Z</time>
      </trkpt>
      <trkpt lat="44.80923" lon="0.82464">
        <ele>194.8</ele>
        <time>2026-05-02T10:31:26.000Z</time>
      </trkpt>
      <trkpt lat="44.80922" lon="0.82462">
        <ele>195.5</ele>
        <time>2026-05-02T10:31:27.000Z</time>
      </trkpt>
      <trkpt lat="44.8092" lon="0.8246">
        <ele>195.8</ele>
        <time>2026-05-02T10:31:28.000Z</time>
      </trkpt>
      <trkpt lat="44.80919" lon="0.82459">
        <ele>196.1</ele>
        <time>2026-05-02T10:31:29.000Z</time>
      </trkpt>
      <trkpt lat="44.80918" lon="0.82458">
        <ele>196.1</ele>
        <time>2026-05-02T10:31:30.000Z</time>
      </trkpt>
      <trkpt lat="44.80916" lon="0.82457">
        <ele>196.4</ele>
        <time>2026-05-02T10:31:31.000Z</time>
      </trkpt>
      <trkpt lat="44.80915" lon="0.82456">
        <ele>196.4</ele>
        <time>2026-05-02T10:31:32.000Z</time>
      </trkpt>
      <trkpt lat="44.80914" lon="0.82455">
        <ele>195.4</ele>
        <time>2026-05-02T10:31:33.000Z</time>
      </trkpt>
      <trkpt lat="44.80913" lon="0.82454">
        <ele>195.8</ele>
        <time>2026-05-02T10:31:34.000Z</time>
      </trkpt>
      <trkpt lat="44.80911" lon="0.82453">
        <ele>195.7</ele>
        <time>2026-05-02T10:31:35.000Z</time>
      </trkpt>
      <trkpt lat="44.8091" lon="0.82451">
        <ele>196.2</ele>
        <time>2026-05-02T10:31:36.000Z</time>
      </trkpt>
      <trkpt lat="44.80909" lon="0.8245">
        <ele>196.2</ele>
        <time>2026-05-02T10:31:37.000Z</time>
      </trkpt>
      <trkpt lat="44.80907" lon="0.82449">
        <ele>196.1</ele>
        <time>2026-05-02T10:31:38.000Z</time>
      </trkpt>
      <trkpt lat="44.80906" lon="0.82448">
        <ele>196.4</ele>
        <time>2026-05-02T10:31:39.000Z</time>
      </trkpt>
      <trkpt lat="44.80905" lon="0.82446">
        <ele>196.3</ele>
        <time>2026-05-02T10:31:40.000Z</time>
      </trkpt>
      <trkpt lat="44.80903" lon="0.82445">
        <ele>196.5</ele>
        <time>2026-05-02T10:31:41.000Z</time>
      </trkpt>
      <trkpt lat="44.80902" lon="0.82444">
        <ele>196.6</ele>
        <time>2026-05-02T10:31:42.000Z</time>
      </trkpt>
      <trkpt lat="44.80901" lon="0.82442">
        <ele>196.4</ele>
        <time>2026-05-02T10:31:43.000Z</time>
      </trkpt>
      <trkpt lat="44.80899" lon="0.82441">
        <ele>196.7</ele>
        <time>2026-05-02T10:31:44.000Z</time>
      </trkpt>
      <trkpt lat="44.80898" lon="0.82441">
        <ele>196.8</ele>
        <time>2026-05-02T10:31:45.000Z</time>
      </trkpt>
      <trkpt lat="44.80896" lon="0.82441">
        <ele>196.9</ele>
        <time>2026-05-02T10:31:46.000Z</time>
      </trkpt>
      <trkpt lat="44.80895" lon="0.8244">
        <ele>197.1</ele>
        <time>2026-05-02T10:31:47.000Z</time>
      </trkpt>
      <trkpt lat="44.80893" lon="0.82438">
        <ele>196.6</ele>
        <time>2026-05-02T10:31:48.000Z</time>
      </trkpt>
      <trkpt lat="44.80892" lon="0.82437">
        <ele>196.8</ele>
        <time>2026-05-02T10:31:49.000Z</time>
      </trkpt>
      <trkpt lat="44.8089" lon="0.82436">
        <ele>196.9</ele>
        <time>2026-05-02T10:31:50.000Z</time>
      </trkpt>
      <trkpt lat="44.80887" lon="0.82435">
        <ele>197.1</ele>
        <time>2026-05-02T10:31:51.000Z</time>
      </trkpt>
      <trkpt lat="44.80885" lon="0.82434">
        <ele>196.7</ele>
        <time>2026-05-02T10:31:52.000Z</time>
      </trkpt>
      <trkpt lat="44.80882" lon="0.82434">
        <ele>197</ele>
        <time>2026-05-02T10:31:53.000Z</time>
      </trkpt>
      <trkpt lat="44.8088" lon="0.82433">
        <ele>195.4</ele>
        <time>2026-05-02T10:31:54.000Z</time>
      </trkpt>
      <trkpt lat="44.80878" lon="0.82432">
        <ele>196.8</ele>
        <time>2026-05-02T10:31:55.000Z</time>
      </trkpt>
      <trkpt lat="44.80876" lon="0.82431">
        <ele>197</ele>
        <time>2026-05-02T10:31:56.000Z</time>
      </trkpt>
      <trkpt lat="44.80874" lon="0.82429">
        <ele>197</ele>
        <time>2026-05-02T10:31:57.000Z</time>
      </trkpt>
      <trkpt lat="44.80873" lon="0.82428">
        <ele>197.3</ele>
        <time>2026-05-02T10:31:58.000Z</time>
      </trkpt>
      <trkpt lat="44.80871" lon="0.82427">
        <ele>197.5</ele>
        <time>2026-05-02T10:31:59.000Z</time>
      </trkpt>
      <trkpt lat="44.80869" lon="0.82426">
        <ele>197.8</ele>
        <time>2026-05-02T10:32:00.000Z</time>
      </trkpt>
      <trkpt lat="44.80867" lon="0.82424">
        <ele>198.6</ele>
        <time>2026-05-02T10:32:01.000Z</time>
      </trkpt>
      <trkpt lat="44.80866" lon="0.82423">
        <ele>198.8</ele>
        <time>2026-05-02T10:32:02.000Z</time>
      </trkpt>
      <trkpt lat="44.80868" lon="0.82421">
        <ele>200.2</ele>
        <time>2026-05-02T10:32:03.000Z</time>
      </trkpt>
      <trkpt lat="44.80866" lon="0.8242">
        <ele>200.9</ele>
        <time>2026-05-02T10:32:04.000Z</time>
      </trkpt>
      <trkpt lat="44.80865" lon="0.82418">
        <ele>200.8</ele>
        <time>2026-05-02T10:32:05.000Z</time>
      </trkpt>
      <trkpt lat="44.80864" lon="0.82417">
        <ele>199.5</ele>
        <time>2026-05-02T10:32:06.000Z</time>
      </trkpt>
      <trkpt lat="44.80862" lon="0.82416">
        <ele>198.5</ele>
        <time>2026-05-02T10:32:07.000Z</time>
      </trkpt>
      <trkpt lat="44.80861" lon="0.82414">
        <ele>199.2</ele>
        <time>2026-05-02T10:32:08.000Z</time>
      </trkpt>
      <trkpt lat="44.80859" lon="0.82413">
        <ele>198.9</ele>
        <time>2026-05-02T10:32:09.000Z</time>
      </trkpt>
      <trkpt lat="44.80858" lon="0.82413">
        <ele>199.6</ele>
        <time>2026-05-02T10:32:10.000Z</time>
      </trkpt>
      <trkpt lat="44.80857" lon="0.82413">
        <ele>198.4</ele>
        <time>2026-05-02T10:32:11.000Z</time>
      </trkpt>
      <trkpt lat="44.80855" lon="0.82413">
        <ele>198.7</ele>
        <time>2026-05-02T10:32:12.000Z</time>
      </trkpt>
      <trkpt lat="44.80854" lon="0.82413">
        <ele>198.7</ele>
        <time>2026-05-02T10:32:13.000Z</time>
      </trkpt>
      <trkpt lat="44.80853" lon="0.82412">
        <ele>199</ele>
        <time>2026-05-02T10:32:14.000Z</time>
      </trkpt>
      <trkpt lat="44.80852" lon="0.8241">
        <ele>200</ele>
        <time>2026-05-02T10:32:15.000Z</time>
      </trkpt>
      <trkpt lat="44.80851" lon="0.82409">
        <ele>200.5</ele>
        <time>2026-05-02T10:32:16.000Z</time>
      </trkpt>
      <trkpt lat="44.8085" lon="0.82408">
        <ele>200.5</ele>
        <time>2026-05-02T10:32:17.000Z</time>
      </trkpt>
      <trkpt lat="44.80849" lon="0.82407">
        <ele>201.2</ele>
        <time>2026-05-02T10:32:18.000Z</time>
      </trkpt>
      <trkpt lat="44.80848" lon="0.82406">
        <ele>202.3</ele>
        <time>2026-05-02T10:32:19.000Z</time>
      </trkpt>
      <trkpt lat="44.80846" lon="0.82405">
        <ele>201.8</ele>
        <time>2026-05-02T10:32:20.000Z</time>
      </trkpt>
      <trkpt lat="44.80845" lon="0.82404">
        <ele>201.6</ele>
        <time>2026-05-02T10:32:21.000Z</time>
      </trkpt>
      <trkpt lat="44.80843" lon="0.82402">
        <ele>200.6</ele>
        <time>2026-05-02T10:32:22.000Z</time>
      </trkpt>
      <trkpt lat="44.80842" lon="0.824">
        <ele>200.2</ele>
        <time>2026-05-02T10:32:23.000Z</time>
      </trkpt>
      <trkpt lat="44.8084" lon="0.824">
        <ele>200.6</ele>
        <time>2026-05-02T10:32:24.000Z</time>
      </trkpt>
      <trkpt lat="44.80839" lon="0.82399">
        <ele>200.4</ele>
        <time>2026-05-02T10:32:25.000Z</time>
      </trkpt>
      <trkpt lat="44.80838" lon="0.82398">
        <ele>200.7</ele>
        <time>2026-05-02T10:32:26.000Z</time>
      </trkpt>
      <trkpt lat="44.80836" lon="0.82399">
        <ele>200.2</ele>
        <time>2026-05-02T10:32:27.000Z</time>
      </trkpt>
      <trkpt lat="44.80835" lon="0.82399">
        <ele>200.2</ele>
        <time>2026-05-02T10:32:28.000Z</time>
      </trkpt>
      <trkpt lat="44.80834" lon="0.824">
        <ele>200.2</ele>
        <time>2026-05-02T10:32:29.000Z</time>
      </trkpt>
      <trkpt lat="44.80833" lon="0.82401">
        <ele>200.3</ele>
        <time>2026-05-02T10:32:30.000Z</time>
      </trkpt>
      <trkpt lat="44.80832" lon="0.82401">
        <ele>200.5</ele>
        <time>2026-05-02T10:32:31.000Z</time>
      </trkpt>
      <trkpt lat="44.80831" lon="0.82401">
        <ele>200.7</ele>
        <time>2026-05-02T10:32:32.000Z</time>
      </trkpt>
      <trkpt lat="44.8083" lon="0.82403">
        <ele>200.3</ele>
        <time>2026-05-02T10:32:33.000Z</time>
      </trkpt>
      <trkpt lat="44.8083" lon="0.82403">
        <ele>200.1</ele>
        <time>2026-05-02T10:32:34.000Z</time>
      </trkpt>
      <trkpt lat="44.8083" lon="0.82405">
        <ele>200.3</ele>
        <time>2026-05-02T10:32:35.000Z</time>
      </trkpt>
      <trkpt lat="44.80828" lon="0.82406">
        <ele>200</ele>
        <time>2026-05-02T10:32:36.000Z</time>
      </trkpt>
      <trkpt lat="44.80826" lon="0.82408">
        <ele>199.8</ele>
        <time>2026-05-02T10:32:37.000Z</time>
      </trkpt>
      <trkpt lat="44.80825" lon="0.8241">
        <ele>200.1</ele>
        <time>2026-05-02T10:32:38.000Z</time>
      </trkpt>
      <trkpt lat="44.80823" lon="0.82412">
        <ele>200</ele>
        <time>2026-05-02T10:32:39.000Z</time>
      </trkpt>
      <trkpt lat="44.80822" lon="0.82414">
        <ele>200</ele>
        <time>2026-05-02T10:32:40.000Z</time>
      </trkpt>
      <trkpt lat="44.80821" lon="0.82416">
        <ele>200.3</ele>
        <time>2026-05-02T10:32:41.000Z</time>
      </trkpt>
      <trkpt lat="44.8082" lon="0.82418">
        <ele>200.4</ele>
        <time>2026-05-02T10:32:42.000Z</time>
      </trkpt>
      <trkpt lat="44.80818" lon="0.8242">
        <ele>200.7</ele>
        <time>2026-05-02T10:32:43.000Z</time>
      </trkpt>
      <trkpt lat="44.80817" lon="0.82423">
        <ele>200.7</ele>
        <time>2026-05-02T10:32:44.000Z</time>
      </trkpt>
      <trkpt lat="44.80816" lon="0.82425">
        <ele>201.8</ele>
        <time>2026-05-02T10:32:45.000Z</time>
      </trkpt>
      <trkpt lat="44.80814" lon="0.82427">
        <ele>202.2</ele>
        <time>2026-05-02T10:32:46.000Z</time>
      </trkpt>
      <trkpt lat="44.80813" lon="0.82429">
        <ele>202.1</ele>
        <time>2026-05-02T10:32:47.000Z</time>
      </trkpt>
      <trkpt lat="44.80812" lon="0.82431">
        <ele>202.1</ele>
        <time>2026-05-02T10:32:48.000Z</time>
      </trkpt>
      <trkpt lat="44.80811" lon="0.82433">
        <ele>202.2</ele>
        <time>2026-05-02T10:32:49.000Z</time>
      </trkpt>
      <trkpt lat="44.8081" lon="0.82435">
        <ele>202</ele>
        <time>2026-05-02T10:32:50.000Z</time>
      </trkpt>
      <trkpt lat="44.80809" lon="0.82437">
        <ele>202.4</ele>
        <time>2026-05-02T10:32:51.000Z</time>
      </trkpt>
      <trkpt lat="44.80808" lon="0.82439">
        <ele>202.5</ele>
        <time>2026-05-02T10:32:52.000Z</time>
      </trkpt>
      <trkpt lat="44.80808" lon="0.82441">
        <ele>202.3</ele>
        <time>2026-05-02T10:32:53.000Z</time>
      </trkpt>
      <trkpt lat="44.80807" lon="0.82443">
        <ele>202.2</ele>
        <time>2026-05-02T10:32:54.000Z</time>
      </trkpt>
      <trkpt lat="44.80806" lon="0.82445">
        <ele>202.3</ele>
        <time>2026-05-02T10:32:55.000Z</time>
      </trkpt>
      <trkpt lat="44.80805" lon="0.82447">
        <ele>202.3</ele>
        <time>2026-05-02T10:32:56.000Z</time>
      </trkpt>
      <trkpt lat="44.80804" lon="0.8245">
        <ele>202.3</ele>
        <time>2026-05-02T10:32:57.000Z</time>
      </trkpt>
      <trkpt lat="44.80802" lon="0.82452">
        <ele>203</ele>
        <time>2026-05-02T10:32:58.000Z</time>
      </trkpt>
      <trkpt lat="44.80801" lon="0.82454">
        <ele>203.6</ele>
        <time>2026-05-02T10:32:59.000Z</time>
      </trkpt>
      <trkpt lat="44.80799" lon="0.82457">
        <ele>203.6</ele>
        <time>2026-05-02T10:33:00.000Z</time>
      </trkpt>
      <trkpt lat="44.80798" lon="0.82459">
        <ele>203.7</ele>
        <time>2026-05-02T10:33:01.000Z</time>
      </trkpt>
      <trkpt lat="44.80797" lon="0.82461">
        <ele>203.7</ele>
        <time>2026-05-02T10:33:02.000Z</time>
      </trkpt>
      <trkpt lat="44.80795" lon="0.82463">
        <ele>203.6</ele>
        <time>2026-05-02T10:33:03.000Z</time>
      </trkpt>
      <trkpt lat="44.80794" lon="0.82465">
        <ele>204.4</ele>
        <time>2026-05-02T10:33:04.000Z</time>
      </trkpt>
      <trkpt lat="44.80793" lon="0.82467">
        <ele>204.7</ele>
        <time>2026-05-02T10:33:05.000Z</time>
      </trkpt>
      <trkpt lat="44.80792" lon="0.82469">
        <ele>205</ele>
        <time>2026-05-02T10:33:06.000Z</time>
      </trkpt>
      <trkpt lat="44.80791" lon="0.82471">
        <ele>205.1</ele>
        <time>2026-05-02T10:33:07.000Z</time>
      </trkpt>
      <trkpt lat="44.8079" lon="0.82472">
        <ele>205</ele>
        <time>2026-05-02T10:33:08.000Z</time>
      </trkpt>
      <trkpt lat="44.80789" lon="0.82474">
        <ele>205.1</ele>
        <time>2026-05-02T10:33:09.000Z</time>
      </trkpt>
      <trkpt lat="44.80789" lon="0.82476">
        <ele>205.2</ele>
        <time>2026-05-02T10:33:10.000Z</time>
      </trkpt>
      <trkpt lat="44.80788" lon="0.82478">
        <ele>205.3</ele>
        <time>2026-05-02T10:33:11.000Z</time>
      </trkpt>
      <trkpt lat="44.80787" lon="0.8248">
        <ele>205.3</ele>
        <time>2026-05-02T10:33:12.000Z</time>
      </trkpt>
      <trkpt lat="44.80787" lon="0.82482">
        <ele>205</ele>
        <time>2026-05-02T10:33:13.000Z</time>
      </trkpt>
      <trkpt lat="44.80786" lon="0.82484">
        <ele>205.2</ele>
        <time>2026-05-02T10:33:14.000Z</time>
      </trkpt>
      <trkpt lat="44.80785" lon="0.82486">
        <ele>205.5</ele>
        <time>2026-05-02T10:33:15.000Z</time>
      </trkpt>
      <trkpt lat="44.80784" lon="0.82488">
        <ele>205.4</ele>
        <time>2026-05-02T10:33:16.000Z</time>
      </trkpt>
      <trkpt lat="44.80783" lon="0.82489">
        <ele>205.5</ele>
        <time>2026-05-02T10:33:17.000Z</time>
      </trkpt>
      <trkpt lat="44.80782" lon="0.82491">
        <ele>205.7</ele>
        <time>2026-05-02T10:33:18.000Z</time>
      </trkpt>
      <trkpt lat="44.80782" lon="0.82493">
        <ele>205.4</ele>
        <time>2026-05-02T10:33:19.000Z</time>
      </trkpt>
      <trkpt lat="44.80781" lon="0.82495">
        <ele>205.2</ele>
        <time>2026-05-02T10:33:20.000Z</time>
      </trkpt>
      <trkpt lat="44.8078" lon="0.82497">
        <ele>205.2</ele>
        <time>2026-05-02T10:33:21.000Z</time>
      </trkpt>
      <trkpt lat="44.80779" lon="0.82498">
        <ele>205.1</ele>
        <time>2026-05-02T10:33:22.000Z</time>
      </trkpt>
      <trkpt lat="44.80778" lon="0.825">
        <ele>205</ele>
        <time>2026-05-02T10:33:23.000Z</time>
      </trkpt>
      <trkpt lat="44.80777" lon="0.82502">
        <ele>205.4</ele>
        <time>2026-05-02T10:33:24.000Z</time>
      </trkpt>
      <trkpt lat="44.80776" lon="0.82504">
        <ele>205.2</ele>
        <time>2026-05-02T10:33:25.000Z</time>
      </trkpt>
      <trkpt lat="44.80775" lon="0.82506">
        <ele>205.4</ele>
        <time>2026-05-02T10:33:26.000Z</time>
      </trkpt>
      <trkpt lat="44.80774" lon="0.82507">
        <ele>205.4</ele>
        <time>2026-05-02T10:33:27.000Z</time>
      </trkpt>
      <trkpt lat="44.80773" lon="0.82509">
        <ele>205.5</ele>
        <time>2026-05-02T10:33:28.000Z</time>
      </trkpt>
      <trkpt lat="44.80772" lon="0.8251">
        <ele>205.4</ele>
        <time>2026-05-02T10:33:29.000Z</time>
      </trkpt>
      <trkpt lat="44.80771" lon="0.82512">
        <ele>205.4</ele>
        <time>2026-05-02T10:33:30.000Z</time>
      </trkpt>
      <trkpt lat="44.80771" lon="0.82514">
        <ele>205</ele>
        <time>2026-05-02T10:33:31.000Z</time>
      </trkpt>
      <trkpt lat="44.8077" lon="0.82515">
        <ele>205</ele>
        <time>2026-05-02T10:33:32.000Z</time>
      </trkpt>
      <trkpt lat="44.80769" lon="0.82516">
        <ele>204.9</ele>
        <time>2026-05-02T10:33:33.000Z</time>
      </trkpt>
      <trkpt lat="44.80768" lon="0.82517">
        <ele>204.3</ele>
        <time>2026-05-02T10:33:34.000Z</time>
      </trkpt>
      <trkpt lat="44.80766" lon="0.82518">
        <ele>203.7</ele>
        <time>2026-05-02T10:33:35.000Z</time>
      </trkpt>
      <trkpt lat="44.80764" lon="0.82517">
        <ele>203.7</ele>
        <time>2026-05-02T10:33:36.000Z</time>
      </trkpt>
      <trkpt lat="44.80763" lon="0.82516">
        <ele>203.7</ele>
        <time>2026-05-02T10:33:37.000Z</time>
      </trkpt>
      <trkpt lat="44.80762" lon="0.82515">
        <ele>204</ele>
        <time>2026-05-02T10:33:38.000Z</time>
      </trkpt>
      <trkpt lat="44.8076" lon="0.82514">
        <ele>204.2</ele>
        <time>2026-05-02T10:33:39.000Z</time>
      </trkpt>
      <trkpt lat="44.80759" lon="0.82513">
        <ele>204.6</ele>
        <time>2026-05-02T10:33:40.000Z</time>
      </trkpt>
      <trkpt lat="44.80757" lon="0.82512">
        <ele>204.1</ele>
        <time>2026-05-02T10:33:41.000Z</time>
      </trkpt>
      <trkpt lat="44.80756" lon="0.82511">
        <ele>204</ele>
        <time>2026-05-02T10:33:42.000Z</time>
      </trkpt>
      <trkpt lat="44.80754" lon="0.8251">
        <ele>204.8</ele>
        <time>2026-05-02T10:33:43.000Z</time>
      </trkpt>
      <trkpt lat="44.80752" lon="0.82509">
        <ele>204.7</ele>
        <time>2026-05-02T10:33:44.000Z</time>
      </trkpt>
      <trkpt lat="44.80751" lon="0.82508">
        <ele>205</ele>
        <time>2026-05-02T10:33:45.000Z</time>
      </trkpt>
      <trkpt lat="44.80749" lon="0.82507">
        <ele>204.6</ele>
        <time>2026-05-02T10:33:46.000Z</time>
      </trkpt>
      <trkpt lat="44.80747" lon="0.82506">
        <ele>204.5</ele>
        <time>2026-05-02T10:33:47.000Z</time>
      </trkpt>
      <trkpt lat="44.80745" lon="0.82505">
        <ele>204.6</ele>
        <time>2026-05-02T10:33:48.000Z</time>
      </trkpt>
      <trkpt lat="44.80743" lon="0.82505">
        <ele>203.6</ele>
        <time>2026-05-02T10:33:49.000Z</time>
      </trkpt>
      <trkpt lat="44.80741" lon="0.82504">
        <ele>203.1</ele>
        <time>2026-05-02T10:33:50.000Z</time>
      </trkpt>
      <trkpt lat="44.80739" lon="0.82503">
        <ele>203.1</ele>
        <time>2026-05-02T10:33:51.000Z</time>
      </trkpt>
      <trkpt lat="44.80738" lon="0.82502">
        <ele>203.1</ele>
        <time>2026-05-02T10:33:52.000Z</time>
      </trkpt>
      <trkpt lat="44.80736" lon="0.82502">
        <ele>202.8</ele>
        <time>2026-05-02T10:33:53.000Z</time>
      </trkpt>
      <trkpt lat="44.80734" lon="0.82501">
        <ele>203</ele>
        <time>2026-05-02T10:33:54.000Z</time>
      </trkpt>
      <trkpt lat="44.80732" lon="0.82498">
        <ele>203</ele>
        <time>2026-05-02T10:33:55.000Z</time>
      </trkpt>
      <trkpt lat="44.80734" lon="0.82498">
        <ele>204.2</ele>
        <time>2026-05-02T10:33:56.000Z</time>
      </trkpt>
      <trkpt lat="44.80733" lon="0.82498">
        <ele>203.7</ele>
        <time>2026-05-02T10:33:57.000Z</time>
      </trkpt>
      <trkpt lat="44.80731" lon="0.82497">
        <ele>203.8</ele>
        <time>2026-05-02T10:33:58.000Z</time>
      </trkpt>
      <trkpt lat="44.80729" lon="0.82497">
        <ele>203.4</ele>
        <time>2026-05-02T10:33:59.000Z</time>
      </trkpt>
      <trkpt lat="44.80729" lon="0.82496">
        <ele>204.2</ele>
        <time>2026-05-02T10:34:00.000Z</time>
      </trkpt>
      <trkpt lat="44.80728" lon="0.82496">
        <ele>205.8</ele>
        <time>2026-05-02T10:34:01.000Z</time>
      </trkpt>
      <trkpt lat="44.80725" lon="0.82496">
        <ele>204.7</ele>
        <time>2026-05-02T10:34:02.000Z</time>
      </trkpt>
      <trkpt lat="44.80722" lon="0.82495">
        <ele>203.1</ele>
        <time>2026-05-02T10:34:03.000Z</time>
      </trkpt>
      <trkpt lat="44.80719" lon="0.82494">
        <ele>203.9</ele>
        <time>2026-05-02T10:34:04.000Z</time>
      </trkpt>
      <trkpt lat="44.80717" lon="0.82492">
        <ele>203.9</ele>
        <time>2026-05-02T10:34:05.000Z</time>
      </trkpt>
      <trkpt lat="44.80714" lon="0.82492">
        <ele>204.4</ele>
        <time>2026-05-02T10:34:06.000Z</time>
      </trkpt>
      <trkpt lat="44.80711" lon="0.82491">
        <ele>205.6</ele>
        <time>2026-05-02T10:34:07.000Z</time>
      </trkpt>
      <trkpt lat="44.80709" lon="0.8249">
        <ele>205.8</ele>
        <time>2026-05-02T10:34:08.000Z</time>
      </trkpt>
      <trkpt lat="44.80706" lon="0.82488">
        <ele>205.8</ele>
        <time>2026-05-02T10:34:09.000Z</time>
      </trkpt>
      <trkpt lat="44.80704" lon="0.82486">
        <ele>205.2</ele>
        <time>2026-05-02T10:34:10.000Z</time>
      </trkpt>
      <trkpt lat="44.80702" lon="0.82484">
        <ele>205.3</ele>
        <time>2026-05-02T10:34:11.000Z</time>
      </trkpt>
      <trkpt lat="44.80699" lon="0.82481">
        <ele>205</ele>
        <time>2026-05-02T10:34:12.000Z</time>
      </trkpt>
      <trkpt lat="44.80696" lon="0.8248">
        <ele>205.4</ele>
        <time>2026-05-02T10:34:13.000Z</time>
      </trkpt>
      <trkpt lat="44.80693" lon="0.82478">
        <ele>205</ele>
        <time>2026-05-02T10:34:14.000Z</time>
      </trkpt>
      <trkpt lat="44.80691" lon="0.82476">
        <ele>205.5</ele>
        <time>2026-05-02T10:34:15.000Z</time>
      </trkpt>
      <trkpt lat="44.80688" lon="0.82474">
        <ele>204.8</ele>
        <time>2026-05-02T10:34:16.000Z</time>
      </trkpt>
      <trkpt lat="44.80685" lon="0.8247">
        <ele>205.3</ele>
        <time>2026-05-02T10:34:17.000Z</time>
      </trkpt>
      <trkpt lat="44.80683" lon="0.82466">
        <ele>204.5</ele>
        <time>2026-05-02T10:34:18.000Z</time>
      </trkpt>
      <trkpt lat="44.8068" lon="0.82462">
        <ele>204.2</ele>
        <time>2026-05-02T10:34:19.000Z</time>
      </trkpt>
      <trkpt lat="44.80678" lon="0.82459">
        <ele>204.5</ele>
        <time>2026-05-02T10:34:20.000Z</time>
      </trkpt>
      <trkpt lat="44.80676" lon="0.82457">
        <ele>204.8</ele>
        <time>2026-05-02T10:34:21.000Z</time>
      </trkpt>
      <trkpt lat="44.80675" lon="0.82454">
        <ele>206.3</ele>
        <time>2026-05-02T10:34:22.000Z</time>
      </trkpt>
      <trkpt lat="44.80674" lon="0.82452">
        <ele>206.3</ele>
        <time>2026-05-02T10:34:23.000Z</time>
      </trkpt>
      <trkpt lat="44.80673" lon="0.82451">
        <ele>207</ele>
        <time>2026-05-02T10:34:24.000Z</time>
      </trkpt>
      <trkpt lat="44.80672" lon="0.82451">
        <ele>207</ele>
        <time>2026-05-02T10:34:25.000Z</time>
      </trkpt>
      <trkpt lat="44.8067" lon="0.8245">
        <ele>207.9</ele>
        <time>2026-05-02T10:34:26.000Z</time>
      </trkpt>
      <trkpt lat="44.80669" lon="0.82447">
        <ele>207.2</ele>
        <time>2026-05-02T10:34:27.000Z</time>
      </trkpt>
      <trkpt lat="44.80669" lon="0.82444">
        <ele>206.1</ele>
        <time>2026-05-02T10:34:28.000Z</time>
      </trkpt>
      <trkpt lat="44.80667" lon="0.82441">
        <ele>205.5</ele>
        <time>2026-05-02T10:34:29.000Z</time>
      </trkpt>
      <trkpt lat="44.80668" lon="0.82444">
        <ele>211.4</ele>
        <time>2026-05-02T10:34:30.000Z</time>
      </trkpt>
      <trkpt lat="44.80665" lon="0.8244">
        <ele>202.2</ele>
        <time>2026-05-02T10:34:31.000Z</time>
      </trkpt>
      <trkpt lat="44.80663" lon="0.82436">
        <ele>201.4</ele>
        <time>2026-05-02T10:34:32.000Z</time>
      </trkpt>
      <trkpt lat="44.80661" lon="0.82434">
        <ele>200.8</ele>
        <time>2026-05-02T10:34:33.000Z</time>
      </trkpt>
      <trkpt lat="44.80659" lon="0.82433">
        <ele>200.4</ele>
        <time>2026-05-02T10:34:34.000Z</time>
      </trkpt>
      <trkpt lat="44.80658" lon="0.82434">
        <ele>200.8</ele>
        <time>2026-05-02T10:34:35.000Z</time>
      </trkpt>
      <trkpt lat="44.80657" lon="0.82434">
        <ele>201.4</ele>
        <time>2026-05-02T10:34:36.000Z</time>
      </trkpt>
      <trkpt lat="44.80659" lon="0.82437">
        <ele>204.7</ele>
        <time>2026-05-02T10:34:37.000Z</time>
      </trkpt>
      <trkpt lat="44.8066" lon="0.82438">
        <ele>204.7</ele>
        <time>2026-05-02T10:34:38.000Z</time>
      </trkpt>
      <trkpt lat="44.8066" lon="0.82439">
        <ele>204.7</ele>
        <time>2026-05-02T10:34:39.000Z</time>
      </trkpt>
      <trkpt lat="44.80659" lon="0.8244">
        <ele>205.8</ele>
        <time>2026-05-02T10:34:40.000Z</time>
      </trkpt>
      <trkpt lat="44.80658" lon="0.82442">
        <ele>206.3</ele>
        <time>2026-05-02T10:34:41.000Z</time>
      </trkpt>
      <trkpt lat="44.80657" lon="0.82443">
        <ele>206.1</ele>
        <time>2026-05-02T10:34:42.000Z</time>
      </trkpt>
      <trkpt lat="44.80656" lon="0.82445">
        <ele>206</ele>
        <time>2026-05-02T10:34:43.000Z</time>
      </trkpt>
      <trkpt lat="44.80655" lon="0.82446">
        <ele>205.3</ele>
        <time>2026-05-02T10:34:44.000Z</time>
      </trkpt>
      <trkpt lat="44.80654" lon="0.82448">
        <ele>205.4</ele>
        <time>2026-05-02T10:34:45.000Z</time>
      </trkpt>
      <trkpt lat="44.80654" lon="0.8245">
        <ele>204.9</ele>
        <time>2026-05-02T10:34:46.000Z</time>
      </trkpt>
      <trkpt lat="44.80652" lon="0.82451">
        <ele>204.5</ele>
        <time>2026-05-02T10:34:47.000Z</time>
      </trkpt>
      <trkpt lat="44.80651" lon="0.82452">
        <ele>204.3</ele>
        <time>2026-05-02T10:34:48.000Z</time>
      </trkpt>
      <trkpt lat="44.8065" lon="0.82454">
        <ele>204.1</ele>
        <time>2026-05-02T10:34:49.000Z</time>
      </trkpt>
      <trkpt lat="44.8065" lon="0.82456">
        <ele>204</ele>
        <time>2026-05-02T10:34:50.000Z</time>
      </trkpt>
      <trkpt lat="44.80648" lon="0.82458">
        <ele>203.5</ele>
        <time>2026-05-02T10:34:51.000Z</time>
      </trkpt>
      <trkpt lat="44.80647" lon="0.8246">
        <ele>203.2</ele>
        <time>2026-05-02T10:34:52.000Z</time>
      </trkpt>
      <trkpt lat="44.80645" lon="0.82462">
        <ele>203.6</ele>
        <time>2026-05-02T10:34:53.000Z</time>
      </trkpt>
      <trkpt lat="44.80643" lon="0.82465">
        <ele>203.4</ele>
        <time>2026-05-02T10:34:54.000Z</time>
      </trkpt>
      <trkpt lat="44.8064" lon="0.82467">
        <ele>203.7</ele>
        <time>2026-05-02T10:34:55.000Z</time>
      </trkpt>
      <trkpt lat="44.80638" lon="0.82469">
        <ele>204.5</ele>
        <time>2026-05-02T10:34:56.000Z</time>
      </trkpt>
      <trkpt lat="44.80636" lon="0.82471">
        <ele>204.9</ele>
        <time>2026-05-02T10:34:57.000Z</time>
      </trkpt>
      <trkpt lat="44.80634" lon="0.82473">
        <ele>204.9</ele>
        <time>2026-05-02T10:34:58.000Z</time>
      </trkpt>
      <trkpt lat="44.80632" lon="0.82474">
        <ele>205.3</ele>
        <time>2026-05-02T10:34:59.000Z</time>
      </trkpt>
      <trkpt lat="44.80629" lon="0.82475">
        <ele>206.8</ele>
        <time>2026-05-02T10:35:00.000Z</time>
      </trkpt>
      <trkpt lat="44.80627" lon="0.82476">
        <ele>208.5</ele>
        <time>2026-05-02T10:35:01.000Z</time>
      </trkpt>
      <trkpt lat="44.80625" lon="0.82477">
        <ele>209.2</ele>
        <time>2026-05-02T10:35:02.000Z</time>
      </trkpt>
      <trkpt lat="44.80622" lon="0.8248">
        <ele>208.6</ele>
        <time>2026-05-02T10:35:03.000Z</time>
      </trkpt>
      <trkpt lat="44.80619" lon="0.82482">
        <ele>209.3</ele>
        <time>2026-05-02T10:35:04.000Z</time>
      </trkpt>
      <trkpt lat="44.80617" lon="0.82484">
        <ele>209.5</ele>
        <time>2026-05-02T10:35:05.000Z</time>
      </trkpt>
      <trkpt lat="44.80615" lon="0.82487">
        <ele>212.8</ele>
        <time>2026-05-02T10:35:06.000Z</time>
      </trkpt>
      <trkpt lat="44.80612" lon="0.8249">
        <ele>212.7</ele>
        <time>2026-05-02T10:35:07.000Z</time>
      </trkpt>
      <trkpt lat="44.80609" lon="0.82492">
        <ele>212.6</ele>
        <time>2026-05-02T10:35:08.000Z</time>
      </trkpt>
      <trkpt lat="44.80606" lon="0.82493">
        <ele>213</ele>
        <time>2026-05-02T10:35:09.000Z</time>
      </trkpt>
      <trkpt lat="44.80601" lon="0.82495">
        <ele>214.2</ele>
        <time>2026-05-02T10:35:10.000Z</time>
      </trkpt>
      <trkpt lat="44.80597" lon="0.82498">
        <ele>215.1</ele>
        <time>2026-05-02T10:35:11.000Z</time>
      </trkpt>
      <trkpt lat="44.80592" lon="0.82501">
        <ele>215.7</ele>
        <time>2026-05-02T10:35:12.000Z</time>
      </trkpt>
      <trkpt lat="44.80586" lon="0.82504">
        <ele>216.4</ele>
        <time>2026-05-02T10:35:13.000Z</time>
      </trkpt>
      <trkpt lat="44.8058" lon="0.82508">
        <ele>217.9</ele>
        <time>2026-05-02T10:35:14.000Z</time>
      </trkpt>
      <trkpt lat="44.80574" lon="0.82511">
        <ele>218</ele>
        <time>2026-05-02T10:35:15.000Z</time>
      </trkpt>
      <trkpt lat="44.80567" lon="0.82514">
        <ele>218.5</ele>
        <time>2026-05-02T10:35:16.000Z</time>
      </trkpt>
      <trkpt lat="44.80562" lon="0.82515">
        <ele>218.4</ele>
        <time>2026-05-02T10:35:17.000Z</time>
      </trkpt>
      <trkpt lat="44.80557" lon="0.82517">
        <ele>218.1</ele>
        <time>2026-05-02T10:35:18.000Z</time>
      </trkpt>
      <trkpt lat="44.80553" lon="0.82518">
        <ele>218.7</ele>
        <time>2026-05-02T10:35:19.000Z</time>
      </trkpt>
      <trkpt lat="44.80549" lon="0.82519">
        <ele>218.9</ele>
        <time>2026-05-02T10:35:20.000Z</time>
      </trkpt>
      <trkpt lat="44.80546" lon="0.8252">
        <ele>219.6</ele>
        <time>2026-05-02T10:35:21.000Z</time>
      </trkpt>
      <trkpt lat="44.80543" lon="0.8252">
        <ele>220</ele>
        <time>2026-05-02T10:35:22.000Z</time>
      </trkpt>
      <trkpt lat="44.8054" lon="0.82521">
        <ele>220.2</ele>
        <time>2026-05-02T10:35:23.000Z</time>
      </trkpt>
      <trkpt lat="44.80537" lon="0.82522">
        <ele>219.7</ele>
        <time>2026-05-02T10:35:24.000Z</time>
      </trkpt>
      <trkpt lat="44.80533" lon="0.82522">
        <ele>219.6</ele>
        <time>2026-05-02T10:35:25.000Z</time>
      </trkpt>
      <trkpt lat="44.80529" lon="0.82523">
        <ele>218.2</ele>
        <time>2026-05-02T10:35:26.000Z</time>
      </trkpt>
      <trkpt lat="44.80527" lon="0.82523">
        <ele>218</ele>
        <time>2026-05-02T10:35:27.000Z</time>
      </trkpt>
      <trkpt lat="44.80525" lon="0.82522">
        <ele>217.9</ele>
        <time>2026-05-02T10:35:28.000Z</time>
      </trkpt>
      <trkpt lat="44.80523" lon="0.82523">
        <ele>217.4</ele>
        <time>2026-05-02T10:35:29.000Z</time>
      </trkpt>
      <trkpt lat="44.80521" lon="0.82523">
        <ele>217.4</ele>
        <time>2026-05-02T10:35:30.000Z</time>
      </trkpt>
      <trkpt lat="44.80519" lon="0.82524">
        <ele>217.9</ele>
        <time>2026-05-02T10:35:31.000Z</time>
      </trkpt>
      <trkpt lat="44.80518" lon="0.82524">
        <ele>217.7</ele>
        <time>2026-05-02T10:35:32.000Z</time>
      </trkpt>
      <trkpt lat="44.80516" lon="0.82524">
        <ele>217.1</ele>
        <time>2026-05-02T10:35:33.000Z</time>
      </trkpt>
      <trkpt lat="44.80514" lon="0.82524">
        <ele>216.8</ele>
        <time>2026-05-02T10:35:34.000Z</time>
      </trkpt>
      <trkpt lat="44.80512" lon="0.82524">
        <ele>216.6</ele>
        <time>2026-05-02T10:35:35.000Z</time>
      </trkpt>
      <trkpt lat="44.8051" lon="0.82524">
        <ele>216.7</ele>
        <time>2026-05-02T10:35:36.000Z</time>
      </trkpt>
      <trkpt lat="44.80508" lon="0.82525">
        <ele>216.3</ele>
        <time>2026-05-02T10:35:37.000Z</time>
      </trkpt>
      <trkpt lat="44.80506" lon="0.82526">
        <ele>216.1</ele>
        <time>2026-05-02T10:35:38.000Z</time>
      </trkpt>
      <trkpt lat="44.80505" lon="0.82527">
        <ele>216.1</ele>
        <time>2026-05-02T10:35:39.000Z</time>
      </trkpt>
      <trkpt lat="44.80503" lon="0.82527">
        <ele>216.2</ele>
        <time>2026-05-02T10:35:40.000Z</time>
      </trkpt>
      <trkpt lat="44.80501" lon="0.82528">
        <ele>216.2</ele>
        <time>2026-05-02T10:35:41.000Z</time>
      </trkpt>
      <trkpt lat="44.80499" lon="0.82529">
        <ele>216.4</ele>
        <time>2026-05-02T10:35:42.000Z</time>
      </trkpt>
      <trkpt lat="44.80498" lon="0.82531">
        <ele>217</ele>
        <time>2026-05-02T10:35:43.000Z</time>
      </trkpt>
      <trkpt lat="44.80497" lon="0.82532">
        <ele>217.3</ele>
        <time>2026-05-02T10:35:44.000Z</time>
      </trkpt>
      <trkpt lat="44.80495" lon="0.82534">
        <ele>217.7</ele>
        <time>2026-05-02T10:35:45.000Z</time>
      </trkpt>
      <trkpt lat="44.80494" lon="0.82535">
        <ele>217.7</ele>
        <time>2026-05-02T10:35:46.000Z</time>
      </trkpt>
      <trkpt lat="44.80492" lon="0.82537">
        <ele>217.6</ele>
        <time>2026-05-02T10:35:47.000Z</time>
      </trkpt>
      <trkpt lat="44.80491" lon="0.82539">
        <ele>217.8</ele>
        <time>2026-05-02T10:35:48.000Z</time>
      </trkpt>
      <trkpt lat="44.80489" lon="0.8254">
        <ele>218.2</ele>
        <time>2026-05-02T10:35:49.000Z</time>
      </trkpt>
      <trkpt lat="44.80488" lon="0.82541">
        <ele>218.8</ele>
        <time>2026-05-02T10:35:50.000Z</time>
      </trkpt>
      <trkpt lat="44.80487" lon="0.82543">
        <ele>219.2</ele>
        <time>2026-05-02T10:35:51.000Z</time>
      </trkpt>
      <trkpt lat="44.80487" lon="0.82545">
        <ele>219.9</ele>
        <time>2026-05-02T10:35:52.000Z</time>
      </trkpt>
      <trkpt lat="44.80486" lon="0.82546">
        <ele>220.1</ele>
        <time>2026-05-02T10:35:53.000Z</time>
      </trkpt>
      <trkpt lat="44.80486" lon="0.82548">
        <ele>220.1</ele>
        <time>2026-05-02T10:35:54.000Z</time>
      </trkpt>
      <trkpt lat="44.80486" lon="0.82549">
        <ele>219.8</ele>
        <time>2026-05-02T10:35:55.000Z</time>
      </trkpt>
      <trkpt lat="44.80486" lon="0.82551">
        <ele>219.6</ele>
        <time>2026-05-02T10:35:56.000Z</time>
      </trkpt>
      <trkpt lat="44.80485" lon="0.82553">
        <ele>220.6</ele>
        <time>2026-05-02T10:35:57.000Z</time>
      </trkpt>
      <trkpt lat="44.80485" lon="0.82553">
        <ele>220.7</ele>
        <time>2026-05-02T10:35:58.000Z</time>
      </trkpt>
      <trkpt lat="44.80485" lon="0.82553">
        <ele>220.7</ele>
        <time>2026-05-02T10:35:59.000Z</time>
      </trkpt>
      <trkpt lat="44.80485" lon="0.82553">
        <ele>220.7</ele>
        <time>2026-05-02T10:36:00.000Z</time>
      </trkpt>
      <trkpt lat="44.80485" lon="0.82553">
        <ele>220.4</ele>
        <time>2026-05-02T10:36:01.000Z</time>
      </trkpt>
      <trkpt lat="44.80485" lon="0.82553">
        <ele>220.7</ele>
        <time>2026-05-02T10:36:02.000Z</time>
      </trkpt>
      <trkpt lat="44.80485" lon="0.82552">
        <ele>220.4</ele>
        <time>2026-05-02T10:36:03.000Z</time>
      </trkpt>
      <trkpt lat="44.80484" lon="0.82551">
        <ele>221</ele>
        <time>2026-05-02T10:36:04.000Z</time>
      </trkpt>
      <trkpt lat="44.80483" lon="0.8255">
        <ele>221.4</ele>
        <time>2026-05-02T10:36:05.000Z</time>
      </trkpt>
      <trkpt lat="44.80481" lon="0.82551">
        <ele>221.1</ele>
        <time>2026-05-02T10:36:06.000Z</time>
      </trkpt>
      <trkpt lat="44.80479" lon="0.82552">
        <ele>221.1</ele>
        <time>2026-05-02T10:36:07.000Z</time>
      </trkpt>
      <trkpt lat="44.80477" lon="0.82553">
        <ele>220.9</ele>
        <time>2026-05-02T10:36:08.000Z</time>
      </trkpt>
      <trkpt lat="44.80476" lon="0.82554">
        <ele>221.3</ele>
        <time>2026-05-02T10:36:09.000Z</time>
      </trkpt>
      <trkpt lat="44.80475" lon="0.82555">
        <ele>221.5</ele>
        <time>2026-05-02T10:36:10.000Z</time>
      </trkpt>
      <trkpt lat="44.80473" lon="0.82555">
        <ele>221.7</ele>
        <time>2026-05-02T10:36:11.000Z</time>
      </trkpt>
      <trkpt lat="44.80472" lon="0.82556">
        <ele>221.8</ele>
        <time>2026-05-02T10:36:12.000Z</time>
      </trkpt>
      <trkpt lat="44.80471" lon="0.82556">
        <ele>222.1</ele>
        <time>2026-05-02T10:36:13.000Z</time>
      </trkpt>
      <trkpt lat="44.80469" lon="0.82557">
        <ele>221.9</ele>
        <time>2026-05-02T10:36:14.000Z</time>
      </trkpt>
      <trkpt lat="44.80467" lon="0.82558">
        <ele>222</ele>
        <time>2026-05-02T10:36:15.000Z</time>
      </trkpt>
      <trkpt lat="44.80466" lon="0.82558">
        <ele>222.1</ele>
        <time>2026-05-02T10:36:16.000Z</time>
      </trkpt>
      <trkpt lat="44.80464" lon="0.82559">
        <ele>222.1</ele>
        <time>2026-05-02T10:36:17.000Z</time>
      </trkpt>
      <trkpt lat="44.80463" lon="0.82559">
        <ele>222.2</ele>
        <time>2026-05-02T10:36:18.000Z</time>
      </trkpt>
      <trkpt lat="44.80461" lon="0.82559">
        <ele>222.5</ele>
        <time>2026-05-02T10:36:19.000Z</time>
      </trkpt>
      <trkpt lat="44.8046" lon="0.82558">
        <ele>222.5</ele>
        <time>2026-05-02T10:36:20.000Z</time>
      </trkpt>
      <trkpt lat="44.80458" lon="0.82558">
        <ele>223</ele>
        <time>2026-05-02T10:36:21.000Z</time>
      </trkpt>
      <trkpt lat="44.80457" lon="0.82558">
        <ele>224.6</ele>
        <time>2026-05-02T10:36:22.000Z</time>
      </trkpt>
      <trkpt lat="44.80455" lon="0.82557">
        <ele>224.7</ele>
        <time>2026-05-02T10:36:23.000Z</time>
      </trkpt>
      <trkpt lat="44.80454" lon="0.82557">
        <ele>224.4</ele>
        <time>2026-05-02T10:36:24.000Z</time>
      </trkpt>
      <trkpt lat="44.80453" lon="0.82556">
        <ele>224.8</ele>
        <time>2026-05-02T10:36:25.000Z</time>
      </trkpt>
      <trkpt lat="44.80451" lon="0.82555">
        <ele>225</ele>
        <time>2026-05-02T10:36:26.000Z</time>
      </trkpt>
      <trkpt lat="44.8045" lon="0.82555">
        <ele>225</ele>
        <time>2026-05-02T10:36:27.000Z</time>
      </trkpt>
      <trkpt lat="44.80449" lon="0.82554">
        <ele>225.5</ele>
        <time>2026-05-02T10:36:28.000Z</time>
      </trkpt>
      <trkpt lat="44.80447" lon="0.82553">
        <ele>226.2</ele>
        <time>2026-05-02T10:36:29.000Z</time>
      </trkpt>
      <trkpt lat="44.80446" lon="0.82553">
        <ele>226.4</ele>
        <time>2026-05-02T10:36:30.000Z</time>
      </trkpt>
      <trkpt lat="44.80445" lon="0.82552">
        <ele>226.8</ele>
        <time>2026-05-02T10:36:31.000Z</time>
      </trkpt>
      <trkpt lat="44.80443" lon="0.82551">
        <ele>227.3</ele>
        <time>2026-05-02T10:36:32.000Z</time>
      </trkpt>
      <trkpt lat="44.80442" lon="0.82551">
        <ele>227.6</ele>
        <time>2026-05-02T10:36:33.000Z</time>
      </trkpt>
      <trkpt lat="44.8044" lon="0.8255">
        <ele>228</ele>
        <time>2026-05-02T10:36:34.000Z</time>
      </trkpt>
      <trkpt lat="44.80439" lon="0.8255">
        <ele>228.4</ele>
        <time>2026-05-02T10:36:35.000Z</time>
      </trkpt>
      <trkpt lat="44.80437" lon="0.82549">
        <ele>229</ele>
        <time>2026-05-02T10:36:36.000Z</time>
      </trkpt>
      <trkpt lat="44.80436" lon="0.82549">
        <ele>229.5</ele>
        <time>2026-05-02T10:36:37.000Z</time>
      </trkpt>
      <trkpt lat="44.80435" lon="0.82549">
        <ele>229.8</ele>
        <time>2026-05-02T10:36:38.000Z</time>
      </trkpt>
      <trkpt lat="44.80433" lon="0.82548">
        <ele>230.2</ele>
        <time>2026-05-02T10:36:39.000Z</time>
      </trkpt>
      <trkpt lat="44.80432" lon="0.82548">
        <ele>230.5</ele>
        <time>2026-05-02T10:36:40.000Z</time>
      </trkpt>
      <trkpt lat="44.8043" lon="0.82548">
        <ele>230.6</ele>
        <time>2026-05-02T10:36:41.000Z</time>
      </trkpt>
      <trkpt lat="44.80429" lon="0.82548">
        <ele>230.9</ele>
        <time>2026-05-02T10:36:42.000Z</time>
      </trkpt>
      <trkpt lat="44.80427" lon="0.82548">
        <ele>231.2</ele>
        <time>2026-05-02T10:36:43.000Z</time>
      </trkpt>
      <trkpt lat="44.80426" lon="0.82549">
        <ele>231.4</ele>
        <time>2026-05-02T10:36:44.000Z</time>
      </trkpt>
      <trkpt lat="44.80425" lon="0.82549">
        <ele>231.4</ele>
        <time>2026-05-02T10:36:45.000Z</time>
      </trkpt>
      <trkpt lat="44.80423" lon="0.82549">
        <ele>231.8</ele>
        <time>2026-05-02T10:36:46.000Z</time>
      </trkpt>
      <trkpt lat="44.80422" lon="0.82549">
        <ele>232.1</ele>
        <time>2026-05-02T10:36:47.000Z</time>
      </trkpt>
      <trkpt lat="44.8042" lon="0.8255">
        <ele>232.1</ele>
        <time>2026-05-02T10:36:48.000Z</time>
      </trkpt>
      <trkpt lat="44.80419" lon="0.82551">
        <ele>232.5</ele>
        <time>2026-05-02T10:36:49.000Z</time>
      </trkpt>
      <trkpt lat="44.80417" lon="0.82551">
        <ele>232.8</ele>
        <time>2026-05-02T10:36:50.000Z</time>
      </trkpt>
      <trkpt lat="44.80416" lon="0.82552">
        <ele>233</ele>
        <time>2026-05-02T10:36:51.000Z</time>
      </trkpt>
      <trkpt lat="44.80414" lon="0.82552">
        <ele>233</ele>
        <time>2026-05-02T10:36:52.000Z</time>
      </trkpt>
      <trkpt lat="44.80413" lon="0.82553">
        <ele>233.6</ele>
        <time>2026-05-02T10:36:53.000Z</time>
      </trkpt>
      <trkpt lat="44.80412" lon="0.82553">
        <ele>233.8</ele>
        <time>2026-05-02T10:36:54.000Z</time>
      </trkpt>
      <trkpt lat="44.8041" lon="0.82554">
        <ele>234.1</ele>
        <time>2026-05-02T10:36:55.000Z</time>
      </trkpt>
      <trkpt lat="44.80409" lon="0.82554">
        <ele>234.2</ele>
        <time>2026-05-02T10:36:56.000Z</time>
      </trkpt>
      <trkpt lat="44.80408" lon="0.82555">
        <ele>234.1</ele>
        <time>2026-05-02T10:36:57.000Z</time>
      </trkpt>
      <trkpt lat="44.80407" lon="0.82557">
        <ele>234.6</ele>
        <time>2026-05-02T10:36:58.000Z</time>
      </trkpt>
      <trkpt lat="44.80405" lon="0.82558">
        <ele>234.7</ele>
        <time>2026-05-02T10:36:59.000Z</time>
      </trkpt>
      <trkpt lat="44.80404" lon="0.82559">
        <ele>234.8</ele>
        <time>2026-05-02T10:37:00.000Z</time>
      </trkpt>
      <trkpt lat="44.80403" lon="0.8256">
        <ele>235.1</ele>
        <time>2026-05-02T10:37:01.000Z</time>
      </trkpt>
      <trkpt lat="44.80402" lon="0.82561">
        <ele>235</ele>
        <time>2026-05-02T10:37:02.000Z</time>
      </trkpt>
      <trkpt lat="44.804" lon="0.82561">
        <ele>235.2</ele>
        <time>2026-05-02T10:37:03.000Z</time>
      </trkpt>
      <trkpt lat="44.80399" lon="0.82562">
        <ele>235.4</ele>
        <time>2026-05-02T10:37:04.000Z</time>
      </trkpt>
      <trkpt lat="44.80397" lon="0.82562">
        <ele>235.4</ele>
        <time>2026-05-02T10:37:05.000Z</time>
      </trkpt>
      <trkpt lat="44.80396" lon="0.82563">
        <ele>235.8</ele>
        <time>2026-05-02T10:37:06.000Z</time>
      </trkpt>
      <trkpt lat="44.80394" lon="0.82563">
        <ele>235.6</ele>
        <time>2026-05-02T10:37:07.000Z</time>
      </trkpt>
      <trkpt lat="44.80393" lon="0.82564">
        <ele>235.8</ele>
        <time>2026-05-02T10:37:08.000Z</time>
      </trkpt>
      <trkpt lat="44.80392" lon="0.82565">
        <ele>236</ele>
        <time>2026-05-02T10:37:09.000Z</time>
      </trkpt>
      <trkpt lat="44.8039" lon="0.82565">
        <ele>236.3</ele>
        <time>2026-05-02T10:37:10.000Z</time>
      </trkpt>
      <trkpt lat="44.80389" lon="0.82565">
        <ele>236.4</ele>
        <time>2026-05-02T10:37:11.000Z</time>
      </trkpt>
      <trkpt lat="44.80387" lon="0.82565">
        <ele>236.4</ele>
        <time>2026-05-02T10:37:12.000Z</time>
      </trkpt>
      <trkpt lat="44.80386" lon="0.82565">
        <ele>236.2</ele>
        <time>2026-05-02T10:37:13.000Z</time>
      </trkpt>
      <trkpt lat="44.80384" lon="0.82565">
        <ele>236.5</ele>
        <time>2026-05-02T10:37:14.000Z</time>
      </trkpt>
      <trkpt lat="44.80383" lon="0.82565">
        <ele>236.6</ele>
        <time>2026-05-02T10:37:15.000Z</time>
      </trkpt>
      <trkpt lat="44.80381" lon="0.82565">
        <ele>236.9</ele>
        <time>2026-05-02T10:37:16.000Z</time>
      </trkpt>
      <trkpt lat="44.8038" lon="0.82564">
        <ele>236.8</ele>
        <time>2026-05-02T10:37:17.000Z</time>
      </trkpt>
      <trkpt lat="44.80379" lon="0.82565">
        <ele>237.2</ele>
        <time>2026-05-02T10:37:18.000Z</time>
      </trkpt>
      <trkpt lat="44.80378" lon="0.82566">
        <ele>238</ele>
        <time>2026-05-02T10:37:19.000Z</time>
      </trkpt>
      <trkpt lat="44.80377" lon="0.82566">
        <ele>238.7</ele>
        <time>2026-05-02T10:37:20.000Z</time>
      </trkpt>
      <trkpt lat="44.80376" lon="0.82567">
        <ele>239.2</ele>
        <time>2026-05-02T10:37:21.000Z</time>
      </trkpt>
      <trkpt lat="44.80374" lon="0.82567">
        <ele>239.3</ele>
        <time>2026-05-02T10:37:22.000Z</time>
      </trkpt>
      <trkpt lat="44.80373" lon="0.82567">
        <ele>239.3</ele>
        <time>2026-05-02T10:37:23.000Z</time>
      </trkpt>
      <trkpt lat="44.80372" lon="0.82567">
        <ele>239.6</ele>
        <time>2026-05-02T10:37:24.000Z</time>
      </trkpt>
      <trkpt lat="44.8037" lon="0.82566">
        <ele>239.8</ele>
        <time>2026-05-02T10:37:25.000Z</time>
      </trkpt>
      <trkpt lat="44.80369" lon="0.82566">
        <ele>240.3</ele>
        <time>2026-05-02T10:37:26.000Z</time>
      </trkpt>
      <trkpt lat="44.80368" lon="0.82566">
        <ele>240.6</ele>
        <time>2026-05-02T10:37:27.000Z</time>
      </trkpt>
      <trkpt lat="44.80366" lon="0.82566">
        <ele>240.5</ele>
        <time>2026-05-02T10:37:28.000Z</time>
      </trkpt>
      <trkpt lat="44.80366" lon="0.82566">
        <ele>240</ele>
        <time>2026-05-02T10:37:29.000Z</time>
      </trkpt>
      <trkpt lat="44.80364" lon="0.82565">
        <ele>240.3</ele>
        <time>2026-05-02T10:37:30.000Z</time>
      </trkpt>
      <trkpt lat="44.80363" lon="0.82564">
        <ele>240.1</ele>
        <time>2026-05-02T10:37:31.000Z</time>
      </trkpt>
      <trkpt lat="44.80362" lon="0.82563">
        <ele>239.5</ele>
        <time>2026-05-02T10:37:32.000Z</time>
      </trkpt>
      <trkpt lat="44.80362" lon="0.82563">
        <ele>239.4</ele>
        <time>2026-05-02T10:37:33.000Z</time>
      </trkpt>
      <trkpt lat="44.80362" lon="0.82563">
        <ele>239.4</ele>
        <time>2026-05-02T10:37:34.000Z</time>
      </trkpt>
      <trkpt lat="44.80362" lon="0.82563">
        <ele>239.4</ele>
        <time>2026-05-02T10:37:35.000Z</time>
      </trkpt>
      <trkpt lat="44.80362" lon="0.82563">
        <ele>239.4</ele>
        <time>2026-05-02T10:37:36.000Z</time>
      </trkpt>
      <trkpt lat="44.80362" lon="0.82563">
        <ele>239.4</ele>
        <time>2026-05-02T10:37:37.000Z</time>
      </trkpt>
      <trkpt lat="44.80362" lon="0.82564">
        <ele>239.8</ele>
        <time>2026-05-02T10:37:38.000Z</time>
      </trkpt>
      <trkpt lat="44.80362" lon="0.82564">
        <ele>239.3</ele>
        <time>2026-05-02T10:37:39.000Z</time>
      </trkpt>
      <trkpt lat="44.80361" lon="0.82564">
        <ele>238.8</ele>
        <time>2026-05-02T10:37:40.000Z</time>
      </trkpt>
      <trkpt lat="44.80361" lon="0.82564">
        <ele>238.6</ele>
        <time>2026-05-02T10:37:41.000Z</time>
      </trkpt>
      <trkpt lat="44.80361" lon="0.82564">
        <ele>239.1</ele>
        <time>2026-05-02T10:37:42.000Z</time>
      </trkpt>
      <trkpt lat="44.80362" lon="0.82563">
        <ele>239.3</ele>
        <time>2026-05-02T10:37:43.000Z</time>
      </trkpt>
      <trkpt lat="44.80362" lon="0.82563">
        <ele>239.3</ele>
        <time>2026-05-02T10:37:44.000Z</time>
      </trkpt>
      <trkpt lat="44.80362" lon="0.82564">
        <ele>239.3</ele>
        <time>2026-05-02T10:37:45.000Z</time>
      </trkpt>
      <trkpt lat="44.80362" lon="0.82564">
        <ele>239.3</ele>
        <time>2026-05-02T10:37:46.000Z</time>
      </trkpt>
      <trkpt lat="44.80362" lon="0.82564">
        <ele>239.3</ele>
        <time>2026-05-02T10:37:47.000Z</time>
      </trkpt>
      <trkpt lat="44.80362" lon="0.82564">
        <ele>239.3</ele>
        <time>2026-05-02T10:37:48.000Z</time>
      </trkpt>
      <trkpt lat="44.80362" lon="0.82564">
        <ele>239.3</ele>
        <time>2026-05-02T10:37:49.000Z</time>
      </trkpt>
      <trkpt lat="44.80363" lon="0.82563">
        <ele>239</ele>
        <time>2026-05-02T10:37:50.000Z</time>
      </trkpt>
      <trkpt lat="44.80362" lon="0.82563">
        <ele>239.1</ele>
        <time>2026-05-02T10:37:51.000Z</time>
      </trkpt>
      <trkpt lat="44.8036" lon="0.82563">
        <ele>239.6</ele>
        <time>2026-05-02T10:37:52.000Z</time>
      </trkpt>
      <trkpt lat="44.80359" lon="0.82563">
        <ele>239.6</ele>
        <time>2026-05-02T10:37:53.000Z</time>
      </trkpt>
      <trkpt lat="44.80357" lon="0.82563">
        <ele>239</ele>
        <time>2026-05-02T10:37:54.000Z</time>
      </trkpt>
      <trkpt lat="44.80356" lon="0.82563">
        <ele>238.8</ele>
        <time>2026-05-02T10:37:55.000Z</time>
      </trkpt>
      <trkpt lat="44.80355" lon="0.82564">
        <ele>241.2</ele>
        <time>2026-05-02T10:37:56.000Z</time>
      </trkpt>
      <trkpt lat="44.80354" lon="0.82565">
        <ele>241.3</ele>
        <time>2026-05-02T10:37:57.000Z</time>
      </trkpt>
      <trkpt lat="44.80353" lon="0.82565">
        <ele>241.5</ele>
        <time>2026-05-02T10:37:58.000Z</time>
      </trkpt>
      <trkpt lat="44.80352" lon="0.82566">
        <ele>241.4</ele>
        <time>2026-05-02T10:37:59.000Z</time>
      </trkpt>
      <trkpt lat="44.8035" lon="0.82566">
        <ele>242</ele>
        <time>2026-05-02T10:38:00.000Z</time>
      </trkpt>
      <trkpt lat="44.80349" lon="0.82566">
        <ele>242.1</ele>
        <time>2026-05-02T10:38:01.000Z</time>
      </trkpt>
      <trkpt lat="44.80347" lon="0.82566">
        <ele>242.3</ele>
        <time>2026-05-02T10:38:02.000Z</time>
      </trkpt>
      <trkpt lat="44.80346" lon="0.82566">
        <ele>242.5</ele>
        <time>2026-05-02T10:38:03.000Z</time>
      </trkpt>
      <trkpt lat="44.80345" lon="0.82566">
        <ele>242.9</ele>
        <time>2026-05-02T10:38:04.000Z</time>
      </trkpt>
      <trkpt lat="44.80343" lon="0.82566">
        <ele>243.3</ele>
        <time>2026-05-02T10:38:05.000Z</time>
      </trkpt>
      <trkpt lat="44.80342" lon="0.82566">
        <ele>243</ele>
        <time>2026-05-02T10:38:06.000Z</time>
      </trkpt>
      <trkpt lat="44.8034" lon="0.82566">
        <ele>243.6</ele>
        <time>2026-05-02T10:38:07.000Z</time>
      </trkpt>
      <trkpt lat="44.80339" lon="0.82567">
        <ele>243.6</ele>
        <time>2026-05-02T10:38:08.000Z</time>
      </trkpt>
      <trkpt lat="44.80338" lon="0.82567">
        <ele>243.8</ele>
        <time>2026-05-02T10:38:09.000Z</time>
      </trkpt>
      <trkpt lat="44.80336" lon="0.82567">
        <ele>244.1</ele>
        <time>2026-05-02T10:38:10.000Z</time>
      </trkpt>
      <trkpt lat="44.80335" lon="0.82566">
        <ele>244.8</ele>
        <time>2026-05-02T10:38:11.000Z</time>
      </trkpt>
      <trkpt lat="44.80334" lon="0.82566">
        <ele>245.2</ele>
        <time>2026-05-02T10:38:12.000Z</time>
      </trkpt>
      <trkpt lat="44.80332" lon="0.82567">
        <ele>245.9</ele>
        <time>2026-05-02T10:38:13.000Z</time>
      </trkpt>
      <trkpt lat="44.80331" lon="0.82567">
        <ele>246.1</ele>
        <time>2026-05-02T10:38:14.000Z</time>
      </trkpt>
      <trkpt lat="44.8033" lon="0.82568">
        <ele>246.2</ele>
        <time>2026-05-02T10:38:15.000Z</time>
      </trkpt>
      <trkpt lat="44.80329" lon="0.82569">
        <ele>245.9</ele>
        <time>2026-05-02T10:38:16.000Z</time>
      </trkpt>
      <trkpt lat="44.80328" lon="0.8257">
        <ele>245.7</ele>
        <time>2026-05-02T10:38:17.000Z</time>
      </trkpt>
      <trkpt lat="44.80327" lon="0.82571">
        <ele>245.8</ele>
        <time>2026-05-02T10:38:18.000Z</time>
      </trkpt>
      <trkpt lat="44.80326" lon="0.82572">
        <ele>246.1</ele>
        <time>2026-05-02T10:38:19.000Z</time>
      </trkpt>
      <trkpt lat="44.80325" lon="0.82574">
        <ele>246.1</ele>
        <time>2026-05-02T10:38:20.000Z</time>
      </trkpt>
      <trkpt lat="44.80324" lon="0.82575">
        <ele>245.8</ele>
        <time>2026-05-02T10:38:21.000Z</time>
      </trkpt>
      <trkpt lat="44.80323" lon="0.82577">
        <ele>245.8</ele>
        <time>2026-05-02T10:38:22.000Z</time>
      </trkpt>
      <trkpt lat="44.80322" lon="0.82578">
        <ele>245.5</ele>
        <time>2026-05-02T10:38:23.000Z</time>
      </trkpt>
      <trkpt lat="44.80322" lon="0.8258">
        <ele>245.3</ele>
        <time>2026-05-02T10:38:24.000Z</time>
      </trkpt>
      <trkpt lat="44.80321" lon="0.82581">
        <ele>245.5</ele>
        <time>2026-05-02T10:38:25.000Z</time>
      </trkpt>
      <trkpt lat="44.8032" lon="0.82583">
        <ele>245.7</ele>
        <time>2026-05-02T10:38:26.000Z</time>
      </trkpt>
      <trkpt lat="44.8032" lon="0.82584">
        <ele>245.5</ele>
        <time>2026-05-02T10:38:27.000Z</time>
      </trkpt>
      <trkpt lat="44.80319" lon="0.82586">
        <ele>245.6</ele>
        <time>2026-05-02T10:38:28.000Z</time>
      </trkpt>
      <trkpt lat="44.80318" lon="0.82588">
        <ele>245.8</ele>
        <time>2026-05-02T10:38:29.000Z</time>
      </trkpt>
      <trkpt lat="44.80318" lon="0.8259">
        <ele>245.7</ele>
        <time>2026-05-02T10:38:30.000Z</time>
      </trkpt>
      <trkpt lat="44.80317" lon="0.82592">
        <ele>245.9</ele>
        <time>2026-05-02T10:38:31.000Z</time>
      </trkpt>
      <trkpt lat="44.80316" lon="0.82593">
        <ele>246</ele>
        <time>2026-05-02T10:38:32.000Z</time>
      </trkpt>
      <trkpt lat="44.80316" lon="0.82595">
        <ele>246.1</ele>
        <time>2026-05-02T10:38:33.000Z</time>
      </trkpt>
      <trkpt lat="44.80315" lon="0.82597">
        <ele>246.1</ele>
        <time>2026-05-02T10:38:34.000Z</time>
      </trkpt>
      <trkpt lat="44.80314" lon="0.82599">
        <ele>246.2</ele>
        <time>2026-05-02T10:38:35.000Z</time>
      </trkpt>
      <trkpt lat="44.80313" lon="0.826">
        <ele>246.6</ele>
        <time>2026-05-02T10:38:36.000Z</time>
      </trkpt>
      <trkpt lat="44.80312" lon="0.82602">
        <ele>247</ele>
        <time>2026-05-02T10:38:37.000Z</time>
      </trkpt>
      <trkpt lat="44.80312" lon="0.82604">
        <ele>247.1</ele>
        <time>2026-05-02T10:38:38.000Z</time>
      </trkpt>
      <trkpt lat="44.80311" lon="0.82606">
        <ele>247.5</ele>
        <time>2026-05-02T10:38:39.000Z</time>
      </trkpt>
      <trkpt lat="44.8031" lon="0.82607">
        <ele>247.7</ele>
        <time>2026-05-02T10:38:40.000Z</time>
      </trkpt>
      <trkpt lat="44.80309" lon="0.82609">
        <ele>247.7</ele>
        <time>2026-05-02T10:38:41.000Z</time>
      </trkpt>
      <trkpt lat="44.80309" lon="0.82611">
        <ele>247.5</ele>
        <time>2026-05-02T10:38:42.000Z</time>
      </trkpt>
      <trkpt lat="44.80308" lon="0.82613">
        <ele>247.6</ele>
        <time>2026-05-02T10:38:43.000Z</time>
      </trkpt>
      <trkpt lat="44.80307" lon="0.82615">
        <ele>247.6</ele>
        <time>2026-05-02T10:38:44.000Z</time>
      </trkpt>
      <trkpt lat="44.80306" lon="0.82617">
        <ele>247.6</ele>
        <time>2026-05-02T10:38:45.000Z</time>
      </trkpt>
      <trkpt lat="44.80306" lon="0.82619">
        <ele>247.2</ele>
        <time>2026-05-02T10:38:46.000Z</time>
      </trkpt>
      <trkpt lat="44.80305" lon="0.82621">
        <ele>247.2</ele>
        <time>2026-05-02T10:38:47.000Z</time>
      </trkpt>
      <trkpt lat="44.80304" lon="0.82623">
        <ele>247.2</ele>
        <time>2026-05-02T10:38:48.000Z</time>
      </trkpt>
      <trkpt lat="44.80304" lon="0.82625">
        <ele>247.2</ele>
        <time>2026-05-02T10:38:49.000Z</time>
      </trkpt>
      <trkpt lat="44.80303" lon="0.82627">
        <ele>247.1</ele>
        <time>2026-05-02T10:38:50.000Z</time>
      </trkpt>
      <trkpt lat="44.80302" lon="0.82629">
        <ele>247</ele>
        <time>2026-05-02T10:38:51.000Z</time>
      </trkpt>
      <trkpt lat="44.80302" lon="0.8263">
        <ele>246.8</ele>
        <time>2026-05-02T10:38:52.000Z</time>
      </trkpt>
      <trkpt lat="44.80301" lon="0.82632">
        <ele>246.8</ele>
        <time>2026-05-02T10:38:53.000Z</time>
      </trkpt>
      <trkpt lat="44.803" lon="0.82634">
        <ele>246.7</ele>
        <time>2026-05-02T10:38:54.000Z</time>
      </trkpt>
      <trkpt lat="44.80299" lon="0.82636">
        <ele>246.6</ele>
        <time>2026-05-02T10:38:55.000Z</time>
      </trkpt>
      <trkpt lat="44.80299" lon="0.82638">
        <ele>246.5</ele>
        <time>2026-05-02T10:38:56.000Z</time>
      </trkpt>
      <trkpt lat="44.80298" lon="0.8264">
        <ele>246.5</ele>
        <time>2026-05-02T10:38:57.000Z</time>
      </trkpt>
      <trkpt lat="44.80297" lon="0.82642">
        <ele>246.6</ele>
        <time>2026-05-02T10:38:58.000Z</time>
      </trkpt>
      <trkpt lat="44.80296" lon="0.82644">
        <ele>246.6</ele>
        <time>2026-05-02T10:38:59.000Z</time>
      </trkpt>
      <trkpt lat="44.80296" lon="0.82646">
        <ele>246.7</ele>
        <time>2026-05-02T10:39:00.000Z</time>
      </trkpt>
      <trkpt lat="44.80295" lon="0.82648">
        <ele>246.9</ele>
        <time>2026-05-02T10:39:01.000Z</time>
      </trkpt>
      <trkpt lat="44.80294" lon="0.8265">
        <ele>247.1</ele>
        <time>2026-05-02T10:39:02.000Z</time>
      </trkpt>
      <trkpt lat="44.80293" lon="0.82652">
        <ele>247.2</ele>
        <time>2026-05-02T10:39:03.000Z</time>
      </trkpt>
      <trkpt lat="44.80293" lon="0.82654">
        <ele>247.2</ele>
        <time>2026-05-02T10:39:04.000Z</time>
      </trkpt>
      <trkpt lat="44.80292" lon="0.82656">
        <ele>247.4</ele>
        <time>2026-05-02T10:39:05.000Z</time>
      </trkpt>
      <trkpt lat="44.80291" lon="0.82658">
        <ele>247.5</ele>
        <time>2026-05-02T10:39:06.000Z</time>
      </trkpt>
      <trkpt lat="44.80291" lon="0.8266">
        <ele>247.8</ele>
        <time>2026-05-02T10:39:07.000Z</time>
      </trkpt>
      <trkpt lat="44.8029" lon="0.82662">
        <ele>247.9</ele>
        <time>2026-05-02T10:39:08.000Z</time>
      </trkpt>
      <trkpt lat="44.8029" lon="0.82664">
        <ele>248</ele>
        <time>2026-05-02T10:39:09.000Z</time>
      </trkpt>
      <trkpt lat="44.80289" lon="0.82666">
        <ele>248</ele>
        <time>2026-05-02T10:39:10.000Z</time>
      </trkpt>
      <trkpt lat="44.80289" lon="0.82668">
        <ele>248</ele>
        <time>2026-05-02T10:39:11.000Z</time>
      </trkpt>
      <trkpt lat="44.80288" lon="0.8267">
        <ele>248</ele>
        <time>2026-05-02T10:39:12.000Z</time>
      </trkpt>
      <trkpt lat="44.80287" lon="0.82672">
        <ele>248.2</ele>
        <time>2026-05-02T10:39:13.000Z</time>
      </trkpt>
      <trkpt lat="44.80287" lon="0.82674">
        <ele>248</ele>
        <time>2026-05-02T10:39:14.000Z</time>
      </trkpt>
      <trkpt lat="44.80287" lon="0.82676">
        <ele>248.3</ele>
        <time>2026-05-02T10:39:15.000Z</time>
      </trkpt>
      <trkpt lat="44.80286" lon="0.82678">
        <ele>248.3</ele>
        <time>2026-05-02T10:39:16.000Z</time>
      </trkpt>
      <trkpt lat="44.80286" lon="0.82681">
        <ele>248.5</ele>
        <time>2026-05-02T10:39:17.000Z</time>
      </trkpt>
      <trkpt lat="44.80286" lon="0.82683">
        <ele>248.5</ele>
        <time>2026-05-02T10:39:18.000Z</time>
      </trkpt>
      <trkpt lat="44.80285" lon="0.82685">
        <ele>248.4</ele>
        <time>2026-05-02T10:39:19.000Z</time>
      </trkpt>
      <trkpt lat="44.80285" lon="0.82687">
        <ele>248.8</ele>
        <time>2026-05-02T10:39:20.000Z</time>
      </trkpt>
      <trkpt lat="44.80284" lon="0.82689">
        <ele>248.7</ele>
        <time>2026-05-02T10:39:21.000Z</time>
      </trkpt>
      <trkpt lat="44.80284" lon="0.82691">
        <ele>249</ele>
        <time>2026-05-02T10:39:22.000Z</time>
      </trkpt>
      <trkpt lat="44.80283" lon="0.82693">
        <ele>248.9</ele>
        <time>2026-05-02T10:39:23.000Z</time>
      </trkpt>
      <trkpt lat="44.80283" lon="0.82695">
        <ele>249</ele>
        <time>2026-05-02T10:39:24.000Z</time>
      </trkpt>
      <trkpt lat="44.80283" lon="0.82697">
        <ele>248.9</ele>
        <time>2026-05-02T10:39:25.000Z</time>
      </trkpt>
      <trkpt lat="44.80282" lon="0.82699">
        <ele>248.9</ele>
        <time>2026-05-02T10:39:26.000Z</time>
      </trkpt>
      <trkpt lat="44.80282" lon="0.82701">
        <ele>248.9</ele>
        <time>2026-05-02T10:39:27.000Z</time>
      </trkpt>
      <trkpt lat="44.80282" lon="0.82703">
        <ele>248.8</ele>
        <time>2026-05-02T10:39:28.000Z</time>
      </trkpt>
      <trkpt lat="44.80281" lon="0.82705">
        <ele>248.8</ele>
        <time>2026-05-02T10:39:29.000Z</time>
      </trkpt>
      <trkpt lat="44.80281" lon="0.82707">
        <ele>249</ele>
        <time>2026-05-02T10:39:30.000Z</time>
      </trkpt>
      <trkpt lat="44.80281" lon="0.82709">
        <ele>249.1</ele>
        <time>2026-05-02T10:39:31.000Z</time>
      </trkpt>
      <trkpt lat="44.80281" lon="0.82712">
        <ele>248.9</ele>
        <time>2026-05-02T10:39:32.000Z</time>
      </trkpt>
      <trkpt lat="44.8028" lon="0.82714">
        <ele>248.9</ele>
        <time>2026-05-02T10:39:33.000Z</time>
      </trkpt>
      <trkpt lat="44.8028" lon="0.82716">
        <ele>248.9</ele>
        <time>2026-05-02T10:39:34.000Z</time>
      </trkpt>
      <trkpt lat="44.8028" lon="0.82718">
        <ele>249.3</ele>
        <time>2026-05-02T10:39:35.000Z</time>
      </trkpt>
      <trkpt lat="44.8028" lon="0.8272">
        <ele>249.2</ele>
        <time>2026-05-02T10:39:36.000Z</time>
      </trkpt>
      <trkpt lat="44.80279" lon="0.82723">
        <ele>249.4</ele>
        <time>2026-05-02T10:39:37.000Z</time>
      </trkpt>
      <trkpt lat="44.80279" lon="0.82725">
        <ele>249.5</ele>
        <time>2026-05-02T10:39:38.000Z</time>
      </trkpt>
      <trkpt lat="44.80279" lon="0.82727">
        <ele>249.4</ele>
        <time>2026-05-02T10:39:39.000Z</time>
      </trkpt>
      <trkpt lat="44.80279" lon="0.82729">
        <ele>249.5</ele>
        <time>2026-05-02T10:39:40.000Z</time>
      </trkpt>
      <trkpt lat="44.80279" lon="0.82731">
        <ele>249.7</ele>
        <time>2026-05-02T10:39:41.000Z</time>
      </trkpt>
      <trkpt lat="44.80278" lon="0.82733">
        <ele>249.7</ele>
        <time>2026-05-02T10:39:42.000Z</time>
      </trkpt>
      <trkpt lat="44.80278" lon="0.82735">
        <ele>249.7</ele>
        <time>2026-05-02T10:39:43.000Z</time>
      </trkpt>
      <trkpt lat="44.80278" lon="0.82737">
        <ele>249.9</ele>
        <time>2026-05-02T10:39:44.000Z</time>
      </trkpt>
      <trkpt lat="44.80277" lon="0.8274">
        <ele>250.3</ele>
        <time>2026-05-02T10:39:45.000Z</time>
      </trkpt>
      <trkpt lat="44.80277" lon="0.82742">
        <ele>250.2</ele>
        <time>2026-05-02T10:39:46.000Z</time>
      </trkpt>
      <trkpt lat="44.80277" lon="0.82744">
        <ele>250.2</ele>
        <time>2026-05-02T10:39:47.000Z</time>
      </trkpt>
      <trkpt lat="44.80277" lon="0.82746">
        <ele>250.6</ele>
        <time>2026-05-02T10:39:48.000Z</time>
      </trkpt>
      <trkpt lat="44.80277" lon="0.82748">
        <ele>250.6</ele>
        <time>2026-05-02T10:39:49.000Z</time>
      </trkpt>
      <trkpt lat="44.80277" lon="0.8275">
        <ele>250.6</ele>
        <time>2026-05-02T10:39:50.000Z</time>
      </trkpt>
      <trkpt lat="44.80276" lon="0.82752">
        <ele>250.5</ele>
        <time>2026-05-02T10:39:51.000Z</time>
      </trkpt>
      <trkpt lat="44.80276" lon="0.82753">
        <ele>250.3</ele>
        <time>2026-05-02T10:39:52.000Z</time>
      </trkpt>
      <trkpt lat="44.80275" lon="0.82754">
        <ele>250.1</ele>
        <time>2026-05-02T10:39:53.000Z</time>
      </trkpt>
      <trkpt lat="44.80275" lon="0.82754">
        <ele>250.1</ele>
        <time>2026-05-02T10:39:54.000Z</time>
      </trkpt>
      <trkpt lat="44.80275" lon="0.82754">
        <ele>250.1</ele>
        <time>2026-05-02T10:39:55.000Z</time>
      </trkpt>
      <trkpt lat="44.80275" lon="0.82754">
        <ele>250.1</ele>
        <time>2026-05-02T10:39:56.000Z</time>
      </trkpt>
      <trkpt lat="44.80275" lon="0.82754">
        <ele>250</ele>
        <time>2026-05-02T10:39:57.000Z</time>
      </trkpt>
      <trkpt lat="44.80275" lon="0.82754">
        <ele>250.1</ele>
        <time>2026-05-02T10:39:58.000Z</time>
      </trkpt>
      <trkpt lat="44.80275" lon="0.82754">
        <ele>250.1</ele>
        <time>2026-05-02T10:39:59.000Z</time>
      </trkpt>
      <trkpt lat="44.80275" lon="0.82754">
        <ele>250.1</ele>
        <time>2026-05-02T10:40:00.000Z</time>
      </trkpt>
      <trkpt lat="44.80275" lon="0.82754">
        <ele>250.1</ele>
        <time>2026-05-02T10:40:01.000Z</time>
      </trkpt>
      <trkpt lat="44.80275" lon="0.82755">
        <ele>250.1</ele>
        <time>2026-05-02T10:40:02.000Z</time>
      </trkpt>
      <trkpt lat="44.80275" lon="0.82756">
        <ele>250.4</ele>
        <time>2026-05-02T10:40:03.000Z</time>
      </trkpt>
      <trkpt lat="44.80275" lon="0.82756">
        <ele>250.4</ele>
        <time>2026-05-02T10:40:04.000Z</time>
      </trkpt>
      <trkpt lat="44.80275" lon="0.82757">
        <ele>250.1</ele>
        <time>2026-05-02T10:40:05.000Z</time>
      </trkpt>
      <trkpt lat="44.80275" lon="0.82758">
        <ele>250.3</ele>
        <time>2026-05-02T10:40:06.000Z</time>
      </trkpt>
      <trkpt lat="44.80275" lon="0.8276">
        <ele>250.3</ele>
        <time>2026-05-02T10:40:07.000Z</time>
      </trkpt>
      <trkpt lat="44.80275" lon="0.82762">
        <ele>250.4</ele>
        <time>2026-05-02T10:40:08.000Z</time>
      </trkpt>
      <trkpt lat="44.80275" lon="0.82764">
        <ele>250.5</ele>
        <time>2026-05-02T10:40:09.000Z</time>
      </trkpt>
      <trkpt lat="44.80274" lon="0.82766">
        <ele>250.4</ele>
        <time>2026-05-02T10:40:10.000Z</time>
      </trkpt>
      <trkpt lat="44.80274" lon="0.82768">
        <ele>250.3</ele>
        <time>2026-05-02T10:40:11.000Z</time>
      </trkpt>
      <trkpt lat="44.80274" lon="0.8277">
        <ele>250.3</ele>
        <time>2026-05-02T10:40:12.000Z</time>
      </trkpt>
      <trkpt lat="44.80274" lon="0.82772">
        <ele>250.3</ele>
        <time>2026-05-02T10:40:13.000Z</time>
      </trkpt>
      <trkpt lat="44.80274" lon="0.82774">
        <ele>250.2</ele>
        <time>2026-05-02T10:40:14.000Z</time>
      </trkpt>
      <trkpt lat="44.80274" lon="0.82776">
        <ele>250.7</ele>
        <time>2026-05-02T10:40:15.000Z</time>
      </trkpt>
      <trkpt lat="44.80273" lon="0.82779">
        <ele>250.9</ele>
        <time>2026-05-02T10:40:16.000Z</time>
      </trkpt>
      <trkpt lat="44.80273" lon="0.82781">
        <ele>251</ele>
        <time>2026-05-02T10:40:17.000Z</time>
      </trkpt>
      <trkpt lat="44.80273" lon="0.82783">
        <ele>251</ele>
        <time>2026-05-02T10:40:18.000Z</time>
      </trkpt>
      <trkpt lat="44.80272" lon="0.82784">
        <ele>251.3</ele>
        <time>2026-05-02T10:40:19.000Z</time>
      </trkpt>
      <trkpt lat="44.80272" lon="0.82786">
        <ele>251.5</ele>
        <time>2026-05-02T10:40:20.000Z</time>
      </trkpt>
      <trkpt lat="44.80272" lon="0.82788">
        <ele>251.6</ele>
        <time>2026-05-02T10:40:21.000Z</time>
      </trkpt>
      <trkpt lat="44.80272" lon="0.8279">
        <ele>251.8</ele>
        <time>2026-05-02T10:40:22.000Z</time>
      </trkpt>
      <trkpt lat="44.80271" lon="0.82793">
        <ele>251.9</ele>
        <time>2026-05-02T10:40:23.000Z</time>
      </trkpt>
      <trkpt lat="44.80271" lon="0.82795">
        <ele>251.7</ele>
        <time>2026-05-02T10:40:24.000Z</time>
      </trkpt>
      <trkpt lat="44.80271" lon="0.82797">
        <ele>251.9</ele>
        <time>2026-05-02T10:40:25.000Z</time>
      </trkpt>
      <trkpt lat="44.8027" lon="0.82799">
        <ele>251.8</ele>
        <time>2026-05-02T10:40:26.000Z</time>
      </trkpt>
      <trkpt lat="44.8027" lon="0.82802">
        <ele>251.9</ele>
        <time>2026-05-02T10:40:27.000Z</time>
      </trkpt>
      <trkpt lat="44.8027" lon="0.82804">
        <ele>251.9</ele>
        <time>2026-05-02T10:40:28.000Z</time>
      </trkpt>
      <trkpt lat="44.80269" lon="0.82806">
        <ele>251.9</ele>
        <time>2026-05-02T10:40:29.000Z</time>
      </trkpt>
      <trkpt lat="44.80269" lon="0.82808">
        <ele>252.1</ele>
        <time>2026-05-02T10:40:30.000Z</time>
      </trkpt>
      <trkpt lat="44.80269" lon="0.8281">
        <ele>252.2</ele>
        <time>2026-05-02T10:40:31.000Z</time>
      </trkpt>
      <trkpt lat="44.80269" lon="0.82813">
        <ele>252.3</ele>
        <time>2026-05-02T10:40:32.000Z</time>
      </trkpt>
      <trkpt lat="44.80269" lon="0.82815">
        <ele>252.4</ele>
        <time>2026-05-02T10:40:33.000Z</time>
      </trkpt>
      <trkpt lat="44.80268" lon="0.82817">
        <ele>252.6</ele>
        <time>2026-05-02T10:40:34.000Z</time>
      </trkpt>
      <trkpt lat="44.80268" lon="0.82819">
        <ele>252.7</ele>
        <time>2026-05-02T10:40:35.000Z</time>
      </trkpt>
      <trkpt lat="44.80268" lon="0.82821">
        <ele>252.9</ele>
        <time>2026-05-02T10:40:36.000Z</time>
      </trkpt>
      <trkpt lat="44.80267" lon="0.82823">
        <ele>252.8</ele>
        <time>2026-05-02T10:40:37.000Z</time>
      </trkpt>
      <trkpt lat="44.80267" lon="0.82825">
        <ele>252.7</ele>
        <time>2026-05-02T10:40:38.000Z</time>
      </trkpt>
      <trkpt lat="44.80267" lon="0.82827">
        <ele>252.7</ele>
        <time>2026-05-02T10:40:39.000Z</time>
      </trkpt>
      <trkpt lat="44.80267" lon="0.82829">
        <ele>252.7</ele>
        <time>2026-05-02T10:40:40.000Z</time>
      </trkpt>
      <trkpt lat="44.80267" lon="0.82831">
        <ele>252.6</ele>
        <time>2026-05-02T10:40:41.000Z</time>
      </trkpt>
      <trkpt lat="44.80266" lon="0.82833">
        <ele>252.6</ele>
        <time>2026-05-02T10:40:42.000Z</time>
      </trkpt>
      <trkpt lat="44.80266" lon="0.82836">
        <ele>252.6</ele>
        <time>2026-05-02T10:40:43.000Z</time>
      </trkpt>
      <trkpt lat="44.80266" lon="0.82838">
        <ele>253</ele>
        <time>2026-05-02T10:40:44.000Z</time>
      </trkpt>
      <trkpt lat="44.80266" lon="0.8284">
        <ele>253.2</ele>
        <time>2026-05-02T10:40:45.000Z</time>
      </trkpt>
      <trkpt lat="44.80266" lon="0.82842">
        <ele>252.9</ele>
        <time>2026-05-02T10:40:46.000Z</time>
      </trkpt>
      <trkpt lat="44.80266" lon="0.82844">
        <ele>252.7</ele>
        <time>2026-05-02T10:40:47.000Z</time>
      </trkpt>
      <trkpt lat="44.80265" lon="0.82847">
        <ele>252.6</ele>
        <time>2026-05-02T10:40:48.000Z</time>
      </trkpt>
      <trkpt lat="44.80265" lon="0.82849">
        <ele>252.4</ele>
        <time>2026-05-02T10:40:49.000Z</time>
      </trkpt>
      <trkpt lat="44.80265" lon="0.82851">
        <ele>252.2</ele>
        <time>2026-05-02T10:40:50.000Z</time>
      </trkpt>
      <trkpt lat="44.80264" lon="0.82853">
        <ele>252.1</ele>
        <time>2026-05-02T10:40:51.000Z</time>
      </trkpt>
      <trkpt lat="44.80264" lon="0.82855">
        <ele>252.2</ele>
        <time>2026-05-02T10:40:52.000Z</time>
      </trkpt>
      <trkpt lat="44.80264" lon="0.82858">
        <ele>252.1</ele>
        <time>2026-05-02T10:40:53.000Z</time>
      </trkpt>
      <trkpt lat="44.80264" lon="0.8286">
        <ele>252</ele>
        <time>2026-05-02T10:40:54.000Z</time>
      </trkpt>
      <trkpt lat="44.80264" lon="0.82862">
        <ele>251.9</ele>
        <time>2026-05-02T10:40:55.000Z</time>
      </trkpt>
      <trkpt lat="44.80264" lon="0.82865">
        <ele>252.1</ele>
        <time>2026-05-02T10:40:56.000Z</time>
      </trkpt>
      <trkpt lat="44.80264" lon="0.82867">
        <ele>251.9</ele>
        <time>2026-05-02T10:40:57.000Z</time>
      </trkpt>
      <trkpt lat="44.80264" lon="0.82869">
        <ele>252</ele>
        <time>2026-05-02T10:40:58.000Z</time>
      </trkpt>
      <trkpt lat="44.80264" lon="0.82871">
        <ele>252</ele>
        <time>2026-05-02T10:40:59.000Z</time>
      </trkpt>
      <trkpt lat="44.80264" lon="0.82873">
        <ele>252.2</ele>
        <time>2026-05-02T10:41:00.000Z</time>
      </trkpt>
      <trkpt lat="44.80264" lon="0.82875">
        <ele>252.1</ele>
        <time>2026-05-02T10:41:01.000Z</time>
      </trkpt>
      <trkpt lat="44.80264" lon="0.82878">
        <ele>252.3</ele>
        <time>2026-05-02T10:41:02.000Z</time>
      </trkpt>
      <trkpt lat="44.80264" lon="0.8288">
        <ele>252.4</ele>
        <time>2026-05-02T10:41:03.000Z</time>
      </trkpt>
      <trkpt lat="44.80265" lon="0.82882">
        <ele>252.4</ele>
        <time>2026-05-02T10:41:04.000Z</time>
      </trkpt>
      <trkpt lat="44.80265" lon="0.82884">
        <ele>252.5</ele>
        <time>2026-05-02T10:41:05.000Z</time>
      </trkpt>
      <trkpt lat="44.80265" lon="0.82886">
        <ele>252.4</ele>
        <time>2026-05-02T10:41:06.000Z</time>
      </trkpt>
      <trkpt lat="44.80265" lon="0.82888">
        <ele>252.4</ele>
        <time>2026-05-02T10:41:07.000Z</time>
      </trkpt>
      <trkpt lat="44.80265" lon="0.8289">
        <ele>252.3</ele>
        <time>2026-05-02T10:41:08.000Z</time>
      </trkpt>
      <trkpt lat="44.80266" lon="0.82892">
        <ele>252.2</ele>
        <time>2026-05-02T10:41:09.000Z</time>
      </trkpt>
      <trkpt lat="44.80266" lon="0.82894">
        <ele>252.3</ele>
        <time>2026-05-02T10:41:10.000Z</time>
      </trkpt>
      <trkpt lat="44.80266" lon="0.82897">
        <ele>252.2</ele>
        <time>2026-05-02T10:41:11.000Z</time>
      </trkpt>
      <trkpt lat="44.80266" lon="0.82899">
        <ele>252.3</ele>
        <time>2026-05-02T10:41:12.000Z</time>
      </trkpt>
      <trkpt lat="44.80266" lon="0.82901">
        <ele>252.5</ele>
        <time>2026-05-02T10:41:13.000Z</time>
      </trkpt>
      <trkpt lat="44.80266" lon="0.82903">
        <ele>252.6</ele>
        <time>2026-05-02T10:41:14.000Z</time>
      </trkpt>
      <trkpt lat="44.80266" lon="0.82905">
        <ele>252.7</ele>
        <time>2026-05-02T10:41:15.000Z</time>
      </trkpt>
      <trkpt lat="44.80267" lon="0.82907">
        <ele>252.8</ele>
        <time>2026-05-02T10:41:16.000Z</time>
      </trkpt>
      <trkpt lat="44.80267" lon="0.82909">
        <ele>253</ele>
        <time>2026-05-02T10:41:17.000Z</time>
      </trkpt>
      <trkpt lat="44.80267" lon="0.82911">
        <ele>253</ele>
        <time>2026-05-02T10:41:18.000Z</time>
      </trkpt>
      <trkpt lat="44.80268" lon="0.82913">
        <ele>253</ele>
        <time>2026-05-02T10:41:19.000Z</time>
      </trkpt>
      <trkpt lat="44.80268" lon="0.82915">
        <ele>252.9</ele>
        <time>2026-05-02T10:41:20.000Z</time>
      </trkpt>
      <trkpt lat="44.80269" lon="0.82917">
        <ele>253</ele>
        <time>2026-05-02T10:41:21.000Z</time>
      </trkpt>
      <trkpt lat="44.80269" lon="0.82919">
        <ele>253</ele>
        <time>2026-05-02T10:41:22.000Z</time>
      </trkpt>
      <trkpt lat="44.8027" lon="0.82921">
        <ele>252.7</ele>
        <time>2026-05-02T10:41:23.000Z</time>
      </trkpt>
      <trkpt lat="44.8027" lon="0.82923">
        <ele>252.5</ele>
        <time>2026-05-02T10:41:24.000Z</time>
      </trkpt>
      <trkpt lat="44.80271" lon="0.82925">
        <ele>252.5</ele>
        <time>2026-05-02T10:41:25.000Z</time>
      </trkpt>
      <trkpt lat="44.80271" lon="0.82927">
        <ele>252.5</ele>
        <time>2026-05-02T10:41:26.000Z</time>
      </trkpt>
      <trkpt lat="44.80272" lon="0.82929">
        <ele>252.6</ele>
        <time>2026-05-02T10:41:27.000Z</time>
      </trkpt>
      <trkpt lat="44.80272" lon="0.82931">
        <ele>252.6</ele>
        <time>2026-05-02T10:41:28.000Z</time>
      </trkpt>
      <trkpt lat="44.80273" lon="0.82934">
        <ele>252.5</ele>
        <time>2026-05-02T10:41:29.000Z</time>
      </trkpt>
      <trkpt lat="44.80274" lon="0.82936">
        <ele>252.2</ele>
        <time>2026-05-02T10:41:30.000Z</time>
      </trkpt>
      <trkpt lat="44.80274" lon="0.82938">
        <ele>252</ele>
        <time>2026-05-02T10:41:31.000Z</time>
      </trkpt>
      <trkpt lat="44.80275" lon="0.8294">
        <ele>252</ele>
        <time>2026-05-02T10:41:32.000Z</time>
      </trkpt>
      <trkpt lat="44.80275" lon="0.82942">
        <ele>252.1</ele>
        <time>2026-05-02T10:41:33.000Z</time>
      </trkpt>
      <trkpt lat="44.80275" lon="0.82944">
        <ele>251.9</ele>
        <time>2026-05-02T10:41:34.000Z</time>
      </trkpt>
      <trkpt lat="44.80276" lon="0.82946">
        <ele>251.9</ele>
        <time>2026-05-02T10:41:35.000Z</time>
      </trkpt>
      <trkpt lat="44.80276" lon="0.82949">
        <ele>251.9</ele>
        <time>2026-05-02T10:41:36.000Z</time>
      </trkpt>
      <trkpt lat="44.80277" lon="0.82951">
        <ele>251.8</ele>
        <time>2026-05-02T10:41:37.000Z</time>
      </trkpt>
      <trkpt lat="44.80277" lon="0.82953">
        <ele>251.9</ele>
        <time>2026-05-02T10:41:38.000Z</time>
      </trkpt>
      <trkpt lat="44.80278" lon="0.82955">
        <ele>251.7</ele>
        <time>2026-05-02T10:41:39.000Z</time>
      </trkpt>
      <trkpt lat="44.80278" lon="0.82957">
        <ele>251.8</ele>
        <time>2026-05-02T10:41:40.000Z</time>
      </trkpt>
      <trkpt lat="44.80278" lon="0.82959">
        <ele>251.7</ele>
        <time>2026-05-02T10:41:41.000Z</time>
      </trkpt>
      <trkpt lat="44.80279" lon="0.82962">
        <ele>251.6</ele>
        <time>2026-05-02T10:41:42.000Z</time>
      </trkpt>
      <trkpt lat="44.80279" lon="0.82964">
        <ele>251.3</ele>
        <time>2026-05-02T10:41:43.000Z</time>
      </trkpt>
      <trkpt lat="44.8028" lon="0.82966">
        <ele>251.5</ele>
        <time>2026-05-02T10:41:44.000Z</time>
      </trkpt>
      <trkpt lat="44.8028" lon="0.82968">
        <ele>251.6</ele>
        <time>2026-05-02T10:41:45.000Z</time>
      </trkpt>
      <trkpt lat="44.8028" lon="0.8297">
        <ele>251.9</ele>
        <time>2026-05-02T10:41:46.000Z</time>
      </trkpt>
      <trkpt lat="44.80281" lon="0.82973">
        <ele>252.3</ele>
        <time>2026-05-02T10:41:47.000Z</time>
      </trkpt>
      <trkpt lat="44.80281" lon="0.82975">
        <ele>252.5</ele>
        <time>2026-05-02T10:41:48.000Z</time>
      </trkpt>
      <trkpt lat="44.80281" lon="0.82977">
        <ele>252.6</ele>
        <time>2026-05-02T10:41:49.000Z</time>
      </trkpt>
      <trkpt lat="44.80282" lon="0.82979">
        <ele>252.8</ele>
        <time>2026-05-02T10:41:50.000Z</time>
      </trkpt>
      <trkpt lat="44.80282" lon="0.82981">
        <ele>252.9</ele>
        <time>2026-05-02T10:41:51.000Z</time>
      </trkpt>
      <trkpt lat="44.80282" lon="0.82983">
        <ele>252.9</ele>
        <time>2026-05-02T10:41:52.000Z</time>
      </trkpt>
      <trkpt lat="44.80283" lon="0.82985">
        <ele>252.9</ele>
        <time>2026-05-02T10:41:53.000Z</time>
      </trkpt>
      <trkpt lat="44.80283" lon="0.82987">
        <ele>252.7</ele>
        <time>2026-05-02T10:41:54.000Z</time>
      </trkpt>
      <trkpt lat="44.80283" lon="0.82989">
        <ele>252.5</ele>
        <time>2026-05-02T10:41:55.000Z</time>
      </trkpt>
      <trkpt lat="44.80283" lon="0.82991">
        <ele>252.4</ele>
        <time>2026-05-02T10:41:56.000Z</time>
      </trkpt>
      <trkpt lat="44.80283" lon="0.82992">
        <ele>251.8</ele>
        <time>2026-05-02T10:41:57.000Z</time>
      </trkpt>
      <trkpt lat="44.80284" lon="0.82994">
        <ele>251.4</ele>
        <time>2026-05-02T10:41:58.000Z</time>
      </trkpt>
      <trkpt lat="44.80284" lon="0.82996">
        <ele>251.3</ele>
        <time>2026-05-02T10:41:59.000Z</time>
      </trkpt>
      <trkpt lat="44.80285" lon="0.82998">
        <ele>251</ele>
        <time>2026-05-02T10:42:00.000Z</time>
      </trkpt>
      <trkpt lat="44.80285" lon="0.83">
        <ele>251.1</ele>
        <time>2026-05-02T10:42:01.000Z</time>
      </trkpt>
      <trkpt lat="44.80286" lon="0.83002">
        <ele>250.6</ele>
        <time>2026-05-02T10:42:02.000Z</time>
      </trkpt>
      <trkpt lat="44.80286" lon="0.83004">
        <ele>250.4</ele>
        <time>2026-05-02T10:42:03.000Z</time>
      </trkpt>
      <trkpt lat="44.80287" lon="0.83006">
        <ele>250.2</ele>
        <time>2026-05-02T10:42:04.000Z</time>
      </trkpt>
      <trkpt lat="44.80287" lon="0.83009">
        <ele>250</ele>
        <time>2026-05-02T10:42:05.000Z</time>
      </trkpt>
      <trkpt lat="44.80287" lon="0.83011">
        <ele>250.2</ele>
        <time>2026-05-02T10:42:06.000Z</time>
      </trkpt>
      <trkpt lat="44.80287" lon="0.83014">
        <ele>250.2</ele>
        <time>2026-05-02T10:42:07.000Z</time>
      </trkpt>
      <trkpt lat="44.80288" lon="0.83016">
        <ele>250.1</ele>
        <time>2026-05-02T10:42:08.000Z</time>
      </trkpt>
      <trkpt lat="44.80288" lon="0.83018">
        <ele>250.3</ele>
        <time>2026-05-02T10:42:09.000Z</time>
      </trkpt>
      <trkpt lat="44.80289" lon="0.8302">
        <ele>250.4</ele>
        <time>2026-05-02T10:42:10.000Z</time>
      </trkpt>
      <trkpt lat="44.80289" lon="0.83022">
        <ele>250.5</ele>
        <time>2026-05-02T10:42:11.000Z</time>
      </trkpt>
      <trkpt lat="44.8029" lon="0.83023">
        <ele>250.5</ele>
        <time>2026-05-02T10:42:12.000Z</time>
      </trkpt>
      <trkpt lat="44.8029" lon="0.83023">
        <ele>250.4</ele>
        <time>2026-05-02T10:42:13.000Z</time>
      </trkpt>
      <trkpt lat="44.8029" lon="0.83025">
        <ele>251</ele>
        <time>2026-05-02T10:42:14.000Z</time>
      </trkpt>
      <trkpt lat="44.80293" lon="0.83027">
        <ele>250.6</ele>
        <time>2026-05-02T10:42:15.000Z</time>
      </trkpt>
      <trkpt lat="44.80295" lon="0.83025">
        <ele>250.5</ele>
        <time>2026-05-02T10:42:16.000Z</time>
      </trkpt>
      <trkpt lat="44.80296" lon="0.83021">
        <ele>250.4</ele>
        <time>2026-05-02T10:42:17.000Z</time>
      </trkpt>
      <trkpt lat="44.80296" lon="0.83025">
        <ele>251.5</ele>
        <time>2026-05-02T10:42:18.000Z</time>
      </trkpt>
      <trkpt lat="44.80296" lon="0.83026">
        <ele>251.5</ele>
        <time>2026-05-02T10:42:19.000Z</time>
      </trkpt>
      <trkpt lat="44.80296" lon="0.83026">
        <ele>251.5</ele>
        <time>2026-05-02T10:42:20.000Z</time>
      </trkpt>
      <trkpt lat="44.80296" lon="0.83026">
        <ele>251.5</ele>
        <time>2026-05-02T10:42:21.000Z</time>
      </trkpt>
      <trkpt lat="44.80296" lon="0.83026">
        <ele>251.5</ele>
        <time>2026-05-02T10:42:22.000Z</time>
      </trkpt>
      <trkpt lat="44.80296" lon="0.83026">
        <ele>251.5</ele>
        <time>2026-05-02T10:42:23.000Z</time>
      </trkpt>
      <trkpt lat="44.80296" lon="0.83026">
        <ele>251.5</ele>
        <time>2026-05-02T10:42:24.000Z</time>
      </trkpt>
      <trkpt lat="44.80296" lon="0.83026">
        <ele>251.7</ele>
        <time>2026-05-02T10:42:25.000Z</time>
      </trkpt>
      <trkpt lat="44.80296" lon="0.83025">
        <ele>251.6</ele>
        <time>2026-05-02T10:42:26.000Z</time>
      </trkpt>
      <trkpt lat="44.80296" lon="0.83024">
        <ele>251.6</ele>
        <time>2026-05-02T10:42:27.000Z</time>
      </trkpt>
      <trkpt lat="44.80295" lon="0.83022">
        <ele>251.4</ele>
        <time>2026-05-02T10:42:28.000Z</time>
      </trkpt>
      <trkpt lat="44.80295" lon="0.8302">
        <ele>251.1</ele>
        <time>2026-05-02T10:42:29.000Z</time>
      </trkpt>
      <trkpt lat="44.80294" lon="0.83017">
        <ele>251</ele>
        <time>2026-05-02T10:42:30.000Z</time>
      </trkpt>
      <trkpt lat="44.80293" lon="0.83015">
        <ele>250.8</ele>
        <time>2026-05-02T10:42:31.000Z</time>
      </trkpt>
      <trkpt lat="44.80293" lon="0.83012">
        <ele>250.6</ele>
        <time>2026-05-02T10:42:32.000Z</time>
      </trkpt>
      <trkpt lat="44.80292" lon="0.8301">
        <ele>250.3</ele>
        <time>2026-05-02T10:42:33.000Z</time>
      </trkpt>
      <trkpt lat="44.80291" lon="0.83008">
        <ele>250.3</ele>
        <time>2026-05-02T10:42:34.000Z</time>
      </trkpt>
      <trkpt lat="44.8029" lon="0.83006">
        <ele>250.2</ele>
        <time>2026-05-02T10:42:35.000Z</time>
      </trkpt>
      <trkpt lat="44.80288" lon="0.83004">
        <ele>250.2</ele>
        <time>2026-05-02T10:42:36.000Z</time>
      </trkpt>
      <trkpt lat="44.80286" lon="0.83003">
        <ele>250.2</ele>
        <time>2026-05-02T10:42:37.000Z</time>
      </trkpt>
      <trkpt lat="44.80284" lon="0.83003">
        <ele>250</ele>
        <time>2026-05-02T10:42:38.000Z</time>
      </trkpt>
      <trkpt lat="44.80283" lon="0.83002">
        <ele>249.8</ele>
        <time>2026-05-02T10:42:39.000Z</time>
      </trkpt>
      <trkpt lat="44.80281" lon="0.83002">
        <ele>249.5</ele>
        <time>2026-05-02T10:42:40.000Z</time>
      </trkpt>
      <trkpt lat="44.80279" lon="0.83002">
        <ele>249.3</ele>
        <time>2026-05-02T10:42:41.000Z</time>
      </trkpt>
      <trkpt lat="44.80278" lon="0.83001">
        <ele>249.1</ele>
        <time>2026-05-02T10:42:42.000Z</time>
      </trkpt>
      <trkpt lat="44.80276" lon="0.83002">
        <ele>248.8</ele>
        <time>2026-05-02T10:42:43.000Z</time>
      </trkpt>
      <trkpt lat="44.80274" lon="0.83002">
        <ele>248.9</ele>
        <time>2026-05-02T10:42:44.000Z</time>
      </trkpt>
      <trkpt lat="44.80272" lon="0.83002">
        <ele>248.8</ele>
        <time>2026-05-02T10:42:45.000Z</time>
      </trkpt>
      <trkpt lat="44.80271" lon="0.83003">
        <ele>248.8</ele>
        <time>2026-05-02T10:42:46.000Z</time>
      </trkpt>
      <trkpt lat="44.80269" lon="0.83003">
        <ele>248.5</ele>
        <time>2026-05-02T10:42:47.000Z</time>
      </trkpt>
      <trkpt lat="44.80267" lon="0.83003">
        <ele>248.3</ele>
        <time>2026-05-02T10:42:48.000Z</time>
      </trkpt>
      <trkpt lat="44.80266" lon="0.83003">
        <ele>248.1</ele>
        <time>2026-05-02T10:42:49.000Z</time>
      </trkpt>
      <trkpt lat="44.80264" lon="0.83003">
        <ele>248.1</ele>
        <time>2026-05-02T10:42:50.000Z</time>
      </trkpt>
      <trkpt lat="44.80263" lon="0.83003">
        <ele>248.2</ele>
        <time>2026-05-02T10:42:51.000Z</time>
      </trkpt>
      <trkpt lat="44.80261" lon="0.83003">
        <ele>248.2</ele>
        <time>2026-05-02T10:42:52.000Z</time>
      </trkpt>
      <trkpt lat="44.80259" lon="0.83003">
        <ele>248</ele>
        <time>2026-05-02T10:42:53.000Z</time>
      </trkpt>
      <trkpt lat="44.80258" lon="0.83003">
        <ele>247.8</ele>
        <time>2026-05-02T10:42:54.000Z</time>
      </trkpt>
      <trkpt lat="44.80256" lon="0.83003">
        <ele>247.8</ele>
        <time>2026-05-02T10:42:55.000Z</time>
      </trkpt>
      <trkpt lat="44.80255" lon="0.83003">
        <ele>247.9</ele>
        <time>2026-05-02T10:42:56.000Z</time>
      </trkpt>
      <trkpt lat="44.80253" lon="0.83003">
        <ele>247.7</ele>
        <time>2026-05-02T10:42:57.000Z</time>
      </trkpt>
      <trkpt lat="44.80251" lon="0.83003">
        <ele>247.6</ele>
        <time>2026-05-02T10:42:58.000Z</time>
      </trkpt>
      <trkpt lat="44.8025" lon="0.83003">
        <ele>247.2</ele>
        <time>2026-05-02T10:42:59.000Z</time>
      </trkpt>
      <trkpt lat="44.80248" lon="0.83002">
        <ele>247.5</ele>
        <time>2026-05-02T10:43:00.000Z</time>
      </trkpt>
      <trkpt lat="44.80247" lon="0.83002">
        <ele>247.1</ele>
        <time>2026-05-02T10:43:01.000Z</time>
      </trkpt>
      <trkpt lat="44.80245" lon="0.83003">
        <ele>247</ele>
        <time>2026-05-02T10:43:02.000Z</time>
      </trkpt>
      <trkpt lat="44.80243" lon="0.83003">
        <ele>246.7</ele>
        <time>2026-05-02T10:43:03.000Z</time>
      </trkpt>
      <trkpt lat="44.80242" lon="0.83004">
        <ele>247.2</ele>
        <time>2026-05-02T10:43:04.000Z</time>
      </trkpt>
      <trkpt lat="44.8024" lon="0.83004">
        <ele>247.4</ele>
        <time>2026-05-02T10:43:05.000Z</time>
      </trkpt>
      <trkpt lat="44.80239" lon="0.83005">
        <ele>247.6</ele>
        <time>2026-05-02T10:43:06.000Z</time>
      </trkpt>
      <trkpt lat="44.80237" lon="0.83006">
        <ele>247.5</ele>
        <time>2026-05-02T10:43:07.000Z</time>
      </trkpt>
      <trkpt lat="44.80235" lon="0.83006">
        <ele>247.1</ele>
        <time>2026-05-02T10:43:08.000Z</time>
      </trkpt>
      <trkpt lat="44.80233" lon="0.83006">
        <ele>247.1</ele>
        <time>2026-05-02T10:43:09.000Z</time>
      </trkpt>
      <trkpt lat="44.80232" lon="0.83006">
        <ele>246.7</ele>
        <time>2026-05-02T10:43:10.000Z</time>
      </trkpt>
      <trkpt lat="44.8023" lon="0.83006">
        <ele>246.6</ele>
        <time>2026-05-02T10:43:11.000Z</time>
      </trkpt>
      <trkpt lat="44.80229" lon="0.83007">
        <ele>246.3</ele>
        <time>2026-05-02T10:43:12.000Z</time>
      </trkpt>
      <trkpt lat="44.80228" lon="0.83008">
        <ele>246.5</ele>
        <time>2026-05-02T10:43:13.000Z</time>
      </trkpt>
      <trkpt lat="44.80226" lon="0.83009">
        <ele>246.4</ele>
        <time>2026-05-02T10:43:14.000Z</time>
      </trkpt>
      <trkpt lat="44.80225" lon="0.8301">
        <ele>246</ele>
        <time>2026-05-02T10:43:15.000Z</time>
      </trkpt>
      <trkpt lat="44.80223" lon="0.8301">
        <ele>245.8</ele>
        <time>2026-05-02T10:43:16.000Z</time>
      </trkpt>
      <trkpt lat="44.80222" lon="0.8301">
        <ele>245.8</ele>
        <time>2026-05-02T10:43:17.000Z</time>
      </trkpt>
      <trkpt lat="44.8022" lon="0.83011">
        <ele>245.6</ele>
        <time>2026-05-02T10:43:18.000Z</time>
      </trkpt>
      <trkpt lat="44.80218" lon="0.83008">
        <ele>246.5</ele>
        <time>2026-05-02T10:43:19.000Z</time>
      </trkpt>
      <trkpt lat="44.80217" lon="0.83006">
        <ele>246</ele>
        <time>2026-05-02T10:43:20.000Z</time>
      </trkpt>
      <trkpt lat="44.80216" lon="0.83011">
        <ele>244.9</ele>
        <time>2026-05-02T10:43:21.000Z</time>
      </trkpt>
      <trkpt lat="44.80215" lon="0.83013">
        <ele>244.8</ele>
        <time>2026-05-02T10:43:22.000Z</time>
      </trkpt>
      <trkpt lat="44.80214" lon="0.83015">
        <ele>244.8</ele>
        <time>2026-05-02T10:43:23.000Z</time>
      </trkpt>
      <trkpt lat="44.80214" lon="0.83016">
        <ele>245.2</ele>
        <time>2026-05-02T10:43:24.000Z</time>
      </trkpt>
      <trkpt lat="44.80213" lon="0.83017">
        <ele>245.6</ele>
        <time>2026-05-02T10:43:25.000Z</time>
      </trkpt>
      <trkpt lat="44.80212" lon="0.83018">
        <ele>245.9</ele>
        <time>2026-05-02T10:43:26.000Z</time>
      </trkpt>
      <trkpt lat="44.80211" lon="0.8302">
        <ele>245.5</ele>
        <time>2026-05-02T10:43:27.000Z</time>
      </trkpt>
      <trkpt lat="44.80211" lon="0.83021">
        <ele>245.5</ele>
        <time>2026-05-02T10:43:28.000Z</time>
      </trkpt>
      <trkpt lat="44.8021" lon="0.83022">
        <ele>245.5</ele>
        <time>2026-05-02T10:43:29.000Z</time>
      </trkpt>
      <trkpt lat="44.80209" lon="0.83024">
        <ele>245.7</ele>
        <time>2026-05-02T10:43:30.000Z</time>
      </trkpt>
      <trkpt lat="44.80208" lon="0.83025">
        <ele>246.1</ele>
        <time>2026-05-02T10:43:31.000Z</time>
      </trkpt>
      <trkpt lat="44.80207" lon="0.83026">
        <ele>245.8</ele>
        <time>2026-05-02T10:43:32.000Z</time>
      </trkpt>
      <trkpt lat="44.80207" lon="0.83027">
        <ele>246.5</ele>
        <time>2026-05-02T10:43:33.000Z</time>
      </trkpt>
      <trkpt lat="44.80206" lon="0.83028">
        <ele>246.6</ele>
        <time>2026-05-02T10:43:34.000Z</time>
      </trkpt>
      <trkpt lat="44.80205" lon="0.83029">
        <ele>246.4</ele>
        <time>2026-05-02T10:43:35.000Z</time>
      </trkpt>
      <trkpt lat="44.80204" lon="0.8303">
        <ele>246.3</ele>
        <time>2026-05-02T10:43:36.000Z</time>
      </trkpt>
      <trkpt lat="44.80203" lon="0.83031">
        <ele>244.8</ele>
        <time>2026-05-02T10:43:37.000Z</time>
      </trkpt>
      <trkpt lat="44.80202" lon="0.83032">
        <ele>245.1</ele>
        <time>2026-05-02T10:43:38.000Z</time>
      </trkpt>
      <trkpt lat="44.802" lon="0.83033">
        <ele>245.1</ele>
        <time>2026-05-02T10:43:39.000Z</time>
      </trkpt>
      <trkpt lat="44.802" lon="0.83034">
        <ele>246.9</ele>
        <time>2026-05-02T10:43:40.000Z</time>
      </trkpt>
      <trkpt lat="44.80199" lon="0.83035">
        <ele>247.4</ele>
        <time>2026-05-02T10:43:41.000Z</time>
      </trkpt>
      <trkpt lat="44.80198" lon="0.83036">
        <ele>248</ele>
        <time>2026-05-02T10:43:42.000Z</time>
      </trkpt>
      <trkpt lat="44.80197" lon="0.83037">
        <ele>247.7</ele>
        <time>2026-05-02T10:43:43.000Z</time>
      </trkpt>
      <trkpt lat="44.80196" lon="0.83038">
        <ele>248.2</ele>
        <time>2026-05-02T10:43:44.000Z</time>
      </trkpt>
      <trkpt lat="44.80195" lon="0.8304">
        <ele>248.3</ele>
        <time>2026-05-02T10:43:45.000Z</time>
      </trkpt>
      <trkpt lat="44.80194" lon="0.83042">
        <ele>248.6</ele>
        <time>2026-05-02T10:43:46.000Z</time>
      </trkpt>
      <trkpt lat="44.80194" lon="0.83043">
        <ele>249.5</ele>
        <time>2026-05-02T10:43:47.000Z</time>
      </trkpt>
      <trkpt lat="44.80193" lon="0.83044">
        <ele>249.9</ele>
        <time>2026-05-02T10:43:48.000Z</time>
      </trkpt>
      <trkpt lat="44.80192" lon="0.83045">
        <ele>249.4</ele>
        <time>2026-05-02T10:43:49.000Z</time>
      </trkpt>
      <trkpt lat="44.80191" lon="0.83046">
        <ele>249.7</ele>
        <time>2026-05-02T10:43:50.000Z</time>
      </trkpt>
      <trkpt lat="44.8019" lon="0.83047">
        <ele>251.1</ele>
        <time>2026-05-02T10:43:51.000Z</time>
      </trkpt>
      <trkpt lat="44.80188" lon="0.83048">
        <ele>250.9</ele>
        <time>2026-05-02T10:43:52.000Z</time>
      </trkpt>
      <trkpt lat="44.80187" lon="0.83049">
        <ele>252</ele>
        <time>2026-05-02T10:43:53.000Z</time>
      </trkpt>
      <trkpt lat="44.80186" lon="0.8305">
        <ele>252</ele>
        <time>2026-05-02T10:43:54.000Z</time>
      </trkpt>
      <trkpt lat="44.80185" lon="0.83052">
        <ele>251.9</ele>
        <time>2026-05-02T10:43:55.000Z</time>
      </trkpt>
      <trkpt lat="44.80184" lon="0.83053">
        <ele>251.5</ele>
        <time>2026-05-02T10:43:56.000Z</time>
      </trkpt>
      <trkpt lat="44.80182" lon="0.83054">
        <ele>251.3</ele>
        <time>2026-05-02T10:43:57.000Z</time>
      </trkpt>
      <trkpt lat="44.80181" lon="0.83055">
        <ele>251.4</ele>
        <time>2026-05-02T10:43:58.000Z</time>
      </trkpt>
      <trkpt lat="44.8018" lon="0.83056">
        <ele>251.6</ele>
        <time>2026-05-02T10:43:59.000Z</time>
      </trkpt>
      <trkpt lat="44.80178" lon="0.83056">
        <ele>250.8</ele>
        <time>2026-05-02T10:44:00.000Z</time>
      </trkpt>
      <trkpt lat="44.80177" lon="0.83058">
        <ele>250.4</ele>
        <time>2026-05-02T10:44:01.000Z</time>
      </trkpt>
      <trkpt lat="44.80176" lon="0.83059">
        <ele>250</ele>
        <time>2026-05-02T10:44:02.000Z</time>
      </trkpt>
      <trkpt lat="44.80175" lon="0.8306">
        <ele>249.6</ele>
        <time>2026-05-02T10:44:03.000Z</time>
      </trkpt>
      <trkpt lat="44.80174" lon="0.83061">
        <ele>250.2</ele>
        <time>2026-05-02T10:44:04.000Z</time>
      </trkpt>
      <trkpt lat="44.80172" lon="0.83062">
        <ele>250.2</ele>
        <time>2026-05-02T10:44:05.000Z</time>
      </trkpt>
      <trkpt lat="44.80171" lon="0.83062">
        <ele>250.2</ele>
        <time>2026-05-02T10:44:06.000Z</time>
      </trkpt>
      <trkpt lat="44.80169" lon="0.83063">
        <ele>249.7</ele>
        <time>2026-05-02T10:44:07.000Z</time>
      </trkpt>
      <trkpt lat="44.80168" lon="0.83064">
        <ele>249.1</ele>
        <time>2026-05-02T10:44:08.000Z</time>
      </trkpt>
      <trkpt lat="44.80166" lon="0.83064">
        <ele>248.9</ele>
        <time>2026-05-02T10:44:09.000Z</time>
      </trkpt>
      <trkpt lat="44.80164" lon="0.83065">
        <ele>248.6</ele>
        <time>2026-05-02T10:44:10.000Z</time>
      </trkpt>
      <trkpt lat="44.80163" lon="0.83065">
        <ele>248.5</ele>
        <time>2026-05-02T10:44:11.000Z</time>
      </trkpt>
      <trkpt lat="44.80161" lon="0.83066">
        <ele>246.8</ele>
        <time>2026-05-02T10:44:12.000Z</time>
      </trkpt>
      <trkpt lat="44.80158" lon="0.83067">
        <ele>245.9</ele>
        <time>2026-05-02T10:44:13.000Z</time>
      </trkpt>
      <trkpt lat="44.80156" lon="0.83069">
        <ele>244.4</ele>
        <time>2026-05-02T10:44:14.000Z</time>
      </trkpt>
      <trkpt lat="44.80155" lon="0.8307">
        <ele>244.5</ele>
        <time>2026-05-02T10:44:15.000Z</time>
      </trkpt>
      <trkpt lat="44.80152" lon="0.8307">
        <ele>244.5</ele>
        <time>2026-05-02T10:44:16.000Z</time>
      </trkpt>
      <trkpt lat="44.80151" lon="0.83071">
        <ele>244.7</ele>
        <time>2026-05-02T10:44:17.000Z</time>
      </trkpt>
      <trkpt lat="44.80149" lon="0.83072">
        <ele>243.7</ele>
        <time>2026-05-02T10:44:18.000Z</time>
      </trkpt>
      <trkpt lat="44.80148" lon="0.83073">
        <ele>242.9</ele>
        <time>2026-05-02T10:44:19.000Z</time>
      </trkpt>
      <trkpt lat="44.80146" lon="0.83074">
        <ele>242.2</ele>
        <time>2026-05-02T10:44:20.000Z</time>
      </trkpt>
      <trkpt lat="44.80144" lon="0.83075">
        <ele>241.9</ele>
        <time>2026-05-02T10:44:21.000Z</time>
      </trkpt>
      <trkpt lat="44.80142" lon="0.83075">
        <ele>241.8</ele>
        <time>2026-05-02T10:44:22.000Z</time>
      </trkpt>
      <trkpt lat="44.80141" lon="0.83076">
        <ele>241.9</ele>
        <time>2026-05-02T10:44:23.000Z</time>
      </trkpt>
      <trkpt lat="44.80139" lon="0.83076">
        <ele>242.3</ele>
        <time>2026-05-02T10:44:24.000Z</time>
      </trkpt>
      <trkpt lat="44.80138" lon="0.83076">
        <ele>241.9</ele>
        <time>2026-05-02T10:44:25.000Z</time>
      </trkpt>
      <trkpt lat="44.80136" lon="0.83077">
        <ele>243.5</ele>
        <time>2026-05-02T10:44:26.000Z</time>
      </trkpt>
      <trkpt lat="44.80134" lon="0.83078">
        <ele>243.3</ele>
        <time>2026-05-02T10:44:27.000Z</time>
      </trkpt>
      <trkpt lat="44.80132" lon="0.83079">
        <ele>243.3</ele>
        <time>2026-05-02T10:44:28.000Z</time>
      </trkpt>
      <trkpt lat="44.80131" lon="0.8308">
        <ele>243.1</ele>
        <time>2026-05-02T10:44:29.000Z</time>
      </trkpt>
      <trkpt lat="44.80129" lon="0.83081">
        <ele>242.5</ele>
        <time>2026-05-02T10:44:30.000Z</time>
      </trkpt>
      <trkpt lat="44.80127" lon="0.83081">
        <ele>242.1</ele>
        <time>2026-05-02T10:44:31.000Z</time>
      </trkpt>
      <trkpt lat="44.80126" lon="0.83082">
        <ele>242.5</ele>
        <time>2026-05-02T10:44:32.000Z</time>
      </trkpt>
      <trkpt lat="44.80124" lon="0.83083">
        <ele>241.7</ele>
        <time>2026-05-02T10:44:33.000Z</time>
      </trkpt>
      <trkpt lat="44.80122" lon="0.83084">
        <ele>240.8</ele>
        <time>2026-05-02T10:44:34.000Z</time>
      </trkpt>
      <trkpt lat="44.8012" lon="0.83084">
        <ele>240.7</ele>
        <time>2026-05-02T10:44:35.000Z</time>
      </trkpt>
      <trkpt lat="44.80118" lon="0.83084">
        <ele>240.2</ele>
        <time>2026-05-02T10:44:36.000Z</time>
      </trkpt>
      <trkpt lat="44.80116" lon="0.83084">
        <ele>239.8</ele>
        <time>2026-05-02T10:44:37.000Z</time>
      </trkpt>
      <trkpt lat="44.80115" lon="0.83084">
        <ele>239.8</ele>
        <time>2026-05-02T10:44:38.000Z</time>
      </trkpt>
      <trkpt lat="44.80113" lon="0.83084">
        <ele>239.6</ele>
        <time>2026-05-02T10:44:39.000Z</time>
      </trkpt>
      <trkpt lat="44.80112" lon="0.83085">
        <ele>239.4</ele>
        <time>2026-05-02T10:44:40.000Z</time>
      </trkpt>
      <trkpt lat="44.8011" lon="0.83086">
        <ele>239.6</ele>
        <time>2026-05-02T10:44:41.000Z</time>
      </trkpt>
      <trkpt lat="44.80109" lon="0.83087">
        <ele>239.7</ele>
        <time>2026-05-02T10:44:42.000Z</time>
      </trkpt>
      <trkpt lat="44.80107" lon="0.83088">
        <ele>239.9</ele>
        <time>2026-05-02T10:44:43.000Z</time>
      </trkpt>
      <trkpt lat="44.80106" lon="0.83088">
        <ele>240.2</ele>
        <time>2026-05-02T10:44:44.000Z</time>
      </trkpt>
      <trkpt lat="44.80104" lon="0.83089">
        <ele>240.5</ele>
        <time>2026-05-02T10:44:45.000Z</time>
      </trkpt>
      <trkpt lat="44.80103" lon="0.83089">
        <ele>240.6</ele>
        <time>2026-05-02T10:44:46.000Z</time>
      </trkpt>
      <trkpt lat="44.80101" lon="0.8309">
        <ele>239.8</ele>
        <time>2026-05-02T10:44:47.000Z</time>
      </trkpt>
      <trkpt lat="44.801" lon="0.8309">
        <ele>239.5</ele>
        <time>2026-05-02T10:44:48.000Z</time>
      </trkpt>
      <trkpt lat="44.80098" lon="0.83091">
        <ele>239.1</ele>
        <time>2026-05-02T10:44:49.000Z</time>
      </trkpt>
      <trkpt lat="44.80096" lon="0.83091">
        <ele>239.4</ele>
        <time>2026-05-02T10:44:50.000Z</time>
      </trkpt>
      <trkpt lat="44.80094" lon="0.83091">
        <ele>239.3</ele>
        <time>2026-05-02T10:44:51.000Z</time>
      </trkpt>
      <trkpt lat="44.80093" lon="0.83092">
        <ele>239.6</ele>
        <time>2026-05-02T10:44:52.000Z</time>
      </trkpt>
      <trkpt lat="44.80091" lon="0.83092">
        <ele>239.5</ele>
        <time>2026-05-02T10:44:53.000Z</time>
      </trkpt>
      <trkpt lat="44.8009" lon="0.83093">
        <ele>239.5</ele>
        <time>2026-05-02T10:44:54.000Z</time>
      </trkpt>
      <trkpt lat="44.80088" lon="0.83093">
        <ele>238.3</ele>
        <time>2026-05-02T10:44:55.000Z</time>
      </trkpt>
      <trkpt lat="44.80087" lon="0.83094">
        <ele>238.2</ele>
        <time>2026-05-02T10:44:56.000Z</time>
      </trkpt>
      <trkpt lat="44.80085" lon="0.83095">
        <ele>238.6</ele>
        <time>2026-05-02T10:44:57.000Z</time>
      </trkpt>
      <trkpt lat="44.80083" lon="0.83096">
        <ele>239.2</ele>
        <time>2026-05-02T10:44:58.000Z</time>
      </trkpt>
      <trkpt lat="44.80082" lon="0.83096">
        <ele>238.4</ele>
        <time>2026-05-02T10:44:59.000Z</time>
      </trkpt>
      <trkpt lat="44.8008" lon="0.83095">
        <ele>237.9</ele>
        <time>2026-05-02T10:45:00.000Z</time>
      </trkpt>
      <trkpt lat="44.80079" lon="0.83095">
        <ele>237</ele>
        <time>2026-05-02T10:45:01.000Z</time>
      </trkpt>
      <trkpt lat="44.80078" lon="0.83099">
        <ele>235.7</ele>
        <time>2026-05-02T10:45:02.000Z</time>
      </trkpt>
      <trkpt lat="44.8008" lon="0.83101">
        <ele>232.1</ele>
        <time>2026-05-02T10:45:03.000Z</time>
      </trkpt>
      <trkpt lat="44.80082" lon="0.83099">
        <ele>229.7</ele>
        <time>2026-05-02T10:45:04.000Z</time>
      </trkpt>
      <trkpt lat="44.80082" lon="0.83094">
        <ele>228</ele>
        <time>2026-05-02T10:45:05.000Z</time>
      </trkpt>
      <trkpt lat="44.80079" lon="0.83091">
        <ele>227</ele>
        <time>2026-05-02T10:45:06.000Z</time>
      </trkpt>
      <trkpt lat="44.80076" lon="0.83091">
        <ele>225.6</ele>
        <time>2026-05-02T10:45:07.000Z</time>
      </trkpt>
      <trkpt lat="44.80074" lon="0.83092">
        <ele>227.4</ele>
        <time>2026-05-02T10:45:08.000Z</time>
      </trkpt>
      <trkpt lat="44.80073" lon="0.83093">
        <ele>228.5</ele>
        <time>2026-05-02T10:45:09.000Z</time>
      </trkpt>
      <trkpt lat="44.80071" lon="0.83093">
        <ele>228.7</ele>
        <time>2026-05-02T10:45:10.000Z</time>
      </trkpt>
      <trkpt lat="44.80069" lon="0.83095">
        <ele>231.4</ele>
        <time>2026-05-02T10:45:11.000Z</time>
      </trkpt>
      <trkpt lat="44.80067" lon="0.83096">
        <ele>231.1</ele>
        <time>2026-05-02T10:45:12.000Z</time>
      </trkpt>
      <trkpt lat="44.80066" lon="0.83097">
        <ele>231.5</ele>
        <time>2026-05-02T10:45:13.000Z</time>
      </trkpt>
      <trkpt lat="44.80064" lon="0.83099">
        <ele>231.4</ele>
        <time>2026-05-02T10:45:14.000Z</time>
      </trkpt>
      <trkpt lat="44.80062" lon="0.83099">
        <ele>231.2</ele>
        <time>2026-05-02T10:45:15.000Z</time>
      </trkpt>
      <trkpt lat="44.8006" lon="0.831">
        <ele>231.6</ele>
        <time>2026-05-02T10:45:16.000Z</time>
      </trkpt>
      <trkpt lat="44.80058" lon="0.83102">
        <ele>233.6</ele>
        <time>2026-05-02T10:45:17.000Z</time>
      </trkpt>
      <trkpt lat="44.80056" lon="0.83104">
        <ele>233.1</ele>
        <time>2026-05-02T10:45:18.000Z</time>
      </trkpt>
      <trkpt lat="44.80053" lon="0.83105">
        <ele>233</ele>
        <time>2026-05-02T10:45:19.000Z</time>
      </trkpt>
      <trkpt lat="44.80051" lon="0.83106">
        <ele>234.3</ele>
        <time>2026-05-02T10:45:20.000Z</time>
      </trkpt>
      <trkpt lat="44.8005" lon="0.83106">
        <ele>235.3</ele>
        <time>2026-05-02T10:45:21.000Z</time>
      </trkpt>
      <trkpt lat="44.80049" lon="0.83107">
        <ele>235.9</ele>
        <time>2026-05-02T10:45:22.000Z</time>
      </trkpt>
      <trkpt lat="44.80048" lon="0.83108">
        <ele>235.8</ele>
        <time>2026-05-02T10:45:23.000Z</time>
      </trkpt>
      <trkpt lat="44.80046" lon="0.83108">
        <ele>235</ele>
        <time>2026-05-02T10:45:24.000Z</time>
      </trkpt>
      <trkpt lat="44.80045" lon="0.83109">
        <ele>235.3</ele>
        <time>2026-05-02T10:45:25.000Z</time>
      </trkpt>
      <trkpt lat="44.80043" lon="0.83109">
        <ele>235.6</ele>
        <time>2026-05-02T10:45:26.000Z</time>
      </trkpt>
      <trkpt lat="44.80041" lon="0.8311">
        <ele>235.6</ele>
        <time>2026-05-02T10:45:27.000Z</time>
      </trkpt>
      <trkpt lat="44.8004" lon="0.83111">
        <ele>236.3</ele>
        <time>2026-05-02T10:45:28.000Z</time>
      </trkpt>
      <trkpt lat="44.80038" lon="0.83111">
        <ele>236.4</ele>
        <time>2026-05-02T10:45:29.000Z</time>
      </trkpt>
      <trkpt lat="44.80036" lon="0.83112">
        <ele>236.2</ele>
        <time>2026-05-02T10:45:30.000Z</time>
      </trkpt>
      <trkpt lat="44.80034" lon="0.83112">
        <ele>235.9</ele>
        <time>2026-05-02T10:45:31.000Z</time>
      </trkpt>
      <trkpt lat="44.80032" lon="0.83112">
        <ele>236</ele>
        <time>2026-05-02T10:45:32.000Z</time>
      </trkpt>
      <trkpt lat="44.8003" lon="0.83113">
        <ele>235.4</ele>
        <time>2026-05-02T10:45:33.000Z</time>
      </trkpt>
      <trkpt lat="44.80028" lon="0.83113">
        <ele>235.4</ele>
        <time>2026-05-02T10:45:34.000Z</time>
      </trkpt>
      <trkpt lat="44.80026" lon="0.83113">
        <ele>235.1</ele>
        <time>2026-05-02T10:45:35.000Z</time>
      </trkpt>
      <trkpt lat="44.80024" lon="0.83113">
        <ele>234.3</ele>
        <time>2026-05-02T10:45:36.000Z</time>
      </trkpt>
      <trkpt lat="44.80022" lon="0.83114">
        <ele>233.8</ele>
        <time>2026-05-02T10:45:37.000Z</time>
      </trkpt>
      <trkpt lat="44.8002" lon="0.83114">
        <ele>233.8</ele>
        <time>2026-05-02T10:45:38.000Z</time>
      </trkpt>
      <trkpt lat="44.80018" lon="0.83114">
        <ele>233.4</ele>
        <time>2026-05-02T10:45:39.000Z</time>
      </trkpt>
      <trkpt lat="44.80016" lon="0.83114">
        <ele>232.9</ele>
        <time>2026-05-02T10:45:40.000Z</time>
      </trkpt>
      <trkpt lat="44.80015" lon="0.83114">
        <ele>232.6</ele>
        <time>2026-05-02T10:45:41.000Z</time>
      </trkpt>
      <trkpt lat="44.80013" lon="0.83114">
        <ele>232.3</ele>
        <time>2026-05-02T10:45:42.000Z</time>
      </trkpt>
      <trkpt lat="44.80014" lon="0.83114">
        <ele>231.9</ele>
        <time>2026-05-02T10:45:43.000Z</time>
      </trkpt>
      <trkpt lat="44.80015" lon="0.83114">
        <ele>231.5</ele>
        <time>2026-05-02T10:45:44.000Z</time>
      </trkpt>
      <trkpt lat="44.80015" lon="0.83114">
        <ele>231.5</ele>
        <time>2026-05-02T10:45:45.000Z</time>
      </trkpt>
      <trkpt lat="44.80015" lon="0.83114">
        <ele>231.5</ele>
        <time>2026-05-02T10:45:46.000Z</time>
      </trkpt>
      <trkpt lat="44.80014" lon="0.83112">
        <ele>230.8</ele>
        <time>2026-05-02T10:45:47.000Z</time>
      </trkpt>
      <trkpt lat="44.80013" lon="0.83111">
        <ele>230.8</ele>
        <time>2026-05-02T10:45:48.000Z</time>
      </trkpt>
      <trkpt lat="44.80012" lon="0.83109">
        <ele>230.9</ele>
        <time>2026-05-02T10:45:49.000Z</time>
      </trkpt>
      <trkpt lat="44.80011" lon="0.83107">
        <ele>231.3</ele>
        <time>2026-05-02T10:45:50.000Z</time>
      </trkpt>
      <trkpt lat="44.8001" lon="0.83106">
        <ele>231.8</ele>
        <time>2026-05-02T10:45:51.000Z</time>
      </trkpt>
      <trkpt lat="44.80009" lon="0.83105">
        <ele>232.6</ele>
        <time>2026-05-02T10:45:52.000Z</time>
      </trkpt>
      <trkpt lat="44.80008" lon="0.83104">
        <ele>233</ele>
        <time>2026-05-02T10:45:53.000Z</time>
      </trkpt>
      <trkpt lat="44.80006" lon="0.83103">
        <ele>233.7</ele>
        <time>2026-05-02T10:45:54.000Z</time>
      </trkpt>
      <trkpt lat="44.80005" lon="0.83102">
        <ele>234.1</ele>
        <time>2026-05-02T10:45:55.000Z</time>
      </trkpt>
      <trkpt lat="44.80004" lon="0.83101">
        <ele>234.7</ele>
        <time>2026-05-02T10:45:56.000Z</time>
      </trkpt>
      <trkpt lat="44.80002" lon="0.831">
        <ele>235</ele>
        <time>2026-05-02T10:45:57.000Z</time>
      </trkpt>
      <trkpt lat="44.80001" lon="0.83098">
        <ele>235.2</ele>
        <time>2026-05-02T10:45:58.000Z</time>
      </trkpt>
      <trkpt lat="44.79999" lon="0.83097">
        <ele>234.9</ele>
        <time>2026-05-02T10:45:59.000Z</time>
      </trkpt>
      <trkpt lat="44.79998" lon="0.83095">
        <ele>235.2</ele>
        <time>2026-05-02T10:46:00.000Z</time>
      </trkpt>
      <trkpt lat="44.79997" lon="0.83093">
        <ele>235.1</ele>
        <time>2026-05-02T10:46:01.000Z</time>
      </trkpt>
      <trkpt lat="44.79997" lon="0.83091">
        <ele>234.4</ele>
        <time>2026-05-02T10:46:02.000Z</time>
      </trkpt>
      <trkpt lat="44.79996" lon="0.83089">
        <ele>233</ele>
        <time>2026-05-02T10:46:03.000Z</time>
      </trkpt>
      <trkpt lat="44.79995" lon="0.83087">
        <ele>232.1</ele>
        <time>2026-05-02T10:46:04.000Z</time>
      </trkpt>
      <trkpt lat="44.79995" lon="0.83087">
        <ele>232.3</ele>
        <time>2026-05-02T10:46:05.000Z</time>
      </trkpt>
      <trkpt lat="44.79995" lon="0.83084">
        <ele>231.8</ele>
        <time>2026-05-02T10:46:06.000Z</time>
      </trkpt>
      <trkpt lat="44.79995" lon="0.83083">
        <ele>230.6</ele>
        <time>2026-05-02T10:46:07.000Z</time>
      </trkpt>
      <trkpt lat="44.79995" lon="0.83083">
        <ele>230.8</ele>
        <time>2026-05-02T10:46:08.000Z</time>
      </trkpt>
      <trkpt lat="44.79995" lon="0.83083">
        <ele>230.8</ele>
        <time>2026-05-02T10:46:09.000Z</time>
      </trkpt>
      <trkpt lat="44.79994" lon="0.83082">
        <ele>231.2</ele>
        <time>2026-05-02T10:46:10.000Z</time>
      </trkpt>
      <trkpt lat="44.79992" lon="0.83082">
        <ele>231.4</ele>
        <time>2026-05-02T10:46:11.000Z</time>
      </trkpt>
      <trkpt lat="44.79991" lon="0.83084">
        <ele>232.3</ele>
        <time>2026-05-02T10:46:12.000Z</time>
      </trkpt>
      <trkpt lat="44.79993" lon="0.83087">
        <ele>234.2</ele>
        <time>2026-05-02T10:46:13.000Z</time>
      </trkpt>
      <trkpt lat="44.79993" lon="0.83087">
        <ele>234.2</ele>
        <time>2026-05-02T10:46:14.000Z</time>
      </trkpt>
      <trkpt lat="44.79993" lon="0.83087">
        <ele>234.2</ele>
        <time>2026-05-02T10:46:15.000Z</time>
      </trkpt>
      <trkpt lat="44.79993" lon="0.83087">
        <ele>234.2</ele>
        <time>2026-05-02T10:46:16.000Z</time>
      </trkpt>
      <trkpt lat="44.79993" lon="0.83087">
        <ele>234.2</ele>
        <time>2026-05-02T10:46:17.000Z</time>
      </trkpt>
      <trkpt lat="44.79993" lon="0.83087">
        <ele>234.2</ele>
        <time>2026-05-02T10:46:18.000Z</time>
      </trkpt>
      <trkpt lat="44.79993" lon="0.83087">
        <ele>234.2</ele>
        <time>2026-05-02T10:46:19.000Z</time>
      </trkpt>
      <trkpt lat="44.79993" lon="0.83087">
        <ele>234.2</ele>
        <time>2026-05-02T10:46:20.000Z</time>
      </trkpt>
      <trkpt lat="44.79993" lon="0.83087">
        <ele>234.2</ele>
        <time>2026-05-02T10:46:21.000Z</time>
      </trkpt>
      <trkpt lat="44.79993" lon="0.83087">
        <ele>234.2</ele>
        <time>2026-05-02T10:46:22.000Z</time>
      </trkpt>
      <trkpt lat="44.79993" lon="0.83087">
        <ele>234.1</ele>
        <time>2026-05-02T10:46:23.000Z</time>
      </trkpt>
      <trkpt lat="44.79994" lon="0.83087">
        <ele>233.6</ele>
        <time>2026-05-02T10:46:24.000Z</time>
      </trkpt>
      <trkpt lat="44.79994" lon="0.83087">
        <ele>233.6</ele>
        <time>2026-05-02T10:46:25.000Z</time>
      </trkpt>
      <trkpt lat="44.79995" lon="0.83088">
        <ele>234.1</ele>
        <time>2026-05-02T10:46:26.000Z</time>
      </trkpt>
      <trkpt lat="44.79996" lon="0.83089">
        <ele>234.3</ele>
        <time>2026-05-02T10:46:27.000Z</time>
      </trkpt>
      <trkpt lat="44.79997" lon="0.83089">
        <ele>235.5</ele>
        <time>2026-05-02T10:46:28.000Z</time>
      </trkpt>
      <trkpt lat="44.79997" lon="0.83089">
        <ele>236.5</ele>
        <time>2026-05-02T10:46:29.000Z</time>
      </trkpt>
      <trkpt lat="44.79998" lon="0.83089">
        <ele>237.4</ele>
        <time>2026-05-02T10:46:30.000Z</time>
      </trkpt>
      <trkpt lat="44.79999" lon="0.83089">
        <ele>239.6</ele>
        <time>2026-05-02T10:46:31.000Z</time>
      </trkpt>
      <trkpt lat="44.8" lon="0.8309">
        <ele>239.6</ele>
        <time>2026-05-02T10:46:32.000Z</time>
      </trkpt>
      <trkpt lat="44.8" lon="0.8309">
        <ele>240.8</ele>
        <time>2026-05-02T10:46:33.000Z</time>
      </trkpt>
      <trkpt lat="44.80002" lon="0.83091">
        <ele>240.2</ele>
        <time>2026-05-02T10:46:34.000Z</time>
      </trkpt>
      <trkpt lat="44.80003" lon="0.83093">
        <ele>239.9</ele>
        <time>2026-05-02T10:46:35.000Z</time>
      </trkpt>
      <trkpt lat="44.80004" lon="0.83094">
        <ele>240.5</ele>
        <time>2026-05-02T10:46:36.000Z</time>
      </trkpt>
      <trkpt lat="44.80004" lon="0.83095">
        <ele>239.7</ele>
        <time>2026-05-02T10:46:37.000Z</time>
      </trkpt>
      <trkpt lat="44.80005" lon="0.83097">
        <ele>238.8</ele>
        <time>2026-05-02T10:46:38.000Z</time>
      </trkpt>
      <trkpt lat="44.80005" lon="0.83099">
        <ele>236.9</ele>
        <time>2026-05-02T10:46:39.000Z</time>
      </trkpt>
      <trkpt lat="44.80004" lon="0.83101">
        <ele>235.3</ele>
        <time>2026-05-02T10:46:40.000Z</time>
      </trkpt>
      <trkpt lat="44.80004" lon="0.83102">
        <ele>233.8</ele>
        <time>2026-05-02T10:46:41.000Z</time>
      </trkpt>
      <trkpt lat="44.80003" lon="0.83104">
        <ele>233.4</ele>
        <time>2026-05-02T10:46:42.000Z</time>
      </trkpt>
      <trkpt lat="44.80002" lon="0.83104">
        <ele>233</ele>
        <time>2026-05-02T10:46:43.000Z</time>
      </trkpt>
      <trkpt lat="44.80001" lon="0.83104">
        <ele>232.2</ele>
        <time>2026-05-02T10:46:44.000Z</time>
      </trkpt>
      <trkpt lat="44.8" lon="0.83105">
        <ele>232.1</ele>
        <time>2026-05-02T10:46:45.000Z</time>
      </trkpt>
      <trkpt lat="44.79999" lon="0.83106">
        <ele>231.1</ele>
        <time>2026-05-02T10:46:46.000Z</time>
      </trkpt>
      <trkpt lat="44.79998" lon="0.83106">
        <ele>230.1</ele>
        <time>2026-05-02T10:46:47.000Z</time>
      </trkpt>
      <trkpt lat="44.79997" lon="0.83106">
        <ele>228.6</ele>
        <time>2026-05-02T10:46:48.000Z</time>
      </trkpt>
      <trkpt lat="44.79996" lon="0.83106">
        <ele>228.5</ele>
        <time>2026-05-02T10:46:49.000Z</time>
      </trkpt>
      <trkpt lat="44.79995" lon="0.83107">
        <ele>229.6</ele>
        <time>2026-05-02T10:46:50.000Z</time>
      </trkpt>
      <trkpt lat="44.79994" lon="0.83108">
        <ele>229</ele>
        <time>2026-05-02T10:46:51.000Z</time>
      </trkpt>
      <trkpt lat="44.79992" lon="0.83109">
        <ele>228.9</ele>
        <time>2026-05-02T10:46:52.000Z</time>
      </trkpt>
      <trkpt lat="44.79991" lon="0.83109">
        <ele>228.8</ele>
        <time>2026-05-02T10:46:53.000Z</time>
      </trkpt>
      <trkpt lat="44.79991" lon="0.8311">
        <ele>228.4</ele>
        <time>2026-05-02T10:46:54.000Z</time>
      </trkpt>
      <trkpt lat="44.79989" lon="0.83111">
        <ele>227.7</ele>
        <time>2026-05-02T10:46:55.000Z</time>
      </trkpt>
      <trkpt lat="44.79988" lon="0.83111">
        <ele>228.4</ele>
        <time>2026-05-02T10:46:56.000Z</time>
      </trkpt>
      <trkpt lat="44.79987" lon="0.83111">
        <ele>228.5</ele>
        <time>2026-05-02T10:46:57.000Z</time>
      </trkpt>
      <trkpt lat="44.79986" lon="0.83111">
        <ele>228.4</ele>
        <time>2026-05-02T10:46:58.000Z</time>
      </trkpt>
      <trkpt lat="44.79985" lon="0.83112">
        <ele>229.2</ele>
        <time>2026-05-02T10:46:59.000Z</time>
      </trkpt>
      <trkpt lat="44.79984" lon="0.83113">
        <ele>228.7</ele>
        <time>2026-05-02T10:47:00.000Z</time>
      </trkpt>
      <trkpt lat="44.79983" lon="0.83114">
        <ele>228.6</ele>
        <time>2026-05-02T10:47:01.000Z</time>
      </trkpt>
      <trkpt lat="44.79982" lon="0.83114">
        <ele>228.3</ele>
        <time>2026-05-02T10:47:02.000Z</time>
      </trkpt>
      <trkpt lat="44.79981" lon="0.83116">
        <ele>229.4</ele>
        <time>2026-05-02T10:47:03.000Z</time>
      </trkpt>
      <trkpt lat="44.7998" lon="0.83118">
        <ele>230.5</ele>
        <time>2026-05-02T10:47:04.000Z</time>
      </trkpt>
      <trkpt lat="44.79979" lon="0.83119">
        <ele>231.6</ele>
        <time>2026-05-02T10:47:05.000Z</time>
      </trkpt>
      <trkpt lat="44.79978" lon="0.8312">
        <ele>232.3</ele>
        <time>2026-05-02T10:47:06.000Z</time>
      </trkpt>
      <trkpt lat="44.79977" lon="0.83121">
        <ele>232.1</ele>
        <time>2026-05-02T10:47:07.000Z</time>
      </trkpt>
      <trkpt lat="44.79975" lon="0.83122">
        <ele>231.7</ele>
        <time>2026-05-02T10:47:08.000Z</time>
      </trkpt>
      <trkpt lat="44.79974" lon="0.83123">
        <ele>231.6</ele>
        <time>2026-05-02T10:47:09.000Z</time>
      </trkpt>
      <trkpt lat="44.79973" lon="0.83124">
        <ele>231.3</ele>
        <time>2026-05-02T10:47:10.000Z</time>
      </trkpt>
      <trkpt lat="44.79972" lon="0.83124">
        <ele>231.5</ele>
        <time>2026-05-02T10:47:11.000Z</time>
      </trkpt>
      <trkpt lat="44.79971" lon="0.83125">
        <ele>232.2</ele>
        <time>2026-05-02T10:47:12.000Z</time>
      </trkpt>
      <trkpt lat="44.7997" lon="0.83126">
        <ele>232.8</ele>
        <time>2026-05-02T10:47:13.000Z</time>
      </trkpt>
      <trkpt lat="44.79969" lon="0.83127">
        <ele>233.3</ele>
        <time>2026-05-02T10:47:14.000Z</time>
      </trkpt>
      <trkpt lat="44.79968" lon="0.83129">
        <ele>234.1</ele>
        <time>2026-05-02T10:47:15.000Z</time>
      </trkpt>
      <trkpt lat="44.79967" lon="0.83129">
        <ele>233.3</ele>
        <time>2026-05-02T10:47:16.000Z</time>
      </trkpt>
      <trkpt lat="44.79966" lon="0.83131">
        <ele>233.3</ele>
        <time>2026-05-02T10:47:17.000Z</time>
      </trkpt>
      <trkpt lat="44.79965" lon="0.83132">
        <ele>233.6</ele>
        <time>2026-05-02T10:47:18.000Z</time>
      </trkpt>
      <trkpt lat="44.79964" lon="0.83133">
        <ele>234.3</ele>
        <time>2026-05-02T10:47:19.000Z</time>
      </trkpt>
      <trkpt lat="44.79963" lon="0.83134">
        <ele>234.4</ele>
        <time>2026-05-02T10:47:20.000Z</time>
      </trkpt>
      <trkpt lat="44.79962" lon="0.83135">
        <ele>234.4</ele>
        <time>2026-05-02T10:47:21.000Z</time>
      </trkpt>
      <trkpt lat="44.79961" lon="0.83136">
        <ele>234.2</ele>
        <time>2026-05-02T10:47:22.000Z</time>
      </trkpt>
      <trkpt lat="44.7996" lon="0.83138">
        <ele>234.5</ele>
        <time>2026-05-02T10:47:23.000Z</time>
      </trkpt>
      <trkpt lat="44.79959" lon="0.83139">
        <ele>234.7</ele>
        <time>2026-05-02T10:47:24.000Z</time>
      </trkpt>
      <trkpt lat="44.79958" lon="0.8314">
        <ele>235.4</ele>
        <time>2026-05-02T10:47:25.000Z</time>
      </trkpt>
      <trkpt lat="44.79957" lon="0.83142">
        <ele>235.6</ele>
        <time>2026-05-02T10:47:26.000Z</time>
      </trkpt>
      <trkpt lat="44.79955" lon="0.83143">
        <ele>235.6</ele>
        <time>2026-05-02T10:47:27.000Z</time>
      </trkpt>
      <trkpt lat="44.79954" lon="0.83144">
        <ele>236</ele>
        <time>2026-05-02T10:47:28.000Z</time>
      </trkpt>
      <trkpt lat="44.79953" lon="0.83145">
        <ele>235.9</ele>
        <time>2026-05-02T10:47:29.000Z</time>
      </trkpt>
      <trkpt lat="44.79952" lon="0.83146">
        <ele>234.8</ele>
        <time>2026-05-02T10:47:30.000Z</time>
      </trkpt>
      <trkpt lat="44.79951" lon="0.83148">
        <ele>236.2</ele>
        <time>2026-05-02T10:47:31.000Z</time>
      </trkpt>
      <trkpt lat="44.7995" lon="0.83149">
        <ele>235.7</ele>
        <time>2026-05-02T10:47:32.000Z</time>
      </trkpt>
      <trkpt lat="44.79948" lon="0.8315">
        <ele>235.4</ele>
        <time>2026-05-02T10:47:33.000Z</time>
      </trkpt>
      <trkpt lat="44.79947" lon="0.83151">
        <ele>235.2</ele>
        <time>2026-05-02T10:47:34.000Z</time>
      </trkpt>
      <trkpt lat="44.79946" lon="0.83152">
        <ele>233.7</ele>
        <time>2026-05-02T10:47:35.000Z</time>
      </trkpt>
      <trkpt lat="44.79945" lon="0.83154">
        <ele>234</ele>
        <time>2026-05-02T10:47:36.000Z</time>
      </trkpt>
      <trkpt lat="44.79944" lon="0.83155">
        <ele>234</ele>
        <time>2026-05-02T10:47:37.000Z</time>
      </trkpt>
      <trkpt lat="44.79943" lon="0.83156">
        <ele>234</ele>
        <time>2026-05-02T10:47:38.000Z</time>
      </trkpt>
      <trkpt lat="44.79942" lon="0.83158">
        <ele>233.1</ele>
        <time>2026-05-02T10:47:39.000Z</time>
      </trkpt>
      <trkpt lat="44.79941" lon="0.83159">
        <ele>232.6</ele>
        <time>2026-05-02T10:47:40.000Z</time>
      </trkpt>
      <trkpt lat="44.7994" lon="0.83161">
        <ele>232.5</ele>
        <time>2026-05-02T10:47:41.000Z</time>
      </trkpt>
      <trkpt lat="44.79939" lon="0.83163">
        <ele>233.8</ele>
        <time>2026-05-02T10:47:42.000Z</time>
      </trkpt>
      <trkpt lat="44.79938" lon="0.83164">
        <ele>233.7</ele>
        <time>2026-05-02T10:47:43.000Z</time>
      </trkpt>
      <trkpt lat="44.79937" lon="0.83166">
        <ele>233.4</ele>
        <time>2026-05-02T10:47:44.000Z</time>
      </trkpt>
      <trkpt lat="44.79935" lon="0.83167">
        <ele>233.1</ele>
        <time>2026-05-02T10:47:45.000Z</time>
      </trkpt>
      <trkpt lat="44.79934" lon="0.83169">
        <ele>234.1</ele>
        <time>2026-05-02T10:47:46.000Z</time>
      </trkpt>
      <trkpt lat="44.79933" lon="0.83171">
        <ele>234.6</ele>
        <time>2026-05-02T10:47:47.000Z</time>
      </trkpt>
      <trkpt lat="44.79932" lon="0.83172">
        <ele>234.6</ele>
        <time>2026-05-02T10:47:48.000Z</time>
      </trkpt>
      <trkpt lat="44.79931" lon="0.83173">
        <ele>232.9</ele>
        <time>2026-05-02T10:47:49.000Z</time>
      </trkpt>
      <trkpt lat="44.7993" lon="0.83176">
        <ele>232.7</ele>
        <time>2026-05-02T10:47:50.000Z</time>
      </trkpt>
      <trkpt lat="44.79929" lon="0.83178">
        <ele>232.2</ele>
        <time>2026-05-02T10:47:51.000Z</time>
      </trkpt>
      <trkpt lat="44.79928" lon="0.8318">
        <ele>232.6</ele>
        <time>2026-05-02T10:47:52.000Z</time>
      </trkpt>
      <trkpt lat="44.79927" lon="0.83182">
        <ele>232.8</ele>
        <time>2026-05-02T10:47:53.000Z</time>
      </trkpt>
      <trkpt lat="44.79927" lon="0.83184">
        <ele>232.5</ele>
        <time>2026-05-02T10:47:54.000Z</time>
      </trkpt>
      <trkpt lat="44.79926" lon="0.83186">
        <ele>231.7</ele>
        <time>2026-05-02T10:47:55.000Z</time>
      </trkpt>
      <trkpt lat="44.79925" lon="0.83188">
        <ele>230.1</ele>
        <time>2026-05-02T10:47:56.000Z</time>
      </trkpt>
      <trkpt lat="44.79924" lon="0.8319">
        <ele>230.2</ele>
        <time>2026-05-02T10:47:57.000Z</time>
      </trkpt>
      <trkpt lat="44.79923" lon="0.83192">
        <ele>228.9</ele>
        <time>2026-05-02T10:47:58.000Z</time>
      </trkpt>
      <trkpt lat="44.79921" lon="0.83194">
        <ele>228.4</ele>
        <time>2026-05-02T10:47:59.000Z</time>
      </trkpt>
      <trkpt lat="44.7992" lon="0.83196">
        <ele>227.8</ele>
        <time>2026-05-02T10:48:00.000Z</time>
      </trkpt>
      <trkpt lat="44.79918" lon="0.83198">
        <ele>227.5</ele>
        <time>2026-05-02T10:48:01.000Z</time>
      </trkpt>
      <trkpt lat="44.79917" lon="0.83199">
        <ele>227.6</ele>
        <time>2026-05-02T10:48:02.000Z</time>
      </trkpt>
      <trkpt lat="44.79915" lon="0.832">
        <ele>226.7</ele>
        <time>2026-05-02T10:48:03.000Z</time>
      </trkpt>
      <trkpt lat="44.79913" lon="0.83202">
        <ele>226</ele>
        <time>2026-05-02T10:48:04.000Z</time>
      </trkpt>
      <trkpt lat="44.79911" lon="0.83203">
        <ele>225.6</ele>
        <time>2026-05-02T10:48:05.000Z</time>
      </trkpt>
      <trkpt lat="44.79909" lon="0.83204">
        <ele>225.4</ele>
        <time>2026-05-02T10:48:06.000Z</time>
      </trkpt>
      <trkpt lat="44.79907" lon="0.83205">
        <ele>224.8</ele>
        <time>2026-05-02T10:48:07.000Z</time>
      </trkpt>
      <trkpt lat="44.79905" lon="0.83206">
        <ele>224.6</ele>
        <time>2026-05-02T10:48:08.000Z</time>
      </trkpt>
      <trkpt lat="44.79904" lon="0.83207">
        <ele>225.1</ele>
        <time>2026-05-02T10:48:09.000Z</time>
      </trkpt>
      <trkpt lat="44.79901" lon="0.83208">
        <ele>224.8</ele>
        <time>2026-05-02T10:48:10.000Z</time>
      </trkpt>
      <trkpt lat="44.799" lon="0.83209">
        <ele>224.1</ele>
        <time>2026-05-02T10:48:11.000Z</time>
      </trkpt>
      <trkpt lat="44.79897" lon="0.83211">
        <ele>223.1</ele>
        <time>2026-05-02T10:48:12.000Z</time>
      </trkpt>
      <trkpt lat="44.79896" lon="0.83212">
        <ele>223.6</ele>
        <time>2026-05-02T10:48:13.000Z</time>
      </trkpt>
      <trkpt lat="44.79893" lon="0.83213">
        <ele>223.7</ele>
        <time>2026-05-02T10:48:14.000Z</time>
      </trkpt>
      <trkpt lat="44.79892" lon="0.83214">
        <ele>223.4</ele>
        <time>2026-05-02T10:48:15.000Z</time>
      </trkpt>
      <trkpt lat="44.7989" lon="0.83215">
        <ele>224</ele>
        <time>2026-05-02T10:48:16.000Z</time>
      </trkpt>
      <trkpt lat="44.79889" lon="0.83217">
        <ele>224.4</ele>
        <time>2026-05-02T10:48:17.000Z</time>
      </trkpt>
      <trkpt lat="44.79887" lon="0.83218">
        <ele>224.5</ele>
        <time>2026-05-02T10:48:18.000Z</time>
      </trkpt>
      <trkpt lat="44.79886" lon="0.83219">
        <ele>225</ele>
        <time>2026-05-02T10:48:19.000Z</time>
      </trkpt>
      <trkpt lat="44.79884" lon="0.8322">
        <ele>224.7</ele>
        <time>2026-05-02T10:48:20.000Z</time>
      </trkpt>
      <trkpt lat="44.79883" lon="0.83222">
        <ele>225.2</ele>
        <time>2026-05-02T10:48:21.000Z</time>
      </trkpt>
      <trkpt lat="44.79881" lon="0.83223">
        <ele>225.6</ele>
        <time>2026-05-02T10:48:22.000Z</time>
      </trkpt>
      <trkpt lat="44.79879" lon="0.83224">
        <ele>224.8</ele>
        <time>2026-05-02T10:48:23.000Z</time>
      </trkpt>
      <trkpt lat="44.79877" lon="0.83225">
        <ele>225.4</ele>
        <time>2026-05-02T10:48:24.000Z</time>
      </trkpt>
      <trkpt lat="44.79875" lon="0.83227">
        <ele>225.8</ele>
        <time>2026-05-02T10:48:25.000Z</time>
      </trkpt>
      <trkpt lat="44.79873" lon="0.83228">
        <ele>225.5</ele>
        <time>2026-05-02T10:48:26.000Z</time>
      </trkpt>
      <trkpt lat="44.79872" lon="0.83229">
        <ele>225.3</ele>
        <time>2026-05-02T10:48:27.000Z</time>
      </trkpt>
      <trkpt lat="44.79871" lon="0.83229">
        <ele>224.7</ele>
        <time>2026-05-02T10:48:28.000Z</time>
      </trkpt>
      <trkpt lat="44.7987" lon="0.8323">
        <ele>223.9</ele>
        <time>2026-05-02T10:48:29.000Z</time>
      </trkpt>
      <trkpt lat="44.79869" lon="0.83231">
        <ele>223.2</ele>
        <time>2026-05-02T10:48:30.000Z</time>
      </trkpt>
      <trkpt lat="44.79866" lon="0.83233">
        <ele>222.3</ele>
        <time>2026-05-02T10:48:31.000Z</time>
      </trkpt>
      <trkpt lat="44.79864" lon="0.83234">
        <ele>222.5</ele>
        <time>2026-05-02T10:48:32.000Z</time>
      </trkpt>
      <trkpt lat="44.79862" lon="0.83235">
        <ele>222.3</ele>
        <time>2026-05-02T10:48:33.000Z</time>
      </trkpt>
      <trkpt lat="44.7986" lon="0.83236">
        <ele>222.2</ele>
        <time>2026-05-02T10:48:34.000Z</time>
      </trkpt>
      <trkpt lat="44.79858" lon="0.83237">
        <ele>222.1</ele>
        <time>2026-05-02T10:48:35.000Z</time>
      </trkpt>
      <trkpt lat="44.79856" lon="0.83238">
        <ele>222.3</ele>
        <time>2026-05-02T10:48:36.000Z</time>
      </trkpt>
      <trkpt lat="44.79854" lon="0.83239">
        <ele>222.2</ele>
        <time>2026-05-02T10:48:37.000Z</time>
      </trkpt>
      <trkpt lat="44.79852" lon="0.83239">
        <ele>220.2</ele>
        <time>2026-05-02T10:48:38.000Z</time>
      </trkpt>
      <trkpt lat="44.79847" lon="0.8324">
        <ele>218.8</ele>
        <time>2026-05-02T10:48:39.000Z</time>
      </trkpt>
      <trkpt lat="44.79843" lon="0.8324">
        <ele>217.9</ele>
        <time>2026-05-02T10:48:40.000Z</time>
      </trkpt>
      <trkpt lat="44.7984" lon="0.83241">
        <ele>217.5</ele>
        <time>2026-05-02T10:48:41.000Z</time>
      </trkpt>
      <trkpt lat="44.79838" lon="0.83242">
        <ele>217.6</ele>
        <time>2026-05-02T10:48:42.000Z</time>
      </trkpt>
      <trkpt lat="44.79836" lon="0.83243">
        <ele>217.1</ele>
        <time>2026-05-02T10:48:43.000Z</time>
      </trkpt>
      <trkpt lat="44.79833" lon="0.83244">
        <ele>216.9</ele>
        <time>2026-05-02T10:48:44.000Z</time>
      </trkpt>
      <trkpt lat="44.79831" lon="0.83245">
        <ele>216.8</ele>
        <time>2026-05-02T10:48:45.000Z</time>
      </trkpt>
      <trkpt lat="44.79829" lon="0.83246">
        <ele>216.4</ele>
        <time>2026-05-02T10:48:46.000Z</time>
      </trkpt>
      <trkpt lat="44.79827" lon="0.83247">
        <ele>216.2</ele>
        <time>2026-05-02T10:48:47.000Z</time>
      </trkpt>
      <trkpt lat="44.79824" lon="0.83248">
        <ele>216.2</ele>
        <time>2026-05-02T10:48:48.000Z</time>
      </trkpt>
      <trkpt lat="44.79822" lon="0.83249">
        <ele>216.3</ele>
        <time>2026-05-02T10:48:49.000Z</time>
      </trkpt>
      <trkpt lat="44.7982" lon="0.8325">
        <ele>215.5</ele>
        <time>2026-05-02T10:48:50.000Z</time>
      </trkpt>
      <trkpt lat="44.79818" lon="0.83251">
        <ele>215.5</ele>
        <time>2026-05-02T10:48:51.000Z</time>
      </trkpt>
      <trkpt lat="44.79817" lon="0.83252">
        <ele>215.8</ele>
        <time>2026-05-02T10:48:52.000Z</time>
      </trkpt>
      <trkpt lat="44.79815" lon="0.83253">
        <ele>215.2</ele>
        <time>2026-05-02T10:48:53.000Z</time>
      </trkpt>
      <trkpt lat="44.79813" lon="0.83253">
        <ele>214.2</ele>
        <time>2026-05-02T10:48:54.000Z</time>
      </trkpt>
      <trkpt lat="44.79811" lon="0.83254">
        <ele>214.1</ele>
        <time>2026-05-02T10:48:55.000Z</time>
      </trkpt>
      <trkpt lat="44.7981" lon="0.83255">
        <ele>214</ele>
        <time>2026-05-02T10:48:56.000Z</time>
      </trkpt>
      <trkpt lat="44.79808" lon="0.83255">
        <ele>213.8</ele>
        <time>2026-05-02T10:48:57.000Z</time>
      </trkpt>
      <trkpt lat="44.79806" lon="0.83256">
        <ele>213.7</ele>
        <time>2026-05-02T10:48:58.000Z</time>
      </trkpt>
      <trkpt lat="44.79804" lon="0.83257">
        <ele>212.8</ele>
        <time>2026-05-02T10:48:59.000Z</time>
      </trkpt>
      <trkpt lat="44.79802" lon="0.83257">
        <ele>212.7</ele>
        <time>2026-05-02T10:49:00.000Z</time>
      </trkpt>
      <trkpt lat="44.79801" lon="0.83258">
        <ele>212.5</ele>
        <time>2026-05-02T10:49:01.000Z</time>
      </trkpt>
      <trkpt lat="44.79799" lon="0.83259">
        <ele>212.6</ele>
        <time>2026-05-02T10:49:02.000Z</time>
      </trkpt>
      <trkpt lat="44.79797" lon="0.83259">
        <ele>212.3</ele>
        <time>2026-05-02T10:49:03.000Z</time>
      </trkpt>
      <trkpt lat="44.79796" lon="0.83259">
        <ele>212.2</ele>
        <time>2026-05-02T10:49:04.000Z</time>
      </trkpt>
      <trkpt lat="44.79794" lon="0.83259">
        <ele>212.4</ele>
        <time>2026-05-02T10:49:05.000Z</time>
      </trkpt>
      <trkpt lat="44.79792" lon="0.83259">
        <ele>211.3</ele>
        <time>2026-05-02T10:49:06.000Z</time>
      </trkpt>
      <trkpt lat="44.79791" lon="0.8326">
        <ele>211.1</ele>
        <time>2026-05-02T10:49:07.000Z</time>
      </trkpt>
      <trkpt lat="44.7979" lon="0.8326">
        <ele>210.7</ele>
        <time>2026-05-02T10:49:08.000Z</time>
      </trkpt>
      <trkpt lat="44.79788" lon="0.83261">
        <ele>211.1</ele>
        <time>2026-05-02T10:49:09.000Z</time>
      </trkpt>
      <trkpt lat="44.79786" lon="0.83262">
        <ele>211.8</ele>
        <time>2026-05-02T10:49:10.000Z</time>
      </trkpt>
      <trkpt lat="44.79784" lon="0.83264">
        <ele>213.1</ele>
        <time>2026-05-02T10:49:11.000Z</time>
      </trkpt>
      <trkpt lat="44.79782" lon="0.83265">
        <ele>213.5</ele>
        <time>2026-05-02T10:49:12.000Z</time>
      </trkpt>
      <trkpt lat="44.7978" lon="0.83265">
        <ele>212.8</ele>
        <time>2026-05-02T10:49:13.000Z</time>
      </trkpt>
      <trkpt lat="44.79779" lon="0.83266">
        <ele>212.7</ele>
        <time>2026-05-02T10:49:14.000Z</time>
      </trkpt>
      <trkpt lat="44.79777" lon="0.83267">
        <ele>212.2</ele>
        <time>2026-05-02T10:49:15.000Z</time>
      </trkpt>
      <trkpt lat="44.79775" lon="0.83267">
        <ele>212.1</ele>
        <time>2026-05-02T10:49:16.000Z</time>
      </trkpt>
      <trkpt lat="44.79774" lon="0.83268">
        <ele>212</ele>
        <time>2026-05-02T10:49:17.000Z</time>
      </trkpt>
      <trkpt lat="44.79772" lon="0.83268">
        <ele>212.1</ele>
        <time>2026-05-02T10:49:18.000Z</time>
      </trkpt>
      <trkpt lat="44.79771" lon="0.83268">
        <ele>211.8</ele>
        <time>2026-05-02T10:49:19.000Z</time>
      </trkpt>
      <trkpt lat="44.79769" lon="0.83268">
        <ele>211.4</ele>
        <time>2026-05-02T10:49:20.000Z</time>
      </trkpt>
      <trkpt lat="44.79768" lon="0.83268">
        <ele>211.5</ele>
        <time>2026-05-02T10:49:21.000Z</time>
      </trkpt>
      <trkpt lat="44.79767" lon="0.83269">
        <ele>211.3</ele>
        <time>2026-05-02T10:49:22.000Z</time>
      </trkpt>
      <trkpt lat="44.79765" lon="0.83269">
        <ele>211.2</ele>
        <time>2026-05-02T10:49:23.000Z</time>
      </trkpt>
      <trkpt lat="44.79763" lon="0.83269">
        <ele>210.7</ele>
        <time>2026-05-02T10:49:24.000Z</time>
      </trkpt>
      <trkpt lat="44.79761" lon="0.8327">
        <ele>210.6</ele>
        <time>2026-05-02T10:49:25.000Z</time>
      </trkpt>
      <trkpt lat="44.7976" lon="0.8327">
        <ele>210.4</ele>
        <time>2026-05-02T10:49:26.000Z</time>
      </trkpt>
      <trkpt lat="44.79758" lon="0.8327">
        <ele>209.9</ele>
        <time>2026-05-02T10:49:27.000Z</time>
      </trkpt>
      <trkpt lat="44.79757" lon="0.8327">
        <ele>210</ele>
        <time>2026-05-02T10:49:28.000Z</time>
      </trkpt>
      <trkpt lat="44.79755" lon="0.8327">
        <ele>209.4</ele>
        <time>2026-05-02T10:49:29.000Z</time>
      </trkpt>
      <trkpt lat="44.79753" lon="0.8327">
        <ele>209.1</ele>
        <time>2026-05-02T10:49:30.000Z</time>
      </trkpt>
      <trkpt lat="44.79752" lon="0.8327">
        <ele>209</ele>
        <time>2026-05-02T10:49:31.000Z</time>
      </trkpt>
      <trkpt lat="44.7975" lon="0.83269">
        <ele>209.6</ele>
        <time>2026-05-02T10:49:32.000Z</time>
      </trkpt>
      <trkpt lat="44.79749" lon="0.8327">
        <ele>209.4</ele>
        <time>2026-05-02T10:49:33.000Z</time>
      </trkpt>
      <trkpt lat="44.79747" lon="0.8327">
        <ele>209.1</ele>
        <time>2026-05-02T10:49:34.000Z</time>
      </trkpt>
      <trkpt lat="44.79746" lon="0.8327">
        <ele>208.7</ele>
        <time>2026-05-02T10:49:35.000Z</time>
      </trkpt>
      <trkpt lat="44.79744" lon="0.83267">
        <ele>208.9</ele>
        <time>2026-05-02T10:49:36.000Z</time>
      </trkpt>
      <trkpt lat="44.79745" lon="0.83264">
        <ele>207.4</ele>
        <time>2026-05-02T10:49:37.000Z</time>
      </trkpt>
      <trkpt lat="44.79742" lon="0.83269">
        <ele>206.1</ele>
        <time>2026-05-02T10:49:38.000Z</time>
      </trkpt>
      <trkpt lat="44.79739" lon="0.83272">
        <ele>206.7</ele>
        <time>2026-05-02T10:49:39.000Z</time>
      </trkpt>
      <trkpt lat="44.79737" lon="0.83275">
        <ele>207.4</ele>
        <time>2026-05-02T10:49:40.000Z</time>
      </trkpt>
      <trkpt lat="44.79736" lon="0.83278">
        <ele>207.1</ele>
        <time>2026-05-02T10:49:41.000Z</time>
      </trkpt>
      <trkpt lat="44.79734" lon="0.83281">
        <ele>207.3</ele>
        <time>2026-05-02T10:49:42.000Z</time>
      </trkpt>
      <trkpt lat="44.79733" lon="0.83283">
        <ele>207.3</ele>
        <time>2026-05-02T10:49:43.000Z</time>
      </trkpt>
      <trkpt lat="44.79733" lon="0.83285">
        <ele>207.6</ele>
        <time>2026-05-02T10:49:44.000Z</time>
      </trkpt>
      <trkpt lat="44.79732" lon="0.83287">
        <ele>207</ele>
        <time>2026-05-02T10:49:45.000Z</time>
      </trkpt>
      <trkpt lat="44.79734" lon="0.83287">
        <ele>203.7</ele>
        <time>2026-05-02T10:49:46.000Z</time>
      </trkpt>
      <trkpt lat="44.79734" lon="0.83287">
        <ele>205.7</ele>
        <time>2026-05-02T10:49:47.000Z</time>
      </trkpt>
      <trkpt lat="44.79732" lon="0.83288">
        <ele>207.6</ele>
        <time>2026-05-02T10:49:48.000Z</time>
      </trkpt>
      <trkpt lat="44.79731" lon="0.83289">
        <ele>207.5</ele>
        <time>2026-05-02T10:49:49.000Z</time>
      </trkpt>
      <trkpt lat="44.79729" lon="0.83288">
        <ele>206.9</ele>
        <time>2026-05-02T10:49:50.000Z</time>
      </trkpt>
      <trkpt lat="44.79728" lon="0.83287">
        <ele>206.6</ele>
        <time>2026-05-02T10:49:51.000Z</time>
      </trkpt>
      <trkpt lat="44.79726" lon="0.83287">
        <ele>206.2</ele>
        <time>2026-05-02T10:49:52.000Z</time>
      </trkpt>
      <trkpt lat="44.79726" lon="0.83288">
        <ele>206.1</ele>
        <time>2026-05-02T10:49:53.000Z</time>
      </trkpt>
      <trkpt lat="44.79726" lon="0.83289">
        <ele>205.6</ele>
        <time>2026-05-02T10:49:54.000Z</time>
      </trkpt>
      <trkpt lat="44.79725" lon="0.8329">
        <ele>205.5</ele>
        <time>2026-05-02T10:49:55.000Z</time>
      </trkpt>
      <trkpt lat="44.79725" lon="0.83292">
        <ele>204.7</ele>
        <time>2026-05-02T10:49:56.000Z</time>
      </trkpt>
      <trkpt lat="44.79724" lon="0.83293">
        <ele>205.4</ele>
        <time>2026-05-02T10:49:57.000Z</time>
      </trkpt>
      <trkpt lat="44.79723" lon="0.83294">
        <ele>205.9</ele>
        <time>2026-05-02T10:49:58.000Z</time>
      </trkpt>
      <trkpt lat="44.79723" lon="0.83294">
        <ele>206.3</ele>
        <time>2026-05-02T10:49:59.000Z</time>
      </trkpt>
      <trkpt lat="44.79723" lon="0.83295">
        <ele>206.3</ele>
        <time>2026-05-02T10:50:00.000Z</time>
      </trkpt>
      <trkpt lat="44.79722" lon="0.83296">
        <ele>207.7</ele>
        <time>2026-05-02T10:50:01.000Z</time>
      </trkpt>
      <trkpt lat="44.79721" lon="0.83296">
        <ele>208.1</ele>
        <time>2026-05-02T10:50:02.000Z</time>
      </trkpt>
      <trkpt lat="44.7972" lon="0.83297">
        <ele>208.4</ele>
        <time>2026-05-02T10:50:03.000Z</time>
      </trkpt>
      <trkpt lat="44.79718" lon="0.83297">
        <ele>208.6</ele>
        <time>2026-05-02T10:50:04.000Z</time>
      </trkpt>
      <trkpt lat="44.79717" lon="0.83297">
        <ele>208.9</ele>
        <time>2026-05-02T10:50:05.000Z</time>
      </trkpt>
      <trkpt lat="44.79715" lon="0.83297">
        <ele>209</ele>
        <time>2026-05-02T10:50:06.000Z</time>
      </trkpt>
      <trkpt lat="44.79714" lon="0.83297">
        <ele>209.3</ele>
        <time>2026-05-02T10:50:07.000Z</time>
      </trkpt>
      <trkpt lat="44.79713" lon="0.83297">
        <ele>209.4</ele>
        <time>2026-05-02T10:50:08.000Z</time>
      </trkpt>
      <trkpt lat="44.79712" lon="0.83298">
        <ele>210.3</ele>
        <time>2026-05-02T10:50:09.000Z</time>
      </trkpt>
      <trkpt lat="44.7971" lon="0.83298">
        <ele>210.3</ele>
        <time>2026-05-02T10:50:10.000Z</time>
      </trkpt>
      <trkpt lat="44.79708" lon="0.83298">
        <ele>210.6</ele>
        <time>2026-05-02T10:50:11.000Z</time>
      </trkpt>
      <trkpt lat="44.79707" lon="0.83298">
        <ele>211.4</ele>
        <time>2026-05-02T10:50:12.000Z</time>
      </trkpt>
      <trkpt lat="44.79705" lon="0.83298">
        <ele>210.7</ele>
        <time>2026-05-02T10:50:13.000Z</time>
      </trkpt>
      <trkpt lat="44.79709" lon="0.83297">
        <ele>210.9</ele>
        <time>2026-05-02T10:50:14.000Z</time>
      </trkpt>
      <trkpt lat="44.7971" lon="0.83296">
        <ele>210.9</ele>
        <time>2026-05-02T10:50:15.000Z</time>
      </trkpt>
      <trkpt lat="44.79711" lon="0.83296">
        <ele>210.9</ele>
        <time>2026-05-02T10:50:16.000Z</time>
      </trkpt>
      <trkpt lat="44.79711" lon="0.83296">
        <ele>210.9</ele>
        <time>2026-05-02T10:50:17.000Z</time>
      </trkpt>
      <trkpt lat="44.79711" lon="0.83296">
        <ele>210.9</ele>
        <time>2026-05-02T10:50:18.000Z</time>
      </trkpt>
      <trkpt lat="44.79711" lon="0.83296">
        <ele>210.9</ele>
        <time>2026-05-02T10:50:19.000Z</time>
      </trkpt>
      <trkpt lat="44.79711" lon="0.83296">
        <ele>210.9</ele>
        <time>2026-05-02T10:50:20.000Z</time>
      </trkpt>
      <trkpt lat="44.79711" lon="0.83296">
        <ele>210.9</ele>
        <time>2026-05-02T10:50:21.000Z</time>
      </trkpt>
      <trkpt lat="44.79711" lon="0.83296">
        <ele>210.9</ele>
        <time>2026-05-02T10:50:22.000Z</time>
      </trkpt>
      <trkpt lat="44.79711" lon="0.83296">
        <ele>210.9</ele>
        <time>2026-05-02T10:50:23.000Z</time>
      </trkpt>
      <trkpt lat="44.79711" lon="0.83296">
        <ele>210.9</ele>
        <time>2026-05-02T10:50:24.000Z</time>
      </trkpt>
      <trkpt lat="44.79711" lon="0.83296">
        <ele>210.9</ele>
        <time>2026-05-02T10:50:25.000Z</time>
      </trkpt>
      <trkpt lat="44.79711" lon="0.83296">
        <ele>211</ele>
        <time>2026-05-02T10:50:26.000Z</time>
      </trkpt>
      <trkpt lat="44.79711" lon="0.83296">
        <ele>211</ele>
        <time>2026-05-02T10:50:27.000Z</time>
      </trkpt>
      <trkpt lat="44.79711" lon="0.83296">
        <ele>211</ele>
        <time>2026-05-02T10:50:28.000Z</time>
      </trkpt>
      <trkpt lat="44.79711" lon="0.83296">
        <ele>211</ele>
        <time>2026-05-02T10:50:29.000Z</time>
      </trkpt>
      <trkpt lat="44.79711" lon="0.83296">
        <ele>211</ele>
        <time>2026-05-02T10:50:30.000Z</time>
      </trkpt>
      <trkpt lat="44.79711" lon="0.83296">
        <ele>211</ele>
        <time>2026-05-02T10:50:31.000Z</time>
      </trkpt>
      <trkpt lat="44.79711" lon="0.83296">
        <ele>211</ele>
        <time>2026-05-02T10:50:32.000Z</time>
      </trkpt>
      <trkpt lat="44.7971" lon="0.83297">
        <ele>210.9</ele>
        <time>2026-05-02T10:50:33.000Z</time>
      </trkpt>
      <trkpt lat="44.7971" lon="0.83296">
        <ele>210.6</ele>
        <time>2026-05-02T10:50:34.000Z</time>
      </trkpt>
      <trkpt lat="44.79709" lon="0.83296">
        <ele>210.1</ele>
        <time>2026-05-02T10:50:35.000Z</time>
      </trkpt>
      <trkpt lat="44.79709" lon="0.83296">
        <ele>210.1</ele>
        <time>2026-05-02T10:50:36.000Z</time>
      </trkpt>
      <trkpt lat="44.79709" lon="0.83296">
        <ele>209.7</ele>
        <time>2026-05-02T10:50:37.000Z</time>
      </trkpt>
      <trkpt lat="44.79708" lon="0.83295">
        <ele>209.5</ele>
        <time>2026-05-02T10:50:38.000Z</time>
      </trkpt>
      <trkpt lat="44.79707" lon="0.83295">
        <ele>209</ele>
        <time>2026-05-02T10:50:39.000Z</time>
      </trkpt>
      <trkpt lat="44.79705" lon="0.83295">
        <ele>209</ele>
        <time>2026-05-02T10:50:40.000Z</time>
      </trkpt>
      <trkpt lat="44.79705" lon="0.83295">
        <ele>208.6</ele>
        <time>2026-05-02T10:50:41.000Z</time>
      </trkpt>
      <trkpt lat="44.79704" lon="0.83295">
        <ele>208.6</ele>
        <time>2026-05-02T10:50:42.000Z</time>
      </trkpt>
      <trkpt lat="44.79704" lon="0.83295">
        <ele>208.6</ele>
        <time>2026-05-02T10:50:43.000Z</time>
      </trkpt>
      <trkpt lat="44.79703" lon="0.83295">
        <ele>208.8</ele>
        <time>2026-05-02T10:50:44.000Z</time>
      </trkpt>
      <trkpt lat="44.79703" lon="0.83295">
        <ele>209.5</ele>
        <time>2026-05-02T10:50:45.000Z</time>
      </trkpt>
      <trkpt lat="44.79701" lon="0.83292">
        <ele>208</ele>
        <time>2026-05-02T10:50:46.000Z</time>
      </trkpt>
      <trkpt lat="44.79702" lon="0.83292">
        <ele>207.8</ele>
        <time>2026-05-02T10:50:47.000Z</time>
      </trkpt>
      <trkpt lat="44.79702" lon="0.83292">
        <ele>207.8</ele>
        <time>2026-05-02T10:50:48.000Z</time>
      </trkpt>
      <trkpt lat="44.79702" lon="0.83292">
        <ele>207.8</ele>
        <time>2026-05-02T10:50:49.000Z</time>
      </trkpt>
      <trkpt lat="44.79702" lon="0.83292">
        <ele>207.8</ele>
        <time>2026-05-02T10:50:50.000Z</time>
      </trkpt>
      <trkpt lat="44.79702" lon="0.83292">
        <ele>207.8</ele>
        <time>2026-05-02T10:50:51.000Z</time>
      </trkpt>
      <trkpt lat="44.79702" lon="0.83292">
        <ele>207.7</ele>
        <time>2026-05-02T10:50:52.000Z</time>
      </trkpt>
      <trkpt lat="44.79702" lon="0.83292">
        <ele>207.7</ele>
        <time>2026-05-02T10:50:53.000Z</time>
      </trkpt>
      <trkpt lat="44.79701" lon="0.83292">
        <ele>207.3</ele>
        <time>2026-05-02T10:50:54.000Z</time>
      </trkpt>
      <trkpt lat="44.79701" lon="0.83292">
        <ele>207.3</ele>
        <time>2026-05-02T10:50:55.000Z</time>
      </trkpt>
      <trkpt lat="44.79701" lon="0.83292">
        <ele>207.3</ele>
        <time>2026-05-02T10:50:56.000Z</time>
      </trkpt>
      <trkpt lat="44.79701" lon="0.83292">
        <ele>207.3</ele>
        <time>2026-05-02T10:50:57.000Z</time>
      </trkpt>
      <trkpt lat="44.79701" lon="0.83292">
        <ele>207.3</ele>
        <time>2026-05-02T10:50:58.000Z</time>
      </trkpt>
      <trkpt lat="44.79701" lon="0.83292">
        <ele>207.3</ele>
        <time>2026-05-02T10:50:59.000Z</time>
      </trkpt>
      <trkpt lat="44.79701" lon="0.83292">
        <ele>207.3</ele>
        <time>2026-05-02T10:51:00.000Z</time>
      </trkpt>
      <trkpt lat="44.79701" lon="0.83292">
        <ele>207.3</ele>
        <time>2026-05-02T10:51:01.000Z</time>
      </trkpt>
      <trkpt lat="44.79701" lon="0.83292">
        <ele>206.2</ele>
        <time>2026-05-02T10:51:02.000Z</time>
      </trkpt>
      <trkpt lat="44.797" lon="0.83292">
        <ele>205.2</ele>
        <time>2026-05-02T10:51:03.000Z</time>
      </trkpt>
      <trkpt lat="44.79699" lon="0.83292">
        <ele>203.9</ele>
        <time>2026-05-02T10:51:04.000Z</time>
      </trkpt>
      <trkpt lat="44.79698" lon="0.83292">
        <ele>203.4</ele>
        <time>2026-05-02T10:51:05.000Z</time>
      </trkpt>
      <trkpt lat="44.79697" lon="0.83292">
        <ele>203.2</ele>
        <time>2026-05-02T10:51:06.000Z</time>
      </trkpt>
      <trkpt lat="44.79696" lon="0.83291">
        <ele>203.6</ele>
        <time>2026-05-02T10:51:07.000Z</time>
      </trkpt>
      <trkpt lat="44.79695" lon="0.83291">
        <ele>203.5</ele>
        <time>2026-05-02T10:51:08.000Z</time>
      </trkpt>
      <trkpt lat="44.79694" lon="0.83291">
        <ele>203.5</ele>
        <time>2026-05-02T10:51:09.000Z</time>
      </trkpt>
      <trkpt lat="44.79694" lon="0.83291">
        <ele>203.5</ele>
        <time>2026-05-02T10:51:10.000Z</time>
      </trkpt>
      <trkpt lat="44.79694" lon="0.83294">
        <ele>203.7</ele>
        <time>2026-05-02T10:51:11.000Z</time>
      </trkpt>
      <trkpt lat="44.79695" lon="0.83294">
        <ele>203.8</ele>
        <time>2026-05-02T10:51:12.000Z</time>
      </trkpt>
      <trkpt lat="44.79694" lon="0.83294">
        <ele>203.8</ele>
        <time>2026-05-02T10:51:13.000Z</time>
      </trkpt>
      <trkpt lat="44.79694" lon="0.83294">
        <ele>203.8</ele>
        <time>2026-05-02T10:51:14.000Z</time>
      </trkpt>
      <trkpt lat="44.79694" lon="0.83294">
        <ele>203.8</ele>
        <time>2026-05-02T10:51:15.000Z</time>
      </trkpt>
      <trkpt lat="44.79694" lon="0.83294">
        <ele>203.8</ele>
        <time>2026-05-02T10:51:16.000Z</time>
      </trkpt>
      <trkpt lat="44.79694" lon="0.83293">
        <ele>203.8</ele>
        <time>2026-05-02T10:51:17.000Z</time>
      </trkpt>
      <trkpt lat="44.79694" lon="0.83293">
        <ele>203.9</ele>
        <time>2026-05-02T10:51:18.000Z</time>
      </trkpt>
      <trkpt lat="44.79694" lon="0.83293">
        <ele>204.3</ele>
        <time>2026-05-02T10:51:19.000Z</time>
      </trkpt>
      <trkpt lat="44.79694" lon="0.83293">
        <ele>204.1</ele>
        <time>2026-05-02T10:51:20.000Z</time>
      </trkpt>
      <trkpt lat="44.79694" lon="0.83293">
        <ele>204.1</ele>
        <time>2026-05-02T10:51:21.000Z</time>
      </trkpt>
      <trkpt lat="44.79694" lon="0.83293">
        <ele>204.1</ele>
        <time>2026-05-02T10:51:22.000Z</time>
      </trkpt>
      <trkpt lat="44.79696" lon="0.83294">
        <ele>204.4</ele>
        <time>2026-05-02T10:51:23.000Z</time>
      </trkpt>
      <trkpt lat="44.79696" lon="0.83295">
        <ele>204</ele>
        <time>2026-05-02T10:51:24.000Z</time>
      </trkpt>
      <trkpt lat="44.79694" lon="0.83294">
        <ele>205.2</ele>
        <time>2026-05-02T10:51:25.000Z</time>
      </trkpt>
      <trkpt lat="44.79694" lon="0.83294">
        <ele>205.1</ele>
        <time>2026-05-02T10:51:26.000Z</time>
      </trkpt>
      <trkpt lat="44.79694" lon="0.83294">
        <ele>205.1</ele>
        <time>2026-05-02T10:51:27.000Z</time>
      </trkpt>
      <trkpt lat="44.79694" lon="0.83294">
        <ele>205.1</ele>
        <time>2026-05-02T10:51:28.000Z</time>
      </trkpt>
      <trkpt lat="44.79693" lon="0.83294">
        <ele>204.3</ele>
        <time>2026-05-02T10:51:29.000Z</time>
      </trkpt>
      <trkpt lat="44.79694" lon="0.83294">
        <ele>204.3</ele>
        <time>2026-05-02T10:51:30.000Z</time>
      </trkpt>
      <trkpt lat="44.79694" lon="0.83294">
        <ele>204.3</ele>
        <time>2026-05-02T10:51:31.000Z</time>
      </trkpt>
      <trkpt lat="44.79694" lon="0.83294">
        <ele>204.3</ele>
        <time>2026-05-02T10:51:32.000Z</time>
      </trkpt>
      <trkpt lat="44.79694" lon="0.83294">
        <ele>204.3</ele>
        <time>2026-05-02T10:51:33.000Z</time>
      </trkpt>
      <trkpt lat="44.79694" lon="0.83294">
        <ele>204.3</ele>
        <time>2026-05-02T10:51:34.000Z</time>
      </trkpt>
      <trkpt lat="44.79694" lon="0.83294">
        <ele>204.3</ele>
        <time>2026-05-02T10:51:35.000Z</time>
      </trkpt>
      <trkpt lat="44.79694" lon="0.83294">
        <ele>204.3</ele>
        <time>2026-05-02T10:51:36.000Z</time>
      </trkpt>
      <trkpt lat="44.79694" lon="0.83293">
        <ele>204.7</ele>
        <time>2026-05-02T10:51:37.000Z</time>
      </trkpt>
      <trkpt lat="44.79694" lon="0.83293">
        <ele>204.7</ele>
        <time>2026-05-02T10:51:38.000Z</time>
      </trkpt>
      <trkpt lat="44.79694" lon="0.83293">
        <ele>204.7</ele>
        <time>2026-05-02T10:51:39.000Z</time>
      </trkpt>
      <trkpt lat="44.79694" lon="0.83293">
        <ele>204.7</ele>
        <time>2026-05-02T10:51:40.000Z</time>
      </trkpt>
      <trkpt lat="44.79693" lon="0.83293">
        <ele>205.3</ele>
        <time>2026-05-02T10:51:41.000Z</time>
      </trkpt>
      <trkpt lat="44.79693" lon="0.83293">
        <ele>205.9</ele>
        <time>2026-05-02T10:51:42.000Z</time>
      </trkpt>
      <trkpt lat="44.79694" lon="0.83293">
        <ele>205.9</ele>
        <time>2026-05-02T10:51:43.000Z</time>
      </trkpt>
      <trkpt lat="44.79694" lon="0.83293">
        <ele>205.9</ele>
        <time>2026-05-02T10:51:44.000Z</time>
      </trkpt>
      <trkpt lat="44.79694" lon="0.83293">
        <ele>205.8</ele>
        <time>2026-05-02T10:51:45.000Z</time>
      </trkpt>
      <trkpt lat="44.79694" lon="0.83292">
        <ele>205.8</ele>
        <time>2026-05-02T10:51:46.000Z</time>
      </trkpt>
      <trkpt lat="44.79694" lon="0.83292">
        <ele>205.6</ele>
        <time>2026-05-02T10:51:47.000Z</time>
      </trkpt>
      <trkpt lat="44.79694" lon="0.83292">
        <ele>205.5</ele>
        <time>2026-05-02T10:51:48.000Z</time>
      </trkpt>
      <trkpt lat="44.79694" lon="0.83292">
        <ele>205.5</ele>
        <time>2026-05-02T10:51:49.000Z</time>
      </trkpt>
      <trkpt lat="44.79694" lon="0.83292">
        <ele>205.5</ele>
        <time>2026-05-02T10:51:50.000Z</time>
      </trkpt>
      <trkpt lat="44.79694" lon="0.83292">
        <ele>205.5</ele>
        <time>2026-05-02T10:51:51.000Z</time>
      </trkpt>
      <trkpt lat="44.79694" lon="0.83292">
        <ele>205.5</ele>
        <time>2026-05-02T10:51:52.000Z</time>
      </trkpt>
      <trkpt lat="44.79694" lon="0.83292">
        <ele>205.5</ele>
        <time>2026-05-02T10:51:53.000Z</time>
      </trkpt>
      <trkpt lat="44.79694" lon="0.83292">
        <ele>205.5</ele>
        <time>2026-05-02T10:51:54.000Z</time>
      </trkpt>
      <trkpt lat="44.79694" lon="0.83291">
        <ele>206</ele>
        <time>2026-05-02T10:51:55.000Z</time>
      </trkpt>
      <trkpt lat="44.79694" lon="0.83291">
        <ele>206</ele>
        <time>2026-05-02T10:51:56.000Z</time>
      </trkpt>
      <trkpt lat="44.79694" lon="0.83291">
        <ele>206</ele>
        <time>2026-05-02T10:51:57.000Z</time>
      </trkpt>
      <trkpt lat="44.79694" lon="0.83291">
        <ele>205.4</ele>
        <time>2026-05-02T10:51:58.000Z</time>
      </trkpt>
      <trkpt lat="44.79694" lon="0.83291">
        <ele>205.1</ele>
        <time>2026-05-02T10:51:59.000Z</time>
      </trkpt>
      <trkpt lat="44.79694" lon="0.83291">
        <ele>204.8</ele>
        <time>2026-05-02T10:52:00.000Z</time>
      </trkpt>
      <trkpt lat="44.79694" lon="0.8329">
        <ele>204.9</ele>
        <time>2026-05-02T10:52:01.000Z</time>
      </trkpt>
      <trkpt lat="44.79694" lon="0.8329">
        <ele>204.9</ele>
        <time>2026-05-02T10:52:02.000Z</time>
      </trkpt>
      <trkpt lat="44.79694" lon="0.8329">
        <ele>204.9</ele>
        <time>2026-05-02T10:52:03.000Z</time>
      </trkpt>
      <trkpt lat="44.79694" lon="0.8329">
        <ele>204.9</ele>
        <time>2026-05-02T10:52:04.000Z</time>
      </trkpt>
      <trkpt lat="44.79694" lon="0.8329">
        <ele>204.9</ele>
        <time>2026-05-02T10:52:05.000Z</time>
      </trkpt>
      <trkpt lat="44.79694" lon="0.8329">
        <ele>204.9</ele>
        <time>2026-05-02T10:52:06.000Z</time>
      </trkpt>
      <trkpt lat="44.79694" lon="0.8329">
        <ele>204.9</ele>
        <time>2026-05-02T10:52:07.000Z</time>
      </trkpt>
      <trkpt lat="44.79694" lon="0.8329">
        <ele>204.9</ele>
        <time>2026-05-02T10:52:08.000Z</time>
      </trkpt>
      <trkpt lat="44.79694" lon="0.8329">
        <ele>204.9</ele>
        <time>2026-05-02T10:52:09.000Z</time>
      </trkpt>
      <trkpt lat="44.79694" lon="0.8329">
        <ele>204.9</ele>
        <time>2026-05-02T10:52:10.000Z</time>
      </trkpt>
      <trkpt lat="44.79694" lon="0.8329">
        <ele>204.9</ele>
        <time>2026-05-02T10:52:11.000Z</time>
      </trkpt>
      <trkpt lat="44.79694" lon="0.8329">
        <ele>204.9</ele>
        <time>2026-05-02T10:52:12.000Z</time>
      </trkpt>
      <trkpt lat="44.79694" lon="0.8329">
        <ele>204.9</ele>
        <time>2026-05-02T10:52:13.000Z</time>
      </trkpt>
      <trkpt lat="44.79694" lon="0.8329">
        <ele>204.9</ele>
        <time>2026-05-02T10:52:14.000Z</time>
      </trkpt>
      <trkpt lat="44.79694" lon="0.8329">
        <ele>204.9</ele>
        <time>2026-05-02T10:52:15.000Z</time>
      </trkpt>
      <trkpt lat="44.79694" lon="0.8329">
        <ele>204.9</ele>
        <time>2026-05-02T10:52:16.000Z</time>
      </trkpt>
      <trkpt lat="44.79694" lon="0.8329">
        <ele>204.6</ele>
        <time>2026-05-02T10:52:17.000Z</time>
      </trkpt>
      <trkpt lat="44.79694" lon="0.8329">
        <ele>204.6</ele>
        <time>2026-05-02T10:52:18.000Z</time>
      </trkpt>
      <trkpt lat="44.79694" lon="0.8329">
        <ele>204.6</ele>
        <time>2026-05-02T10:52:19.000Z</time>
      </trkpt>
      <trkpt lat="44.79694" lon="0.8329">
        <ele>204.6</ele>
        <time>2026-05-02T10:52:20.000Z</time>
      </trkpt>
      <trkpt lat="44.79694" lon="0.8329">
        <ele>204.6</ele>
        <time>2026-05-02T10:52:21.000Z</time>
      </trkpt>
      <trkpt lat="44.79694" lon="0.8329">
        <ele>204.6</ele>
        <time>2026-05-02T10:52:22.000Z</time>
      </trkpt>
      <trkpt lat="44.79694" lon="0.8329">
        <ele>204.6</ele>
        <time>2026-05-02T10:52:23.000Z</time>
      </trkpt>
      <trkpt lat="44.79694" lon="0.8329">
        <ele>204.6</ele>
        <time>2026-05-02T10:52:24.000Z</time>
      </trkpt>
      <trkpt lat="44.79694" lon="0.8329">
        <ele>204.6</ele>
        <time>2026-05-02T10:52:25.000Z</time>
      </trkpt>
      <trkpt lat="44.79694" lon="0.83289">
        <ele>204.9</ele>
        <time>2026-05-02T10:52:26.000Z</time>
      </trkpt>
      <trkpt lat="44.79694" lon="0.83289">
        <ele>204.5</ele>
        <time>2026-05-02T10:52:27.000Z</time>
      </trkpt>
      <trkpt lat="44.79694" lon="0.83289">
        <ele>204.5</ele>
        <time>2026-05-02T10:52:28.000Z</time>
      </trkpt>
      <trkpt lat="44.79694" lon="0.83289">
        <ele>204.6</ele>
        <time>2026-05-02T10:52:29.000Z</time>
      </trkpt>
      <trkpt lat="44.79694" lon="0.83289">
        <ele>204.6</ele>
        <time>2026-05-02T10:52:30.000Z</time>
      </trkpt>
      <trkpt lat="44.79694" lon="0.83289">
        <ele>204.6</ele>
        <time>2026-05-02T10:52:31.000Z</time>
      </trkpt>
      <trkpt lat="44.79694" lon="0.83289">
        <ele>204.6</ele>
        <time>2026-05-02T10:52:32.000Z</time>
      </trkpt>
      <trkpt lat="44.79694" lon="0.83289">
        <ele>204.6</ele>
        <time>2026-05-02T10:52:33.000Z</time>
      </trkpt>
      <trkpt lat="44.79694" lon="0.83289">
        <ele>204.6</ele>
        <time>2026-05-02T10:52:34.000Z</time>
      </trkpt>
      <trkpt lat="44.79694" lon="0.83289">
        <ele>204.6</ele>
        <time>2026-05-02T10:52:35.000Z</time>
      </trkpt>
      <trkpt lat="44.79694" lon="0.83289">
        <ele>204.6</ele>
        <time>2026-05-02T10:52:36.000Z</time>
      </trkpt>
      <trkpt lat="44.79694" lon="0.83289">
        <ele>204.6</ele>
        <time>2026-05-02T10:52:37.000Z</time>
      </trkpt>
      <trkpt lat="44.79694" lon="0.83289">
        <ele>204</ele>
        <time>2026-05-02T10:52:38.000Z</time>
      </trkpt>
      <trkpt lat="44.79694" lon="0.83288">
        <ele>204</ele>
        <time>2026-05-02T10:52:39.000Z</time>
      </trkpt>
      <trkpt lat="44.79694" lon="0.83288">
        <ele>204</ele>
        <time>2026-05-02T10:52:40.000Z</time>
      </trkpt>
      <trkpt lat="44.79694" lon="0.83288">
        <ele>204</ele>
        <time>2026-05-02T10:52:41.000Z</time>
      </trkpt>
      <trkpt lat="44.79694" lon="0.83288">
        <ele>204</ele>
        <time>2026-05-02T10:52:42.000Z</time>
      </trkpt>
      <trkpt lat="44.79694" lon="0.83288">
        <ele>204</ele>
        <time>2026-05-02T10:52:43.000Z</time>
      </trkpt>
      <trkpt lat="44.79694" lon="0.83288">
        <ele>204</ele>
        <time>2026-05-02T10:52:44.000Z</time>
      </trkpt>
      <trkpt lat="44.79694" lon="0.83288">
        <ele>204</ele>
        <time>2026-05-02T10:52:45.000Z</time>
      </trkpt>
      <trkpt lat="44.79694" lon="0.83288">
        <ele>204</ele>
        <time>2026-05-02T10:52:46.000Z</time>
      </trkpt>
      <trkpt lat="44.79694" lon="0.83288">
        <ele>204.1</ele>
        <time>2026-05-02T10:52:47.000Z</time>
      </trkpt>
      <trkpt lat="44.79694" lon="0.83289">
        <ele>203.9</ele>
        <time>2026-05-02T10:52:48.000Z</time>
      </trkpt>
      <trkpt lat="44.79694" lon="0.83289">
        <ele>204.6</ele>
        <time>2026-05-02T10:52:49.000Z</time>
      </trkpt>
      <trkpt lat="44.79694" lon="0.83288">
        <ele>204.5</ele>
        <time>2026-05-02T10:52:50.000Z</time>
      </trkpt>
      <trkpt lat="44.79694" lon="0.83288">
        <ele>204.2</ele>
        <time>2026-05-02T10:52:51.000Z</time>
      </trkpt>
      <trkpt lat="44.79694" lon="0.83287">
        <ele>204.2</ele>
        <time>2026-05-02T10:52:52.000Z</time>
      </trkpt>
      <trkpt lat="44.79693" lon="0.83287">
        <ele>203.4</ele>
        <time>2026-05-02T10:52:53.000Z</time>
      </trkpt>
      <trkpt lat="44.79693" lon="0.83287">
        <ele>203.9</ele>
        <time>2026-05-02T10:52:54.000Z</time>
      </trkpt>
      <trkpt lat="44.79693" lon="0.83286">
        <ele>203.9</ele>
        <time>2026-05-02T10:52:55.000Z</time>
      </trkpt>
      <trkpt lat="44.79693" lon="0.83286">
        <ele>203.9</ele>
        <time>2026-05-02T10:52:56.000Z</time>
      </trkpt>
      <trkpt lat="44.79693" lon="0.83286">
        <ele>203.9</ele>
        <time>2026-05-02T10:52:57.000Z</time>
      </trkpt>
      <trkpt lat="44.79693" lon="0.83286">
        <ele>203.9</ele>
        <time>2026-05-02T10:52:58.000Z</time>
      </trkpt>
      <trkpt lat="44.79693" lon="0.83286">
        <ele>203.9</ele>
        <time>2026-05-02T10:52:59.000Z</time>
      </trkpt>
      <trkpt lat="44.79693" lon="0.83286">
        <ele>203.9</ele>
        <time>2026-05-02T10:53:00.000Z</time>
      </trkpt>
      <trkpt lat="44.79693" lon="0.83286">
        <ele>204</ele>
        <time>2026-05-02T10:53:01.000Z</time>
      </trkpt>
      <trkpt lat="44.79693" lon="0.83286">
        <ele>204</ele>
        <time>2026-05-02T10:53:02.000Z</time>
      </trkpt>
      <trkpt lat="44.79693" lon="0.83286">
        <ele>204</ele>
        <time>2026-05-02T10:53:03.000Z</time>
      </trkpt>
      <trkpt lat="44.79693" lon="0.83286">
        <ele>204</ele>
        <time>2026-05-02T10:53:04.000Z</time>
      </trkpt>
      <trkpt lat="44.79693" lon="0.83286">
        <ele>203.9</ele>
        <time>2026-05-02T10:53:05.000Z</time>
      </trkpt>
      <trkpt lat="44.79693" lon="0.83286">
        <ele>204</ele>
        <time>2026-05-02T10:53:06.000Z</time>
      </trkpt>
      <trkpt lat="44.79693" lon="0.83286">
        <ele>203.9</ele>
        <time>2026-05-02T10:53:07.000Z</time>
      </trkpt>
      <trkpt lat="44.79693" lon="0.83286">
        <ele>203.9</ele>
        <time>2026-05-02T10:53:08.000Z</time>
      </trkpt>
      <trkpt lat="44.79693" lon="0.83286">
        <ele>203.9</ele>
        <time>2026-05-02T10:53:09.000Z</time>
      </trkpt>
      <trkpt lat="44.79693" lon="0.83286">
        <ele>203.9</ele>
        <time>2026-05-02T10:53:10.000Z</time>
      </trkpt>
      <trkpt lat="44.79693" lon="0.83286">
        <ele>203.9</ele>
        <time>2026-05-02T10:53:11.000Z</time>
      </trkpt>
      <trkpt lat="44.79693" lon="0.83286">
        <ele>203.9</ele>
        <time>2026-05-02T10:53:12.000Z</time>
      </trkpt>
      <trkpt lat="44.79693" lon="0.83286">
        <ele>203.9</ele>
        <time>2026-05-02T10:53:13.000Z</time>
      </trkpt>
      <trkpt lat="44.79693" lon="0.83286">
        <ele>203.9</ele>
        <time>2026-05-02T10:53:14.000Z</time>
      </trkpt>
      <trkpt lat="44.79693" lon="0.83286">
        <ele>203.9</ele>
        <time>2026-05-02T10:53:15.000Z</time>
      </trkpt>
      <trkpt lat="44.79693" lon="0.83286">
        <ele>203.9</ele>
        <time>2026-05-02T10:53:16.000Z</time>
      </trkpt>
      <trkpt lat="44.79693" lon="0.83286">
        <ele>203.9</ele>
        <time>2026-05-02T10:53:17.000Z</time>
      </trkpt>
      <trkpt lat="44.79693" lon="0.83286">
        <ele>204</ele>
        <time>2026-05-02T10:53:18.000Z</time>
      </trkpt>
      <trkpt lat="44.79693" lon="0.83286">
        <ele>203.6</ele>
        <time>2026-05-02T10:53:19.000Z</time>
      </trkpt>
      <trkpt lat="44.79692" lon="0.83286">
        <ele>203.6</ele>
        <time>2026-05-02T10:53:20.000Z</time>
      </trkpt>
      <trkpt lat="44.79692" lon="0.83286">
        <ele>204.1</ele>
        <time>2026-05-02T10:53:21.000Z</time>
      </trkpt>
      <trkpt lat="44.79692" lon="0.83285">
        <ele>204.6</ele>
        <time>2026-05-02T10:53:22.000Z</time>
      </trkpt>
      <trkpt lat="44.79693" lon="0.83284">
        <ele>204.8</ele>
        <time>2026-05-02T10:53:23.000Z</time>
      </trkpt>
      <trkpt lat="44.79693" lon="0.83283">
        <ele>205.2</ele>
        <time>2026-05-02T10:53:24.000Z</time>
      </trkpt>
      <trkpt lat="44.79693" lon="0.83283">
        <ele>205.2</ele>
        <time>2026-05-02T10:53:25.000Z</time>
      </trkpt>
      <trkpt lat="44.79694" lon="0.83282">
        <ele>204.6</ele>
        <time>2026-05-02T10:53:26.000Z</time>
      </trkpt>
      <trkpt lat="44.79694" lon="0.83282">
        <ele>204.4</ele>
        <time>2026-05-02T10:53:27.000Z</time>
      </trkpt>
      <trkpt lat="44.79695" lon="0.83282">
        <ele>204.1</ele>
        <time>2026-05-02T10:53:28.000Z</time>
      </trkpt>
      <trkpt lat="44.79695" lon="0.83281">
        <ele>205.5</ele>
        <time>2026-05-02T10:53:29.000Z</time>
      </trkpt>
      <trkpt lat="44.79695" lon="0.8328">
        <ele>205.4</ele>
        <time>2026-05-02T10:53:30.000Z</time>
      </trkpt>
      <trkpt lat="44.79696" lon="0.8328">
        <ele>205.4</ele>
        <time>2026-05-02T10:53:31.000Z</time>
      </trkpt>
      <trkpt lat="44.79696" lon="0.83279">
        <ele>205.7</ele>
        <time>2026-05-02T10:53:32.000Z</time>
      </trkpt>
      <trkpt lat="44.79696" lon="0.8328">
        <ele>205.9</ele>
        <time>2026-05-02T10:53:33.000Z</time>
      </trkpt>
      <trkpt lat="44.79697" lon="0.8328">
        <ele>205.5</ele>
        <time>2026-05-02T10:53:34.000Z</time>
      </trkpt>
      <trkpt lat="44.79697" lon="0.8328">
        <ele>204.9</ele>
        <time>2026-05-02T10:53:35.000Z</time>
      </trkpt>
      <trkpt lat="44.79697" lon="0.8328">
        <ele>204.9</ele>
        <time>2026-05-02T10:53:36.000Z</time>
      </trkpt>
      <trkpt lat="44.79697" lon="0.8328">
        <ele>204.7</ele>
        <time>2026-05-02T10:53:37.000Z</time>
      </trkpt>
      <trkpt lat="44.79697" lon="0.83281">
        <ele>204.6</ele>
        <time>2026-05-02T10:53:38.000Z</time>
      </trkpt>
      <trkpt lat="44.79697" lon="0.83281">
        <ele>204.7</ele>
        <time>2026-05-02T10:53:39.000Z</time>
      </trkpt>
      <trkpt lat="44.79697" lon="0.83281">
        <ele>204.7</ele>
        <time>2026-05-02T10:53:40.000Z</time>
      </trkpt>
      <trkpt lat="44.79697" lon="0.83281">
        <ele>204.7</ele>
        <time>2026-05-02T10:53:41.000Z</time>
      </trkpt>
      <trkpt lat="44.79697" lon="0.8328">
        <ele>204.8</ele>
        <time>2026-05-02T10:53:42.000Z</time>
      </trkpt>
      <trkpt lat="44.79697" lon="0.8328">
        <ele>204.8</ele>
        <time>2026-05-02T10:53:43.000Z</time>
      </trkpt>
      <trkpt lat="44.79697" lon="0.8328">
        <ele>204.8</ele>
        <time>2026-05-02T10:53:44.000Z</time>
      </trkpt>
      <trkpt lat="44.79697" lon="0.8328">
        <ele>204.8</ele>
        <time>2026-05-02T10:53:45.000Z</time>
      </trkpt>
      <trkpt lat="44.79697" lon="0.8328">
        <ele>204.8</ele>
        <time>2026-05-02T10:53:46.000Z</time>
      </trkpt>
      <trkpt lat="44.79697" lon="0.8328">
        <ele>204.8</ele>
        <time>2026-05-02T10:53:47.000Z</time>
      </trkpt>
      <trkpt lat="44.79697" lon="0.8328">
        <ele>204.8</ele>
        <time>2026-05-02T10:53:48.000Z</time>
      </trkpt>
      <trkpt lat="44.79697" lon="0.8328">
        <ele>204.8</ele>
        <time>2026-05-02T10:53:49.000Z</time>
      </trkpt>
      <trkpt lat="44.79697" lon="0.8328">
        <ele>204.8</ele>
        <time>2026-05-02T10:53:50.000Z</time>
      </trkpt>
      <trkpt lat="44.79697" lon="0.8328">
        <ele>204.8</ele>
        <time>2026-05-02T10:53:51.000Z</time>
      </trkpt>
      <trkpt lat="44.79697" lon="0.8328">
        <ele>204.8</ele>
        <time>2026-05-02T10:53:52.000Z</time>
      </trkpt>
      <trkpt lat="44.79697" lon="0.8328">
        <ele>205.5</ele>
        <time>2026-05-02T10:53:53.000Z</time>
      </trkpt>
      <trkpt lat="44.79697" lon="0.8328">
        <ele>206</ele>
        <time>2026-05-02T10:53:54.000Z</time>
      </trkpt>
      <trkpt lat="44.79697" lon="0.8328">
        <ele>206</ele>
        <time>2026-05-02T10:53:55.000Z</time>
      </trkpt>
      <trkpt lat="44.79697" lon="0.8328">
        <ele>206</ele>
        <time>2026-05-02T10:53:56.000Z</time>
      </trkpt>
      <trkpt lat="44.79697" lon="0.8328">
        <ele>206</ele>
        <time>2026-05-02T10:53:57.000Z</time>
      </trkpt>
      <trkpt lat="44.79697" lon="0.8328">
        <ele>206</ele>
        <time>2026-05-02T10:53:58.000Z</time>
      </trkpt>
      <trkpt lat="44.79697" lon="0.8328">
        <ele>206</ele>
        <time>2026-05-02T10:53:59.000Z</time>
      </trkpt>
      <trkpt lat="44.79697" lon="0.8328">
        <ele>206</ele>
        <time>2026-05-02T10:54:00.000Z</time>
      </trkpt>
      <trkpt lat="44.79697" lon="0.8328">
        <ele>206</ele>
        <time>2026-05-02T10:54:01.000Z</time>
      </trkpt>
      <trkpt lat="44.79697" lon="0.8328">
        <ele>206.1</ele>
        <time>2026-05-02T10:54:02.000Z</time>
      </trkpt>
      <trkpt lat="44.79697" lon="0.8328">
        <ele>206.1</ele>
        <time>2026-05-02T10:54:03.000Z</time>
      </trkpt>
      <trkpt lat="44.79697" lon="0.8328">
        <ele>206</ele>
        <time>2026-05-02T10:54:04.000Z</time>
      </trkpt>
      <trkpt lat="44.79697" lon="0.8328">
        <ele>206.1</ele>
        <time>2026-05-02T10:54:05.000Z</time>
      </trkpt>
      <trkpt lat="44.79697" lon="0.8328">
        <ele>206.1</ele>
        <time>2026-05-02T10:54:06.000Z</time>
      </trkpt>
      <trkpt lat="44.79697" lon="0.8328">
        <ele>206.1</ele>
        <time>2026-05-02T10:54:07.000Z</time>
      </trkpt>
      <trkpt lat="44.79697" lon="0.8328">
        <ele>206.1</ele>
        <time>2026-05-02T10:54:08.000Z</time>
      </trkpt>
      <trkpt lat="44.79697" lon="0.8328">
        <ele>206.1</ele>
        <time>2026-05-02T10:54:09.000Z</time>
      </trkpt>
      <trkpt lat="44.79697" lon="0.8328">
        <ele>206.1</ele>
        <time>2026-05-02T10:54:10.000Z</time>
      </trkpt>
      <trkpt lat="44.79697" lon="0.83279">
        <ele>207.5</ele>
        <time>2026-05-02T10:54:11.000Z</time>
      </trkpt>
      <trkpt lat="44.79697" lon="0.83279">
        <ele>207.5</ele>
        <time>2026-05-02T10:54:12.000Z</time>
      </trkpt>
      <trkpt lat="44.79697" lon="0.83279">
        <ele>207.5</ele>
        <time>2026-05-02T10:54:13.000Z</time>
      </trkpt>
      <trkpt lat="44.79697" lon="0.83279">
        <ele>207.5</ele>
        <time>2026-05-02T10:54:14.000Z</time>
      </trkpt>
      <trkpt lat="44.79697" lon="0.83279">
        <ele>209.2</ele>
        <time>2026-05-02T10:54:15.000Z</time>
      </trkpt>
      <trkpt lat="44.79698" lon="0.8328">
        <ele>208.5</ele>
        <time>2026-05-02T10:54:16.000Z</time>
      </trkpt>
      <trkpt lat="44.79698" lon="0.83281">
        <ele>208.8</ele>
        <time>2026-05-02T10:54:17.000Z</time>
      </trkpt>
      <trkpt lat="44.79698" lon="0.83282">
        <ele>208.8</ele>
        <time>2026-05-02T10:54:18.000Z</time>
      </trkpt>
      <trkpt lat="44.79698" lon="0.83282">
        <ele>208.8</ele>
        <time>2026-05-02T10:54:19.000Z</time>
      </trkpt>
      <trkpt lat="44.79698" lon="0.83282">
        <ele>208.8</ele>
        <time>2026-05-02T10:54:20.000Z</time>
      </trkpt>
      <trkpt lat="44.79698" lon="0.83282">
        <ele>208.9</ele>
        <time>2026-05-02T10:54:21.000Z</time>
      </trkpt>
      <trkpt lat="44.79698" lon="0.83283">
        <ele>208.5</ele>
        <time>2026-05-02T10:54:22.000Z</time>
      </trkpt>
      <trkpt lat="44.79698" lon="0.83283">
        <ele>208.8</ele>
        <time>2026-05-02T10:54:23.000Z</time>
      </trkpt>
      <trkpt lat="44.79698" lon="0.83284">
        <ele>208.8</ele>
        <time>2026-05-02T10:54:24.000Z</time>
      </trkpt>
      <trkpt lat="44.79698" lon="0.83284">
        <ele>208.4</ele>
        <time>2026-05-02T10:54:25.000Z</time>
      </trkpt>
      <trkpt lat="44.79698" lon="0.83284">
        <ele>208.4</ele>
        <time>2026-05-02T10:54:26.000Z</time>
      </trkpt>
      <trkpt lat="44.79698" lon="0.83284">
        <ele>209</ele>
        <time>2026-05-02T10:54:27.000Z</time>
      </trkpt>
      <trkpt lat="44.79698" lon="0.83284">
        <ele>209</ele>
        <time>2026-05-02T10:54:28.000Z</time>
      </trkpt>
      <trkpt lat="44.79698" lon="0.83284">
        <ele>209</ele>
        <time>2026-05-02T10:54:29.000Z</time>
      </trkpt>
      <trkpt lat="44.79697" lon="0.83284">
        <ele>210.3</ele>
        <time>2026-05-02T10:54:30.000Z</time>
      </trkpt>
      <trkpt lat="44.79697" lon="0.83285">
        <ele>210.3</ele>
        <time>2026-05-02T10:54:31.000Z</time>
      </trkpt>
      <trkpt lat="44.79698" lon="0.83285">
        <ele>210.1</ele>
        <time>2026-05-02T10:54:32.000Z</time>
      </trkpt>
      <trkpt lat="44.79697" lon="0.83287">
        <ele>209.4</ele>
        <time>2026-05-02T10:54:33.000Z</time>
      </trkpt>
      <trkpt lat="44.79697" lon="0.83289">
        <ele>210</ele>
        <time>2026-05-02T10:54:34.000Z</time>
      </trkpt>
      <trkpt lat="44.79696" lon="0.83291">
        <ele>210.8</ele>
        <time>2026-05-02T10:54:35.000Z</time>
      </trkpt>
      <trkpt lat="44.79696" lon="0.83292">
        <ele>211.3</ele>
        <time>2026-05-02T10:54:36.000Z</time>
      </trkpt>
      <trkpt lat="44.79695" lon="0.83292">
        <ele>212.8</ele>
        <time>2026-05-02T10:54:37.000Z</time>
      </trkpt>
      <trkpt lat="44.79694" lon="0.83292">
        <ele>212.7</ele>
        <time>2026-05-02T10:54:38.000Z</time>
      </trkpt>
      <trkpt lat="44.79693" lon="0.83292">
        <ele>212.2</ele>
        <time>2026-05-02T10:54:39.000Z</time>
      </trkpt>
      <trkpt lat="44.79692" lon="0.83292">
        <ele>211.6</ele>
        <time>2026-05-02T10:54:40.000Z</time>
      </trkpt>
      <trkpt lat="44.79691" lon="0.83292">
        <ele>210.8</ele>
        <time>2026-05-02T10:54:41.000Z</time>
      </trkpt>
      <trkpt lat="44.7969" lon="0.83292">
        <ele>210.2</ele>
        <time>2026-05-02T10:54:42.000Z</time>
      </trkpt>
      <trkpt lat="44.7969" lon="0.83292">
        <ele>210.4</ele>
        <time>2026-05-02T10:54:43.000Z</time>
      </trkpt>
      <trkpt lat="44.79688" lon="0.83292">
        <ele>209.2</ele>
        <time>2026-05-02T10:54:44.000Z</time>
      </trkpt>
      <trkpt lat="44.79688" lon="0.83291">
        <ele>209.1</ele>
        <time>2026-05-02T10:54:45.000Z</time>
      </trkpt>
      <trkpt lat="44.79686" lon="0.83291">
        <ele>208</ele>
        <time>2026-05-02T10:54:46.000Z</time>
      </trkpt>
      <trkpt lat="44.79685" lon="0.8329">
        <ele>205.5</ele>
        <time>2026-05-02T10:54:47.000Z</time>
      </trkpt>
      <trkpt lat="44.79684" lon="0.83289">
        <ele>205.3</ele>
        <time>2026-05-02T10:54:48.000Z</time>
      </trkpt>
      <trkpt lat="44.79683" lon="0.83288">
        <ele>205.1</ele>
        <time>2026-05-02T10:54:49.000Z</time>
      </trkpt>
      <trkpt lat="44.79682" lon="0.83288">
        <ele>204.6</ele>
        <time>2026-05-02T10:54:50.000Z</time>
      </trkpt>
      <trkpt lat="44.79681" lon="0.83287">
        <ele>203.9</ele>
        <time>2026-05-02T10:54:51.000Z</time>
      </trkpt>
      <trkpt lat="44.7968" lon="0.83287">
        <ele>203.7</ele>
        <time>2026-05-02T10:54:52.000Z</time>
      </trkpt>
      <trkpt lat="44.79678" lon="0.83286">
        <ele>204</ele>
        <time>2026-05-02T10:54:53.000Z</time>
      </trkpt>
      <trkpt lat="44.79677" lon="0.83285">
        <ele>203.4</ele>
        <time>2026-05-02T10:54:54.000Z</time>
      </trkpt>
      <trkpt lat="44.79676" lon="0.83284">
        <ele>203.6</ele>
        <time>2026-05-02T10:54:55.000Z</time>
      </trkpt>
      <trkpt lat="44.79675" lon="0.83283">
        <ele>202.6</ele>
        <time>2026-05-02T10:54:56.000Z</time>
      </trkpt>
      <trkpt lat="44.79674" lon="0.83282">
        <ele>202.4</ele>
        <time>2026-05-02T10:54:57.000Z</time>
      </trkpt>
      <trkpt lat="44.79673" lon="0.8328">
        <ele>202.3</ele>
        <time>2026-05-02T10:54:58.000Z</time>
      </trkpt>
      <trkpt lat="44.79672" lon="0.83279">
        <ele>201.7</ele>
        <time>2026-05-02T10:54:59.000Z</time>
      </trkpt>
      <trkpt lat="44.79671" lon="0.83278">
        <ele>202.6</ele>
        <time>2026-05-02T10:55:00.000Z</time>
      </trkpt>
      <trkpt lat="44.79671" lon="0.83276">
        <ele>202.4</ele>
        <time>2026-05-02T10:55:01.000Z</time>
      </trkpt>
      <trkpt lat="44.7967" lon="0.83273">
        <ele>203.3</ele>
        <time>2026-05-02T10:55:02.000Z</time>
      </trkpt>
      <trkpt lat="44.7967" lon="0.83272">
        <ele>204.9</ele>
        <time>2026-05-02T10:55:03.000Z</time>
      </trkpt>
      <trkpt lat="44.79671" lon="0.8327">
        <ele>204.1</ele>
        <time>2026-05-02T10:55:04.000Z</time>
      </trkpt>
      <trkpt lat="44.79671" lon="0.8327">
        <ele>203.9</ele>
        <time>2026-05-02T10:55:05.000Z</time>
      </trkpt>
      <trkpt lat="44.79671" lon="0.83269">
        <ele>203.7</ele>
        <time>2026-05-02T10:55:06.000Z</time>
      </trkpt>
      <trkpt lat="44.79673" lon="0.83269">
        <ele>203.3</ele>
        <time>2026-05-02T10:55:07.000Z</time>
      </trkpt>
      <trkpt lat="44.79674" lon="0.83274">
        <ele>203.2</ele>
        <time>2026-05-02T10:55:08.000Z</time>
      </trkpt>
      <trkpt lat="44.79676" lon="0.83276">
        <ele>199.7</ele>
        <time>2026-05-02T10:55:09.000Z</time>
      </trkpt>
      <trkpt lat="44.79677" lon="0.83276">
        <ele>199.8</ele>
        <time>2026-05-02T10:55:10.000Z</time>
      </trkpt>
      <trkpt lat="44.79677" lon="0.83277">
        <ele>199.8</ele>
        <time>2026-05-02T10:55:11.000Z</time>
      </trkpt>
      <trkpt lat="44.79677" lon="0.83277">
        <ele>199.8</ele>
        <time>2026-05-02T10:55:12.000Z</time>
      </trkpt>
      <trkpt lat="44.79677" lon="0.83277">
        <ele>199.9</ele>
        <time>2026-05-02T10:55:13.000Z</time>
      </trkpt>
      <trkpt lat="44.79677" lon="0.83276">
        <ele>199.5</ele>
        <time>2026-05-02T10:55:14.000Z</time>
      </trkpt>
      <trkpt lat="44.79676" lon="0.83276">
        <ele>199.3</ele>
        <time>2026-05-02T10:55:15.000Z</time>
      </trkpt>
      <trkpt lat="44.79676" lon="0.83276">
        <ele>199.4</ele>
        <time>2026-05-02T10:55:16.000Z</time>
      </trkpt>
      <trkpt lat="44.79676" lon="0.83276">
        <ele>199.4</ele>
        <time>2026-05-02T10:55:17.000Z</time>
      </trkpt>
      <trkpt lat="44.79676" lon="0.83276">
        <ele>199.4</ele>
        <time>2026-05-02T10:55:18.000Z</time>
      </trkpt>
      <trkpt lat="44.79676" lon="0.83276">
        <ele>199.4</ele>
        <time>2026-05-02T10:55:19.000Z</time>
      </trkpt>
      <trkpt lat="44.79676" lon="0.83276">
        <ele>199.4</ele>
        <time>2026-05-02T10:55:20.000Z</time>
      </trkpt>
      <trkpt lat="44.79676" lon="0.83276">
        <ele>199.4</ele>
        <time>2026-05-02T10:55:21.000Z</time>
      </trkpt>
      <trkpt lat="44.79676" lon="0.83276">
        <ele>199.4</ele>
        <time>2026-05-02T10:55:22.000Z</time>
      </trkpt>
      <trkpt lat="44.79676" lon="0.83276">
        <ele>199.4</ele>
        <time>2026-05-02T10:55:23.000Z</time>
      </trkpt>
      <trkpt lat="44.79676" lon="0.83276">
        <ele>199.5</ele>
        <time>2026-05-02T10:55:24.000Z</time>
      </trkpt>
      <trkpt lat="44.79676" lon="0.83276">
        <ele>199.5</ele>
        <time>2026-05-02T10:55:25.000Z</time>
      </trkpt>
      <trkpt lat="44.79676" lon="0.83275">
        <ele>199.5</ele>
        <time>2026-05-02T10:55:26.000Z</time>
      </trkpt>
      <trkpt lat="44.79676" lon="0.83275">
        <ele>199.5</ele>
        <time>2026-05-02T10:55:27.000Z</time>
      </trkpt>
      <trkpt lat="44.79676" lon="0.83275">
        <ele>199.5</ele>
        <time>2026-05-02T10:55:28.000Z</time>
      </trkpt>
      <trkpt lat="44.79676" lon="0.83275">
        <ele>199.6</ele>
        <time>2026-05-02T10:55:29.000Z</time>
      </trkpt>
      <trkpt lat="44.79675" lon="0.83274">
        <ele>199.6</ele>
        <time>2026-05-02T10:55:30.000Z</time>
      </trkpt>
      <trkpt lat="44.79677" lon="0.83275">
        <ele>198.7</ele>
        <time>2026-05-02T10:55:31.000Z</time>
      </trkpt>
      <trkpt lat="44.79677" lon="0.83275">
        <ele>198.6</ele>
        <time>2026-05-02T10:55:32.000Z</time>
      </trkpt>
      <trkpt lat="44.79678" lon="0.83274">
        <ele>199.2</ele>
        <time>2026-05-02T10:55:33.000Z</time>
      </trkpt>
      <trkpt lat="44.79679" lon="0.83274">
        <ele>200</ele>
        <time>2026-05-02T10:55:34.000Z</time>
      </trkpt>
      <trkpt lat="44.7968" lon="0.83274">
        <ele>199.5</ele>
        <time>2026-05-02T10:55:35.000Z</time>
      </trkpt>
      <trkpt lat="44.79679" lon="0.83273">
        <ele>199.5</ele>
        <time>2026-05-02T10:55:36.000Z</time>
      </trkpt>
      <trkpt lat="44.79679" lon="0.83273">
        <ele>199.5</ele>
        <time>2026-05-02T10:55:37.000Z</time>
      </trkpt>
      <trkpt lat="44.79679" lon="0.83273">
        <ele>199.5</ele>
        <time>2026-05-02T10:55:38.000Z</time>
      </trkpt>
      <trkpt lat="44.79679" lon="0.83273">
        <ele>199.5</ele>
        <time>2026-05-02T10:55:39.000Z</time>
      </trkpt>
      <trkpt lat="44.79679" lon="0.83272">
        <ele>199</ele>
        <time>2026-05-02T10:55:40.000Z</time>
      </trkpt>
      <trkpt lat="44.79679" lon="0.83272">
        <ele>198.8</ele>
        <time>2026-05-02T10:55:41.000Z</time>
      </trkpt>
      <trkpt lat="44.79679" lon="0.83272">
        <ele>198.8</ele>
        <time>2026-05-02T10:55:42.000Z</time>
      </trkpt>
      <trkpt lat="44.79679" lon="0.83272">
        <ele>198.7</ele>
        <time>2026-05-02T10:55:43.000Z</time>
      </trkpt>
      <trkpt lat="44.79679" lon="0.83272">
        <ele>197.9</ele>
        <time>2026-05-02T10:55:44.000Z</time>
      </trkpt>
      <trkpt lat="44.79678" lon="0.8327">
        <ele>199.1</ele>
        <time>2026-05-02T10:55:45.000Z</time>
      </trkpt>
      <trkpt lat="44.79677" lon="0.83263">
        <ele>199.4</ele>
        <time>2026-05-02T10:55:46.000Z</time>
      </trkpt>
      <trkpt lat="44.79677" lon="0.83257">
        <ele>199</ele>
        <time>2026-05-02T10:55:47.000Z</time>
      </trkpt>
      <trkpt lat="44.79679" lon="0.8326">
        <ele>198.3</ele>
        <time>2026-05-02T10:55:48.000Z</time>
      </trkpt>
      <trkpt lat="44.7968" lon="0.83262">
        <ele>196.6</ele>
        <time>2026-05-02T10:55:49.000Z</time>
      </trkpt>
      <trkpt lat="44.79678" lon="0.83266">
        <ele>195.9</ele>
        <time>2026-05-02T10:55:50.000Z</time>
      </trkpt>
      <trkpt lat="44.79678" lon="0.83266">
        <ele>195.7</ele>
        <time>2026-05-02T10:55:51.000Z</time>
      </trkpt>
      <trkpt lat="44.79677" lon="0.83267">
        <ele>195.7</ele>
        <time>2026-05-02T10:55:52.000Z</time>
      </trkpt>
      <trkpt lat="44.79677" lon="0.83267">
        <ele>195.7</ele>
        <time>2026-05-02T10:55:53.000Z</time>
      </trkpt>
      <trkpt lat="44.79677" lon="0.83267">
        <ele>195.7</ele>
        <time>2026-05-02T10:55:54.000Z</time>
      </trkpt>
      <trkpt lat="44.79677" lon="0.83267">
        <ele>195.7</ele>
        <time>2026-05-02T10:55:55.000Z</time>
      </trkpt>
      <trkpt lat="44.79677" lon="0.83267">
        <ele>195.7</ele>
        <time>2026-05-02T10:55:56.000Z</time>
      </trkpt>
      <trkpt lat="44.79677" lon="0.83267">
        <ele>195.2</ele>
        <time>2026-05-02T10:55:57.000Z</time>
      </trkpt>
      <trkpt lat="44.79677" lon="0.83267">
        <ele>195.2</ele>
        <time>2026-05-02T10:55:58.000Z</time>
      </trkpt>
      <trkpt lat="44.79677" lon="0.83267">
        <ele>195.2</ele>
        <time>2026-05-02T10:55:59.000Z</time>
      </trkpt>
      <trkpt lat="44.79677" lon="0.83267">
        <ele>195.1</ele>
        <time>2026-05-02T10:56:00.000Z</time>
      </trkpt>
      <trkpt lat="44.79676" lon="0.83263">
        <ele>195.9</ele>
        <time>2026-05-02T10:56:01.000Z</time>
      </trkpt>
      <trkpt lat="44.79676" lon="0.83262">
        <ele>195.7</ele>
        <time>2026-05-02T10:56:02.000Z</time>
      </trkpt>
      <trkpt lat="44.79676" lon="0.83262">
        <ele>195.7</ele>
        <time>2026-05-02T10:56:03.000Z</time>
      </trkpt>
      <trkpt lat="44.79676" lon="0.83262">
        <ele>195.7</ele>
        <time>2026-05-02T10:56:04.000Z</time>
      </trkpt>
      <trkpt lat="44.79676" lon="0.83261">
        <ele>195.7</ele>
        <time>2026-05-02T10:56:05.000Z</time>
      </trkpt>
      <trkpt lat="44.79676" lon="0.83261">
        <ele>195.7</ele>
        <time>2026-05-02T10:56:06.000Z</time>
      </trkpt>
      <trkpt lat="44.79676" lon="0.83261">
        <ele>196</ele>
        <time>2026-05-02T10:56:07.000Z</time>
      </trkpt>
      <trkpt lat="44.79675" lon="0.8326">
        <ele>196.8</ele>
        <time>2026-05-02T10:56:08.000Z</time>
      </trkpt>
      <trkpt lat="44.79675" lon="0.8326">
        <ele>197.4</ele>
        <time>2026-05-02T10:56:09.000Z</time>
      </trkpt>
      <trkpt lat="44.79674" lon="0.8326">
        <ele>197.3</ele>
        <time>2026-05-02T10:56:10.000Z</time>
      </trkpt>
      <trkpt lat="44.79674" lon="0.8326">
        <ele>197.1</ele>
        <time>2026-05-02T10:56:11.000Z</time>
      </trkpt>
      <trkpt lat="44.79674" lon="0.8326">
        <ele>196.3</ele>
        <time>2026-05-02T10:56:12.000Z</time>
      </trkpt>
      <trkpt lat="44.79675" lon="0.83259">
        <ele>196.3</ele>
        <time>2026-05-02T10:56:13.000Z</time>
      </trkpt>
      <trkpt lat="44.79675" lon="0.83259">
        <ele>196.3</ele>
        <time>2026-05-02T10:56:14.000Z</time>
      </trkpt>
      <trkpt lat="44.79675" lon="0.83259">
        <ele>196.3</ele>
        <time>2026-05-02T10:56:15.000Z</time>
      </trkpt>
      <trkpt lat="44.79675" lon="0.83259">
        <ele>196.3</ele>
        <time>2026-05-02T10:56:16.000Z</time>
      </trkpt>
      <trkpt lat="44.79675" lon="0.83259">
        <ele>196.3</ele>
        <time>2026-05-02T10:56:17.000Z</time>
      </trkpt>
      <trkpt lat="44.79675" lon="0.83259">
        <ele>196.3</ele>
        <time>2026-05-02T10:56:18.000Z</time>
      </trkpt>
      <trkpt lat="44.79675" lon="0.83259">
        <ele>196.3</ele>
        <time>2026-05-02T10:56:19.000Z</time>
      </trkpt>
      <trkpt lat="44.79675" lon="0.83259">
        <ele>196.3</ele>
        <time>2026-05-02T10:56:20.000Z</time>
      </trkpt>
      <trkpt lat="44.79675" lon="0.83259">
        <ele>196.4</ele>
        <time>2026-05-02T10:56:21.000Z</time>
      </trkpt>
      <trkpt lat="44.79675" lon="0.83259">
        <ele>196.4</ele>
        <time>2026-05-02T10:56:22.000Z</time>
      </trkpt>
      <trkpt lat="44.79675" lon="0.83259">
        <ele>196.4</ele>
        <time>2026-05-02T10:56:23.000Z</time>
      </trkpt>
      <trkpt lat="44.79675" lon="0.83259">
        <ele>196.4</ele>
        <time>2026-05-02T10:56:24.000Z</time>
      </trkpt>
      <trkpt lat="44.79675" lon="0.83259">
        <ele>196.3</ele>
        <time>2026-05-02T10:56:25.000Z</time>
      </trkpt>
      <trkpt lat="44.79675" lon="0.83259">
        <ele>196.3</ele>
        <time>2026-05-02T10:56:26.000Z</time>
      </trkpt>
      <trkpt lat="44.79675" lon="0.83259">
        <ele>196.4</ele>
        <time>2026-05-02T10:56:27.000Z</time>
      </trkpt>
      <trkpt lat="44.79674" lon="0.83259">
        <ele>196.3</ele>
        <time>2026-05-02T10:56:28.000Z</time>
      </trkpt>
      <trkpt lat="44.79674" lon="0.83259">
        <ele>196.3</ele>
        <time>2026-05-02T10:56:29.000Z</time>
      </trkpt>
      <trkpt lat="44.79674" lon="0.83259">
        <ele>196.8</ele>
        <time>2026-05-02T10:56:30.000Z</time>
      </trkpt>
      <trkpt lat="44.79674" lon="0.83259">
        <ele>197.2</ele>
        <time>2026-05-02T10:56:31.000Z</time>
      </trkpt>
      <trkpt lat="44.79674" lon="0.83258">
        <ele>197.6</ele>
        <time>2026-05-02T10:56:32.000Z</time>
      </trkpt>
      <trkpt lat="44.79674" lon="0.83258">
        <ele>198.9</ele>
        <time>2026-05-02T10:56:33.000Z</time>
      </trkpt>
      <trkpt lat="44.79674" lon="0.83258">
        <ele>198.9</ele>
        <time>2026-05-02T10:56:34.000Z</time>
      </trkpt>
      <trkpt lat="44.79674" lon="0.83258">
        <ele>198.9</ele>
        <time>2026-05-02T10:56:35.000Z</time>
      </trkpt>
      <trkpt lat="44.79674" lon="0.83258">
        <ele>198.9</ele>
        <time>2026-05-02T10:56:36.000Z</time>
      </trkpt>
      <trkpt lat="44.79673" lon="0.83258">
        <ele>199.5</ele>
        <time>2026-05-02T10:56:37.000Z</time>
      </trkpt>
      <trkpt lat="44.79673" lon="0.83258">
        <ele>199.7</ele>
        <time>2026-05-02T10:56:38.000Z</time>
      </trkpt>
      <trkpt lat="44.79673" lon="0.83258">
        <ele>199.7</ele>
        <time>2026-05-02T10:56:39.000Z</time>
      </trkpt>
      <trkpt lat="44.79673" lon="0.83258">
        <ele>199.7</ele>
        <time>2026-05-02T10:56:40.000Z</time>
      </trkpt>
      <trkpt lat="44.79673" lon="0.83258">
        <ele>199.7</ele>
        <time>2026-05-02T10:56:41.000Z</time>
      </trkpt>
      <trkpt lat="44.79672" lon="0.83258">
        <ele>199.8</ele>
        <time>2026-05-02T10:56:42.000Z</time>
      </trkpt>
      <trkpt lat="44.79672" lon="0.83258">
        <ele>199.8</ele>
        <time>2026-05-02T10:56:43.000Z</time>
      </trkpt>
      <trkpt lat="44.79672" lon="0.83258">
        <ele>199.8</ele>
        <time>2026-05-02T10:56:44.000Z</time>
      </trkpt>
      <trkpt lat="44.79672" lon="0.83258">
        <ele>199.7</ele>
        <time>2026-05-02T10:56:45.000Z</time>
      </trkpt>
      <trkpt lat="44.79672" lon="0.83257">
        <ele>199.7</ele>
        <time>2026-05-02T10:56:46.000Z</time>
      </trkpt>
      <trkpt lat="44.79672" lon="0.83257">
        <ele>199.4</ele>
        <time>2026-05-02T10:56:47.000Z</time>
      </trkpt>
      <trkpt lat="44.79672" lon="0.83258">
        <ele>199.5</ele>
        <time>2026-05-02T10:56:48.000Z</time>
      </trkpt>
      <trkpt lat="44.79671" lon="0.83258">
        <ele>199.5</ele>
        <time>2026-05-02T10:56:49.000Z</time>
      </trkpt>
      <trkpt lat="44.79671" lon="0.83258">
        <ele>199.7</ele>
        <time>2026-05-02T10:56:50.000Z</time>
      </trkpt>
      <trkpt lat="44.79671" lon="0.83258">
        <ele>199.7</ele>
        <time>2026-05-02T10:56:51.000Z</time>
      </trkpt>
      <trkpt lat="44.79671" lon="0.83258">
        <ele>199.6</ele>
        <time>2026-05-02T10:56:52.000Z</time>
      </trkpt>
      <trkpt lat="44.79671" lon="0.83258">
        <ele>199.8</ele>
        <time>2026-05-02T10:56:53.000Z</time>
      </trkpt>
      <trkpt lat="44.79671" lon="0.83258">
        <ele>199.8</ele>
        <time>2026-05-02T10:56:54.000Z</time>
      </trkpt>
      <trkpt lat="44.79671" lon="0.83259">
        <ele>199.8</ele>
        <time>2026-05-02T10:56:55.000Z</time>
      </trkpt>
      <trkpt lat="44.79671" lon="0.83259">
        <ele>199.6</ele>
        <time>2026-05-02T10:56:56.000Z</time>
      </trkpt>
      <trkpt lat="44.79671" lon="0.83259">
        <ele>199.7</ele>
        <time>2026-05-02T10:56:57.000Z</time>
      </trkpt>
      <trkpt lat="44.79671" lon="0.83259">
        <ele>199.7</ele>
        <time>2026-05-02T10:56:58.000Z</time>
      </trkpt>
      <trkpt lat="44.79671" lon="0.83259">
        <ele>199.7</ele>
        <time>2026-05-02T10:56:59.000Z</time>
      </trkpt>
      <trkpt lat="44.79671" lon="0.83259">
        <ele>199.7</ele>
        <time>2026-05-02T10:57:00.000Z</time>
      </trkpt>
      <trkpt lat="44.79671" lon="0.83259">
        <ele>199.7</ele>
        <time>2026-05-02T10:57:01.000Z</time>
      </trkpt>
      <trkpt lat="44.79671" lon="0.83259">
        <ele>199.7</ele>
        <time>2026-05-02T10:57:02.000Z</time>
      </trkpt>
      <trkpt lat="44.7967" lon="0.83259">
        <ele>200</ele>
        <time>2026-05-02T10:57:03.000Z</time>
      </trkpt>
      <trkpt lat="44.7967" lon="0.83259">
        <ele>200</ele>
        <time>2026-05-02T10:57:04.000Z</time>
      </trkpt>
      <trkpt lat="44.7967" lon="0.83259">
        <ele>200</ele>
        <time>2026-05-02T10:57:05.000Z</time>
      </trkpt>
      <trkpt lat="44.7967" lon="0.83259">
        <ele>200</ele>
        <time>2026-05-02T10:57:06.000Z</time>
      </trkpt>
      <trkpt lat="44.7967" lon="0.83259">
        <ele>200</ele>
        <time>2026-05-02T10:57:07.000Z</time>
      </trkpt>
      <trkpt lat="44.7967" lon="0.83259">
        <ele>200</ele>
        <time>2026-05-02T10:57:08.000Z</time>
      </trkpt>
      <trkpt lat="44.7967" lon="0.8326">
        <ele>200.1</ele>
        <time>2026-05-02T10:57:09.000Z</time>
      </trkpt>
      <trkpt lat="44.79671" lon="0.8326">
        <ele>199.6</ele>
        <time>2026-05-02T10:57:10.000Z</time>
      </trkpt>
      <trkpt lat="44.79671" lon="0.8326">
        <ele>199.6</ele>
        <time>2026-05-02T10:57:11.000Z</time>
      </trkpt>
      <trkpt lat="44.79671" lon="0.8326">
        <ele>199.6</ele>
        <time>2026-05-02T10:57:12.000Z</time>
      </trkpt>
      <trkpt lat="44.79671" lon="0.8326">
        <ele>199</ele>
        <time>2026-05-02T10:57:13.000Z</time>
      </trkpt>
      <trkpt lat="44.79671" lon="0.83261">
        <ele>199</ele>
        <time>2026-05-02T10:57:14.000Z</time>
      </trkpt>
      <trkpt lat="44.79671" lon="0.83261">
        <ele>199</ele>
        <time>2026-05-02T10:57:15.000Z</time>
      </trkpt>
      <trkpt lat="44.79671" lon="0.83261">
        <ele>199</ele>
        <time>2026-05-02T10:57:16.000Z</time>
      </trkpt>
      <trkpt lat="44.79671" lon="0.83261">
        <ele>199</ele>
        <time>2026-05-02T10:57:17.000Z</time>
      </trkpt>
      <trkpt lat="44.79671" lon="0.83261">
        <ele>199</ele>
        <time>2026-05-02T10:57:18.000Z</time>
      </trkpt>
      <trkpt lat="44.79671" lon="0.83261">
        <ele>199</ele>
        <time>2026-05-02T10:57:19.000Z</time>
      </trkpt>
      <trkpt lat="44.7967" lon="0.8326">
        <ele>199.6</ele>
        <time>2026-05-02T10:57:20.000Z</time>
      </trkpt>
      <trkpt lat="44.79672" lon="0.83259">
        <ele>198.7</ele>
        <time>2026-05-02T10:57:21.000Z</time>
      </trkpt>
      <trkpt lat="44.79673" lon="0.83258">
        <ele>198.8</ele>
        <time>2026-05-02T10:57:22.000Z</time>
      </trkpt>
      <trkpt lat="44.79672" lon="0.83259">
        <ele>198.5</ele>
        <time>2026-05-02T10:57:23.000Z</time>
      </trkpt>
      <trkpt lat="44.79672" lon="0.83259">
        <ele>198.5</ele>
        <time>2026-05-02T10:57:24.000Z</time>
      </trkpt>
      <trkpt lat="44.79672" lon="0.83259">
        <ele>198.4</ele>
        <time>2026-05-02T10:57:25.000Z</time>
      </trkpt>
      <trkpt lat="44.79672" lon="0.83259">
        <ele>198.8</ele>
        <time>2026-05-02T10:57:26.000Z</time>
      </trkpt>
      <trkpt lat="44.79671" lon="0.83259">
        <ele>198.9</ele>
        <time>2026-05-02T10:57:27.000Z</time>
      </trkpt>
      <trkpt lat="44.79671" lon="0.83259">
        <ele>198.9</ele>
        <time>2026-05-02T10:57:28.000Z</time>
      </trkpt>
      <trkpt lat="44.79671" lon="0.83259">
        <ele>198.9</ele>
        <time>2026-05-02T10:57:29.000Z</time>
      </trkpt>
      <trkpt lat="44.79671" lon="0.83259">
        <ele>198.9</ele>
        <time>2026-05-02T10:57:30.000Z</time>
      </trkpt>
      <trkpt lat="44.79671" lon="0.83259">
        <ele>198.9</ele>
        <time>2026-05-02T10:57:31.000Z</time>
      </trkpt>
      <trkpt lat="44.79671" lon="0.83259">
        <ele>198.9</ele>
        <time>2026-05-02T10:57:32.000Z</time>
      </trkpt>
      <trkpt lat="44.79671" lon="0.83259">
        <ele>198.9</ele>
        <time>2026-05-02T10:57:33.000Z</time>
      </trkpt>
      <trkpt lat="44.79671" lon="0.83259">
        <ele>198.9</ele>
        <time>2026-05-02T10:57:34.000Z</time>
      </trkpt>
      <trkpt lat="44.79671" lon="0.83259">
        <ele>198.9</ele>
        <time>2026-05-02T10:57:35.000Z</time>
      </trkpt>
      <trkpt lat="44.79671" lon="0.83259">
        <ele>198.9</ele>
        <time>2026-05-02T10:57:36.000Z</time>
      </trkpt>
      <trkpt lat="44.79671" lon="0.83259">
        <ele>198.8</ele>
        <time>2026-05-02T10:57:37.000Z</time>
      </trkpt>
      <trkpt lat="44.79671" lon="0.83259">
        <ele>198.8</ele>
        <time>2026-05-02T10:57:38.000Z</time>
      </trkpt>
      <trkpt lat="44.79671" lon="0.83259">
        <ele>198.8</ele>
        <time>2026-05-02T10:57:39.000Z</time>
      </trkpt>
      <trkpt lat="44.79671" lon="0.83259">
        <ele>198.8</ele>
        <time>2026-05-02T10:57:40.000Z</time>
      </trkpt>
      <trkpt lat="44.79671" lon="0.83259">
        <ele>198.8</ele>
        <time>2026-05-02T10:57:41.000Z</time>
      </trkpt>
      <trkpt lat="44.79671" lon="0.83259">
        <ele>198.8</ele>
        <time>2026-05-02T10:57:42.000Z</time>
      </trkpt>
      <trkpt lat="44.79671" lon="0.83259">
        <ele>198.6</ele>
        <time>2026-05-02T10:57:43.000Z</time>
      </trkpt>
      <trkpt lat="44.79671" lon="0.8326">
        <ele>198.7</ele>
        <time>2026-05-02T10:57:44.000Z</time>
      </trkpt>
      <trkpt lat="44.79672" lon="0.83261">
        <ele>199.4</ele>
        <time>2026-05-02T10:57:45.000Z</time>
      </trkpt>
      <trkpt lat="44.79674" lon="0.83259">
        <ele>200.6</ele>
        <time>2026-05-02T10:57:46.000Z</time>
      </trkpt>
      <trkpt lat="44.79674" lon="0.83258">
        <ele>200.5</ele>
        <time>2026-05-02T10:57:47.000Z</time>
      </trkpt>
      <trkpt lat="44.79674" lon="0.83258">
        <ele>200.5</ele>
        <time>2026-05-02T10:57:48.000Z</time>
      </trkpt>
      <trkpt lat="44.79674" lon="0.83258">
        <ele>200.5</ele>
        <time>2026-05-02T10:57:49.000Z</time>
      </trkpt>
      <trkpt lat="44.79674" lon="0.83258">
        <ele>200.2</ele>
        <time>2026-05-02T10:57:50.000Z</time>
      </trkpt>
      <trkpt lat="44.79674" lon="0.83258">
        <ele>199.7</ele>
        <time>2026-05-02T10:57:51.000Z</time>
      </trkpt>
      <trkpt lat="44.79674" lon="0.83259">
        <ele>199.5</ele>
        <time>2026-05-02T10:57:52.000Z</time>
      </trkpt>
      <trkpt lat="44.79674" lon="0.83259">
        <ele>199.4</ele>
        <time>2026-05-02T10:57:53.000Z</time>
      </trkpt>
      <trkpt lat="44.79673" lon="0.8326">
        <ele>199.4</ele>
        <time>2026-05-02T10:57:54.000Z</time>
      </trkpt>
      <trkpt lat="44.79673" lon="0.8326">
        <ele>199.4</ele>
        <time>2026-05-02T10:57:55.000Z</time>
      </trkpt>
      <trkpt lat="44.79673" lon="0.8326">
        <ele>199.4</ele>
        <time>2026-05-02T10:57:56.000Z</time>
      </trkpt>
      <trkpt lat="44.79673" lon="0.8326">
        <ele>199.4</ele>
        <time>2026-05-02T10:57:57.000Z</time>
      </trkpt>
      <trkpt lat="44.79673" lon="0.8326">
        <ele>199.4</ele>
        <time>2026-05-02T10:57:58.000Z</time>
      </trkpt>
      <trkpt lat="44.79673" lon="0.8326">
        <ele>199.4</ele>
        <time>2026-05-02T10:57:59.000Z</time>
      </trkpt>
      <trkpt lat="44.79673" lon="0.8326">
        <ele>199.4</ele>
        <time>2026-05-02T10:58:00.000Z</time>
      </trkpt>
      <trkpt lat="44.79673" lon="0.8326">
        <ele>199.4</ele>
        <time>2026-05-02T10:58:01.000Z</time>
      </trkpt>
      <trkpt lat="44.79673" lon="0.8326">
        <ele>199.4</ele>
        <time>2026-05-02T10:58:02.000Z</time>
      </trkpt>
      <trkpt lat="44.79673" lon="0.8326">
        <ele>199.4</ele>
        <time>2026-05-02T10:58:03.000Z</time>
      </trkpt>
      <trkpt lat="44.79673" lon="0.8326">
        <ele>199.5</ele>
        <time>2026-05-02T10:58:04.000Z</time>
      </trkpt>
      <trkpt lat="44.79673" lon="0.8326">
        <ele>199.5</ele>
        <time>2026-05-02T10:58:05.000Z</time>
      </trkpt>
      <trkpt lat="44.79673" lon="0.8326">
        <ele>199.5</ele>
        <time>2026-05-02T10:58:06.000Z</time>
      </trkpt>
      <trkpt lat="44.79673" lon="0.8326">
        <ele>199.8</ele>
        <time>2026-05-02T10:58:07.000Z</time>
      </trkpt>
      <trkpt lat="44.79673" lon="0.83261">
        <ele>199.8</ele>
        <time>2026-05-02T10:58:08.000Z</time>
      </trkpt>
      <trkpt lat="44.79673" lon="0.83261">
        <ele>199.8</ele>
        <time>2026-05-02T10:58:09.000Z</time>
      </trkpt>
      <trkpt lat="44.79673" lon="0.83261">
        <ele>199.8</ele>
        <time>2026-05-02T10:58:10.000Z</time>
      </trkpt>
      <trkpt lat="44.79673" lon="0.83262">
        <ele>199.8</ele>
        <time>2026-05-02T10:58:11.000Z</time>
      </trkpt>
      <trkpt lat="44.79673" lon="0.83262">
        <ele>199.8</ele>
        <time>2026-05-02T10:58:12.000Z</time>
      </trkpt>
      <trkpt lat="44.79673" lon="0.83262">
        <ele>199.8</ele>
        <time>2026-05-02T10:58:13.000Z</time>
      </trkpt>
      <trkpt lat="44.79673" lon="0.83262">
        <ele>199.8</ele>
        <time>2026-05-02T10:58:14.000Z</time>
      </trkpt>
      <trkpt lat="44.79673" lon="0.83262">
        <ele>199.8</ele>
        <time>2026-05-02T10:58:15.000Z</time>
      </trkpt>
      <trkpt lat="44.79672" lon="0.83262">
        <ele>199.6</ele>
        <time>2026-05-02T10:58:16.000Z</time>
      </trkpt>
      <trkpt lat="44.79672" lon="0.83262">
        <ele>199.6</ele>
        <time>2026-05-02T10:58:17.000Z</time>
      </trkpt>
      <trkpt lat="44.79672" lon="0.83262">
        <ele>199.6</ele>
        <time>2026-05-02T10:58:18.000Z</time>
      </trkpt>
      <trkpt lat="44.79672" lon="0.83262">
        <ele>199.1</ele>
        <time>2026-05-02T10:58:19.000Z</time>
      </trkpt>
      <trkpt lat="44.79672" lon="0.83262">
        <ele>199.1</ele>
        <time>2026-05-02T10:58:20.000Z</time>
      </trkpt>
      <trkpt lat="44.79672" lon="0.83262">
        <ele>199.1</ele>
        <time>2026-05-02T10:58:21.000Z</time>
      </trkpt>
      <trkpt lat="44.79672" lon="0.83262">
        <ele>199.2</ele>
        <time>2026-05-02T10:58:22.000Z</time>
      </trkpt>
      <trkpt lat="44.79672" lon="0.83263">
        <ele>199.1</ele>
        <time>2026-05-02T10:58:23.000Z</time>
      </trkpt>
      <trkpt lat="44.79672" lon="0.83263">
        <ele>199.1</ele>
        <time>2026-05-02T10:58:24.000Z</time>
      </trkpt>
      <trkpt lat="44.79672" lon="0.83263">
        <ele>199.1</ele>
        <time>2026-05-02T10:58:25.000Z</time>
      </trkpt>
      <trkpt lat="44.79672" lon="0.83263">
        <ele>199.1</ele>
        <time>2026-05-02T10:58:26.000Z</time>
      </trkpt>
      <trkpt lat="44.79672" lon="0.83263">
        <ele>199.1</ele>
        <time>2026-05-02T10:58:27.000Z</time>
      </trkpt>
      <trkpt lat="44.79672" lon="0.83263">
        <ele>199.1</ele>
        <time>2026-05-02T10:58:28.000Z</time>
      </trkpt>
      <trkpt lat="44.79672" lon="0.83263">
        <ele>199.1</ele>
        <time>2026-05-02T10:58:29.000Z</time>
      </trkpt>
      <trkpt lat="44.79672" lon="0.83263">
        <ele>199.4</ele>
        <time>2026-05-02T10:58:30.000Z</time>
      </trkpt>
      <trkpt lat="44.79672" lon="0.83263">
        <ele>199.4</ele>
        <time>2026-05-02T10:58:31.000Z</time>
      </trkpt>
      <trkpt lat="44.79672" lon="0.83263">
        <ele>199.4</ele>
        <time>2026-05-02T10:58:32.000Z</time>
      </trkpt>
      <trkpt lat="44.79672" lon="0.83263">
        <ele>199.4</ele>
        <time>2026-05-02T10:58:33.000Z</time>
      </trkpt>
      <trkpt lat="44.79672" lon="0.83263">
        <ele>199.4</ele>
        <time>2026-05-02T10:58:34.000Z</time>
      </trkpt>
      <trkpt lat="44.79672" lon="0.83263">
        <ele>199.4</ele>
        <time>2026-05-02T10:58:35.000Z</time>
      </trkpt>
      <trkpt lat="44.79672" lon="0.83263">
        <ele>199.4</ele>
        <time>2026-05-02T10:58:36.000Z</time>
      </trkpt>
      <trkpt lat="44.79672" lon="0.83263">
        <ele>199.4</ele>
        <time>2026-05-02T10:58:37.000Z</time>
      </trkpt>
      <trkpt lat="44.79672" lon="0.83263">
        <ele>199.4</ele>
        <time>2026-05-02T10:58:38.000Z</time>
      </trkpt>
      <trkpt lat="44.79672" lon="0.83263">
        <ele>199.4</ele>
        <time>2026-05-02T10:58:39.000Z</time>
      </trkpt>
      <trkpt lat="44.79672" lon="0.83263">
        <ele>199.4</ele>
        <time>2026-05-02T10:58:40.000Z</time>
      </trkpt>
      <trkpt lat="44.79672" lon="0.83263">
        <ele>199.4</ele>
        <time>2026-05-02T10:58:41.000Z</time>
      </trkpt>
      <trkpt lat="44.79672" lon="0.83263">
        <ele>199.4</ele>
        <time>2026-05-02T10:58:42.000Z</time>
      </trkpt>
      <trkpt lat="44.79672" lon="0.83262">
        <ele>199.1</ele>
        <time>2026-05-02T10:58:43.000Z</time>
      </trkpt>
      <trkpt lat="44.79671" lon="0.83262">
        <ele>199.4</ele>
        <time>2026-05-02T10:58:44.000Z</time>
      </trkpt>
      <trkpt lat="44.79671" lon="0.83262">
        <ele>199.4</ele>
        <time>2026-05-02T10:58:45.000Z</time>
      </trkpt>
      <trkpt lat="44.79671" lon="0.83262">
        <ele>199.4</ele>
        <time>2026-05-02T10:58:46.000Z</time>
      </trkpt>
      <trkpt lat="44.79671" lon="0.83262">
        <ele>199.4</ele>
        <time>2026-05-02T10:58:47.000Z</time>
      </trkpt>
      <trkpt lat="44.79671" lon="0.83262">
        <ele>199.4</ele>
        <time>2026-05-02T10:58:48.000Z</time>
      </trkpt>
      <trkpt lat="44.79671" lon="0.83262">
        <ele>199.4</ele>
        <time>2026-05-02T10:58:49.000Z</time>
      </trkpt>
      <trkpt lat="44.79671" lon="0.83262">
        <ele>199.4</ele>
        <time>2026-05-02T10:58:50.000Z</time>
      </trkpt>
      <trkpt lat="44.79671" lon="0.83262">
        <ele>199.4</ele>
        <time>2026-05-02T10:58:51.000Z</time>
      </trkpt>
      <trkpt lat="44.79671" lon="0.83262">
        <ele>199.4</ele>
        <time>2026-05-02T10:58:52.000Z</time>
      </trkpt>
      <trkpt lat="44.79671" lon="0.83262">
        <ele>199.4</ele>
        <time>2026-05-02T10:58:53.000Z</time>
      </trkpt>
      <trkpt lat="44.79671" lon="0.83262">
        <ele>199.4</ele>
        <time>2026-05-02T10:58:54.000Z</time>
      </trkpt>
      <trkpt lat="44.79671" lon="0.83262">
        <ele>199.4</ele>
        <time>2026-05-02T10:58:55.000Z</time>
      </trkpt>
      <trkpt lat="44.79671" lon="0.83262">
        <ele>199.4</ele>
        <time>2026-05-02T10:58:56.000Z</time>
      </trkpt>
      <trkpt lat="44.79671" lon="0.83262">
        <ele>199.4</ele>
        <time>2026-05-02T10:58:57.000Z</time>
      </trkpt>
      <trkpt lat="44.79671" lon="0.83262">
        <ele>199.4</ele>
        <time>2026-05-02T10:58:58.000Z</time>
      </trkpt>
      <trkpt lat="44.79671" lon="0.83262">
        <ele>199</ele>
        <time>2026-05-02T10:58:59.000Z</time>
      </trkpt>
      <trkpt lat="44.79671" lon="0.83262">
        <ele>199.1</ele>
        <time>2026-05-02T10:59:00.000Z</time>
      </trkpt>
      <trkpt lat="44.7967" lon="0.83262">
        <ele>199.2</ele>
        <time>2026-05-02T10:59:01.000Z</time>
      </trkpt>
      <trkpt lat="44.79669" lon="0.83261">
        <ele>198.9</ele>
        <time>2026-05-02T10:59:02.000Z</time>
      </trkpt>
      <trkpt lat="44.79669" lon="0.83261">
        <ele>198.7</ele>
        <time>2026-05-02T10:59:03.000Z</time>
      </trkpt>
      <trkpt lat="44.79669" lon="0.83262">
        <ele>198.7</ele>
        <time>2026-05-02T10:59:04.000Z</time>
      </trkpt>
      <trkpt lat="44.79669" lon="0.83262">
        <ele>198.7</ele>
        <time>2026-05-02T10:59:05.000Z</time>
      </trkpt>
      <trkpt lat="44.79669" lon="0.83262">
        <ele>198.7</ele>
        <time>2026-05-02T10:59:06.000Z</time>
      </trkpt>
      <trkpt lat="44.79669" lon="0.83262">
        <ele>198.7</ele>
        <time>2026-05-02T10:59:07.000Z</time>
      </trkpt>
      <trkpt lat="44.79669" lon="0.83262">
        <ele>198.7</ele>
        <time>2026-05-02T10:59:08.000Z</time>
      </trkpt>
      <trkpt lat="44.79669" lon="0.83262">
        <ele>198.7</ele>
        <time>2026-05-02T10:59:09.000Z</time>
      </trkpt>
      <trkpt lat="44.79669" lon="0.83262">
        <ele>198.7</ele>
        <time>2026-05-02T10:59:10.000Z</time>
      </trkpt>
      <trkpt lat="44.79669" lon="0.83262">
        <ele>198.7</ele>
        <time>2026-05-02T10:59:11.000Z</time>
      </trkpt>
      <trkpt lat="44.79669" lon="0.83262">
        <ele>198.7</ele>
        <time>2026-05-02T10:59:12.000Z</time>
      </trkpt>
      <trkpt lat="44.79669" lon="0.83262">
        <ele>198.7</ele>
        <time>2026-05-02T10:59:13.000Z</time>
      </trkpt>
      <trkpt lat="44.79669" lon="0.83262">
        <ele>198.7</ele>
        <time>2026-05-02T10:59:14.000Z</time>
      </trkpt>
      <trkpt lat="44.79669" lon="0.83262">
        <ele>198.7</ele>
        <time>2026-05-02T10:59:15.000Z</time>
      </trkpt>
      <trkpt lat="44.79669" lon="0.83262">
        <ele>198.7</ele>
        <time>2026-05-02T10:59:16.000Z</time>
      </trkpt>
      <trkpt lat="44.79669" lon="0.83262">
        <ele>198.7</ele>
        <time>2026-05-02T10:59:17.000Z</time>
      </trkpt>
      <trkpt lat="44.79669" lon="0.83262">
        <ele>198.7</ele>
        <time>2026-05-02T10:59:18.000Z</time>
      </trkpt>
      <trkpt lat="44.79669" lon="0.83262">
        <ele>198.7</ele>
        <time>2026-05-02T10:59:19.000Z</time>
      </trkpt>
      <trkpt lat="44.79669" lon="0.83262">
        <ele>198.7</ele>
        <time>2026-05-02T10:59:20.000Z</time>
      </trkpt>
      <trkpt lat="44.79669" lon="0.83262">
        <ele>198.7</ele>
        <time>2026-05-02T10:59:21.000Z</time>
      </trkpt>
      <trkpt lat="44.79669" lon="0.83262">
        <ele>198.7</ele>
        <time>2026-05-02T10:59:22.000Z</time>
      </trkpt>
      <trkpt lat="44.79669" lon="0.83262">
        <ele>198.7</ele>
        <time>2026-05-02T10:59:23.000Z</time>
      </trkpt>
      <trkpt lat="44.79669" lon="0.83262">
        <ele>198.7</ele>
        <time>2026-05-02T10:59:24.000Z</time>
      </trkpt>
      <trkpt lat="44.79669" lon="0.83262">
        <ele>198.7</ele>
        <time>2026-05-02T10:59:25.000Z</time>
      </trkpt>
      <trkpt lat="44.79669" lon="0.83262">
        <ele>198.7</ele>
        <time>2026-05-02T10:59:26.000Z</time>
      </trkpt>
      <trkpt lat="44.79669" lon="0.83262">
        <ele>198.7</ele>
        <time>2026-05-02T10:59:27.000Z</time>
      </trkpt>
      <trkpt lat="44.79669" lon="0.83262">
        <ele>198.7</ele>
        <time>2026-05-02T10:59:28.000Z</time>
      </trkpt>
      <trkpt lat="44.79669" lon="0.83262">
        <ele>198.7</ele>
        <time>2026-05-02T10:59:29.000Z</time>
      </trkpt>
      <trkpt lat="44.79669" lon="0.83262">
        <ele>198.8</ele>
        <time>2026-05-02T10:59:30.000Z</time>
      </trkpt>
      <trkpt lat="44.79669" lon="0.83262">
        <ele>198.8</ele>
        <time>2026-05-02T10:59:31.000Z</time>
      </trkpt>
      <trkpt lat="44.79669" lon="0.83262">
        <ele>198.8</ele>
        <time>2026-05-02T10:59:32.000Z</time>
      </trkpt>
      <trkpt lat="44.79669" lon="0.83262">
        <ele>198.8</ele>
        <time>2026-05-02T10:59:33.000Z</time>
      </trkpt>
      <trkpt lat="44.79669" lon="0.83262">
        <ele>198.8</ele>
        <time>2026-05-02T10:59:34.000Z</time>
      </trkpt>
      <trkpt lat="44.79669" lon="0.83262">
        <ele>198.8</ele>
        <time>2026-05-02T10:59:35.000Z</time>
      </trkpt>
      <trkpt lat="44.79669" lon="0.83262">
        <ele>198.8</ele>
        <time>2026-05-02T10:59:36.000Z</time>
      </trkpt>
      <trkpt lat="44.79669" lon="0.83262">
        <ele>198.8</ele>
        <time>2026-05-02T10:59:37.000Z</time>
      </trkpt>
      <trkpt lat="44.79669" lon="0.83262">
        <ele>198.8</ele>
        <time>2026-05-02T10:59:38.000Z</time>
      </trkpt>
      <trkpt lat="44.79669" lon="0.83262">
        <ele>198.8</ele>
        <time>2026-05-02T10:59:39.000Z</time>
      </trkpt>
      <trkpt lat="44.79669" lon="0.83262">
        <ele>198.8</ele>
        <time>2026-05-02T10:59:40.000Z</time>
      </trkpt>
      <trkpt lat="44.79669" lon="0.83261">
        <ele>199</ele>
        <time>2026-05-02T10:59:41.000Z</time>
      </trkpt>
      <trkpt lat="44.79669" lon="0.83261">
        <ele>199.3</ele>
        <time>2026-05-02T10:59:42.000Z</time>
      </trkpt>
      <trkpt lat="44.79669" lon="0.83261">
        <ele>200.1</ele>
        <time>2026-05-02T10:59:43.000Z</time>
      </trkpt>
      <trkpt lat="44.79668" lon="0.83261">
        <ele>200.2</ele>
        <time>2026-05-02T10:59:44.000Z</time>
      </trkpt>
      <trkpt lat="44.79668" lon="0.83262">
        <ele>200.7</ele>
        <time>2026-05-02T10:59:45.000Z</time>
      </trkpt>
      <trkpt lat="44.79668" lon="0.83262">
        <ele>199.9</ele>
        <time>2026-05-02T10:59:46.000Z</time>
      </trkpt>
      <trkpt lat="44.79668" lon="0.83262">
        <ele>199.9</ele>
        <time>2026-05-02T10:59:47.000Z</time>
      </trkpt>
      <trkpt lat="44.79668" lon="0.83262">
        <ele>199.5</ele>
        <time>2026-05-02T10:59:48.000Z</time>
      </trkpt>
      <trkpt lat="44.79668" lon="0.83263">
        <ele>199.5</ele>
        <time>2026-05-02T10:59:49.000Z</time>
      </trkpt>
      <trkpt lat="44.79672" lon="0.83262">
        <ele>199.9</ele>
        <time>2026-05-02T10:59:50.000Z</time>
      </trkpt>
      <trkpt lat="44.79674" lon="0.83263">
        <ele>201.3</ele>
        <time>2026-05-02T10:59:51.000Z</time>
      </trkpt>
      <trkpt lat="44.79676" lon="0.83263">
        <ele>201.1</ele>
        <time>2026-05-02T10:59:52.000Z</time>
      </trkpt>
      <trkpt lat="44.79675" lon="0.83263">
        <ele>201.1</ele>
        <time>2026-05-02T10:59:53.000Z</time>
      </trkpt>
      <trkpt lat="44.79674" lon="0.83263">
        <ele>201.1</ele>
        <time>2026-05-02T10:59:54.000Z</time>
      </trkpt>
      <trkpt lat="44.79674" lon="0.83262">
        <ele>201.3</ele>
        <time>2026-05-02T10:59:55.000Z</time>
      </trkpt>
      <trkpt lat="44.79673" lon="0.83262">
        <ele>201.3</ele>
        <time>2026-05-02T10:59:56.000Z</time>
      </trkpt>
      <trkpt lat="44.79674" lon="0.83262">
        <ele>200.2</ele>
        <time>2026-05-02T10:59:57.000Z</time>
      </trkpt>
      <trkpt lat="44.79674" lon="0.83263">
        <ele>199.8</ele>
        <time>2026-05-02T10:59:58.000Z</time>
      </trkpt>
      <trkpt lat="44.79674" lon="0.83263">
        <ele>199.8</ele>
        <time>2026-05-02T10:59:59.000Z</time>
      </trkpt>
      <trkpt lat="44.79674" lon="0.83263">
        <ele>199.8</ele>
        <time>2026-05-02T11:00:00.000Z</time>
      </trkpt>
      <trkpt lat="44.79674" lon="0.83263">
        <ele>199.8</ele>
        <time>2026-05-02T11:00:01.000Z</time>
      </trkpt>
      <trkpt lat="44.79674" lon="0.83263">
        <ele>199.8</ele>
        <time>2026-05-02T11:00:02.000Z</time>
      </trkpt>
      <trkpt lat="44.79674" lon="0.83263">
        <ele>199.8</ele>
        <time>2026-05-02T11:00:03.000Z</time>
      </trkpt>
      <trkpt lat="44.79674" lon="0.83263">
        <ele>199.8</ele>
        <time>2026-05-02T11:00:04.000Z</time>
      </trkpt>
      <trkpt lat="44.79674" lon="0.83263">
        <ele>199.8</ele>
        <time>2026-05-02T11:00:05.000Z</time>
      </trkpt>
      <trkpt lat="44.79674" lon="0.83263">
        <ele>199.8</ele>
        <time>2026-05-02T11:00:06.000Z</time>
      </trkpt>
      <trkpt lat="44.79674" lon="0.83263">
        <ele>199.8</ele>
        <time>2026-05-02T11:00:07.000Z</time>
      </trkpt>
      <trkpt lat="44.79674" lon="0.83263">
        <ele>199.8</ele>
        <time>2026-05-02T11:00:08.000Z</time>
      </trkpt>
      <trkpt lat="44.79674" lon="0.83263">
        <ele>199.8</ele>
        <time>2026-05-02T11:00:09.000Z</time>
      </trkpt>
      <trkpt lat="44.79674" lon="0.83263">
        <ele>199.8</ele>
        <time>2026-05-02T11:00:10.000Z</time>
      </trkpt>
      <trkpt lat="44.79674" lon="0.83263">
        <ele>199.8</ele>
        <time>2026-05-02T11:00:11.000Z</time>
      </trkpt>
      <trkpt lat="44.79674" lon="0.83263">
        <ele>199.8</ele>
        <time>2026-05-02T11:00:12.000Z</time>
      </trkpt>
      <trkpt lat="44.79674" lon="0.83263">
        <ele>199.8</ele>
        <time>2026-05-02T11:00:13.000Z</time>
      </trkpt>
      <trkpt lat="44.79674" lon="0.83263">
        <ele>199.8</ele>
        <time>2026-05-02T11:00:14.000Z</time>
      </trkpt>
      <trkpt lat="44.79674" lon="0.83263">
        <ele>199.8</ele>
        <time>2026-05-02T11:00:15.000Z</time>
      </trkpt>
      <trkpt lat="44.79673" lon="0.83263">
        <ele>199.8</ele>
        <time>2026-05-02T11:00:16.000Z</time>
      </trkpt>
      <trkpt lat="44.79673" lon="0.83263">
        <ele>199.8</ele>
        <time>2026-05-02T11:00:17.000Z</time>
      </trkpt>
      <trkpt lat="44.79673" lon="0.83263">
        <ele>199.8</ele>
        <time>2026-05-02T11:00:18.000Z</time>
      </trkpt>
      <trkpt lat="44.79673" lon="0.83263">
        <ele>199.8</ele>
        <time>2026-05-02T11:00:19.000Z</time>
      </trkpt>
      <trkpt lat="44.79673" lon="0.83263">
        <ele>199.8</ele>
        <time>2026-05-02T11:00:20.000Z</time>
      </trkpt>
      <trkpt lat="44.79673" lon="0.83263">
        <ele>199.2</ele>
        <time>2026-05-02T11:00:21.000Z</time>
      </trkpt>
      <trkpt lat="44.79673" lon="0.83263">
        <ele>199.3</ele>
        <time>2026-05-02T11:00:22.000Z</time>
      </trkpt>
      <trkpt lat="44.79673" lon="0.83263">
        <ele>199.3</ele>
        <time>2026-05-02T11:00:23.000Z</time>
      </trkpt>
      <trkpt lat="44.79673" lon="0.83263">
        <ele>199.3</ele>
        <time>2026-05-02T11:00:24.000Z</time>
      </trkpt>
      <trkpt lat="44.79673" lon="0.83263">
        <ele>199.3</ele>
        <time>2026-05-02T11:00:25.000Z</time>
      </trkpt>
      <trkpt lat="44.79673" lon="0.83263">
        <ele>199.3</ele>
        <time>2026-05-02T11:00:26.000Z</time>
      </trkpt>
      <trkpt lat="44.79673" lon="0.83263">
        <ele>199.1</ele>
        <time>2026-05-02T11:00:27.000Z</time>
      </trkpt>
      <trkpt lat="44.79673" lon="0.83262">
        <ele>199.1</ele>
        <time>2026-05-02T11:00:28.000Z</time>
      </trkpt>
      <trkpt lat="44.79673" lon="0.83262">
        <ele>199.1</ele>
        <time>2026-05-02T11:00:29.000Z</time>
      </trkpt>
      <trkpt lat="44.79672" lon="0.83262">
        <ele>199.1</ele>
        <time>2026-05-02T11:00:30.000Z</time>
      </trkpt>
      <trkpt lat="44.79672" lon="0.83262">
        <ele>199.3</ele>
        <time>2026-05-02T11:00:31.000Z</time>
      </trkpt>
      <trkpt lat="44.79672" lon="0.83262">
        <ele>199.3</ele>
        <time>2026-05-02T11:00:32.000Z</time>
      </trkpt>
      <trkpt lat="44.79672" lon="0.83262">
        <ele>199.3</ele>
        <time>2026-05-02T11:00:33.000Z</time>
      </trkpt>
      <trkpt lat="44.79672" lon="0.83262">
        <ele>199.3</ele>
        <time>2026-05-02T11:00:34.000Z</time>
      </trkpt>
      <trkpt lat="44.79672" lon="0.83262">
        <ele>199.3</ele>
        <time>2026-05-02T11:00:35.000Z</time>
      </trkpt>
      <trkpt lat="44.79672" lon="0.83262">
        <ele>199.3</ele>
        <time>2026-05-02T11:00:36.000Z</time>
      </trkpt>
      <trkpt lat="44.79672" lon="0.83262">
        <ele>199.3</ele>
        <time>2026-05-02T11:00:37.000Z</time>
      </trkpt>
      <trkpt lat="44.79672" lon="0.83262">
        <ele>199.3</ele>
        <time>2026-05-02T11:00:38.000Z</time>
      </trkpt>
      <trkpt lat="44.79672" lon="0.83262">
        <ele>199.3</ele>
        <time>2026-05-02T11:00:39.000Z</time>
      </trkpt>
      <trkpt lat="44.79672" lon="0.83262">
        <ele>199.3</ele>
        <time>2026-05-02T11:00:40.000Z</time>
      </trkpt>
      <trkpt lat="44.79672" lon="0.83262">
        <ele>199.3</ele>
        <time>2026-05-02T11:00:41.000Z</time>
      </trkpt>
      <trkpt lat="44.79672" lon="0.83262">
        <ele>199.3</ele>
        <time>2026-05-02T11:00:42.000Z</time>
      </trkpt>
      <trkpt lat="44.79672" lon="0.83262">
        <ele>199.3</ele>
        <time>2026-05-02T11:00:43.000Z</time>
      </trkpt>
      <trkpt lat="44.79672" lon="0.83262">
        <ele>199.3</ele>
        <time>2026-05-02T11:00:44.000Z</time>
      </trkpt>
      <trkpt lat="44.79672" lon="0.83262">
        <ele>199.3</ele>
        <time>2026-05-02T11:00:45.000Z</time>
      </trkpt>
      <trkpt lat="44.79672" lon="0.83262">
        <ele>199.3</ele>
        <time>2026-05-02T11:00:46.000Z</time>
      </trkpt>
      <trkpt lat="44.79672" lon="0.83262">
        <ele>199.3</ele>
        <time>2026-05-02T11:00:47.000Z</time>
      </trkpt>
      <trkpt lat="44.79672" lon="0.83262">
        <ele>199.3</ele>
        <time>2026-05-02T11:00:48.000Z</time>
      </trkpt>
      <trkpt lat="44.79672" lon="0.83262">
        <ele>199.3</ele>
        <time>2026-05-02T11:00:49.000Z</time>
      </trkpt>
      <trkpt lat="44.79672" lon="0.83262">
        <ele>199.3</ele>
        <time>2026-05-02T11:00:50.000Z</time>
      </trkpt>
      <trkpt lat="44.79672" lon="0.83262">
        <ele>199.3</ele>
        <time>2026-05-02T11:00:51.000Z</time>
      </trkpt>
      <trkpt lat="44.79672" lon="0.83262">
        <ele>199.3</ele>
        <time>2026-05-02T11:00:52.000Z</time>
      </trkpt>
      <trkpt lat="44.79672" lon="0.83262">
        <ele>199.3</ele>
        <time>2026-05-02T11:00:53.000Z</time>
      </trkpt>
      <trkpt lat="44.79672" lon="0.83262">
        <ele>199.3</ele>
        <time>2026-05-02T11:00:54.000Z</time>
      </trkpt>
      <trkpt lat="44.79672" lon="0.83262">
        <ele>199.3</ele>
        <time>2026-05-02T11:00:55.000Z</time>
      </trkpt>
      <trkpt lat="44.79672" lon="0.83262">
        <ele>199.3</ele>
        <time>2026-05-02T11:00:56.000Z</time>
      </trkpt>
      <trkpt lat="44.79672" lon="0.83262">
        <ele>199.7</ele>
        <time>2026-05-02T11:00:57.000Z</time>
      </trkpt>
      <trkpt lat="44.79672" lon="0.83262">
        <ele>199.7</ele>
        <time>2026-05-02T11:00:58.000Z</time>
      </trkpt>
      <trkpt lat="44.79672" lon="0.83261">
        <ele>199.7</ele>
        <time>2026-05-02T11:00:59.000Z</time>
      </trkpt>
      <trkpt lat="44.79672" lon="0.83261">
        <ele>199.7</ele>
        <time>2026-05-02T11:01:00.000Z</time>
      </trkpt>
      <trkpt lat="44.79672" lon="0.83261">
        <ele>199.7</ele>
        <time>2026-05-02T11:01:01.000Z</time>
      </trkpt>
      <trkpt lat="44.79672" lon="0.83262">
        <ele>199.7</ele>
        <time>2026-05-02T11:01:02.000Z</time>
      </trkpt>
      <trkpt lat="44.79672" lon="0.83261">
        <ele>199.5</ele>
        <time>2026-05-02T11:01:03.000Z</time>
      </trkpt>
      <trkpt lat="44.79671" lon="0.83261">
        <ele>199.6</ele>
        <time>2026-05-02T11:01:04.000Z</time>
      </trkpt>
      <trkpt lat="44.79671" lon="0.83261">
        <ele>199.6</ele>
        <time>2026-05-02T11:01:05.000Z</time>
      </trkpt>
      <trkpt lat="44.79671" lon="0.83261">
        <ele>199.6</ele>
        <time>2026-05-02T11:01:06.000Z</time>
      </trkpt>
      <trkpt lat="44.79671" lon="0.83261">
        <ele>199.6</ele>
        <time>2026-05-02T11:01:07.000Z</time>
      </trkpt>
      <trkpt lat="44.79671" lon="0.83261">
        <ele>199.8</ele>
        <time>2026-05-02T11:01:08.000Z</time>
      </trkpt>
      <trkpt lat="44.79671" lon="0.83261">
        <ele>199.8</ele>
        <time>2026-05-02T11:01:09.000Z</time>
      </trkpt>
      <trkpt lat="44.79671" lon="0.83261">
        <ele>199.8</ele>
        <time>2026-05-02T11:01:10.000Z</time>
      </trkpt>
      <trkpt lat="44.79671" lon="0.83261">
        <ele>199.8</ele>
        <time>2026-05-02T11:01:11.000Z</time>
      </trkpt>
      <trkpt lat="44.79671" lon="0.83261">
        <ele>199.8</ele>
        <time>2026-05-02T11:01:12.000Z</time>
      </trkpt>
      <trkpt lat="44.79671" lon="0.83261">
        <ele>199.8</ele>
        <time>2026-05-02T11:01:13.000Z</time>
      </trkpt>
      <trkpt lat="44.79671" lon="0.83261">
        <ele>199.8</ele>
        <time>2026-05-02T11:01:14.000Z</time>
      </trkpt>
      <trkpt lat="44.79671" lon="0.83261">
        <ele>199.9</ele>
        <time>2026-05-02T11:01:15.000Z</time>
      </trkpt>
      <trkpt lat="44.79671" lon="0.83261">
        <ele>199.9</ele>
        <time>2026-05-02T11:01:16.000Z</time>
      </trkpt>
      <trkpt lat="44.79671" lon="0.83261">
        <ele>199.9</ele>
        <time>2026-05-02T11:01:17.000Z</time>
      </trkpt>
      <trkpt lat="44.79671" lon="0.83261">
        <ele>199.9</ele>
        <time>2026-05-02T11:01:18.000Z</time>
      </trkpt>
      <trkpt lat="44.79671" lon="0.83261">
        <ele>199.9</ele>
        <time>2026-05-02T11:01:19.000Z</time>
      </trkpt>
      <trkpt lat="44.79671" lon="0.83261">
        <ele>199.9</ele>
        <time>2026-05-02T11:01:20.000Z</time>
      </trkpt>
      <trkpt lat="44.79671" lon="0.83261">
        <ele>199.9</ele>
        <time>2026-05-02T11:01:21.000Z</time>
      </trkpt>
      <trkpt lat="44.79671" lon="0.83261">
        <ele>199.9</ele>
        <time>2026-05-02T11:01:22.000Z</time>
      </trkpt>
      <trkpt lat="44.79671" lon="0.83261">
        <ele>199.9</ele>
        <time>2026-05-02T11:01:23.000Z</time>
      </trkpt>
      <trkpt lat="44.79671" lon="0.83261">
        <ele>199.9</ele>
        <time>2026-05-02T11:01:24.000Z</time>
      </trkpt>
      <trkpt lat="44.79671" lon="0.83261">
        <ele>200</ele>
        <time>2026-05-02T11:01:25.000Z</time>
      </trkpt>
      <trkpt lat="44.79671" lon="0.83261">
        <ele>199.6</ele>
        <time>2026-05-02T11:01:26.000Z</time>
      </trkpt>
      <trkpt lat="44.79671" lon="0.8326">
        <ele>199.5</ele>
        <time>2026-05-02T11:01:27.000Z</time>
      </trkpt>
      <trkpt lat="44.79671" lon="0.8326">
        <ele>199.9</ele>
        <time>2026-05-02T11:01:28.000Z</time>
      </trkpt>
      <trkpt lat="44.79671" lon="0.8326">
        <ele>199.9</ele>
        <time>2026-05-02T11:01:29.000Z</time>
      </trkpt>
      <trkpt lat="44.79671" lon="0.83261">
        <ele>199.9</ele>
        <time>2026-05-02T11:01:30.000Z</time>
      </trkpt>
      <trkpt lat="44.79671" lon="0.83261">
        <ele>199.9</ele>
        <time>2026-05-02T11:01:31.000Z</time>
      </trkpt>
      <trkpt lat="44.79671" lon="0.83261">
        <ele>199.9</ele>
        <time>2026-05-02T11:01:32.000Z</time>
      </trkpt>
      <trkpt lat="44.79671" lon="0.83261">
        <ele>199.9</ele>
        <time>2026-05-02T11:01:33.000Z</time>
      </trkpt>
      <trkpt lat="44.79671" lon="0.83261">
        <ele>199.9</ele>
        <time>2026-05-02T11:01:34.000Z</time>
      </trkpt>
      <trkpt lat="44.79671" lon="0.83261">
        <ele>199.9</ele>
        <time>2026-05-02T11:01:35.000Z</time>
      </trkpt>
      <trkpt lat="44.79671" lon="0.83261">
        <ele>199.9</ele>
        <time>2026-05-02T11:01:36.000Z</time>
      </trkpt>
      <trkpt lat="44.79671" lon="0.83261">
        <ele>199.9</ele>
        <time>2026-05-02T11:01:37.000Z</time>
      </trkpt>
      <trkpt lat="44.79671" lon="0.83261">
        <ele>199.9</ele>
        <time>2026-05-02T11:01:38.000Z</time>
      </trkpt>
      <trkpt lat="44.79671" lon="0.83261">
        <ele>199.9</ele>
        <time>2026-05-02T11:01:39.000Z</time>
      </trkpt>
      <trkpt lat="44.79671" lon="0.83262">
        <ele>200.3</ele>
        <time>2026-05-02T11:01:40.000Z</time>
      </trkpt>
      <trkpt lat="44.7967" lon="0.83262">
        <ele>199.5</ele>
        <time>2026-05-02T11:01:41.000Z</time>
      </trkpt>
      <trkpt lat="44.79669" lon="0.83262">
        <ele>199.1</ele>
        <time>2026-05-02T11:01:42.000Z</time>
      </trkpt>
      <trkpt lat="44.79669" lon="0.83262">
        <ele>199.4</ele>
        <time>2026-05-02T11:01:43.000Z</time>
      </trkpt>
      <trkpt lat="44.7967" lon="0.83262">
        <ele>199.4</ele>
        <time>2026-05-02T11:01:44.000Z</time>
      </trkpt>
      <trkpt lat="44.7967" lon="0.83262">
        <ele>199.4</ele>
        <time>2026-05-02T11:01:45.000Z</time>
      </trkpt>
      <trkpt lat="44.7967" lon="0.83262">
        <ele>199.4</ele>
        <time>2026-05-02T11:01:46.000Z</time>
      </trkpt>
      <trkpt lat="44.7967" lon="0.83262">
        <ele>199.4</ele>
        <time>2026-05-02T11:01:47.000Z</time>
      </trkpt>
      <trkpt lat="44.7967" lon="0.83262">
        <ele>199.4</ele>
        <time>2026-05-02T11:01:48.000Z</time>
      </trkpt>
      <trkpt lat="44.7967" lon="0.83262">
        <ele>199.4</ele>
        <time>2026-05-02T11:01:49.000Z</time>
      </trkpt>
      <trkpt lat="44.7967" lon="0.83262">
        <ele>199.4</ele>
        <time>2026-05-02T11:01:50.000Z</time>
      </trkpt>
      <trkpt lat="44.7967" lon="0.83262">
        <ele>199.4</ele>
        <time>2026-05-02T11:01:51.000Z</time>
      </trkpt>
      <trkpt lat="44.7967" lon="0.83262">
        <ele>199.4</ele>
        <time>2026-05-02T11:01:52.000Z</time>
      </trkpt>
      <trkpt lat="44.7967" lon="0.83262">
        <ele>199.4</ele>
        <time>2026-05-02T11:01:53.000Z</time>
      </trkpt>
      <trkpt lat="44.7967" lon="0.83262">
        <ele>199.5</ele>
        <time>2026-05-02T11:01:54.000Z</time>
      </trkpt>
      <trkpt lat="44.7967" lon="0.83262">
        <ele>199.5</ele>
        <time>2026-05-02T11:01:55.000Z</time>
      </trkpt>
      <trkpt lat="44.7967" lon="0.83262">
        <ele>199.5</ele>
        <time>2026-05-02T11:01:56.000Z</time>
      </trkpt>
      <trkpt lat="44.7967" lon="0.83262">
        <ele>199.2</ele>
        <time>2026-05-02T11:01:57.000Z</time>
      </trkpt>
      <trkpt lat="44.79669" lon="0.83263">
        <ele>199.1</ele>
        <time>2026-05-02T11:01:58.000Z</time>
      </trkpt>
      <trkpt lat="44.79667" lon="0.83264">
        <ele>199.1</ele>
        <time>2026-05-02T11:01:59.000Z</time>
      </trkpt>
      <trkpt lat="44.79667" lon="0.83264">
        <ele>199.1</ele>
        <time>2026-05-02T11:02:00.000Z</time>
      </trkpt>
      <trkpt lat="44.79667" lon="0.83264">
        <ele>199.1</ele>
        <time>2026-05-02T11:02:01.000Z</time>
      </trkpt>
      <trkpt lat="44.79667" lon="0.83264">
        <ele>199.1</ele>
        <time>2026-05-02T11:02:02.000Z</time>
      </trkpt>
      <trkpt lat="44.79667" lon="0.83264">
        <ele>199.1</ele>
        <time>2026-05-02T11:02:03.000Z</time>
      </trkpt>
      <trkpt lat="44.79667" lon="0.83264">
        <ele>199.1</ele>
        <time>2026-05-02T11:02:04.000Z</time>
      </trkpt>
      <trkpt lat="44.79667" lon="0.83264">
        <ele>199.1</ele>
        <time>2026-05-02T11:02:05.000Z</time>
      </trkpt>
      <trkpt lat="44.79667" lon="0.83264">
        <ele>199.1</ele>
        <time>2026-05-02T11:02:06.000Z</time>
      </trkpt>
      <trkpt lat="44.79667" lon="0.83264">
        <ele>199.1</ele>
        <time>2026-05-02T11:02:07.000Z</time>
      </trkpt>
      <trkpt lat="44.79667" lon="0.83264">
        <ele>199.1</ele>
        <time>2026-05-02T11:02:08.000Z</time>
      </trkpt>
      <trkpt lat="44.79667" lon="0.83264">
        <ele>199.1</ele>
        <time>2026-05-02T11:02:09.000Z</time>
      </trkpt>
      <trkpt lat="44.79667" lon="0.83264">
        <ele>199.1</ele>
        <time>2026-05-02T11:02:10.000Z</time>
      </trkpt>
      <trkpt lat="44.79667" lon="0.83264">
        <ele>199.1</ele>
        <time>2026-05-02T11:02:11.000Z</time>
      </trkpt>
      <trkpt lat="44.79667" lon="0.83264">
        <ele>199.2</ele>
        <time>2026-05-02T11:02:12.000Z</time>
      </trkpt>
      <trkpt lat="44.79667" lon="0.83264">
        <ele>199.2</ele>
        <time>2026-05-02T11:02:13.000Z</time>
      </trkpt>
      <trkpt lat="44.79667" lon="0.83264">
        <ele>199.2</ele>
        <time>2026-05-02T11:02:14.000Z</time>
      </trkpt>
      <trkpt lat="44.79667" lon="0.83264">
        <ele>199.2</ele>
        <time>2026-05-02T11:02:15.000Z</time>
      </trkpt>
      <trkpt lat="44.79667" lon="0.83264">
        <ele>199.2</ele>
        <time>2026-05-02T11:02:16.000Z</time>
      </trkpt>
      <trkpt lat="44.79667" lon="0.83264">
        <ele>199.2</ele>
        <time>2026-05-02T11:02:17.000Z</time>
      </trkpt>
      <trkpt lat="44.79667" lon="0.83264">
        <ele>199.2</ele>
        <time>2026-05-02T11:02:18.000Z</time>
      </trkpt>
      <trkpt lat="44.79667" lon="0.83264">
        <ele>199.2</ele>
        <time>2026-05-02T11:02:19.000Z</time>
      </trkpt>
      <trkpt lat="44.79667" lon="0.83264">
        <ele>199.2</ele>
        <time>2026-05-02T11:02:20.000Z</time>
      </trkpt>
      <trkpt lat="44.79667" lon="0.83264">
        <ele>199.2</ele>
        <time>2026-05-02T11:02:21.000Z</time>
      </trkpt>
      <trkpt lat="44.79667" lon="0.83264">
        <ele>199.2</ele>
        <time>2026-05-02T11:02:22.000Z</time>
      </trkpt>
      <trkpt lat="44.79667" lon="0.83264">
        <ele>199.3</ele>
        <time>2026-05-02T11:02:23.000Z</time>
      </trkpt>
      <trkpt lat="44.79667" lon="0.83264">
        <ele>199.3</ele>
        <time>2026-05-02T11:02:24.000Z</time>
      </trkpt>
      <trkpt lat="44.79667" lon="0.83264">
        <ele>199.3</ele>
        <time>2026-05-02T11:02:25.000Z</time>
      </trkpt>
      <trkpt lat="44.79667" lon="0.83264">
        <ele>199.3</ele>
        <time>2026-05-02T11:02:26.000Z</time>
      </trkpt>
      <trkpt lat="44.79667" lon="0.83264">
        <ele>199.3</ele>
        <time>2026-05-02T11:02:27.000Z</time>
      </trkpt>
      <trkpt lat="44.79667" lon="0.83264">
        <ele>199.3</ele>
        <time>2026-05-02T11:02:28.000Z</time>
      </trkpt>
      <trkpt lat="44.79667" lon="0.83264">
        <ele>199.3</ele>
        <time>2026-05-02T11:02:29.000Z</time>
      </trkpt>
      <trkpt lat="44.79667" lon="0.83264">
        <ele>199.3</ele>
        <time>2026-05-02T11:02:30.000Z</time>
      </trkpt>
      <trkpt lat="44.79667" lon="0.83264">
        <ele>199.3</ele>
        <time>2026-05-02T11:02:31.000Z</time>
      </trkpt>
      <trkpt lat="44.79667" lon="0.83264">
        <ele>199.3</ele>
        <time>2026-05-02T11:02:32.000Z</time>
      </trkpt>
      <trkpt lat="44.79667" lon="0.83264">
        <ele>199.3</ele>
        <time>2026-05-02T11:02:33.000Z</time>
      </trkpt>
      <trkpt lat="44.79667" lon="0.83264">
        <ele>199.3</ele>
        <time>2026-05-02T11:02:34.000Z</time>
      </trkpt>
      <trkpt lat="44.79667" lon="0.83264">
        <ele>199.3</ele>
        <time>2026-05-02T11:02:35.000Z</time>
      </trkpt>
      <trkpt lat="44.79667" lon="0.83264">
        <ele>199.3</ele>
        <time>2026-05-02T11:02:36.000Z</time>
      </trkpt>
      <trkpt lat="44.79667" lon="0.83264">
        <ele>199.3</ele>
        <time>2026-05-02T11:02:37.000Z</time>
      </trkpt>
      <trkpt lat="44.79667" lon="0.83264">
        <ele>199.3</ele>
        <time>2026-05-02T11:02:38.000Z</time>
      </trkpt>
      <trkpt lat="44.79667" lon="0.83264">
        <ele>199.3</ele>
        <time>2026-05-02T11:02:39.000Z</time>
      </trkpt>
      <trkpt lat="44.79667" lon="0.83264">
        <ele>199.3</ele>
        <time>2026-05-02T11:02:40.000Z</time>
      </trkpt>
      <trkpt lat="44.79667" lon="0.83264">
        <ele>199.3</ele>
        <time>2026-05-02T11:02:41.000Z</time>
      </trkpt>
      <trkpt lat="44.79667" lon="0.83264">
        <ele>199.3</ele>
        <time>2026-05-02T11:02:42.000Z</time>
      </trkpt>
      <trkpt lat="44.79667" lon="0.83264">
        <ele>199.3</ele>
        <time>2026-05-02T11:02:43.000Z</time>
      </trkpt>
      <trkpt lat="44.79667" lon="0.83264">
        <ele>199.3</ele>
        <time>2026-05-02T11:02:44.000Z</time>
      </trkpt>
      <trkpt lat="44.79667" lon="0.83264">
        <ele>199.3</ele>
        <time>2026-05-02T11:02:45.000Z</time>
      </trkpt>
      <trkpt lat="44.79667" lon="0.83265">
        <ele>199.3</ele>
        <time>2026-05-02T11:02:46.000Z</time>
      </trkpt>
      <trkpt lat="44.79667" lon="0.83265">
        <ele>199.3</ele>
        <time>2026-05-02T11:02:47.000Z</time>
      </trkpt>
      <trkpt lat="44.79667" lon="0.83265">
        <ele>199.3</ele>
        <time>2026-05-02T11:02:48.000Z</time>
      </trkpt>
      <trkpt lat="44.79667" lon="0.83265">
        <ele>199.3</ele>
        <time>2026-05-02T11:02:49.000Z</time>
      </trkpt>
      <trkpt lat="44.79667" lon="0.83265">
        <ele>199.3</ele>
        <time>2026-05-02T11:02:50.000Z</time>
      </trkpt>
      <trkpt lat="44.79667" lon="0.83265">
        <ele>199.3</ele>
        <time>2026-05-02T11:02:51.000Z</time>
      </trkpt>
      <trkpt lat="44.79667" lon="0.83265">
        <ele>199.3</ele>
        <time>2026-05-02T11:02:52.000Z</time>
      </trkpt>
      <trkpt lat="44.79667" lon="0.83265">
        <ele>199.3</ele>
        <time>2026-05-02T11:02:53.000Z</time>
      </trkpt>
      <trkpt lat="44.79667" lon="0.83265">
        <ele>199.3</ele>
        <time>2026-05-02T11:02:54.000Z</time>
      </trkpt>
      <trkpt lat="44.79667" lon="0.83265">
        <ele>199.3</ele>
        <time>2026-05-02T11:02:55.000Z</time>
      </trkpt>
      <trkpt lat="44.79667" lon="0.83265">
        <ele>199.3</ele>
        <time>2026-05-02T11:02:56.000Z</time>
      </trkpt>
      <trkpt lat="44.79667" lon="0.83265">
        <ele>199.3</ele>
        <time>2026-05-02T11:02:57.000Z</time>
      </trkpt>
      <trkpt lat="44.79667" lon="0.83265">
        <ele>199.3</ele>
        <time>2026-05-02T11:02:58.000Z</time>
      </trkpt>
      <trkpt lat="44.79667" lon="0.83264">
        <ele>199.9</ele>
        <time>2026-05-02T11:02:59.000Z</time>
      </trkpt>
      <trkpt lat="44.79666" lon="0.83264">
        <ele>199.8</ele>
        <time>2026-05-02T11:03:00.000Z</time>
      </trkpt>
      <trkpt lat="44.79666" lon="0.83264">
        <ele>199.8</ele>
        <time>2026-05-02T11:03:01.000Z</time>
      </trkpt>
      <trkpt lat="44.79666" lon="0.83264">
        <ele>199.8</ele>
        <time>2026-05-02T11:03:02.000Z</time>
      </trkpt>
      <trkpt lat="44.79666" lon="0.83264">
        <ele>199.8</ele>
        <time>2026-05-02T11:03:03.000Z</time>
      </trkpt>
      <trkpt lat="44.79666" lon="0.83264">
        <ele>199.9</ele>
        <time>2026-05-02T11:03:04.000Z</time>
      </trkpt>
      <trkpt lat="44.79666" lon="0.83264">
        <ele>199.9</ele>
        <time>2026-05-02T11:03:05.000Z</time>
      </trkpt>
      <trkpt lat="44.79665" lon="0.83264">
        <ele>199.9</ele>
        <time>2026-05-02T11:03:06.000Z</time>
      </trkpt>
      <trkpt lat="44.79665" lon="0.83264">
        <ele>199.9</ele>
        <time>2026-05-02T11:03:07.000Z</time>
      </trkpt>
      <trkpt lat="44.79665" lon="0.83264">
        <ele>199.9</ele>
        <time>2026-05-02T11:03:08.000Z</time>
      </trkpt>
      <trkpt lat="44.79665" lon="0.83264">
        <ele>199.9</ele>
        <time>2026-05-02T11:03:09.000Z</time>
      </trkpt>
      <trkpt lat="44.79665" lon="0.83264">
        <ele>199.9</ele>
        <time>2026-05-02T11:03:10.000Z</time>
      </trkpt>
      <trkpt lat="44.79665" lon="0.83264">
        <ele>199.9</ele>
        <time>2026-05-02T11:03:11.000Z</time>
      </trkpt>
      <trkpt lat="44.79665" lon="0.83264">
        <ele>199.9</ele>
        <time>2026-05-02T11:03:12.000Z</time>
      </trkpt>
      <trkpt lat="44.79665" lon="0.83264">
        <ele>199.9</ele>
        <time>2026-05-02T11:03:13.000Z</time>
      </trkpt>
      <trkpt lat="44.79665" lon="0.83264">
        <ele>199.9</ele>
        <time>2026-05-02T11:03:14.000Z</time>
      </trkpt>
      <trkpt lat="44.79665" lon="0.83264">
        <ele>199.9</ele>
        <time>2026-05-02T11:03:15.000Z</time>
      </trkpt>
      <trkpt lat="44.79665" lon="0.83264">
        <ele>199.9</ele>
        <time>2026-05-02T11:03:16.000Z</time>
      </trkpt>
      <trkpt lat="44.79665" lon="0.83264">
        <ele>199.9</ele>
        <time>2026-05-02T11:03:17.000Z</time>
      </trkpt>
      <trkpt lat="44.79665" lon="0.83264">
        <ele>199.9</ele>
        <time>2026-05-02T11:03:18.000Z</time>
      </trkpt>
      <trkpt lat="44.79665" lon="0.83264">
        <ele>199.9</ele>
        <time>2026-05-02T11:03:19.000Z</time>
      </trkpt>
      <trkpt lat="44.79665" lon="0.83264">
        <ele>199.9</ele>
        <time>2026-05-02T11:03:20.000Z</time>
      </trkpt>
      <trkpt lat="44.79665" lon="0.83264">
        <ele>199.8</ele>
        <time>2026-05-02T11:03:21.000Z</time>
      </trkpt>
      <trkpt lat="44.79665" lon="0.83264">
        <ele>199.9</ele>
        <time>2026-05-02T11:03:22.000Z</time>
      </trkpt>
      <trkpt lat="44.79665" lon="0.83264">
        <ele>199.9</ele>
        <time>2026-05-02T11:03:23.000Z</time>
      </trkpt>
      <trkpt lat="44.79665" lon="0.83264">
        <ele>199.9</ele>
        <time>2026-05-02T11:03:24.000Z</time>
      </trkpt>
      <trkpt lat="44.79665" lon="0.83264">
        <ele>199.8</ele>
        <time>2026-05-02T11:03:25.000Z</time>
      </trkpt>
      <trkpt lat="44.79665" lon="0.83264">
        <ele>199.8</ele>
        <time>2026-05-02T11:03:26.000Z</time>
      </trkpt>
      <trkpt lat="44.79665" lon="0.83264">
        <ele>199.8</ele>
        <time>2026-05-02T11:03:27.000Z</time>
      </trkpt>
      <trkpt lat="44.79665" lon="0.83264">
        <ele>199.8</ele>
        <time>2026-05-02T11:03:28.000Z</time>
      </trkpt>
      <trkpt lat="44.79665" lon="0.83264">
        <ele>199.8</ele>
        <time>2026-05-02T11:03:29.000Z</time>
      </trkpt>
      <trkpt lat="44.79665" lon="0.83264">
        <ele>199.8</ele>
        <time>2026-05-02T11:03:30.000Z</time>
      </trkpt>
      <trkpt lat="44.79665" lon="0.83264">
        <ele>199.8</ele>
        <time>2026-05-02T11:03:31.000Z</time>
      </trkpt>
      <trkpt lat="44.79665" lon="0.83264">
        <ele>199.8</ele>
        <time>2026-05-02T11:03:32.000Z</time>
      </trkpt>
      <trkpt lat="44.79665" lon="0.83264">
        <ele>199.8</ele>
        <time>2026-05-02T11:03:33.000Z</time>
      </trkpt>
      <trkpt lat="44.79665" lon="0.83264">
        <ele>199.8</ele>
        <time>2026-05-02T11:03:34.000Z</time>
      </trkpt>
      <trkpt lat="44.79665" lon="0.83264">
        <ele>199.8</ele>
        <time>2026-05-02T11:03:35.000Z</time>
      </trkpt>
      <trkpt lat="44.79665" lon="0.83264">
        <ele>200.2</ele>
        <time>2026-05-02T11:03:36.000Z</time>
      </trkpt>
      <trkpt lat="44.79665" lon="0.83264">
        <ele>200.4</ele>
        <time>2026-05-02T11:03:37.000Z</time>
      </trkpt>
      <trkpt lat="44.79665" lon="0.83263">
        <ele>200.6</ele>
        <time>2026-05-02T11:03:38.000Z</time>
      </trkpt>
      <trkpt lat="44.79664" lon="0.83263">
        <ele>201.7</ele>
        <time>2026-05-02T11:03:39.000Z</time>
      </trkpt>
      <trkpt lat="44.79664" lon="0.83262">
        <ele>201.8</ele>
        <time>2026-05-02T11:03:40.000Z</time>
      </trkpt>
      <trkpt lat="44.79663" lon="0.83263">
        <ele>201.9</ele>
        <time>2026-05-02T11:03:41.000Z</time>
      </trkpt>
      <trkpt lat="44.79662" lon="0.83263">
        <ele>201.9</ele>
        <time>2026-05-02T11:03:42.000Z</time>
      </trkpt>
      <trkpt lat="44.79662" lon="0.83263">
        <ele>201.6</ele>
        <time>2026-05-02T11:03:43.000Z</time>
      </trkpt>
      <trkpt lat="44.79662" lon="0.83263">
        <ele>201.6</ele>
        <time>2026-05-02T11:03:44.000Z</time>
      </trkpt>
      <trkpt lat="44.79662" lon="0.83263">
        <ele>201.6</ele>
        <time>2026-05-02T11:03:45.000Z</time>
      </trkpt>
      <trkpt lat="44.79662" lon="0.83263">
        <ele>201.6</ele>
        <time>2026-05-02T11:03:46.000Z</time>
      </trkpt>
      <trkpt lat="44.79662" lon="0.83264">
        <ele>201.6</ele>
        <time>2026-05-02T11:03:47.000Z</time>
      </trkpt>
      <trkpt lat="44.79662" lon="0.83264">
        <ele>201.6</ele>
        <time>2026-05-02T11:03:48.000Z</time>
      </trkpt>
      <trkpt lat="44.79662" lon="0.83263">
        <ele>202</ele>
        <time>2026-05-02T11:03:49.000Z</time>
      </trkpt>
      <trkpt lat="44.79662" lon="0.83263">
        <ele>201.9</ele>
        <time>2026-05-02T11:03:50.000Z</time>
      </trkpt>
      <trkpt lat="44.79662" lon="0.83263">
        <ele>201.3</ele>
        <time>2026-05-02T11:03:51.000Z</time>
      </trkpt>
      <trkpt lat="44.79662" lon="0.83263">
        <ele>200.6</ele>
        <time>2026-05-02T11:03:52.000Z</time>
      </trkpt>
      <trkpt lat="44.79663" lon="0.83262">
        <ele>200.6</ele>
        <time>2026-05-02T11:03:53.000Z</time>
      </trkpt>
      <trkpt lat="44.79663" lon="0.83261">
        <ele>200.8</ele>
        <time>2026-05-02T11:03:54.000Z</time>
      </trkpt>
      <trkpt lat="44.79663" lon="0.83261">
        <ele>200.4</ele>
        <time>2026-05-02T11:03:55.000Z</time>
      </trkpt>
      <trkpt lat="44.79664" lon="0.83261">
        <ele>201.1</ele>
        <time>2026-05-02T11:03:56.000Z</time>
      </trkpt>
      <trkpt lat="44.79664" lon="0.83261">
        <ele>201.1</ele>
        <time>2026-05-02T11:03:57.000Z</time>
      </trkpt>
      <trkpt lat="44.79664" lon="0.83261">
        <ele>201.1</ele>
        <time>2026-05-02T11:03:58.000Z</time>
      </trkpt>
      <trkpt lat="44.79664" lon="0.83259">
        <ele>201.1</ele>
        <time>2026-05-02T11:03:59.000Z</time>
      </trkpt>
      <trkpt lat="44.79663" lon="0.83258">
        <ele>200.9</ele>
        <time>2026-05-02T11:04:00.000Z</time>
      </trkpt>
      <trkpt lat="44.79663" lon="0.83257">
        <ele>200.6</ele>
        <time>2026-05-02T11:04:01.000Z</time>
      </trkpt>
      <trkpt lat="44.79663" lon="0.83256">
        <ele>200.4</ele>
        <time>2026-05-02T11:04:02.000Z</time>
      </trkpt>
      <trkpt lat="44.79663" lon="0.83255">
        <ele>200.1</ele>
        <time>2026-05-02T11:04:03.000Z</time>
      </trkpt>
      <trkpt lat="44.79663" lon="0.83254">
        <ele>199.9</ele>
        <time>2026-05-02T11:04:04.000Z</time>
      </trkpt>
      <trkpt lat="44.79663" lon="0.83254">
        <ele>200.3</ele>
        <time>2026-05-02T11:04:05.000Z</time>
      </trkpt>
      <trkpt lat="44.79663" lon="0.83254">
        <ele>200.3</ele>
        <time>2026-05-02T11:04:06.000Z</time>
      </trkpt>
      <trkpt lat="44.79663" lon="0.83254">
        <ele>200.3</ele>
        <time>2026-05-02T11:04:07.000Z</time>
      </trkpt>
      <trkpt lat="44.79663" lon="0.83253">
        <ele>198.7</ele>
        <time>2026-05-02T11:04:08.000Z</time>
      </trkpt>
      <trkpt lat="44.79663" lon="0.83251">
        <ele>197.5</ele>
        <time>2026-05-02T11:04:09.000Z</time>
      </trkpt>
      <trkpt lat="44.79663" lon="0.83252">
        <ele>197.4</ele>
        <time>2026-05-02T11:04:10.000Z</time>
      </trkpt>
      <trkpt lat="44.79663" lon="0.83252">
        <ele>197.4</ele>
        <time>2026-05-02T11:04:11.000Z</time>
      </trkpt>
      <trkpt lat="44.79663" lon="0.83252">
        <ele>197.4</ele>
        <time>2026-05-02T11:04:12.000Z</time>
      </trkpt>
      <trkpt lat="44.79663" lon="0.83252">
        <ele>197.4</ele>
        <time>2026-05-02T11:04:13.000Z</time>
      </trkpt>
      <trkpt lat="44.79663" lon="0.83252">
        <ele>197.4</ele>
        <time>2026-05-02T11:04:14.000Z</time>
      </trkpt>
      <trkpt lat="44.79663" lon="0.83252">
        <ele>196.8</ele>
        <time>2026-05-02T11:04:15.000Z</time>
      </trkpt>
      <trkpt lat="44.79663" lon="0.83252">
        <ele>196.8</ele>
        <time>2026-05-02T11:04:16.000Z</time>
      </trkpt>
      <trkpt lat="44.79663" lon="0.83253">
        <ele>196.1</ele>
        <time>2026-05-02T11:04:17.000Z</time>
      </trkpt>
      <trkpt lat="44.79663" lon="0.83253">
        <ele>196.1</ele>
        <time>2026-05-02T11:04:18.000Z</time>
      </trkpt>
      <trkpt lat="44.79663" lon="0.83253">
        <ele>196.1</ele>
        <time>2026-05-02T11:04:19.000Z</time>
      </trkpt>
      <trkpt lat="44.79663" lon="0.83253">
        <ele>196.1</ele>
        <time>2026-05-02T11:04:20.000Z</time>
      </trkpt>
      <trkpt lat="44.79663" lon="0.83253">
        <ele>196.1</ele>
        <time>2026-05-02T11:04:21.000Z</time>
      </trkpt>
      <trkpt lat="44.79663" lon="0.83253">
        <ele>196.1</ele>
        <time>2026-05-02T11:04:22.000Z</time>
      </trkpt>
      <trkpt lat="44.79663" lon="0.83253">
        <ele>196.1</ele>
        <time>2026-05-02T11:04:23.000Z</time>
      </trkpt>
      <trkpt lat="44.79663" lon="0.83253">
        <ele>196.1</ele>
        <time>2026-05-02T11:04:24.000Z</time>
      </trkpt>
      <trkpt lat="44.79663" lon="0.83253">
        <ele>196</ele>
        <time>2026-05-02T11:04:25.000Z</time>
      </trkpt>
      <trkpt lat="44.79663" lon="0.83253">
        <ele>196</ele>
        <time>2026-05-02T11:04:26.000Z</time>
      </trkpt>
      <trkpt lat="44.79663" lon="0.83253">
        <ele>196</ele>
        <time>2026-05-02T11:04:27.000Z</time>
      </trkpt>
      <trkpt lat="44.79663" lon="0.83253">
        <ele>196</ele>
        <time>2026-05-02T11:04:28.000Z</time>
      </trkpt>
      <trkpt lat="44.79663" lon="0.83253">
        <ele>196</ele>
        <time>2026-05-02T11:04:29.000Z</time>
      </trkpt>
      <trkpt lat="44.79663" lon="0.83253">
        <ele>196</ele>
        <time>2026-05-02T11:04:30.000Z</time>
      </trkpt>
      <trkpt lat="44.79663" lon="0.83253">
        <ele>196</ele>
        <time>2026-05-02T11:04:31.000Z</time>
      </trkpt>
      <trkpt lat="44.79663" lon="0.83253">
        <ele>194.9</ele>
        <time>2026-05-02T11:04:32.000Z</time>
      </trkpt>
      <trkpt lat="44.79664" lon="0.83253">
        <ele>194.7</ele>
        <time>2026-05-02T11:04:33.000Z</time>
      </trkpt>
      <trkpt lat="44.79665" lon="0.83255">
        <ele>195</ele>
        <time>2026-05-02T11:04:34.000Z</time>
      </trkpt>
      <trkpt lat="44.79665" lon="0.83255">
        <ele>195</ele>
        <time>2026-05-02T11:04:35.000Z</time>
      </trkpt>
      <trkpt lat="44.79665" lon="0.83255">
        <ele>195</ele>
        <time>2026-05-02T11:04:36.000Z</time>
      </trkpt>
      <trkpt lat="44.79666" lon="0.83255">
        <ele>195</ele>
        <time>2026-05-02T11:04:37.000Z</time>
      </trkpt>
      <trkpt lat="44.79666" lon="0.83255">
        <ele>195</ele>
        <time>2026-05-02T11:04:38.000Z</time>
      </trkpt>
      <trkpt lat="44.79666" lon="0.83255">
        <ele>195</ele>
        <time>2026-05-02T11:04:39.000Z</time>
      </trkpt>
      <trkpt lat="44.79666" lon="0.83255">
        <ele>195</ele>
        <time>2026-05-02T11:04:40.000Z</time>
      </trkpt>
      <trkpt lat="44.79666" lon="0.83255">
        <ele>195</ele>
        <time>2026-05-02T11:04:41.000Z</time>
      </trkpt>
      <trkpt lat="44.79666" lon="0.83255">
        <ele>195</ele>
        <time>2026-05-02T11:04:42.000Z</time>
      </trkpt>
      <trkpt lat="44.79666" lon="0.83255">
        <ele>195</ele>
        <time>2026-05-02T11:04:43.000Z</time>
      </trkpt>
      <trkpt lat="44.79666" lon="0.83255">
        <ele>195</ele>
        <time>2026-05-02T11:04:44.000Z</time>
      </trkpt>
      <trkpt lat="44.79666" lon="0.83255">
        <ele>195</ele>
        <time>2026-05-02T11:04:45.000Z</time>
      </trkpt>
      <trkpt lat="44.79666" lon="0.83255">
        <ele>195.1</ele>
        <time>2026-05-02T11:04:46.000Z</time>
      </trkpt>
      <trkpt lat="44.79666" lon="0.83255">
        <ele>195.1</ele>
        <time>2026-05-02T11:04:47.000Z</time>
      </trkpt>
      <trkpt lat="44.79666" lon="0.83255">
        <ele>195.1</ele>
        <time>2026-05-02T11:04:48.000Z</time>
      </trkpt>
      <trkpt lat="44.79666" lon="0.83255">
        <ele>195.1</ele>
        <time>2026-05-02T11:04:49.000Z</time>
      </trkpt>
      <trkpt lat="44.79666" lon="0.83255">
        <ele>195.1</ele>
        <time>2026-05-02T11:04:50.000Z</time>
      </trkpt>
      <trkpt lat="44.79666" lon="0.83255">
        <ele>195.1</ele>
        <time>2026-05-02T11:04:51.000Z</time>
      </trkpt>
      <trkpt lat="44.79666" lon="0.83255">
        <ele>195.1</ele>
        <time>2026-05-02T11:04:52.000Z</time>
      </trkpt>
      <trkpt lat="44.79666" lon="0.83255">
        <ele>195.1</ele>
        <time>2026-05-02T11:04:53.000Z</time>
      </trkpt>
      <trkpt lat="44.79666" lon="0.83255">
        <ele>195.1</ele>
        <time>2026-05-02T11:04:54.000Z</time>
      </trkpt>
      <trkpt lat="44.79666" lon="0.83255">
        <ele>195.1</ele>
        <time>2026-05-02T11:04:55.000Z</time>
      </trkpt>
      <trkpt lat="44.79666" lon="0.83255">
        <ele>195.1</ele>
        <time>2026-05-02T11:04:56.000Z</time>
      </trkpt>
      <trkpt lat="44.79666" lon="0.83255">
        <ele>195.1</ele>
        <time>2026-05-02T11:04:57.000Z</time>
      </trkpt>
      <trkpt lat="44.79666" lon="0.83255">
        <ele>195.1</ele>
        <time>2026-05-02T11:04:58.000Z</time>
      </trkpt>
      <trkpt lat="44.79666" lon="0.83255">
        <ele>195.1</ele>
        <time>2026-05-02T11:04:59.000Z</time>
      </trkpt>
      <trkpt lat="44.79666" lon="0.83255">
        <ele>195.1</ele>
        <time>2026-05-02T11:05:00.000Z</time>
      </trkpt>
      <trkpt lat="44.79666" lon="0.83255">
        <ele>195.1</ele>
        <time>2026-05-02T11:05:01.000Z</time>
      </trkpt>
      <trkpt lat="44.79666" lon="0.83255">
        <ele>195.1</ele>
        <time>2026-05-02T11:05:02.000Z</time>
      </trkpt>
      <trkpt lat="44.79666" lon="0.83255">
        <ele>195.1</ele>
        <time>2026-05-02T11:05:03.000Z</time>
      </trkpt>
      <trkpt lat="44.79666" lon="0.83255">
        <ele>195.1</ele>
        <time>2026-05-02T11:05:04.000Z</time>
      </trkpt>
      <trkpt lat="44.79666" lon="0.83255">
        <ele>195.1</ele>
        <time>2026-05-02T11:05:05.000Z</time>
      </trkpt>
      <trkpt lat="44.79666" lon="0.83255">
        <ele>195.1</ele>
        <time>2026-05-02T11:05:06.000Z</time>
      </trkpt>
      <trkpt lat="44.79666" lon="0.83255">
        <ele>195.1</ele>
        <time>2026-05-02T11:05:07.000Z</time>
      </trkpt>
      <trkpt lat="44.79666" lon="0.83255">
        <ele>195.1</ele>
        <time>2026-05-02T11:05:08.000Z</time>
      </trkpt>
      <trkpt lat="44.79666" lon="0.83254">
        <ele>196</ele>
        <time>2026-05-02T11:05:09.000Z</time>
      </trkpt>
      <trkpt lat="44.79666" lon="0.83254">
        <ele>195.6</ele>
        <time>2026-05-02T11:05:10.000Z</time>
      </trkpt>
      <trkpt lat="44.79665" lon="0.83254">
        <ele>195.7</ele>
        <time>2026-05-02T11:05:11.000Z</time>
      </trkpt>
      <trkpt lat="44.79665" lon="0.83253">
        <ele>196</ele>
        <time>2026-05-02T11:05:12.000Z</time>
      </trkpt>
      <trkpt lat="44.79665" lon="0.83253">
        <ele>195</ele>
        <time>2026-05-02T11:05:13.000Z</time>
      </trkpt>
      <trkpt lat="44.79666" lon="0.83253">
        <ele>195.3</ele>
        <time>2026-05-02T11:05:14.000Z</time>
      </trkpt>
      <trkpt lat="44.79666" lon="0.83253">
        <ele>195.3</ele>
        <time>2026-05-02T11:05:15.000Z</time>
      </trkpt>
      <trkpt lat="44.79666" lon="0.83253">
        <ele>195.3</ele>
        <time>2026-05-02T11:05:16.000Z</time>
      </trkpt>
      <trkpt lat="44.79666" lon="0.83253">
        <ele>195.3</ele>
        <time>2026-05-02T11:05:17.000Z</time>
      </trkpt>
      <trkpt lat="44.79666" lon="0.83253">
        <ele>195.2</ele>
        <time>2026-05-02T11:05:18.000Z</time>
      </trkpt>
      <trkpt lat="44.79666" lon="0.83253">
        <ele>195.2</ele>
        <time>2026-05-02T11:05:19.000Z</time>
      </trkpt>
      <trkpt lat="44.79666" lon="0.83253">
        <ele>195.2</ele>
        <time>2026-05-02T11:05:20.000Z</time>
      </trkpt>
      <trkpt lat="44.79666" lon="0.83253">
        <ele>195.2</ele>
        <time>2026-05-02T11:05:21.000Z</time>
      </trkpt>
      <trkpt lat="44.79666" lon="0.83253">
        <ele>195.2</ele>
        <time>2026-05-02T11:05:22.000Z</time>
      </trkpt>
      <trkpt lat="44.79666" lon="0.83253">
        <ele>195.2</ele>
        <time>2026-05-02T11:05:23.000Z</time>
      </trkpt>
      <trkpt lat="44.79666" lon="0.83253">
        <ele>195.2</ele>
        <time>2026-05-02T11:05:24.000Z</time>
      </trkpt>
      <trkpt lat="44.79666" lon="0.83253">
        <ele>195.2</ele>
        <time>2026-05-02T11:05:25.000Z</time>
      </trkpt>
      <trkpt lat="44.79666" lon="0.83253">
        <ele>195.2</ele>
        <time>2026-05-02T11:05:26.000Z</time>
      </trkpt>
      <trkpt lat="44.79666" lon="0.83253">
        <ele>195.2</ele>
        <time>2026-05-02T11:05:27.000Z</time>
      </trkpt>
      <trkpt lat="44.79666" lon="0.83253">
        <ele>195.2</ele>
        <time>2026-05-02T11:05:28.000Z</time>
      </trkpt>
      <trkpt lat="44.79666" lon="0.83253">
        <ele>195.2</ele>
        <time>2026-05-02T11:05:29.000Z</time>
      </trkpt>
      <trkpt lat="44.79666" lon="0.83253">
        <ele>195.2</ele>
        <time>2026-05-02T11:05:30.000Z</time>
      </trkpt>
      <trkpt lat="44.79666" lon="0.83253">
        <ele>195.2</ele>
        <time>2026-05-02T11:05:31.000Z</time>
      </trkpt>
      <trkpt lat="44.79666" lon="0.83253">
        <ele>195.2</ele>
        <time>2026-05-02T11:05:32.000Z</time>
      </trkpt>
      <trkpt lat="44.79666" lon="0.83253">
        <ele>195.2</ele>
        <time>2026-05-02T11:05:33.000Z</time>
      </trkpt>
      <trkpt lat="44.79666" lon="0.83253">
        <ele>195.2</ele>
        <time>2026-05-02T11:05:34.000Z</time>
      </trkpt>
      <trkpt lat="44.79666" lon="0.83253">
        <ele>195.2</ele>
        <time>2026-05-02T11:05:35.000Z</time>
      </trkpt>
      <trkpt lat="44.79666" lon="0.83253">
        <ele>195.2</ele>
        <time>2026-05-02T11:05:36.000Z</time>
      </trkpt>
      <trkpt lat="44.79666" lon="0.83253">
        <ele>195.2</ele>
        <time>2026-05-02T11:05:37.000Z</time>
      </trkpt>
      <trkpt lat="44.79666" lon="0.83253">
        <ele>195.2</ele>
        <time>2026-05-02T11:05:38.000Z</time>
      </trkpt>
      <trkpt lat="44.79666" lon="0.83253">
        <ele>195.2</ele>
        <time>2026-05-02T11:05:39.000Z</time>
      </trkpt>
      <trkpt lat="44.79666" lon="0.83253">
        <ele>195.2</ele>
        <time>2026-05-02T11:05:40.000Z</time>
      </trkpt>
      <trkpt lat="44.79666" lon="0.83253">
        <ele>195.2</ele>
        <time>2026-05-02T11:05:41.000Z</time>
      </trkpt>
      <trkpt lat="44.79666" lon="0.83253">
        <ele>195.2</ele>
        <time>2026-05-02T11:05:42.000Z</time>
      </trkpt>
      <trkpt lat="44.79666" lon="0.83253">
        <ele>195.2</ele>
        <time>2026-05-02T11:05:43.000Z</time>
      </trkpt>
      <trkpt lat="44.79666" lon="0.83253">
        <ele>195.2</ele>
        <time>2026-05-02T11:05:44.000Z</time>
      </trkpt>
      <trkpt lat="44.79665" lon="0.83253">
        <ele>195.1</ele>
        <time>2026-05-02T11:05:45.000Z</time>
      </trkpt>
      <trkpt lat="44.79665" lon="0.83253">
        <ele>195.1</ele>
        <time>2026-05-02T11:05:46.000Z</time>
      </trkpt>
      <trkpt lat="44.79665" lon="0.83253">
        <ele>195</ele>
        <time>2026-05-02T11:05:47.000Z</time>
      </trkpt>
      <trkpt lat="44.79665" lon="0.83253">
        <ele>195</ele>
        <time>2026-05-02T11:05:48.000Z</time>
      </trkpt>
      <trkpt lat="44.79665" lon="0.83253">
        <ele>195</ele>
        <time>2026-05-02T11:05:49.000Z</time>
      </trkpt>
      <trkpt lat="44.79665" lon="0.83253">
        <ele>195</ele>
        <time>2026-05-02T11:05:50.000Z</time>
      </trkpt>
      <trkpt lat="44.79665" lon="0.83253">
        <ele>195</ele>
        <time>2026-05-02T11:05:51.000Z</time>
      </trkpt>
      <trkpt lat="44.79665" lon="0.83253">
        <ele>194.8</ele>
        <time>2026-05-02T11:05:52.000Z</time>
      </trkpt>
      <trkpt lat="44.79665" lon="0.83252">
        <ele>194.6</ele>
        <time>2026-05-02T11:05:53.000Z</time>
      </trkpt>
      <trkpt lat="44.79665" lon="0.83252">
        <ele>194.6</ele>
        <time>2026-05-02T11:05:54.000Z</time>
      </trkpt>
      <trkpt lat="44.79665" lon="0.83252">
        <ele>194.6</ele>
        <time>2026-05-02T11:05:55.000Z</time>
      </trkpt>
      <trkpt lat="44.79665" lon="0.83252">
        <ele>194.6</ele>
        <time>2026-05-02T11:05:56.000Z</time>
      </trkpt>
      <trkpt lat="44.79665" lon="0.83252">
        <ele>194.4</ele>
        <time>2026-05-02T11:05:57.000Z</time>
      </trkpt>
      <trkpt lat="44.79665" lon="0.83252">
        <ele>194.4</ele>
        <time>2026-05-02T11:05:58.000Z</time>
      </trkpt>
      <trkpt lat="44.79665" lon="0.83252">
        <ele>194.4</ele>
        <time>2026-05-02T11:05:59.000Z</time>
      </trkpt>
      <trkpt lat="44.79665" lon="0.83252">
        <ele>194.4</ele>
        <time>2026-05-02T11:06:00.000Z</time>
      </trkpt>
      <trkpt lat="44.79665" lon="0.83252">
        <ele>194.4</ele>
        <time>2026-05-02T11:06:01.000Z</time>
      </trkpt>
      <trkpt lat="44.79665" lon="0.83252">
        <ele>194.4</ele>
        <time>2026-05-02T11:06:02.000Z</time>
      </trkpt>
      <trkpt lat="44.79665" lon="0.83252">
        <ele>194.4</ele>
        <time>2026-05-02T11:06:03.000Z</time>
      </trkpt>
      <trkpt lat="44.79665" lon="0.83252">
        <ele>194.4</ele>
        <time>2026-05-02T11:06:04.000Z</time>
      </trkpt>
      <trkpt lat="44.79665" lon="0.83252">
        <ele>194.4</ele>
        <time>2026-05-02T11:06:05.000Z</time>
      </trkpt>
      <trkpt lat="44.79665" lon="0.83252">
        <ele>194.4</ele>
        <time>2026-05-02T11:06:06.000Z</time>
      </trkpt>
      <trkpt lat="44.79665" lon="0.83252">
        <ele>194.4</ele>
        <time>2026-05-02T11:06:07.000Z</time>
      </trkpt>
      <trkpt lat="44.79665" lon="0.83252">
        <ele>194.4</ele>
        <time>2026-05-02T11:06:08.000Z</time>
      </trkpt>
      <trkpt lat="44.79665" lon="0.83252">
        <ele>194.4</ele>
        <time>2026-05-02T11:06:09.000Z</time>
      </trkpt>
      <trkpt lat="44.79665" lon="0.83252">
        <ele>194.4</ele>
        <time>2026-05-02T11:06:10.000Z</time>
      </trkpt>
      <trkpt lat="44.79665" lon="0.83252">
        <ele>194.4</ele>
        <time>2026-05-02T11:06:11.000Z</time>
      </trkpt>
      <trkpt lat="44.79665" lon="0.83252">
        <ele>194.4</ele>
        <time>2026-05-02T11:06:12.000Z</time>
      </trkpt>
      <trkpt lat="44.79665" lon="0.83252">
        <ele>194.4</ele>
        <time>2026-05-02T11:06:13.000Z</time>
      </trkpt>
      <trkpt lat="44.79665" lon="0.83252">
        <ele>194.4</ele>
        <time>2026-05-02T11:06:14.000Z</time>
      </trkpt>
      <trkpt lat="44.79665" lon="0.83252">
        <ele>194.4</ele>
        <time>2026-05-02T11:06:15.000Z</time>
      </trkpt>
      <trkpt lat="44.79665" lon="0.83252">
        <ele>194.4</ele>
        <time>2026-05-02T11:06:16.000Z</time>
      </trkpt>
      <trkpt lat="44.79665" lon="0.83252">
        <ele>194.4</ele>
        <time>2026-05-02T11:06:17.000Z</time>
      </trkpt>
      <trkpt lat="44.79665" lon="0.83252">
        <ele>194.4</ele>
        <time>2026-05-02T11:06:18.000Z</time>
      </trkpt>
      <trkpt lat="44.79665" lon="0.83252">
        <ele>194.4</ele>
        <time>2026-05-02T11:06:19.000Z</time>
      </trkpt>
      <trkpt lat="44.79665" lon="0.83252">
        <ele>194.4</ele>
        <time>2026-05-02T11:06:20.000Z</time>
      </trkpt>
      <trkpt lat="44.79665" lon="0.83252">
        <ele>194.4</ele>
        <time>2026-05-02T11:06:21.000Z</time>
      </trkpt>
      <trkpt lat="44.79665" lon="0.83252">
        <ele>194.4</ele>
        <time>2026-05-02T11:06:22.000Z</time>
      </trkpt>
      <trkpt lat="44.79665" lon="0.83252">
        <ele>194.4</ele>
        <time>2026-05-02T11:06:23.000Z</time>
      </trkpt>
      <trkpt lat="44.79665" lon="0.83252">
        <ele>194.4</ele>
        <time>2026-05-02T11:06:24.000Z</time>
      </trkpt>
      <trkpt lat="44.79665" lon="0.83252">
        <ele>194.4</ele>
        <time>2026-05-02T11:06:25.000Z</time>
      </trkpt>
      <trkpt lat="44.79665" lon="0.83252">
        <ele>193.8</ele>
        <time>2026-05-02T11:06:26.000Z</time>
      </trkpt>
      <trkpt lat="44.79665" lon="0.83253">
        <ele>193.7</ele>
        <time>2026-05-02T11:06:27.000Z</time>
      </trkpt>
      <trkpt lat="44.79665" lon="0.83253">
        <ele>193.3</ele>
        <time>2026-05-02T11:06:28.000Z</time>
      </trkpt>
      <trkpt lat="44.79665" lon="0.83252">
        <ele>193.1</ele>
        <time>2026-05-02T11:06:29.000Z</time>
      </trkpt>
      <trkpt lat="44.79666" lon="0.83252">
        <ele>193.2</ele>
        <time>2026-05-02T11:06:30.000Z</time>
      </trkpt>
      <trkpt lat="44.79666" lon="0.83252">
        <ele>193.2</ele>
        <time>2026-05-02T11:06:31.000Z</time>
      </trkpt>
      <trkpt lat="44.79666" lon="0.83252">
        <ele>193.2</ele>
        <time>2026-05-02T11:06:32.000Z</time>
      </trkpt>
      <trkpt lat="44.79666" lon="0.83252">
        <ele>193.2</ele>
        <time>2026-05-02T11:06:33.000Z</time>
      </trkpt>
      <trkpt lat="44.79666" lon="0.83252">
        <ele>193.1</ele>
        <time>2026-05-02T11:06:34.000Z</time>
      </trkpt>
      <trkpt lat="44.79667" lon="0.83252">
        <ele>193.7</ele>
        <time>2026-05-02T11:06:35.000Z</time>
      </trkpt>
      <trkpt lat="44.79667" lon="0.83252">
        <ele>193.7</ele>
        <time>2026-05-02T11:06:36.000Z</time>
      </trkpt>
      <trkpt lat="44.79667" lon="0.83252">
        <ele>193.7</ele>
        <time>2026-05-02T11:06:37.000Z</time>
      </trkpt>
      <trkpt lat="44.79667" lon="0.83252">
        <ele>195.2</ele>
        <time>2026-05-02T11:06:38.000Z</time>
      </trkpt>
      <trkpt lat="44.79667" lon="0.83253">
        <ele>195.2</ele>
        <time>2026-05-02T11:06:39.000Z</time>
      </trkpt>
      <trkpt lat="44.79668" lon="0.83253">
        <ele>195.2</ele>
        <time>2026-05-02T11:06:40.000Z</time>
      </trkpt>
      <trkpt lat="44.79668" lon="0.83253">
        <ele>195.2</ele>
        <time>2026-05-02T11:06:41.000Z</time>
      </trkpt>
      <trkpt lat="44.79668" lon="0.83253">
        <ele>195.2</ele>
        <time>2026-05-02T11:06:42.000Z</time>
      </trkpt>
      <trkpt lat="44.79668" lon="0.83253">
        <ele>195.3</ele>
        <time>2026-05-02T11:06:43.000Z</time>
      </trkpt>
      <trkpt lat="44.79668" lon="0.83253">
        <ele>195.3</ele>
        <time>2026-05-02T11:06:44.000Z</time>
      </trkpt>
      <trkpt lat="44.79668" lon="0.83253">
        <ele>195.3</ele>
        <time>2026-05-02T11:06:45.000Z</time>
      </trkpt>
      <trkpt lat="44.79668" lon="0.83253">
        <ele>195.3</ele>
        <time>2026-05-02T11:06:46.000Z</time>
      </trkpt>
      <trkpt lat="44.79668" lon="0.83253">
        <ele>195.3</ele>
        <time>2026-05-02T11:06:47.000Z</time>
      </trkpt>
      <trkpt lat="44.79668" lon="0.83253">
        <ele>195.3</ele>
        <time>2026-05-02T11:06:48.000Z</time>
      </trkpt>
      <trkpt lat="44.79668" lon="0.83253">
        <ele>195.3</ele>
        <time>2026-05-02T11:06:49.000Z</time>
      </trkpt>
      <trkpt lat="44.79668" lon="0.83253">
        <ele>195.3</ele>
        <time>2026-05-02T11:06:50.000Z</time>
      </trkpt>
      <trkpt lat="44.79668" lon="0.83253">
        <ele>195.3</ele>
        <time>2026-05-02T11:06:51.000Z</time>
      </trkpt>
      <trkpt lat="44.79668" lon="0.83253">
        <ele>195.4</ele>
        <time>2026-05-02T11:06:52.000Z</time>
      </trkpt>
      <trkpt lat="44.79668" lon="0.83253">
        <ele>195.3</ele>
        <time>2026-05-02T11:06:53.000Z</time>
      </trkpt>
      <trkpt lat="44.79668" lon="0.83253">
        <ele>195.4</ele>
        <time>2026-05-02T11:06:54.000Z</time>
      </trkpt>
      <trkpt lat="44.79668" lon="0.83253">
        <ele>195.4</ele>
        <time>2026-05-02T11:06:55.000Z</time>
      </trkpt>
      <trkpt lat="44.79668" lon="0.83253">
        <ele>195.4</ele>
        <time>2026-05-02T11:06:56.000Z</time>
      </trkpt>
      <trkpt lat="44.79668" lon="0.83253">
        <ele>195.4</ele>
        <time>2026-05-02T11:06:57.000Z</time>
      </trkpt>
      <trkpt lat="44.79668" lon="0.83253">
        <ele>195.4</ele>
        <time>2026-05-02T11:06:58.000Z</time>
      </trkpt>
      <trkpt lat="44.79668" lon="0.83253">
        <ele>195.4</ele>
        <time>2026-05-02T11:06:59.000Z</time>
      </trkpt>
      <trkpt lat="44.79668" lon="0.83253">
        <ele>195.4</ele>
        <time>2026-05-02T11:07:00.000Z</time>
      </trkpt>
      <trkpt lat="44.79668" lon="0.83253">
        <ele>195.4</ele>
        <time>2026-05-02T11:07:01.000Z</time>
      </trkpt>
      <trkpt lat="44.79668" lon="0.83253">
        <ele>195.5</ele>
        <time>2026-05-02T11:07:02.000Z</time>
      </trkpt>
      <trkpt lat="44.79668" lon="0.83253">
        <ele>195.5</ele>
        <time>2026-05-02T11:07:03.000Z</time>
      </trkpt>
      <trkpt lat="44.79668" lon="0.83253">
        <ele>195.5</ele>
        <time>2026-05-02T11:07:04.000Z</time>
      </trkpt>
      <trkpt lat="44.79668" lon="0.83252">
        <ele>195.5</ele>
        <time>2026-05-02T11:07:05.000Z</time>
      </trkpt>
      <trkpt lat="44.79668" lon="0.83252">
        <ele>195.5</ele>
        <time>2026-05-02T11:07:06.000Z</time>
      </trkpt>
      <trkpt lat="44.79668" lon="0.83252">
        <ele>195.5</ele>
        <time>2026-05-02T11:07:07.000Z</time>
      </trkpt>
      <trkpt lat="44.79668" lon="0.83252">
        <ele>195.5</ele>
        <time>2026-05-02T11:07:08.000Z</time>
      </trkpt>
      <trkpt lat="44.79668" lon="0.83252">
        <ele>195.5</ele>
        <time>2026-05-02T11:07:09.000Z</time>
      </trkpt>
      <trkpt lat="44.79668" lon="0.83252">
        <ele>195.6</ele>
        <time>2026-05-02T11:07:10.000Z</time>
      </trkpt>
      <trkpt lat="44.79668" lon="0.83252">
        <ele>195.6</ele>
        <time>2026-05-02T11:07:11.000Z</time>
      </trkpt>
      <trkpt lat="44.79668" lon="0.83252">
        <ele>196.1</ele>
        <time>2026-05-02T11:07:12.000Z</time>
      </trkpt>
      <trkpt lat="44.79669" lon="0.83252">
        <ele>196.3</ele>
        <time>2026-05-02T11:07:13.000Z</time>
      </trkpt>
      <trkpt lat="44.79669" lon="0.83251">
        <ele>195.8</ele>
        <time>2026-05-02T11:07:14.000Z</time>
      </trkpt>
      <trkpt lat="44.79669" lon="0.83251">
        <ele>195.8</ele>
        <time>2026-05-02T11:07:15.000Z</time>
      </trkpt>
      <trkpt lat="44.79669" lon="0.83251">
        <ele>196.1</ele>
        <time>2026-05-02T11:07:16.000Z</time>
      </trkpt>
      <trkpt lat="44.79669" lon="0.83251">
        <ele>196.1</ele>
        <time>2026-05-02T11:07:17.000Z</time>
      </trkpt>
      <trkpt lat="44.79669" lon="0.83251">
        <ele>196.1</ele>
        <time>2026-05-02T11:07:18.000Z</time>
      </trkpt>
      <trkpt lat="44.79669" lon="0.83251">
        <ele>196.1</ele>
        <time>2026-05-02T11:07:19.000Z</time>
      </trkpt>
      <trkpt lat="44.79669" lon="0.83251">
        <ele>196.1</ele>
        <time>2026-05-02T11:07:20.000Z</time>
      </trkpt>
      <trkpt lat="44.79669" lon="0.83251">
        <ele>196.1</ele>
        <time>2026-05-02T11:07:21.000Z</time>
      </trkpt>
      <trkpt lat="44.79669" lon="0.83251">
        <ele>196.1</ele>
        <time>2026-05-02T11:07:22.000Z</time>
      </trkpt>
      <trkpt lat="44.79669" lon="0.83251">
        <ele>196.1</ele>
        <time>2026-05-02T11:07:23.000Z</time>
      </trkpt>
      <trkpt lat="44.79669" lon="0.83251">
        <ele>196.1</ele>
        <time>2026-05-02T11:07:24.000Z</time>
      </trkpt>
      <trkpt lat="44.79669" lon="0.83251">
        <ele>196.1</ele>
        <time>2026-05-02T11:07:25.000Z</time>
      </trkpt>
      <trkpt lat="44.79669" lon="0.8325">
        <ele>196.1</ele>
        <time>2026-05-02T11:07:26.000Z</time>
      </trkpt>
      <trkpt lat="44.79669" lon="0.8325">
        <ele>196.1</ele>
        <time>2026-05-02T11:07:27.000Z</time>
      </trkpt>
      <trkpt lat="44.79669" lon="0.8325">
        <ele>196.1</ele>
        <time>2026-05-02T11:07:28.000Z</time>
      </trkpt>
      <trkpt lat="44.79669" lon="0.8325">
        <ele>196.1</ele>
        <time>2026-05-02T11:07:29.000Z</time>
      </trkpt>
      <trkpt lat="44.79669" lon="0.83251">
        <ele>195.4</ele>
        <time>2026-05-02T11:07:30.000Z</time>
      </trkpt>
      <trkpt lat="44.79669" lon="0.83251">
        <ele>195.3</ele>
        <time>2026-05-02T11:07:31.000Z</time>
      </trkpt>
      <trkpt lat="44.79669" lon="0.83251">
        <ele>195.3</ele>
        <time>2026-05-02T11:07:32.000Z</time>
      </trkpt>
      <trkpt lat="44.7967" lon="0.83251">
        <ele>195.5</ele>
        <time>2026-05-02T11:07:33.000Z</time>
      </trkpt>
      <trkpt lat="44.7967" lon="0.83251">
        <ele>195.5</ele>
        <time>2026-05-02T11:07:34.000Z</time>
      </trkpt>
      <trkpt lat="44.7967" lon="0.83251">
        <ele>195.8</ele>
        <time>2026-05-02T11:07:35.000Z</time>
      </trkpt>
      <trkpt lat="44.7967" lon="0.83252">
        <ele>196.2</ele>
        <time>2026-05-02T11:07:36.000Z</time>
      </trkpt>
      <trkpt lat="44.7967" lon="0.83252">
        <ele>197.7</ele>
        <time>2026-05-02T11:07:37.000Z</time>
      </trkpt>
      <trkpt lat="44.7967" lon="0.83253">
        <ele>197.9</ele>
        <time>2026-05-02T11:07:38.000Z</time>
      </trkpt>
      <trkpt lat="44.7967" lon="0.83253">
        <ele>198.5</ele>
        <time>2026-05-02T11:07:39.000Z</time>
      </trkpt>
      <trkpt lat="44.7967" lon="0.83253">
        <ele>198.5</ele>
        <time>2026-05-02T11:07:40.000Z</time>
      </trkpt>
      <trkpt lat="44.79669" lon="0.83254">
        <ele>199.8</ele>
        <time>2026-05-02T11:07:41.000Z</time>
      </trkpt>
      <trkpt lat="44.79669" lon="0.83254">
        <ele>199.8</ele>
        <time>2026-05-02T11:07:42.000Z</time>
      </trkpt>
      <trkpt lat="44.79669" lon="0.83254">
        <ele>199.7</ele>
        <time>2026-05-02T11:07:43.000Z</time>
      </trkpt>
      <trkpt lat="44.79669" lon="0.83254">
        <ele>199.7</ele>
        <time>2026-05-02T11:07:44.000Z</time>
      </trkpt>
      <trkpt lat="44.79669" lon="0.83254">
        <ele>199.9</ele>
        <time>2026-05-02T11:07:45.000Z</time>
      </trkpt>
      <trkpt lat="44.79669" lon="0.83253">
        <ele>200.6</ele>
        <time>2026-05-02T11:07:46.000Z</time>
      </trkpt>
      <trkpt lat="44.79669" lon="0.83253">
        <ele>200.9</ele>
        <time>2026-05-02T11:07:47.000Z</time>
      </trkpt>
      <trkpt lat="44.7967" lon="0.83254">
        <ele>201.4</ele>
        <time>2026-05-02T11:07:48.000Z</time>
      </trkpt>
      <trkpt lat="44.79671" lon="0.83254">
        <ele>201.6</ele>
        <time>2026-05-02T11:07:49.000Z</time>
      </trkpt>
      <trkpt lat="44.7967" lon="0.83255">
        <ele>201.5</ele>
        <time>2026-05-02T11:07:50.000Z</time>
      </trkpt>
      <trkpt lat="44.7967" lon="0.83257">
        <ele>201.6</ele>
        <time>2026-05-02T11:07:51.000Z</time>
      </trkpt>
      <trkpt lat="44.7967" lon="0.83259">
        <ele>201.7</ele>
        <time>2026-05-02T11:07:52.000Z</time>
      </trkpt>
      <trkpt lat="44.7967" lon="0.83261">
        <ele>202</ele>
        <time>2026-05-02T11:07:53.000Z</time>
      </trkpt>
      <trkpt lat="44.79669" lon="0.83261">
        <ele>202</ele>
        <time>2026-05-02T11:07:54.000Z</time>
      </trkpt>
      <trkpt lat="44.79669" lon="0.83262">
        <ele>202.1</ele>
        <time>2026-05-02T11:07:55.000Z</time>
      </trkpt>
      <trkpt lat="44.79669" lon="0.83262">
        <ele>202.1</ele>
        <time>2026-05-02T11:07:56.000Z</time>
      </trkpt>
      <trkpt lat="44.79669" lon="0.83262">
        <ele>202.1</ele>
        <time>2026-05-02T11:07:57.000Z</time>
      </trkpt>
      <trkpt lat="44.79669" lon="0.83262">
        <ele>202.1</ele>
        <time>2026-05-02T11:07:58.000Z</time>
      </trkpt>
      <trkpt lat="44.79669" lon="0.83262">
        <ele>202.7</ele>
        <time>2026-05-02T11:07:59.000Z</time>
      </trkpt>
      <trkpt lat="44.79668" lon="0.83262">
        <ele>202.3</ele>
        <time>2026-05-02T11:08:00.000Z</time>
      </trkpt>
      <trkpt lat="44.79668" lon="0.83261">
        <ele>201.7</ele>
        <time>2026-05-02T11:08:01.000Z</time>
      </trkpt>
      <trkpt lat="44.79666" lon="0.83262">
        <ele>202.4</ele>
        <time>2026-05-02T11:08:02.000Z</time>
      </trkpt>
      <trkpt lat="44.79665" lon="0.83262">
        <ele>202.7</ele>
        <time>2026-05-02T11:08:03.000Z</time>
      </trkpt>
      <trkpt lat="44.79664" lon="0.83263">
        <ele>202.8</ele>
        <time>2026-05-02T11:08:04.000Z</time>
      </trkpt>
      <trkpt lat="44.79663" lon="0.83263">
        <ele>202.6</ele>
        <time>2026-05-02T11:08:05.000Z</time>
      </trkpt>
      <trkpt lat="44.79662" lon="0.83263">
        <ele>202.2</ele>
        <time>2026-05-02T11:08:06.000Z</time>
      </trkpt>
      <trkpt lat="44.79662" lon="0.83262">
        <ele>202.1</ele>
        <time>2026-05-02T11:08:07.000Z</time>
      </trkpt>
      <trkpt lat="44.79662" lon="0.8326">
        <ele>202.1</ele>
        <time>2026-05-02T11:08:08.000Z</time>
      </trkpt>
      <trkpt lat="44.79662" lon="0.83258">
        <ele>200.8</ele>
        <time>2026-05-02T11:08:09.000Z</time>
      </trkpt>
      <trkpt lat="44.79662" lon="0.83257">
        <ele>200.9</ele>
        <time>2026-05-02T11:08:10.000Z</time>
      </trkpt>
      <trkpt lat="44.79663" lon="0.83256">
        <ele>200.1</ele>
        <time>2026-05-02T11:08:11.000Z</time>
      </trkpt>
      <trkpt lat="44.79663" lon="0.83255">
        <ele>200.6</ele>
        <time>2026-05-02T11:08:12.000Z</time>
      </trkpt>
      <trkpt lat="44.79664" lon="0.83255">
        <ele>199.5</ele>
        <time>2026-05-02T11:08:13.000Z</time>
      </trkpt>
      <trkpt lat="44.79666" lon="0.83253">
        <ele>199.5</ele>
        <time>2026-05-02T11:08:14.000Z</time>
      </trkpt>
      <trkpt lat="44.79666" lon="0.83253">
        <ele>198.7</ele>
        <time>2026-05-02T11:08:15.000Z</time>
      </trkpt>
      <trkpt lat="44.79666" lon="0.83252">
        <ele>198.7</ele>
        <time>2026-05-02T11:08:16.000Z</time>
      </trkpt>
      <trkpt lat="44.79666" lon="0.83252">
        <ele>198.7</ele>
        <time>2026-05-02T11:08:17.000Z</time>
      </trkpt>
      <trkpt lat="44.79666" lon="0.83252">
        <ele>198.7</ele>
        <time>2026-05-02T11:08:18.000Z</time>
      </trkpt>
      <trkpt lat="44.79666" lon="0.83252">
        <ele>198.7</ele>
        <time>2026-05-02T11:08:19.000Z</time>
      </trkpt>
      <trkpt lat="44.79666" lon="0.83252">
        <ele>198.7</ele>
        <time>2026-05-02T11:08:20.000Z</time>
      </trkpt>
      <trkpt lat="44.79666" lon="0.83252">
        <ele>198.7</ele>
        <time>2026-05-02T11:08:21.000Z</time>
      </trkpt>
      <trkpt lat="44.79666" lon="0.83252">
        <ele>198.7</ele>
        <time>2026-05-02T11:08:22.000Z</time>
      </trkpt>
      <trkpt lat="44.79666" lon="0.83252">
        <ele>198.8</ele>
        <time>2026-05-02T11:08:23.000Z</time>
      </trkpt>
      <trkpt lat="44.79666" lon="0.83252">
        <ele>198.8</ele>
        <time>2026-05-02T11:08:24.000Z</time>
      </trkpt>
      <trkpt lat="44.79666" lon="0.83252">
        <ele>198.8</ele>
        <time>2026-05-02T11:08:25.000Z</time>
      </trkpt>
      <trkpt lat="44.79666" lon="0.83252">
        <ele>198.8</ele>
        <time>2026-05-02T11:08:26.000Z</time>
      </trkpt>
      <trkpt lat="44.79666" lon="0.83252">
        <ele>198.8</ele>
        <time>2026-05-02T11:08:27.000Z</time>
      </trkpt>
      <trkpt lat="44.79666" lon="0.83252">
        <ele>198.8</ele>
        <time>2026-05-02T11:08:28.000Z</time>
      </trkpt>
      <trkpt lat="44.79666" lon="0.83252">
        <ele>198.8</ele>
        <time>2026-05-02T11:08:29.000Z</time>
      </trkpt>
      <trkpt lat="44.79666" lon="0.83252">
        <ele>198.8</ele>
        <time>2026-05-02T11:08:30.000Z</time>
      </trkpt>
      <trkpt lat="44.79666" lon="0.83252">
        <ele>198.8</ele>
        <time>2026-05-02T11:08:31.000Z</time>
      </trkpt>
      <trkpt lat="44.79666" lon="0.83252">
        <ele>198.8</ele>
        <time>2026-05-02T11:08:32.000Z</time>
      </trkpt>
      <trkpt lat="44.79666" lon="0.83252">
        <ele>198.8</ele>
        <time>2026-05-02T11:08:33.000Z</time>
      </trkpt>
      <trkpt lat="44.79666" lon="0.83252">
        <ele>198.8</ele>
        <time>2026-05-02T11:08:34.000Z</time>
      </trkpt>
      <trkpt lat="44.79666" lon="0.83252">
        <ele>198.8</ele>
        <time>2026-05-02T11:08:35.000Z</time>
      </trkpt>
      <trkpt lat="44.79666" lon="0.83252">
        <ele>198.8</ele>
        <time>2026-05-02T11:08:36.000Z</time>
      </trkpt>
      <trkpt lat="44.79666" lon="0.83252">
        <ele>198.8</ele>
        <time>2026-05-02T11:08:37.000Z</time>
      </trkpt>
      <trkpt lat="44.79666" lon="0.83252">
        <ele>198.8</ele>
        <time>2026-05-02T11:08:38.000Z</time>
      </trkpt>
      <trkpt lat="44.79666" lon="0.83252">
        <ele>198.8</ele>
        <time>2026-05-02T11:08:39.000Z</time>
      </trkpt>
      <trkpt lat="44.79666" lon="0.83252">
        <ele>198.8</ele>
        <time>2026-05-02T11:08:40.000Z</time>
      </trkpt>
      <trkpt lat="44.79666" lon="0.83252">
        <ele>198.8</ele>
        <time>2026-05-02T11:08:41.000Z</time>
      </trkpt>
      <trkpt lat="44.79666" lon="0.83252">
        <ele>198.8</ele>
        <time>2026-05-02T11:08:42.000Z</time>
      </trkpt>
      <trkpt lat="44.79666" lon="0.83252">
        <ele>198.8</ele>
        <time>2026-05-02T11:08:43.000Z</time>
      </trkpt>
      <trkpt lat="44.79666" lon="0.83252">
        <ele>198.8</ele>
        <time>2026-05-02T11:08:44.000Z</time>
      </trkpt>
      <trkpt lat="44.79666" lon="0.83252">
        <ele>198.8</ele>
        <time>2026-05-02T11:08:45.000Z</time>
      </trkpt>
      <trkpt lat="44.79666" lon="0.83252">
        <ele>198.8</ele>
        <time>2026-05-02T11:08:46.000Z</time>
      </trkpt>
      <trkpt lat="44.79666" lon="0.83252">
        <ele>198.8</ele>
        <time>2026-05-02T11:08:47.000Z</time>
      </trkpt>
      <trkpt lat="44.79666" lon="0.83252">
        <ele>198.8</ele>
        <time>2026-05-02T11:08:48.000Z</time>
      </trkpt>
      <trkpt lat="44.79666" lon="0.83252">
        <ele>198.8</ele>
        <time>2026-05-02T11:08:49.000Z</time>
      </trkpt>
      <trkpt lat="44.79666" lon="0.83252">
        <ele>198.8</ele>
        <time>2026-05-02T11:08:50.000Z</time>
      </trkpt>
      <trkpt lat="44.79666" lon="0.83252">
        <ele>198.8</ele>
        <time>2026-05-02T11:08:51.000Z</time>
      </trkpt>
      <trkpt lat="44.79666" lon="0.83252">
        <ele>198.8</ele>
        <time>2026-05-02T11:08:52.000Z</time>
      </trkpt>
      <trkpt lat="44.79666" lon="0.83252">
        <ele>198.8</ele>
        <time>2026-05-02T11:08:53.000Z</time>
      </trkpt>
      <trkpt lat="44.79666" lon="0.83252">
        <ele>198.8</ele>
        <time>2026-05-02T11:08:54.000Z</time>
      </trkpt>
      <trkpt lat="44.79666" lon="0.83252">
        <ele>198.8</ele>
        <time>2026-05-02T11:08:55.000Z</time>
      </trkpt>
      <trkpt lat="44.79666" lon="0.83252">
        <ele>198.8</ele>
        <time>2026-05-02T11:08:56.000Z</time>
      </trkpt>
      <trkpt lat="44.79666" lon="0.83252">
        <ele>198.8</ele>
        <time>2026-05-02T11:08:57.000Z</time>
      </trkpt>
      <trkpt lat="44.79666" lon="0.83252">
        <ele>198.8</ele>
        <time>2026-05-02T11:08:58.000Z</time>
      </trkpt>
      <trkpt lat="44.79666" lon="0.83252">
        <ele>198.8</ele>
        <time>2026-05-02T11:08:59.000Z</time>
      </trkpt>
      <trkpt lat="44.79666" lon="0.83252">
        <ele>198.8</ele>
        <time>2026-05-02T11:09:00.000Z</time>
      </trkpt>
      <trkpt lat="44.79666" lon="0.83252">
        <ele>198.8</ele>
        <time>2026-05-02T11:09:01.000Z</time>
      </trkpt>
      <trkpt lat="44.79666" lon="0.83252">
        <ele>198.8</ele>
        <time>2026-05-02T11:09:02.000Z</time>
      </trkpt>
      <trkpt lat="44.79666" lon="0.83252">
        <ele>198.8</ele>
        <time>2026-05-02T11:09:03.000Z</time>
      </trkpt>
      <trkpt lat="44.79666" lon="0.83252">
        <ele>198.8</ele>
        <time>2026-05-02T11:09:04.000Z</time>
      </trkpt>
      <trkpt lat="44.79666" lon="0.83252">
        <ele>198.8</ele>
        <time>2026-05-02T11:09:05.000Z</time>
      </trkpt>
      <trkpt lat="44.79666" lon="0.83252">
        <ele>198.8</ele>
        <time>2026-05-02T11:09:06.000Z</time>
      </trkpt>
      <trkpt lat="44.79666" lon="0.83252">
        <ele>198.8</ele>
        <time>2026-05-02T11:09:07.000Z</time>
      </trkpt>
      <trkpt lat="44.79666" lon="0.83252">
        <ele>198.8</ele>
        <time>2026-05-02T11:09:08.000Z</time>
      </trkpt>
      <trkpt lat="44.79666" lon="0.83252">
        <ele>198.8</ele>
        <time>2026-05-02T11:09:09.000Z</time>
      </trkpt>
      <trkpt lat="44.79666" lon="0.83252">
        <ele>198.7</ele>
        <time>2026-05-02T11:09:10.000Z</time>
      </trkpt>
      <trkpt lat="44.79666" lon="0.83252">
        <ele>198.7</ele>
        <time>2026-05-02T11:09:11.000Z</time>
      </trkpt>
      <trkpt lat="44.79666" lon="0.83252">
        <ele>198.7</ele>
        <time>2026-05-02T11:09:12.000Z</time>
      </trkpt>
      <trkpt lat="44.79666" lon="0.83252">
        <ele>198.7</ele>
        <time>2026-05-02T11:09:13.000Z</time>
      </trkpt>
      <trkpt lat="44.79666" lon="0.83252">
        <ele>198.7</ele>
        <time>2026-05-02T11:09:14.000Z</time>
      </trkpt>
      <trkpt lat="44.79666" lon="0.83252">
        <ele>198.8</ele>
        <time>2026-05-02T11:09:15.000Z</time>
      </trkpt>
      <trkpt lat="44.79666" lon="0.83252">
        <ele>198.8</ele>
        <time>2026-05-02T11:09:16.000Z</time>
      </trkpt>
      <trkpt lat="44.79666" lon="0.83252">
        <ele>198.8</ele>
        <time>2026-05-02T11:09:17.000Z</time>
      </trkpt>
      <trkpt lat="44.79666" lon="0.83252">
        <ele>198.8</ele>
        <time>2026-05-02T11:09:18.000Z</time>
      </trkpt>
      <trkpt lat="44.79666" lon="0.83252">
        <ele>198.8</ele>
        <time>2026-05-02T11:09:19.000Z</time>
      </trkpt>
      <trkpt lat="44.79666" lon="0.83252">
        <ele>198.8</ele>
        <time>2026-05-02T11:09:20.000Z</time>
      </trkpt>
      <trkpt lat="44.79666" lon="0.83252">
        <ele>198.8</ele>
        <time>2026-05-02T11:09:21.000Z</time>
      </trkpt>
      <trkpt lat="44.79666" lon="0.83252">
        <ele>198.8</ele>
        <time>2026-05-02T11:09:22.000Z</time>
      </trkpt>
      <trkpt lat="44.79666" lon="0.83252">
        <ele>198.8</ele>
        <time>2026-05-02T11:09:23.000Z</time>
      </trkpt>
      <trkpt lat="44.79666" lon="0.83252">
        <ele>198.8</ele>
        <time>2026-05-02T11:09:24.000Z</time>
      </trkpt>
      <trkpt lat="44.79666" lon="0.83252">
        <ele>198.8</ele>
        <time>2026-05-02T11:09:25.000Z</time>
      </trkpt>
      <trkpt lat="44.79666" lon="0.83252">
        <ele>198.8</ele>
        <time>2026-05-02T11:09:26.000Z</time>
      </trkpt>
      <trkpt lat="44.79666" lon="0.83252">
        <ele>198.9</ele>
        <time>2026-05-02T11:09:27.000Z</time>
      </trkpt>
      <trkpt lat="44.79666" lon="0.83252">
        <ele>198.9</ele>
        <time>2026-05-02T11:09:28.000Z</time>
      </trkpt>
      <trkpt lat="44.79666" lon="0.83252">
        <ele>198.9</ele>
        <time>2026-05-02T11:09:29.000Z</time>
      </trkpt>
      <trkpt lat="44.79666" lon="0.83252">
        <ele>198.9</ele>
        <time>2026-05-02T11:09:30.000Z</time>
      </trkpt>
      <trkpt lat="44.79666" lon="0.83252">
        <ele>198.9</ele>
        <time>2026-05-02T11:09:31.000Z</time>
      </trkpt>
      <trkpt lat="44.79666" lon="0.83252">
        <ele>198.9</ele>
        <time>2026-05-02T11:09:32.000Z</time>
      </trkpt>
      <trkpt lat="44.79666" lon="0.83252">
        <ele>198.9</ele>
        <time>2026-05-02T11:09:33.000Z</time>
      </trkpt>
      <trkpt lat="44.79666" lon="0.83252">
        <ele>198.9</ele>
        <time>2026-05-02T11:09:34.000Z</time>
      </trkpt>
      <trkpt lat="44.79666" lon="0.83252">
        <ele>199</ele>
        <time>2026-05-02T11:09:35.000Z</time>
      </trkpt>
      <trkpt lat="44.79666" lon="0.83252">
        <ele>199</ele>
        <time>2026-05-02T11:09:36.000Z</time>
      </trkpt>
      <trkpt lat="44.79666" lon="0.83252">
        <ele>199</ele>
        <time>2026-05-02T11:09:37.000Z</time>
      </trkpt>
      <trkpt lat="44.79666" lon="0.83252">
        <ele>199</ele>
        <time>2026-05-02T11:09:38.000Z</time>
      </trkpt>
      <trkpt lat="44.79666" lon="0.83252">
        <ele>199</ele>
        <time>2026-05-02T11:09:39.000Z</time>
      </trkpt>
      <trkpt lat="44.79666" lon="0.83252">
        <ele>199</ele>
        <time>2026-05-02T11:09:40.000Z</time>
      </trkpt>
      <trkpt lat="44.79666" lon="0.83252">
        <ele>199</ele>
        <time>2026-05-02T11:09:41.000Z</time>
      </trkpt>
      <trkpt lat="44.79666" lon="0.83252">
        <ele>199</ele>
        <time>2026-05-02T11:09:42.000Z</time>
      </trkpt>
      <trkpt lat="44.79666" lon="0.83252">
        <ele>199</ele>
        <time>2026-05-02T11:09:43.000Z</time>
      </trkpt>
      <trkpt lat="44.79666" lon="0.83252">
        <ele>199.1</ele>
        <time>2026-05-02T11:09:44.000Z</time>
      </trkpt>
      <trkpt lat="44.79666" lon="0.83252">
        <ele>199.1</ele>
        <time>2026-05-02T11:09:45.000Z</time>
      </trkpt>
      <trkpt lat="44.79666" lon="0.83252">
        <ele>199.1</ele>
        <time>2026-05-02T11:09:46.000Z</time>
      </trkpt>
      <trkpt lat="44.79666" lon="0.83252">
        <ele>199.1</ele>
        <time>2026-05-02T11:09:47.000Z</time>
      </trkpt>
      <trkpt lat="44.79666" lon="0.83252">
        <ele>199.1</ele>
        <time>2026-05-02T11:09:48.000Z</time>
      </trkpt>
      <trkpt lat="44.79666" lon="0.83251">
        <ele>199.1</ele>
        <time>2026-05-02T11:09:49.000Z</time>
      </trkpt>
      <trkpt lat="44.79666" lon="0.83251">
        <ele>199.1</ele>
        <time>2026-05-02T11:09:50.000Z</time>
      </trkpt>
      <trkpt lat="44.79666" lon="0.83251">
        <ele>199.1</ele>
        <time>2026-05-02T11:09:51.000Z</time>
      </trkpt>
      <trkpt lat="44.79666" lon="0.83251">
        <ele>199.1</ele>
        <time>2026-05-02T11:09:52.000Z</time>
      </trkpt>
      <trkpt lat="44.79666" lon="0.83251">
        <ele>199.1</ele>
        <time>2026-05-02T11:09:53.000Z</time>
      </trkpt>
      <trkpt lat="44.79666" lon="0.83251">
        <ele>199.1</ele>
        <time>2026-05-02T11:09:54.000Z</time>
      </trkpt>
      <trkpt lat="44.79666" lon="0.83251">
        <ele>199.1</ele>
        <time>2026-05-02T11:09:55.000Z</time>
      </trkpt>
      <trkpt lat="44.79666" lon="0.83251">
        <ele>199.1</ele>
        <time>2026-05-02T11:09:56.000Z</time>
      </trkpt>
      <trkpt lat="44.79666" lon="0.83251">
        <ele>199.1</ele>
        <time>2026-05-02T11:09:57.000Z</time>
      </trkpt>
      <trkpt lat="44.79666" lon="0.83251">
        <ele>199.1</ele>
        <time>2026-05-02T11:09:58.000Z</time>
      </trkpt>
      <trkpt lat="44.79666" lon="0.83251">
        <ele>199.1</ele>
        <time>2026-05-02T11:09:59.000Z</time>
      </trkpt>
      <trkpt lat="44.79666" lon="0.83251">
        <ele>199.1</ele>
        <time>2026-05-02T11:10:00.000Z</time>
      </trkpt>
      <trkpt lat="44.79666" lon="0.83251">
        <ele>199.1</ele>
        <time>2026-05-02T11:10:01.000Z</time>
      </trkpt>
      <trkpt lat="44.79666" lon="0.83251">
        <ele>199.1</ele>
        <time>2026-05-02T11:10:02.000Z</time>
      </trkpt>
      <trkpt lat="44.79666" lon="0.83251">
        <ele>199.1</ele>
        <time>2026-05-02T11:10:03.000Z</time>
      </trkpt>
      <trkpt lat="44.79666" lon="0.83251">
        <ele>199.1</ele>
        <time>2026-05-02T11:10:04.000Z</time>
      </trkpt>
      <trkpt lat="44.79666" lon="0.83251">
        <ele>199.1</ele>
        <time>2026-05-02T11:10:05.000Z</time>
      </trkpt>
      <trkpt lat="44.79666" lon="0.83251">
        <ele>199.1</ele>
        <time>2026-05-02T11:10:06.000Z</time>
      </trkpt>
      <trkpt lat="44.79666" lon="0.83251">
        <ele>199.1</ele>
        <time>2026-05-02T11:10:07.000Z</time>
      </trkpt>
      <trkpt lat="44.79666" lon="0.83251">
        <ele>199.1</ele>
        <time>2026-05-02T11:10:08.000Z</time>
      </trkpt>
      <trkpt lat="44.79666" lon="0.83251">
        <ele>199.1</ele>
        <time>2026-05-02T11:10:09.000Z</time>
      </trkpt>
      <trkpt lat="44.79666" lon="0.83251">
        <ele>199.1</ele>
        <time>2026-05-02T11:10:10.000Z</time>
      </trkpt>
      <trkpt lat="44.79666" lon="0.83251">
        <ele>199.1</ele>
        <time>2026-05-02T11:10:11.000Z</time>
      </trkpt>
      <trkpt lat="44.79666" lon="0.83251">
        <ele>199.1</ele>
        <time>2026-05-02T11:10:12.000Z</time>
      </trkpt>
      <trkpt lat="44.79666" lon="0.83251">
        <ele>199.1</ele>
        <time>2026-05-02T11:10:13.000Z</time>
      </trkpt>
      <trkpt lat="44.79666" lon="0.83251">
        <ele>199.1</ele>
        <time>2026-05-02T11:10:14.000Z</time>
      </trkpt>
      <trkpt lat="44.79666" lon="0.83251">
        <ele>199.1</ele>
        <time>2026-05-02T11:10:15.000Z</time>
      </trkpt>
      <trkpt lat="44.79666" lon="0.83251">
        <ele>199.1</ele>
        <time>2026-05-02T11:10:16.000Z</time>
      </trkpt>
      <trkpt lat="44.79666" lon="0.83251">
        <ele>199.1</ele>
        <time>2026-05-02T11:10:17.000Z</time>
      </trkpt>
      <trkpt lat="44.79666" lon="0.83251">
        <ele>199.1</ele>
        <time>2026-05-02T11:10:18.000Z</time>
      </trkpt>
      <trkpt lat="44.79666" lon="0.83251">
        <ele>199.1</ele>
        <time>2026-05-02T11:10:19.000Z</time>
      </trkpt>
      <trkpt lat="44.79666" lon="0.83251">
        <ele>199.1</ele>
        <time>2026-05-02T11:10:20.000Z</time>
      </trkpt>
      <trkpt lat="44.79666" lon="0.83251">
        <ele>199.1</ele>
        <time>2026-05-02T11:10:21.000Z</time>
      </trkpt>
      <trkpt lat="44.79666" lon="0.83251">
        <ele>199.1</ele>
        <time>2026-05-02T11:10:22.000Z</time>
      </trkpt>
      <trkpt lat="44.79666" lon="0.83251">
        <ele>199.1</ele>
        <time>2026-05-02T11:10:23.000Z</time>
      </trkpt>
      <trkpt lat="44.79666" lon="0.83251">
        <ele>199.1</ele>
        <time>2026-05-02T11:10:24.000Z</time>
      </trkpt>
      <trkpt lat="44.79666" lon="0.83251">
        <ele>199.1</ele>
        <time>2026-05-02T11:10:25.000Z</time>
      </trkpt>
      <trkpt lat="44.79666" lon="0.83251">
        <ele>199.1</ele>
        <time>2026-05-02T11:10:26.000Z</time>
      </trkpt>
      <trkpt lat="44.79666" lon="0.83251">
        <ele>199.2</ele>
        <time>2026-05-02T11:10:27.000Z</time>
      </trkpt>
      <trkpt lat="44.79666" lon="0.83251">
        <ele>199.2</ele>
        <time>2026-05-02T11:10:28.000Z</time>
      </trkpt>
      <trkpt lat="44.79666" lon="0.83251">
        <ele>199.2</ele>
        <time>2026-05-02T11:10:29.000Z</time>
      </trkpt>
      <trkpt lat="44.79666" lon="0.83251">
        <ele>199.2</ele>
        <time>2026-05-02T11:10:30.000Z</time>
      </trkpt>
      <trkpt lat="44.79666" lon="0.83251">
        <ele>199.2</ele>
        <time>2026-05-02T11:10:31.000Z</time>
      </trkpt>
      <trkpt lat="44.79666" lon="0.83251">
        <ele>199.1</ele>
        <time>2026-05-02T11:10:32.000Z</time>
      </trkpt>
      <trkpt lat="44.79666" lon="0.83251">
        <ele>199.1</ele>
        <time>2026-05-02T11:10:33.000Z</time>
      </trkpt>
      <trkpt lat="44.79666" lon="0.83251">
        <ele>199.2</ele>
        <time>2026-05-02T11:10:34.000Z</time>
      </trkpt>
      <trkpt lat="44.79666" lon="0.83251">
        <ele>199.2</ele>
        <time>2026-05-02T11:10:35.000Z</time>
      </trkpt>
      <trkpt lat="44.79666" lon="0.83251">
        <ele>199.2</ele>
        <time>2026-05-02T11:10:36.000Z</time>
      </trkpt>
      <trkpt lat="44.79666" lon="0.83251">
        <ele>199.2</ele>
        <time>2026-05-02T11:10:37.000Z</time>
      </trkpt>
      <trkpt lat="44.79666" lon="0.83251">
        <ele>199.2</ele>
        <time>2026-05-02T11:10:38.000Z</time>
      </trkpt>
      <trkpt lat="44.79666" lon="0.83251">
        <ele>199.2</ele>
        <time>2026-05-02T11:10:39.000Z</time>
      </trkpt>
      <trkpt lat="44.79666" lon="0.83251">
        <ele>199.2</ele>
        <time>2026-05-02T11:10:40.000Z</time>
      </trkpt>
      <trkpt lat="44.79666" lon="0.83251">
        <ele>199.2</ele>
        <time>2026-05-02T11:10:41.000Z</time>
      </trkpt>
      <trkpt lat="44.79666" lon="0.83251">
        <ele>199.2</ele>
        <time>2026-05-02T11:10:42.000Z</time>
      </trkpt>
      <trkpt lat="44.79666" lon="0.83251">
        <ele>199.2</ele>
        <time>2026-05-02T11:10:43.000Z</time>
      </trkpt>
      <trkpt lat="44.79666" lon="0.83251">
        <ele>199.2</ele>
        <time>2026-05-02T11:10:44.000Z</time>
      </trkpt>
      <trkpt lat="44.79666" lon="0.83251">
        <ele>199.2</ele>
        <time>2026-05-02T11:10:45.000Z</time>
      </trkpt>
      <trkpt lat="44.79666" lon="0.83251">
        <ele>199.2</ele>
        <time>2026-05-02T11:10:46.000Z</time>
      </trkpt>
      <trkpt lat="44.79666" lon="0.83251">
        <ele>199.2</ele>
        <time>2026-05-02T11:10:47.000Z</time>
      </trkpt>
      <trkpt lat="44.79666" lon="0.83251">
        <ele>199.2</ele>
        <time>2026-05-02T11:10:48.000Z</time>
      </trkpt>
      <trkpt lat="44.79666" lon="0.83251">
        <ele>199.2</ele>
        <time>2026-05-02T11:10:49.000Z</time>
      </trkpt>
      <trkpt lat="44.79666" lon="0.83251">
        <ele>199.2</ele>
        <time>2026-05-02T11:10:50.000Z</time>
      </trkpt>
      <trkpt lat="44.79666" lon="0.83251">
        <ele>199.2</ele>
        <time>2026-05-02T11:10:51.000Z</time>
      </trkpt>
      <trkpt lat="44.79666" lon="0.83251">
        <ele>199.2</ele>
        <time>2026-05-02T11:10:52.000Z</time>
      </trkpt>
      <trkpt lat="44.79666" lon="0.83251">
        <ele>199.2</ele>
        <time>2026-05-02T11:10:53.000Z</time>
      </trkpt>
      <trkpt lat="44.79666" lon="0.83251">
        <ele>199.3</ele>
        <time>2026-05-02T11:10:54.000Z</time>
      </trkpt>
      <trkpt lat="44.79666" lon="0.83251">
        <ele>199.3</ele>
        <time>2026-05-02T11:10:55.000Z</time>
      </trkpt>
      <trkpt lat="44.79666" lon="0.83251">
        <ele>199.3</ele>
        <time>2026-05-02T11:10:56.000Z</time>
      </trkpt>
      <trkpt lat="44.79666" lon="0.83251">
        <ele>199.3</ele>
        <time>2026-05-02T11:10:57.000Z</time>
      </trkpt>
      <trkpt lat="44.79666" lon="0.83251">
        <ele>199.3</ele>
        <time>2026-05-02T11:10:58.000Z</time>
      </trkpt>
      <trkpt lat="44.79666" lon="0.83251">
        <ele>199.3</ele>
        <time>2026-05-02T11:10:59.000Z</time>
      </trkpt>
      <trkpt lat="44.79666" lon="0.83251">
        <ele>199.3</ele>
        <time>2026-05-02T11:11:00.000Z</time>
      </trkpt>
      <trkpt lat="44.79667" lon="0.83251">
        <ele>199.3</ele>
        <time>2026-05-02T11:11:01.000Z</time>
      </trkpt>
      <trkpt lat="44.79667" lon="0.83251">
        <ele>199.4</ele>
        <time>2026-05-02T11:11:02.000Z</time>
      </trkpt>
      <trkpt lat="44.79667" lon="0.83251">
        <ele>199.3</ele>
        <time>2026-05-02T11:11:03.000Z</time>
      </trkpt>
      <trkpt lat="44.79667" lon="0.83251">
        <ele>199.3</ele>
        <time>2026-05-02T11:11:04.000Z</time>
      </trkpt>
      <trkpt lat="44.79667" lon="0.83251">
        <ele>199.3</ele>
        <time>2026-05-02T11:11:05.000Z</time>
      </trkpt>
      <trkpt lat="44.79667" lon="0.83251">
        <ele>199.3</ele>
        <time>2026-05-02T11:11:06.000Z</time>
      </trkpt>
      <trkpt lat="44.79667" lon="0.83251">
        <ele>199.3</ele>
        <time>2026-05-02T11:11:07.000Z</time>
      </trkpt>
      <trkpt lat="44.79667" lon="0.83251">
        <ele>199.3</ele>
        <time>2026-05-02T11:11:08.000Z</time>
      </trkpt>
      <trkpt lat="44.79667" lon="0.83251">
        <ele>199.3</ele>
        <time>2026-05-02T11:11:09.000Z</time>
      </trkpt>
      <trkpt lat="44.79667" lon="0.83251">
        <ele>199.4</ele>
        <time>2026-05-02T11:11:10.000Z</time>
      </trkpt>
      <trkpt lat="44.79667" lon="0.83251">
        <ele>199.4</ele>
        <time>2026-05-02T11:11:11.000Z</time>
      </trkpt>
      <trkpt lat="44.79667" lon="0.83251">
        <ele>199.4</ele>
        <time>2026-05-02T11:11:12.000Z</time>
      </trkpt>
      <trkpt lat="44.79667" lon="0.83251">
        <ele>199.4</ele>
        <time>2026-05-02T11:11:13.000Z</time>
      </trkpt>
      <trkpt lat="44.79667" lon="0.83251">
        <ele>199.4</ele>
        <time>2026-05-02T11:11:14.000Z</time>
      </trkpt>
      <trkpt lat="44.79667" lon="0.83251">
        <ele>199.4</ele>
        <time>2026-05-02T11:11:15.000Z</time>
      </trkpt>
      <trkpt lat="44.79667" lon="0.83251">
        <ele>199.5</ele>
        <time>2026-05-02T11:11:16.000Z</time>
      </trkpt>
      <trkpt lat="44.79667" lon="0.83251">
        <ele>199.5</ele>
        <time>2026-05-02T11:11:17.000Z</time>
      </trkpt>
      <trkpt lat="44.79667" lon="0.83251">
        <ele>199.5</ele>
        <time>2026-05-02T11:11:18.000Z</time>
      </trkpt>
      <trkpt lat="44.79667" lon="0.83251">
        <ele>199.5</ele>
        <time>2026-05-02T11:11:19.000Z</time>
      </trkpt>
      <trkpt lat="44.79667" lon="0.83251">
        <ele>199.5</ele>
        <time>2026-05-02T11:11:20.000Z</time>
      </trkpt>
      <trkpt lat="44.79667" lon="0.83251">
        <ele>199.5</ele>
        <time>2026-05-02T11:11:21.000Z</time>
      </trkpt>
      <trkpt lat="44.79667" lon="0.83251">
        <ele>199.5</ele>
        <time>2026-05-02T11:11:22.000Z</time>
      </trkpt>
      <trkpt lat="44.79667" lon="0.83251">
        <ele>199.5</ele>
        <time>2026-05-02T11:11:23.000Z</time>
      </trkpt>
      <trkpt lat="44.79667" lon="0.83251">
        <ele>199.5</ele>
        <time>2026-05-02T11:11:24.000Z</time>
      </trkpt>
      <trkpt lat="44.79667" lon="0.83251">
        <ele>199.5</ele>
        <time>2026-05-02T11:11:25.000Z</time>
      </trkpt>
      <trkpt lat="44.79667" lon="0.83251">
        <ele>199.5</ele>
        <time>2026-05-02T11:11:26.000Z</time>
      </trkpt>
      <trkpt lat="44.79667" lon="0.83251">
        <ele>199.5</ele>
        <time>2026-05-02T11:11:27.000Z</time>
      </trkpt>
      <trkpt lat="44.79667" lon="0.83251">
        <ele>199.5</ele>
        <time>2026-05-02T11:11:28.000Z</time>
      </trkpt>
      <trkpt lat="44.79667" lon="0.83251">
        <ele>199.5</ele>
        <time>2026-05-02T11:11:29.000Z</time>
      </trkpt>
      <trkpt lat="44.79667" lon="0.83251">
        <ele>199.5</ele>
        <time>2026-05-02T11:11:30.000Z</time>
      </trkpt>
      <trkpt lat="44.79667" lon="0.83251">
        <ele>199.5</ele>
        <time>2026-05-02T11:11:31.000Z</time>
      </trkpt>
      <trkpt lat="44.79667" lon="0.83251">
        <ele>199.6</ele>
        <time>2026-05-02T11:11:32.000Z</time>
      </trkpt>
      <trkpt lat="44.79667" lon="0.83251">
        <ele>199.6</ele>
        <time>2026-05-02T11:11:33.000Z</time>
      </trkpt>
      <trkpt lat="44.79667" lon="0.83251">
        <ele>199.6</ele>
        <time>2026-05-02T11:11:34.000Z</time>
      </trkpt>
      <trkpt lat="44.79667" lon="0.83251">
        <ele>199.6</ele>
        <time>2026-05-02T11:11:35.000Z</time>
      </trkpt>
      <trkpt lat="44.79667" lon="0.83251">
        <ele>199.6</ele>
        <time>2026-05-02T11:11:36.000Z</time>
      </trkpt>
      <trkpt lat="44.79667" lon="0.83251">
        <ele>199.6</ele>
        <time>2026-05-02T11:11:37.000Z</time>
      </trkpt>
      <trkpt lat="44.79667" lon="0.83251">
        <ele>199.6</ele>
        <time>2026-05-02T11:11:38.000Z</time>
      </trkpt>
      <trkpt lat="44.79667" lon="0.83251">
        <ele>199.6</ele>
        <time>2026-05-02T11:11:39.000Z</time>
      </trkpt>
      <trkpt lat="44.79667" lon="0.83251">
        <ele>199.6</ele>
        <time>2026-05-02T11:11:40.000Z</time>
      </trkpt>
      <trkpt lat="44.79667" lon="0.83251">
        <ele>199.6</ele>
        <time>2026-05-02T11:11:41.000Z</time>
      </trkpt>
      <trkpt lat="44.79667" lon="0.83251">
        <ele>199.6</ele>
        <time>2026-05-02T11:11:42.000Z</time>
      </trkpt>
      <trkpt lat="44.79667" lon="0.83251">
        <ele>199.6</ele>
        <time>2026-05-02T11:11:43.000Z</time>
      </trkpt>
      <trkpt lat="44.79667" lon="0.83251">
        <ele>199.6</ele>
        <time>2026-05-02T11:11:44.000Z</time>
      </trkpt>
      <trkpt lat="44.79667" lon="0.83251">
        <ele>199.6</ele>
        <time>2026-05-02T11:11:45.000Z</time>
      </trkpt>
      <trkpt lat="44.79667" lon="0.83251">
        <ele>199.6</ele>
        <time>2026-05-02T11:11:46.000Z</time>
      </trkpt>
      <trkpt lat="44.79667" lon="0.83251">
        <ele>199.6</ele>
        <time>2026-05-02T11:11:47.000Z</time>
      </trkpt>
      <trkpt lat="44.79667" lon="0.83251">
        <ele>199.6</ele>
        <time>2026-05-02T11:11:48.000Z</time>
      </trkpt>
      <trkpt lat="44.79667" lon="0.83251">
        <ele>199.6</ele>
        <time>2026-05-02T11:11:49.000Z</time>
      </trkpt>
      <trkpt lat="44.79667" lon="0.83251">
        <ele>199.6</ele>
        <time>2026-05-02T11:11:50.000Z</time>
      </trkpt>
      <trkpt lat="44.79667" lon="0.83251">
        <ele>199.6</ele>
        <time>2026-05-02T11:11:51.000Z</time>
      </trkpt>
      <trkpt lat="44.79667" lon="0.83251">
        <ele>199.7</ele>
        <time>2026-05-02T11:11:52.000Z</time>
      </trkpt>
      <trkpt lat="44.79667" lon="0.83251">
        <ele>199.7</ele>
        <time>2026-05-02T11:11:53.000Z</time>
      </trkpt>
      <trkpt lat="44.79667" lon="0.83251">
        <ele>199.7</ele>
        <time>2026-05-02T11:11:54.000Z</time>
      </trkpt>
      <trkpt lat="44.79667" lon="0.83251">
        <ele>199.7</ele>
        <time>2026-05-02T11:11:55.000Z</time>
      </trkpt>
      <trkpt lat="44.79667" lon="0.83251">
        <ele>199.7</ele>
        <time>2026-05-02T11:11:56.000Z</time>
      </trkpt>
      <trkpt lat="44.79667" lon="0.83251">
        <ele>199.7</ele>
        <time>2026-05-02T11:11:57.000Z</time>
      </trkpt>
      <trkpt lat="44.79667" lon="0.83251">
        <ele>199.7</ele>
        <time>2026-05-02T11:11:58.000Z</time>
      </trkpt>
      <trkpt lat="44.79667" lon="0.83251">
        <ele>199.7</ele>
        <time>2026-05-02T11:11:59.000Z</time>
      </trkpt>
      <trkpt lat="44.79667" lon="0.83251">
        <ele>199.7</ele>
        <time>2026-05-02T11:12:00.000Z</time>
      </trkpt>
      <trkpt lat="44.79667" lon="0.83251">
        <ele>199.8</ele>
        <time>2026-05-02T11:12:01.000Z</time>
      </trkpt>
      <trkpt lat="44.79667" lon="0.83251">
        <ele>199.8</ele>
        <time>2026-05-02T11:12:02.000Z</time>
      </trkpt>
      <trkpt lat="44.79667" lon="0.83251">
        <ele>199.8</ele>
        <time>2026-05-02T11:12:03.000Z</time>
      </trkpt>
      <trkpt lat="44.79667" lon="0.83251">
        <ele>199.8</ele>
        <time>2026-05-02T11:12:04.000Z</time>
      </trkpt>
      <trkpt lat="44.79667" lon="0.83251">
        <ele>199.9</ele>
        <time>2026-05-02T11:12:05.000Z</time>
      </trkpt>
      <trkpt lat="44.79667" lon="0.83251">
        <ele>199.9</ele>
        <time>2026-05-02T11:12:06.000Z</time>
      </trkpt>
      <trkpt lat="44.79667" lon="0.83251">
        <ele>199.9</ele>
        <time>2026-05-02T11:12:07.000Z</time>
      </trkpt>
      <trkpt lat="44.79667" lon="0.83251">
        <ele>199.9</ele>
        <time>2026-05-02T11:12:08.000Z</time>
      </trkpt>
      <trkpt lat="44.79667" lon="0.83251">
        <ele>199.9</ele>
        <time>2026-05-02T11:12:09.000Z</time>
      </trkpt>
      <trkpt lat="44.79667" lon="0.83251">
        <ele>199.9</ele>
        <time>2026-05-02T11:12:10.000Z</time>
      </trkpt>
      <trkpt lat="44.79667" lon="0.83251">
        <ele>199.9</ele>
        <time>2026-05-02T11:12:11.000Z</time>
      </trkpt>
      <trkpt lat="44.79667" lon="0.83251">
        <ele>199.9</ele>
        <time>2026-05-02T11:12:12.000Z</time>
      </trkpt>
      <trkpt lat="44.79667" lon="0.83251">
        <ele>199.9</ele>
        <time>2026-05-02T11:12:13.000Z</time>
      </trkpt>
      <trkpt lat="44.79667" lon="0.83251">
        <ele>199.9</ele>
        <time>2026-05-02T11:12:14.000Z</time>
      </trkpt>
      <trkpt lat="44.79667" lon="0.83251">
        <ele>199.9</ele>
        <time>2026-05-02T11:12:15.000Z</time>
      </trkpt>
      <trkpt lat="44.79667" lon="0.83251">
        <ele>199.9</ele>
        <time>2026-05-02T11:12:16.000Z</time>
      </trkpt>
      <trkpt lat="44.79667" lon="0.83251">
        <ele>199.9</ele>
        <time>2026-05-02T11:12:17.000Z</time>
      </trkpt>
      <trkpt lat="44.79667" lon="0.83251">
        <ele>200</ele>
        <time>2026-05-02T11:12:18.000Z</time>
      </trkpt>
      <trkpt lat="44.79667" lon="0.83251">
        <ele>199.9</ele>
        <time>2026-05-02T11:12:19.000Z</time>
      </trkpt>
      <trkpt lat="44.79667" lon="0.83251">
        <ele>199.9</ele>
        <time>2026-05-02T11:12:20.000Z</time>
      </trkpt>
      <trkpt lat="44.79667" lon="0.83251">
        <ele>199.9</ele>
        <time>2026-05-02T11:12:21.000Z</time>
      </trkpt>
      <trkpt lat="44.79667" lon="0.83251">
        <ele>199.9</ele>
        <time>2026-05-02T11:12:22.000Z</time>
      </trkpt>
      <trkpt lat="44.79667" lon="0.83251">
        <ele>199.9</ele>
        <time>2026-05-02T11:12:23.000Z</time>
      </trkpt>
      <trkpt lat="44.79667" lon="0.83251">
        <ele>199.9</ele>
        <time>2026-05-02T11:12:24.000Z</time>
      </trkpt>
      <trkpt lat="44.79667" lon="0.83251">
        <ele>199.9</ele>
        <time>2026-05-02T11:12:25.000Z</time>
      </trkpt>
      <trkpt lat="44.79667" lon="0.83251">
        <ele>199.9</ele>
        <time>2026-05-02T11:12:26.000Z</time>
      </trkpt>
      <trkpt lat="44.79667" lon="0.83251">
        <ele>199.9</ele>
        <time>2026-05-02T11:12:27.000Z</time>
      </trkpt>
      <trkpt lat="44.79667" lon="0.83251">
        <ele>199.9</ele>
        <time>2026-05-02T11:12:28.000Z</time>
      </trkpt>
      <trkpt lat="44.79667" lon="0.83251">
        <ele>199.9</ele>
        <time>2026-05-02T11:12:29.000Z</time>
      </trkpt>
      <trkpt lat="44.79667" lon="0.83251">
        <ele>200</ele>
        <time>2026-05-02T11:12:30.000Z</time>
      </trkpt>
      <trkpt lat="44.79667" lon="0.83251">
        <ele>199.9</ele>
        <time>2026-05-02T11:12:31.000Z</time>
      </trkpt>
      <trkpt lat="44.79667" lon="0.83251">
        <ele>200</ele>
        <time>2026-05-02T11:12:32.000Z</time>
      </trkpt>
      <trkpt lat="44.79667" lon="0.83251">
        <ele>200</ele>
        <time>2026-05-02T11:12:33.000Z</time>
      </trkpt>
      <trkpt lat="44.79667" lon="0.83251">
        <ele>200</ele>
        <time>2026-05-02T11:12:34.000Z</time>
      </trkpt>
      <trkpt lat="44.79667" lon="0.83251">
        <ele>200</ele>
        <time>2026-05-02T11:12:35.000Z</time>
      </trkpt>
      <trkpt lat="44.79667" lon="0.83251">
        <ele>200</ele>
        <time>2026-05-02T11:12:36.000Z</time>
      </trkpt>
      <trkpt lat="44.79667" lon="0.83251">
        <ele>200</ele>
        <time>2026-05-02T11:12:37.000Z</time>
      </trkpt>
      <trkpt lat="44.79667" lon="0.83251">
        <ele>200</ele>
        <time>2026-05-02T11:12:38.000Z</time>
      </trkpt>
      <trkpt lat="44.79667" lon="0.83251">
        <ele>200</ele>
        <time>2026-05-02T11:12:39.000Z</time>
      </trkpt>
      <trkpt lat="44.79667" lon="0.83251">
        <ele>200</ele>
        <time>2026-05-02T11:12:40.000Z</time>
      </trkpt>
      <trkpt lat="44.79667" lon="0.83251">
        <ele>200</ele>
        <time>2026-05-02T11:12:41.000Z</time>
      </trkpt>
      <trkpt lat="44.79667" lon="0.83251">
        <ele>200</ele>
        <time>2026-05-02T11:12:42.000Z</time>
      </trkpt>
      <trkpt lat="44.79667" lon="0.83251">
        <ele>200</ele>
        <time>2026-05-02T11:12:43.000Z</time>
      </trkpt>
      <trkpt lat="44.79667" lon="0.83251">
        <ele>200</ele>
        <time>2026-05-02T11:12:44.000Z</time>
      </trkpt>
      <trkpt lat="44.79667" lon="0.83251">
        <ele>200</ele>
        <time>2026-05-02T11:12:45.000Z</time>
      </trkpt>
      <trkpt lat="44.79667" lon="0.83251">
        <ele>200</ele>
        <time>2026-05-02T11:12:46.000Z</time>
      </trkpt>
      <trkpt lat="44.79667" lon="0.83251">
        <ele>200</ele>
        <time>2026-05-02T11:12:47.000Z</time>
      </trkpt>
      <trkpt lat="44.79667" lon="0.83251">
        <ele>200</ele>
        <time>2026-05-02T11:12:48.000Z</time>
      </trkpt>
      <trkpt lat="44.79667" lon="0.83251">
        <ele>200</ele>
        <time>2026-05-02T11:12:49.000Z</time>
      </trkpt>
      <trkpt lat="44.79667" lon="0.83251">
        <ele>200</ele>
        <time>2026-05-02T11:12:50.000Z</time>
      </trkpt>
      <trkpt lat="44.79667" lon="0.83251">
        <ele>200</ele>
        <time>2026-05-02T11:12:51.000Z</time>
      </trkpt>
      <trkpt lat="44.79667" lon="0.83251">
        <ele>200.1</ele>
        <time>2026-05-02T11:12:52.000Z</time>
      </trkpt>
      <trkpt lat="44.79667" lon="0.83251">
        <ele>200.1</ele>
        <time>2026-05-02T11:12:53.000Z</time>
      </trkpt>
      <trkpt lat="44.79667" lon="0.83251">
        <ele>200.1</ele>
        <time>2026-05-02T11:12:54.000Z</time>
      </trkpt>
      <trkpt lat="44.79667" lon="0.83251">
        <ele>200.1</ele>
        <time>2026-05-02T11:12:55.000Z</time>
      </trkpt>
      <trkpt lat="44.79667" lon="0.83251">
        <ele>200.1</ele>
        <time>2026-05-02T11:12:56.000Z</time>
      </trkpt>
      <trkpt lat="44.79667" lon="0.83251">
        <ele>200.1</ele>
        <time>2026-05-02T11:12:57.000Z</time>
      </trkpt>
      <trkpt lat="44.79667" lon="0.83251">
        <ele>200.1</ele>
        <time>2026-05-02T11:12:58.000Z</time>
      </trkpt>
      <trkpt lat="44.79667" lon="0.83251">
        <ele>200.1</ele>
        <time>2026-05-02T11:12:59.000Z</time>
      </trkpt>
      <trkpt lat="44.79667" lon="0.83251">
        <ele>200.1</ele>
        <time>2026-05-02T11:13:00.000Z</time>
      </trkpt>
      <trkpt lat="44.79667" lon="0.83251">
        <ele>200.1</ele>
        <time>2026-05-02T11:13:01.000Z</time>
      </trkpt>
      <trkpt lat="44.79667" lon="0.83251">
        <ele>200.1</ele>
        <time>2026-05-02T11:13:02.000Z</time>
      </trkpt>
      <trkpt lat="44.79667" lon="0.83251">
        <ele>200.1</ele>
        <time>2026-05-02T11:13:03.000Z</time>
      </trkpt>
      <trkpt lat="44.79667" lon="0.83251">
        <ele>200.1</ele>
        <time>2026-05-02T11:13:04.000Z</time>
      </trkpt>
      <trkpt lat="44.79667" lon="0.83251">
        <ele>200.1</ele>
        <time>2026-05-02T11:13:05.000Z</time>
      </trkpt>
      <trkpt lat="44.79667" lon="0.83251">
        <ele>200.2</ele>
        <time>2026-05-02T11:13:06.000Z</time>
      </trkpt>
      <trkpt lat="44.79667" lon="0.83251">
        <ele>200.2</ele>
        <time>2026-05-02T11:13:07.000Z</time>
      </trkpt>
      <trkpt lat="44.79667" lon="0.83251">
        <ele>200.2</ele>
        <time>2026-05-02T11:13:08.000Z</time>
      </trkpt>
      <trkpt lat="44.79667" lon="0.83251">
        <ele>200.2</ele>
        <time>2026-05-02T11:13:09.000Z</time>
      </trkpt>
      <trkpt lat="44.79667" lon="0.83251">
        <ele>200.2</ele>
        <time>2026-05-02T11:13:10.000Z</time>
      </trkpt>
      <trkpt lat="44.79667" lon="0.83251">
        <ele>200.2</ele>
        <time>2026-05-02T11:13:11.000Z</time>
      </trkpt>
      <trkpt lat="44.79667" lon="0.83251">
        <ele>200.2</ele>
        <time>2026-05-02T11:13:12.000Z</time>
      </trkpt>
      <trkpt lat="44.79667" lon="0.83251">
        <ele>200.2</ele>
        <time>2026-05-02T11:13:13.000Z</time>
      </trkpt>
      <trkpt lat="44.79667" lon="0.83251">
        <ele>200.2</ele>
        <time>2026-05-02T11:13:14.000Z</time>
      </trkpt>
      <trkpt lat="44.79667" lon="0.83251">
        <ele>200.2</ele>
        <time>2026-05-02T11:13:15.000Z</time>
      </trkpt>
      <trkpt lat="44.79667" lon="0.83251">
        <ele>200.2</ele>
        <time>2026-05-02T11:13:16.000Z</time>
      </trkpt>
      <trkpt lat="44.79667" lon="0.83251">
        <ele>200.2</ele>
        <time>2026-05-02T11:13:17.000Z</time>
      </trkpt>
      <trkpt lat="44.79667" lon="0.83251">
        <ele>200.2</ele>
        <time>2026-05-02T11:13:18.000Z</time>
      </trkpt>
      <trkpt lat="44.79667" lon="0.83251">
        <ele>200.2</ele>
        <time>2026-05-02T11:13:19.000Z</time>
      </trkpt>
      <trkpt lat="44.79667" lon="0.83251">
        <ele>200.2</ele>
        <time>2026-05-02T11:13:20.000Z</time>
      </trkpt>
      <trkpt lat="44.79667" lon="0.83251">
        <ele>200.2</ele>
        <time>2026-05-02T11:13:21.000Z</time>
      </trkpt>
      <trkpt lat="44.79667" lon="0.83251">
        <ele>200.2</ele>
        <time>2026-05-02T11:13:22.000Z</time>
      </trkpt>
      <trkpt lat="44.79667" lon="0.83251">
        <ele>200.2</ele>
        <time>2026-05-02T11:13:23.000Z</time>
      </trkpt>
      <trkpt lat="44.79667" lon="0.83251">
        <ele>200.2</ele>
        <time>2026-05-02T11:13:24.000Z</time>
      </trkpt>
      <trkpt lat="44.79667" lon="0.83251">
        <ele>200.2</ele>
        <time>2026-05-02T11:13:25.000Z</time>
      </trkpt>
      <trkpt lat="44.79667" lon="0.83251">
        <ele>200.3</ele>
        <time>2026-05-02T11:13:26.000Z</time>
      </trkpt>
      <trkpt lat="44.79667" lon="0.83251">
        <ele>200.3</ele>
        <time>2026-05-02T11:13:27.000Z</time>
      </trkpt>
      <trkpt lat="44.79667" lon="0.83251">
        <ele>200.3</ele>
        <time>2026-05-02T11:13:28.000Z</time>
      </trkpt>
      <trkpt lat="44.79667" lon="0.83251">
        <ele>200.3</ele>
        <time>2026-05-02T11:13:29.000Z</time>
      </trkpt>
      <trkpt lat="44.79667" lon="0.83251">
        <ele>200.3</ele>
        <time>2026-05-02T11:13:30.000Z</time>
      </trkpt>
      <trkpt lat="44.79667" lon="0.83251">
        <ele>200.3</ele>
        <time>2026-05-02T11:13:31.000Z</time>
      </trkpt>
      <trkpt lat="44.79667" lon="0.83251">
        <ele>200.3</ele>
        <time>2026-05-02T11:13:32.000Z</time>
      </trkpt>
      <trkpt lat="44.79667" lon="0.83251">
        <ele>200.4</ele>
        <time>2026-05-02T11:13:33.000Z</time>
      </trkpt>
      <trkpt lat="44.79667" lon="0.83251">
        <ele>200.4</ele>
        <time>2026-05-02T11:13:34.000Z</time>
      </trkpt>
      <trkpt lat="44.79667" lon="0.83251">
        <ele>200.4</ele>
        <time>2026-05-02T11:13:35.000Z</time>
      </trkpt>
      <trkpt lat="44.79667" lon="0.83251">
        <ele>200.4</ele>
        <time>2026-05-02T11:13:36.000Z</time>
      </trkpt>
      <trkpt lat="44.79667" lon="0.83251">
        <ele>200.4</ele>
        <time>2026-05-02T11:13:37.000Z</time>
      </trkpt>
      <trkpt lat="44.79667" lon="0.83251">
        <ele>200.5</ele>
        <time>2026-05-02T11:13:38.000Z</time>
      </trkpt>
      <trkpt lat="44.79667" lon="0.83251">
        <ele>200.5</ele>
        <time>2026-05-02T11:13:39.000Z</time>
      </trkpt>
      <trkpt lat="44.79667" lon="0.83251">
        <ele>200.5</ele>
        <time>2026-05-02T11:13:40.000Z</time>
      </trkpt>
      <trkpt lat="44.79667" lon="0.83251">
        <ele>200.5</ele>
        <time>2026-05-02T11:13:41.000Z</time>
      </trkpt>
      <trkpt lat="44.79667" lon="0.83251">
        <ele>200.5</ele>
        <time>2026-05-02T11:13:42.000Z</time>
      </trkpt>
      <trkpt lat="44.79667" lon="0.83251">
        <ele>200.5</ele>
        <time>2026-05-02T11:13:43.000Z</time>
      </trkpt>
      <trkpt lat="44.79667" lon="0.83251">
        <ele>200.6</ele>
        <time>2026-05-02T11:13:44.000Z</time>
      </trkpt>
      <trkpt lat="44.79667" lon="0.83251">
        <ele>200.6</ele>
        <time>2026-05-02T11:13:45.000Z</time>
      </trkpt>
      <trkpt lat="44.79667" lon="0.83251">
        <ele>200.6</ele>
        <time>2026-05-02T11:13:46.000Z</time>
      </trkpt>
      <trkpt lat="44.79667" lon="0.83251">
        <ele>200.6</ele>
        <time>2026-05-02T11:13:47.000Z</time>
      </trkpt>
      <trkpt lat="44.79667" lon="0.83251">
        <ele>200.6</ele>
        <time>2026-05-02T11:13:48.000Z</time>
      </trkpt>
      <trkpt lat="44.79667" lon="0.83251">
        <ele>200.6</ele>
        <time>2026-05-02T11:13:49.000Z</time>
      </trkpt>
      <trkpt lat="44.79667" lon="0.83251">
        <ele>200.6</ele>
        <time>2026-05-02T11:13:50.000Z</time>
      </trkpt>
      <trkpt lat="44.79667" lon="0.83251">
        <ele>200.6</ele>
        <time>2026-05-02T11:13:51.000Z</time>
      </trkpt>
      <trkpt lat="44.79667" lon="0.83251">
        <ele>200.6</ele>
        <time>2026-05-02T11:13:52.000Z</time>
      </trkpt>
      <trkpt lat="44.79668" lon="0.83251">
        <ele>200.6</ele>
        <time>2026-05-02T11:13:53.000Z</time>
      </trkpt>
      <trkpt lat="44.79668" lon="0.83251">
        <ele>200.6</ele>
        <time>2026-05-02T11:13:54.000Z</time>
      </trkpt>
      <trkpt lat="44.79668" lon="0.83251">
        <ele>200.6</ele>
        <time>2026-05-02T11:13:55.000Z</time>
      </trkpt>
      <trkpt lat="44.79668" lon="0.83251">
        <ele>200.6</ele>
        <time>2026-05-02T11:13:56.000Z</time>
      </trkpt>
      <trkpt lat="44.79668" lon="0.83251">
        <ele>200.7</ele>
        <time>2026-05-02T11:13:57.000Z</time>
      </trkpt>
      <trkpt lat="44.79668" lon="0.83251">
        <ele>200.6</ele>
        <time>2026-05-02T11:13:58.000Z</time>
      </trkpt>
      <trkpt lat="44.79668" lon="0.83251">
        <ele>200.7</ele>
        <time>2026-05-02T11:13:59.000Z</time>
      </trkpt>
      <trkpt lat="44.79668" lon="0.83251">
        <ele>200.7</ele>
        <time>2026-05-02T11:14:00.000Z</time>
      </trkpt>
      <trkpt lat="44.79668" lon="0.83251">
        <ele>200.7</ele>
        <time>2026-05-02T11:14:01.000Z</time>
      </trkpt>
      <trkpt lat="44.79668" lon="0.83251">
        <ele>200.7</ele>
        <time>2026-05-02T11:14:02.000Z</time>
      </trkpt>
      <trkpt lat="44.79668" lon="0.83251">
        <ele>200.7</ele>
        <time>2026-05-02T11:14:03.000Z</time>
      </trkpt>
      <trkpt lat="44.79668" lon="0.83251">
        <ele>200.7</ele>
        <time>2026-05-02T11:14:04.000Z</time>
      </trkpt>
      <trkpt lat="44.79668" lon="0.83251">
        <ele>200.7</ele>
        <time>2026-05-02T11:14:05.000Z</time>
      </trkpt>
      <trkpt lat="44.79668" lon="0.83251">
        <ele>200.8</ele>
        <time>2026-05-02T11:14:06.000Z</time>
      </trkpt>
      <trkpt lat="44.79668" lon="0.83251">
        <ele>200.8</ele>
        <time>2026-05-02T11:14:07.000Z</time>
      </trkpt>
      <trkpt lat="44.79668" lon="0.83251">
        <ele>200.8</ele>
        <time>2026-05-02T11:14:08.000Z</time>
      </trkpt>
      <trkpt lat="44.79668" lon="0.83251">
        <ele>200.8</ele>
        <time>2026-05-02T11:14:09.000Z</time>
      </trkpt>
      <trkpt lat="44.79668" lon="0.83251">
        <ele>200.9</ele>
        <time>2026-05-02T11:14:10.000Z</time>
      </trkpt>
      <trkpt lat="44.79668" lon="0.83251">
        <ele>200.9</ele>
        <time>2026-05-02T11:14:11.000Z</time>
      </trkpt>
      <trkpt lat="44.79668" lon="0.83251">
        <ele>200.9</ele>
        <time>2026-05-02T11:14:12.000Z</time>
      </trkpt>
      <trkpt lat="44.79668" lon="0.83251">
        <ele>200.9</ele>
        <time>2026-05-02T11:14:13.000Z</time>
      </trkpt>
      <trkpt lat="44.79668" lon="0.83251">
        <ele>200.9</ele>
        <time>2026-05-02T11:14:14.000Z</time>
      </trkpt>
      <trkpt lat="44.79668" lon="0.83251">
        <ele>200.9</ele>
        <time>2026-05-02T11:14:15.000Z</time>
      </trkpt>
      <trkpt lat="44.79668" lon="0.83251">
        <ele>200.9</ele>
        <time>2026-05-02T11:14:16.000Z</time>
      </trkpt>
      <trkpt lat="44.79668" lon="0.83251">
        <ele>200.9</ele>
        <time>2026-05-02T11:14:17.000Z</time>
      </trkpt>
      <trkpt lat="44.79668" lon="0.83251">
        <ele>200.9</ele>
        <time>2026-05-02T11:14:18.000Z</time>
      </trkpt>
      <trkpt lat="44.79668" lon="0.83251">
        <ele>200.9</ele>
        <time>2026-05-02T11:14:19.000Z</time>
      </trkpt>
      <trkpt lat="44.79668" lon="0.83251">
        <ele>200.9</ele>
        <time>2026-05-02T11:14:20.000Z</time>
      </trkpt>
      <trkpt lat="44.79668" lon="0.83251">
        <ele>200.9</ele>
        <time>2026-05-02T11:14:21.000Z</time>
      </trkpt>
      <trkpt lat="44.79668" lon="0.83251">
        <ele>200.9</ele>
        <time>2026-05-02T11:14:22.000Z</time>
      </trkpt>
      <trkpt lat="44.79668" lon="0.83251">
        <ele>200.9</ele>
        <time>2026-05-02T11:14:23.000Z</time>
      </trkpt>
      <trkpt lat="44.79668" lon="0.83251">
        <ele>200.9</ele>
        <time>2026-05-02T11:14:24.000Z</time>
      </trkpt>
      <trkpt lat="44.79668" lon="0.83251">
        <ele>200.9</ele>
        <time>2026-05-02T11:14:25.000Z</time>
      </trkpt>
      <trkpt lat="44.79668" lon="0.83251">
        <ele>200.9</ele>
        <time>2026-05-02T11:14:26.000Z</time>
      </trkpt>
      <trkpt lat="44.79668" lon="0.83251">
        <ele>200.9</ele>
        <time>2026-05-02T11:14:27.000Z</time>
      </trkpt>
      <trkpt lat="44.79668" lon="0.83251">
        <ele>200.9</ele>
        <time>2026-05-02T11:14:28.000Z</time>
      </trkpt>
      <trkpt lat="44.79668" lon="0.83251">
        <ele>200.9</ele>
        <time>2026-05-02T11:14:29.000Z</time>
      </trkpt>
      <trkpt lat="44.79668" lon="0.83251">
        <ele>200.9</ele>
        <time>2026-05-02T11:14:30.000Z</time>
      </trkpt>
      <trkpt lat="44.79668" lon="0.83251">
        <ele>200.9</ele>
        <time>2026-05-02T11:14:31.000Z</time>
      </trkpt>
      <trkpt lat="44.79668" lon="0.83251">
        <ele>200.9</ele>
        <time>2026-05-02T11:14:32.000Z</time>
      </trkpt>
      <trkpt lat="44.79668" lon="0.83251">
        <ele>200.9</ele>
        <time>2026-05-02T11:14:33.000Z</time>
      </trkpt>
      <trkpt lat="44.79668" lon="0.83251">
        <ele>200.9</ele>
        <time>2026-05-02T11:14:34.000Z</time>
      </trkpt>
      <trkpt lat="44.79668" lon="0.83251">
        <ele>200.9</ele>
        <time>2026-05-02T11:14:35.000Z</time>
      </trkpt>
      <trkpt lat="44.79668" lon="0.83251">
        <ele>200.9</ele>
        <time>2026-05-02T11:14:36.000Z</time>
      </trkpt>
      <trkpt lat="44.79668" lon="0.83251">
        <ele>200.9</ele>
        <time>2026-05-02T11:14:37.000Z</time>
      </trkpt>
      <trkpt lat="44.79668" lon="0.83251">
        <ele>200.9</ele>
        <time>2026-05-02T11:14:38.000Z</time>
      </trkpt>
      <trkpt lat="44.79668" lon="0.83251">
        <ele>200.9</ele>
        <time>2026-05-02T11:14:39.000Z</time>
      </trkpt>
      <trkpt lat="44.79668" lon="0.83251">
        <ele>200.9</ele>
        <time>2026-05-02T11:14:40.000Z</time>
      </trkpt>
      <trkpt lat="44.79668" lon="0.83251">
        <ele>200.9</ele>
        <time>2026-05-02T11:14:41.000Z</time>
      </trkpt>
      <trkpt lat="44.79668" lon="0.83251">
        <ele>200.9</ele>
        <time>2026-05-02T11:14:42.000Z</time>
      </trkpt>
      <trkpt lat="44.79668" lon="0.83251">
        <ele>200.9</ele>
        <time>2026-05-02T11:14:43.000Z</time>
      </trkpt>
      <trkpt lat="44.79668" lon="0.83251">
        <ele>200.9</ele>
        <time>2026-05-02T11:14:44.000Z</time>
      </trkpt>
      <trkpt lat="44.79668" lon="0.83251">
        <ele>200.9</ele>
        <time>2026-05-02T11:14:45.000Z</time>
      </trkpt>
      <trkpt lat="44.79668" lon="0.83251">
        <ele>200.9</ele>
        <time>2026-05-02T11:14:46.000Z</time>
      </trkpt>
      <trkpt lat="44.79668" lon="0.83251">
        <ele>200.9</ele>
        <time>2026-05-02T11:14:47.000Z</time>
      </trkpt>
      <trkpt lat="44.79668" lon="0.83251">
        <ele>200.9</ele>
        <time>2026-05-02T11:14:48.000Z</time>
      </trkpt>
      <trkpt lat="44.79668" lon="0.83251">
        <ele>200.9</ele>
        <time>2026-05-02T11:14:49.000Z</time>
      </trkpt>
      <trkpt lat="44.79668" lon="0.83251">
        <ele>200.9</ele>
        <time>2026-05-02T11:14:50.000Z</time>
      </trkpt>
      <trkpt lat="44.79668" lon="0.83251">
        <ele>200.9</ele>
        <time>2026-05-02T11:14:51.000Z</time>
      </trkpt>
      <trkpt lat="44.79668" lon="0.83251">
        <ele>200.9</ele>
        <time>2026-05-02T11:14:52.000Z</time>
      </trkpt>
      <trkpt lat="44.79668" lon="0.83251">
        <ele>200.9</ele>
        <time>2026-05-02T11:14:53.000Z</time>
      </trkpt>
      <trkpt lat="44.79668" lon="0.83251">
        <ele>200.9</ele>
        <time>2026-05-02T11:14:54.000Z</time>
      </trkpt>
      <trkpt lat="44.79668" lon="0.83251">
        <ele>200.9</ele>
        <time>2026-05-02T11:14:55.000Z</time>
      </trkpt>
      <trkpt lat="44.79668" lon="0.83251">
        <ele>200.9</ele>
        <time>2026-05-02T11:14:56.000Z</time>
      </trkpt>
      <trkpt lat="44.79668" lon="0.83251">
        <ele>200.9</ele>
        <time>2026-05-02T11:14:57.000Z</time>
      </trkpt>
      <trkpt lat="44.79668" lon="0.83251">
        <ele>200.9</ele>
        <time>2026-05-02T11:14:58.000Z</time>
      </trkpt>
      <trkpt lat="44.79668" lon="0.83251">
        <ele>200.9</ele>
        <time>2026-05-02T11:14:59.000Z</time>
      </trkpt>
      <trkpt lat="44.79668" lon="0.83251">
        <ele>200.9</ele>
        <time>2026-05-02T11:15:00.000Z</time>
      </trkpt>
      <trkpt lat="44.79668" lon="0.83251">
        <ele>200.9</ele>
        <time>2026-05-02T11:15:01.000Z</time>
      </trkpt>
      <trkpt lat="44.79668" lon="0.83251">
        <ele>200.9</ele>
        <time>2026-05-02T11:15:02.000Z</time>
      </trkpt>
      <trkpt lat="44.79668" lon="0.83251">
        <ele>200.9</ele>
        <time>2026-05-02T11:15:03.000Z</time>
      </trkpt>
      <trkpt lat="44.79668" lon="0.83251">
        <ele>200.9</ele>
        <time>2026-05-02T11:15:04.000Z</time>
      </trkpt>
      <trkpt lat="44.79668" lon="0.83251">
        <ele>200.9</ele>
        <time>2026-05-02T11:15:05.000Z</time>
      </trkpt>
      <trkpt lat="44.79668" lon="0.83251">
        <ele>200.9</ele>
        <time>2026-05-02T11:15:06.000Z</time>
      </trkpt>
      <trkpt lat="44.79668" lon="0.83251">
        <ele>200.9</ele>
        <time>2026-05-02T11:15:07.000Z</time>
      </trkpt>
      <trkpt lat="44.79668" lon="0.83251">
        <ele>200.9</ele>
        <time>2026-05-02T11:15:08.000Z</time>
      </trkpt>
      <trkpt lat="44.79668" lon="0.83251">
        <ele>200.9</ele>
        <time>2026-05-02T11:15:09.000Z</time>
      </trkpt>
      <trkpt lat="44.79668" lon="0.83251">
        <ele>200.9</ele>
        <time>2026-05-02T11:15:10.000Z</time>
      </trkpt>
      <trkpt lat="44.79668" lon="0.83251">
        <ele>200.9</ele>
        <time>2026-05-02T11:15:11.000Z</time>
      </trkpt>
      <trkpt lat="44.79668" lon="0.83251">
        <ele>200.9</ele>
        <time>2026-05-02T11:15:12.000Z</time>
      </trkpt>
      <trkpt lat="44.79668" lon="0.83251">
        <ele>200.9</ele>
        <time>2026-05-02T11:15:13.000Z</time>
      </trkpt>
      <trkpt lat="44.79668" lon="0.83251">
        <ele>200.9</ele>
        <time>2026-05-02T11:15:14.000Z</time>
      </trkpt>
      <trkpt lat="44.79668" lon="0.83251">
        <ele>200.9</ele>
        <time>2026-05-02T11:15:15.000Z</time>
      </trkpt>
      <trkpt lat="44.79668" lon="0.83251">
        <ele>200.9</ele>
        <time>2026-05-02T11:15:16.000Z</time>
      </trkpt>
      <trkpt lat="44.79668" lon="0.83251">
        <ele>200.9</ele>
        <time>2026-05-02T11:15:17.000Z</time>
      </trkpt>
      <trkpt lat="44.79668" lon="0.83251">
        <ele>200.9</ele>
        <time>2026-05-02T11:15:18.000Z</time>
      </trkpt>
      <trkpt lat="44.79668" lon="0.83251">
        <ele>200.9</ele>
        <time>2026-05-02T11:15:19.000Z</time>
      </trkpt>
      <trkpt lat="44.79668" lon="0.83251">
        <ele>200.9</ele>
        <time>2026-05-02T11:15:20.000Z</time>
      </trkpt>
      <trkpt lat="44.79668" lon="0.83251">
        <ele>200.9</ele>
        <time>2026-05-02T11:15:21.000Z</time>
      </trkpt>
      <trkpt lat="44.79668" lon="0.83251">
        <ele>200.9</ele>
        <time>2026-05-02T11:15:22.000Z</time>
      </trkpt>
      <trkpt lat="44.79668" lon="0.83251">
        <ele>201</ele>
        <time>2026-05-02T11:15:23.000Z</time>
      </trkpt>
      <trkpt lat="44.79668" lon="0.83251">
        <ele>201</ele>
        <time>2026-05-02T11:15:24.000Z</time>
      </trkpt>
      <trkpt lat="44.79668" lon="0.83251">
        <ele>201</ele>
        <time>2026-05-02T11:15:25.000Z</time>
      </trkpt>
      <trkpt lat="44.79668" lon="0.83251">
        <ele>201</ele>
        <time>2026-05-02T11:15:26.000Z</time>
      </trkpt>
      <trkpt lat="44.79668" lon="0.83251">
        <ele>201</ele>
        <time>2026-05-02T11:15:27.000Z</time>
      </trkpt>
      <trkpt lat="44.79668" lon="0.83251">
        <ele>201</ele>
        <time>2026-05-02T11:15:28.000Z</time>
      </trkpt>
      <trkpt lat="44.79668" lon="0.83251">
        <ele>201</ele>
        <time>2026-05-02T11:15:29.000Z</time>
      </trkpt>
      <trkpt lat="44.79668" lon="0.83251">
        <ele>201</ele>
        <time>2026-05-02T11:15:30.000Z</time>
      </trkpt>
      <trkpt lat="44.79668" lon="0.83251">
        <ele>201</ele>
        <time>2026-05-02T11:15:31.000Z</time>
      </trkpt>
      <trkpt lat="44.79668" lon="0.83251">
        <ele>201</ele>
        <time>2026-05-02T11:15:32.000Z</time>
      </trkpt>
      <trkpt lat="44.79668" lon="0.83251">
        <ele>201</ele>
        <time>2026-05-02T11:15:33.000Z</time>
      </trkpt>
      <trkpt lat="44.79668" lon="0.83251">
        <ele>201</ele>
        <time>2026-05-02T11:15:34.000Z</time>
      </trkpt>
      <trkpt lat="44.79668" lon="0.83251">
        <ele>201</ele>
        <time>2026-05-02T11:15:35.000Z</time>
      </trkpt>
      <trkpt lat="44.79668" lon="0.83251">
        <ele>201</ele>
        <time>2026-05-02T11:15:36.000Z</time>
      </trkpt>
      <trkpt lat="44.79668" lon="0.83251">
        <ele>201</ele>
        <time>2026-05-02T11:15:37.000Z</time>
      </trkpt>
      <trkpt lat="44.79668" lon="0.83251">
        <ele>201</ele>
        <time>2026-05-02T11:15:38.000Z</time>
      </trkpt>
      <trkpt lat="44.79668" lon="0.83251">
        <ele>201</ele>
        <time>2026-05-02T11:15:39.000Z</time>
      </trkpt>
      <trkpt lat="44.79668" lon="0.83251">
        <ele>201</ele>
        <time>2026-05-02T11:15:40.000Z</time>
      </trkpt>
      <trkpt lat="44.79668" lon="0.83251">
        <ele>201</ele>
        <time>2026-05-02T11:15:41.000Z</time>
      </trkpt>
      <trkpt lat="44.79668" lon="0.83251">
        <ele>201</ele>
        <time>2026-05-02T11:15:42.000Z</time>
      </trkpt>
      <trkpt lat="44.79668" lon="0.83251">
        <ele>201</ele>
        <time>2026-05-02T11:15:43.000Z</time>
      </trkpt>
      <trkpt lat="44.79668" lon="0.83251">
        <ele>201</ele>
        <time>2026-05-02T11:15:44.000Z</time>
      </trkpt>
      <trkpt lat="44.79668" lon="0.83251">
        <ele>201</ele>
        <time>2026-05-02T11:15:45.000Z</time>
      </trkpt>
      <trkpt lat="44.79668" lon="0.83251">
        <ele>201</ele>
        <time>2026-05-02T11:15:46.000Z</time>
      </trkpt>
      <trkpt lat="44.79668" lon="0.83251">
        <ele>201</ele>
        <time>2026-05-02T11:15:47.000Z</time>
      </trkpt>
      <trkpt lat="44.79668" lon="0.83251">
        <ele>201</ele>
        <time>2026-05-02T11:15:48.000Z</time>
      </trkpt>
      <trkpt lat="44.79668" lon="0.83251">
        <ele>201</ele>
        <time>2026-05-02T11:15:49.000Z</time>
      </trkpt>
      <trkpt lat="44.79668" lon="0.83251">
        <ele>201</ele>
        <time>2026-05-02T11:15:50.000Z</time>
      </trkpt>
      <trkpt lat="44.79668" lon="0.83251">
        <ele>201</ele>
        <time>2026-05-02T11:15:51.000Z</time>
      </trkpt>
      <trkpt lat="44.79668" lon="0.83251">
        <ele>201</ele>
        <time>2026-05-02T11:15:52.000Z</time>
      </trkpt>
      <trkpt lat="44.79668" lon="0.83251">
        <ele>201</ele>
        <time>2026-05-02T11:15:53.000Z</time>
      </trkpt>
      <trkpt lat="44.79668" lon="0.83251">
        <ele>201</ele>
        <time>2026-05-02T11:15:54.000Z</time>
      </trkpt>
      <trkpt lat="44.79668" lon="0.83251">
        <ele>201</ele>
        <time>2026-05-02T11:15:55.000Z</time>
      </trkpt>
      <trkpt lat="44.79668" lon="0.83251">
        <ele>201</ele>
        <time>2026-05-02T11:15:56.000Z</time>
      </trkpt>
      <trkpt lat="44.79668" lon="0.83251">
        <ele>201</ele>
        <time>2026-05-02T11:15:57.000Z</time>
      </trkpt>
      <trkpt lat="44.79668" lon="0.83251">
        <ele>201.1</ele>
        <time>2026-05-02T11:15:58.000Z</time>
      </trkpt>
      <trkpt lat="44.79668" lon="0.83251">
        <ele>201.1</ele>
        <time>2026-05-02T11:15:59.000Z</time>
      </trkpt>
      <trkpt lat="44.79668" lon="0.83251">
        <ele>201.1</ele>
        <time>2026-05-02T11:16:00.000Z</time>
      </trkpt>
      <trkpt lat="44.79668" lon="0.83251">
        <ele>201.1</ele>
        <time>2026-05-02T11:16:01.000Z</time>
      </trkpt>
      <trkpt lat="44.79668" lon="0.83251">
        <ele>201.1</ele>
        <time>2026-05-02T11:16:02.000Z</time>
      </trkpt>
      <trkpt lat="44.79668" lon="0.83251">
        <ele>201.1</ele>
        <time>2026-05-02T11:16:03.000Z</time>
      </trkpt>
      <trkpt lat="44.79668" lon="0.83251">
        <ele>201.1</ele>
        <time>2026-05-02T11:16:04.000Z</time>
      </trkpt>
      <trkpt lat="44.79668" lon="0.83251">
        <ele>201.1</ele>
        <time>2026-05-02T11:16:05.000Z</time>
      </trkpt>
      <trkpt lat="44.79668" lon="0.83251">
        <ele>201.1</ele>
        <time>2026-05-02T11:16:06.000Z</time>
      </trkpt>
      <trkpt lat="44.79668" lon="0.83251">
        <ele>201.1</ele>
        <time>2026-05-02T11:16:07.000Z</time>
      </trkpt>
      <trkpt lat="44.79668" lon="0.83251">
        <ele>201.1</ele>
        <time>2026-05-02T11:16:08.000Z</time>
      </trkpt>
      <trkpt lat="44.79668" lon="0.83251">
        <ele>201.1</ele>
        <time>2026-05-02T11:16:09.000Z</time>
      </trkpt>
      <trkpt lat="44.79668" lon="0.83251">
        <ele>201.1</ele>
        <time>2026-05-02T11:16:10.000Z</time>
      </trkpt>
      <trkpt lat="44.79668" lon="0.83251">
        <ele>201.1</ele>
        <time>2026-05-02T11:16:11.000Z</time>
      </trkpt>
      <trkpt lat="44.79668" lon="0.83251">
        <ele>201.1</ele>
        <time>2026-05-02T11:16:12.000Z</time>
      </trkpt>
      <trkpt lat="44.79668" lon="0.83251">
        <ele>201.1</ele>
        <time>2026-05-02T11:16:13.000Z</time>
      </trkpt>
      <trkpt lat="44.79668" lon="0.83251">
        <ele>201.1</ele>
        <time>2026-05-02T11:16:14.000Z</time>
      </trkpt>
      <trkpt lat="44.79668" lon="0.83251">
        <ele>201.1</ele>
        <time>2026-05-02T11:16:15.000Z</time>
      </trkpt>
      <trkpt lat="44.79668" lon="0.83251">
        <ele>201</ele>
        <time>2026-05-02T11:16:16.000Z</time>
      </trkpt>
      <trkpt lat="44.79668" lon="0.83251">
        <ele>201</ele>
        <time>2026-05-02T11:16:17.000Z</time>
      </trkpt>
      <trkpt lat="44.79668" lon="0.83251">
        <ele>201.1</ele>
        <time>2026-05-02T11:16:18.000Z</time>
      </trkpt>
      <trkpt lat="44.79668" lon="0.83251">
        <ele>201.1</ele>
        <time>2026-05-02T11:16:19.000Z</time>
      </trkpt>
      <trkpt lat="44.79668" lon="0.83251">
        <ele>201.1</ele>
        <time>2026-05-02T11:16:20.000Z</time>
      </trkpt>
      <trkpt lat="44.79668" lon="0.83251">
        <ele>201.1</ele>
        <time>2026-05-02T11:16:21.000Z</time>
      </trkpt>
      <trkpt lat="44.79668" lon="0.83251">
        <ele>201.1</ele>
        <time>2026-05-02T11:16:22.000Z</time>
      </trkpt>
      <trkpt lat="44.79668" lon="0.83251">
        <ele>201.1</ele>
        <time>2026-05-02T11:16:23.000Z</time>
      </trkpt>
      <trkpt lat="44.79668" lon="0.83251">
        <ele>201.1</ele>
        <time>2026-05-02T11:16:24.000Z</time>
      </trkpt>
      <trkpt lat="44.79668" lon="0.83251">
        <ele>201.1</ele>
        <time>2026-05-02T11:16:25.000Z</time>
      </trkpt>
      <trkpt lat="44.79668" lon="0.83251">
        <ele>201.1</ele>
        <time>2026-05-02T11:16:26.000Z</time>
      </trkpt>
      <trkpt lat="44.79668" lon="0.83251">
        <ele>201.1</ele>
        <time>2026-05-02T11:16:27.000Z</time>
      </trkpt>
      <trkpt lat="44.79668" lon="0.83251">
        <ele>201.1</ele>
        <time>2026-05-02T11:16:28.000Z</time>
      </trkpt>
      <trkpt lat="44.79668" lon="0.83251">
        <ele>201.1</ele>
        <time>2026-05-02T11:16:29.000Z</time>
      </trkpt>
      <trkpt lat="44.79668" lon="0.83251">
        <ele>201.1</ele>
        <time>2026-05-02T11:16:30.000Z</time>
      </trkpt>
      <trkpt lat="44.79668" lon="0.83251">
        <ele>201.1</ele>
        <time>2026-05-02T11:16:31.000Z</time>
      </trkpt>
      <trkpt lat="44.79668" lon="0.83251">
        <ele>201.1</ele>
        <time>2026-05-02T11:16:32.000Z</time>
      </trkpt>
      <trkpt lat="44.79668" lon="0.83251">
        <ele>201.1</ele>
        <time>2026-05-02T11:16:33.000Z</time>
      </trkpt>
      <trkpt lat="44.79668" lon="0.83251">
        <ele>201.1</ele>
        <time>2026-05-02T11:16:34.000Z</time>
      </trkpt>
      <trkpt lat="44.79668" lon="0.83251">
        <ele>201.1</ele>
        <time>2026-05-02T11:16:35.000Z</time>
      </trkpt>
      <trkpt lat="44.79668" lon="0.83251">
        <ele>201.1</ele>
        <time>2026-05-02T11:16:36.000Z</time>
      </trkpt>
      <trkpt lat="44.79668" lon="0.83251">
        <ele>201.1</ele>
        <time>2026-05-02T11:16:37.000Z</time>
      </trkpt>
      <trkpt lat="44.79668" lon="0.83251">
        <ele>201.1</ele>
        <time>2026-05-02T11:16:38.000Z</time>
      </trkpt>
      <trkpt lat="44.79668" lon="0.83251">
        <ele>201.1</ele>
        <time>2026-05-02T11:16:39.000Z</time>
      </trkpt>
      <trkpt lat="44.79668" lon="0.83251">
        <ele>201.1</ele>
        <time>2026-05-02T11:16:40.000Z</time>
      </trkpt>
      <trkpt lat="44.79668" lon="0.83251">
        <ele>201.1</ele>
        <time>2026-05-02T11:16:41.000Z</time>
      </trkpt>
      <trkpt lat="44.79668" lon="0.83251">
        <ele>201.1</ele>
        <time>2026-05-02T11:16:42.000Z</time>
      </trkpt>
      <trkpt lat="44.79668" lon="0.83251">
        <ele>201.1</ele>
        <time>2026-05-02T11:16:43.000Z</time>
      </trkpt>
      <trkpt lat="44.79668" lon="0.83251">
        <ele>201.1</ele>
        <time>2026-05-02T11:16:44.000Z</time>
      </trkpt>
      <trkpt lat="44.79668" lon="0.83251">
        <ele>201.1</ele>
        <time>2026-05-02T11:16:45.000Z</time>
      </trkpt>
      <trkpt lat="44.79668" lon="0.83251">
        <ele>201.1</ele>
        <time>2026-05-02T11:16:46.000Z</time>
      </trkpt>
      <trkpt lat="44.79668" lon="0.83251">
        <ele>201.1</ele>
        <time>2026-05-02T11:16:47.000Z</time>
      </trkpt>
      <trkpt lat="44.79668" lon="0.83251">
        <ele>201.1</ele>
        <time>2026-05-02T11:16:48.000Z</time>
      </trkpt>
      <trkpt lat="44.79668" lon="0.83251">
        <ele>201.1</ele>
        <time>2026-05-02T11:16:49.000Z</time>
      </trkpt>
      <trkpt lat="44.79668" lon="0.83251">
        <ele>201.1</ele>
        <time>2026-05-02T11:16:50.000Z</time>
      </trkpt>
      <trkpt lat="44.79668" lon="0.83251">
        <ele>201.1</ele>
        <time>2026-05-02T11:16:51.000Z</time>
      </trkpt>
      <trkpt lat="44.79668" lon="0.83251">
        <ele>201.1</ele>
        <time>2026-05-02T11:16:52.000Z</time>
      </trkpt>
      <trkpt lat="44.79668" lon="0.83251">
        <ele>201.1</ele>
        <time>2026-05-02T11:16:53.000Z</time>
      </trkpt>
      <trkpt lat="44.79668" lon="0.83251">
        <ele>201.1</ele>
        <time>2026-05-02T11:16:54.000Z</time>
      </trkpt>
      <trkpt lat="44.79668" lon="0.83251">
        <ele>201.1</ele>
        <time>2026-05-02T11:16:55.000Z</time>
      </trkpt>
      <trkpt lat="44.79668" lon="0.83251">
        <ele>201.1</ele>
        <time>2026-05-02T11:16:56.000Z</time>
      </trkpt>
      <trkpt lat="44.79668" lon="0.83251">
        <ele>201.1</ele>
        <time>2026-05-02T11:16:57.000Z</time>
      </trkpt>
      <trkpt lat="44.79668" lon="0.83251">
        <ele>201.1</ele>
        <time>2026-05-02T11:16:58.000Z</time>
      </trkpt>
      <trkpt lat="44.79668" lon="0.83251">
        <ele>201.1</ele>
        <time>2026-05-02T11:16:59.000Z</time>
      </trkpt>
      <trkpt lat="44.79668" lon="0.83251">
        <ele>201.1</ele>
        <time>2026-05-02T11:17:00.000Z</time>
      </trkpt>
      <trkpt lat="44.79668" lon="0.83251">
        <ele>201.1</ele>
        <time>2026-05-02T11:17:01.000Z</time>
      </trkpt>
      <trkpt lat="44.79668" lon="0.83251">
        <ele>201.1</ele>
        <time>2026-05-02T11:17:02.000Z</time>
      </trkpt>
      <trkpt lat="44.79668" lon="0.83251">
        <ele>201.1</ele>
        <time>2026-05-02T11:17:03.000Z</time>
      </trkpt>
      <trkpt lat="44.79668" lon="0.83251">
        <ele>201.1</ele>
        <time>2026-05-02T11:17:04.000Z</time>
      </trkpt>
      <trkpt lat="44.79668" lon="0.83251">
        <ele>201.1</ele>
        <time>2026-05-02T11:17:05.000Z</time>
      </trkpt>
      <trkpt lat="44.79668" lon="0.83251">
        <ele>201.1</ele>
        <time>2026-05-02T11:17:06.000Z</time>
      </trkpt>
      <trkpt lat="44.79668" lon="0.83251">
        <ele>201.1</ele>
        <time>2026-05-02T11:17:07.000Z</time>
      </trkpt>
      <trkpt lat="44.79668" lon="0.83251">
        <ele>201.1</ele>
        <time>2026-05-02T11:17:08.000Z</time>
      </trkpt>
      <trkpt lat="44.79668" lon="0.83251">
        <ele>201.2</ele>
        <time>2026-05-02T11:17:09.000Z</time>
      </trkpt>
      <trkpt lat="44.79668" lon="0.83251">
        <ele>201.2</ele>
        <time>2026-05-02T11:17:10.000Z</time>
      </trkpt>
      <trkpt lat="44.79668" lon="0.83251">
        <ele>201.2</ele>
        <time>2026-05-02T11:17:11.000Z</time>
      </trkpt>
      <trkpt lat="44.79668" lon="0.83251">
        <ele>201.2</ele>
        <time>2026-05-02T11:17:12.000Z</time>
      </trkpt>
      <trkpt lat="44.79668" lon="0.83251">
        <ele>201.2</ele>
        <time>2026-05-02T11:17:13.000Z</time>
      </trkpt>
      <trkpt lat="44.79668" lon="0.83251">
        <ele>201.2</ele>
        <time>2026-05-02T11:17:14.000Z</time>
      </trkpt>
      <trkpt lat="44.79668" lon="0.83251">
        <ele>201.2</ele>
        <time>2026-05-02T11:17:15.000Z</time>
      </trkpt>
      <trkpt lat="44.79668" lon="0.83251">
        <ele>201.2</ele>
        <time>2026-05-02T11:17:16.000Z</time>
      </trkpt>
      <trkpt lat="44.79668" lon="0.83251">
        <ele>201.2</ele>
        <time>2026-05-02T11:17:17.000Z</time>
      </trkpt>
      <trkpt lat="44.79668" lon="0.83251">
        <ele>201.2</ele>
        <time>2026-05-02T11:17:18.000Z</time>
      </trkpt>
      <trkpt lat="44.79668" lon="0.83251">
        <ele>201.2</ele>
        <time>2026-05-02T11:17:19.000Z</time>
      </trkpt>
      <trkpt lat="44.79668" lon="0.83251">
        <ele>201.2</ele>
        <time>2026-05-02T11:17:20.000Z</time>
      </trkpt>
      <trkpt lat="44.79668" lon="0.83251">
        <ele>201.2</ele>
        <time>2026-05-02T11:17:21.000Z</time>
      </trkpt>
      <trkpt lat="44.79668" lon="0.83251">
        <ele>201.2</ele>
        <time>2026-05-02T11:17:22.000Z</time>
      </trkpt>
      <trkpt lat="44.79668" lon="0.83251">
        <ele>201.2</ele>
        <time>2026-05-02T11:17:23.000Z</time>
      </trkpt>
      <trkpt lat="44.79668" lon="0.83251">
        <ele>201.2</ele>
        <time>2026-05-02T11:17:24.000Z</time>
      </trkpt>
      <trkpt lat="44.79668" lon="0.83251">
        <ele>201.3</ele>
        <time>2026-05-02T11:17:25.000Z</time>
      </trkpt>
      <trkpt lat="44.79668" lon="0.83251">
        <ele>201.3</ele>
        <time>2026-05-02T11:17:26.000Z</time>
      </trkpt>
      <trkpt lat="44.79668" lon="0.83251">
        <ele>201.3</ele>
        <time>2026-05-02T11:17:27.000Z</time>
      </trkpt>
      <trkpt lat="44.79668" lon="0.83251">
        <ele>201.3</ele>
        <time>2026-05-02T11:17:28.000Z</time>
      </trkpt>
      <trkpt lat="44.79668" lon="0.83251">
        <ele>201.3</ele>
        <time>2026-05-02T11:17:29.000Z</time>
      </trkpt>
      <trkpt lat="44.79668" lon="0.83251">
        <ele>201.3</ele>
        <time>2026-05-02T11:17:30.000Z</time>
      </trkpt>
      <trkpt lat="44.79668" lon="0.83251">
        <ele>201.3</ele>
        <time>2026-05-02T11:17:31.000Z</time>
      </trkpt>
      <trkpt lat="44.79668" lon="0.83251">
        <ele>201.3</ele>
        <time>2026-05-02T11:17:32.000Z</time>
      </trkpt>
      <trkpt lat="44.79668" lon="0.83251">
        <ele>201.3</ele>
        <time>2026-05-02T11:17:33.000Z</time>
      </trkpt>
      <trkpt lat="44.79668" lon="0.83251">
        <ele>201.3</ele>
        <time>2026-05-02T11:17:34.000Z</time>
      </trkpt>
      <trkpt lat="44.79668" lon="0.83251">
        <ele>201.3</ele>
        <time>2026-05-02T11:17:35.000Z</time>
      </trkpt>
      <trkpt lat="44.79668" lon="0.83251">
        <ele>201.3</ele>
        <time>2026-05-02T11:17:36.000Z</time>
      </trkpt>
      <trkpt lat="44.79668" lon="0.83251">
        <ele>201.3</ele>
        <time>2026-05-02T11:17:37.000Z</time>
      </trkpt>
      <trkpt lat="44.79668" lon="0.83251">
        <ele>201.3</ele>
        <time>2026-05-02T11:17:38.000Z</time>
      </trkpt>
      <trkpt lat="44.79668" lon="0.83251">
        <ele>201.3</ele>
        <time>2026-05-02T11:17:39.000Z</time>
      </trkpt>
      <trkpt lat="44.79668" lon="0.83251">
        <ele>201.3</ele>
        <time>2026-05-02T11:17:40.000Z</time>
      </trkpt>
      <trkpt lat="44.79668" lon="0.83251">
        <ele>201.3</ele>
        <time>2026-05-02T11:17:41.000Z</time>
      </trkpt>
      <trkpt lat="44.79668" lon="0.83251">
        <ele>201.3</ele>
        <time>2026-05-02T11:17:42.000Z</time>
      </trkpt>
      <trkpt lat="44.79668" lon="0.83251">
        <ele>201.3</ele>
        <time>2026-05-02T11:17:43.000Z</time>
      </trkpt>
      <trkpt lat="44.79668" lon="0.83251">
        <ele>201.3</ele>
        <time>2026-05-02T11:17:44.000Z</time>
      </trkpt>
      <trkpt lat="44.79668" lon="0.83251">
        <ele>201.3</ele>
        <time>2026-05-02T11:17:45.000Z</time>
      </trkpt>
      <trkpt lat="44.79668" lon="0.83251">
        <ele>201.3</ele>
        <time>2026-05-02T11:17:46.000Z</time>
      </trkpt>
      <trkpt lat="44.79668" lon="0.83251">
        <ele>201.3</ele>
        <time>2026-05-02T11:17:47.000Z</time>
      </trkpt>
      <trkpt lat="44.79668" lon="0.83251">
        <ele>201.3</ele>
        <time>2026-05-02T11:17:48.000Z</time>
      </trkpt>
      <trkpt lat="44.79668" lon="0.83251">
        <ele>201.3</ele>
        <time>2026-05-02T11:17:49.000Z</time>
      </trkpt>
      <trkpt lat="44.79668" lon="0.83251">
        <ele>201.3</ele>
        <time>2026-05-02T11:17:50.000Z</time>
      </trkpt>
      <trkpt lat="44.79668" lon="0.83251">
        <ele>201.3</ele>
        <time>2026-05-02T11:17:51.000Z</time>
      </trkpt>
      <trkpt lat="44.79668" lon="0.83251">
        <ele>201.3</ele>
        <time>2026-05-02T11:17:52.000Z</time>
      </trkpt>
      <trkpt lat="44.79668" lon="0.83251">
        <ele>201.3</ele>
        <time>2026-05-02T11:17:53.000Z</time>
      </trkpt>
      <trkpt lat="44.79668" lon="0.83251">
        <ele>201.3</ele>
        <time>2026-05-02T11:17:54.000Z</time>
      </trkpt>
      <trkpt lat="44.79668" lon="0.83251">
        <ele>201.3</ele>
        <time>2026-05-02T11:17:55.000Z</time>
      </trkpt>
      <trkpt lat="44.79668" lon="0.83251">
        <ele>201.3</ele>
        <time>2026-05-02T11:17:56.000Z</time>
      </trkpt>
      <trkpt lat="44.79668" lon="0.83251">
        <ele>201.3</ele>
        <time>2026-05-02T11:17:57.000Z</time>
      </trkpt>
      <trkpt lat="44.79668" lon="0.83251">
        <ele>201.4</ele>
        <time>2026-05-02T11:17:58.000Z</time>
      </trkpt>
      <trkpt lat="44.79668" lon="0.83251">
        <ele>201.4</ele>
        <time>2026-05-02T11:17:59.000Z</time>
      </trkpt>
      <trkpt lat="44.79668" lon="0.83251">
        <ele>201.4</ele>
        <time>2026-05-02T11:18:00.000Z</time>
      </trkpt>
      <trkpt lat="44.79668" lon="0.83251">
        <ele>201.4</ele>
        <time>2026-05-02T11:18:01.000Z</time>
      </trkpt>
      <trkpt lat="44.79668" lon="0.83251">
        <ele>201.4</ele>
        <time>2026-05-02T11:18:02.000Z</time>
      </trkpt>
      <trkpt lat="44.79668" lon="0.83251">
        <ele>201.4</ele>
        <time>2026-05-02T11:18:03.000Z</time>
      </trkpt>
      <trkpt lat="44.79668" lon="0.83251">
        <ele>201.4</ele>
        <time>2026-05-02T11:18:04.000Z</time>
      </trkpt>
      <trkpt lat="44.79668" lon="0.83251">
        <ele>201.4</ele>
        <time>2026-05-02T11:18:05.000Z</time>
      </trkpt>
      <trkpt lat="44.79668" lon="0.83251">
        <ele>201.5</ele>
        <time>2026-05-02T11:18:06.000Z</time>
      </trkpt>
      <trkpt lat="44.79668" lon="0.83251">
        <ele>201.5</ele>
        <time>2026-05-02T11:18:07.000Z</time>
      </trkpt>
      <trkpt lat="44.79668" lon="0.83251">
        <ele>201.5</ele>
        <time>2026-05-02T11:18:08.000Z</time>
      </trkpt>
      <trkpt lat="44.79668" lon="0.83251">
        <ele>201.5</ele>
        <time>2026-05-02T11:18:09.000Z</time>
      </trkpt>
      <trkpt lat="44.79668" lon="0.83251">
        <ele>201.5</ele>
        <time>2026-05-02T11:18:10.000Z</time>
      </trkpt>
      <trkpt lat="44.79668" lon="0.83251">
        <ele>201.5</ele>
        <time>2026-05-02T11:18:11.000Z</time>
      </trkpt>
      <trkpt lat="44.79668" lon="0.83251">
        <ele>201.5</ele>
        <time>2026-05-02T11:18:12.000Z</time>
      </trkpt>
      <trkpt lat="44.79668" lon="0.83251">
        <ele>201.5</ele>
        <time>2026-05-02T11:18:13.000Z</time>
      </trkpt>
      <trkpt lat="44.79668" lon="0.83251">
        <ele>201.5</ele>
        <time>2026-05-02T11:18:14.000Z</time>
      </trkpt>
      <trkpt lat="44.79668" lon="0.83251">
        <ele>201.5</ele>
        <time>2026-05-02T11:18:15.000Z</time>
      </trkpt>
      <trkpt lat="44.79668" lon="0.83251">
        <ele>201.5</ele>
        <time>2026-05-02T11:18:16.000Z</time>
      </trkpt>
      <trkpt lat="44.79668" lon="0.83251">
        <ele>201.5</ele>
        <time>2026-05-02T11:18:17.000Z</time>
      </trkpt>
      <trkpt lat="44.79668" lon="0.83251">
        <ele>201.5</ele>
        <time>2026-05-02T11:18:18.000Z</time>
      </trkpt>
      <trkpt lat="44.79668" lon="0.83251">
        <ele>201.5</ele>
        <time>2026-05-02T11:18:19.000Z</time>
      </trkpt>
      <trkpt lat="44.79668" lon="0.83251">
        <ele>201.5</ele>
        <time>2026-05-02T11:18:20.000Z</time>
      </trkpt>
      <trkpt lat="44.79668" lon="0.83251">
        <ele>201.5</ele>
        <time>2026-05-02T11:18:21.000Z</time>
      </trkpt>
      <trkpt lat="44.79668" lon="0.83251">
        <ele>201.6</ele>
        <time>2026-05-02T11:18:22.000Z</time>
      </trkpt>
      <trkpt lat="44.79668" lon="0.83251">
        <ele>201.6</ele>
        <time>2026-05-02T11:18:23.000Z</time>
      </trkpt>
      <trkpt lat="44.79668" lon="0.83251">
        <ele>201.6</ele>
        <time>2026-05-02T11:18:24.000Z</time>
      </trkpt>
      <trkpt lat="44.79668" lon="0.83251">
        <ele>201.6</ele>
        <time>2026-05-02T11:18:25.000Z</time>
      </trkpt>
      <trkpt lat="44.79668" lon="0.83251">
        <ele>201.6</ele>
        <time>2026-05-02T11:18:26.000Z</time>
      </trkpt>
      <trkpt lat="44.79668" lon="0.83251">
        <ele>201.6</ele>
        <time>2026-05-02T11:18:27.000Z</time>
      </trkpt>
      <trkpt lat="44.79668" lon="0.83251">
        <ele>201.6</ele>
        <time>2026-05-02T11:18:28.000Z</time>
      </trkpt>
      <trkpt lat="44.79668" lon="0.83251">
        <ele>201.9</ele>
        <time>2026-05-02T11:18:29.000Z</time>
      </trkpt>
      <trkpt lat="44.79667" lon="0.83252">
        <ele>201.6</ele>
        <time>2026-05-02T11:18:30.000Z</time>
      </trkpt>
      <trkpt lat="44.79667" lon="0.83252">
        <ele>201.1</ele>
        <time>2026-05-02T11:18:31.000Z</time>
      </trkpt>
      <trkpt lat="44.79667" lon="0.83252">
        <ele>201.1</ele>
        <time>2026-05-02T11:18:32.000Z</time>
      </trkpt>
      <trkpt lat="44.79667" lon="0.83252">
        <ele>201.2</ele>
        <time>2026-05-02T11:18:33.000Z</time>
      </trkpt>
      <trkpt lat="44.79667" lon="0.83252">
        <ele>201.2</ele>
        <time>2026-05-02T11:18:34.000Z</time>
      </trkpt>
      <trkpt lat="44.79667" lon="0.83252">
        <ele>201.2</ele>
        <time>2026-05-02T11:18:35.000Z</time>
      </trkpt>
      <trkpt lat="44.79667" lon="0.83252">
        <ele>201.2</ele>
        <time>2026-05-02T11:18:36.000Z</time>
      </trkpt>
      <trkpt lat="44.79667" lon="0.83252">
        <ele>201.2</ele>
        <time>2026-05-02T11:18:37.000Z</time>
      </trkpt>
      <trkpt lat="44.79667" lon="0.83252">
        <ele>201.2</ele>
        <time>2026-05-02T11:18:38.000Z</time>
      </trkpt>
      <trkpt lat="44.79667" lon="0.83252">
        <ele>201.2</ele>
        <time>2026-05-02T11:18:39.000Z</time>
      </trkpt>
      <trkpt lat="44.79667" lon="0.83252">
        <ele>201.2</ele>
        <time>2026-05-02T11:18:40.000Z</time>
      </trkpt>
      <trkpt lat="44.79667" lon="0.83252">
        <ele>201.2</ele>
        <time>2026-05-02T11:18:41.000Z</time>
      </trkpt>
      <trkpt lat="44.79667" lon="0.83252">
        <ele>201.2</ele>
        <time>2026-05-02T11:18:42.000Z</time>
      </trkpt>
      <trkpt lat="44.79667" lon="0.83252">
        <ele>201.2</ele>
        <time>2026-05-02T11:18:43.000Z</time>
      </trkpt>
      <trkpt lat="44.79667" lon="0.83253">
        <ele>201.2</ele>
        <time>2026-05-02T11:18:44.000Z</time>
      </trkpt>
      <trkpt lat="44.79667" lon="0.83253">
        <ele>201.2</ele>
        <time>2026-05-02T11:18:45.000Z</time>
      </trkpt>
      <trkpt lat="44.79667" lon="0.83253">
        <ele>201.2</ele>
        <time>2026-05-02T11:18:46.000Z</time>
      </trkpt>
      <trkpt lat="44.79667" lon="0.83253">
        <ele>201.2</ele>
        <time>2026-05-02T11:18:47.000Z</time>
      </trkpt>
      <trkpt lat="44.79667" lon="0.83253">
        <ele>201.2</ele>
        <time>2026-05-02T11:18:48.000Z</time>
      </trkpt>
      <trkpt lat="44.79667" lon="0.83253">
        <ele>201.2</ele>
        <time>2026-05-02T11:18:49.000Z</time>
      </trkpt>
      <trkpt lat="44.79667" lon="0.83253">
        <ele>201.2</ele>
        <time>2026-05-02T11:18:50.000Z</time>
      </trkpt>
      <trkpt lat="44.79667" lon="0.83253">
        <ele>201.2</ele>
        <time>2026-05-02T11:18:51.000Z</time>
      </trkpt>
      <trkpt lat="44.79667" lon="0.83253">
        <ele>201.2</ele>
        <time>2026-05-02T11:18:52.000Z</time>
      </trkpt>
      <trkpt lat="44.79667" lon="0.83253">
        <ele>201.2</ele>
        <time>2026-05-02T11:18:53.000Z</time>
      </trkpt>
      <trkpt lat="44.79667" lon="0.83253">
        <ele>201.2</ele>
        <time>2026-05-02T11:18:54.000Z</time>
      </trkpt>
      <trkpt lat="44.79667" lon="0.83253">
        <ele>201.2</ele>
        <time>2026-05-02T11:18:55.000Z</time>
      </trkpt>
      <trkpt lat="44.79667" lon="0.83253">
        <ele>201.2</ele>
        <time>2026-05-02T11:18:56.000Z</time>
      </trkpt>
      <trkpt lat="44.79667" lon="0.83253">
        <ele>201.2</ele>
        <time>2026-05-02T11:18:57.000Z</time>
      </trkpt>
      <trkpt lat="44.79667" lon="0.83253">
        <ele>201.2</ele>
        <time>2026-05-02T11:18:58.000Z</time>
      </trkpt>
      <trkpt lat="44.79667" lon="0.83253">
        <ele>201.2</ele>
        <time>2026-05-02T11:18:59.000Z</time>
      </trkpt>
      <trkpt lat="44.79667" lon="0.83253">
        <ele>201.2</ele>
        <time>2026-05-02T11:19:00.000Z</time>
      </trkpt>
      <trkpt lat="44.79666" lon="0.83253">
        <ele>201.2</ele>
        <time>2026-05-02T11:19:01.000Z</time>
      </trkpt>
      <trkpt lat="44.79666" lon="0.83253">
        <ele>201.2</ele>
        <time>2026-05-02T11:19:02.000Z</time>
      </trkpt>
      <trkpt lat="44.79666" lon="0.83253">
        <ele>201.2</ele>
        <time>2026-05-02T11:19:03.000Z</time>
      </trkpt>
      <trkpt lat="44.79666" lon="0.83253">
        <ele>201.2</ele>
        <time>2026-05-02T11:19:04.000Z</time>
      </trkpt>
      <trkpt lat="44.79666" lon="0.83253">
        <ele>201.2</ele>
        <time>2026-05-02T11:19:05.000Z</time>
      </trkpt>
      <trkpt lat="44.79666" lon="0.83253">
        <ele>201.2</ele>
        <time>2026-05-02T11:19:06.000Z</time>
      </trkpt>
      <trkpt lat="44.79666" lon="0.83253">
        <ele>201.2</ele>
        <time>2026-05-02T11:19:07.000Z</time>
      </trkpt>
      <trkpt lat="44.79666" lon="0.83253">
        <ele>201.2</ele>
        <time>2026-05-02T11:19:08.000Z</time>
      </trkpt>
      <trkpt lat="44.79666" lon="0.83253">
        <ele>201.2</ele>
        <time>2026-05-02T11:19:09.000Z</time>
      </trkpt>
      <trkpt lat="44.79666" lon="0.83253">
        <ele>200.9</ele>
        <time>2026-05-02T11:19:10.000Z</time>
      </trkpt>
      <trkpt lat="44.79666" lon="0.83253">
        <ele>200.9</ele>
        <time>2026-05-02T11:19:11.000Z</time>
      </trkpt>
      <trkpt lat="44.79666" lon="0.83253">
        <ele>200.9</ele>
        <time>2026-05-02T11:19:12.000Z</time>
      </trkpt>
      <trkpt lat="44.79666" lon="0.83253">
        <ele>200.9</ele>
        <time>2026-05-02T11:19:13.000Z</time>
      </trkpt>
      <trkpt lat="44.79666" lon="0.83253">
        <ele>200.9</ele>
        <time>2026-05-02T11:19:14.000Z</time>
      </trkpt>
      <trkpt lat="44.79666" lon="0.83253">
        <ele>200.9</ele>
        <time>2026-05-02T11:19:15.000Z</time>
      </trkpt>
      <trkpt lat="44.79666" lon="0.83253">
        <ele>200.9</ele>
        <time>2026-05-02T11:19:16.000Z</time>
      </trkpt>
      <trkpt lat="44.79666" lon="0.83253">
        <ele>200.9</ele>
        <time>2026-05-02T11:19:17.000Z</time>
      </trkpt>
      <trkpt lat="44.79666" lon="0.83253">
        <ele>200.9</ele>
        <time>2026-05-02T11:19:18.000Z</time>
      </trkpt>
      <trkpt lat="44.79666" lon="0.83253">
        <ele>200.9</ele>
        <time>2026-05-02T11:19:19.000Z</time>
      </trkpt>
      <trkpt lat="44.79666" lon="0.83253">
        <ele>200.9</ele>
        <time>2026-05-02T11:19:20.000Z</time>
      </trkpt>
      <trkpt lat="44.79666" lon="0.83253">
        <ele>200.9</ele>
        <time>2026-05-02T11:19:21.000Z</time>
      </trkpt>
      <trkpt lat="44.79666" lon="0.83253">
        <ele>200.9</ele>
        <time>2026-05-02T11:19:22.000Z</time>
      </trkpt>
      <trkpt lat="44.79666" lon="0.83253">
        <ele>200.9</ele>
        <time>2026-05-02T11:19:23.000Z</time>
      </trkpt>
      <trkpt lat="44.79666" lon="0.83253">
        <ele>200.9</ele>
        <time>2026-05-02T11:19:24.000Z</time>
      </trkpt>
      <trkpt lat="44.79666" lon="0.83253">
        <ele>200.9</ele>
        <time>2026-05-02T11:19:25.000Z</time>
      </trkpt>
      <trkpt lat="44.79666" lon="0.83253">
        <ele>200.9</ele>
        <time>2026-05-02T11:19:26.000Z</time>
      </trkpt>
      <trkpt lat="44.79666" lon="0.83253">
        <ele>200.9</ele>
        <time>2026-05-02T11:19:27.000Z</time>
      </trkpt>
      <trkpt lat="44.79666" lon="0.83253">
        <ele>200.9</ele>
        <time>2026-05-02T11:19:28.000Z</time>
      </trkpt>
      <trkpt lat="44.79666" lon="0.83253">
        <ele>200.9</ele>
        <time>2026-05-02T11:19:29.000Z</time>
      </trkpt>
      <trkpt lat="44.79666" lon="0.83253">
        <ele>200.9</ele>
        <time>2026-05-02T11:19:30.000Z</time>
      </trkpt>
      <trkpt lat="44.79666" lon="0.83253">
        <ele>200.9</ele>
        <time>2026-05-02T11:19:31.000Z</time>
      </trkpt>
      <trkpt lat="44.79666" lon="0.83253">
        <ele>200.9</ele>
        <time>2026-05-02T11:19:32.000Z</time>
      </trkpt>
      <trkpt lat="44.79666" lon="0.83253">
        <ele>200.7</ele>
        <time>2026-05-02T11:19:33.000Z</time>
      </trkpt>
      <trkpt lat="44.79666" lon="0.83253">
        <ele>200.7</ele>
        <time>2026-05-02T11:19:34.000Z</time>
      </trkpt>
      <trkpt lat="44.79666" lon="0.83253">
        <ele>200.7</ele>
        <time>2026-05-02T11:19:35.000Z</time>
      </trkpt>
      <trkpt lat="44.79666" lon="0.83253">
        <ele>200.7</ele>
        <time>2026-05-02T11:19:36.000Z</time>
      </trkpt>
      <trkpt lat="44.79666" lon="0.83253">
        <ele>200.7</ele>
        <time>2026-05-02T11:19:37.000Z</time>
      </trkpt>
      <trkpt lat="44.79666" lon="0.83253">
        <ele>200.7</ele>
        <time>2026-05-02T11:19:38.000Z</time>
      </trkpt>
      <trkpt lat="44.79666" lon="0.83253">
        <ele>200.7</ele>
        <time>2026-05-02T11:19:39.000Z</time>
      </trkpt>
      <trkpt lat="44.79666" lon="0.83253">
        <ele>200.7</ele>
        <time>2026-05-02T11:19:40.000Z</time>
      </trkpt>
      <trkpt lat="44.79666" lon="0.83253">
        <ele>200.7</ele>
        <time>2026-05-02T11:19:41.000Z</time>
      </trkpt>
      <trkpt lat="44.79666" lon="0.83253">
        <ele>200.8</ele>
        <time>2026-05-02T11:19:42.000Z</time>
      </trkpt>
      <trkpt lat="44.79666" lon="0.83253">
        <ele>200.8</ele>
        <time>2026-05-02T11:19:43.000Z</time>
      </trkpt>
      <trkpt lat="44.79666" lon="0.83253">
        <ele>200.8</ele>
        <time>2026-05-02T11:19:44.000Z</time>
      </trkpt>
      <trkpt lat="44.79666" lon="0.83253">
        <ele>200.8</ele>
        <time>2026-05-02T11:19:45.000Z</time>
      </trkpt>
      <trkpt lat="44.79666" lon="0.83253">
        <ele>200.8</ele>
        <time>2026-05-02T11:19:46.000Z</time>
      </trkpt>
      <trkpt lat="44.79666" lon="0.83253">
        <ele>200.8</ele>
        <time>2026-05-02T11:19:47.000Z</time>
      </trkpt>
      <trkpt lat="44.79666" lon="0.83253">
        <ele>200.8</ele>
        <time>2026-05-02T11:19:48.000Z</time>
      </trkpt>
      <trkpt lat="44.79666" lon="0.83253">
        <ele>200.8</ele>
        <time>2026-05-02T11:19:49.000Z</time>
      </trkpt>
      <trkpt lat="44.79666" lon="0.83253">
        <ele>200.8</ele>
        <time>2026-05-02T11:19:50.000Z</time>
      </trkpt>
      <trkpt lat="44.79666" lon="0.83253">
        <ele>200.8</ele>
        <time>2026-05-02T11:19:51.000Z</time>
      </trkpt>
      <trkpt lat="44.79666" lon="0.83253">
        <ele>200.8</ele>
        <time>2026-05-02T11:19:52.000Z</time>
      </trkpt>
      <trkpt lat="44.79666" lon="0.83253">
        <ele>200.8</ele>
        <time>2026-05-02T11:19:53.000Z</time>
      </trkpt>
      <trkpt lat="44.79666" lon="0.83253">
        <ele>200.8</ele>
        <time>2026-05-02T11:19:54.000Z</time>
      </trkpt>
      <trkpt lat="44.79666" lon="0.83253">
        <ele>200.8</ele>
        <time>2026-05-02T11:19:55.000Z</time>
      </trkpt>
      <trkpt lat="44.79666" lon="0.83253">
        <ele>200.8</ele>
        <time>2026-05-02T11:19:56.000Z</time>
      </trkpt>
      <trkpt lat="44.79666" lon="0.83253">
        <ele>200.8</ele>
        <time>2026-05-02T11:19:57.000Z</time>
      </trkpt>
      <trkpt lat="44.79666" lon="0.83253">
        <ele>200.8</ele>
        <time>2026-05-02T11:19:58.000Z</time>
      </trkpt>
      <trkpt lat="44.79666" lon="0.83253">
        <ele>200.9</ele>
        <time>2026-05-02T11:19:59.000Z</time>
      </trkpt>
      <trkpt lat="44.79666" lon="0.83253">
        <ele>200.9</ele>
        <time>2026-05-02T11:20:00.000Z</time>
      </trkpt>
      <trkpt lat="44.79666" lon="0.83253">
        <ele>200.9</ele>
        <time>2026-05-02T11:20:01.000Z</time>
      </trkpt>
      <trkpt lat="44.79666" lon="0.83253">
        <ele>200.9</ele>
        <time>2026-05-02T11:20:02.000Z</time>
      </trkpt>
      <trkpt lat="44.79666" lon="0.83253">
        <ele>200.9</ele>
        <time>2026-05-02T11:20:03.000Z</time>
      </trkpt>
      <trkpt lat="44.79666" lon="0.83253">
        <ele>200.9</ele>
        <time>2026-05-02T11:20:04.000Z</time>
      </trkpt>
      <trkpt lat="44.79666" lon="0.83253">
        <ele>200.9</ele>
        <time>2026-05-02T11:20:05.000Z</time>
      </trkpt>
      <trkpt lat="44.79666" lon="0.83253">
        <ele>200.9</ele>
        <time>2026-05-02T11:20:06.000Z</time>
      </trkpt>
      <trkpt lat="44.79666" lon="0.83253">
        <ele>200.9</ele>
        <time>2026-05-02T11:20:07.000Z</time>
      </trkpt>
      <trkpt lat="44.79666" lon="0.83253">
        <ele>200.9</ele>
        <time>2026-05-02T11:20:08.000Z</time>
      </trkpt>
      <trkpt lat="44.79666" lon="0.83253">
        <ele>200.9</ele>
        <time>2026-05-02T11:20:09.000Z</time>
      </trkpt>
      <trkpt lat="44.79666" lon="0.83253">
        <ele>200.9</ele>
        <time>2026-05-02T11:20:10.000Z</time>
      </trkpt>
      <trkpt lat="44.79666" lon="0.83253">
        <ele>200.9</ele>
        <time>2026-05-02T11:20:11.000Z</time>
      </trkpt>
      <trkpt lat="44.79666" lon="0.83253">
        <ele>200.9</ele>
        <time>2026-05-02T11:20:12.000Z</time>
      </trkpt>
      <trkpt lat="44.79666" lon="0.83253">
        <ele>200.9</ele>
        <time>2026-05-02T11:20:13.000Z</time>
      </trkpt>
      <trkpt lat="44.79666" lon="0.83253">
        <ele>200.9</ele>
        <time>2026-05-02T11:20:14.000Z</time>
      </trkpt>
      <trkpt lat="44.79666" lon="0.83253">
        <ele>200.9</ele>
        <time>2026-05-02T11:20:15.000Z</time>
      </trkpt>
      <trkpt lat="44.79666" lon="0.83253">
        <ele>200.9</ele>
        <time>2026-05-02T11:20:16.000Z</time>
      </trkpt>
      <trkpt lat="44.79666" lon="0.83253">
        <ele>200.9</ele>
        <time>2026-05-02T11:20:17.000Z</time>
      </trkpt>
      <trkpt lat="44.79666" lon="0.83253">
        <ele>200.9</ele>
        <time>2026-05-02T11:20:18.000Z</time>
      </trkpt>
      <trkpt lat="44.79666" lon="0.83253">
        <ele>200.9</ele>
        <time>2026-05-02T11:20:19.000Z</time>
      </trkpt>
      <trkpt lat="44.79666" lon="0.83253">
        <ele>200.9</ele>
        <time>2026-05-02T11:20:20.000Z</time>
      </trkpt>
      <trkpt lat="44.79666" lon="0.83253">
        <ele>200.9</ele>
        <time>2026-05-02T11:20:21.000Z</time>
      </trkpt>
      <trkpt lat="44.79666" lon="0.83253">
        <ele>200.9</ele>
        <time>2026-05-02T11:20:22.000Z</time>
      </trkpt>
      <trkpt lat="44.79666" lon="0.83253">
        <ele>200.9</ele>
        <time>2026-05-02T11:20:23.000Z</time>
      </trkpt>
      <trkpt lat="44.79666" lon="0.83253">
        <ele>200.9</ele>
        <time>2026-05-02T11:20:24.000Z</time>
      </trkpt>
      <trkpt lat="44.79666" lon="0.83253">
        <ele>200.9</ele>
        <time>2026-05-02T11:20:25.000Z</time>
      </trkpt>
      <trkpt lat="44.79666" lon="0.83253">
        <ele>200.9</ele>
        <time>2026-05-02T11:20:26.000Z</time>
      </trkpt>
      <trkpt lat="44.79666" lon="0.83253">
        <ele>200.9</ele>
        <time>2026-05-02T11:20:27.000Z</time>
      </trkpt>
      <trkpt lat="44.79666" lon="0.83253">
        <ele>200.9</ele>
        <time>2026-05-02T11:20:28.000Z</time>
      </trkpt>
      <trkpt lat="44.79666" lon="0.83253">
        <ele>200.9</ele>
        <time>2026-05-02T11:20:29.000Z</time>
      </trkpt>
      <trkpt lat="44.79666" lon="0.83253">
        <ele>200.9</ele>
        <time>2026-05-02T11:20:30.000Z</time>
      </trkpt>
      <trkpt lat="44.79666" lon="0.83253">
        <ele>200.9</ele>
        <time>2026-05-02T11:20:31.000Z</time>
      </trkpt>
      <trkpt lat="44.79666" lon="0.83253">
        <ele>200.9</ele>
        <time>2026-05-02T11:20:32.000Z</time>
      </trkpt>
      <trkpt lat="44.79666" lon="0.83253">
        <ele>200.9</ele>
        <time>2026-05-02T11:20:33.000Z</time>
      </trkpt>
      <trkpt lat="44.79666" lon="0.83253">
        <ele>200.9</ele>
        <time>2026-05-02T11:20:34.000Z</time>
      </trkpt>
      <trkpt lat="44.79666" lon="0.83253">
        <ele>200.9</ele>
        <time>2026-05-02T11:20:35.000Z</time>
      </trkpt>
      <trkpt lat="44.79666" lon="0.83253">
        <ele>200.9</ele>
        <time>2026-05-02T11:20:36.000Z</time>
      </trkpt>
      <trkpt lat="44.79666" lon="0.83253">
        <ele>200.9</ele>
        <time>2026-05-02T11:20:37.000Z</time>
      </trkpt>
      <trkpt lat="44.79666" lon="0.83253">
        <ele>200.9</ele>
        <time>2026-05-02T11:20:38.000Z</time>
      </trkpt>
      <trkpt lat="44.79666" lon="0.83253">
        <ele>200.9</ele>
        <time>2026-05-02T11:20:39.000Z</time>
      </trkpt>
      <trkpt lat="44.79666" lon="0.83253">
        <ele>200.9</ele>
        <time>2026-05-02T11:20:40.000Z</time>
      </trkpt>
      <trkpt lat="44.79666" lon="0.83253">
        <ele>200.9</ele>
        <time>2026-05-02T11:20:41.000Z</time>
      </trkpt>
      <trkpt lat="44.79666" lon="0.83253">
        <ele>200.9</ele>
        <time>2026-05-02T11:20:42.000Z</time>
      </trkpt>
      <trkpt lat="44.79666" lon="0.83253">
        <ele>200.9</ele>
        <time>2026-05-02T11:20:43.000Z</time>
      </trkpt>
      <trkpt lat="44.79666" lon="0.83253">
        <ele>200.9</ele>
        <time>2026-05-02T11:20:44.000Z</time>
      </trkpt>
      <trkpt lat="44.79666" lon="0.83253">
        <ele>200.9</ele>
        <time>2026-05-02T11:20:45.000Z</time>
      </trkpt>
      <trkpt lat="44.79666" lon="0.83253">
        <ele>200.9</ele>
        <time>2026-05-02T11:20:46.000Z</time>
      </trkpt>
      <trkpt lat="44.79666" lon="0.83253">
        <ele>200.9</ele>
        <time>2026-05-02T11:20:47.000Z</time>
      </trkpt>
      <trkpt lat="44.79666" lon="0.83253">
        <ele>200.9</ele>
        <time>2026-05-02T11:20:48.000Z</time>
      </trkpt>
      <trkpt lat="44.79666" lon="0.83253">
        <ele>200.9</ele>
        <time>2026-05-02T11:20:49.000Z</time>
      </trkpt>
      <trkpt lat="44.79666" lon="0.83253">
        <ele>200.9</ele>
        <time>2026-05-02T11:20:50.000Z</time>
      </trkpt>
      <trkpt lat="44.79666" lon="0.83253">
        <ele>200.9</ele>
        <time>2026-05-02T11:20:51.000Z</time>
      </trkpt>
      <trkpt lat="44.79666" lon="0.83253">
        <ele>200.9</ele>
        <time>2026-05-02T11:20:52.000Z</time>
      </trkpt>
      <trkpt lat="44.79666" lon="0.83253">
        <ele>200.9</ele>
        <time>2026-05-02T11:20:53.000Z</time>
      </trkpt>
      <trkpt lat="44.79666" lon="0.83253">
        <ele>200.9</ele>
        <time>2026-05-02T11:20:54.000Z</time>
      </trkpt>
      <trkpt lat="44.79666" lon="0.83253">
        <ele>200.9</ele>
        <time>2026-05-02T11:20:55.000Z</time>
      </trkpt>
      <trkpt lat="44.79666" lon="0.83253">
        <ele>200.9</ele>
        <time>2026-05-02T11:20:56.000Z</time>
      </trkpt>
      <trkpt lat="44.79666" lon="0.83253">
        <ele>200.9</ele>
        <time>2026-05-02T11:20:57.000Z</time>
      </trkpt>
      <trkpt lat="44.79666" lon="0.83253">
        <ele>200.9</ele>
        <time>2026-05-02T11:20:58.000Z</time>
      </trkpt>
      <trkpt lat="44.79666" lon="0.83253">
        <ele>200.9</ele>
        <time>2026-05-02T11:20:59.000Z</time>
      </trkpt>
      <trkpt lat="44.79666" lon="0.83253">
        <ele>200.9</ele>
        <time>2026-05-02T11:21:00.000Z</time>
      </trkpt>
      <trkpt lat="44.79666" lon="0.83253">
        <ele>200.9</ele>
        <time>2026-05-02T11:21:01.000Z</time>
      </trkpt>
      <trkpt lat="44.79666" lon="0.83253">
        <ele>200.9</ele>
        <time>2026-05-02T11:21:02.000Z</time>
      </trkpt>
      <trkpt lat="44.79666" lon="0.83253">
        <ele>200.9</ele>
        <time>2026-05-02T11:21:03.000Z</time>
      </trkpt>
      <trkpt lat="44.79666" lon="0.83253">
        <ele>200.9</ele>
        <time>2026-05-02T11:21:04.000Z</time>
      </trkpt>
      <trkpt lat="44.79666" lon="0.83253">
        <ele>200.9</ele>
        <time>2026-05-02T11:21:05.000Z</time>
      </trkpt>
      <trkpt lat="44.79666" lon="0.83253">
        <ele>200.9</ele>
        <time>2026-05-02T11:21:06.000Z</time>
      </trkpt>
      <trkpt lat="44.79666" lon="0.83253">
        <ele>200.9</ele>
        <time>2026-05-02T11:21:07.000Z</time>
      </trkpt>
      <trkpt lat="44.79666" lon="0.83253">
        <ele>200.9</ele>
        <time>2026-05-02T11:21:08.000Z</time>
      </trkpt>
      <trkpt lat="44.79666" lon="0.83253">
        <ele>200.9</ele>
        <time>2026-05-02T11:21:09.000Z</time>
      </trkpt>
      <trkpt lat="44.79666" lon="0.83253">
        <ele>200.9</ele>
        <time>2026-05-02T11:21:10.000Z</time>
      </trkpt>
      <trkpt lat="44.79666" lon="0.83253">
        <ele>200.9</ele>
        <time>2026-05-02T11:21:11.000Z</time>
      </trkpt>
      <trkpt lat="44.79666" lon="0.83253">
        <ele>200.9</ele>
        <time>2026-05-02T11:21:12.000Z</time>
      </trkpt>
      <trkpt lat="44.79666" lon="0.83253">
        <ele>200.9</ele>
        <time>2026-05-02T11:21:13.000Z</time>
      </trkpt>
      <trkpt lat="44.79666" lon="0.83253">
        <ele>200.9</ele>
        <time>2026-05-02T11:21:14.000Z</time>
      </trkpt>
      <trkpt lat="44.79666" lon="0.83253">
        <ele>200.9</ele>
        <time>2026-05-02T11:21:15.000Z</time>
      </trkpt>
      <trkpt lat="44.79666" lon="0.83253">
        <ele>200.9</ele>
        <time>2026-05-02T11:21:16.000Z</time>
      </trkpt>
      <trkpt lat="44.79666" lon="0.83253">
        <ele>200.9</ele>
        <time>2026-05-02T11:21:17.000Z</time>
      </trkpt>
      <trkpt lat="44.79666" lon="0.83253">
        <ele>200.9</ele>
        <time>2026-05-02T11:21:18.000Z</time>
      </trkpt>
      <trkpt lat="44.79666" lon="0.83253">
        <ele>200.9</ele>
        <time>2026-05-02T11:21:19.000Z</time>
      </trkpt>
      <trkpt lat="44.79666" lon="0.83253">
        <ele>200.9</ele>
        <time>2026-05-02T11:21:20.000Z</time>
      </trkpt>
      <trkpt lat="44.79666" lon="0.83253">
        <ele>200.9</ele>
        <time>2026-05-02T11:21:21.000Z</time>
      </trkpt>
      <trkpt lat="44.79666" lon="0.83253">
        <ele>200.9</ele>
        <time>2026-05-02T11:21:22.000Z</time>
      </trkpt>
      <trkpt lat="44.79666" lon="0.83253">
        <ele>200.9</ele>
        <time>2026-05-02T11:21:23.000Z</time>
      </trkpt>
      <trkpt lat="44.79666" lon="0.83253">
        <ele>200.9</ele>
        <time>2026-05-02T11:21:24.000Z</time>
      </trkpt>
      <trkpt lat="44.79666" lon="0.83253">
        <ele>200.9</ele>
        <time>2026-05-02T11:21:25.000Z</time>
      </trkpt>
      <trkpt lat="44.79666" lon="0.83253">
        <ele>200.9</ele>
        <time>2026-05-02T11:21:26.000Z</time>
      </trkpt>
      <trkpt lat="44.79666" lon="0.83253">
        <ele>200.9</ele>
        <time>2026-05-02T11:21:27.000Z</time>
      </trkpt>
      <trkpt lat="44.79666" lon="0.83253">
        <ele>200.9</ele>
        <time>2026-05-02T11:21:28.000Z</time>
      </trkpt>
      <trkpt lat="44.79666" lon="0.83253">
        <ele>200.9</ele>
        <time>2026-05-02T11:21:29.000Z</time>
      </trkpt>
      <trkpt lat="44.79666" lon="0.83253">
        <ele>200.9</ele>
        <time>2026-05-02T11:21:30.000Z</time>
      </trkpt>
      <trkpt lat="44.79666" lon="0.83253">
        <ele>200.9</ele>
        <time>2026-05-02T11:21:31.000Z</time>
      </trkpt>
      <trkpt lat="44.79666" lon="0.83253">
        <ele>200.9</ele>
        <time>2026-05-02T11:21:32.000Z</time>
      </trkpt>
      <trkpt lat="44.79666" lon="0.83253">
        <ele>200.9</ele>
        <time>2026-05-02T11:21:33.000Z</time>
      </trkpt>
      <trkpt lat="44.79666" lon="0.83253">
        <ele>200.9</ele>
        <time>2026-05-02T11:21:34.000Z</time>
      </trkpt>
      <trkpt lat="44.79666" lon="0.83253">
        <ele>200.9</ele>
        <time>2026-05-02T11:21:35.000Z</time>
      </trkpt>
      <trkpt lat="44.79666" lon="0.83253">
        <ele>200.9</ele>
        <time>2026-05-02T11:21:36.000Z</time>
      </trkpt>
      <trkpt lat="44.79666" lon="0.83253">
        <ele>200.9</ele>
        <time>2026-05-02T11:21:37.000Z</time>
      </trkpt>
      <trkpt lat="44.79666" lon="0.83253">
        <ele>200.9</ele>
        <time>2026-05-02T11:21:38.000Z</time>
      </trkpt>
      <trkpt lat="44.79666" lon="0.83253">
        <ele>200.9</ele>
        <time>2026-05-02T11:21:39.000Z</time>
      </trkpt>
      <trkpt lat="44.79666" lon="0.83253">
        <ele>200.9</ele>
        <time>2026-05-02T11:21:40.000Z</time>
      </trkpt>
      <trkpt lat="44.79666" lon="0.83253">
        <ele>200.9</ele>
        <time>2026-05-02T11:21:41.000Z</time>
      </trkpt>
      <trkpt lat="44.79666" lon="0.83253">
        <ele>200.9</ele>
        <time>2026-05-02T11:21:42.000Z</time>
      </trkpt>
      <trkpt lat="44.79666" lon="0.83253">
        <ele>200.9</ele>
        <time>2026-05-02T11:21:43.000Z</time>
      </trkpt>
      <trkpt lat="44.79666" lon="0.83253">
        <ele>200.9</ele>
        <time>2026-05-02T11:21:44.000Z</time>
      </trkpt>
      <trkpt lat="44.79666" lon="0.83253">
        <ele>200.9</ele>
        <time>2026-05-02T11:21:45.000Z</time>
      </trkpt>
      <trkpt lat="44.79666" lon="0.83253">
        <ele>200.9</ele>
        <time>2026-05-02T11:21:46.000Z</time>
      </trkpt>
      <trkpt lat="44.79666" lon="0.83253">
        <ele>200.9</ele>
        <time>2026-05-02T11:21:47.000Z</time>
      </trkpt>
      <trkpt lat="44.79666" lon="0.83253">
        <ele>200.9</ele>
        <time>2026-05-02T11:21:48.000Z</time>
      </trkpt>
      <trkpt lat="44.79666" lon="0.83253">
        <ele>200.9</ele>
        <time>2026-05-02T11:21:49.000Z</time>
      </trkpt>
      <trkpt lat="44.79666" lon="0.83253">
        <ele>200.9</ele>
        <time>2026-05-02T11:21:50.000Z</time>
      </trkpt>
      <trkpt lat="44.79666" lon="0.83253">
        <ele>200.9</ele>
        <time>2026-05-02T11:21:51.000Z</time>
      </trkpt>
      <trkpt lat="44.79666" lon="0.83253">
        <ele>200.9</ele>
        <time>2026-05-02T11:21:52.000Z</time>
      </trkpt>
      <trkpt lat="44.79666" lon="0.83253">
        <ele>200.9</ele>
        <time>2026-05-02T11:21:53.000Z</time>
      </trkpt>
      <trkpt lat="44.79666" lon="0.83253">
        <ele>200.9</ele>
        <time>2026-05-02T11:21:54.000Z</time>
      </trkpt>
      <trkpt lat="44.79666" lon="0.83253">
        <ele>200.9</ele>
        <time>2026-05-02T11:21:55.000Z</time>
      </trkpt>
      <trkpt lat="44.79666" lon="0.83253">
        <ele>200.9</ele>
        <time>2026-05-02T11:21:56.000Z</time>
      </trkpt>
      <trkpt lat="44.79666" lon="0.83253">
        <ele>200.9</ele>
        <time>2026-05-02T11:21:57.000Z</time>
      </trkpt>
      <trkpt lat="44.79666" lon="0.83253">
        <ele>200.9</ele>
        <time>2026-05-02T11:21:58.000Z</time>
      </trkpt>
      <trkpt lat="44.79666" lon="0.83253">
        <ele>200.9</ele>
        <time>2026-05-02T11:21:59.000Z</time>
      </trkpt>
      <trkpt lat="44.79666" lon="0.83253">
        <ele>200.9</ele>
        <time>2026-05-02T11:22:00.000Z</time>
      </trkpt>
      <trkpt lat="44.79666" lon="0.83253">
        <ele>200.9</ele>
        <time>2026-05-02T11:22:01.000Z</time>
      </trkpt>
      <trkpt lat="44.79666" lon="0.83253">
        <ele>200.9</ele>
        <time>2026-05-02T11:22:02.000Z</time>
      </trkpt>
      <trkpt lat="44.79666" lon="0.83253">
        <ele>200.9</ele>
        <time>2026-05-02T11:22:03.000Z</time>
      </trkpt>
      <trkpt lat="44.79666" lon="0.83253">
        <ele>200.9</ele>
        <time>2026-05-02T11:22:04.000Z</time>
      </trkpt>
      <trkpt lat="44.79666" lon="0.83253">
        <ele>200.9</ele>
        <time>2026-05-02T11:22:05.000Z</time>
      </trkpt>
      <trkpt lat="44.79666" lon="0.83253">
        <ele>200.9</ele>
        <time>2026-05-02T11:22:06.000Z</time>
      </trkpt>
      <trkpt lat="44.79666" lon="0.83253">
        <ele>200.9</ele>
        <time>2026-05-02T11:22:07.000Z</time>
      </trkpt>
      <trkpt lat="44.79666" lon="0.83253">
        <ele>200.9</ele>
        <time>2026-05-02T11:22:08.000Z</time>
      </trkpt>
      <trkpt lat="44.79666" lon="0.83253">
        <ele>200.9</ele>
        <time>2026-05-02T11:22:09.000Z</time>
      </trkpt>
      <trkpt lat="44.79666" lon="0.83253">
        <ele>200.9</ele>
        <time>2026-05-02T11:22:10.000Z</time>
      </trkpt>
      <trkpt lat="44.79666" lon="0.83253">
        <ele>200.9</ele>
        <time>2026-05-02T11:22:11.000Z</time>
      </trkpt>
      <trkpt lat="44.79666" lon="0.83253">
        <ele>200.9</ele>
        <time>2026-05-02T11:22:12.000Z</time>
      </trkpt>
      <trkpt lat="44.79666" lon="0.83253">
        <ele>200.9</ele>
        <time>2026-05-02T11:22:13.000Z</time>
      </trkpt>
      <trkpt lat="44.79666" lon="0.83253">
        <ele>200.9</ele>
        <time>2026-05-02T11:22:14.000Z</time>
      </trkpt>
      <trkpt lat="44.79666" lon="0.83253">
        <ele>200.9</ele>
        <time>2026-05-02T11:22:15.000Z</time>
      </trkpt>
      <trkpt lat="44.79666" lon="0.83253">
        <ele>200.9</ele>
        <time>2026-05-02T11:22:16.000Z</time>
      </trkpt>
      <trkpt lat="44.79666" lon="0.83253">
        <ele>200.9</ele>
        <time>2026-05-02T11:22:17.000Z</time>
      </trkpt>
      <trkpt lat="44.79666" lon="0.83253">
        <ele>200.9</ele>
        <time>2026-05-02T11:22:18.000Z</time>
      </trkpt>
      <trkpt lat="44.79666" lon="0.83253">
        <ele>200.9</ele>
        <time>2026-05-02T11:22:19.000Z</time>
      </trkpt>
      <trkpt lat="44.79665" lon="0.83253">
        <ele>200.9</ele>
        <time>2026-05-02T11:22:20.000Z</time>
      </trkpt>
      <trkpt lat="44.79665" lon="0.83253">
        <ele>200.9</ele>
        <time>2026-05-02T11:22:21.000Z</time>
      </trkpt>
      <trkpt lat="44.79665" lon="0.83253">
        <ele>200.9</ele>
        <time>2026-05-02T11:22:22.000Z</time>
      </trkpt>
      <trkpt lat="44.79665" lon="0.83253">
        <ele>200.9</ele>
        <time>2026-05-02T11:22:23.000Z</time>
      </trkpt>
      <trkpt lat="44.79665" lon="0.83253">
        <ele>201</ele>
        <time>2026-05-02T11:22:24.000Z</time>
      </trkpt>
      <trkpt lat="44.79665" lon="0.83253">
        <ele>201</ele>
        <time>2026-05-02T11:22:25.000Z</time>
      </trkpt>
      <trkpt lat="44.79665" lon="0.83253">
        <ele>201</ele>
        <time>2026-05-02T11:22:26.000Z</time>
      </trkpt>
      <trkpt lat="44.79665" lon="0.83253">
        <ele>201</ele>
        <time>2026-05-02T11:22:27.000Z</time>
      </trkpt>
      <trkpt lat="44.79665" lon="0.83253">
        <ele>201</ele>
        <time>2026-05-02T11:22:28.000Z</time>
      </trkpt>
      <trkpt lat="44.79665" lon="0.83253">
        <ele>201</ele>
        <time>2026-05-02T11:22:29.000Z</time>
      </trkpt>
      <trkpt lat="44.79665" lon="0.83253">
        <ele>201</ele>
        <time>2026-05-02T11:22:30.000Z</time>
      </trkpt>
      <trkpt lat="44.79665" lon="0.83253">
        <ele>201</ele>
        <time>2026-05-02T11:22:31.000Z</time>
      </trkpt>
      <trkpt lat="44.79665" lon="0.83253">
        <ele>201</ele>
        <time>2026-05-02T11:22:32.000Z</time>
      </trkpt>
      <trkpt lat="44.79665" lon="0.83253">
        <ele>201</ele>
        <time>2026-05-02T11:22:33.000Z</time>
      </trkpt>
      <trkpt lat="44.79665" lon="0.83253">
        <ele>201</ele>
        <time>2026-05-02T11:22:34.000Z</time>
      </trkpt>
      <trkpt lat="44.79665" lon="0.83253">
        <ele>201</ele>
        <time>2026-05-02T11:22:35.000Z</time>
      </trkpt>
      <trkpt lat="44.79665" lon="0.83253">
        <ele>201</ele>
        <time>2026-05-02T11:22:36.000Z</time>
      </trkpt>
      <trkpt lat="44.79665" lon="0.83254">
        <ele>200.7</ele>
        <time>2026-05-02T11:22:37.000Z</time>
      </trkpt>
      <trkpt lat="44.79666" lon="0.83254">
        <ele>200.8</ele>
        <time>2026-05-02T11:22:38.000Z</time>
      </trkpt>
      <trkpt lat="44.79666" lon="0.83254">
        <ele>200.9</ele>
        <time>2026-05-02T11:22:39.000Z</time>
      </trkpt>
      <trkpt lat="44.79666" lon="0.83256">
        <ele>200.3</ele>
        <time>2026-05-02T11:22:40.000Z</time>
      </trkpt>
      <trkpt lat="44.79666" lon="0.83256">
        <ele>199.5</ele>
        <time>2026-05-02T11:22:41.000Z</time>
      </trkpt>
      <trkpt lat="44.79666" lon="0.83256">
        <ele>198.2</ele>
        <time>2026-05-02T11:22:42.000Z</time>
      </trkpt>
      <trkpt lat="44.79667" lon="0.83255">
        <ele>197.5</ele>
        <time>2026-05-02T11:22:43.000Z</time>
      </trkpt>
      <trkpt lat="44.79667" lon="0.83255">
        <ele>198.2</ele>
        <time>2026-05-02T11:22:44.000Z</time>
      </trkpt>
      <trkpt lat="44.79668" lon="0.83254">
        <ele>197.5</ele>
        <time>2026-05-02T11:22:45.000Z</time>
      </trkpt>
      <trkpt lat="44.79668" lon="0.83254">
        <ele>197.7</ele>
        <time>2026-05-02T11:22:46.000Z</time>
      </trkpt>
      <trkpt lat="44.79668" lon="0.83254">
        <ele>198</ele>
        <time>2026-05-02T11:22:47.000Z</time>
      </trkpt>
      <trkpt lat="44.79669" lon="0.83254">
        <ele>197.9</ele>
        <time>2026-05-02T11:22:48.000Z</time>
      </trkpt>
      <trkpt lat="44.79669" lon="0.83254">
        <ele>197.9</ele>
        <time>2026-05-02T11:22:49.000Z</time>
      </trkpt>
      <trkpt lat="44.79669" lon="0.83254">
        <ele>198</ele>
        <time>2026-05-02T11:22:50.000Z</time>
      </trkpt>
      <trkpt lat="44.79669" lon="0.83254">
        <ele>198.1</ele>
        <time>2026-05-02T11:22:51.000Z</time>
      </trkpt>
      <trkpt lat="44.79669" lon="0.83254">
        <ele>198.1</ele>
        <time>2026-05-02T11:22:52.000Z</time>
      </trkpt>
      <trkpt lat="44.79668" lon="0.83255">
        <ele>197.9</ele>
        <time>2026-05-02T11:22:53.000Z</time>
      </trkpt>
      <trkpt lat="44.79667" lon="0.83255">
        <ele>197.7</ele>
        <time>2026-05-02T11:22:54.000Z</time>
      </trkpt>
      <trkpt lat="44.79667" lon="0.83255">
        <ele>197.2</ele>
        <time>2026-05-02T11:22:55.000Z</time>
      </trkpt>
      <trkpt lat="44.79666" lon="0.83254">
        <ele>196.9</ele>
        <time>2026-05-02T11:22:56.000Z</time>
      </trkpt>
      <trkpt lat="44.79665" lon="0.83254">
        <ele>196.7</ele>
        <time>2026-05-02T11:22:57.000Z</time>
      </trkpt>
      <trkpt lat="44.79666" lon="0.83253">
        <ele>198.4</ele>
        <time>2026-05-02T11:22:58.000Z</time>
      </trkpt>
      <trkpt lat="44.79666" lon="0.83252">
        <ele>198.4</ele>
        <time>2026-05-02T11:22:59.000Z</time>
      </trkpt>
      <trkpt lat="44.79666" lon="0.83252">
        <ele>198.4</ele>
        <time>2026-05-02T11:23:00.000Z</time>
      </trkpt>
      <trkpt lat="44.79666" lon="0.83252">
        <ele>198.4</ele>
        <time>2026-05-02T11:23:01.000Z</time>
      </trkpt>
      <trkpt lat="44.79666" lon="0.83251">
        <ele>198.4</ele>
        <time>2026-05-02T11:23:02.000Z</time>
      </trkpt>
      <trkpt lat="44.79666" lon="0.83251">
        <ele>198.4</ele>
        <time>2026-05-02T11:23:03.000Z</time>
      </trkpt>
      <trkpt lat="44.79666" lon="0.83251">
        <ele>198.4</ele>
        <time>2026-05-02T11:23:04.000Z</time>
      </trkpt>
      <trkpt lat="44.79666" lon="0.83251">
        <ele>198.4</ele>
        <time>2026-05-02T11:23:05.000Z</time>
      </trkpt>
      <trkpt lat="44.79666" lon="0.83251">
        <ele>198.4</ele>
        <time>2026-05-02T11:23:06.000Z</time>
      </trkpt>
      <trkpt lat="44.79666" lon="0.83251">
        <ele>198.4</ele>
        <time>2026-05-02T11:23:07.000Z</time>
      </trkpt>
      <trkpt lat="44.79666" lon="0.83251">
        <ele>198.4</ele>
        <time>2026-05-02T11:23:08.000Z</time>
      </trkpt>
      <trkpt lat="44.79666" lon="0.83251">
        <ele>198.4</ele>
        <time>2026-05-02T11:23:09.000Z</time>
      </trkpt>
      <trkpt lat="44.79666" lon="0.83251">
        <ele>198.5</ele>
        <time>2026-05-02T11:23:10.000Z</time>
      </trkpt>
      <trkpt lat="44.79666" lon="0.83251">
        <ele>198.5</ele>
        <time>2026-05-02T11:23:11.000Z</time>
      </trkpt>
      <trkpt lat="44.79666" lon="0.83252">
        <ele>199.7</ele>
        <time>2026-05-02T11:23:12.000Z</time>
      </trkpt>
      <trkpt lat="44.79665" lon="0.83253">
        <ele>199.9</ele>
        <time>2026-05-02T11:23:13.000Z</time>
      </trkpt>
      <trkpt lat="44.79664" lon="0.83254">
        <ele>199.8</ele>
        <time>2026-05-02T11:23:14.000Z</time>
      </trkpt>
      <trkpt lat="44.79664" lon="0.83255">
        <ele>199.3</ele>
        <time>2026-05-02T11:23:15.000Z</time>
      </trkpt>
      <trkpt lat="44.79664" lon="0.83256">
        <ele>199.4</ele>
        <time>2026-05-02T11:23:16.000Z</time>
      </trkpt>
      <trkpt lat="44.79664" lon="0.83257">
        <ele>199.6</ele>
        <time>2026-05-02T11:23:17.000Z</time>
      </trkpt>
      <trkpt lat="44.79664" lon="0.83257">
        <ele>198.8</ele>
        <time>2026-05-02T11:23:18.000Z</time>
      </trkpt>
      <trkpt lat="44.79664" lon="0.83258">
        <ele>198.3</ele>
        <time>2026-05-02T11:23:19.000Z</time>
      </trkpt>
      <trkpt lat="44.79665" lon="0.83258">
        <ele>198.1</ele>
        <time>2026-05-02T11:23:20.000Z</time>
      </trkpt>
      <trkpt lat="44.79665" lon="0.83258">
        <ele>198.7</ele>
        <time>2026-05-02T11:23:21.000Z</time>
      </trkpt>
      <trkpt lat="44.79665" lon="0.83259">
        <ele>198.7</ele>
        <time>2026-05-02T11:23:22.000Z</time>
      </trkpt>
      <trkpt lat="44.79666" lon="0.83259">
        <ele>198.4</ele>
        <time>2026-05-02T11:23:23.000Z</time>
      </trkpt>
      <trkpt lat="44.79666" lon="0.83259">
        <ele>197.7</ele>
        <time>2026-05-02T11:23:24.000Z</time>
      </trkpt>
      <trkpt lat="44.79667" lon="0.83259">
        <ele>198.1</ele>
        <time>2026-05-02T11:23:25.000Z</time>
      </trkpt>
      <trkpt lat="44.79667" lon="0.83259">
        <ele>198.3</ele>
        <time>2026-05-02T11:23:26.000Z</time>
      </trkpt>
      <trkpt lat="44.79668" lon="0.8326">
        <ele>198.7</ele>
        <time>2026-05-02T11:23:27.000Z</time>
      </trkpt>
      <trkpt lat="44.79668" lon="0.8326">
        <ele>199.6</ele>
        <time>2026-05-02T11:23:28.000Z</time>
      </trkpt>
      <trkpt lat="44.79669" lon="0.83261">
        <ele>199.5</ele>
        <time>2026-05-02T11:23:29.000Z</time>
      </trkpt>
      <trkpt lat="44.79669" lon="0.8326">
        <ele>200.4</ele>
        <time>2026-05-02T11:23:30.000Z</time>
      </trkpt>
      <trkpt lat="44.7967" lon="0.8326">
        <ele>199.8</ele>
        <time>2026-05-02T11:23:31.000Z</time>
      </trkpt>
      <trkpt lat="44.79669" lon="0.83259">
        <ele>199.9</ele>
        <time>2026-05-02T11:23:32.000Z</time>
      </trkpt>
      <trkpt lat="44.79669" lon="0.83259">
        <ele>199.9</ele>
        <time>2026-05-02T11:23:33.000Z</time>
      </trkpt>
      <trkpt lat="44.79669" lon="0.83259">
        <ele>199.9</ele>
        <time>2026-05-02T11:23:34.000Z</time>
      </trkpt>
      <trkpt lat="44.79669" lon="0.83259">
        <ele>200</ele>
        <time>2026-05-02T11:23:35.000Z</time>
      </trkpt>
      <trkpt lat="44.79669" lon="0.83259">
        <ele>200</ele>
        <time>2026-05-02T11:23:36.000Z</time>
      </trkpt>
      <trkpt lat="44.79669" lon="0.83259">
        <ele>200</ele>
        <time>2026-05-02T11:23:37.000Z</time>
      </trkpt>
      <trkpt lat="44.79669" lon="0.83259">
        <ele>200</ele>
        <time>2026-05-02T11:23:38.000Z</time>
      </trkpt>
      <trkpt lat="44.79669" lon="0.83259">
        <ele>199.9</ele>
        <time>2026-05-02T11:23:39.000Z</time>
      </trkpt>
      <trkpt lat="44.79669" lon="0.83259">
        <ele>199.9</ele>
        <time>2026-05-02T11:23:40.000Z</time>
      </trkpt>
      <trkpt lat="44.79669" lon="0.83259">
        <ele>199.9</ele>
        <time>2026-05-02T11:23:41.000Z</time>
      </trkpt>
      <trkpt lat="44.79669" lon="0.83259">
        <ele>199.9</ele>
        <time>2026-05-02T11:23:42.000Z</time>
      </trkpt>
      <trkpt lat="44.79669" lon="0.83259">
        <ele>199.9</ele>
        <time>2026-05-02T11:23:43.000Z</time>
      </trkpt>
      <trkpt lat="44.79669" lon="0.83259">
        <ele>199.9</ele>
        <time>2026-05-02T11:23:44.000Z</time>
      </trkpt>
      <trkpt lat="44.79669" lon="0.83259">
        <ele>199.9</ele>
        <time>2026-05-02T11:23:45.000Z</time>
      </trkpt>
      <trkpt lat="44.79669" lon="0.83259">
        <ele>199.9</ele>
        <time>2026-05-02T11:23:46.000Z</time>
      </trkpt>
      <trkpt lat="44.79669" lon="0.83259">
        <ele>199.9</ele>
        <time>2026-05-02T11:23:47.000Z</time>
      </trkpt>
      <trkpt lat="44.79669" lon="0.83259">
        <ele>200.2</ele>
        <time>2026-05-02T11:23:48.000Z</time>
      </trkpt>
      <trkpt lat="44.79669" lon="0.83259">
        <ele>200.4</ele>
        <time>2026-05-02T11:23:49.000Z</time>
      </trkpt>
      <trkpt lat="44.79668" lon="0.8326">
        <ele>200.7</ele>
        <time>2026-05-02T11:23:50.000Z</time>
      </trkpt>
      <trkpt lat="44.79668" lon="0.83261">
        <ele>201.6</ele>
        <time>2026-05-02T11:23:51.000Z</time>
      </trkpt>
      <trkpt lat="44.79667" lon="0.83261">
        <ele>201.8</ele>
        <time>2026-05-02T11:23:52.000Z</time>
      </trkpt>
      <trkpt lat="44.79667" lon="0.83262">
        <ele>201.8</ele>
        <time>2026-05-02T11:23:53.000Z</time>
      </trkpt>
      <trkpt lat="44.79667" lon="0.83262">
        <ele>201.8</ele>
        <time>2026-05-02T11:23:54.000Z</time>
      </trkpt>
      <trkpt lat="44.79667" lon="0.83262">
        <ele>201.8</ele>
        <time>2026-05-02T11:23:55.000Z</time>
      </trkpt>
      <trkpt lat="44.79667" lon="0.83262">
        <ele>201.8</ele>
        <time>2026-05-02T11:23:56.000Z</time>
      </trkpt>
      <trkpt lat="44.79667" lon="0.83262">
        <ele>201.8</ele>
        <time>2026-05-02T11:23:57.000Z</time>
      </trkpt>
      <trkpt lat="44.79667" lon="0.83262">
        <ele>201.8</ele>
        <time>2026-05-02T11:23:58.000Z</time>
      </trkpt>
      <trkpt lat="44.79672" lon="0.83261">
        <ele>207.2</ele>
        <time>2026-05-02T11:43:37.000Z</time>
      </trkpt>
      <trkpt lat="44.79674" lon="0.83262">
        <ele>206.3</ele>
        <time>2026-05-02T11:43:38.000Z</time>
      </trkpt>
      <trkpt lat="44.79674" lon="0.83262">
        <ele>206.9</ele>
        <time>2026-05-02T11:43:39.000Z</time>
      </trkpt>
      <trkpt lat="44.79673" lon="0.83262">
        <ele>208.3</ele>
        <time>2026-05-02T11:43:40.000Z</time>
      </trkpt>
      <trkpt lat="44.79672" lon="0.83261">
        <ele>209.7</ele>
        <time>2026-05-02T11:43:41.000Z</time>
      </trkpt>
      <trkpt lat="44.79672" lon="0.83261">
        <ele>209.8</ele>
        <time>2026-05-02T11:43:42.000Z</time>
      </trkpt>
      <trkpt lat="44.79672" lon="0.83261">
        <ele>209.2</ele>
        <time>2026-05-02T11:43:43.000Z</time>
      </trkpt>
      <trkpt lat="44.79672" lon="0.83261">
        <ele>209.5</ele>
        <time>2026-05-02T11:43:44.000Z</time>
      </trkpt>
      <trkpt lat="44.79672" lon="0.83262">
        <ele>208.8</ele>
        <time>2026-05-02T11:43:45.000Z</time>
      </trkpt>
      <trkpt lat="44.79672" lon="0.83262">
        <ele>208.5</ele>
        <time>2026-05-02T11:43:46.000Z</time>
      </trkpt>
      <trkpt lat="44.79671" lon="0.83262">
        <ele>208.2</ele>
        <time>2026-05-02T11:43:47.000Z</time>
      </trkpt>
      <trkpt lat="44.79671" lon="0.83262">
        <ele>208.2</ele>
        <time>2026-05-02T11:43:48.000Z</time>
      </trkpt>
      <trkpt lat="44.79671" lon="0.83262">
        <ele>208.2</ele>
        <time>2026-05-02T11:43:49.000Z</time>
      </trkpt>
      <trkpt lat="44.79671" lon="0.83262">
        <ele>208.3</ele>
        <time>2026-05-02T11:43:50.000Z</time>
      </trkpt>
      <trkpt lat="44.79671" lon="0.83262">
        <ele>208.3</ele>
        <time>2026-05-02T11:43:51.000Z</time>
      </trkpt>
      <trkpt lat="44.79671" lon="0.83262">
        <ele>208.3</ele>
        <time>2026-05-02T11:43:52.000Z</time>
      </trkpt>
      <trkpt lat="44.79671" lon="0.83262">
        <ele>208.3</ele>
        <time>2026-05-02T11:43:53.000Z</time>
      </trkpt>
      <trkpt lat="44.79671" lon="0.83262">
        <ele>208.3</ele>
        <time>2026-05-02T11:43:54.000Z</time>
      </trkpt>
      <trkpt lat="44.79671" lon="0.83262">
        <ele>208.3</ele>
        <time>2026-05-02T11:43:55.000Z</time>
      </trkpt>
      <trkpt lat="44.79671" lon="0.83262">
        <ele>208.3</ele>
        <time>2026-05-02T11:43:56.000Z</time>
      </trkpt>
      <trkpt lat="44.79671" lon="0.83262">
        <ele>208.3</ele>
        <time>2026-05-02T11:43:57.000Z</time>
      </trkpt>
      <trkpt lat="44.79671" lon="0.83262">
        <ele>208.3</ele>
        <time>2026-05-02T11:43:58.000Z</time>
      </trkpt>
      <trkpt lat="44.79671" lon="0.83262">
        <ele>208.3</ele>
        <time>2026-05-02T11:43:59.000Z</time>
      </trkpt>
      <trkpt lat="44.79671" lon="0.83262">
        <ele>208.3</ele>
        <time>2026-05-02T11:44:00.000Z</time>
      </trkpt>
      <trkpt lat="44.79671" lon="0.83262">
        <ele>208.2</ele>
        <time>2026-05-02T11:44:01.000Z</time>
      </trkpt>
      <trkpt lat="44.79671" lon="0.83262">
        <ele>208.2</ele>
        <time>2026-05-02T11:44:02.000Z</time>
      </trkpt>
      <trkpt lat="44.79671" lon="0.83262">
        <ele>208.2</ele>
        <time>2026-05-02T11:44:03.000Z</time>
      </trkpt>
      <trkpt lat="44.79671" lon="0.83262">
        <ele>208.2</ele>
        <time>2026-05-02T11:44:04.000Z</time>
      </trkpt>
      <trkpt lat="44.79671" lon="0.83262">
        <ele>208.2</ele>
        <time>2026-05-02T11:44:05.000Z</time>
      </trkpt>
      <trkpt lat="44.79671" lon="0.83262">
        <ele>208.3</ele>
        <time>2026-05-02T11:44:06.000Z</time>
      </trkpt>
      <trkpt lat="44.79671" lon="0.83262">
        <ele>208.2</ele>
        <time>2026-05-02T11:44:07.000Z</time>
      </trkpt>
      <trkpt lat="44.79671" lon="0.83262">
        <ele>208.1</ele>
        <time>2026-05-02T11:44:08.000Z</time>
      </trkpt>
      <trkpt lat="44.79671" lon="0.83262">
        <ele>208.2</ele>
        <time>2026-05-02T11:44:09.000Z</time>
      </trkpt>
      <trkpt lat="44.79671" lon="0.83261">
        <ele>208.3</ele>
        <time>2026-05-02T11:44:10.000Z</time>
      </trkpt>
      <trkpt lat="44.79671" lon="0.83261">
        <ele>208.5</ele>
        <time>2026-05-02T11:44:11.000Z</time>
      </trkpt>
      <trkpt lat="44.79671" lon="0.83262">
        <ele>208.4</ele>
        <time>2026-05-02T11:44:12.000Z</time>
      </trkpt>
      <trkpt lat="44.79671" lon="0.83262">
        <ele>208.3</ele>
        <time>2026-05-02T11:44:13.000Z</time>
      </trkpt>
      <trkpt lat="44.79671" lon="0.83262">
        <ele>208.4</ele>
        <time>2026-05-02T11:44:14.000Z</time>
      </trkpt>
      <trkpt lat="44.79671" lon="0.83262">
        <ele>208.4</ele>
        <time>2026-05-02T11:44:15.000Z</time>
      </trkpt>
      <trkpt lat="44.79671" lon="0.83262">
        <ele>208.4</ele>
        <time>2026-05-02T11:44:16.000Z</time>
      </trkpt>
      <trkpt lat="44.79671" lon="0.83262">
        <ele>208.4</ele>
        <time>2026-05-02T11:44:17.000Z</time>
      </trkpt>
      <trkpt lat="44.79671" lon="0.83262">
        <ele>208.4</ele>
        <time>2026-05-02T11:44:18.000Z</time>
      </trkpt>
      <trkpt lat="44.79671" lon="0.83262">
        <ele>208.5</ele>
        <time>2026-05-02T11:44:19.000Z</time>
      </trkpt>
      <trkpt lat="44.79671" lon="0.83262">
        <ele>208.5</ele>
        <time>2026-05-02T11:44:20.000Z</time>
      </trkpt>
      <trkpt lat="44.79671" lon="0.83262">
        <ele>208.6</ele>
        <time>2026-05-02T11:44:21.000Z</time>
      </trkpt>
      <trkpt lat="44.79671" lon="0.83262">
        <ele>208.6</ele>
        <time>2026-05-02T11:44:22.000Z</time>
      </trkpt>
      <trkpt lat="44.79671" lon="0.83262">
        <ele>208.6</ele>
        <time>2026-05-02T11:44:23.000Z</time>
      </trkpt>
      <trkpt lat="44.79671" lon="0.83262">
        <ele>208.6</ele>
        <time>2026-05-02T11:44:24.000Z</time>
      </trkpt>
      <trkpt lat="44.79671" lon="0.83262">
        <ele>208.6</ele>
        <time>2026-05-02T11:44:25.000Z</time>
      </trkpt>
      <trkpt lat="44.79671" lon="0.83262">
        <ele>208.6</ele>
        <time>2026-05-02T11:44:26.000Z</time>
      </trkpt>
      <trkpt lat="44.79671" lon="0.83262">
        <ele>208.4</ele>
        <time>2026-05-02T11:44:27.000Z</time>
      </trkpt>
      <trkpt lat="44.79671" lon="0.83262">
        <ele>208.4</ele>
        <time>2026-05-02T11:44:28.000Z</time>
      </trkpt>
      <trkpt lat="44.79671" lon="0.83262">
        <ele>208.4</ele>
        <time>2026-05-02T11:44:29.000Z</time>
      </trkpt>
      <trkpt lat="44.7967" lon="0.83262">
        <ele>208.9</ele>
        <time>2026-05-02T11:44:30.000Z</time>
      </trkpt>
      <trkpt lat="44.79671" lon="0.83263">
        <ele>207</ele>
        <time>2026-05-02T11:44:31.000Z</time>
      </trkpt>
      <trkpt lat="44.79671" lon="0.83262">
        <ele>206.9</ele>
        <time>2026-05-02T11:44:32.000Z</time>
      </trkpt>
      <trkpt lat="44.79671" lon="0.83263">
        <ele>207.6</ele>
        <time>2026-05-02T11:44:33.000Z</time>
      </trkpt>
      <trkpt lat="44.7967" lon="0.83263">
        <ele>207.4</ele>
        <time>2026-05-02T11:44:34.000Z</time>
      </trkpt>
      <trkpt lat="44.7967" lon="0.83263">
        <ele>206.4</ele>
        <time>2026-05-02T11:44:35.000Z</time>
      </trkpt>
      <trkpt lat="44.7967" lon="0.83262">
        <ele>206.3</ele>
        <time>2026-05-02T11:44:36.000Z</time>
      </trkpt>
      <trkpt lat="44.7967" lon="0.83262">
        <ele>206.1</ele>
        <time>2026-05-02T11:44:37.000Z</time>
      </trkpt>
      <trkpt lat="44.7967" lon="0.83262">
        <ele>206</ele>
        <time>2026-05-02T11:44:38.000Z</time>
      </trkpt>
      <trkpt lat="44.79669" lon="0.83262">
        <ele>205.9</ele>
        <time>2026-05-02T11:44:39.000Z</time>
      </trkpt>
      <trkpt lat="44.79669" lon="0.83262">
        <ele>205.7</ele>
        <time>2026-05-02T11:44:40.000Z</time>
      </trkpt>
      <trkpt lat="44.79669" lon="0.83262">
        <ele>205.6</ele>
        <time>2026-05-02T11:44:41.000Z</time>
      </trkpt>
      <trkpt lat="44.79668" lon="0.83261">
        <ele>204.7</ele>
        <time>2026-05-02T11:44:42.000Z</time>
      </trkpt>
      <trkpt lat="44.79668" lon="0.8326">
        <ele>204.6</ele>
        <time>2026-05-02T11:44:43.000Z</time>
      </trkpt>
      <trkpt lat="44.79668" lon="0.83259">
        <ele>204</ele>
        <time>2026-05-02T11:44:44.000Z</time>
      </trkpt>
      <trkpt lat="44.79668" lon="0.83259">
        <ele>203.5</ele>
        <time>2026-05-02T11:44:45.000Z</time>
      </trkpt>
      <trkpt lat="44.79668" lon="0.83259">
        <ele>202.9</ele>
        <time>2026-05-02T11:44:46.000Z</time>
      </trkpt>
      <trkpt lat="44.79668" lon="0.83259">
        <ele>202.7</ele>
        <time>2026-05-02T11:44:47.000Z</time>
      </trkpt>
      <trkpt lat="44.79668" lon="0.83258">
        <ele>202.4</ele>
        <time>2026-05-02T11:44:48.000Z</time>
      </trkpt>
      <trkpt lat="44.79667" lon="0.83258">
        <ele>202.6</ele>
        <time>2026-05-02T11:44:49.000Z</time>
      </trkpt>
      <trkpt lat="44.79667" lon="0.83258">
        <ele>202.4</ele>
        <time>2026-05-02T11:44:50.000Z</time>
      </trkpt>
      <trkpt lat="44.79667" lon="0.83258">
        <ele>202.2</ele>
        <time>2026-05-02T11:44:51.000Z</time>
      </trkpt>
      <trkpt lat="44.79667" lon="0.83258">
        <ele>202.9</ele>
        <time>2026-05-02T11:44:52.000Z</time>
      </trkpt>
      <trkpt lat="44.79668" lon="0.83257">
        <ele>202.6</ele>
        <time>2026-05-02T11:44:53.000Z</time>
      </trkpt>
      <trkpt lat="44.79667" lon="0.83257">
        <ele>202.2</ele>
        <time>2026-05-02T11:44:54.000Z</time>
      </trkpt>
      <trkpt lat="44.79667" lon="0.83257">
        <ele>202</ele>
        <time>2026-05-02T11:44:55.000Z</time>
      </trkpt>
      <trkpt lat="44.79666" lon="0.83257">
        <ele>201.8</ele>
        <time>2026-05-02T11:44:56.000Z</time>
      </trkpt>
      <trkpt lat="44.79666" lon="0.83257">
        <ele>201.7</ele>
        <time>2026-05-02T11:44:57.000Z</time>
      </trkpt>
      <trkpt lat="44.79666" lon="0.83256">
        <ele>201.4</ele>
        <time>2026-05-02T11:44:58.000Z</time>
      </trkpt>
      <trkpt lat="44.79666" lon="0.83256">
        <ele>201.2</ele>
        <time>2026-05-02T11:44:59.000Z</time>
      </trkpt>
      <trkpt lat="44.79666" lon="0.83256">
        <ele>201.5</ele>
        <time>2026-05-02T11:45:00.000Z</time>
      </trkpt>
      <trkpt lat="44.79666" lon="0.83256">
        <ele>201.4</ele>
        <time>2026-05-02T11:45:01.000Z</time>
      </trkpt>
      <trkpt lat="44.79666" lon="0.83256">
        <ele>201.3</ele>
        <time>2026-05-02T11:45:02.000Z</time>
      </trkpt>
      <trkpt lat="44.79665" lon="0.83256">
        <ele>201.2</ele>
        <time>2026-05-02T11:45:03.000Z</time>
      </trkpt>
      <trkpt lat="44.79665" lon="0.83256">
        <ele>201.2</ele>
        <time>2026-05-02T11:45:04.000Z</time>
      </trkpt>
      <trkpt lat="44.79666" lon="0.83257">
        <ele>200.5</ele>
        <time>2026-05-02T11:45:05.000Z</time>
      </trkpt>
      <trkpt lat="44.79667" lon="0.83257">
        <ele>200.4</ele>
        <time>2026-05-02T11:45:06.000Z</time>
      </trkpt>
      <trkpt lat="44.79668" lon="0.83259">
        <ele>198.6</ele>
        <time>2026-05-02T11:45:07.000Z</time>
      </trkpt>
      <trkpt lat="44.79668" lon="0.8326">
        <ele>197.9</ele>
        <time>2026-05-02T11:45:08.000Z</time>
      </trkpt>
      <trkpt lat="44.79668" lon="0.8326">
        <ele>198.3</ele>
        <time>2026-05-02T11:45:09.000Z</time>
      </trkpt>
      <trkpt lat="44.79669" lon="0.83261">
        <ele>198.4</ele>
        <time>2026-05-02T11:45:10.000Z</time>
      </trkpt>
      <trkpt lat="44.7967" lon="0.83261">
        <ele>198</ele>
        <time>2026-05-02T11:45:11.000Z</time>
      </trkpt>
      <trkpt lat="44.79672" lon="0.83262">
        <ele>197.6</ele>
        <time>2026-05-02T11:45:12.000Z</time>
      </trkpt>
      <trkpt lat="44.79673" lon="0.83262">
        <ele>195.9</ele>
        <time>2026-05-02T11:45:13.000Z</time>
      </trkpt>
      <trkpt lat="44.79674" lon="0.83261">
        <ele>196.5</ele>
        <time>2026-05-02T11:45:14.000Z</time>
      </trkpt>
      <trkpt lat="44.79674" lon="0.83261">
        <ele>196.9</ele>
        <time>2026-05-02T11:45:15.000Z</time>
      </trkpt>
      <trkpt lat="44.79674" lon="0.8326">
        <ele>197.3</ele>
        <time>2026-05-02T11:45:16.000Z</time>
      </trkpt>
      <trkpt lat="44.79674" lon="0.83259">
        <ele>197.3</ele>
        <time>2026-05-02T11:45:17.000Z</time>
      </trkpt>
      <trkpt lat="44.79673" lon="0.83259">
        <ele>196.6</ele>
        <time>2026-05-02T11:45:18.000Z</time>
      </trkpt>
      <trkpt lat="44.79673" lon="0.83259">
        <ele>196.9</ele>
        <time>2026-05-02T11:45:19.000Z</time>
      </trkpt>
      <trkpt lat="44.79673" lon="0.8326">
        <ele>195.5</ele>
        <time>2026-05-02T11:45:20.000Z</time>
      </trkpt>
      <trkpt lat="44.79672" lon="0.8326">
        <ele>194.9</ele>
        <time>2026-05-02T11:45:21.000Z</time>
      </trkpt>
      <trkpt lat="44.79672" lon="0.8326">
        <ele>194.6</ele>
        <time>2026-05-02T11:45:22.000Z</time>
      </trkpt>
      <trkpt lat="44.79672" lon="0.8326">
        <ele>195</ele>
        <time>2026-05-02T11:45:23.000Z</time>
      </trkpt>
      <trkpt lat="44.79672" lon="0.8326">
        <ele>195.8</ele>
        <time>2026-05-02T11:45:24.000Z</time>
      </trkpt>
      <trkpt lat="44.79672" lon="0.83259">
        <ele>195.5</ele>
        <time>2026-05-02T11:45:25.000Z</time>
      </trkpt>
      <trkpt lat="44.79672" lon="0.83259">
        <ele>194.9</ele>
        <time>2026-05-02T11:45:26.000Z</time>
      </trkpt>
      <trkpt lat="44.79672" lon="0.83259">
        <ele>195</ele>
        <time>2026-05-02T11:45:27.000Z</time>
      </trkpt>
      <trkpt lat="44.79671" lon="0.83259">
        <ele>194.2</ele>
        <time>2026-05-02T11:45:28.000Z</time>
      </trkpt>
      <trkpt lat="44.79671" lon="0.83259">
        <ele>194.4</ele>
        <time>2026-05-02T11:45:29.000Z</time>
      </trkpt>
      <trkpt lat="44.79671" lon="0.8326">
        <ele>195.6</ele>
        <time>2026-05-02T11:45:30.000Z</time>
      </trkpt>
      <trkpt lat="44.79671" lon="0.8326">
        <ele>195.3</ele>
        <time>2026-05-02T11:45:31.000Z</time>
      </trkpt>
      <trkpt lat="44.79671" lon="0.83259">
        <ele>194.3</ele>
        <time>2026-05-02T11:45:32.000Z</time>
      </trkpt>
      <trkpt lat="44.79672" lon="0.8326">
        <ele>194</ele>
        <time>2026-05-02T11:45:33.000Z</time>
      </trkpt>
      <trkpt lat="44.79671" lon="0.8326">
        <ele>194</ele>
        <time>2026-05-02T11:45:34.000Z</time>
      </trkpt>
      <trkpt lat="44.79671" lon="0.8326">
        <ele>193.9</ele>
        <time>2026-05-02T11:45:35.000Z</time>
      </trkpt>
      <trkpt lat="44.79671" lon="0.8326">
        <ele>194.1</ele>
        <time>2026-05-02T11:45:36.000Z</time>
      </trkpt>
      <trkpt lat="44.7967" lon="0.8326">
        <ele>194</ele>
        <time>2026-05-02T11:45:37.000Z</time>
      </trkpt>
      <trkpt lat="44.7967" lon="0.83259">
        <ele>193.9</ele>
        <time>2026-05-02T11:45:38.000Z</time>
      </trkpt>
      <trkpt lat="44.7967" lon="0.83259">
        <ele>193.9</ele>
        <time>2026-05-02T11:45:39.000Z</time>
      </trkpt>
      <trkpt lat="44.7967" lon="0.83259">
        <ele>193.9</ele>
        <time>2026-05-02T11:45:40.000Z</time>
      </trkpt>
      <trkpt lat="44.7967" lon="0.83259">
        <ele>193.9</ele>
        <time>2026-05-02T11:45:41.000Z</time>
      </trkpt>
      <trkpt lat="44.7967" lon="0.83259">
        <ele>193.9</ele>
        <time>2026-05-02T11:45:42.000Z</time>
      </trkpt>
      <trkpt lat="44.7967" lon="0.83259">
        <ele>193.9</ele>
        <time>2026-05-02T11:45:43.000Z</time>
      </trkpt>
      <trkpt lat="44.7967" lon="0.83259">
        <ele>193.9</ele>
        <time>2026-05-02T11:45:44.000Z</time>
      </trkpt>
      <trkpt lat="44.7967" lon="0.83259">
        <ele>193.9</ele>
        <time>2026-05-02T11:45:45.000Z</time>
      </trkpt>
      <trkpt lat="44.7967" lon="0.83259">
        <ele>193.9</ele>
        <time>2026-05-02T11:45:46.000Z</time>
      </trkpt>
      <trkpt lat="44.7967" lon="0.8326">
        <ele>193.9</ele>
        <time>2026-05-02T11:45:47.000Z</time>
      </trkpt>
      <trkpt lat="44.7967" lon="0.83259">
        <ele>193.8</ele>
        <time>2026-05-02T11:45:48.000Z</time>
      </trkpt>
      <trkpt lat="44.7967" lon="0.83259">
        <ele>193.8</ele>
        <time>2026-05-02T11:45:49.000Z</time>
      </trkpt>
      <trkpt lat="44.7967" lon="0.83259">
        <ele>193.8</ele>
        <time>2026-05-02T11:45:50.000Z</time>
      </trkpt>
      <trkpt lat="44.7967" lon="0.83259">
        <ele>193.8</ele>
        <time>2026-05-02T11:45:51.000Z</time>
      </trkpt>
      <trkpt lat="44.7967" lon="0.83259">
        <ele>193.9</ele>
        <time>2026-05-02T11:45:52.000Z</time>
      </trkpt>
      <trkpt lat="44.7967" lon="0.83259">
        <ele>193.9</ele>
        <time>2026-05-02T11:45:53.000Z</time>
      </trkpt>
      <trkpt lat="44.7967" lon="0.83259">
        <ele>193.9</ele>
        <time>2026-05-02T11:45:54.000Z</time>
      </trkpt>
      <trkpt lat="44.7967" lon="0.83259">
        <ele>194</ele>
        <time>2026-05-02T11:45:55.000Z</time>
      </trkpt>
      <trkpt lat="44.7967" lon="0.83259">
        <ele>194</ele>
        <time>2026-05-02T11:45:56.000Z</time>
      </trkpt>
      <trkpt lat="44.7967" lon="0.83259">
        <ele>194</ele>
        <time>2026-05-02T11:45:57.000Z</time>
      </trkpt>
      <trkpt lat="44.7967" lon="0.83259">
        <ele>194</ele>
        <time>2026-05-02T11:45:58.000Z</time>
      </trkpt>
      <trkpt lat="44.7967" lon="0.83259">
        <ele>194</ele>
        <time>2026-05-02T11:45:59.000Z</time>
      </trkpt>
      <trkpt lat="44.7967" lon="0.83259">
        <ele>194</ele>
        <time>2026-05-02T11:46:00.000Z</time>
      </trkpt>
      <trkpt lat="44.7967" lon="0.83259">
        <ele>194</ele>
        <time>2026-05-02T11:46:01.000Z</time>
      </trkpt>
      <trkpt lat="44.7967" lon="0.83259">
        <ele>194</ele>
        <time>2026-05-02T11:46:02.000Z</time>
      </trkpt>
      <trkpt lat="44.7967" lon="0.83259">
        <ele>194</ele>
        <time>2026-05-02T11:46:03.000Z</time>
      </trkpt>
      <trkpt lat="44.7967" lon="0.8326">
        <ele>194</ele>
        <time>2026-05-02T11:46:04.000Z</time>
      </trkpt>
      <trkpt lat="44.7967" lon="0.8326">
        <ele>194</ele>
        <time>2026-05-02T11:46:05.000Z</time>
      </trkpt>
      <trkpt lat="44.7967" lon="0.8326">
        <ele>194.1</ele>
        <time>2026-05-02T11:46:06.000Z</time>
      </trkpt>
      <trkpt lat="44.7967" lon="0.8326">
        <ele>194.1</ele>
        <time>2026-05-02T11:46:07.000Z</time>
      </trkpt>
      <trkpt lat="44.7967" lon="0.8326">
        <ele>194.1</ele>
        <time>2026-05-02T11:46:08.000Z</time>
      </trkpt>
      <trkpt lat="44.7967" lon="0.8326">
        <ele>194.1</ele>
        <time>2026-05-02T11:46:09.000Z</time>
      </trkpt>
      <trkpt lat="44.7967" lon="0.8326">
        <ele>194.1</ele>
        <time>2026-05-02T11:46:10.000Z</time>
      </trkpt>
      <trkpt lat="44.7967" lon="0.83262">
        <ele>194.6</ele>
        <time>2026-05-02T11:46:11.000Z</time>
      </trkpt>
      <trkpt lat="44.7967" lon="0.83263">
        <ele>194.9</ele>
        <time>2026-05-02T11:46:12.000Z</time>
      </trkpt>
      <trkpt lat="44.79669" lon="0.83265">
        <ele>195.1</ele>
        <time>2026-05-02T11:46:13.000Z</time>
      </trkpt>
      <trkpt lat="44.79669" lon="0.83267">
        <ele>196.7</ele>
        <time>2026-05-02T11:46:14.000Z</time>
      </trkpt>
      <trkpt lat="44.79668" lon="0.83269">
        <ele>197</ele>
        <time>2026-05-02T11:46:15.000Z</time>
      </trkpt>
      <trkpt lat="44.79668" lon="0.8327">
        <ele>198.4</ele>
        <time>2026-05-02T11:46:16.000Z</time>
      </trkpt>
      <trkpt lat="44.79668" lon="0.8327">
        <ele>199.6</ele>
        <time>2026-05-02T11:46:17.000Z</time>
      </trkpt>
      <trkpt lat="44.79668" lon="0.8327">
        <ele>199</ele>
        <time>2026-05-02T11:46:18.000Z</time>
      </trkpt>
      <trkpt lat="44.79668" lon="0.8327">
        <ele>199.1</ele>
        <time>2026-05-02T11:46:19.000Z</time>
      </trkpt>
      <trkpt lat="44.79668" lon="0.83271">
        <ele>201.2</ele>
        <time>2026-05-02T11:46:20.000Z</time>
      </trkpt>
      <trkpt lat="44.79667" lon="0.83271">
        <ele>201.2</ele>
        <time>2026-05-02T11:46:21.000Z</time>
      </trkpt>
      <trkpt lat="44.79667" lon="0.83271">
        <ele>201.2</ele>
        <time>2026-05-02T11:46:22.000Z</time>
      </trkpt>
      <trkpt lat="44.79667" lon="0.83272">
        <ele>201.5</ele>
        <time>2026-05-02T11:46:23.000Z</time>
      </trkpt>
      <trkpt lat="44.79667" lon="0.83272">
        <ele>200.2</ele>
        <time>2026-05-02T11:46:24.000Z</time>
      </trkpt>
      <trkpt lat="44.79667" lon="0.83272">
        <ele>200</ele>
        <time>2026-05-02T11:46:25.000Z</time>
      </trkpt>
      <trkpt lat="44.79667" lon="0.83273">
        <ele>200.3</ele>
        <time>2026-05-02T11:46:26.000Z</time>
      </trkpt>
      <trkpt lat="44.79668" lon="0.83274">
        <ele>199.4</ele>
        <time>2026-05-02T11:46:27.000Z</time>
      </trkpt>
      <trkpt lat="44.79668" lon="0.83274">
        <ele>198.8</ele>
        <time>2026-05-02T11:46:28.000Z</time>
      </trkpt>
      <trkpt lat="44.79667" lon="0.83275">
        <ele>199.2</ele>
        <time>2026-05-02T11:46:29.000Z</time>
      </trkpt>
      <trkpt lat="44.79667" lon="0.83276">
        <ele>199.2</ele>
        <time>2026-05-02T11:46:30.000Z</time>
      </trkpt>
      <trkpt lat="44.79666" lon="0.83276">
        <ele>198.9</ele>
        <time>2026-05-02T11:46:31.000Z</time>
      </trkpt>
      <trkpt lat="44.79666" lon="0.83276">
        <ele>198.9</ele>
        <time>2026-05-02T11:46:32.000Z</time>
      </trkpt>
      <trkpt lat="44.79666" lon="0.83276">
        <ele>199.5</ele>
        <time>2026-05-02T11:46:33.000Z</time>
      </trkpt>
      <trkpt lat="44.79666" lon="0.83276">
        <ele>199.6</ele>
        <time>2026-05-02T11:46:34.000Z</time>
      </trkpt>
      <trkpt lat="44.79666" lon="0.83277">
        <ele>198.9</ele>
        <time>2026-05-02T11:46:35.000Z</time>
      </trkpt>
      <trkpt lat="44.79666" lon="0.83278">
        <ele>198.4</ele>
        <time>2026-05-02T11:46:36.000Z</time>
      </trkpt>
      <trkpt lat="44.79666" lon="0.83278">
        <ele>198.5</ele>
        <time>2026-05-02T11:46:37.000Z</time>
      </trkpt>
      <trkpt lat="44.79666" lon="0.83278">
        <ele>198.9</ele>
        <time>2026-05-02T11:46:38.000Z</time>
      </trkpt>
      <trkpt lat="44.79666" lon="0.83278">
        <ele>199.1</ele>
        <time>2026-05-02T11:46:39.000Z</time>
      </trkpt>
      <trkpt lat="44.79666" lon="0.83278">
        <ele>198.9</ele>
        <time>2026-05-02T11:46:40.000Z</time>
      </trkpt>
      <trkpt lat="44.79666" lon="0.83278">
        <ele>199</ele>
        <time>2026-05-02T11:46:41.000Z</time>
      </trkpt>
      <trkpt lat="44.79666" lon="0.83278">
        <ele>198.3</ele>
        <time>2026-05-02T11:46:42.000Z</time>
      </trkpt>
      <trkpt lat="44.79666" lon="0.83278">
        <ele>198.3</ele>
        <time>2026-05-02T11:46:43.000Z</time>
      </trkpt>
      <trkpt lat="44.79666" lon="0.83278">
        <ele>198.2</ele>
        <time>2026-05-02T11:46:44.000Z</time>
      </trkpt>
      <trkpt lat="44.79666" lon="0.83278">
        <ele>198.3</ele>
        <time>2026-05-02T11:46:45.000Z</time>
      </trkpt>
      <trkpt lat="44.79666" lon="0.83278">
        <ele>198.3</ele>
        <time>2026-05-02T11:46:46.000Z</time>
      </trkpt>
      <trkpt lat="44.79666" lon="0.83278">
        <ele>198.1</ele>
        <time>2026-05-02T11:46:47.000Z</time>
      </trkpt>
      <trkpt lat="44.79666" lon="0.83278">
        <ele>198.2</ele>
        <time>2026-05-02T11:46:48.000Z</time>
      </trkpt>
      <trkpt lat="44.79666" lon="0.83278">
        <ele>198.2</ele>
        <time>2026-05-02T11:46:49.000Z</time>
      </trkpt>
      <trkpt lat="44.79666" lon="0.83278">
        <ele>198.2</ele>
        <time>2026-05-02T11:46:50.000Z</time>
      </trkpt>
      <trkpt lat="44.79666" lon="0.83278">
        <ele>198.2</ele>
        <time>2026-05-02T11:46:51.000Z</time>
      </trkpt>
      <trkpt lat="44.79666" lon="0.83278">
        <ele>198.2</ele>
        <time>2026-05-02T11:46:52.000Z</time>
      </trkpt>
      <trkpt lat="44.79666" lon="0.83278">
        <ele>198.2</ele>
        <time>2026-05-02T11:46:53.000Z</time>
      </trkpt>
      <trkpt lat="44.79666" lon="0.83278">
        <ele>198.2</ele>
        <time>2026-05-02T11:46:54.000Z</time>
      </trkpt>
      <trkpt lat="44.79666" lon="0.83278">
        <ele>198.2</ele>
        <time>2026-05-02T11:46:55.000Z</time>
      </trkpt>
      <trkpt lat="44.79666" lon="0.83278">
        <ele>198.3</ele>
        <time>2026-05-02T11:46:56.000Z</time>
      </trkpt>
      <trkpt lat="44.79666" lon="0.83278">
        <ele>198.3</ele>
        <time>2026-05-02T11:46:57.000Z</time>
      </trkpt>
      <trkpt lat="44.79666" lon="0.83278">
        <ele>198.3</ele>
        <time>2026-05-02T11:46:58.000Z</time>
      </trkpt>
      <trkpt lat="44.79666" lon="0.83278">
        <ele>198.3</ele>
        <time>2026-05-02T11:46:59.000Z</time>
      </trkpt>
      <trkpt lat="44.79666" lon="0.83278">
        <ele>198.4</ele>
        <time>2026-05-02T11:47:00.000Z</time>
      </trkpt>
      <trkpt lat="44.79666" lon="0.83278">
        <ele>198.4</ele>
        <time>2026-05-02T11:47:01.000Z</time>
      </trkpt>
      <trkpt lat="44.79666" lon="0.83278">
        <ele>198.4</ele>
        <time>2026-05-02T11:47:02.000Z</time>
      </trkpt>
      <trkpt lat="44.79666" lon="0.83278">
        <ele>198.4</ele>
        <time>2026-05-02T11:47:03.000Z</time>
      </trkpt>
      <trkpt lat="44.79666" lon="0.83278">
        <ele>198.6</ele>
        <time>2026-05-02T11:47:04.000Z</time>
      </trkpt>
      <trkpt lat="44.79666" lon="0.83278">
        <ele>198.7</ele>
        <time>2026-05-02T11:47:05.000Z</time>
      </trkpt>
      <trkpt lat="44.79666" lon="0.83278">
        <ele>198.7</ele>
        <time>2026-05-02T11:47:06.000Z</time>
      </trkpt>
      <trkpt lat="44.79666" lon="0.83278">
        <ele>198.7</ele>
        <time>2026-05-02T11:47:07.000Z</time>
      </trkpt>
      <trkpt lat="44.79666" lon="0.83277">
        <ele>202.8</ele>
        <time>2026-05-02T11:47:08.000Z</time>
      </trkpt>
      <trkpt lat="44.79667" lon="0.83277">
        <ele>203.3</ele>
        <time>2026-05-02T11:47:09.000Z</time>
      </trkpt>
      <trkpt lat="44.79667" lon="0.83277">
        <ele>203.2</ele>
        <time>2026-05-02T11:47:10.000Z</time>
      </trkpt>
      <trkpt lat="44.79666" lon="0.83277">
        <ele>203.1</ele>
        <time>2026-05-02T11:47:11.000Z</time>
      </trkpt>
      <trkpt lat="44.79667" lon="0.83277">
        <ele>201.6</ele>
        <time>2026-05-02T11:47:12.000Z</time>
      </trkpt>
      <trkpt lat="44.79666" lon="0.83276">
        <ele>202.9</ele>
        <time>2026-05-02T11:47:13.000Z</time>
      </trkpt>
      <trkpt lat="44.79666" lon="0.83277">
        <ele>203.2</ele>
        <time>2026-05-02T11:47:14.000Z</time>
      </trkpt>
      <trkpt lat="44.79666" lon="0.83277">
        <ele>203.3</ele>
        <time>2026-05-02T11:47:15.000Z</time>
      </trkpt>
      <trkpt lat="44.79666" lon="0.83277">
        <ele>202.8</ele>
        <time>2026-05-02T11:47:16.000Z</time>
      </trkpt>
      <trkpt lat="44.79666" lon="0.83277">
        <ele>202.6</ele>
        <time>2026-05-02T11:47:17.000Z</time>
      </trkpt>
      <trkpt lat="44.79666" lon="0.83277">
        <ele>202.8</ele>
        <time>2026-05-02T11:47:18.000Z</time>
      </trkpt>
      <trkpt lat="44.79666" lon="0.83277">
        <ele>202.7</ele>
        <time>2026-05-02T11:47:19.000Z</time>
      </trkpt>
      <trkpt lat="44.79666" lon="0.83277">
        <ele>203</ele>
        <time>2026-05-02T11:47:20.000Z</time>
      </trkpt>
      <trkpt lat="44.79666" lon="0.83277">
        <ele>203.1</ele>
        <time>2026-05-02T11:47:21.000Z</time>
      </trkpt>
      <trkpt lat="44.79666" lon="0.83277">
        <ele>203.2</ele>
        <time>2026-05-02T11:47:22.000Z</time>
      </trkpt>
      <trkpt lat="44.79666" lon="0.83277">
        <ele>202.4</ele>
        <time>2026-05-02T11:47:23.000Z</time>
      </trkpt>
      <trkpt lat="44.79667" lon="0.83277">
        <ele>202.1</ele>
        <time>2026-05-02T11:47:24.000Z</time>
      </trkpt>
      <trkpt lat="44.79667" lon="0.83277">
        <ele>202.1</ele>
        <time>2026-05-02T11:47:25.000Z</time>
      </trkpt>
      <trkpt lat="44.79667" lon="0.83277">
        <ele>202.1</ele>
        <time>2026-05-02T11:47:26.000Z</time>
      </trkpt>
      <trkpt lat="44.79667" lon="0.83277">
        <ele>202.1</ele>
        <time>2026-05-02T11:47:27.000Z</time>
      </trkpt>
      <trkpt lat="44.79667" lon="0.83277">
        <ele>202.1</ele>
        <time>2026-05-02T11:47:28.000Z</time>
      </trkpt>
      <trkpt lat="44.79667" lon="0.83277">
        <ele>202.1</ele>
        <time>2026-05-02T11:47:29.000Z</time>
      </trkpt>
      <trkpt lat="44.79667" lon="0.83277">
        <ele>202.5</ele>
        <time>2026-05-02T11:47:30.000Z</time>
      </trkpt>
      <trkpt lat="44.79666" lon="0.83277">
        <ele>202.9</ele>
        <time>2026-05-02T11:47:31.000Z</time>
      </trkpt>
      <trkpt lat="44.79666" lon="0.83276">
        <ele>201.2</ele>
        <time>2026-05-02T11:47:32.000Z</time>
      </trkpt>
      <trkpt lat="44.79666" lon="0.83274">
        <ele>201</ele>
        <time>2026-05-02T11:47:33.000Z</time>
      </trkpt>
      <trkpt lat="44.79665" lon="0.83273">
        <ele>201</ele>
        <time>2026-05-02T11:47:34.000Z</time>
      </trkpt>
      <trkpt lat="44.79665" lon="0.83272">
        <ele>200.1</ele>
        <time>2026-05-02T11:47:35.000Z</time>
      </trkpt>
      <trkpt lat="44.79665" lon="0.83272">
        <ele>199.1</ele>
        <time>2026-05-02T11:47:36.000Z</time>
      </trkpt>
      <trkpt lat="44.79665" lon="0.83272">
        <ele>198.8</ele>
        <time>2026-05-02T11:47:37.000Z</time>
      </trkpt>
      <trkpt lat="44.79664" lon="0.83273">
        <ele>199.1</ele>
        <time>2026-05-02T11:47:38.000Z</time>
      </trkpt>
      <trkpt lat="44.79664" lon="0.83274">
        <ele>199.2</ele>
        <time>2026-05-02T11:47:39.000Z</time>
      </trkpt>
      <trkpt lat="44.79664" lon="0.83274">
        <ele>199</ele>
        <time>2026-05-02T11:47:40.000Z</time>
      </trkpt>
      <trkpt lat="44.79663" lon="0.83274">
        <ele>198.3</ele>
        <time>2026-05-02T11:47:41.000Z</time>
      </trkpt>
      <trkpt lat="44.79663" lon="0.83274">
        <ele>199</ele>
        <time>2026-05-02T11:47:42.000Z</time>
      </trkpt>
      <trkpt lat="44.79662" lon="0.83275">
        <ele>200.7</ele>
        <time>2026-05-02T11:47:43.000Z</time>
      </trkpt>
      <trkpt lat="44.79662" lon="0.83276">
        <ele>201.5</ele>
        <time>2026-05-02T11:47:44.000Z</time>
      </trkpt>
      <trkpt lat="44.79662" lon="0.83276">
        <ele>200.8</ele>
        <time>2026-05-02T11:47:45.000Z</time>
      </trkpt>
      <trkpt lat="44.79662" lon="0.83276">
        <ele>200.8</ele>
        <time>2026-05-02T11:47:46.000Z</time>
      </trkpt>
      <trkpt lat="44.79663" lon="0.83276">
        <ele>200.5</ele>
        <time>2026-05-02T11:47:47.000Z</time>
      </trkpt>
      <trkpt lat="44.79663" lon="0.83276">
        <ele>200.2</ele>
        <time>2026-05-02T11:47:48.000Z</time>
      </trkpt>
      <trkpt lat="44.79663" lon="0.83276">
        <ele>200.4</ele>
        <time>2026-05-02T11:47:49.000Z</time>
      </trkpt>
      <trkpt lat="44.79663" lon="0.83277">
        <ele>200.5</ele>
        <time>2026-05-02T11:47:50.000Z</time>
      </trkpt>
      <trkpt lat="44.79663" lon="0.83277">
        <ele>200.4</ele>
        <time>2026-05-02T11:47:51.000Z</time>
      </trkpt>
      <trkpt lat="44.79663" lon="0.83277">
        <ele>200.5</ele>
        <time>2026-05-02T11:47:52.000Z</time>
      </trkpt>
      <trkpt lat="44.79663" lon="0.83277">
        <ele>200.5</ele>
        <time>2026-05-02T11:47:53.000Z</time>
      </trkpt>
      <trkpt lat="44.79663" lon="0.83277">
        <ele>200.5</ele>
        <time>2026-05-02T11:47:54.000Z</time>
      </trkpt>
      <trkpt lat="44.79663" lon="0.83277">
        <ele>200.5</ele>
        <time>2026-05-02T11:47:55.000Z</time>
      </trkpt>
      <trkpt lat="44.79663" lon="0.83277">
        <ele>200.6</ele>
        <time>2026-05-02T11:47:56.000Z</time>
      </trkpt>
      <trkpt lat="44.79663" lon="0.83277">
        <ele>200.6</ele>
        <time>2026-05-02T11:47:57.000Z</time>
      </trkpt>
      <trkpt lat="44.79663" lon="0.83277">
        <ele>200.6</ele>
        <time>2026-05-02T11:47:58.000Z</time>
      </trkpt>
      <trkpt lat="44.79663" lon="0.83277">
        <ele>200.6</ele>
        <time>2026-05-02T11:47:59.000Z</time>
      </trkpt>
      <trkpt lat="44.79663" lon="0.83277">
        <ele>200.6</ele>
        <time>2026-05-02T11:48:00.000Z</time>
      </trkpt>
      <trkpt lat="44.79663" lon="0.83277">
        <ele>200.6</ele>
        <time>2026-05-02T11:48:01.000Z</time>
      </trkpt>
      <trkpt lat="44.79663" lon="0.83277">
        <ele>200.6</ele>
        <time>2026-05-02T11:48:02.000Z</time>
      </trkpt>
      <trkpt lat="44.79663" lon="0.83277">
        <ele>200.6</ele>
        <time>2026-05-02T11:48:03.000Z</time>
      </trkpt>
      <trkpt lat="44.79663" lon="0.83277">
        <ele>200.9</ele>
        <time>2026-05-02T11:48:04.000Z</time>
      </trkpt>
      <trkpt lat="44.79662" lon="0.83277">
        <ele>201</ele>
        <time>2026-05-02T11:48:05.000Z</time>
      </trkpt>
      <trkpt lat="44.79662" lon="0.83277">
        <ele>201.1</ele>
        <time>2026-05-02T11:48:06.000Z</time>
      </trkpt>
      <trkpt lat="44.79662" lon="0.83277">
        <ele>201.1</ele>
        <time>2026-05-02T11:48:07.000Z</time>
      </trkpt>
      <trkpt lat="44.79662" lon="0.83277">
        <ele>201.1</ele>
        <time>2026-05-02T11:48:08.000Z</time>
      </trkpt>
      <trkpt lat="44.79662" lon="0.83277">
        <ele>201.2</ele>
        <time>2026-05-02T11:48:09.000Z</time>
      </trkpt>
      <trkpt lat="44.79662" lon="0.83277">
        <ele>201.2</ele>
        <time>2026-05-02T11:48:10.000Z</time>
      </trkpt>
      <trkpt lat="44.79662" lon="0.83277">
        <ele>201.2</ele>
        <time>2026-05-02T11:48:11.000Z</time>
      </trkpt>
      <trkpt lat="44.79662" lon="0.83276">
        <ele>201.2</ele>
        <time>2026-05-02T11:48:12.000Z</time>
      </trkpt>
      <trkpt lat="44.79662" lon="0.83276">
        <ele>201.2</ele>
        <time>2026-05-02T11:48:13.000Z</time>
      </trkpt>
      <trkpt lat="44.79662" lon="0.83276">
        <ele>201.2</ele>
        <time>2026-05-02T11:48:14.000Z</time>
      </trkpt>
      <trkpt lat="44.79662" lon="0.83277">
        <ele>201.2</ele>
        <time>2026-05-02T11:48:15.000Z</time>
      </trkpt>
      <trkpt lat="44.79662" lon="0.83277">
        <ele>201.2</ele>
        <time>2026-05-02T11:48:16.000Z</time>
      </trkpt>
      <trkpt lat="44.79662" lon="0.83277">
        <ele>201.2</ele>
        <time>2026-05-02T11:48:17.000Z</time>
      </trkpt>
      <trkpt lat="44.79662" lon="0.83277">
        <ele>201.2</ele>
        <time>2026-05-02T11:48:18.000Z</time>
      </trkpt>
      <trkpt lat="44.79662" lon="0.83277">
        <ele>201.2</ele>
        <time>2026-05-02T11:48:19.000Z</time>
      </trkpt>
      <trkpt lat="44.79662" lon="0.83277">
        <ele>201.2</ele>
        <time>2026-05-02T11:48:20.000Z</time>
      </trkpt>
      <trkpt lat="44.79662" lon="0.83277">
        <ele>201.2</ele>
        <time>2026-05-02T11:48:21.000Z</time>
      </trkpt>
      <trkpt lat="44.79662" lon="0.83277">
        <ele>201.2</ele>
        <time>2026-05-02T11:48:22.000Z</time>
      </trkpt>
      <trkpt lat="44.79662" lon="0.83277">
        <ele>201.2</ele>
        <time>2026-05-02T11:48:23.000Z</time>
      </trkpt>
      <trkpt lat="44.79662" lon="0.83277">
        <ele>201.2</ele>
        <time>2026-05-02T11:48:24.000Z</time>
      </trkpt>
      <trkpt lat="44.79662" lon="0.83277">
        <ele>201.2</ele>
        <time>2026-05-02T11:48:25.000Z</time>
      </trkpt>
      <trkpt lat="44.79662" lon="0.83277">
        <ele>201.2</ele>
        <time>2026-05-02T11:48:26.000Z</time>
      </trkpt>
      <trkpt lat="44.79662" lon="0.83277">
        <ele>201.2</ele>
        <time>2026-05-02T11:48:27.000Z</time>
      </trkpt>
      <trkpt lat="44.79662" lon="0.83277">
        <ele>201.2</ele>
        <time>2026-05-02T11:48:28.000Z</time>
      </trkpt>
      <trkpt lat="44.79662" lon="0.83277">
        <ele>201.2</ele>
        <time>2026-05-02T11:48:29.000Z</time>
      </trkpt>
      <trkpt lat="44.79662" lon="0.83277">
        <ele>201.2</ele>
        <time>2026-05-02T11:48:30.000Z</time>
      </trkpt>
      <trkpt lat="44.79662" lon="0.83277">
        <ele>201.2</ele>
        <time>2026-05-02T11:48:31.000Z</time>
      </trkpt>
      <trkpt lat="44.79662" lon="0.83277">
        <ele>201.3</ele>
        <time>2026-05-02T11:48:32.000Z</time>
      </trkpt>
      <trkpt lat="44.79662" lon="0.83277">
        <ele>201.3</ele>
        <time>2026-05-02T11:48:33.000Z</time>
      </trkpt>
      <trkpt lat="44.79662" lon="0.83277">
        <ele>201.3</ele>
        <time>2026-05-02T11:48:34.000Z</time>
      </trkpt>
      <trkpt lat="44.79662" lon="0.83277">
        <ele>201.3</ele>
        <time>2026-05-02T11:48:35.000Z</time>
      </trkpt>
      <trkpt lat="44.79662" lon="0.83277">
        <ele>201.3</ele>
        <time>2026-05-02T11:48:36.000Z</time>
      </trkpt>
      <trkpt lat="44.79662" lon="0.83277">
        <ele>201.3</ele>
        <time>2026-05-02T11:48:37.000Z</time>
      </trkpt>
      <trkpt lat="44.79662" lon="0.83277">
        <ele>201.3</ele>
        <time>2026-05-02T11:48:38.000Z</time>
      </trkpt>
      <trkpt lat="44.79662" lon="0.83277">
        <ele>201.3</ele>
        <time>2026-05-02T11:48:39.000Z</time>
      </trkpt>
      <trkpt lat="44.79662" lon="0.83277">
        <ele>201.3</ele>
        <time>2026-05-02T11:48:40.000Z</time>
      </trkpt>
      <trkpt lat="44.79662" lon="0.83277">
        <ele>201.3</ele>
        <time>2026-05-02T11:48:41.000Z</time>
      </trkpt>
      <trkpt lat="44.79662" lon="0.83277">
        <ele>201.3</ele>
        <time>2026-05-02T11:48:42.000Z</time>
      </trkpt>
      <trkpt lat="44.79662" lon="0.83277">
        <ele>201.3</ele>
        <time>2026-05-02T11:48:43.000Z</time>
      </trkpt>
      <trkpt lat="44.79662" lon="0.83277">
        <ele>201.3</ele>
        <time>2026-05-02T11:48:44.000Z</time>
      </trkpt>
      <trkpt lat="44.79662" lon="0.83277">
        <ele>201.3</ele>
        <time>2026-05-02T11:48:45.000Z</time>
      </trkpt>
      <trkpt lat="44.79662" lon="0.83277">
        <ele>201.3</ele>
        <time>2026-05-02T11:48:46.000Z</time>
      </trkpt>
      <trkpt lat="44.79662" lon="0.83277">
        <ele>201.3</ele>
        <time>2026-05-02T11:48:47.000Z</time>
      </trkpt>
      <trkpt lat="44.79662" lon="0.83277">
        <ele>201.3</ele>
        <time>2026-05-02T11:48:48.000Z</time>
      </trkpt>
      <trkpt lat="44.79662" lon="0.83277">
        <ele>201.3</ele>
        <time>2026-05-02T11:48:49.000Z</time>
      </trkpt>
      <trkpt lat="44.79662" lon="0.83277">
        <ele>201.3</ele>
        <time>2026-05-02T11:48:50.000Z</time>
      </trkpt>
      <trkpt lat="44.79662" lon="0.83277">
        <ele>201.3</ele>
        <time>2026-05-02T11:48:51.000Z</time>
      </trkpt>
      <trkpt lat="44.79662" lon="0.83277">
        <ele>201.3</ele>
        <time>2026-05-02T11:48:52.000Z</time>
      </trkpt>
      <trkpt lat="44.79662" lon="0.83277">
        <ele>201.3</ele>
        <time>2026-05-02T11:48:53.000Z</time>
      </trkpt>
      <trkpt lat="44.79662" lon="0.83277">
        <ele>201.3</ele>
        <time>2026-05-02T11:48:54.000Z</time>
      </trkpt>
      <trkpt lat="44.79662" lon="0.83277">
        <ele>201.3</ele>
        <time>2026-05-02T11:48:55.000Z</time>
      </trkpt>
      <trkpt lat="44.79662" lon="0.83277">
        <ele>201.3</ele>
        <time>2026-05-02T11:48:56.000Z</time>
      </trkpt>
      <trkpt lat="44.79662" lon="0.83277">
        <ele>201.3</ele>
        <time>2026-05-02T11:48:57.000Z</time>
      </trkpt>
      <trkpt lat="44.79662" lon="0.83277">
        <ele>201.3</ele>
        <time>2026-05-02T11:48:58.000Z</time>
      </trkpt>
      <trkpt lat="44.79662" lon="0.83277">
        <ele>201.3</ele>
        <time>2026-05-02T11:48:59.000Z</time>
      </trkpt>
      <trkpt lat="44.79662" lon="0.83277">
        <ele>201.3</ele>
        <time>2026-05-02T11:49:00.000Z</time>
      </trkpt>
      <trkpt lat="44.79662" lon="0.83277">
        <ele>201.3</ele>
        <time>2026-05-02T11:49:01.000Z</time>
      </trkpt>
      <trkpt lat="44.79662" lon="0.83277">
        <ele>201.3</ele>
        <time>2026-05-02T11:49:02.000Z</time>
      </trkpt>
      <trkpt lat="44.79662" lon="0.83277">
        <ele>201.3</ele>
        <time>2026-05-02T11:49:03.000Z</time>
      </trkpt>
      <trkpt lat="44.79662" lon="0.83277">
        <ele>201.3</ele>
        <time>2026-05-02T11:49:04.000Z</time>
      </trkpt>
      <trkpt lat="44.79662" lon="0.83277">
        <ele>201.4</ele>
        <time>2026-05-02T11:49:05.000Z</time>
      </trkpt>
      <trkpt lat="44.79662" lon="0.83277">
        <ele>201.4</ele>
        <time>2026-05-02T11:49:06.000Z</time>
      </trkpt>
      <trkpt lat="44.79662" lon="0.83277">
        <ele>201.4</ele>
        <time>2026-05-02T11:49:07.000Z</time>
      </trkpt>
      <trkpt lat="44.79662" lon="0.83277">
        <ele>201.3</ele>
        <time>2026-05-02T11:49:08.000Z</time>
      </trkpt>
      <trkpt lat="44.79662" lon="0.83277">
        <ele>201.5</ele>
        <time>2026-05-02T11:49:09.000Z</time>
      </trkpt>
      <trkpt lat="44.79662" lon="0.83277">
        <ele>201.5</ele>
        <time>2026-05-02T11:49:10.000Z</time>
      </trkpt>
      <trkpt lat="44.79662" lon="0.83277">
        <ele>201.5</ele>
        <time>2026-05-02T11:49:11.000Z</time>
      </trkpt>
      <trkpt lat="44.79662" lon="0.83277">
        <ele>201.5</ele>
        <time>2026-05-02T11:49:12.000Z</time>
      </trkpt>
      <trkpt lat="44.79662" lon="0.83277">
        <ele>201.5</ele>
        <time>2026-05-02T11:49:13.000Z</time>
      </trkpt>
      <trkpt lat="44.79662" lon="0.83277">
        <ele>201.5</ele>
        <time>2026-05-02T11:49:14.000Z</time>
      </trkpt>
      <trkpt lat="44.79662" lon="0.83277">
        <ele>201.5</ele>
        <time>2026-05-02T11:49:15.000Z</time>
      </trkpt>
      <trkpt lat="44.79662" lon="0.83277">
        <ele>201.5</ele>
        <time>2026-05-02T11:49:16.000Z</time>
      </trkpt>
      <trkpt lat="44.79662" lon="0.83277">
        <ele>201.5</ele>
        <time>2026-05-02T11:49:17.000Z</time>
      </trkpt>
      <trkpt lat="44.79662" lon="0.83277">
        <ele>201.5</ele>
        <time>2026-05-02T11:49:18.000Z</time>
      </trkpt>
      <trkpt lat="44.79662" lon="0.83277">
        <ele>201.5</ele>
        <time>2026-05-02T11:49:19.000Z</time>
      </trkpt>
      <trkpt lat="44.79662" lon="0.83277">
        <ele>201.5</ele>
        <time>2026-05-02T11:49:20.000Z</time>
      </trkpt>
      <trkpt lat="44.79662" lon="0.83277">
        <ele>201.5</ele>
        <time>2026-05-02T11:49:21.000Z</time>
      </trkpt>
      <trkpt lat="44.79662" lon="0.83277">
        <ele>201.5</ele>
        <time>2026-05-02T11:49:22.000Z</time>
      </trkpt>
      <trkpt lat="44.79662" lon="0.83277">
        <ele>201.4</ele>
        <time>2026-05-02T11:49:23.000Z</time>
      </trkpt>
      <trkpt lat="44.79662" lon="0.83277">
        <ele>201.4</ele>
        <time>2026-05-02T11:49:24.000Z</time>
      </trkpt>
      <trkpt lat="44.79662" lon="0.83277">
        <ele>201.4</ele>
        <time>2026-05-02T11:49:25.000Z</time>
      </trkpt>
      <trkpt lat="44.79662" lon="0.83277">
        <ele>201.4</ele>
        <time>2026-05-02T11:49:26.000Z</time>
      </trkpt>
      <trkpt lat="44.79662" lon="0.83277">
        <ele>201.5</ele>
        <time>2026-05-02T11:49:27.000Z</time>
      </trkpt>
      <trkpt lat="44.79662" lon="0.83277">
        <ele>201.5</ele>
        <time>2026-05-02T11:49:28.000Z</time>
      </trkpt>
      <trkpt lat="44.79662" lon="0.83277">
        <ele>201.5</ele>
        <time>2026-05-02T11:49:29.000Z</time>
      </trkpt>
      <trkpt lat="44.79662" lon="0.83277">
        <ele>201.5</ele>
        <time>2026-05-02T11:49:30.000Z</time>
      </trkpt>
      <trkpt lat="44.79662" lon="0.83277">
        <ele>201.5</ele>
        <time>2026-05-02T11:49:31.000Z</time>
      </trkpt>
      <trkpt lat="44.79662" lon="0.83277">
        <ele>201.5</ele>
        <time>2026-05-02T11:49:32.000Z</time>
      </trkpt>
      <trkpt lat="44.79662" lon="0.83277">
        <ele>201.5</ele>
        <time>2026-05-02T11:49:33.000Z</time>
      </trkpt>
      <trkpt lat="44.79662" lon="0.83277">
        <ele>201.5</ele>
        <time>2026-05-02T11:49:34.000Z</time>
      </trkpt>
      <trkpt lat="44.79662" lon="0.83277">
        <ele>201.5</ele>
        <time>2026-05-02T11:49:35.000Z</time>
      </trkpt>
      <trkpt lat="44.79662" lon="0.83277">
        <ele>201.5</ele>
        <time>2026-05-02T11:49:36.000Z</time>
      </trkpt>
      <trkpt lat="44.79662" lon="0.83277">
        <ele>201.5</ele>
        <time>2026-05-02T11:49:37.000Z</time>
      </trkpt>
      <trkpt lat="44.79662" lon="0.83277">
        <ele>201.5</ele>
        <time>2026-05-02T11:49:38.000Z</time>
      </trkpt>
      <trkpt lat="44.79662" lon="0.83277">
        <ele>201.5</ele>
        <time>2026-05-02T11:49:39.000Z</time>
      </trkpt>
      <trkpt lat="44.79662" lon="0.83277">
        <ele>201.6</ele>
        <time>2026-05-02T11:49:40.000Z</time>
      </trkpt>
      <trkpt lat="44.79662" lon="0.83277">
        <ele>201.6</ele>
        <time>2026-05-02T11:49:41.000Z</time>
      </trkpt>
      <trkpt lat="44.79662" lon="0.83277">
        <ele>201.6</ele>
        <time>2026-05-02T11:49:42.000Z</time>
      </trkpt>
      <trkpt lat="44.79662" lon="0.83277">
        <ele>201.7</ele>
        <time>2026-05-02T11:49:43.000Z</time>
      </trkpt>
      <trkpt lat="44.79662" lon="0.83277">
        <ele>201.7</ele>
        <time>2026-05-02T11:49:44.000Z</time>
      </trkpt>
      <trkpt lat="44.79662" lon="0.83277">
        <ele>201.7</ele>
        <time>2026-05-02T11:49:45.000Z</time>
      </trkpt>
      <trkpt lat="44.79662" lon="0.83276">
        <ele>201.8</ele>
        <time>2026-05-02T11:49:46.000Z</time>
      </trkpt>
      <trkpt lat="44.79662" lon="0.83276">
        <ele>201.8</ele>
        <time>2026-05-02T11:49:47.000Z</time>
      </trkpt>
      <trkpt lat="44.79662" lon="0.83276">
        <ele>201.8</ele>
        <time>2026-05-02T11:49:48.000Z</time>
      </trkpt>
      <trkpt lat="44.79662" lon="0.83276">
        <ele>201.8</ele>
        <time>2026-05-02T11:49:49.000Z</time>
      </trkpt>
      <trkpt lat="44.79662" lon="0.83277">
        <ele>201.8</ele>
        <time>2026-05-02T11:49:50.000Z</time>
      </trkpt>
      <trkpt lat="44.79662" lon="0.83277">
        <ele>201.8</ele>
        <time>2026-05-02T11:49:51.000Z</time>
      </trkpt>
      <trkpt lat="44.79662" lon="0.83277">
        <ele>201.8</ele>
        <time>2026-05-02T11:49:52.000Z</time>
      </trkpt>
      <trkpt lat="44.79662" lon="0.83277">
        <ele>201.8</ele>
        <time>2026-05-02T11:49:53.000Z</time>
      </trkpt>
      <trkpt lat="44.79662" lon="0.83277">
        <ele>201.8</ele>
        <time>2026-05-02T11:49:54.000Z</time>
      </trkpt>
      <trkpt lat="44.79662" lon="0.83277">
        <ele>201.8</ele>
        <time>2026-05-02T11:49:55.000Z</time>
      </trkpt>
      <trkpt lat="44.79662" lon="0.83277">
        <ele>201.8</ele>
        <time>2026-05-02T11:49:56.000Z</time>
      </trkpt>
      <trkpt lat="44.79662" lon="0.83277">
        <ele>201.9</ele>
        <time>2026-05-02T11:49:57.000Z</time>
      </trkpt>
      <trkpt lat="44.79662" lon="0.83277">
        <ele>201.9</ele>
        <time>2026-05-02T11:49:58.000Z</time>
      </trkpt>
      <trkpt lat="44.79662" lon="0.83276">
        <ele>201.5</ele>
        <time>2026-05-02T11:50:00.000Z</time>
      </trkpt>
      <trkpt lat="44.79663" lon="0.83276">
        <ele>201.5</ele>
        <time>2026-05-02T11:50:01.000Z</time>
      </trkpt>
      <trkpt lat="44.79663" lon="0.83276">
        <ele>201.4</ele>
        <time>2026-05-02T11:50:02.000Z</time>
      </trkpt>
      <trkpt lat="44.79663" lon="0.83276">
        <ele>201.5</ele>
        <time>2026-05-02T11:50:03.000Z</time>
      </trkpt>
      <trkpt lat="44.79663" lon="0.83276">
        <ele>202</ele>
        <time>2026-05-02T11:50:04.000Z</time>
      </trkpt>
      <trkpt lat="44.79663" lon="0.83276">
        <ele>202.2</ele>
        <time>2026-05-02T11:50:05.000Z</time>
      </trkpt>
      <trkpt lat="44.79662" lon="0.83276">
        <ele>202.6</ele>
        <time>2026-05-02T11:50:06.000Z</time>
      </trkpt>
      <trkpt lat="44.79662" lon="0.83276">
        <ele>203.1</ele>
        <time>2026-05-02T11:50:07.000Z</time>
      </trkpt>
      <trkpt lat="44.79662" lon="0.83277">
        <ele>203.2</ele>
        <time>2026-05-02T11:50:08.000Z</time>
      </trkpt>
      <trkpt lat="44.79662" lon="0.83277">
        <ele>203.4</ele>
        <time>2026-05-02T11:50:09.000Z</time>
      </trkpt>
      <trkpt lat="44.79662" lon="0.83277">
        <ele>203.4</ele>
        <time>2026-05-02T11:50:10.000Z</time>
      </trkpt>
      <trkpt lat="44.79662" lon="0.83277">
        <ele>203.4</ele>
        <time>2026-05-02T11:50:11.000Z</time>
      </trkpt>
      <trkpt lat="44.79662" lon="0.83277">
        <ele>203.4</ele>
        <time>2026-05-02T11:50:12.000Z</time>
      </trkpt>
      <trkpt lat="44.79662" lon="0.83277">
        <ele>203.6</ele>
        <time>2026-05-02T11:50:13.000Z</time>
      </trkpt>
      <trkpt lat="44.79662" lon="0.83277">
        <ele>203.6</ele>
        <time>2026-05-02T11:50:14.000Z</time>
      </trkpt>
      <trkpt lat="44.79662" lon="0.83277">
        <ele>203.6</ele>
        <time>2026-05-02T11:50:15.000Z</time>
      </trkpt>
      <trkpt lat="44.79662" lon="0.83277">
        <ele>203.7</ele>
        <time>2026-05-02T11:50:16.000Z</time>
      </trkpt>
      <trkpt lat="44.79662" lon="0.83277">
        <ele>203.7</ele>
        <time>2026-05-02T11:50:17.000Z</time>
      </trkpt>
      <trkpt lat="44.79662" lon="0.83277">
        <ele>203.7</ele>
        <time>2026-05-02T11:50:18.000Z</time>
      </trkpt>
      <trkpt lat="44.79662" lon="0.83277">
        <ele>203.7</ele>
        <time>2026-05-02T11:50:19.000Z</time>
      </trkpt>
      <trkpt lat="44.79662" lon="0.83277">
        <ele>203.6</ele>
        <time>2026-05-02T11:50:20.000Z</time>
      </trkpt>
      <trkpt lat="44.79662" lon="0.83277">
        <ele>203.7</ele>
        <time>2026-05-02T11:50:21.000Z</time>
      </trkpt>
      <trkpt lat="44.79662" lon="0.83277">
        <ele>203.7</ele>
        <time>2026-05-02T11:50:22.000Z</time>
      </trkpt>
      <trkpt lat="44.79662" lon="0.83277">
        <ele>203.8</ele>
        <time>2026-05-02T11:50:23.000Z</time>
      </trkpt>
      <trkpt lat="44.79662" lon="0.83277">
        <ele>203.7</ele>
        <time>2026-05-02T11:50:24.000Z</time>
      </trkpt>
      <trkpt lat="44.79662" lon="0.83277">
        <ele>203.7</ele>
        <time>2026-05-02T11:50:25.000Z</time>
      </trkpt>
      <trkpt lat="44.79662" lon="0.83277">
        <ele>203.7</ele>
        <time>2026-05-02T11:50:26.000Z</time>
      </trkpt>
      <trkpt lat="44.79662" lon="0.83277">
        <ele>203.7</ele>
        <time>2026-05-02T11:50:27.000Z</time>
      </trkpt>
      <trkpt lat="44.79662" lon="0.83277">
        <ele>203.8</ele>
        <time>2026-05-02T11:50:28.000Z</time>
      </trkpt>
      <trkpt lat="44.79662" lon="0.83277">
        <ele>203.8</ele>
        <time>2026-05-02T11:50:29.000Z</time>
      </trkpt>
      <trkpt lat="44.79662" lon="0.83277">
        <ele>203.8</ele>
        <time>2026-05-02T11:50:30.000Z</time>
      </trkpt>
      <trkpt lat="44.79662" lon="0.83277">
        <ele>203.8</ele>
        <time>2026-05-02T11:50:31.000Z</time>
      </trkpt>
      <trkpt lat="44.79662" lon="0.83277">
        <ele>203.8</ele>
        <time>2026-05-02T11:50:32.000Z</time>
      </trkpt>
      <trkpt lat="44.79662" lon="0.83277">
        <ele>203.8</ele>
        <time>2026-05-02T11:50:33.000Z</time>
      </trkpt>
      <trkpt lat="44.79662" lon="0.83277">
        <ele>203.8</ele>
        <time>2026-05-02T11:50:34.000Z</time>
      </trkpt>
      <trkpt lat="44.79662" lon="0.83277">
        <ele>203.8</ele>
        <time>2026-05-02T11:50:35.000Z</time>
      </trkpt>
      <trkpt lat="44.79662" lon="0.83277">
        <ele>203.8</ele>
        <time>2026-05-02T11:50:36.000Z</time>
      </trkpt>
      <trkpt lat="44.79662" lon="0.83277">
        <ele>203.8</ele>
        <time>2026-05-02T11:50:37.000Z</time>
      </trkpt>
      <trkpt lat="44.79662" lon="0.83277">
        <ele>203.8</ele>
        <time>2026-05-02T11:50:38.000Z</time>
      </trkpt>
      <trkpt lat="44.79662" lon="0.83277">
        <ele>203.8</ele>
        <time>2026-05-02T11:50:39.000Z</time>
      </trkpt>
      <trkpt lat="44.79662" lon="0.83277">
        <ele>203.8</ele>
        <time>2026-05-02T11:50:40.000Z</time>
      </trkpt>
      <trkpt lat="44.79662" lon="0.83277">
        <ele>204.3</ele>
        <time>2026-05-02T11:50:41.000Z</time>
      </trkpt>
      <trkpt lat="44.79661" lon="0.83277">
        <ele>205.9</ele>
        <time>2026-05-02T11:50:42.000Z</time>
      </trkpt>
      <trkpt lat="44.7966" lon="0.83278">
        <ele>206.7</ele>
        <time>2026-05-02T11:50:43.000Z</time>
      </trkpt>
      <trkpt lat="44.7966" lon="0.83279">
        <ele>207.9</ele>
        <time>2026-05-02T11:50:44.000Z</time>
      </trkpt>
      <trkpt lat="44.7966" lon="0.83279">
        <ele>207.8</ele>
        <time>2026-05-02T11:50:45.000Z</time>
      </trkpt>
      <trkpt lat="44.79659" lon="0.83279">
        <ele>207.8</ele>
        <time>2026-05-02T11:50:46.000Z</time>
      </trkpt>
      <trkpt lat="44.7966" lon="0.83278">
        <ele>208.9</ele>
        <time>2026-05-02T11:50:47.000Z</time>
      </trkpt>
      <trkpt lat="44.7966" lon="0.83278">
        <ele>209.2</ele>
        <time>2026-05-02T11:50:48.000Z</time>
      </trkpt>
      <trkpt lat="44.7966" lon="0.83277">
        <ele>209.2</ele>
        <time>2026-05-02T11:50:49.000Z</time>
      </trkpt>
      <trkpt lat="44.7966" lon="0.83277">
        <ele>209.6</ele>
        <time>2026-05-02T11:50:50.000Z</time>
      </trkpt>
      <trkpt lat="44.7966" lon="0.83277">
        <ele>210.7</ele>
        <time>2026-05-02T11:50:51.000Z</time>
      </trkpt>
      <trkpt lat="44.7966" lon="0.83276">
        <ele>211</ele>
        <time>2026-05-02T11:50:52.000Z</time>
      </trkpt>
      <trkpt lat="44.79661" lon="0.83276">
        <ele>211.5</ele>
        <time>2026-05-02T11:50:53.000Z</time>
      </trkpt>
      <trkpt lat="44.79661" lon="0.83276">
        <ele>211.9</ele>
        <time>2026-05-02T11:50:54.000Z</time>
      </trkpt>
      <trkpt lat="44.79661" lon="0.83276">
        <ele>212</ele>
        <time>2026-05-02T11:50:55.000Z</time>
      </trkpt>
      <trkpt lat="44.79661" lon="0.83276">
        <ele>212</ele>
        <time>2026-05-02T11:50:56.000Z</time>
      </trkpt>
      <trkpt lat="44.79661" lon="0.83276">
        <ele>211.9</ele>
        <time>2026-05-02T11:50:57.000Z</time>
      </trkpt>
      <trkpt lat="44.79661" lon="0.83276">
        <ele>211.8</ele>
        <time>2026-05-02T11:50:58.000Z</time>
      </trkpt>
      <trkpt lat="44.79661" lon="0.83276">
        <ele>211.8</ele>
        <time>2026-05-02T11:50:59.000Z</time>
      </trkpt>
      <trkpt lat="44.79661" lon="0.83276">
        <ele>211.8</ele>
        <time>2026-05-02T11:51:00.000Z</time>
      </trkpt>
      <trkpt lat="44.79661" lon="0.83276">
        <ele>211.8</ele>
        <time>2026-05-02T11:51:01.000Z</time>
      </trkpt>
      <trkpt lat="44.79661" lon="0.83276">
        <ele>211.7</ele>
        <time>2026-05-02T11:51:02.000Z</time>
      </trkpt>
      <trkpt lat="44.79661" lon="0.83276">
        <ele>211.8</ele>
        <time>2026-05-02T11:51:03.000Z</time>
      </trkpt>
      <trkpt lat="44.79661" lon="0.83276">
        <ele>211.9</ele>
        <time>2026-05-02T11:51:04.000Z</time>
      </trkpt>
      <trkpt lat="44.79661" lon="0.83276">
        <ele>211.9</ele>
        <time>2026-05-02T11:51:05.000Z</time>
      </trkpt>
      <trkpt lat="44.79661" lon="0.83276">
        <ele>211.9</ele>
        <time>2026-05-02T11:51:06.000Z</time>
      </trkpt>
      <trkpt lat="44.79661" lon="0.83276">
        <ele>211.9</ele>
        <time>2026-05-02T11:51:07.000Z</time>
      </trkpt>
      <trkpt lat="44.79661" lon="0.83276">
        <ele>211.9</ele>
        <time>2026-05-02T11:51:08.000Z</time>
      </trkpt>
      <trkpt lat="44.79661" lon="0.83276">
        <ele>211.9</ele>
        <time>2026-05-02T11:51:09.000Z</time>
      </trkpt>
      <trkpt lat="44.79661" lon="0.83276">
        <ele>211.9</ele>
        <time>2026-05-02T11:51:10.000Z</time>
      </trkpt>
      <trkpt lat="44.79661" lon="0.83276">
        <ele>211.9</ele>
        <time>2026-05-02T11:51:11.000Z</time>
      </trkpt>
      <trkpt lat="44.79661" lon="0.83276">
        <ele>211.9</ele>
        <time>2026-05-02T11:51:12.000Z</time>
      </trkpt>
      <trkpt lat="44.79661" lon="0.83276">
        <ele>211.9</ele>
        <time>2026-05-02T11:51:13.000Z</time>
      </trkpt>
      <trkpt lat="44.79661" lon="0.83276">
        <ele>211.9</ele>
        <time>2026-05-02T11:51:14.000Z</time>
      </trkpt>
      <trkpt lat="44.79661" lon="0.83276">
        <ele>211.9</ele>
        <time>2026-05-02T11:51:15.000Z</time>
      </trkpt>
      <trkpt lat="44.79661" lon="0.83276">
        <ele>211.9</ele>
        <time>2026-05-02T11:51:16.000Z</time>
      </trkpt>
      <trkpt lat="44.79661" lon="0.83276">
        <ele>211.9</ele>
        <time>2026-05-02T11:51:17.000Z</time>
      </trkpt>
      <trkpt lat="44.79661" lon="0.83276">
        <ele>211.9</ele>
        <time>2026-05-02T11:51:18.000Z</time>
      </trkpt>
      <trkpt lat="44.79661" lon="0.83276">
        <ele>211.9</ele>
        <time>2026-05-02T11:51:19.000Z</time>
      </trkpt>
      <trkpt lat="44.79661" lon="0.83276">
        <ele>211.9</ele>
        <time>2026-05-02T11:51:20.000Z</time>
      </trkpt>
      <trkpt lat="44.79661" lon="0.83276">
        <ele>211.9</ele>
        <time>2026-05-02T11:51:21.000Z</time>
      </trkpt>
      <trkpt lat="44.79661" lon="0.83276">
        <ele>211.9</ele>
        <time>2026-05-02T11:51:22.000Z</time>
      </trkpt>
      <trkpt lat="44.79661" lon="0.83276">
        <ele>211.9</ele>
        <time>2026-05-02T11:51:23.000Z</time>
      </trkpt>
      <trkpt lat="44.79661" lon="0.83276">
        <ele>211.9</ele>
        <time>2026-05-02T11:51:24.000Z</time>
      </trkpt>
      <trkpt lat="44.79661" lon="0.83276">
        <ele>211.9</ele>
        <time>2026-05-02T11:51:25.000Z</time>
      </trkpt>
      <trkpt lat="44.79661" lon="0.83276">
        <ele>211.9</ele>
        <time>2026-05-02T11:51:26.000Z</time>
      </trkpt>
      <trkpt lat="44.79661" lon="0.83276">
        <ele>211.9</ele>
        <time>2026-05-02T11:51:27.000Z</time>
      </trkpt>
      <trkpt lat="44.79661" lon="0.83276">
        <ele>211.9</ele>
        <time>2026-05-02T11:51:28.000Z</time>
      </trkpt>
      <trkpt lat="44.79661" lon="0.83276">
        <ele>211.9</ele>
        <time>2026-05-02T11:51:29.000Z</time>
      </trkpt>
      <trkpt lat="44.79661" lon="0.83276">
        <ele>211.9</ele>
        <time>2026-05-02T11:51:30.000Z</time>
      </trkpt>
      <trkpt lat="44.79661" lon="0.83276">
        <ele>211.9</ele>
        <time>2026-05-02T11:51:31.000Z</time>
      </trkpt>
      <trkpt lat="44.79661" lon="0.83276">
        <ele>211.9</ele>
        <time>2026-05-02T11:51:32.000Z</time>
      </trkpt>
      <trkpt lat="44.79661" lon="0.83276">
        <ele>211.9</ele>
        <time>2026-05-02T11:51:33.000Z</time>
      </trkpt>
      <trkpt lat="44.79661" lon="0.83277">
        <ele>211.1</ele>
        <time>2026-05-02T11:51:34.000Z</time>
      </trkpt>
      <trkpt lat="44.79661" lon="0.83277">
        <ele>211.4</ele>
        <time>2026-05-02T11:51:35.000Z</time>
      </trkpt>
      <trkpt lat="44.79661" lon="0.83276">
        <ele>215.2</ele>
        <time>2026-05-02T11:51:36.000Z</time>
      </trkpt>
      <trkpt lat="44.79661" lon="0.83275">
        <ele>215.6</ele>
        <time>2026-05-02T11:51:37.000Z</time>
      </trkpt>
      <trkpt lat="44.79661" lon="0.83275">
        <ele>215.7</ele>
        <time>2026-05-02T11:51:38.000Z</time>
      </trkpt>
      <trkpt lat="44.79662" lon="0.83274">
        <ele>216.1</ele>
        <time>2026-05-02T11:51:39.000Z</time>
      </trkpt>
      <trkpt lat="44.79662" lon="0.83274">
        <ele>215.4</ele>
        <time>2026-05-02T11:51:40.000Z</time>
      </trkpt>
      <trkpt lat="44.79662" lon="0.83275">
        <ele>214.8</ele>
        <time>2026-05-02T11:51:41.000Z</time>
      </trkpt>
      <trkpt lat="44.79661" lon="0.83275">
        <ele>214.3</ele>
        <time>2026-05-02T11:51:42.000Z</time>
      </trkpt>
      <trkpt lat="44.79662" lon="0.83276">
        <ele>213.1</ele>
        <time>2026-05-02T11:51:43.000Z</time>
      </trkpt>
      <trkpt lat="44.79662" lon="0.83276">
        <ele>212.2</ele>
        <time>2026-05-02T11:51:44.000Z</time>
      </trkpt>
      <trkpt lat="44.79666" lon="0.83274">
        <ele>211.8</ele>
        <time>2026-05-02T11:51:45.000Z</time>
      </trkpt>
      <trkpt lat="44.79667" lon="0.83274">
        <ele>212.6</ele>
        <time>2026-05-02T11:51:46.000Z</time>
      </trkpt>
      <trkpt lat="44.79668" lon="0.83274">
        <ele>212.6</ele>
        <time>2026-05-02T11:51:47.000Z</time>
      </trkpt>
      <trkpt lat="44.79668" lon="0.83274">
        <ele>212.3</ele>
        <time>2026-05-02T11:51:48.000Z</time>
      </trkpt>
      <trkpt lat="44.79668" lon="0.83274">
        <ele>213</ele>
        <time>2026-05-02T11:51:49.000Z</time>
      </trkpt>
      <trkpt lat="44.79668" lon="0.83275">
        <ele>212</ele>
        <time>2026-05-02T11:51:50.000Z</time>
      </trkpt>
      <trkpt lat="44.79667" lon="0.83275">
        <ele>212.8</ele>
        <time>2026-05-02T11:51:51.000Z</time>
      </trkpt>
      <trkpt lat="44.79666" lon="0.83274">
        <ele>213.3</ele>
        <time>2026-05-02T11:51:52.000Z</time>
      </trkpt>
      <trkpt lat="44.79666" lon="0.83273">
        <ele>213.4</ele>
        <time>2026-05-02T11:51:53.000Z</time>
      </trkpt>
      <trkpt lat="44.79667" lon="0.83273">
        <ele>213.3</ele>
        <time>2026-05-02T11:51:54.000Z</time>
      </trkpt>
      <trkpt lat="44.79667" lon="0.83273">
        <ele>213.2</ele>
        <time>2026-05-02T11:51:55.000Z</time>
      </trkpt>
      <trkpt lat="44.79666" lon="0.83274">
        <ele>213.8</ele>
        <time>2026-05-02T11:51:56.000Z</time>
      </trkpt>
      <trkpt lat="44.79666" lon="0.83274">
        <ele>213.7</ele>
        <time>2026-05-02T11:51:57.000Z</time>
      </trkpt>
      <trkpt lat="44.79666" lon="0.83274">
        <ele>213.5</ele>
        <time>2026-05-02T11:51:58.000Z</time>
      </trkpt>
      <trkpt lat="44.79666" lon="0.83275">
        <ele>213.4</ele>
        <time>2026-05-02T11:51:59.000Z</time>
      </trkpt>
      <trkpt lat="44.79666" lon="0.83275">
        <ele>213.2</ele>
        <time>2026-05-02T11:52:00.000Z</time>
      </trkpt>
      <trkpt lat="44.79666" lon="0.83275">
        <ele>213.2</ele>
        <time>2026-05-02T11:52:01.000Z</time>
      </trkpt>
      <trkpt lat="44.79667" lon="0.83275">
        <ele>212.9</ele>
        <time>2026-05-02T11:52:02.000Z</time>
      </trkpt>
      <trkpt lat="44.79667" lon="0.83276">
        <ele>212.3</ele>
        <time>2026-05-02T11:52:03.000Z</time>
      </trkpt>
      <trkpt lat="44.79668" lon="0.83277">
        <ele>210.3</ele>
        <time>2026-05-02T11:52:04.000Z</time>
      </trkpt>
      <trkpt lat="44.79669" lon="0.83279">
        <ele>210.8</ele>
        <time>2026-05-02T11:52:05.000Z</time>
      </trkpt>
      <trkpt lat="44.79669" lon="0.83279">
        <ele>211</ele>
        <time>2026-05-02T11:52:06.000Z</time>
      </trkpt>
      <trkpt lat="44.7967" lon="0.83279">
        <ele>211</ele>
        <time>2026-05-02T11:52:07.000Z</time>
      </trkpt>
      <trkpt lat="44.7967" lon="0.83279">
        <ele>210.9</ele>
        <time>2026-05-02T11:52:08.000Z</time>
      </trkpt>
      <trkpt lat="44.79671" lon="0.83279">
        <ele>209</ele>
        <time>2026-05-02T11:52:09.000Z</time>
      </trkpt>
      <trkpt lat="44.79671" lon="0.83279">
        <ele>209.1</ele>
        <time>2026-05-02T11:52:10.000Z</time>
      </trkpt>
      <trkpt lat="44.79672" lon="0.83279">
        <ele>208.6</ele>
        <time>2026-05-02T11:52:11.000Z</time>
      </trkpt>
      <trkpt lat="44.79673" lon="0.83279">
        <ele>208.4</ele>
        <time>2026-05-02T11:52:12.000Z</time>
      </trkpt>
      <trkpt lat="44.79674" lon="0.83278">
        <ele>208.5</ele>
        <time>2026-05-02T11:52:13.000Z</time>
      </trkpt>
      <trkpt lat="44.79674" lon="0.83277">
        <ele>208</ele>
        <time>2026-05-02T11:52:14.000Z</time>
      </trkpt>
      <trkpt lat="44.79675" lon="0.83276">
        <ele>206.7</ele>
        <time>2026-05-02T11:52:15.000Z</time>
      </trkpt>
      <trkpt lat="44.79675" lon="0.83274">
        <ele>206</ele>
        <time>2026-05-02T11:52:16.000Z</time>
      </trkpt>
      <trkpt lat="44.79676" lon="0.83274">
        <ele>206</ele>
        <time>2026-05-02T11:52:17.000Z</time>
      </trkpt>
      <trkpt lat="44.79676" lon="0.83274">
        <ele>206</ele>
        <time>2026-05-02T11:52:18.000Z</time>
      </trkpt>
      <trkpt lat="44.79676" lon="0.83274">
        <ele>206</ele>
        <time>2026-05-02T11:52:19.000Z</time>
      </trkpt>
      <trkpt lat="44.79676" lon="0.83274">
        <ele>206</ele>
        <time>2026-05-02T11:52:20.000Z</time>
      </trkpt>
      <trkpt lat="44.79676" lon="0.83274">
        <ele>206</ele>
        <time>2026-05-02T11:52:21.000Z</time>
      </trkpt>
      <trkpt lat="44.79676" lon="0.83273">
        <ele>205.8</ele>
        <time>2026-05-02T11:52:22.000Z</time>
      </trkpt>
      <trkpt lat="44.79676" lon="0.83273">
        <ele>205.9</ele>
        <time>2026-05-02T11:52:23.000Z</time>
      </trkpt>
      <trkpt lat="44.79676" lon="0.83272">
        <ele>205.9</ele>
        <time>2026-05-02T11:52:24.000Z</time>
      </trkpt>
      <trkpt lat="44.79675" lon="0.83272">
        <ele>202.9</ele>
        <time>2026-05-02T11:52:25.000Z</time>
      </trkpt>
      <trkpt lat="44.79674" lon="0.83271">
        <ele>203</ele>
        <time>2026-05-02T11:52:26.000Z</time>
      </trkpt>
      <trkpt lat="44.79674" lon="0.83271">
        <ele>203</ele>
        <time>2026-05-02T11:52:27.000Z</time>
      </trkpt>
      <trkpt lat="44.79674" lon="0.83271">
        <ele>203</ele>
        <time>2026-05-02T11:52:28.000Z</time>
      </trkpt>
      <trkpt lat="44.79674" lon="0.83271">
        <ele>203</ele>
        <time>2026-05-02T11:52:29.000Z</time>
      </trkpt>
      <trkpt lat="44.79673" lon="0.83269">
        <ele>200.1</ele>
        <time>2026-05-02T11:52:30.000Z</time>
      </trkpt>
      <trkpt lat="44.79674" lon="0.83268">
        <ele>200.7</ele>
        <time>2026-05-02T11:52:31.000Z</time>
      </trkpt>
      <trkpt lat="44.79675" lon="0.83267">
        <ele>201.8</ele>
        <time>2026-05-02T11:52:32.000Z</time>
      </trkpt>
      <trkpt lat="44.79675" lon="0.83266">
        <ele>201.8</ele>
        <time>2026-05-02T11:52:33.000Z</time>
      </trkpt>
      <trkpt lat="44.79675" lon="0.83266">
        <ele>201.7</ele>
        <time>2026-05-02T11:52:34.000Z</time>
      </trkpt>
      <trkpt lat="44.79676" lon="0.83266">
        <ele>202</ele>
        <time>2026-05-02T11:52:35.000Z</time>
      </trkpt>
      <trkpt lat="44.79677" lon="0.83266">
        <ele>202.6</ele>
        <time>2026-05-02T11:52:36.000Z</time>
      </trkpt>
      <trkpt lat="44.79678" lon="0.83267">
        <ele>203.4</ele>
        <time>2026-05-02T11:52:37.000Z</time>
      </trkpt>
      <trkpt lat="44.79679" lon="0.83267">
        <ele>204.7</ele>
        <time>2026-05-02T11:52:38.000Z</time>
      </trkpt>
      <trkpt lat="44.79681" lon="0.83267">
        <ele>204.5</ele>
        <time>2026-05-02T11:52:39.000Z</time>
      </trkpt>
      <trkpt lat="44.79683" lon="0.83267">
        <ele>204.4</ele>
        <time>2026-05-02T11:52:40.000Z</time>
      </trkpt>
      <trkpt lat="44.79685" lon="0.83266">
        <ele>204.4</ele>
        <time>2026-05-02T11:52:41.000Z</time>
      </trkpt>
      <trkpt lat="44.79686" lon="0.83266">
        <ele>204.6</ele>
        <time>2026-05-02T11:52:42.000Z</time>
      </trkpt>
      <trkpt lat="44.79687" lon="0.83266">
        <ele>206.4</ele>
        <time>2026-05-02T11:52:43.000Z</time>
      </trkpt>
      <trkpt lat="44.79688" lon="0.83266">
        <ele>206.1</ele>
        <time>2026-05-02T11:52:44.000Z</time>
      </trkpt>
      <trkpt lat="44.79688" lon="0.83267">
        <ele>205.7</ele>
        <time>2026-05-02T11:52:45.000Z</time>
      </trkpt>
      <trkpt lat="44.79689" lon="0.83268">
        <ele>205.3</ele>
        <time>2026-05-02T11:52:46.000Z</time>
      </trkpt>
      <trkpt lat="44.7969" lon="0.83268">
        <ele>205.2</ele>
        <time>2026-05-02T11:52:47.000Z</time>
      </trkpt>
      <trkpt lat="44.79691" lon="0.83269">
        <ele>205.4</ele>
        <time>2026-05-02T11:52:48.000Z</time>
      </trkpt>
      <trkpt lat="44.79692" lon="0.8327">
        <ele>205.4</ele>
        <time>2026-05-02T11:52:49.000Z</time>
      </trkpt>
      <trkpt lat="44.79693" lon="0.8327">
        <ele>206.6</ele>
        <time>2026-05-02T11:52:50.000Z</time>
      </trkpt>
      <trkpt lat="44.79694" lon="0.83271">
        <ele>206.9</ele>
        <time>2026-05-02T11:52:51.000Z</time>
      </trkpt>
      <trkpt lat="44.79695" lon="0.83274">
        <ele>205.3</ele>
        <time>2026-05-02T11:52:52.000Z</time>
      </trkpt>
      <trkpt lat="44.79695" lon="0.83277">
        <ele>204.3</ele>
        <time>2026-05-02T11:52:53.000Z</time>
      </trkpt>
      <trkpt lat="44.79694" lon="0.8328">
        <ele>202.2</ele>
        <time>2026-05-02T11:52:54.000Z</time>
      </trkpt>
      <trkpt lat="44.79693" lon="0.83281">
        <ele>202.4</ele>
        <time>2026-05-02T11:52:55.000Z</time>
      </trkpt>
      <trkpt lat="44.79692" lon="0.83283">
        <ele>202.4</ele>
        <time>2026-05-02T11:52:56.000Z</time>
      </trkpt>
      <trkpt lat="44.7969" lon="0.83283">
        <ele>202.6</ele>
        <time>2026-05-02T11:52:57.000Z</time>
      </trkpt>
      <trkpt lat="44.79689" lon="0.83284">
        <ele>202.4</ele>
        <time>2026-05-02T11:52:58.000Z</time>
      </trkpt>
      <trkpt lat="44.79688" lon="0.83285">
        <ele>201.3</ele>
        <time>2026-05-02T11:52:59.000Z</time>
      </trkpt>
      <trkpt lat="44.79686" lon="0.83287">
        <ele>200.1</ele>
        <time>2026-05-02T11:53:00.000Z</time>
      </trkpt>
      <trkpt lat="44.79685" lon="0.83287">
        <ele>200</ele>
        <time>2026-05-02T11:53:01.000Z</time>
      </trkpt>
      <trkpt lat="44.79684" lon="0.83288">
        <ele>200.3</ele>
        <time>2026-05-02T11:53:02.000Z</time>
      </trkpt>
      <trkpt lat="44.79683" lon="0.83289">
        <ele>199.5</ele>
        <time>2026-05-02T11:53:03.000Z</time>
      </trkpt>
      <trkpt lat="44.79682" lon="0.83291">
        <ele>199.8</ele>
        <time>2026-05-02T11:53:04.000Z</time>
      </trkpt>
      <trkpt lat="44.79681" lon="0.83292">
        <ele>199.5</ele>
        <time>2026-05-02T11:53:05.000Z</time>
      </trkpt>
      <trkpt lat="44.7968" lon="0.83293">
        <ele>199.7</ele>
        <time>2026-05-02T11:53:06.000Z</time>
      </trkpt>
      <trkpt lat="44.79678" lon="0.83294">
        <ele>199.7</ele>
        <time>2026-05-02T11:53:07.000Z</time>
      </trkpt>
      <trkpt lat="44.79677" lon="0.83295">
        <ele>199.2</ele>
        <time>2026-05-02T11:53:08.000Z</time>
      </trkpt>
      <trkpt lat="44.79675" lon="0.83295">
        <ele>199.4</ele>
        <time>2026-05-02T11:53:09.000Z</time>
      </trkpt>
      <trkpt lat="44.79673" lon="0.83294">
        <ele>197.7</ele>
        <time>2026-05-02T11:53:10.000Z</time>
      </trkpt>
      <trkpt lat="44.79672" lon="0.83294">
        <ele>197.2</ele>
        <time>2026-05-02T11:53:11.000Z</time>
      </trkpt>
      <trkpt lat="44.7967" lon="0.83294">
        <ele>196.5</ele>
        <time>2026-05-02T11:53:12.000Z</time>
      </trkpt>
      <trkpt lat="44.79669" lon="0.83294">
        <ele>197.4</ele>
        <time>2026-05-02T11:53:13.000Z</time>
      </trkpt>
      <trkpt lat="44.79667" lon="0.83294">
        <ele>198.3</ele>
        <time>2026-05-02T11:53:14.000Z</time>
      </trkpt>
      <trkpt lat="44.79666" lon="0.83293">
        <ele>198.7</ele>
        <time>2026-05-02T11:53:15.000Z</time>
      </trkpt>
      <trkpt lat="44.79665" lon="0.83293">
        <ele>198.5</ele>
        <time>2026-05-02T11:53:16.000Z</time>
      </trkpt>
      <trkpt lat="44.79664" lon="0.83293">
        <ele>198.5</ele>
        <time>2026-05-02T11:53:17.000Z</time>
      </trkpt>
      <trkpt lat="44.79663" lon="0.83293">
        <ele>197.9</ele>
        <time>2026-05-02T11:53:18.000Z</time>
      </trkpt>
      <trkpt lat="44.79662" lon="0.8329">
        <ele>197.2</ele>
        <time>2026-05-02T11:53:19.000Z</time>
      </trkpt>
      <trkpt lat="44.79661" lon="0.83286">
        <ele>196.8</ele>
        <time>2026-05-02T11:53:20.000Z</time>
      </trkpt>
      <trkpt lat="44.79659" lon="0.83284">
        <ele>194.4</ele>
        <time>2026-05-02T11:53:21.000Z</time>
      </trkpt>
      <trkpt lat="44.79658" lon="0.83283">
        <ele>193.7</ele>
        <time>2026-05-02T11:53:22.000Z</time>
      </trkpt>
      <trkpt lat="44.79657" lon="0.83281">
        <ele>193.8</ele>
        <time>2026-05-02T11:53:23.000Z</time>
      </trkpt>
      <trkpt lat="44.79655" lon="0.83279">
        <ele>194.8</ele>
        <time>2026-05-02T11:53:24.000Z</time>
      </trkpt>
      <trkpt lat="44.79654" lon="0.83278">
        <ele>195.6</ele>
        <time>2026-05-02T11:53:25.000Z</time>
      </trkpt>
      <trkpt lat="44.79653" lon="0.83277">
        <ele>195.6</ele>
        <time>2026-05-02T11:53:26.000Z</time>
      </trkpt>
      <trkpt lat="44.79652" lon="0.83276">
        <ele>195.4</ele>
        <time>2026-05-02T11:53:27.000Z</time>
      </trkpt>
      <trkpt lat="44.7965" lon="0.83275">
        <ele>196</ele>
        <time>2026-05-02T11:53:28.000Z</time>
      </trkpt>
      <trkpt lat="44.79649" lon="0.83274">
        <ele>196.6</ele>
        <time>2026-05-02T11:53:29.000Z</time>
      </trkpt>
      <trkpt lat="44.79648" lon="0.83274">
        <ele>196.5</ele>
        <time>2026-05-02T11:53:30.000Z</time>
      </trkpt>
      <trkpt lat="44.79647" lon="0.83273">
        <ele>197</ele>
        <time>2026-05-02T11:53:31.000Z</time>
      </trkpt>
      <trkpt lat="44.79646" lon="0.83273">
        <ele>197.4</ele>
        <time>2026-05-02T11:53:32.000Z</time>
      </trkpt>
      <trkpt lat="44.79645" lon="0.83273">
        <ele>198.4</ele>
        <time>2026-05-02T11:53:33.000Z</time>
      </trkpt>
      <trkpt lat="44.79644" lon="0.83272">
        <ele>198.2</ele>
        <time>2026-05-02T11:53:34.000Z</time>
      </trkpt>
      <trkpt lat="44.79643" lon="0.83272">
        <ele>198.7</ele>
        <time>2026-05-02T11:53:35.000Z</time>
      </trkpt>
      <trkpt lat="44.79641" lon="0.83271">
        <ele>198.9</ele>
        <time>2026-05-02T11:53:36.000Z</time>
      </trkpt>
      <trkpt lat="44.7964" lon="0.83271">
        <ele>198.9</ele>
        <time>2026-05-02T11:53:37.000Z</time>
      </trkpt>
      <trkpt lat="44.7964" lon="0.8327">
        <ele>198.5</ele>
        <time>2026-05-02T11:53:38.000Z</time>
      </trkpt>
      <trkpt lat="44.79639" lon="0.83269">
        <ele>198.6</ele>
        <time>2026-05-02T11:53:39.000Z</time>
      </trkpt>
      <trkpt lat="44.79638" lon="0.83268">
        <ele>199</ele>
        <time>2026-05-02T11:53:40.000Z</time>
      </trkpt>
      <trkpt lat="44.79637" lon="0.83268">
        <ele>199.2</ele>
        <time>2026-05-02T11:53:41.000Z</time>
      </trkpt>
      <trkpt lat="44.79636" lon="0.83267">
        <ele>199.9</ele>
        <time>2026-05-02T11:53:42.000Z</time>
      </trkpt>
      <trkpt lat="44.79634" lon="0.83266">
        <ele>199.2</ele>
        <time>2026-05-02T11:53:43.000Z</time>
      </trkpt>
      <trkpt lat="44.79632" lon="0.83265">
        <ele>199.1</ele>
        <time>2026-05-02T11:53:44.000Z</time>
      </trkpt>
      <trkpt lat="44.79629" lon="0.83263">
        <ele>199.3</ele>
        <time>2026-05-02T11:53:45.000Z</time>
      </trkpt>
      <trkpt lat="44.79627" lon="0.83262">
        <ele>199.3</ele>
        <time>2026-05-02T11:53:46.000Z</time>
      </trkpt>
      <trkpt lat="44.79625" lon="0.83261">
        <ele>199.4</ele>
        <time>2026-05-02T11:53:47.000Z</time>
      </trkpt>
      <trkpt lat="44.79623" lon="0.8326">
        <ele>199</ele>
        <time>2026-05-02T11:53:48.000Z</time>
      </trkpt>
      <trkpt lat="44.79622" lon="0.83258">
        <ele>200.2</ele>
        <time>2026-05-02T11:53:49.000Z</time>
      </trkpt>
      <trkpt lat="44.79621" lon="0.83257">
        <ele>199.1</ele>
        <time>2026-05-02T11:53:50.000Z</time>
      </trkpt>
      <trkpt lat="44.7962" lon="0.83255">
        <ele>198.7</ele>
        <time>2026-05-02T11:53:51.000Z</time>
      </trkpt>
      <trkpt lat="44.79618" lon="0.83255">
        <ele>197.8</ele>
        <time>2026-05-02T11:53:52.000Z</time>
      </trkpt>
      <trkpt lat="44.79616" lon="0.83254">
        <ele>197.7</ele>
        <time>2026-05-02T11:53:53.000Z</time>
      </trkpt>
      <trkpt lat="44.79614" lon="0.83252">
        <ele>197.1</ele>
        <time>2026-05-02T11:53:54.000Z</time>
      </trkpt>
      <trkpt lat="44.79612" lon="0.83251">
        <ele>197.1</ele>
        <time>2026-05-02T11:53:55.000Z</time>
      </trkpt>
      <trkpt lat="44.79611" lon="0.8325">
        <ele>196.8</ele>
        <time>2026-05-02T11:53:56.000Z</time>
      </trkpt>
      <trkpt lat="44.79609" lon="0.83251">
        <ele>200.6</ele>
        <time>2026-05-02T11:53:57.000Z</time>
      </trkpt>
      <trkpt lat="44.79607" lon="0.83252">
        <ele>201.1</ele>
        <time>2026-05-02T11:53:58.000Z</time>
      </trkpt>
      <trkpt lat="44.79605" lon="0.83252">
        <ele>201</ele>
        <time>2026-05-02T11:53:59.000Z</time>
      </trkpt>
      <trkpt lat="44.79604" lon="0.83251">
        <ele>201.2</ele>
        <time>2026-05-02T11:54:00.000Z</time>
      </trkpt>
      <trkpt lat="44.79602" lon="0.8325">
        <ele>200.9</ele>
        <time>2026-05-02T11:54:01.000Z</time>
      </trkpt>
      <trkpt lat="44.79601" lon="0.83249">
        <ele>200.8</ele>
        <time>2026-05-02T11:54:02.000Z</time>
      </trkpt>
      <trkpt lat="44.79599" lon="0.83248">
        <ele>200.5</ele>
        <time>2026-05-02T11:54:03.000Z</time>
      </trkpt>
      <trkpt lat="44.79597" lon="0.83247">
        <ele>200.6</ele>
        <time>2026-05-02T11:54:04.000Z</time>
      </trkpt>
      <trkpt lat="44.79596" lon="0.83246">
        <ele>200</ele>
        <time>2026-05-02T11:54:05.000Z</time>
      </trkpt>
      <trkpt lat="44.79594" lon="0.83245">
        <ele>200.2</ele>
        <time>2026-05-02T11:54:06.000Z</time>
      </trkpt>
      <trkpt lat="44.79591" lon="0.83243">
        <ele>200.2</ele>
        <time>2026-05-02T11:54:07.000Z</time>
      </trkpt>
      <trkpt lat="44.79589" lon="0.83242">
        <ele>200.5</ele>
        <time>2026-05-02T11:54:08.000Z</time>
      </trkpt>
      <trkpt lat="44.79588" lon="0.83241">
        <ele>200.4</ele>
        <time>2026-05-02T11:54:09.000Z</time>
      </trkpt>
      <trkpt lat="44.79586" lon="0.83241">
        <ele>200.5</ele>
        <time>2026-05-02T11:54:10.000Z</time>
      </trkpt>
      <trkpt lat="44.79585" lon="0.8324">
        <ele>200.2</ele>
        <time>2026-05-02T11:54:11.000Z</time>
      </trkpt>
      <trkpt lat="44.79583" lon="0.8324">
        <ele>199.8</ele>
        <time>2026-05-02T11:54:12.000Z</time>
      </trkpt>
      <trkpt lat="44.79582" lon="0.83239">
        <ele>200.5</ele>
        <time>2026-05-02T11:54:13.000Z</time>
      </trkpt>
      <trkpt lat="44.7958" lon="0.83238">
        <ele>200.9</ele>
        <time>2026-05-02T11:54:14.000Z</time>
      </trkpt>
      <trkpt lat="44.79579" lon="0.83238">
        <ele>201</ele>
        <time>2026-05-02T11:54:15.000Z</time>
      </trkpt>
      <trkpt lat="44.79577" lon="0.83238">
        <ele>200.5</ele>
        <time>2026-05-02T11:54:16.000Z</time>
      </trkpt>
      <trkpt lat="44.79575" lon="0.83238">
        <ele>201.2</ele>
        <time>2026-05-02T11:54:17.000Z</time>
      </trkpt>
      <trkpt lat="44.79574" lon="0.83237">
        <ele>201.5</ele>
        <time>2026-05-02T11:54:18.000Z</time>
      </trkpt>
      <trkpt lat="44.79572" lon="0.83236">
        <ele>200.9</ele>
        <time>2026-05-02T11:54:19.000Z</time>
      </trkpt>
      <trkpt lat="44.7957" lon="0.83235">
        <ele>200.7</ele>
        <time>2026-05-02T11:54:20.000Z</time>
      </trkpt>
      <trkpt lat="44.79569" lon="0.83234">
        <ele>200.5</ele>
        <time>2026-05-02T11:54:21.000Z</time>
      </trkpt>
      <trkpt lat="44.79567" lon="0.83233">
        <ele>200.7</ele>
        <time>2026-05-02T11:54:22.000Z</time>
      </trkpt>
      <trkpt lat="44.79566" lon="0.83233">
        <ele>199.9</ele>
        <time>2026-05-02T11:54:23.000Z</time>
      </trkpt>
      <trkpt lat="44.79564" lon="0.83232">
        <ele>199.5</ele>
        <time>2026-05-02T11:54:24.000Z</time>
      </trkpt>
      <trkpt lat="44.79563" lon="0.83231">
        <ele>199.4</ele>
        <time>2026-05-02T11:54:25.000Z</time>
      </trkpt>
      <trkpt lat="44.79561" lon="0.8323">
        <ele>199.1</ele>
        <time>2026-05-02T11:54:26.000Z</time>
      </trkpt>
      <trkpt lat="44.7956" lon="0.83229">
        <ele>199.5</ele>
        <time>2026-05-02T11:54:27.000Z</time>
      </trkpt>
      <trkpt lat="44.7956" lon="0.83231">
        <ele>203.9</ele>
        <time>2026-05-02T11:54:28.000Z</time>
      </trkpt>
      <trkpt lat="44.79558" lon="0.83231">
        <ele>203.8</ele>
        <time>2026-05-02T11:54:29.000Z</time>
      </trkpt>
      <trkpt lat="44.79557" lon="0.83232">
        <ele>204.3</ele>
        <time>2026-05-02T11:54:30.000Z</time>
      </trkpt>
      <trkpt lat="44.79555" lon="0.83231">
        <ele>204</ele>
        <time>2026-05-02T11:54:31.000Z</time>
      </trkpt>
      <trkpt lat="44.79554" lon="0.83231">
        <ele>203.5</ele>
        <time>2026-05-02T11:54:32.000Z</time>
      </trkpt>
      <trkpt lat="44.79552" lon="0.83231">
        <ele>203.2</ele>
        <time>2026-05-02T11:54:33.000Z</time>
      </trkpt>
      <trkpt lat="44.7955" lon="0.8323">
        <ele>202.7</ele>
        <time>2026-05-02T11:54:34.000Z</time>
      </trkpt>
      <trkpt lat="44.79549" lon="0.8323">
        <ele>201.3</ele>
        <time>2026-05-02T11:54:35.000Z</time>
      </trkpt>
      <trkpt lat="44.79547" lon="0.83229">
        <ele>200.4</ele>
        <time>2026-05-02T11:54:36.000Z</time>
      </trkpt>
      <trkpt lat="44.79546" lon="0.83228">
        <ele>200.2</ele>
        <time>2026-05-02T11:54:37.000Z</time>
      </trkpt>
      <trkpt lat="44.79544" lon="0.83228">
        <ele>199.8</ele>
        <time>2026-05-02T11:54:38.000Z</time>
      </trkpt>
      <trkpt lat="44.79543" lon="0.83228">
        <ele>199</ele>
        <time>2026-05-02T11:54:39.000Z</time>
      </trkpt>
      <trkpt lat="44.79541" lon="0.83228">
        <ele>199.3</ele>
        <time>2026-05-02T11:54:40.000Z</time>
      </trkpt>
      <trkpt lat="44.7954" lon="0.83227">
        <ele>199.2</ele>
        <time>2026-05-02T11:54:41.000Z</time>
      </trkpt>
      <trkpt lat="44.79539" lon="0.83228">
        <ele>198.9</ele>
        <time>2026-05-02T11:54:42.000Z</time>
      </trkpt>
      <trkpt lat="44.79537" lon="0.83227">
        <ele>199.1</ele>
        <time>2026-05-02T11:54:43.000Z</time>
      </trkpt>
      <trkpt lat="44.79535" lon="0.83227">
        <ele>199.5</ele>
        <time>2026-05-02T11:54:44.000Z</time>
      </trkpt>
      <trkpt lat="44.79533" lon="0.83227">
        <ele>199.3</ele>
        <time>2026-05-02T11:54:45.000Z</time>
      </trkpt>
      <trkpt lat="44.79531" lon="0.83227">
        <ele>199.4</ele>
        <time>2026-05-02T11:54:46.000Z</time>
      </trkpt>
      <trkpt lat="44.7953" lon="0.83228">
        <ele>199.9</ele>
        <time>2026-05-02T11:54:47.000Z</time>
      </trkpt>
      <trkpt lat="44.79528" lon="0.83227">
        <ele>199.7</ele>
        <time>2026-05-02T11:54:48.000Z</time>
      </trkpt>
      <trkpt lat="44.79527" lon="0.83227">
        <ele>199.7</ele>
        <time>2026-05-02T11:54:49.000Z</time>
      </trkpt>
      <trkpt lat="44.79526" lon="0.83227">
        <ele>199.9</ele>
        <time>2026-05-02T11:54:50.000Z</time>
      </trkpt>
      <trkpt lat="44.79524" lon="0.83227">
        <ele>199.9</ele>
        <time>2026-05-02T11:54:51.000Z</time>
      </trkpt>
      <trkpt lat="44.79523" lon="0.83227">
        <ele>200</ele>
        <time>2026-05-02T11:54:52.000Z</time>
      </trkpt>
      <trkpt lat="44.79522" lon="0.83227">
        <ele>199.7</ele>
        <time>2026-05-02T11:54:53.000Z</time>
      </trkpt>
      <trkpt lat="44.7952" lon="0.83228">
        <ele>199.3</ele>
        <time>2026-05-02T11:54:54.000Z</time>
      </trkpt>
      <trkpt lat="44.79519" lon="0.83228">
        <ele>199.5</ele>
        <time>2026-05-02T11:54:55.000Z</time>
      </trkpt>
      <trkpt lat="44.79517" lon="0.83228">
        <ele>198.9</ele>
        <time>2026-05-02T11:54:56.000Z</time>
      </trkpt>
      <trkpt lat="44.79515" lon="0.83228">
        <ele>198.9</ele>
        <time>2026-05-02T11:54:57.000Z</time>
      </trkpt>
      <trkpt lat="44.79514" lon="0.83228">
        <ele>198.5</ele>
        <time>2026-05-02T11:54:58.000Z</time>
      </trkpt>
      <trkpt lat="44.79512" lon="0.83228">
        <ele>198.6</ele>
        <time>2026-05-02T11:54:59.000Z</time>
      </trkpt>
      <trkpt lat="44.7951" lon="0.83228">
        <ele>198.6</ele>
        <time>2026-05-02T11:55:00.000Z</time>
      </trkpt>
      <trkpt lat="44.79509" lon="0.83228">
        <ele>198.2</ele>
        <time>2026-05-02T11:55:01.000Z</time>
      </trkpt>
      <trkpt lat="44.79507" lon="0.83228">
        <ele>197.8</ele>
        <time>2026-05-02T11:55:02.000Z</time>
      </trkpt>
      <trkpt lat="44.79506" lon="0.83228">
        <ele>197.3</ele>
        <time>2026-05-02T11:55:03.000Z</time>
      </trkpt>
      <trkpt lat="44.79504" lon="0.83228">
        <ele>196.3</ele>
        <time>2026-05-02T11:55:04.000Z</time>
      </trkpt>
      <trkpt lat="44.79502" lon="0.83229">
        <ele>195.9</ele>
        <time>2026-05-02T11:55:05.000Z</time>
      </trkpt>
      <trkpt lat="44.795" lon="0.8323">
        <ele>196.2</ele>
        <time>2026-05-02T11:55:06.000Z</time>
      </trkpt>
      <trkpt lat="44.79499" lon="0.83229">
        <ele>195.5</ele>
        <time>2026-05-02T11:55:07.000Z</time>
      </trkpt>
      <trkpt lat="44.79497" lon="0.83229">
        <ele>195.6</ele>
        <time>2026-05-02T11:55:08.000Z</time>
      </trkpt>
      <trkpt lat="44.79496" lon="0.83232">
        <ele>198.3</ele>
        <time>2026-05-02T11:55:09.000Z</time>
      </trkpt>
      <trkpt lat="44.79494" lon="0.83232">
        <ele>199.1</ele>
        <time>2026-05-02T11:55:10.000Z</time>
      </trkpt>
      <trkpt lat="44.79493" lon="0.83233">
        <ele>201.3</ele>
        <time>2026-05-02T11:55:11.000Z</time>
      </trkpt>
      <trkpt lat="44.79492" lon="0.83233">
        <ele>201.8</ele>
        <time>2026-05-02T11:55:12.000Z</time>
      </trkpt>
      <trkpt lat="44.7949" lon="0.83234">
        <ele>201.4</ele>
        <time>2026-05-02T11:55:13.000Z</time>
      </trkpt>
      <trkpt lat="44.79489" lon="0.83234">
        <ele>201.4</ele>
        <time>2026-05-02T11:55:14.000Z</time>
      </trkpt>
      <trkpt lat="44.79488" lon="0.83234">
        <ele>201.3</ele>
        <time>2026-05-02T11:55:15.000Z</time>
      </trkpt>
      <trkpt lat="44.79486" lon="0.83234">
        <ele>201.5</ele>
        <time>2026-05-02T11:55:16.000Z</time>
      </trkpt>
      <trkpt lat="44.79484" lon="0.83235">
        <ele>201.2</ele>
        <time>2026-05-02T11:55:17.000Z</time>
      </trkpt>
      <trkpt lat="44.79483" lon="0.83235">
        <ele>201.9</ele>
        <time>2026-05-02T11:55:18.000Z</time>
      </trkpt>
      <trkpt lat="44.79481" lon="0.83236">
        <ele>202</ele>
        <time>2026-05-02T11:55:19.000Z</time>
      </trkpt>
      <trkpt lat="44.79479" lon="0.83236">
        <ele>201.7</ele>
        <time>2026-05-02T11:55:20.000Z</time>
      </trkpt>
      <trkpt lat="44.79478" lon="0.83236">
        <ele>201.2</ele>
        <time>2026-05-02T11:55:21.000Z</time>
      </trkpt>
      <trkpt lat="44.79476" lon="0.83236">
        <ele>200.2</ele>
        <time>2026-05-02T11:55:22.000Z</time>
      </trkpt>
      <trkpt lat="44.79475" lon="0.83237">
        <ele>200.1</ele>
        <time>2026-05-02T11:55:23.000Z</time>
      </trkpt>
      <trkpt lat="44.79473" lon="0.83238">
        <ele>200.5</ele>
        <time>2026-05-02T11:55:24.000Z</time>
      </trkpt>
      <trkpt lat="44.79472" lon="0.83238">
        <ele>200</ele>
        <time>2026-05-02T11:55:25.000Z</time>
      </trkpt>
      <trkpt lat="44.7947" lon="0.83238">
        <ele>199.6</ele>
        <time>2026-05-02T11:55:26.000Z</time>
      </trkpt>
      <trkpt lat="44.79469" lon="0.83238">
        <ele>199.1</ele>
        <time>2026-05-02T11:55:27.000Z</time>
      </trkpt>
      <trkpt lat="44.79467" lon="0.83238">
        <ele>198</ele>
        <time>2026-05-02T11:55:28.000Z</time>
      </trkpt>
      <trkpt lat="44.79465" lon="0.83238">
        <ele>198</ele>
        <time>2026-05-02T11:55:29.000Z</time>
      </trkpt>
      <trkpt lat="44.79464" lon="0.83239">
        <ele>197.9</ele>
        <time>2026-05-02T11:55:30.000Z</time>
      </trkpt>
      <trkpt lat="44.79462" lon="0.8324">
        <ele>197.9</ele>
        <time>2026-05-02T11:55:31.000Z</time>
      </trkpt>
      <trkpt lat="44.79461" lon="0.83241">
        <ele>197.9</ele>
        <time>2026-05-02T11:55:32.000Z</time>
      </trkpt>
      <trkpt lat="44.79459" lon="0.83241">
        <ele>197.1</ele>
        <time>2026-05-02T11:55:33.000Z</time>
      </trkpt>
      <trkpt lat="44.79458" lon="0.83241">
        <ele>196.8</ele>
        <time>2026-05-02T11:55:34.000Z</time>
      </trkpt>
      <trkpt lat="44.79457" lon="0.83242">
        <ele>196.6</ele>
        <time>2026-05-02T11:55:35.000Z</time>
      </trkpt>
      <trkpt lat="44.79455" lon="0.83242">
        <ele>195.5</ele>
        <time>2026-05-02T11:55:36.000Z</time>
      </trkpt>
      <trkpt lat="44.79454" lon="0.83242">
        <ele>195.4</ele>
        <time>2026-05-02T11:55:37.000Z</time>
      </trkpt>
      <trkpt lat="44.79452" lon="0.83243">
        <ele>194.9</ele>
        <time>2026-05-02T11:55:38.000Z</time>
      </trkpt>
      <trkpt lat="44.79451" lon="0.83243">
        <ele>194.8</ele>
        <time>2026-05-02T11:55:39.000Z</time>
      </trkpt>
      <trkpt lat="44.79449" lon="0.83243">
        <ele>194.4</ele>
        <time>2026-05-02T11:55:40.000Z</time>
      </trkpt>
      <trkpt lat="44.79448" lon="0.83244">
        <ele>194.5</ele>
        <time>2026-05-02T11:55:41.000Z</time>
      </trkpt>
      <trkpt lat="44.79446" lon="0.83245">
        <ele>194.4</ele>
        <time>2026-05-02T11:55:42.000Z</time>
      </trkpt>
      <trkpt lat="44.79445" lon="0.83245">
        <ele>193.7</ele>
        <time>2026-05-02T11:55:43.000Z</time>
      </trkpt>
      <trkpt lat="44.79443" lon="0.83245">
        <ele>193.4</ele>
        <time>2026-05-02T11:55:44.000Z</time>
      </trkpt>
      <trkpt lat="44.79442" lon="0.83245">
        <ele>193.5</ele>
        <time>2026-05-02T11:55:45.000Z</time>
      </trkpt>
      <trkpt lat="44.7944" lon="0.83246">
        <ele>193.2</ele>
        <time>2026-05-02T11:55:46.000Z</time>
      </trkpt>
      <trkpt lat="44.79439" lon="0.83246">
        <ele>193</ele>
        <time>2026-05-02T11:55:47.000Z</time>
      </trkpt>
      <trkpt lat="44.79437" lon="0.83246">
        <ele>192.6</ele>
        <time>2026-05-02T11:55:48.000Z</time>
      </trkpt>
      <trkpt lat="44.79435" lon="0.83246">
        <ele>193.1</ele>
        <time>2026-05-02T11:55:49.000Z</time>
      </trkpt>
      <trkpt lat="44.79434" lon="0.83246">
        <ele>193.1</ele>
        <time>2026-05-02T11:55:50.000Z</time>
      </trkpt>
      <trkpt lat="44.79432" lon="0.83246">
        <ele>193</ele>
        <time>2026-05-02T11:55:51.000Z</time>
      </trkpt>
      <trkpt lat="44.79431" lon="0.83246">
        <ele>193</ele>
        <time>2026-05-02T11:55:52.000Z</time>
      </trkpt>
      <trkpt lat="44.7943" lon="0.83247">
        <ele>192.6</ele>
        <time>2026-05-02T11:55:53.000Z</time>
      </trkpt>
      <trkpt lat="44.79428" lon="0.83246">
        <ele>192.1</ele>
        <time>2026-05-02T11:55:54.000Z</time>
      </trkpt>
      <trkpt lat="44.79427" lon="0.83246">
        <ele>192.3</ele>
        <time>2026-05-02T11:55:55.000Z</time>
      </trkpt>
      <trkpt lat="44.79425" lon="0.83246">
        <ele>192.4</ele>
        <time>2026-05-02T11:55:56.000Z</time>
      </trkpt>
      <trkpt lat="44.79424" lon="0.83246">
        <ele>191.6</ele>
        <time>2026-05-02T11:55:57.000Z</time>
      </trkpt>
      <trkpt lat="44.79422" lon="0.83246">
        <ele>191.2</ele>
        <time>2026-05-02T11:55:58.000Z</time>
      </trkpt>
      <trkpt lat="44.79421" lon="0.83245">
        <ele>190.8</ele>
        <time>2026-05-02T11:55:59.000Z</time>
      </trkpt>
      <trkpt lat="44.7942" lon="0.83245">
        <ele>190.3</ele>
        <time>2026-05-02T11:56:00.000Z</time>
      </trkpt>
      <trkpt lat="44.79418" lon="0.83245">
        <ele>190.8</ele>
        <time>2026-05-02T11:56:01.000Z</time>
      </trkpt>
      <trkpt lat="44.79417" lon="0.83245">
        <ele>190.8</ele>
        <time>2026-05-02T11:56:02.000Z</time>
      </trkpt>
      <trkpt lat="44.79415" lon="0.83245">
        <ele>190.4</ele>
        <time>2026-05-02T11:56:03.000Z</time>
      </trkpt>
      <trkpt lat="44.79414" lon="0.83245">
        <ele>190.2</ele>
        <time>2026-05-02T11:56:04.000Z</time>
      </trkpt>
      <trkpt lat="44.79412" lon="0.83245">
        <ele>189.8</ele>
        <time>2026-05-02T11:56:05.000Z</time>
      </trkpt>
      <trkpt lat="44.79411" lon="0.83246">
        <ele>190</ele>
        <time>2026-05-02T11:56:06.000Z</time>
      </trkpt>
      <trkpt lat="44.79409" lon="0.83246">
        <ele>190</ele>
        <time>2026-05-02T11:56:07.000Z</time>
      </trkpt>
      <trkpt lat="44.79408" lon="0.83247">
        <ele>189.8</ele>
        <time>2026-05-02T11:56:08.000Z</time>
      </trkpt>
      <trkpt lat="44.79406" lon="0.83247">
        <ele>190</ele>
        <time>2026-05-02T11:56:09.000Z</time>
      </trkpt>
      <trkpt lat="44.79405" lon="0.83247">
        <ele>190</ele>
        <time>2026-05-02T11:56:10.000Z</time>
      </trkpt>
      <trkpt lat="44.79403" lon="0.83248">
        <ele>189.9</ele>
        <time>2026-05-02T11:56:11.000Z</time>
      </trkpt>
      <trkpt lat="44.79402" lon="0.83248">
        <ele>190.3</ele>
        <time>2026-05-02T11:56:12.000Z</time>
      </trkpt>
      <trkpt lat="44.794" lon="0.83249">
        <ele>189.6</ele>
        <time>2026-05-02T11:56:13.000Z</time>
      </trkpt>
      <trkpt lat="44.79399" lon="0.83249">
        <ele>189.7</ele>
        <time>2026-05-02T11:56:14.000Z</time>
      </trkpt>
      <trkpt lat="44.79397" lon="0.83249">
        <ele>189.2</ele>
        <time>2026-05-02T11:56:15.000Z</time>
      </trkpt>
      <trkpt lat="44.79396" lon="0.8325">
        <ele>189.2</ele>
        <time>2026-05-02T11:56:16.000Z</time>
      </trkpt>
      <trkpt lat="44.79394" lon="0.8325">
        <ele>189.8</ele>
        <time>2026-05-02T11:56:17.000Z</time>
      </trkpt>
      <trkpt lat="44.79393" lon="0.8325">
        <ele>189.7</ele>
        <time>2026-05-02T11:56:18.000Z</time>
      </trkpt>
      <trkpt lat="44.79391" lon="0.83251">
        <ele>189.6</ele>
        <time>2026-05-02T11:56:19.000Z</time>
      </trkpt>
      <trkpt lat="44.7939" lon="0.83251">
        <ele>189.4</ele>
        <time>2026-05-02T11:56:20.000Z</time>
      </trkpt>
      <trkpt lat="44.79389" lon="0.83251">
        <ele>188.9</ele>
        <time>2026-05-02T11:56:21.000Z</time>
      </trkpt>
      <trkpt lat="44.79387" lon="0.83251">
        <ele>188.3</ele>
        <time>2026-05-02T11:56:22.000Z</time>
      </trkpt>
      <trkpt lat="44.79386" lon="0.83251">
        <ele>187.7</ele>
        <time>2026-05-02T11:56:23.000Z</time>
      </trkpt>
      <trkpt lat="44.79385" lon="0.83251">
        <ele>187.9</ele>
        <time>2026-05-02T11:56:24.000Z</time>
      </trkpt>
      <trkpt lat="44.79383" lon="0.83252">
        <ele>187.6</ele>
        <time>2026-05-02T11:56:25.000Z</time>
      </trkpt>
      <trkpt lat="44.79382" lon="0.83252">
        <ele>187.3</ele>
        <time>2026-05-02T11:56:26.000Z</time>
      </trkpt>
      <trkpt lat="44.7938" lon="0.83252">
        <ele>187.3</ele>
        <time>2026-05-02T11:56:27.000Z</time>
      </trkpt>
      <trkpt lat="44.79379" lon="0.83252">
        <ele>186.9</ele>
        <time>2026-05-02T11:56:28.000Z</time>
      </trkpt>
      <trkpt lat="44.79377" lon="0.83254">
        <ele>186.7</ele>
        <time>2026-05-02T11:56:29.000Z</time>
      </trkpt>
      <trkpt lat="44.79376" lon="0.83254">
        <ele>185.5</ele>
        <time>2026-05-02T11:56:30.000Z</time>
      </trkpt>
      <trkpt lat="44.79374" lon="0.83254">
        <ele>184.8</ele>
        <time>2026-05-02T11:56:31.000Z</time>
      </trkpt>
      <trkpt lat="44.79374" lon="0.83255">
        <ele>188.4</ele>
        <time>2026-05-02T11:56:32.000Z</time>
      </trkpt>
      <trkpt lat="44.79373" lon="0.83256">
        <ele>187.9</ele>
        <time>2026-05-02T11:56:33.000Z</time>
      </trkpt>
      <trkpt lat="44.79372" lon="0.83257">
        <ele>187.2</ele>
        <time>2026-05-02T11:56:34.000Z</time>
      </trkpt>
      <trkpt lat="44.79371" lon="0.83258">
        <ele>186.9</ele>
        <time>2026-05-02T11:56:35.000Z</time>
      </trkpt>
      <trkpt lat="44.7937" lon="0.83259">
        <ele>186.6</ele>
        <time>2026-05-02T11:56:36.000Z</time>
      </trkpt>
      <trkpt lat="44.79369" lon="0.83261">
        <ele>186</ele>
        <time>2026-05-02T11:56:37.000Z</time>
      </trkpt>
      <trkpt lat="44.79368" lon="0.83262">
        <ele>185.7</ele>
        <time>2026-05-02T11:56:38.000Z</time>
      </trkpt>
      <trkpt lat="44.79367" lon="0.83263">
        <ele>185.4</ele>
        <time>2026-05-02T11:56:39.000Z</time>
      </trkpt>
      <trkpt lat="44.79366" lon="0.83265">
        <ele>185</ele>
        <time>2026-05-02T11:56:40.000Z</time>
      </trkpt>
      <trkpt lat="44.79365" lon="0.83266">
        <ele>185.1</ele>
        <time>2026-05-02T11:56:41.000Z</time>
      </trkpt>
      <trkpt lat="44.79364" lon="0.83268">
        <ele>186.5</ele>
        <time>2026-05-02T11:56:42.000Z</time>
      </trkpt>
      <trkpt lat="44.79364" lon="0.8327">
        <ele>186.3</ele>
        <time>2026-05-02T11:56:43.000Z</time>
      </trkpt>
      <trkpt lat="44.79363" lon="0.83272">
        <ele>187.2</ele>
        <time>2026-05-02T11:56:44.000Z</time>
      </trkpt>
      <trkpt lat="44.79362" lon="0.83274">
        <ele>188.6</ele>
        <time>2026-05-02T11:56:45.000Z</time>
      </trkpt>
      <trkpt lat="44.79361" lon="0.83276">
        <ele>190</ele>
        <time>2026-05-02T11:56:46.000Z</time>
      </trkpt>
      <trkpt lat="44.7936" lon="0.83277">
        <ele>189.1</ele>
        <time>2026-05-02T11:56:47.000Z</time>
      </trkpt>
      <trkpt lat="44.79359" lon="0.83279">
        <ele>190.6</ele>
        <time>2026-05-02T11:56:48.000Z</time>
      </trkpt>
      <trkpt lat="44.79358" lon="0.8328">
        <ele>190.6</ele>
        <time>2026-05-02T11:56:49.000Z</time>
      </trkpt>
      <trkpt lat="44.79357" lon="0.83281">
        <ele>190</ele>
        <time>2026-05-02T11:56:50.000Z</time>
      </trkpt>
      <trkpt lat="44.79356" lon="0.83282">
        <ele>190.1</ele>
        <time>2026-05-02T11:56:51.000Z</time>
      </trkpt>
      <trkpt lat="44.79355" lon="0.83284">
        <ele>189.9</ele>
        <time>2026-05-02T11:56:52.000Z</time>
      </trkpt>
      <trkpt lat="44.79353" lon="0.83285">
        <ele>189.3</ele>
        <time>2026-05-02T11:56:53.000Z</time>
      </trkpt>
      <trkpt lat="44.79352" lon="0.83285">
        <ele>188.3</ele>
        <time>2026-05-02T11:56:54.000Z</time>
      </trkpt>
      <trkpt lat="44.79351" lon="0.83286">
        <ele>187.6</ele>
        <time>2026-05-02T11:56:55.000Z</time>
      </trkpt>
      <trkpt lat="44.79349" lon="0.83287">
        <ele>187.6</ele>
        <time>2026-05-02T11:56:56.000Z</time>
      </trkpt>
      <trkpt lat="44.79348" lon="0.83288">
        <ele>188.1</ele>
        <time>2026-05-02T11:56:57.000Z</time>
      </trkpt>
      <trkpt lat="44.79347" lon="0.83289">
        <ele>188.5</ele>
        <time>2026-05-02T11:56:58.000Z</time>
      </trkpt>
      <trkpt lat="44.79346" lon="0.8329">
        <ele>188.7</ele>
        <time>2026-05-02T11:56:59.000Z</time>
      </trkpt>
      <trkpt lat="44.79344" lon="0.83291">
        <ele>188.5</ele>
        <time>2026-05-02T11:57:00.000Z</time>
      </trkpt>
      <trkpt lat="44.79343" lon="0.83292">
        <ele>188.1</ele>
        <time>2026-05-02T11:57:01.000Z</time>
      </trkpt>
      <trkpt lat="44.79342" lon="0.83293">
        <ele>187.7</ele>
        <time>2026-05-02T11:57:02.000Z</time>
      </trkpt>
      <trkpt lat="44.7934" lon="0.83294">
        <ele>187.3</ele>
        <time>2026-05-02T11:57:03.000Z</time>
      </trkpt>
      <trkpt lat="44.79339" lon="0.83294">
        <ele>187.4</ele>
        <time>2026-05-02T11:57:04.000Z</time>
      </trkpt>
      <trkpt lat="44.79337" lon="0.83295">
        <ele>187.2</ele>
        <time>2026-05-02T11:57:05.000Z</time>
      </trkpt>
      <trkpt lat="44.79336" lon="0.83295">
        <ele>187</ele>
        <time>2026-05-02T11:57:06.000Z</time>
      </trkpt>
      <trkpt lat="44.79334" lon="0.83295">
        <ele>186.7</ele>
        <time>2026-05-02T11:57:07.000Z</time>
      </trkpt>
      <trkpt lat="44.79332" lon="0.83295">
        <ele>186.5</ele>
        <time>2026-05-02T11:57:08.000Z</time>
      </trkpt>
      <trkpt lat="44.79331" lon="0.83295">
        <ele>186.1</ele>
        <time>2026-05-02T11:57:09.000Z</time>
      </trkpt>
      <trkpt lat="44.79329" lon="0.83296">
        <ele>187.6</ele>
        <time>2026-05-02T11:57:10.000Z</time>
      </trkpt>
      <trkpt lat="44.79327" lon="0.83297">
        <ele>187.7</ele>
        <time>2026-05-02T11:57:11.000Z</time>
      </trkpt>
      <trkpt lat="44.79326" lon="0.83298">
        <ele>187.4</ele>
        <time>2026-05-02T11:57:12.000Z</time>
      </trkpt>
      <trkpt lat="44.79324" lon="0.83298">
        <ele>187</ele>
        <time>2026-05-02T11:57:13.000Z</time>
      </trkpt>
      <trkpt lat="44.79323" lon="0.83298">
        <ele>186.4</ele>
        <time>2026-05-02T11:57:14.000Z</time>
      </trkpt>
      <trkpt lat="44.79322" lon="0.83297">
        <ele>185.3</ele>
        <time>2026-05-02T11:57:15.000Z</time>
      </trkpt>
      <trkpt lat="44.79321" lon="0.83298">
        <ele>185.9</ele>
        <time>2026-05-02T11:57:16.000Z</time>
      </trkpt>
      <trkpt lat="44.7932" lon="0.83298">
        <ele>186.1</ele>
        <time>2026-05-02T11:57:17.000Z</time>
      </trkpt>
      <trkpt lat="44.79319" lon="0.83299">
        <ele>184.9</ele>
        <time>2026-05-02T11:57:18.000Z</time>
      </trkpt>
      <trkpt lat="44.79318" lon="0.83299">
        <ele>184.4</ele>
        <time>2026-05-02T11:57:19.000Z</time>
      </trkpt>
      <trkpt lat="44.79316" lon="0.833">
        <ele>184</ele>
        <time>2026-05-02T11:57:20.000Z</time>
      </trkpt>
      <trkpt lat="44.79315" lon="0.83301">
        <ele>183.9</ele>
        <time>2026-05-02T11:57:21.000Z</time>
      </trkpt>
      <trkpt lat="44.79314" lon="0.83301">
        <ele>183.8</ele>
        <time>2026-05-02T11:57:22.000Z</time>
      </trkpt>
      <trkpt lat="44.79313" lon="0.83302">
        <ele>183.9</ele>
        <time>2026-05-02T11:57:23.000Z</time>
      </trkpt>
      <trkpt lat="44.79313" lon="0.83303">
        <ele>184.1</ele>
        <time>2026-05-02T11:57:24.000Z</time>
      </trkpt>
      <trkpt lat="44.79312" lon="0.83304">
        <ele>184.1</ele>
        <time>2026-05-02T11:57:25.000Z</time>
      </trkpt>
      <trkpt lat="44.79311" lon="0.83305">
        <ele>184</ele>
        <time>2026-05-02T11:57:26.000Z</time>
      </trkpt>
      <trkpt lat="44.79309" lon="0.83306">
        <ele>183.6</ele>
        <time>2026-05-02T11:57:27.000Z</time>
      </trkpt>
      <trkpt lat="44.79308" lon="0.83306">
        <ele>183.5</ele>
        <time>2026-05-02T11:57:28.000Z</time>
      </trkpt>
      <trkpt lat="44.79307" lon="0.83307">
        <ele>183.5</ele>
        <time>2026-05-02T11:57:29.000Z</time>
      </trkpt>
      <trkpt lat="44.79305" lon="0.83308">
        <ele>182.8</ele>
        <time>2026-05-02T11:57:30.000Z</time>
      </trkpt>
      <trkpt lat="44.79303" lon="0.8331">
        <ele>182.8</ele>
        <time>2026-05-02T11:57:31.000Z</time>
      </trkpt>
      <trkpt lat="44.79301" lon="0.83311">
        <ele>182.7</ele>
        <time>2026-05-02T11:57:32.000Z</time>
      </trkpt>
      <trkpt lat="44.79299" lon="0.83312">
        <ele>182.2</ele>
        <time>2026-05-02T11:57:33.000Z</time>
      </trkpt>
      <trkpt lat="44.79297" lon="0.83314">
        <ele>181.9</ele>
        <time>2026-05-02T11:57:34.000Z</time>
      </trkpt>
      <trkpt lat="44.79295" lon="0.83314">
        <ele>181.7</ele>
        <time>2026-05-02T11:57:35.000Z</time>
      </trkpt>
      <trkpt lat="44.79293" lon="0.83315">
        <ele>181.2</ele>
        <time>2026-05-02T11:57:36.000Z</time>
      </trkpt>
      <trkpt lat="44.79291" lon="0.83317">
        <ele>181.1</ele>
        <time>2026-05-02T11:57:37.000Z</time>
      </trkpt>
      <trkpt lat="44.79289" lon="0.83318">
        <ele>180.8</ele>
        <time>2026-05-02T11:57:38.000Z</time>
      </trkpt>
      <trkpt lat="44.79286" lon="0.83318">
        <ele>181.1</ele>
        <time>2026-05-02T11:57:39.000Z</time>
      </trkpt>
      <trkpt lat="44.79286" lon="0.83318">
        <ele>181.5</ele>
        <time>2026-05-02T11:57:40.000Z</time>
      </trkpt>
      <trkpt lat="44.79285" lon="0.83319">
        <ele>181.8</ele>
        <time>2026-05-02T11:57:41.000Z</time>
      </trkpt>
      <trkpt lat="44.79282" lon="0.83321">
        <ele>182.1</ele>
        <time>2026-05-02T11:57:42.000Z</time>
      </trkpt>
      <trkpt lat="44.79282" lon="0.83321">
        <ele>182.7</ele>
        <time>2026-05-02T11:57:43.000Z</time>
      </trkpt>
      <trkpt lat="44.7928" lon="0.8332">
        <ele>183</ele>
        <time>2026-05-02T11:57:44.000Z</time>
      </trkpt>
      <trkpt lat="44.79279" lon="0.83319">
        <ele>183</ele>
        <time>2026-05-02T11:57:45.000Z</time>
      </trkpt>
      <trkpt lat="44.79276" lon="0.83318">
        <ele>183.3</ele>
        <time>2026-05-02T11:57:46.000Z</time>
      </trkpt>
      <trkpt lat="44.79276" lon="0.83317">
        <ele>183.8</ele>
        <time>2026-05-02T11:57:47.000Z</time>
      </trkpt>
      <trkpt lat="44.79274" lon="0.83316">
        <ele>184.4</ele>
        <time>2026-05-02T11:57:48.000Z</time>
      </trkpt>
      <trkpt lat="44.79273" lon="0.83316">
        <ele>184.1</ele>
        <time>2026-05-02T11:57:49.000Z</time>
      </trkpt>
      <trkpt lat="44.79272" lon="0.83315">
        <ele>183</ele>
        <time>2026-05-02T11:57:50.000Z</time>
      </trkpt>
      <trkpt lat="44.79271" lon="0.83315">
        <ele>182.6</ele>
        <time>2026-05-02T11:57:51.000Z</time>
      </trkpt>
      <trkpt lat="44.79269" lon="0.83315">
        <ele>182.4</ele>
        <time>2026-05-02T11:57:52.000Z</time>
      </trkpt>
      <trkpt lat="44.79268" lon="0.83315">
        <ele>182</ele>
        <time>2026-05-02T11:57:53.000Z</time>
      </trkpt>
      <trkpt lat="44.79266" lon="0.83315">
        <ele>182.1</ele>
        <time>2026-05-02T11:57:54.000Z</time>
      </trkpt>
      <trkpt lat="44.79264" lon="0.83315">
        <ele>182.8</ele>
        <time>2026-05-02T11:57:55.000Z</time>
      </trkpt>
      <trkpt lat="44.79263" lon="0.83315">
        <ele>183.2</ele>
        <time>2026-05-02T11:57:56.000Z</time>
      </trkpt>
      <trkpt lat="44.79261" lon="0.83314">
        <ele>183.6</ele>
        <time>2026-05-02T11:57:57.000Z</time>
      </trkpt>
      <trkpt lat="44.79259" lon="0.83314">
        <ele>183.4</ele>
        <time>2026-05-02T11:57:58.000Z</time>
      </trkpt>
      <trkpt lat="44.79257" lon="0.83314">
        <ele>184.1</ele>
        <time>2026-05-02T11:57:59.000Z</time>
      </trkpt>
      <trkpt lat="44.79255" lon="0.83315">
        <ele>183.7</ele>
        <time>2026-05-02T11:58:00.000Z</time>
      </trkpt>
      <trkpt lat="44.79252" lon="0.83315">
        <ele>184.3</ele>
        <time>2026-05-02T11:58:01.000Z</time>
      </trkpt>
      <trkpt lat="44.79249" lon="0.83316">
        <ele>185.2</ele>
        <time>2026-05-02T11:58:02.000Z</time>
      </trkpt>
      <trkpt lat="44.79246" lon="0.83317">
        <ele>185.8</ele>
        <time>2026-05-02T11:58:03.000Z</time>
      </trkpt>
      <trkpt lat="44.79243" lon="0.83319">
        <ele>187.7</ele>
        <time>2026-05-02T11:58:04.000Z</time>
      </trkpt>
      <trkpt lat="44.79241" lon="0.83321">
        <ele>188.2</ele>
        <time>2026-05-02T11:58:05.000Z</time>
      </trkpt>
      <trkpt lat="44.79238" lon="0.83322">
        <ele>188.1</ele>
        <time>2026-05-02T11:58:06.000Z</time>
      </trkpt>
      <trkpt lat="44.79235" lon="0.83323">
        <ele>187.7</ele>
        <time>2026-05-02T11:58:07.000Z</time>
      </trkpt>
      <trkpt lat="44.79231" lon="0.83324">
        <ele>187.9</ele>
        <time>2026-05-02T11:58:08.000Z</time>
      </trkpt>
      <trkpt lat="44.79228" lon="0.83325">
        <ele>188.2</ele>
        <time>2026-05-02T11:58:09.000Z</time>
      </trkpt>
      <trkpt lat="44.79224" lon="0.83326">
        <ele>188.3</ele>
        <time>2026-05-02T11:58:10.000Z</time>
      </trkpt>
      <trkpt lat="44.79221" lon="0.83328">
        <ele>188.4</ele>
        <time>2026-05-02T11:58:11.000Z</time>
      </trkpt>
      <trkpt lat="44.79218" lon="0.83329">
        <ele>188.2</ele>
        <time>2026-05-02T11:58:12.000Z</time>
      </trkpt>
      <trkpt lat="44.79215" lon="0.83331">
        <ele>188.6</ele>
        <time>2026-05-02T11:58:13.000Z</time>
      </trkpt>
      <trkpt lat="44.79211" lon="0.83332">
        <ele>188.5</ele>
        <time>2026-05-02T11:58:14.000Z</time>
      </trkpt>
      <trkpt lat="44.79208" lon="0.83334">
        <ele>188.8</ele>
        <time>2026-05-02T11:58:15.000Z</time>
      </trkpt>
      <trkpt lat="44.79204" lon="0.83336">
        <ele>189.2</ele>
        <time>2026-05-02T11:58:16.000Z</time>
      </trkpt>
      <trkpt lat="44.79201" lon="0.83339">
        <ele>189.5</ele>
        <time>2026-05-02T11:58:17.000Z</time>
      </trkpt>
      <trkpt lat="44.79199" lon="0.83342">
        <ele>190.3</ele>
        <time>2026-05-02T11:58:18.000Z</time>
      </trkpt>
      <trkpt lat="44.79196" lon="0.83345">
        <ele>190.4</ele>
        <time>2026-05-02T11:58:19.000Z</time>
      </trkpt>
      <trkpt lat="44.79193" lon="0.83347">
        <ele>190.6</ele>
        <time>2026-05-02T11:58:20.000Z</time>
      </trkpt>
      <trkpt lat="44.79189" lon="0.83349">
        <ele>190.5</ele>
        <time>2026-05-02T11:58:21.000Z</time>
      </trkpt>
      <trkpt lat="44.79186" lon="0.83352">
        <ele>191.8</ele>
        <time>2026-05-02T11:58:22.000Z</time>
      </trkpt>
      <trkpt lat="44.79183" lon="0.83354">
        <ele>192.3</ele>
        <time>2026-05-02T11:58:23.000Z</time>
      </trkpt>
      <trkpt lat="44.7918" lon="0.83357">
        <ele>192.8</ele>
        <time>2026-05-02T11:58:24.000Z</time>
      </trkpt>
      <trkpt lat="44.79177" lon="0.83359">
        <ele>194.6</ele>
        <time>2026-05-02T11:58:25.000Z</time>
      </trkpt>
      <trkpt lat="44.79174" lon="0.83362">
        <ele>195.3</ele>
        <time>2026-05-02T11:58:26.000Z</time>
      </trkpt>
      <trkpt lat="44.79171" lon="0.83365">
        <ele>195.5</ele>
        <time>2026-05-02T11:58:27.000Z</time>
      </trkpt>
      <trkpt lat="44.79168" lon="0.83367">
        <ele>196.5</ele>
        <time>2026-05-02T11:58:28.000Z</time>
      </trkpt>
      <trkpt lat="44.79165" lon="0.8337">
        <ele>196.7</ele>
        <time>2026-05-02T11:58:29.000Z</time>
      </trkpt>
      <trkpt lat="44.79162" lon="0.83372">
        <ele>197.5</ele>
        <time>2026-05-02T11:58:30.000Z</time>
      </trkpt>
      <trkpt lat="44.79159" lon="0.83375">
        <ele>199.2</ele>
        <time>2026-05-02T11:58:31.000Z</time>
      </trkpt>
      <trkpt lat="44.79156" lon="0.83377">
        <ele>199.1</ele>
        <time>2026-05-02T11:58:32.000Z</time>
      </trkpt>
      <trkpt lat="44.79153" lon="0.8338">
        <ele>198.7</ele>
        <time>2026-05-02T11:58:33.000Z</time>
      </trkpt>
      <trkpt lat="44.79149" lon="0.83382">
        <ele>199</ele>
        <time>2026-05-02T11:58:34.000Z</time>
      </trkpt>
      <trkpt lat="44.79146" lon="0.83383">
        <ele>197.8</ele>
        <time>2026-05-02T11:58:35.000Z</time>
      </trkpt>
      <trkpt lat="44.79142" lon="0.83383">
        <ele>197.4</ele>
        <time>2026-05-02T11:58:36.000Z</time>
      </trkpt>
      <trkpt lat="44.79139" lon="0.83382">
        <ele>197.7</ele>
        <time>2026-05-02T11:58:37.000Z</time>
      </trkpt>
      <trkpt lat="44.79136" lon="0.8338">
        <ele>198.8</ele>
        <time>2026-05-02T11:58:38.000Z</time>
      </trkpt>
      <trkpt lat="44.79133" lon="0.83376">
        <ele>198.3</ele>
        <time>2026-05-02T11:58:39.000Z</time>
      </trkpt>
      <trkpt lat="44.79131" lon="0.83373">
        <ele>197.5</ele>
        <time>2026-05-02T11:58:40.000Z</time>
      </trkpt>
      <trkpt lat="44.79129" lon="0.83369">
        <ele>196.3</ele>
        <time>2026-05-02T11:58:41.000Z</time>
      </trkpt>
      <trkpt lat="44.79127" lon="0.83365">
        <ele>196.7</ele>
        <time>2026-05-02T11:58:42.000Z</time>
      </trkpt>
      <trkpt lat="44.79125" lon="0.83362">
        <ele>196.2</ele>
        <time>2026-05-02T11:58:43.000Z</time>
      </trkpt>
      <trkpt lat="44.79123" lon="0.83358">
        <ele>196.2</ele>
        <time>2026-05-02T11:58:44.000Z</time>
      </trkpt>
      <trkpt lat="44.79119" lon="0.83356">
        <ele>196.2</ele>
        <time>2026-05-02T11:58:45.000Z</time>
      </trkpt>
      <trkpt lat="44.79116" lon="0.83354">
        <ele>196.6</ele>
        <time>2026-05-02T11:58:46.000Z</time>
      </trkpt>
      <trkpt lat="44.79112" lon="0.83353">
        <ele>197.2</ele>
        <time>2026-05-02T11:58:47.000Z</time>
      </trkpt>
      <trkpt lat="44.79108" lon="0.83352">
        <ele>197.8</ele>
        <time>2026-05-02T11:58:48.000Z</time>
      </trkpt>
      <trkpt lat="44.79104" lon="0.83352">
        <ele>198.1</ele>
        <time>2026-05-02T11:58:49.000Z</time>
      </trkpt>
      <trkpt lat="44.791" lon="0.83352">
        <ele>198.2</ele>
        <time>2026-05-02T11:58:50.000Z</time>
      </trkpt>
      <trkpt lat="44.79096" lon="0.83353">
        <ele>198.2</ele>
        <time>2026-05-02T11:58:51.000Z</time>
      </trkpt>
      <trkpt lat="44.79092" lon="0.83353">
        <ele>198.9</ele>
        <time>2026-05-02T11:58:52.000Z</time>
      </trkpt>
      <trkpt lat="44.79089" lon="0.83353">
        <ele>199</ele>
        <time>2026-05-02T11:58:53.000Z</time>
      </trkpt>
      <trkpt lat="44.79085" lon="0.83352">
        <ele>199.3</ele>
        <time>2026-05-02T11:58:54.000Z</time>
      </trkpt>
      <trkpt lat="44.79082" lon="0.83352">
        <ele>199.3</ele>
        <time>2026-05-02T11:58:55.000Z</time>
      </trkpt>
      <trkpt lat="44.79079" lon="0.83353">
        <ele>198.2</ele>
        <time>2026-05-02T11:58:56.000Z</time>
      </trkpt>
      <trkpt lat="44.79076" lon="0.83353">
        <ele>196.8</ele>
        <time>2026-05-02T11:58:57.000Z</time>
      </trkpt>
      <trkpt lat="44.79072" lon="0.83353">
        <ele>196.1</ele>
        <time>2026-05-02T11:58:58.000Z</time>
      </trkpt>
      <trkpt lat="44.79069" lon="0.83353">
        <ele>196</ele>
        <time>2026-05-02T11:58:59.000Z</time>
      </trkpt>
      <trkpt lat="44.79066" lon="0.83354">
        <ele>196.9</ele>
        <time>2026-05-02T11:59:00.000Z</time>
      </trkpt>
      <trkpt lat="44.79063" lon="0.83354">
        <ele>197.4</ele>
        <time>2026-05-02T11:59:01.000Z</time>
      </trkpt>
      <trkpt lat="44.7906" lon="0.83355">
        <ele>197.2</ele>
        <time>2026-05-02T11:59:02.000Z</time>
      </trkpt>
      <trkpt lat="44.79056" lon="0.83356">
        <ele>198.2</ele>
        <time>2026-05-02T11:59:03.000Z</time>
      </trkpt>
      <trkpt lat="44.79053" lon="0.83357">
        <ele>199.4</ele>
        <time>2026-05-02T11:59:04.000Z</time>
      </trkpt>
      <trkpt lat="44.79049" lon="0.83357">
        <ele>200.4</ele>
        <time>2026-05-02T11:59:05.000Z</time>
      </trkpt>
      <trkpt lat="44.79046" lon="0.83356">
        <ele>201.4</ele>
        <time>2026-05-02T11:59:06.000Z</time>
      </trkpt>
      <trkpt lat="44.79042" lon="0.83355">
        <ele>202.5</ele>
        <time>2026-05-02T11:59:07.000Z</time>
      </trkpt>
      <trkpt lat="44.79038" lon="0.83352">
        <ele>202.9</ele>
        <time>2026-05-02T11:59:08.000Z</time>
      </trkpt>
      <trkpt lat="44.79033" lon="0.83349">
        <ele>203.3</ele>
        <time>2026-05-02T11:59:09.000Z</time>
      </trkpt>
      <trkpt lat="44.79029" lon="0.83348">
        <ele>204</ele>
        <time>2026-05-02T11:59:10.000Z</time>
      </trkpt>
      <trkpt lat="44.79025" lon="0.83348">
        <ele>204.3</ele>
        <time>2026-05-02T11:59:11.000Z</time>
      </trkpt>
      <trkpt lat="44.79022" lon="0.83347">
        <ele>205.3</ele>
        <time>2026-05-02T11:59:12.000Z</time>
      </trkpt>
      <trkpt lat="44.79019" lon="0.83347">
        <ele>205.9</ele>
        <time>2026-05-02T11:59:13.000Z</time>
      </trkpt>
      <trkpt lat="44.79016" lon="0.83347">
        <ele>206.4</ele>
        <time>2026-05-02T11:59:14.000Z</time>
      </trkpt>
      <trkpt lat="44.79013" lon="0.83347">
        <ele>207.4</ele>
        <time>2026-05-02T11:59:15.000Z</time>
      </trkpt>
      <trkpt lat="44.79009" lon="0.83345">
        <ele>207.3</ele>
        <time>2026-05-02T11:59:16.000Z</time>
      </trkpt>
      <trkpt lat="44.79006" lon="0.83345">
        <ele>208</ele>
        <time>2026-05-02T11:59:17.000Z</time>
      </trkpt>
      <trkpt lat="44.79003" lon="0.83344">
        <ele>207.4</ele>
        <time>2026-05-02T11:59:18.000Z</time>
      </trkpt>
      <trkpt lat="44.79001" lon="0.83337">
        <ele>206.3</ele>
        <time>2026-05-02T11:59:19.000Z</time>
      </trkpt>
      <trkpt lat="44.79" lon="0.83334">
        <ele>205.6</ele>
        <time>2026-05-02T11:59:20.000Z</time>
      </trkpt>
      <trkpt lat="44.79" lon="0.8333">
        <ele>205.1</ele>
        <time>2026-05-02T11:59:21.000Z</time>
      </trkpt>
      <trkpt lat="44.79002" lon="0.83328">
        <ele>203.9</ele>
        <time>2026-05-02T11:59:22.000Z</time>
      </trkpt>
      <trkpt lat="44.79001" lon="0.83327">
        <ele>204.1</ele>
        <time>2026-05-02T11:59:23.000Z</time>
      </trkpt>
      <trkpt lat="44.79" lon="0.83325">
        <ele>203.3</ele>
        <time>2026-05-02T11:59:24.000Z</time>
      </trkpt>
      <trkpt lat="44.79" lon="0.83323">
        <ele>203.5</ele>
        <time>2026-05-02T11:59:25.000Z</time>
      </trkpt>
      <trkpt lat="44.78999" lon="0.83321">
        <ele>203.4</ele>
        <time>2026-05-02T11:59:26.000Z</time>
      </trkpt>
      <trkpt lat="44.78998" lon="0.83318">
        <ele>203.6</ele>
        <time>2026-05-02T11:59:27.000Z</time>
      </trkpt>
      <trkpt lat="44.78997" lon="0.83316">
        <ele>203.2</ele>
        <time>2026-05-02T11:59:28.000Z</time>
      </trkpt>
      <trkpt lat="44.78996" lon="0.83314">
        <ele>203.3</ele>
        <time>2026-05-02T11:59:29.000Z</time>
      </trkpt>
      <trkpt lat="44.78996" lon="0.83312">
        <ele>203.2</ele>
        <time>2026-05-02T11:59:30.000Z</time>
      </trkpt>
      <trkpt lat="44.78997" lon="0.83309">
        <ele>203.6</ele>
        <time>2026-05-02T11:59:31.000Z</time>
      </trkpt>
      <trkpt lat="44.78997" lon="0.83307">
        <ele>204</ele>
        <time>2026-05-02T11:59:32.000Z</time>
      </trkpt>
      <trkpt lat="44.78998" lon="0.83306">
        <ele>203.6</ele>
        <time>2026-05-02T11:59:33.000Z</time>
      </trkpt>
      <trkpt lat="44.78999" lon="0.83304">
        <ele>203.7</ele>
        <time>2026-05-02T11:59:34.000Z</time>
      </trkpt>
      <trkpt lat="44.79" lon="0.83301">
        <ele>203</ele>
        <time>2026-05-02T11:59:35.000Z</time>
      </trkpt>
      <trkpt lat="44.79" lon="0.83299">
        <ele>202.7</ele>
        <time>2026-05-02T11:59:36.000Z</time>
      </trkpt>
      <trkpt lat="44.79001" lon="0.83297">
        <ele>202.6</ele>
        <time>2026-05-02T11:59:37.000Z</time>
      </trkpt>
      <trkpt lat="44.79001" lon="0.83295">
        <ele>201.9</ele>
        <time>2026-05-02T11:59:38.000Z</time>
      </trkpt>
      <trkpt lat="44.79002" lon="0.83293">
        <ele>201.8</ele>
        <time>2026-05-02T11:59:39.000Z</time>
      </trkpt>
      <trkpt lat="44.79002" lon="0.8329">
        <ele>201.5</ele>
        <time>2026-05-02T11:59:40.000Z</time>
      </trkpt>
      <trkpt lat="44.79003" lon="0.83288">
        <ele>201.6</ele>
        <time>2026-05-02T11:59:41.000Z</time>
      </trkpt>
      <trkpt lat="44.79003" lon="0.83286">
        <ele>201.8</ele>
        <time>2026-05-02T11:59:42.000Z</time>
      </trkpt>
      <trkpt lat="44.79004" lon="0.83284">
        <ele>201.9</ele>
        <time>2026-05-02T11:59:43.000Z</time>
      </trkpt>
      <trkpt lat="44.79005" lon="0.83282">
        <ele>201.2</ele>
        <time>2026-05-02T11:59:44.000Z</time>
      </trkpt>
      <trkpt lat="44.79006" lon="0.8328">
        <ele>201</ele>
        <time>2026-05-02T11:59:45.000Z</time>
      </trkpt>
      <trkpt lat="44.79006" lon="0.83278">
        <ele>200.8</ele>
        <time>2026-05-02T11:59:46.000Z</time>
      </trkpt>
      <trkpt lat="44.79007" lon="0.83276">
        <ele>200.8</ele>
        <time>2026-05-02T11:59:47.000Z</time>
      </trkpt>
      <trkpt lat="44.79008" lon="0.83274">
        <ele>201.4</ele>
        <time>2026-05-02T11:59:48.000Z</time>
      </trkpt>
      <trkpt lat="44.79009" lon="0.83273">
        <ele>201.3</ele>
        <time>2026-05-02T11:59:49.000Z</time>
      </trkpt>
      <trkpt lat="44.79012" lon="0.83273">
        <ele>203.6</ele>
        <time>2026-05-02T11:59:50.000Z</time>
      </trkpt>
      <trkpt lat="44.79011" lon="0.8327">
        <ele>203</ele>
        <time>2026-05-02T11:59:51.000Z</time>
      </trkpt>
      <trkpt lat="44.7901" lon="0.83268">
        <ele>202.8</ele>
        <time>2026-05-02T11:59:52.000Z</time>
      </trkpt>
      <trkpt lat="44.7901" lon="0.83266">
        <ele>202.9</ele>
        <time>2026-05-02T11:59:53.000Z</time>
      </trkpt>
      <trkpt lat="44.79012" lon="0.83264">
        <ele>202.9</ele>
        <time>2026-05-02T11:59:54.000Z</time>
      </trkpt>
      <trkpt lat="44.79012" lon="0.83261">
        <ele>201.1</ele>
        <time>2026-05-02T11:59:55.000Z</time>
      </trkpt>
      <trkpt lat="44.79013" lon="0.83259">
        <ele>201</ele>
        <time>2026-05-02T11:59:56.000Z</time>
      </trkpt>
      <trkpt lat="44.79014" lon="0.83257">
        <ele>201.3</ele>
        <time>2026-05-02T11:59:57.000Z</time>
      </trkpt>
      <trkpt lat="44.79015" lon="0.83255">
        <ele>200.7</ele>
        <time>2026-05-02T11:59:58.000Z</time>
      </trkpt>
      <trkpt lat="44.79016" lon="0.83253">
        <ele>200.4</ele>
        <time>2026-05-02T11:59:59.000Z</time>
      </trkpt>
      <trkpt lat="44.79017" lon="0.83251">
        <ele>200.1</ele>
        <time>2026-05-02T12:00:00.000Z</time>
      </trkpt>
      <trkpt lat="44.79018" lon="0.8325">
        <ele>200</ele>
        <time>2026-05-02T12:00:01.000Z</time>
      </trkpt>
      <trkpt lat="44.79019" lon="0.83248">
        <ele>199.9</ele>
        <time>2026-05-02T12:00:02.000Z</time>
      </trkpt>
      <trkpt lat="44.7902" lon="0.83246">
        <ele>199.7</ele>
        <time>2026-05-02T12:00:03.000Z</time>
      </trkpt>
      <trkpt lat="44.79021" lon="0.83244">
        <ele>199.7</ele>
        <time>2026-05-02T12:00:04.000Z</time>
      </trkpt>
      <trkpt lat="44.79021" lon="0.83243">
        <ele>199.5</ele>
        <time>2026-05-02T12:00:05.000Z</time>
      </trkpt>
      <trkpt lat="44.79022" lon="0.83241">
        <ele>199.2</ele>
        <time>2026-05-02T12:00:06.000Z</time>
      </trkpt>
      <trkpt lat="44.79023" lon="0.83239">
        <ele>199.3</ele>
        <time>2026-05-02T12:00:07.000Z</time>
      </trkpt>
      <trkpt lat="44.79023" lon="0.83237">
        <ele>199.3</ele>
        <time>2026-05-02T12:00:08.000Z</time>
      </trkpt>
      <trkpt lat="44.79023" lon="0.83235">
        <ele>199.3</ele>
        <time>2026-05-02T12:00:09.000Z</time>
      </trkpt>
      <trkpt lat="44.79023" lon="0.83232">
        <ele>199.2</ele>
        <time>2026-05-02T12:00:10.000Z</time>
      </trkpt>
      <trkpt lat="44.79024" lon="0.83231">
        <ele>197.3</ele>
        <time>2026-05-02T12:00:11.000Z</time>
      </trkpt>
      <trkpt lat="44.79025" lon="0.83229">
        <ele>197.2</ele>
        <time>2026-05-02T12:00:12.000Z</time>
      </trkpt>
      <trkpt lat="44.79026" lon="0.83227">
        <ele>196.9</ele>
        <time>2026-05-02T12:00:13.000Z</time>
      </trkpt>
      <trkpt lat="44.79026" lon="0.83225">
        <ele>197.2</ele>
        <time>2026-05-02T12:00:14.000Z</time>
      </trkpt>
      <trkpt lat="44.79027" lon="0.83223">
        <ele>197.3</ele>
        <time>2026-05-02T12:00:15.000Z</time>
      </trkpt>
      <trkpt lat="44.79025" lon="0.8322">
        <ele>197.7</ele>
        <time>2026-05-02T12:00:16.000Z</time>
      </trkpt>
      <trkpt lat="44.79027" lon="0.83219">
        <ele>197.7</ele>
        <time>2026-05-02T12:00:17.000Z</time>
      </trkpt>
      <trkpt lat="44.79026" lon="0.83219">
        <ele>196.9</ele>
        <time>2026-05-02T12:00:18.000Z</time>
      </trkpt>
      <trkpt lat="44.79026" lon="0.83219">
        <ele>197</ele>
        <time>2026-05-02T12:00:19.000Z</time>
      </trkpt>
      <trkpt lat="44.79026" lon="0.83218">
        <ele>197.1</ele>
        <time>2026-05-02T12:00:20.000Z</time>
      </trkpt>
      <trkpt lat="44.79025" lon="0.83218">
        <ele>197</ele>
        <time>2026-05-02T12:00:21.000Z</time>
      </trkpt>
      <trkpt lat="44.79025" lon="0.83217">
        <ele>196.7</ele>
        <time>2026-05-02T12:00:22.000Z</time>
      </trkpt>
      <trkpt lat="44.79024" lon="0.83212">
        <ele>196</ele>
        <time>2026-05-02T12:00:23.000Z</time>
      </trkpt>
      <trkpt lat="44.79024" lon="0.83209">
        <ele>196</ele>
        <time>2026-05-02T12:00:24.000Z</time>
      </trkpt>
      <trkpt lat="44.79024" lon="0.83207">
        <ele>194.2</ele>
        <time>2026-05-02T12:00:25.000Z</time>
      </trkpt>
      <trkpt lat="44.79024" lon="0.83204">
        <ele>194.7</ele>
        <time>2026-05-02T12:00:26.000Z</time>
      </trkpt>
      <trkpt lat="44.79023" lon="0.83202">
        <ele>194.4</ele>
        <time>2026-05-02T12:00:27.000Z</time>
      </trkpt>
      <trkpt lat="44.79023" lon="0.83199">
        <ele>193.3</ele>
        <time>2026-05-02T12:00:28.000Z</time>
      </trkpt>
      <trkpt lat="44.79022" lon="0.83197">
        <ele>193.1</ele>
        <time>2026-05-02T12:00:29.000Z</time>
      </trkpt>
      <trkpt lat="44.79021" lon="0.83195">
        <ele>192.6</ele>
        <time>2026-05-02T12:00:30.000Z</time>
      </trkpt>
      <trkpt lat="44.7902" lon="0.83193">
        <ele>192.1</ele>
        <time>2026-05-02T12:00:31.000Z</time>
      </trkpt>
      <trkpt lat="44.7902" lon="0.8319">
        <ele>191.9</ele>
        <time>2026-05-02T12:00:32.000Z</time>
      </trkpt>
      <trkpt lat="44.79019" lon="0.83188">
        <ele>191.7</ele>
        <time>2026-05-02T12:00:33.000Z</time>
      </trkpt>
      <trkpt lat="44.79019" lon="0.83186">
        <ele>191.6</ele>
        <time>2026-05-02T12:00:34.000Z</time>
      </trkpt>
      <trkpt lat="44.79018" lon="0.83184">
        <ele>191.4</ele>
        <time>2026-05-02T12:00:35.000Z</time>
      </trkpt>
      <trkpt lat="44.79018" lon="0.83181">
        <ele>191.9</ele>
        <time>2026-05-02T12:00:36.000Z</time>
      </trkpt>
      <trkpt lat="44.79017" lon="0.83179">
        <ele>191.3</ele>
        <time>2026-05-02T12:00:37.000Z</time>
      </trkpt>
      <trkpt lat="44.79017" lon="0.83176">
        <ele>191</ele>
        <time>2026-05-02T12:00:38.000Z</time>
      </trkpt>
      <trkpt lat="44.79016" lon="0.83174">
        <ele>190.6</ele>
        <time>2026-05-02T12:00:39.000Z</time>
      </trkpt>
      <trkpt lat="44.79015" lon="0.83172">
        <ele>190.2</ele>
        <time>2026-05-02T12:00:40.000Z</time>
      </trkpt>
      <trkpt lat="44.79014" lon="0.83169">
        <ele>190</ele>
        <time>2026-05-02T12:00:41.000Z</time>
      </trkpt>
      <trkpt lat="44.79013" lon="0.83167">
        <ele>190.3</ele>
        <time>2026-05-02T12:00:42.000Z</time>
      </trkpt>
      <trkpt lat="44.79013" lon="0.83165">
        <ele>190.2</ele>
        <time>2026-05-02T12:00:43.000Z</time>
      </trkpt>
      <trkpt lat="44.79012" lon="0.83162">
        <ele>190.1</ele>
        <time>2026-05-02T12:00:44.000Z</time>
      </trkpt>
      <trkpt lat="44.79011" lon="0.8316">
        <ele>190.2</ele>
        <time>2026-05-02T12:00:45.000Z</time>
      </trkpt>
      <trkpt lat="44.79011" lon="0.83157">
        <ele>190.1</ele>
        <time>2026-05-02T12:00:46.000Z</time>
      </trkpt>
      <trkpt lat="44.7901" lon="0.83155">
        <ele>189.8</ele>
        <time>2026-05-02T12:00:47.000Z</time>
      </trkpt>
      <trkpt lat="44.7901" lon="0.83153">
        <ele>189.1</ele>
        <time>2026-05-02T12:00:48.000Z</time>
      </trkpt>
      <trkpt lat="44.79009" lon="0.83149">
        <ele>188.3</ele>
        <time>2026-05-02T12:00:49.000Z</time>
      </trkpt>
      <trkpt lat="44.79009" lon="0.83147">
        <ele>188.5</ele>
        <time>2026-05-02T12:00:50.000Z</time>
      </trkpt>
      <trkpt lat="44.79008" lon="0.83145">
        <ele>188.1</ele>
        <time>2026-05-02T12:00:51.000Z</time>
      </trkpt>
      <trkpt lat="44.79008" lon="0.83143">
        <ele>188.7</ele>
        <time>2026-05-02T12:00:52.000Z</time>
      </trkpt>
      <trkpt lat="44.79008" lon="0.83141">
        <ele>189</ele>
        <time>2026-05-02T12:00:53.000Z</time>
      </trkpt>
      <trkpt lat="44.79007" lon="0.83138">
        <ele>188.9</ele>
        <time>2026-05-02T12:00:54.000Z</time>
      </trkpt>
      <trkpt lat="44.79007" lon="0.83134">
        <ele>188.7</ele>
        <time>2026-05-02T12:00:55.000Z</time>
      </trkpt>
      <trkpt lat="44.79006" lon="0.83132">
        <ele>188.8</ele>
        <time>2026-05-02T12:00:56.000Z</time>
      </trkpt>
      <trkpt lat="44.79006" lon="0.83129">
        <ele>188.8</ele>
        <time>2026-05-02T12:00:57.000Z</time>
      </trkpt>
      <trkpt lat="44.79005" lon="0.83127">
        <ele>188.9</ele>
        <time>2026-05-02T12:00:58.000Z</time>
      </trkpt>
      <trkpt lat="44.79005" lon="0.83125">
        <ele>188.7</ele>
        <time>2026-05-02T12:00:59.000Z</time>
      </trkpt>
      <trkpt lat="44.79005" lon="0.83122">
        <ele>188.4</ele>
        <time>2026-05-02T12:01:00.000Z</time>
      </trkpt>
      <trkpt lat="44.79005" lon="0.8312">
        <ele>188.1</ele>
        <time>2026-05-02T12:01:01.000Z</time>
      </trkpt>
      <trkpt lat="44.79004" lon="0.83117">
        <ele>188.1</ele>
        <time>2026-05-02T12:01:02.000Z</time>
      </trkpt>
      <trkpt lat="44.79004" lon="0.83115">
        <ele>188</ele>
        <time>2026-05-02T12:01:03.000Z</time>
      </trkpt>
      <trkpt lat="44.79004" lon="0.83113">
        <ele>188</ele>
        <time>2026-05-02T12:01:04.000Z</time>
      </trkpt>
      <trkpt lat="44.79004" lon="0.8311">
        <ele>187.7</ele>
        <time>2026-05-02T12:01:05.000Z</time>
      </trkpt>
      <trkpt lat="44.79004" lon="0.83108">
        <ele>187.6</ele>
        <time>2026-05-02T12:01:06.000Z</time>
      </trkpt>
      <trkpt lat="44.79003" lon="0.83106">
        <ele>187.5</ele>
        <time>2026-05-02T12:01:07.000Z</time>
      </trkpt>
      <trkpt lat="44.79003" lon="0.83104">
        <ele>187.7</ele>
        <time>2026-05-02T12:01:08.000Z</time>
      </trkpt>
      <trkpt lat="44.79003" lon="0.83101">
        <ele>187.8</ele>
        <time>2026-05-02T12:01:09.000Z</time>
      </trkpt>
      <trkpt lat="44.79002" lon="0.83099">
        <ele>187.9</ele>
        <time>2026-05-02T12:01:10.000Z</time>
      </trkpt>
      <trkpt lat="44.79002" lon="0.83097">
        <ele>187.5</ele>
        <time>2026-05-02T12:01:11.000Z</time>
      </trkpt>
      <trkpt lat="44.79002" lon="0.83094">
        <ele>187.5</ele>
        <time>2026-05-02T12:01:12.000Z</time>
      </trkpt>
      <trkpt lat="44.79002" lon="0.83091">
        <ele>187.2</ele>
        <time>2026-05-02T12:01:13.000Z</time>
      </trkpt>
      <trkpt lat="44.79001" lon="0.83089">
        <ele>186.9</ele>
        <time>2026-05-02T12:01:14.000Z</time>
      </trkpt>
      <trkpt lat="44.79001" lon="0.83086">
        <ele>186.5</ele>
        <time>2026-05-02T12:01:15.000Z</time>
      </trkpt>
      <trkpt lat="44.79001" lon="0.83084">
        <ele>187.8</ele>
        <time>2026-05-02T12:01:16.000Z</time>
      </trkpt>
      <trkpt lat="44.79001" lon="0.83082">
        <ele>187.8</ele>
        <time>2026-05-02T12:01:17.000Z</time>
      </trkpt>
      <trkpt lat="44.79" lon="0.8308">
        <ele>188.4</ele>
        <time>2026-05-02T12:01:18.000Z</time>
      </trkpt>
      <trkpt lat="44.79" lon="0.83078">
        <ele>188.9</ele>
        <time>2026-05-02T12:01:19.000Z</time>
      </trkpt>
      <trkpt lat="44.79" lon="0.83076">
        <ele>188.3</ele>
        <time>2026-05-02T12:01:20.000Z</time>
      </trkpt>
      <trkpt lat="44.79" lon="0.83074">
        <ele>188.5</ele>
        <time>2026-05-02T12:01:21.000Z</time>
      </trkpt>
      <trkpt lat="44.78999" lon="0.83072">
        <ele>188.2</ele>
        <time>2026-05-02T12:01:22.000Z</time>
      </trkpt>
      <trkpt lat="44.78999" lon="0.8307">
        <ele>187.8</ele>
        <time>2026-05-02T12:01:23.000Z</time>
      </trkpt>
      <trkpt lat="44.79" lon="0.83068">
        <ele>187.8</ele>
        <time>2026-05-02T12:01:24.000Z</time>
      </trkpt>
      <trkpt lat="44.79" lon="0.83066">
        <ele>187.6</ele>
        <time>2026-05-02T12:01:25.000Z</time>
      </trkpt>
      <trkpt lat="44.78999" lon="0.83064">
        <ele>188</ele>
        <time>2026-05-02T12:01:26.000Z</time>
      </trkpt>
      <trkpt lat="44.78998" lon="0.83063">
        <ele>188</ele>
        <time>2026-05-02T12:01:27.000Z</time>
      </trkpt>
      <trkpt lat="44.78998" lon="0.83061">
        <ele>187.5</ele>
        <time>2026-05-02T12:01:28.000Z</time>
      </trkpt>
      <trkpt lat="44.78996" lon="0.8306">
        <ele>187.8</ele>
        <time>2026-05-02T12:01:29.000Z</time>
      </trkpt>
      <trkpt lat="44.78995" lon="0.83059">
        <ele>187.6</ele>
        <time>2026-05-02T12:01:30.000Z</time>
      </trkpt>
      <trkpt lat="44.78994" lon="0.83058">
        <ele>187.7</ele>
        <time>2026-05-02T12:01:31.000Z</time>
      </trkpt>
      <trkpt lat="44.78993" lon="0.83058">
        <ele>188.2</ele>
        <time>2026-05-02T12:01:32.000Z</time>
      </trkpt>
      <trkpt lat="44.78991" lon="0.83058">
        <ele>188.4</ele>
        <time>2026-05-02T12:01:33.000Z</time>
      </trkpt>
      <trkpt lat="44.7899" lon="0.83057">
        <ele>188.7</ele>
        <time>2026-05-02T12:01:34.000Z</time>
      </trkpt>
      <trkpt lat="44.78987" lon="0.83057">
        <ele>190.9</ele>
        <time>2026-05-02T12:01:35.000Z</time>
      </trkpt>
      <trkpt lat="44.78985" lon="0.83057">
        <ele>191.8</ele>
        <time>2026-05-02T12:01:36.000Z</time>
      </trkpt>
      <trkpt lat="44.78982" lon="0.83056">
        <ele>192.1</ele>
        <time>2026-05-02T12:01:37.000Z</time>
      </trkpt>
      <trkpt lat="44.78979" lon="0.83056">
        <ele>193.5</ele>
        <time>2026-05-02T12:01:38.000Z</time>
      </trkpt>
      <trkpt lat="44.78976" lon="0.83054">
        <ele>194.7</ele>
        <time>2026-05-02T12:01:39.000Z</time>
      </trkpt>
      <trkpt lat="44.78974" lon="0.83052">
        <ele>195.7</ele>
        <time>2026-05-02T12:01:40.000Z</time>
      </trkpt>
      <trkpt lat="44.7897" lon="0.83051">
        <ele>196.7</ele>
        <time>2026-05-02T12:01:41.000Z</time>
      </trkpt>
      <trkpt lat="44.78966" lon="0.8305">
        <ele>197.2</ele>
        <time>2026-05-02T12:01:42.000Z</time>
      </trkpt>
      <trkpt lat="44.78961" lon="0.83049">
        <ele>197.4</ele>
        <time>2026-05-02T12:01:43.000Z</time>
      </trkpt>
      <trkpt lat="44.78956" lon="0.83048">
        <ele>197.7</ele>
        <time>2026-05-02T12:01:44.000Z</time>
      </trkpt>
      <trkpt lat="44.78951" lon="0.83048">
        <ele>197.9</ele>
        <time>2026-05-02T12:01:45.000Z</time>
      </trkpt>
      <trkpt lat="44.78946" lon="0.83048">
        <ele>198.9</ele>
        <time>2026-05-02T12:01:46.000Z</time>
      </trkpt>
      <trkpt lat="44.78942" lon="0.83049">
        <ele>199.1</ele>
        <time>2026-05-02T12:01:47.000Z</time>
      </trkpt>
      <trkpt lat="44.78938" lon="0.8305">
        <ele>199.3</ele>
        <time>2026-05-02T12:01:48.000Z</time>
      </trkpt>
      <trkpt lat="44.78932" lon="0.83048">
        <ele>194.9</ele>
        <time>2026-05-02T12:01:49.000Z</time>
      </trkpt>
      <trkpt lat="44.78927" lon="0.83047">
        <ele>194.6</ele>
        <time>2026-05-02T12:01:50.000Z</time>
      </trkpt>
      <trkpt lat="44.78921" lon="0.83048">
        <ele>194.6</ele>
        <time>2026-05-02T12:01:51.000Z</time>
      </trkpt>
      <trkpt lat="44.78914" lon="0.83048">
        <ele>194.7</ele>
        <time>2026-05-02T12:01:52.000Z</time>
      </trkpt>
      <trkpt lat="44.78908" lon="0.83049">
        <ele>195.5</ele>
        <time>2026-05-02T12:01:53.000Z</time>
      </trkpt>
      <trkpt lat="44.78902" lon="0.8305">
        <ele>196.7</ele>
        <time>2026-05-02T12:01:54.000Z</time>
      </trkpt>
      <trkpt lat="44.78897" lon="0.83053">
        <ele>198.2</ele>
        <time>2026-05-02T12:01:55.000Z</time>
      </trkpt>
      <trkpt lat="44.78891" lon="0.83054">
        <ele>198.7</ele>
        <time>2026-05-02T12:01:56.000Z</time>
      </trkpt>
      <trkpt lat="44.78885" lon="0.83055">
        <ele>198.2</ele>
        <time>2026-05-02T12:01:57.000Z</time>
      </trkpt>
      <trkpt lat="44.7888" lon="0.83055">
        <ele>194.9</ele>
        <time>2026-05-02T12:01:58.000Z</time>
      </trkpt>
      <trkpt lat="44.78875" lon="0.83054">
        <ele>194.8</ele>
        <time>2026-05-02T12:01:59.000Z</time>
      </trkpt>
      <trkpt lat="44.7887" lon="0.83054">
        <ele>194.7</ele>
        <time>2026-05-02T12:02:00.000Z</time>
      </trkpt>
      <trkpt lat="44.78865" lon="0.83054">
        <ele>194.9</ele>
        <time>2026-05-02T12:02:01.000Z</time>
      </trkpt>
      <trkpt lat="44.78859" lon="0.83055">
        <ele>194</ele>
        <time>2026-05-02T12:02:02.000Z</time>
      </trkpt>
      <trkpt lat="44.78853" lon="0.83054">
        <ele>193.3</ele>
        <time>2026-05-02T12:02:03.000Z</time>
      </trkpt>
      <trkpt lat="44.78847" lon="0.83053">
        <ele>193.3</ele>
        <time>2026-05-02T12:02:04.000Z</time>
      </trkpt>
      <trkpt lat="44.7884" lon="0.83051">
        <ele>192.5</ele>
        <time>2026-05-02T12:02:05.000Z</time>
      </trkpt>
      <trkpt lat="44.78833" lon="0.83049">
        <ele>191.9</ele>
        <time>2026-05-02T12:02:06.000Z</time>
      </trkpt>
      <trkpt lat="44.78826" lon="0.83047">
        <ele>191.3</ele>
        <time>2026-05-02T12:02:07.000Z</time>
      </trkpt>
      <trkpt lat="44.7882" lon="0.83046">
        <ele>191.8</ele>
        <time>2026-05-02T12:02:08.000Z</time>
      </trkpt>
      <trkpt lat="44.78814" lon="0.83045">
        <ele>191.3</ele>
        <time>2026-05-02T12:02:09.000Z</time>
      </trkpt>
      <trkpt lat="44.78808" lon="0.83045">
        <ele>191.5</ele>
        <time>2026-05-02T12:02:10.000Z</time>
      </trkpt>
      <trkpt lat="44.78802" lon="0.83045">
        <ele>192.1</ele>
        <time>2026-05-02T12:02:11.000Z</time>
      </trkpt>
      <trkpt lat="44.78795" lon="0.83046">
        <ele>193.9</ele>
        <time>2026-05-02T12:02:12.000Z</time>
      </trkpt>
      <trkpt lat="44.78788" lon="0.83046">
        <ele>194.1</ele>
        <time>2026-05-02T12:02:13.000Z</time>
      </trkpt>
      <trkpt lat="44.78782" lon="0.83047">
        <ele>195.7</ele>
        <time>2026-05-02T12:02:14.000Z</time>
      </trkpt>
      <trkpt lat="44.78776" lon="0.83049">
        <ele>196.4</ele>
        <time>2026-05-02T12:02:15.000Z</time>
      </trkpt>
      <trkpt lat="44.78769" lon="0.83052">
        <ele>197.7</ele>
        <time>2026-05-02T12:02:16.000Z</time>
      </trkpt>
      <trkpt lat="44.78763" lon="0.83051">
        <ele>197.9</ele>
        <time>2026-05-02T12:02:17.000Z</time>
      </trkpt>
      <trkpt lat="44.78757" lon="0.83051">
        <ele>198.1</ele>
        <time>2026-05-02T12:02:18.000Z</time>
      </trkpt>
      <trkpt lat="44.78753" lon="0.83053">
        <ele>199.8</ele>
        <time>2026-05-02T12:02:19.000Z</time>
      </trkpt>
      <trkpt lat="44.78748" lon="0.83056">
        <ele>199.2</ele>
        <time>2026-05-02T12:02:20.000Z</time>
      </trkpt>
      <trkpt lat="44.78743" lon="0.83058">
        <ele>200.5</ele>
        <time>2026-05-02T12:02:21.000Z</time>
      </trkpt>
      <trkpt lat="44.78738" lon="0.8306">
        <ele>200.7</ele>
        <time>2026-05-02T12:02:22.000Z</time>
      </trkpt>
      <trkpt lat="44.78733" lon="0.83062">
        <ele>201.8</ele>
        <time>2026-05-02T12:02:23.000Z</time>
      </trkpt>
      <trkpt lat="44.78729" lon="0.83066">
        <ele>202</ele>
        <time>2026-05-02T12:02:24.000Z</time>
      </trkpt>
      <trkpt lat="44.78725" lon="0.8307">
        <ele>202.7</ele>
        <time>2026-05-02T12:02:25.000Z</time>
      </trkpt>
      <trkpt lat="44.7872" lon="0.83074">
        <ele>202.9</ele>
        <time>2026-05-02T12:02:26.000Z</time>
      </trkpt>
      <trkpt lat="44.78716" lon="0.83079">
        <ele>204.4</ele>
        <time>2026-05-02T12:02:27.000Z</time>
      </trkpt>
      <trkpt lat="44.78712" lon="0.83083">
        <ele>204.5</ele>
        <time>2026-05-02T12:02:28.000Z</time>
      </trkpt>
      <trkpt lat="44.78707" lon="0.83086">
        <ele>204.7</ele>
        <time>2026-05-02T12:02:29.000Z</time>
      </trkpt>
      <trkpt lat="44.78703" lon="0.83089">
        <ele>205.4</ele>
        <time>2026-05-02T12:02:30.000Z</time>
      </trkpt>
      <trkpt lat="44.78699" lon="0.83092">
        <ele>205.7</ele>
        <time>2026-05-02T12:02:31.000Z</time>
      </trkpt>
      <trkpt lat="44.78695" lon="0.83096">
        <ele>206.1</ele>
        <time>2026-05-02T12:02:32.000Z</time>
      </trkpt>
      <trkpt lat="44.78691" lon="0.83098">
        <ele>206.7</ele>
        <time>2026-05-02T12:02:33.000Z</time>
      </trkpt>
      <trkpt lat="44.78688" lon="0.83101">
        <ele>206.4</ele>
        <time>2026-05-02T12:02:34.000Z</time>
      </trkpt>
      <trkpt lat="44.78685" lon="0.83104">
        <ele>207.7</ele>
        <time>2026-05-02T12:02:35.000Z</time>
      </trkpt>
      <trkpt lat="44.78681" lon="0.83106">
        <ele>209.7</ele>
        <time>2026-05-02T12:02:36.000Z</time>
      </trkpt>
      <trkpt lat="44.78679" lon="0.83108">
        <ele>210.5</ele>
        <time>2026-05-02T12:02:37.000Z</time>
      </trkpt>
      <trkpt lat="44.78676" lon="0.8311">
        <ele>209.7</ele>
        <time>2026-05-02T12:02:38.000Z</time>
      </trkpt>
      <trkpt lat="44.78674" lon="0.83112">
        <ele>209.6</ele>
        <time>2026-05-02T12:02:39.000Z</time>
      </trkpt>
      <trkpt lat="44.78671" lon="0.83114">
        <ele>209.3</ele>
        <time>2026-05-02T12:02:40.000Z</time>
      </trkpt>
      <trkpt lat="44.78668" lon="0.83116">
        <ele>209.2</ele>
        <time>2026-05-02T12:02:41.000Z</time>
      </trkpt>
      <trkpt lat="44.78667" lon="0.83117">
        <ele>209.2</ele>
        <time>2026-05-02T12:02:42.000Z</time>
      </trkpt>
      <trkpt lat="44.78665" lon="0.83119">
        <ele>209.2</ele>
        <time>2026-05-02T12:02:43.000Z</time>
      </trkpt>
      <trkpt lat="44.78663" lon="0.83121">
        <ele>209.8</ele>
        <time>2026-05-02T12:02:44.000Z</time>
      </trkpt>
      <trkpt lat="44.7866" lon="0.83122">
        <ele>209.9</ele>
        <time>2026-05-02T12:02:45.000Z</time>
      </trkpt>
      <trkpt lat="44.78658" lon="0.83122">
        <ele>210.1</ele>
        <time>2026-05-02T12:02:46.000Z</time>
      </trkpt>
      <trkpt lat="44.78655" lon="0.83124">
        <ele>209.8</ele>
        <time>2026-05-02T12:02:47.000Z</time>
      </trkpt>
      <trkpt lat="44.78652" lon="0.83125">
        <ele>209.7</ele>
        <time>2026-05-02T12:02:48.000Z</time>
      </trkpt>
      <trkpt lat="44.78649" lon="0.83127">
        <ele>209.6</ele>
        <time>2026-05-02T12:02:49.000Z</time>
      </trkpt>
      <trkpt lat="44.78646" lon="0.83128">
        <ele>209.5</ele>
        <time>2026-05-02T12:02:50.000Z</time>
      </trkpt>
      <trkpt lat="44.78643" lon="0.8313">
        <ele>210.5</ele>
        <time>2026-05-02T12:02:51.000Z</time>
      </trkpt>
      <trkpt lat="44.7864" lon="0.83131">
        <ele>211.9</ele>
        <time>2026-05-02T12:02:52.000Z</time>
      </trkpt>
      <trkpt lat="44.78637" lon="0.83133">
        <ele>212.3</ele>
        <time>2026-05-02T12:02:53.000Z</time>
      </trkpt>
      <trkpt lat="44.78634" lon="0.83134">
        <ele>212.7</ele>
        <time>2026-05-02T12:02:54.000Z</time>
      </trkpt>
      <trkpt lat="44.7863" lon="0.83136">
        <ele>213.3</ele>
        <time>2026-05-02T12:02:55.000Z</time>
      </trkpt>
      <trkpt lat="44.78626" lon="0.83138">
        <ele>212.6</ele>
        <time>2026-05-02T12:02:56.000Z</time>
      </trkpt>
      <trkpt lat="44.78621" lon="0.83141">
        <ele>214.1</ele>
        <time>2026-05-02T12:02:57.000Z</time>
      </trkpt>
      <trkpt lat="44.78616" lon="0.83144">
        <ele>215</ele>
        <time>2026-05-02T12:02:58.000Z</time>
      </trkpt>
      <trkpt lat="44.7861" lon="0.83146">
        <ele>215</ele>
        <time>2026-05-02T12:02:59.000Z</time>
      </trkpt>
      <trkpt lat="44.78605" lon="0.83148">
        <ele>215.6</ele>
        <time>2026-05-02T12:03:00.000Z</time>
      </trkpt>
      <trkpt lat="44.786" lon="0.8315">
        <ele>215.7</ele>
        <time>2026-05-02T12:03:01.000Z</time>
      </trkpt>
      <trkpt lat="44.78595" lon="0.83151">
        <ele>216.2</ele>
        <time>2026-05-02T12:03:02.000Z</time>
      </trkpt>
      <trkpt lat="44.78591" lon="0.83152">
        <ele>217.1</ele>
        <time>2026-05-02T12:03:03.000Z</time>
      </trkpt>
      <trkpt lat="44.78587" lon="0.83151">
        <ele>216.3</ele>
        <time>2026-05-02T12:03:04.000Z</time>
      </trkpt>
      <trkpt lat="44.78582" lon="0.83149">
        <ele>216</ele>
        <time>2026-05-02T12:03:05.000Z</time>
      </trkpt>
      <trkpt lat="44.78578" lon="0.83146">
        <ele>216.4</ele>
        <time>2026-05-02T12:03:06.000Z</time>
      </trkpt>
      <trkpt lat="44.78576" lon="0.8314">
        <ele>217.2</ele>
        <time>2026-05-02T12:03:07.000Z</time>
      </trkpt>
      <trkpt lat="44.78575" lon="0.83132">
        <ele>217</ele>
        <time>2026-05-02T12:03:08.000Z</time>
      </trkpt>
      <trkpt lat="44.78573" lon="0.83125">
        <ele>217.4</ele>
        <time>2026-05-02T12:03:09.000Z</time>
      </trkpt>
      <trkpt lat="44.78572" lon="0.8312">
        <ele>218.7</ele>
        <time>2026-05-02T12:03:10.000Z</time>
      </trkpt>
      <trkpt lat="44.7857" lon="0.83116">
        <ele>218.9</ele>
        <time>2026-05-02T12:03:11.000Z</time>
      </trkpt>
      <trkpt lat="44.78567" lon="0.83115">
        <ele>218.9</ele>
        <time>2026-05-02T12:03:12.000Z</time>
      </trkpt>
      <trkpt lat="44.78564" lon="0.83112">
        <ele>218.5</ele>
        <time>2026-05-02T12:03:13.000Z</time>
      </trkpt>
      <trkpt lat="44.7856" lon="0.83113">
        <ele>218.3</ele>
        <time>2026-05-02T12:03:14.000Z</time>
      </trkpt>
      <trkpt lat="44.78557" lon="0.83114">
        <ele>218.7</ele>
        <time>2026-05-02T12:03:15.000Z</time>
      </trkpt>
      <trkpt lat="44.78553" lon="0.83114">
        <ele>218.5</ele>
        <time>2026-05-02T12:03:16.000Z</time>
      </trkpt>
      <trkpt lat="44.7855" lon="0.83114">
        <ele>217.5</ele>
        <time>2026-05-02T12:03:17.000Z</time>
      </trkpt>
      <trkpt lat="44.78547" lon="0.83114">
        <ele>217.9</ele>
        <time>2026-05-02T12:03:18.000Z</time>
      </trkpt>
      <trkpt lat="44.78544" lon="0.83115">
        <ele>218.3</ele>
        <time>2026-05-02T12:03:19.000Z</time>
      </trkpt>
      <trkpt lat="44.78541" lon="0.83116">
        <ele>217.8</ele>
        <time>2026-05-02T12:03:20.000Z</time>
      </trkpt>
      <trkpt lat="44.78538" lon="0.83116">
        <ele>217.8</ele>
        <time>2026-05-02T12:03:21.000Z</time>
      </trkpt>
      <trkpt lat="44.78535" lon="0.83117">
        <ele>216.9</ele>
        <time>2026-05-02T12:03:22.000Z</time>
      </trkpt>
      <trkpt lat="44.78532" lon="0.83119">
        <ele>217.2</ele>
        <time>2026-05-02T12:03:23.000Z</time>
      </trkpt>
      <trkpt lat="44.78529" lon="0.83119">
        <ele>216</ele>
        <time>2026-05-02T12:03:24.000Z</time>
      </trkpt>
      <trkpt lat="44.78526" lon="0.8312">
        <ele>215.9</ele>
        <time>2026-05-02T12:03:25.000Z</time>
      </trkpt>
      <trkpt lat="44.78523" lon="0.83121">
        <ele>215.5</ele>
        <time>2026-05-02T12:03:26.000Z</time>
      </trkpt>
      <trkpt lat="44.7852" lon="0.83122">
        <ele>215.6</ele>
        <time>2026-05-02T12:03:27.000Z</time>
      </trkpt>
      <trkpt lat="44.78517" lon="0.83123">
        <ele>215.7</ele>
        <time>2026-05-02T12:03:28.000Z</time>
      </trkpt>
      <trkpt lat="44.78514" lon="0.83124">
        <ele>214.6</ele>
        <time>2026-05-02T12:03:29.000Z</time>
      </trkpt>
      <trkpt lat="44.78511" lon="0.83124">
        <ele>213.3</ele>
        <time>2026-05-02T12:03:30.000Z</time>
      </trkpt>
      <trkpt lat="44.78508" lon="0.83124">
        <ele>213.2</ele>
        <time>2026-05-02T12:03:31.000Z</time>
      </trkpt>
      <trkpt lat="44.78505" lon="0.83124">
        <ele>212.8</ele>
        <time>2026-05-02T12:03:32.000Z</time>
      </trkpt>
      <trkpt lat="44.78502" lon="0.83124">
        <ele>213.3</ele>
        <time>2026-05-02T12:03:33.000Z</time>
      </trkpt>
      <trkpt lat="44.785" lon="0.83124">
        <ele>213.2</ele>
        <time>2026-05-02T12:03:34.000Z</time>
      </trkpt>
      <trkpt lat="44.78498" lon="0.83124">
        <ele>213.1</ele>
        <time>2026-05-02T12:03:35.000Z</time>
      </trkpt>
      <trkpt lat="44.78495" lon="0.83124">
        <ele>212.8</ele>
        <time>2026-05-02T12:03:36.000Z</time>
      </trkpt>
      <trkpt lat="44.78493" lon="0.83125">
        <ele>213</ele>
        <time>2026-05-02T12:03:37.000Z</time>
      </trkpt>
      <trkpt lat="44.78491" lon="0.83125">
        <ele>213</ele>
        <time>2026-05-02T12:03:38.000Z</time>
      </trkpt>
      <trkpt lat="44.78489" lon="0.83125">
        <ele>213.2</ele>
        <time>2026-05-02T12:03:39.000Z</time>
      </trkpt>
      <trkpt lat="44.78487" lon="0.83126">
        <ele>213.4</ele>
        <time>2026-05-02T12:03:40.000Z</time>
      </trkpt>
      <trkpt lat="44.78485" lon="0.83127">
        <ele>216.9</ele>
        <time>2026-05-02T12:03:41.000Z</time>
      </trkpt>
      <trkpt lat="44.78484" lon="0.8313">
        <ele>218.3</ele>
        <time>2026-05-02T12:03:42.000Z</time>
      </trkpt>
      <trkpt lat="44.78483" lon="0.83131">
        <ele>219.5</ele>
        <time>2026-05-02T12:03:43.000Z</time>
      </trkpt>
      <trkpt lat="44.78481" lon="0.83133">
        <ele>219.3</ele>
        <time>2026-05-02T12:03:44.000Z</time>
      </trkpt>
      <trkpt lat="44.7848" lon="0.83134">
        <ele>219.2</ele>
        <time>2026-05-02T12:03:45.000Z</time>
      </trkpt>
      <trkpt lat="44.78479" lon="0.83136">
        <ele>218.2</ele>
        <time>2026-05-02T12:03:46.000Z</time>
      </trkpt>
      <trkpt lat="44.78478" lon="0.83137">
        <ele>218.2</ele>
        <time>2026-05-02T12:03:47.000Z</time>
      </trkpt>
      <trkpt lat="44.78477" lon="0.83138">
        <ele>218.3</ele>
        <time>2026-05-02T12:03:48.000Z</time>
      </trkpt>
      <trkpt lat="44.78476" lon="0.83138">
        <ele>217</ele>
        <time>2026-05-02T12:03:49.000Z</time>
      </trkpt>
      <trkpt lat="44.78474" lon="0.83138">
        <ele>216.5</ele>
        <time>2026-05-02T12:03:50.000Z</time>
      </trkpt>
      <trkpt lat="44.78474" lon="0.83138">
        <ele>216.8</ele>
        <time>2026-05-02T12:03:51.000Z</time>
      </trkpt>
      <trkpt lat="44.78473" lon="0.8314">
        <ele>216.9</ele>
        <time>2026-05-02T12:03:52.000Z</time>
      </trkpt>
      <trkpt lat="44.78472" lon="0.83141">
        <ele>217.5</ele>
        <time>2026-05-02T12:03:53.000Z</time>
      </trkpt>
      <trkpt lat="44.78471" lon="0.83141">
        <ele>217.2</ele>
        <time>2026-05-02T12:03:54.000Z</time>
      </trkpt>
      <trkpt lat="44.7847" lon="0.83142">
        <ele>217</ele>
        <time>2026-05-02T12:03:55.000Z</time>
      </trkpt>
      <trkpt lat="44.78469" lon="0.83143">
        <ele>217.1</ele>
        <time>2026-05-02T12:03:56.000Z</time>
      </trkpt>
      <trkpt lat="44.78468" lon="0.83144">
        <ele>217.5</ele>
        <time>2026-05-02T12:03:57.000Z</time>
      </trkpt>
      <trkpt lat="44.78467" lon="0.83145">
        <ele>217.6</ele>
        <time>2026-05-02T12:03:58.000Z</time>
      </trkpt>
      <trkpt lat="44.78466" lon="0.83146">
        <ele>217.7</ele>
        <time>2026-05-02T12:03:59.000Z</time>
      </trkpt>
      <trkpt lat="44.78465" lon="0.83147">
        <ele>217.4</ele>
        <time>2026-05-02T12:04:00.000Z</time>
      </trkpt>
      <trkpt lat="44.78465" lon="0.83147">
        <ele>217.2</ele>
        <time>2026-05-02T12:04:01.000Z</time>
      </trkpt>
      <trkpt lat="44.78466" lon="0.83152">
        <ele>217.1</ele>
        <time>2026-05-02T12:04:02.000Z</time>
      </trkpt>
      <trkpt lat="44.78469" lon="0.83153">
        <ele>217.8</ele>
        <time>2026-05-02T12:04:03.000Z</time>
      </trkpt>
      <trkpt lat="44.78466" lon="0.83152">
        <ele>219</ele>
        <time>2026-05-02T12:04:04.000Z</time>
      </trkpt>
      <trkpt lat="44.78463" lon="0.83152">
        <ele>218.9</ele>
        <time>2026-05-02T12:04:05.000Z</time>
      </trkpt>
      <trkpt lat="44.78461" lon="0.83151">
        <ele>218.7</ele>
        <time>2026-05-02T12:04:06.000Z</time>
      </trkpt>
      <trkpt lat="44.7846" lon="0.83149">
        <ele>218.9</ele>
        <time>2026-05-02T12:04:07.000Z</time>
      </trkpt>
      <trkpt lat="44.78458" lon="0.83147">
        <ele>219.1</ele>
        <time>2026-05-02T12:04:08.000Z</time>
      </trkpt>
      <trkpt lat="44.78458" lon="0.83145">
        <ele>219.5</ele>
        <time>2026-05-02T12:04:09.000Z</time>
      </trkpt>
      <trkpt lat="44.78456" lon="0.83143">
        <ele>219.5</ele>
        <time>2026-05-02T12:04:10.000Z</time>
      </trkpt>
      <trkpt lat="44.78455" lon="0.83142">
        <ele>219.4</ele>
        <time>2026-05-02T12:04:11.000Z</time>
      </trkpt>
      <trkpt lat="44.78454" lon="0.8314">
        <ele>219.1</ele>
        <time>2026-05-02T12:04:12.000Z</time>
      </trkpt>
      <trkpt lat="44.78453" lon="0.83139">
        <ele>218.9</ele>
        <time>2026-05-02T12:04:13.000Z</time>
      </trkpt>
      <trkpt lat="44.78452" lon="0.83137">
        <ele>218.7</ele>
        <time>2026-05-02T12:04:14.000Z</time>
      </trkpt>
      <trkpt lat="44.78451" lon="0.83135">
        <ele>218.5</ele>
        <time>2026-05-02T12:04:15.000Z</time>
      </trkpt>
      <trkpt lat="44.7845" lon="0.83133">
        <ele>218.4</ele>
        <time>2026-05-02T12:04:16.000Z</time>
      </trkpt>
      <trkpt lat="44.78449" lon="0.83132">
        <ele>217.8</ele>
        <time>2026-05-02T12:04:17.000Z</time>
      </trkpt>
      <trkpt lat="44.78448" lon="0.8313">
        <ele>217.7</ele>
        <time>2026-05-02T12:04:18.000Z</time>
      </trkpt>
      <trkpt lat="44.78447" lon="0.83129">
        <ele>217.6</ele>
        <time>2026-05-02T12:04:19.000Z</time>
      </trkpt>
      <trkpt lat="44.78446" lon="0.83127">
        <ele>217.7</ele>
        <time>2026-05-02T12:04:20.000Z</time>
      </trkpt>
      <trkpt lat="44.78445" lon="0.83126">
        <ele>217.7</ele>
        <time>2026-05-02T12:04:21.000Z</time>
      </trkpt>
      <trkpt lat="44.78444" lon="0.83124">
        <ele>218.4</ele>
        <time>2026-05-02T12:04:22.000Z</time>
      </trkpt>
      <trkpt lat="44.78442" lon="0.83122">
        <ele>218.3</ele>
        <time>2026-05-02T12:04:23.000Z</time>
      </trkpt>
      <trkpt lat="44.78441" lon="0.83121">
        <ele>218.3</ele>
        <time>2026-05-02T12:04:24.000Z</time>
      </trkpt>
      <trkpt lat="44.7844" lon="0.83119">
        <ele>218.3</ele>
        <time>2026-05-02T12:04:25.000Z</time>
      </trkpt>
      <trkpt lat="44.78438" lon="0.83118">
        <ele>218.1</ele>
        <time>2026-05-02T12:04:26.000Z</time>
      </trkpt>
      <trkpt lat="44.78437" lon="0.83116">
        <ele>218.4</ele>
        <time>2026-05-02T12:04:27.000Z</time>
      </trkpt>
      <trkpt lat="44.78436" lon="0.83114">
        <ele>218.3</ele>
        <time>2026-05-02T12:04:28.000Z</time>
      </trkpt>
      <trkpt lat="44.78434" lon="0.83112">
        <ele>218.2</ele>
        <time>2026-05-02T12:04:29.000Z</time>
      </trkpt>
      <trkpt lat="44.78433" lon="0.83111">
        <ele>218.2</ele>
        <time>2026-05-02T12:04:30.000Z</time>
      </trkpt>
      <trkpt lat="44.78432" lon="0.83109">
        <ele>218.2</ele>
        <time>2026-05-02T12:04:31.000Z</time>
      </trkpt>
      <trkpt lat="44.7843" lon="0.83108">
        <ele>217.9</ele>
        <time>2026-05-02T12:04:32.000Z</time>
      </trkpt>
      <trkpt lat="44.78429" lon="0.83106">
        <ele>217.7</ele>
        <time>2026-05-02T12:04:33.000Z</time>
      </trkpt>
      <trkpt lat="44.78428" lon="0.83105">
        <ele>217.4</ele>
        <time>2026-05-02T12:04:34.000Z</time>
      </trkpt>
      <trkpt lat="44.78427" lon="0.83103">
        <ele>217.3</ele>
        <time>2026-05-02T12:04:35.000Z</time>
      </trkpt>
      <trkpt lat="44.78427" lon="0.83101">
        <ele>217.3</ele>
        <time>2026-05-02T12:04:36.000Z</time>
      </trkpt>
      <trkpt lat="44.78427" lon="0.83099">
        <ele>217.7</ele>
        <time>2026-05-02T12:04:37.000Z</time>
      </trkpt>
      <trkpt lat="44.78427" lon="0.83097">
        <ele>217.8</ele>
        <time>2026-05-02T12:04:38.000Z</time>
      </trkpt>
      <trkpt lat="44.78428" lon="0.83095">
        <ele>218</ele>
        <time>2026-05-02T12:04:39.000Z</time>
      </trkpt>
      <trkpt lat="44.78429" lon="0.83093">
        <ele>217.7</ele>
        <time>2026-05-02T12:04:40.000Z</time>
      </trkpt>
      <trkpt lat="44.78428" lon="0.8309">
        <ele>217.8</ele>
        <time>2026-05-02T12:04:41.000Z</time>
      </trkpt>
      <trkpt lat="44.78425" lon="0.83089">
        <ele>218.8</ele>
        <time>2026-05-02T12:04:42.000Z</time>
      </trkpt>
      <trkpt lat="44.78428" lon="0.83087">
        <ele>219.1</ele>
        <time>2026-05-02T12:04:43.000Z</time>
      </trkpt>
      <trkpt lat="44.78431" lon="0.83085">
        <ele>219.4</ele>
        <time>2026-05-02T12:04:44.000Z</time>
      </trkpt>
      <trkpt lat="44.78432" lon="0.83083">
        <ele>219.5</ele>
        <time>2026-05-02T12:04:45.000Z</time>
      </trkpt>
      <trkpt lat="44.78434" lon="0.83081">
        <ele>219.6</ele>
        <time>2026-05-02T12:04:46.000Z</time>
      </trkpt>
      <trkpt lat="44.78436" lon="0.8308">
        <ele>219.7</ele>
        <time>2026-05-02T12:04:47.000Z</time>
      </trkpt>
      <trkpt lat="44.78437" lon="0.83078">
        <ele>219.8</ele>
        <time>2026-05-02T12:04:48.000Z</time>
      </trkpt>
      <trkpt lat="44.78439" lon="0.83076">
        <ele>219.9</ele>
        <time>2026-05-02T12:04:49.000Z</time>
      </trkpt>
      <trkpt lat="44.78441" lon="0.83075">
        <ele>220</ele>
        <time>2026-05-02T12:04:50.000Z</time>
      </trkpt>
      <trkpt lat="44.78442" lon="0.83073">
        <ele>220</ele>
        <time>2026-05-02T12:04:51.000Z</time>
      </trkpt>
      <trkpt lat="44.78443" lon="0.83072">
        <ele>220</ele>
        <time>2026-05-02T12:04:52.000Z</time>
      </trkpt>
      <trkpt lat="44.78445" lon="0.8307">
        <ele>220.2</ele>
        <time>2026-05-02T12:04:53.000Z</time>
      </trkpt>
      <trkpt lat="44.78446" lon="0.83068">
        <ele>220.3</ele>
        <time>2026-05-02T12:04:54.000Z</time>
      </trkpt>
      <trkpt lat="44.78447" lon="0.83067">
        <ele>220.4</ele>
        <time>2026-05-02T12:04:55.000Z</time>
      </trkpt>
      <trkpt lat="44.78448" lon="0.83065">
        <ele>220.4</ele>
        <time>2026-05-02T12:04:56.000Z</time>
      </trkpt>
      <trkpt lat="44.78449" lon="0.83064">
        <ele>220</ele>
        <time>2026-05-02T12:04:57.000Z</time>
      </trkpt>
      <trkpt lat="44.7845" lon="0.83063">
        <ele>220</ele>
        <time>2026-05-02T12:04:58.000Z</time>
      </trkpt>
      <trkpt lat="44.78451" lon="0.83062">
        <ele>219.8</ele>
        <time>2026-05-02T12:04:59.000Z</time>
      </trkpt>
      <trkpt lat="44.78452" lon="0.8306">
        <ele>219.6</ele>
        <time>2026-05-02T12:05:00.000Z</time>
      </trkpt>
      <trkpt lat="44.78453" lon="0.83058">
        <ele>219.7</ele>
        <time>2026-05-02T12:05:01.000Z</time>
      </trkpt>
      <trkpt lat="44.78453" lon="0.83057">
        <ele>219.9</ele>
        <time>2026-05-02T12:05:02.000Z</time>
      </trkpt>
      <trkpt lat="44.78454" lon="0.83055">
        <ele>219.8</ele>
        <time>2026-05-02T12:05:03.000Z</time>
      </trkpt>
      <trkpt lat="44.78454" lon="0.83053">
        <ele>219.8</ele>
        <time>2026-05-02T12:05:04.000Z</time>
      </trkpt>
      <trkpt lat="44.78453" lon="0.83051">
        <ele>219.9</ele>
        <time>2026-05-02T12:05:05.000Z</time>
      </trkpt>
      <trkpt lat="44.78453" lon="0.83049">
        <ele>219.7</ele>
        <time>2026-05-02T12:05:06.000Z</time>
      </trkpt>
      <trkpt lat="44.78452" lon="0.83047">
        <ele>219.7</ele>
        <time>2026-05-02T12:05:07.000Z</time>
      </trkpt>
      <trkpt lat="44.78452" lon="0.83045">
        <ele>219.7</ele>
        <time>2026-05-02T12:05:08.000Z</time>
      </trkpt>
      <trkpt lat="44.78452" lon="0.83043">
        <ele>219.5</ele>
        <time>2026-05-02T12:05:09.000Z</time>
      </trkpt>
      <trkpt lat="44.78452" lon="0.83041">
        <ele>219.6</ele>
        <time>2026-05-02T12:05:10.000Z</time>
      </trkpt>
      <trkpt lat="44.78451" lon="0.83039">
        <ele>219.5</ele>
        <time>2026-05-02T12:05:11.000Z</time>
      </trkpt>
      <trkpt lat="44.78451" lon="0.83037">
        <ele>219.3</ele>
        <time>2026-05-02T12:05:12.000Z</time>
      </trkpt>
      <trkpt lat="44.7845" lon="0.83035">
        <ele>219.1</ele>
        <time>2026-05-02T12:05:13.000Z</time>
      </trkpt>
      <trkpt lat="44.78449" lon="0.83034">
        <ele>218.9</ele>
        <time>2026-05-02T12:05:14.000Z</time>
      </trkpt>
      <trkpt lat="44.78448" lon="0.83032">
        <ele>218.8</ele>
        <time>2026-05-02T12:05:15.000Z</time>
      </trkpt>
      <trkpt lat="44.78447" lon="0.83029">
        <ele>218.6</ele>
        <time>2026-05-02T12:05:16.000Z</time>
      </trkpt>
      <trkpt lat="44.78447" lon="0.83027">
        <ele>218.3</ele>
        <time>2026-05-02T12:05:17.000Z</time>
      </trkpt>
      <trkpt lat="44.78446" lon="0.83025">
        <ele>218</ele>
        <time>2026-05-02T12:05:18.000Z</time>
      </trkpt>
      <trkpt lat="44.78445" lon="0.83023">
        <ele>217.9</ele>
        <time>2026-05-02T12:05:19.000Z</time>
      </trkpt>
      <trkpt lat="44.78444" lon="0.83021">
        <ele>217.7</ele>
        <time>2026-05-02T12:05:20.000Z</time>
      </trkpt>
      <trkpt lat="44.78442" lon="0.83019">
        <ele>217.8</ele>
        <time>2026-05-02T12:05:21.000Z</time>
      </trkpt>
      <trkpt lat="44.78441" lon="0.83016">
        <ele>217.8</ele>
        <time>2026-05-02T12:05:22.000Z</time>
      </trkpt>
      <trkpt lat="44.7844" lon="0.83014">
        <ele>217.7</ele>
        <time>2026-05-02T12:05:23.000Z</time>
      </trkpt>
      <trkpt lat="44.78439" lon="0.83012">
        <ele>217.6</ele>
        <time>2026-05-02T12:05:24.000Z</time>
      </trkpt>
      <trkpt lat="44.78438" lon="0.8301">
        <ele>217.7</ele>
        <time>2026-05-02T12:05:25.000Z</time>
      </trkpt>
      <trkpt lat="44.78437" lon="0.83008">
        <ele>217.9</ele>
        <time>2026-05-02T12:05:26.000Z</time>
      </trkpt>
      <trkpt lat="44.78436" lon="0.83005">
        <ele>217.8</ele>
        <time>2026-05-02T12:05:27.000Z</time>
      </trkpt>
      <trkpt lat="44.78435" lon="0.83003">
        <ele>218.5</ele>
        <time>2026-05-02T12:05:28.000Z</time>
      </trkpt>
      <trkpt lat="44.78434" lon="0.83001">
        <ele>218.6</ele>
        <time>2026-05-02T12:05:29.000Z</time>
      </trkpt>
      <trkpt lat="44.78433" lon="0.82998">
        <ele>218.8</ele>
        <time>2026-05-02T12:05:30.000Z</time>
      </trkpt>
      <trkpt lat="44.78433" lon="0.82996">
        <ele>218.2</ele>
        <time>2026-05-02T12:05:31.000Z</time>
      </trkpt>
      <trkpt lat="44.78432" lon="0.82993">
        <ele>217.9</ele>
        <time>2026-05-02T12:05:32.000Z</time>
      </trkpt>
      <trkpt lat="44.78431" lon="0.82991">
        <ele>217.8</ele>
        <time>2026-05-02T12:05:33.000Z</time>
      </trkpt>
      <trkpt lat="44.7843" lon="0.82989">
        <ele>217.2</ele>
        <time>2026-05-02T12:05:34.000Z</time>
      </trkpt>
      <trkpt lat="44.78429" lon="0.82987">
        <ele>216.7</ele>
        <time>2026-05-02T12:05:35.000Z</time>
      </trkpt>
      <trkpt lat="44.78428" lon="0.82984">
        <ele>216.6</ele>
        <time>2026-05-02T12:05:36.000Z</time>
      </trkpt>
      <trkpt lat="44.78427" lon="0.8298">
        <ele>216.6</ele>
        <time>2026-05-02T12:05:37.000Z</time>
      </trkpt>
      <trkpt lat="44.78427" lon="0.82977">
        <ele>216.4</ele>
        <time>2026-05-02T12:05:38.000Z</time>
      </trkpt>
      <trkpt lat="44.78426" lon="0.82973">
        <ele>216.1</ele>
        <time>2026-05-02T12:05:39.000Z</time>
      </trkpt>
      <trkpt lat="44.78425" lon="0.82969">
        <ele>216.1</ele>
        <time>2026-05-02T12:05:40.000Z</time>
      </trkpt>
      <trkpt lat="44.78425" lon="0.82964">
        <ele>215.5</ele>
        <time>2026-05-02T12:05:41.000Z</time>
      </trkpt>
      <trkpt lat="44.78424" lon="0.8296">
        <ele>215.7</ele>
        <time>2026-05-02T12:05:42.000Z</time>
      </trkpt>
      <trkpt lat="44.78424" lon="0.82955">
        <ele>215.5</ele>
        <time>2026-05-02T12:05:43.000Z</time>
      </trkpt>
      <trkpt lat="44.78424" lon="0.82951">
        <ele>215.5</ele>
        <time>2026-05-02T12:05:44.000Z</time>
      </trkpt>
      <trkpt lat="44.78424" lon="0.82946">
        <ele>215.7</ele>
        <time>2026-05-02T12:05:45.000Z</time>
      </trkpt>
      <trkpt lat="44.78424" lon="0.82941">
        <ele>215.6</ele>
        <time>2026-05-02T12:05:46.000Z</time>
      </trkpt>
      <trkpt lat="44.78424" lon="0.82936">
        <ele>215.2</ele>
        <time>2026-05-02T12:05:47.000Z</time>
      </trkpt>
      <trkpt lat="44.78424" lon="0.82931">
        <ele>214.9</ele>
        <time>2026-05-02T12:05:48.000Z</time>
      </trkpt>
      <trkpt lat="44.78425" lon="0.82926">
        <ele>214.6</ele>
        <time>2026-05-02T12:05:49.000Z</time>
      </trkpt>
      <trkpt lat="44.78426" lon="0.82921">
        <ele>214</ele>
        <time>2026-05-02T12:05:50.000Z</time>
      </trkpt>
      <trkpt lat="44.78427" lon="0.82917">
        <ele>213.6</ele>
        <time>2026-05-02T12:05:51.000Z</time>
      </trkpt>
      <trkpt lat="44.78428" lon="0.82913">
        <ele>213.2</ele>
        <time>2026-05-02T12:05:52.000Z</time>
      </trkpt>
      <trkpt lat="44.7843" lon="0.82908">
        <ele>213.3</ele>
        <time>2026-05-02T12:05:53.000Z</time>
      </trkpt>
      <trkpt lat="44.7843" lon="0.82903">
        <ele>213.6</ele>
        <time>2026-05-02T12:05:54.000Z</time>
      </trkpt>
      <trkpt lat="44.78431" lon="0.82898">
        <ele>213.5</ele>
        <time>2026-05-02T12:05:55.000Z</time>
      </trkpt>
      <trkpt lat="44.78432" lon="0.82893">
        <ele>213.4</ele>
        <time>2026-05-02T12:05:56.000Z</time>
      </trkpt>
      <trkpt lat="44.78433" lon="0.82888">
        <ele>213.7</ele>
        <time>2026-05-02T12:05:57.000Z</time>
      </trkpt>
      <trkpt lat="44.78434" lon="0.82884">
        <ele>214.2</ele>
        <time>2026-05-02T12:05:58.000Z</time>
      </trkpt>
      <trkpt lat="44.78434" lon="0.82879">
        <ele>214.7</ele>
        <time>2026-05-02T12:05:59.000Z</time>
      </trkpt>
      <trkpt lat="44.78435" lon="0.82874">
        <ele>214.9</ele>
        <time>2026-05-02T12:06:00.000Z</time>
      </trkpt>
      <trkpt lat="44.78435" lon="0.82869">
        <ele>214.9</ele>
        <time>2026-05-02T12:06:01.000Z</time>
      </trkpt>
      <trkpt lat="44.78436" lon="0.82863">
        <ele>215.2</ele>
        <time>2026-05-02T12:06:02.000Z</time>
      </trkpt>
      <trkpt lat="44.78436" lon="0.82856">
        <ele>215.6</ele>
        <time>2026-05-02T12:06:03.000Z</time>
      </trkpt>
      <trkpt lat="44.78437" lon="0.82849">
        <ele>216.3</ele>
        <time>2026-05-02T12:06:04.000Z</time>
      </trkpt>
      <trkpt lat="44.78437" lon="0.82843">
        <ele>217.1</ele>
        <time>2026-05-02T12:06:05.000Z</time>
      </trkpt>
      <trkpt lat="44.78438" lon="0.82837">
        <ele>217.7</ele>
        <time>2026-05-02T12:06:06.000Z</time>
      </trkpt>
      <trkpt lat="44.78438" lon="0.82832">
        <ele>218</ele>
        <time>2026-05-02T12:06:07.000Z</time>
      </trkpt>
      <trkpt lat="44.78438" lon="0.82827">
        <ele>218.5</ele>
        <time>2026-05-02T12:06:08.000Z</time>
      </trkpt>
      <trkpt lat="44.78437" lon="0.82825">
        <ele>219</ele>
        <time>2026-05-02T12:06:09.000Z</time>
      </trkpt>
      <trkpt lat="44.78435" lon="0.82824">
        <ele>219.4</ele>
        <time>2026-05-02T12:06:10.000Z</time>
      </trkpt>
      <trkpt lat="44.78433" lon="0.82823">
        <ele>219.9</ele>
        <time>2026-05-02T12:06:11.000Z</time>
      </trkpt>
      <trkpt lat="44.78431" lon="0.82821">
        <ele>220.3</ele>
        <time>2026-05-02T12:06:12.000Z</time>
      </trkpt>
      <trkpt lat="44.78429" lon="0.82819">
        <ele>220.6</ele>
        <time>2026-05-02T12:06:13.000Z</time>
      </trkpt>
      <trkpt lat="44.78428" lon="0.82817">
        <ele>220.8</ele>
        <time>2026-05-02T12:06:14.000Z</time>
      </trkpt>
      <trkpt lat="44.78426" lon="0.82815">
        <ele>221</ele>
        <time>2026-05-02T12:06:15.000Z</time>
      </trkpt>
      <trkpt lat="44.78424" lon="0.82812">
        <ele>221.2</ele>
        <time>2026-05-02T12:06:16.000Z</time>
      </trkpt>
      <trkpt lat="44.78422" lon="0.8281">
        <ele>221.3</ele>
        <time>2026-05-02T12:06:17.000Z</time>
      </trkpt>
      <trkpt lat="44.78421" lon="0.82807">
        <ele>221.5</ele>
        <time>2026-05-02T12:06:18.000Z</time>
      </trkpt>
      <trkpt lat="44.78419" lon="0.82803">
        <ele>221.5</ele>
        <time>2026-05-02T12:06:19.000Z</time>
      </trkpt>
      <trkpt lat="44.78418" lon="0.82799">
        <ele>221.6</ele>
        <time>2026-05-02T12:06:20.000Z</time>
      </trkpt>
      <trkpt lat="44.78417" lon="0.82795">
        <ele>221.2</ele>
        <time>2026-05-02T12:06:21.000Z</time>
      </trkpt>
      <trkpt lat="44.78417" lon="0.8279">
        <ele>220</ele>
        <time>2026-05-02T12:06:22.000Z</time>
      </trkpt>
      <trkpt lat="44.78417" lon="0.82786">
        <ele>219.5</ele>
        <time>2026-05-02T12:06:23.000Z</time>
      </trkpt>
      <trkpt lat="44.78417" lon="0.82781">
        <ele>218.9</ele>
        <time>2026-05-02T12:06:24.000Z</time>
      </trkpt>
      <trkpt lat="44.78417" lon="0.82777">
        <ele>218.4</ele>
        <time>2026-05-02T12:06:25.000Z</time>
      </trkpt>
      <trkpt lat="44.78417" lon="0.82773">
        <ele>216.6</ele>
        <time>2026-05-02T12:06:26.000Z</time>
      </trkpt>
      <trkpt lat="44.78417" lon="0.8277">
        <ele>215.4</ele>
        <time>2026-05-02T12:06:27.000Z</time>
      </trkpt>
      <trkpt lat="44.78417" lon="0.82767">
        <ele>214.7</ele>
        <time>2026-05-02T12:06:28.000Z</time>
      </trkpt>
      <trkpt lat="44.78416" lon="0.82764">
        <ele>214</ele>
        <time>2026-05-02T12:06:29.000Z</time>
      </trkpt>
      <trkpt lat="44.78416" lon="0.82761">
        <ele>213.7</ele>
        <time>2026-05-02T12:06:30.000Z</time>
      </trkpt>
      <trkpt lat="44.78415" lon="0.82758">
        <ele>212.3</ele>
        <time>2026-05-02T12:06:31.000Z</time>
      </trkpt>
      <trkpt lat="44.78414" lon="0.82756">
        <ele>212.4</ele>
        <time>2026-05-02T12:06:32.000Z</time>
      </trkpt>
      <trkpt lat="44.78414" lon="0.82754">
        <ele>212.2</ele>
        <time>2026-05-02T12:06:33.000Z</time>
      </trkpt>
      <trkpt lat="44.78413" lon="0.82752">
        <ele>211.7</ele>
        <time>2026-05-02T12:06:34.000Z</time>
      </trkpt>
      <trkpt lat="44.78412" lon="0.82751">
        <ele>211.5</ele>
        <time>2026-05-02T12:06:35.000Z</time>
      </trkpt>
      <trkpt lat="44.78411" lon="0.82749">
        <ele>211.8</ele>
        <time>2026-05-02T12:06:36.000Z</time>
      </trkpt>
      <trkpt lat="44.78409" lon="0.82748">
        <ele>212.7</ele>
        <time>2026-05-02T12:06:37.000Z</time>
      </trkpt>
      <trkpt lat="44.78408" lon="0.82747">
        <ele>212.7</ele>
        <time>2026-05-02T12:06:38.000Z</time>
      </trkpt>
      <trkpt lat="44.78407" lon="0.82745">
        <ele>213.1</ele>
        <time>2026-05-02T12:06:39.000Z</time>
      </trkpt>
      <trkpt lat="44.78405" lon="0.82744">
        <ele>213</ele>
        <time>2026-05-02T12:06:40.000Z</time>
      </trkpt>
      <trkpt lat="44.78404" lon="0.82743">
        <ele>212.6</ele>
        <time>2026-05-02T12:06:41.000Z</time>
      </trkpt>
      <trkpt lat="44.78402" lon="0.82743">
        <ele>212.9</ele>
        <time>2026-05-02T12:06:42.000Z</time>
      </trkpt>
      <trkpt lat="44.78401" lon="0.82741">
        <ele>212.3</ele>
        <time>2026-05-02T12:06:43.000Z</time>
      </trkpt>
      <trkpt lat="44.784" lon="0.8274">
        <ele>212.1</ele>
        <time>2026-05-02T12:06:44.000Z</time>
      </trkpt>
      <trkpt lat="44.78398" lon="0.82739">
        <ele>212.4</ele>
        <time>2026-05-02T12:06:45.000Z</time>
      </trkpt>
      <trkpt lat="44.78397" lon="0.82738">
        <ele>212.5</ele>
        <time>2026-05-02T12:06:46.000Z</time>
      </trkpt>
      <trkpt lat="44.78396" lon="0.82737">
        <ele>212.5</ele>
        <time>2026-05-02T12:06:47.000Z</time>
      </trkpt>
      <trkpt lat="44.78394" lon="0.82736">
        <ele>212.5</ele>
        <time>2026-05-02T12:06:48.000Z</time>
      </trkpt>
      <trkpt lat="44.78392" lon="0.82734">
        <ele>212</ele>
        <time>2026-05-02T12:06:49.000Z</time>
      </trkpt>
      <trkpt lat="44.7839" lon="0.82732">
        <ele>211.8</ele>
        <time>2026-05-02T12:06:50.000Z</time>
      </trkpt>
      <trkpt lat="44.78389" lon="0.8273">
        <ele>211</ele>
        <time>2026-05-02T12:06:51.000Z</time>
      </trkpt>
      <trkpt lat="44.78388" lon="0.82728">
        <ele>211.1</ele>
        <time>2026-05-02T12:06:52.000Z</time>
      </trkpt>
      <trkpt lat="44.78387" lon="0.82727">
        <ele>210.9</ele>
        <time>2026-05-02T12:06:53.000Z</time>
      </trkpt>
      <trkpt lat="44.78386" lon="0.82726">
        <ele>211.1</ele>
        <time>2026-05-02T12:06:54.000Z</time>
      </trkpt>
      <trkpt lat="44.78385" lon="0.82724">
        <ele>210.8</ele>
        <time>2026-05-02T12:06:55.000Z</time>
      </trkpt>
      <trkpt lat="44.78384" lon="0.82723">
        <ele>210.7</ele>
        <time>2026-05-02T12:06:56.000Z</time>
      </trkpt>
      <trkpt lat="44.78383" lon="0.82721">
        <ele>211.1</ele>
        <time>2026-05-02T12:06:57.000Z</time>
      </trkpt>
      <trkpt lat="44.78382" lon="0.8272">
        <ele>211.4</ele>
        <time>2026-05-02T12:06:58.000Z</time>
      </trkpt>
      <trkpt lat="44.78381" lon="0.82719">
        <ele>211.4</ele>
        <time>2026-05-02T12:06:59.000Z</time>
      </trkpt>
      <trkpt lat="44.78379" lon="0.82717">
        <ele>211.1</ele>
        <time>2026-05-02T12:07:00.000Z</time>
      </trkpt>
      <trkpt lat="44.78378" lon="0.82716">
        <ele>210.6</ele>
        <time>2026-05-02T12:07:01.000Z</time>
      </trkpt>
      <trkpt lat="44.78377" lon="0.82715">
        <ele>211.8</ele>
        <time>2026-05-02T12:07:02.000Z</time>
      </trkpt>
      <trkpt lat="44.78375" lon="0.82715">
        <ele>213.7</ele>
        <time>2026-05-02T12:07:03.000Z</time>
      </trkpt>
      <trkpt lat="44.78373" lon="0.82714">
        <ele>213.3</ele>
        <time>2026-05-02T12:07:04.000Z</time>
      </trkpt>
      <trkpt lat="44.78372" lon="0.82715">
        <ele>214</ele>
        <time>2026-05-02T12:07:05.000Z</time>
      </trkpt>
      <trkpt lat="44.7837" lon="0.82715">
        <ele>214.6</ele>
        <time>2026-05-02T12:07:06.000Z</time>
      </trkpt>
      <trkpt lat="44.78369" lon="0.82715">
        <ele>214.5</ele>
        <time>2026-05-02T12:07:07.000Z</time>
      </trkpt>
      <trkpt lat="44.78367" lon="0.82714">
        <ele>214.7</ele>
        <time>2026-05-02T12:07:08.000Z</time>
      </trkpt>
      <trkpt lat="44.78366" lon="0.82714">
        <ele>214.5</ele>
        <time>2026-05-02T12:07:09.000Z</time>
      </trkpt>
      <trkpt lat="44.78364" lon="0.82714">
        <ele>214.5</ele>
        <time>2026-05-02T12:07:10.000Z</time>
      </trkpt>
      <trkpt lat="44.78363" lon="0.82714">
        <ele>215.3</ele>
        <time>2026-05-02T12:07:11.000Z</time>
      </trkpt>
      <trkpt lat="44.78361" lon="0.82714">
        <ele>216.6</ele>
        <time>2026-05-02T12:07:12.000Z</time>
      </trkpt>
      <trkpt lat="44.7836" lon="0.82715">
        <ele>217.7</ele>
        <time>2026-05-02T12:07:13.000Z</time>
      </trkpt>
      <trkpt lat="44.78358" lon="0.82715">
        <ele>216.1</ele>
        <time>2026-05-02T12:07:14.000Z</time>
      </trkpt>
      <trkpt lat="44.78357" lon="0.82715">
        <ele>215.2</ele>
        <time>2026-05-02T12:07:15.000Z</time>
      </trkpt>
      <trkpt lat="44.78355" lon="0.82715">
        <ele>215</ele>
        <time>2026-05-02T12:07:16.000Z</time>
      </trkpt>
      <trkpt lat="44.78354" lon="0.82715">
        <ele>214.8</ele>
        <time>2026-05-02T12:07:17.000Z</time>
      </trkpt>
      <trkpt lat="44.78352" lon="0.82715">
        <ele>214.5</ele>
        <time>2026-05-02T12:07:18.000Z</time>
      </trkpt>
      <trkpt lat="44.7835" lon="0.82714">
        <ele>213.2</ele>
        <time>2026-05-02T12:07:19.000Z</time>
      </trkpt>
      <trkpt lat="44.78349" lon="0.82713">
        <ele>213.9</ele>
        <time>2026-05-02T12:07:20.000Z</time>
      </trkpt>
      <trkpt lat="44.78347" lon="0.82711">
        <ele>213.4</ele>
        <time>2026-05-02T12:07:21.000Z</time>
      </trkpt>
      <trkpt lat="44.78346" lon="0.8271">
        <ele>212.9</ele>
        <time>2026-05-02T12:07:22.000Z</time>
      </trkpt>
      <trkpt lat="44.78345" lon="0.82708">
        <ele>213.4</ele>
        <time>2026-05-02T12:07:23.000Z</time>
      </trkpt>
      <trkpt lat="44.78344" lon="0.82706">
        <ele>213.3</ele>
        <time>2026-05-02T12:07:24.000Z</time>
      </trkpt>
      <trkpt lat="44.78342" lon="0.82705">
        <ele>212.8</ele>
        <time>2026-05-02T12:07:25.000Z</time>
      </trkpt>
      <trkpt lat="44.78342" lon="0.82703">
        <ele>213</ele>
        <time>2026-05-02T12:07:26.000Z</time>
      </trkpt>
      <trkpt lat="44.78341" lon="0.82701">
        <ele>213</ele>
        <time>2026-05-02T12:07:27.000Z</time>
      </trkpt>
      <trkpt lat="44.7834" lon="0.82699">
        <ele>212.4</ele>
        <time>2026-05-02T12:07:28.000Z</time>
      </trkpt>
      <trkpt lat="44.7834" lon="0.82697">
        <ele>212.2</ele>
        <time>2026-05-02T12:07:29.000Z</time>
      </trkpt>
      <trkpt lat="44.7834" lon="0.82694">
        <ele>211.6</ele>
        <time>2026-05-02T12:07:30.000Z</time>
      </trkpt>
      <trkpt lat="44.7834" lon="0.82691">
        <ele>211.6</ele>
        <time>2026-05-02T12:07:31.000Z</time>
      </trkpt>
      <trkpt lat="44.78339" lon="0.82689">
        <ele>212.3</ele>
        <time>2026-05-02T12:07:32.000Z</time>
      </trkpt>
      <trkpt lat="44.78338" lon="0.82686">
        <ele>212.2</ele>
        <time>2026-05-02T12:07:33.000Z</time>
      </trkpt>
      <trkpt lat="44.78338" lon="0.82684">
        <ele>211.8</ele>
        <time>2026-05-02T12:07:34.000Z</time>
      </trkpt>
      <trkpt lat="44.78337" lon="0.82681">
        <ele>212.4</ele>
        <time>2026-05-02T12:07:35.000Z</time>
      </trkpt>
      <trkpt lat="44.78336" lon="0.82678">
        <ele>212.7</ele>
        <time>2026-05-02T12:07:36.000Z</time>
      </trkpt>
      <trkpt lat="44.78335" lon="0.82676">
        <ele>212.1</ele>
        <time>2026-05-02T12:07:37.000Z</time>
      </trkpt>
      <trkpt lat="44.78333" lon="0.82674">
        <ele>212.5</ele>
        <time>2026-05-02T12:07:38.000Z</time>
      </trkpt>
      <trkpt lat="44.78332" lon="0.82672">
        <ele>212.7</ele>
        <time>2026-05-02T12:07:39.000Z</time>
      </trkpt>
      <trkpt lat="44.78331" lon="0.8267">
        <ele>212.9</ele>
        <time>2026-05-02T12:07:40.000Z</time>
      </trkpt>
      <trkpt lat="44.7833" lon="0.82668">
        <ele>213.2</ele>
        <time>2026-05-02T12:07:41.000Z</time>
      </trkpt>
      <trkpt lat="44.78329" lon="0.82665">
        <ele>212.7</ele>
        <time>2026-05-02T12:07:42.000Z</time>
      </trkpt>
      <trkpt lat="44.78329" lon="0.82663">
        <ele>212.8</ele>
        <time>2026-05-02T12:07:43.000Z</time>
      </trkpt>
      <trkpt lat="44.78328" lon="0.82661">
        <ele>212.5</ele>
        <time>2026-05-02T12:07:44.000Z</time>
      </trkpt>
      <trkpt lat="44.78327" lon="0.82658">
        <ele>212.5</ele>
        <time>2026-05-02T12:07:45.000Z</time>
      </trkpt>
      <trkpt lat="44.78326" lon="0.82656">
        <ele>212.4</ele>
        <time>2026-05-02T12:07:46.000Z</time>
      </trkpt>
      <trkpt lat="44.78325" lon="0.82655">
        <ele>212.1</ele>
        <time>2026-05-02T12:07:47.000Z</time>
      </trkpt>
      <trkpt lat="44.78324" lon="0.82653">
        <ele>212.3</ele>
        <time>2026-05-02T12:07:48.000Z</time>
      </trkpt>
      <trkpt lat="44.78323" lon="0.82651">
        <ele>212.6</ele>
        <time>2026-05-02T12:07:49.000Z</time>
      </trkpt>
      <trkpt lat="44.78322" lon="0.82649">
        <ele>212.6</ele>
        <time>2026-05-02T12:07:50.000Z</time>
      </trkpt>
      <trkpt lat="44.78322" lon="0.82646">
        <ele>212.6</ele>
        <time>2026-05-02T12:07:51.000Z</time>
      </trkpt>
      <trkpt lat="44.78321" lon="0.82644">
        <ele>212.5</ele>
        <time>2026-05-02T12:07:52.000Z</time>
      </trkpt>
      <trkpt lat="44.7832" lon="0.82642">
        <ele>212.6</ele>
        <time>2026-05-02T12:07:53.000Z</time>
      </trkpt>
      <trkpt lat="44.7832" lon="0.82639">
        <ele>212.6</ele>
        <time>2026-05-02T12:07:54.000Z</time>
      </trkpt>
      <trkpt lat="44.7832" lon="0.82637">
        <ele>212.6</ele>
        <time>2026-05-02T12:07:55.000Z</time>
      </trkpt>
      <trkpt lat="44.78319" lon="0.82634">
        <ele>212.1</ele>
        <time>2026-05-02T12:07:56.000Z</time>
      </trkpt>
      <trkpt lat="44.78319" lon="0.82632">
        <ele>212.2</ele>
        <time>2026-05-02T12:07:57.000Z</time>
      </trkpt>
      <trkpt lat="44.78319" lon="0.82629">
        <ele>211.9</ele>
        <time>2026-05-02T12:07:58.000Z</time>
      </trkpt>
      <trkpt lat="44.78318" lon="0.82626">
        <ele>211.9</ele>
        <time>2026-05-02T12:07:59.000Z</time>
      </trkpt>
      <trkpt lat="44.78318" lon="0.82624">
        <ele>211.7</ele>
        <time>2026-05-02T12:08:00.000Z</time>
      </trkpt>
      <trkpt lat="44.78318" lon="0.82621">
        <ele>212</ele>
        <time>2026-05-02T12:08:01.000Z</time>
      </trkpt>
      <trkpt lat="44.78317" lon="0.82619">
        <ele>211.9</ele>
        <time>2026-05-02T12:08:02.000Z</time>
      </trkpt>
      <trkpt lat="44.78317" lon="0.82617">
        <ele>212.1</ele>
        <time>2026-05-02T12:08:03.000Z</time>
      </trkpt>
      <trkpt lat="44.78316" lon="0.82614">
        <ele>212.2</ele>
        <time>2026-05-02T12:08:04.000Z</time>
      </trkpt>
      <trkpt lat="44.78316" lon="0.82612">
        <ele>212.6</ele>
        <time>2026-05-02T12:08:05.000Z</time>
      </trkpt>
      <trkpt lat="44.78315" lon="0.82609">
        <ele>212.5</ele>
        <time>2026-05-02T12:08:06.000Z</time>
      </trkpt>
      <trkpt lat="44.78315" lon="0.82607">
        <ele>212.5</ele>
        <time>2026-05-02T12:08:07.000Z</time>
      </trkpt>
      <trkpt lat="44.78314" lon="0.82604">
        <ele>212.3</ele>
        <time>2026-05-02T12:08:08.000Z</time>
      </trkpt>
      <trkpt lat="44.78314" lon="0.82602">
        <ele>212.3</ele>
        <time>2026-05-02T12:08:09.000Z</time>
      </trkpt>
      <trkpt lat="44.78314" lon="0.826">
        <ele>212.5</ele>
        <time>2026-05-02T12:08:10.000Z</time>
      </trkpt>
      <trkpt lat="44.78313" lon="0.82597">
        <ele>212.4</ele>
        <time>2026-05-02T12:08:11.000Z</time>
      </trkpt>
      <trkpt lat="44.78313" lon="0.82594">
        <ele>212.3</ele>
        <time>2026-05-02T12:08:12.000Z</time>
      </trkpt>
      <trkpt lat="44.78312" lon="0.82592">
        <ele>212.4</ele>
        <time>2026-05-02T12:08:13.000Z</time>
      </trkpt>
      <trkpt lat="44.78312" lon="0.82589">
        <ele>212.6</ele>
        <time>2026-05-02T12:08:14.000Z</time>
      </trkpt>
      <trkpt lat="44.78313" lon="0.82587">
        <ele>212.7</ele>
        <time>2026-05-02T12:08:15.000Z</time>
      </trkpt>
      <trkpt lat="44.78313" lon="0.82585">
        <ele>212.7</ele>
        <time>2026-05-02T12:08:16.000Z</time>
      </trkpt>
      <trkpt lat="44.78313" lon="0.82583">
        <ele>212.8</ele>
        <time>2026-05-02T12:08:17.000Z</time>
      </trkpt>
      <trkpt lat="44.78314" lon="0.82581">
        <ele>212.6</ele>
        <time>2026-05-02T12:08:18.000Z</time>
      </trkpt>
      <trkpt lat="44.78314" lon="0.82578">
        <ele>212.6</ele>
        <time>2026-05-02T12:08:19.000Z</time>
      </trkpt>
      <trkpt lat="44.78314" lon="0.82576">
        <ele>212.4</ele>
        <time>2026-05-02T12:08:20.000Z</time>
      </trkpt>
      <trkpt lat="44.78315" lon="0.82574">
        <ele>212.3</ele>
        <time>2026-05-02T12:08:21.000Z</time>
      </trkpt>
      <trkpt lat="44.78315" lon="0.82571">
        <ele>212.1</ele>
        <time>2026-05-02T12:08:22.000Z</time>
      </trkpt>
      <trkpt lat="44.78314" lon="0.82568">
        <ele>211.4</ele>
        <time>2026-05-02T12:08:23.000Z</time>
      </trkpt>
      <trkpt lat="44.78314" lon="0.82566">
        <ele>210.9</ele>
        <time>2026-05-02T12:08:24.000Z</time>
      </trkpt>
      <trkpt lat="44.78314" lon="0.82563">
        <ele>210.5</ele>
        <time>2026-05-02T12:08:25.000Z</time>
      </trkpt>
      <trkpt lat="44.78314" lon="0.82561">
        <ele>211.4</ele>
        <time>2026-05-02T12:08:26.000Z</time>
      </trkpt>
      <trkpt lat="44.78313" lon="0.82558">
        <ele>211.3</ele>
        <time>2026-05-02T12:08:27.000Z</time>
      </trkpt>
      <trkpt lat="44.78313" lon="0.82556">
        <ele>211.7</ele>
        <time>2026-05-02T12:08:28.000Z</time>
      </trkpt>
      <trkpt lat="44.78312" lon="0.82553">
        <ele>211.6</ele>
        <time>2026-05-02T12:08:29.000Z</time>
      </trkpt>
      <trkpt lat="44.78311" lon="0.82551">
        <ele>211.1</ele>
        <time>2026-05-02T12:08:30.000Z</time>
      </trkpt>
      <trkpt lat="44.7831" lon="0.82548">
        <ele>211.3</ele>
        <time>2026-05-02T12:08:31.000Z</time>
      </trkpt>
      <trkpt lat="44.7831" lon="0.82546">
        <ele>212</ele>
        <time>2026-05-02T12:08:32.000Z</time>
      </trkpt>
      <trkpt lat="44.78309" lon="0.82544">
        <ele>212.4</ele>
        <time>2026-05-02T12:08:33.000Z</time>
      </trkpt>
      <trkpt lat="44.78309" lon="0.82542">
        <ele>212.5</ele>
        <time>2026-05-02T12:08:34.000Z</time>
      </trkpt>
      <trkpt lat="44.78308" lon="0.8254">
        <ele>212.8</ele>
        <time>2026-05-02T12:08:35.000Z</time>
      </trkpt>
      <trkpt lat="44.78307" lon="0.82538">
        <ele>213</ele>
        <time>2026-05-02T12:08:36.000Z</time>
      </trkpt>
      <trkpt lat="44.78306" lon="0.82536">
        <ele>213.2</ele>
        <time>2026-05-02T12:08:37.000Z</time>
      </trkpt>
      <trkpt lat="44.78306" lon="0.82534">
        <ele>213.3</ele>
        <time>2026-05-02T12:08:38.000Z</time>
      </trkpt>
      <trkpt lat="44.78305" lon="0.82532">
        <ele>213.4</ele>
        <time>2026-05-02T12:08:39.000Z</time>
      </trkpt>
      <trkpt lat="44.78304" lon="0.8253">
        <ele>213.6</ele>
        <time>2026-05-02T12:08:40.000Z</time>
      </trkpt>
      <trkpt lat="44.78303" lon="0.82528">
        <ele>213.9</ele>
        <time>2026-05-02T12:08:41.000Z</time>
      </trkpt>
      <trkpt lat="44.78303" lon="0.82526">
        <ele>213.9</ele>
        <time>2026-05-02T12:08:42.000Z</time>
      </trkpt>
      <trkpt lat="44.78302" lon="0.82524">
        <ele>214.2</ele>
        <time>2026-05-02T12:08:43.000Z</time>
      </trkpt>
      <trkpt lat="44.78301" lon="0.82521">
        <ele>214.2</ele>
        <time>2026-05-02T12:08:44.000Z</time>
      </trkpt>
      <trkpt lat="44.783" lon="0.82519">
        <ele>214.3</ele>
        <time>2026-05-02T12:08:45.000Z</time>
      </trkpt>
      <trkpt lat="44.783" lon="0.82517">
        <ele>214.3</ele>
        <time>2026-05-02T12:08:46.000Z</time>
      </trkpt>
      <trkpt lat="44.78299" lon="0.82515">
        <ele>214.3</ele>
        <time>2026-05-02T12:08:47.000Z</time>
      </trkpt>
      <trkpt lat="44.78298" lon="0.82513">
        <ele>214.4</ele>
        <time>2026-05-02T12:08:48.000Z</time>
      </trkpt>
      <trkpt lat="44.78297" lon="0.8251">
        <ele>214.5</ele>
        <time>2026-05-02T12:08:49.000Z</time>
      </trkpt>
      <trkpt lat="44.78297" lon="0.82508">
        <ele>214.5</ele>
        <time>2026-05-02T12:08:50.000Z</time>
      </trkpt>
      <trkpt lat="44.78296" lon="0.82506">
        <ele>214.2</ele>
        <time>2026-05-02T12:08:51.000Z</time>
      </trkpt>
      <trkpt lat="44.78295" lon="0.82504">
        <ele>214.4</ele>
        <time>2026-05-02T12:08:52.000Z</time>
      </trkpt>
      <trkpt lat="44.78294" lon="0.82502">
        <ele>214.6</ele>
        <time>2026-05-02T12:08:53.000Z</time>
      </trkpt>
      <trkpt lat="44.78293" lon="0.825">
        <ele>214.5</ele>
        <time>2026-05-02T12:08:54.000Z</time>
      </trkpt>
      <trkpt lat="44.78293" lon="0.82498">
        <ele>214.6</ele>
        <time>2026-05-02T12:08:55.000Z</time>
      </trkpt>
      <trkpt lat="44.78292" lon="0.82496">
        <ele>214.4</ele>
        <time>2026-05-02T12:08:56.000Z</time>
      </trkpt>
      <trkpt lat="44.78291" lon="0.82494">
        <ele>214.5</ele>
        <time>2026-05-02T12:08:57.000Z</time>
      </trkpt>
      <trkpt lat="44.78291" lon="0.82491">
        <ele>214.4</ele>
        <time>2026-05-02T12:08:58.000Z</time>
      </trkpt>
      <trkpt lat="44.7829" lon="0.82489">
        <ele>214.4</ele>
        <time>2026-05-02T12:08:59.000Z</time>
      </trkpt>
      <trkpt lat="44.78289" lon="0.82487">
        <ele>214.5</ele>
        <time>2026-05-02T12:09:00.000Z</time>
      </trkpt>
      <trkpt lat="44.78289" lon="0.82484">
        <ele>214.8</ele>
        <time>2026-05-02T12:09:01.000Z</time>
      </trkpt>
      <trkpt lat="44.78291" lon="0.82481">
        <ele>214.1</ele>
        <time>2026-05-02T12:09:02.000Z</time>
      </trkpt>
      <trkpt lat="44.7829" lon="0.82479">
        <ele>215.1</ele>
        <time>2026-05-02T12:09:03.000Z</time>
      </trkpt>
      <trkpt lat="44.78289" lon="0.82476">
        <ele>215.3</ele>
        <time>2026-05-02T12:09:04.000Z</time>
      </trkpt>
      <trkpt lat="44.78288" lon="0.82474">
        <ele>215</ele>
        <time>2026-05-02T12:09:05.000Z</time>
      </trkpt>
      <trkpt lat="44.78287" lon="0.82472">
        <ele>215.2</ele>
        <time>2026-05-02T12:09:06.000Z</time>
      </trkpt>
      <trkpt lat="44.78286" lon="0.82469">
        <ele>215.3</ele>
        <time>2026-05-02T12:09:07.000Z</time>
      </trkpt>
      <trkpt lat="44.78286" lon="0.82467">
        <ele>215.3</ele>
        <time>2026-05-02T12:09:08.000Z</time>
      </trkpt>
      <trkpt lat="44.78285" lon="0.82465">
        <ele>215.1</ele>
        <time>2026-05-02T12:09:09.000Z</time>
      </trkpt>
      <trkpt lat="44.78284" lon="0.82463">
        <ele>215</ele>
        <time>2026-05-02T12:09:10.000Z</time>
      </trkpt>
      <trkpt lat="44.78284" lon="0.8246">
        <ele>215</ele>
        <time>2026-05-02T12:09:11.000Z</time>
      </trkpt>
      <trkpt lat="44.78283" lon="0.82458">
        <ele>215</ele>
        <time>2026-05-02T12:09:12.000Z</time>
      </trkpt>
      <trkpt lat="44.78282" lon="0.82456">
        <ele>215</ele>
        <time>2026-05-02T12:09:13.000Z</time>
      </trkpt>
      <trkpt lat="44.78282" lon="0.82453">
        <ele>215.1</ele>
        <time>2026-05-02T12:09:14.000Z</time>
      </trkpt>
      <trkpt lat="44.78281" lon="0.82451">
        <ele>215.1</ele>
        <time>2026-05-02T12:09:15.000Z</time>
      </trkpt>
      <trkpt lat="44.78281" lon="0.82449">
        <ele>215.1</ele>
        <time>2026-05-02T12:09:16.000Z</time>
      </trkpt>
      <trkpt lat="44.7828" lon="0.82447">
        <ele>215.2</ele>
        <time>2026-05-02T12:09:17.000Z</time>
      </trkpt>
      <trkpt lat="44.7828" lon="0.82446">
        <ele>215</ele>
        <time>2026-05-02T12:09:18.000Z</time>
      </trkpt>
      <trkpt lat="44.78281" lon="0.82443">
        <ele>215</ele>
        <time>2026-05-02T12:09:19.000Z</time>
      </trkpt>
      <trkpt lat="44.78278" lon="0.82441">
        <ele>215.2</ele>
        <time>2026-05-02T12:09:20.000Z</time>
      </trkpt>
      <trkpt lat="44.78277" lon="0.82439">
        <ele>215.1</ele>
        <time>2026-05-02T12:09:21.000Z</time>
      </trkpt>
      <trkpt lat="44.78276" lon="0.82437">
        <ele>214.9</ele>
        <time>2026-05-02T12:09:22.000Z</time>
      </trkpt>
      <trkpt lat="44.78276" lon="0.82436">
        <ele>214.7</ele>
        <time>2026-05-02T12:09:23.000Z</time>
      </trkpt>
      <trkpt lat="44.78274" lon="0.82434">
        <ele>214.9</ele>
        <time>2026-05-02T12:09:24.000Z</time>
      </trkpt>
      <trkpt lat="44.78273" lon="0.82432">
        <ele>214.9</ele>
        <time>2026-05-02T12:09:25.000Z</time>
      </trkpt>
      <trkpt lat="44.78272" lon="0.82431">
        <ele>214.8</ele>
        <time>2026-05-02T12:09:26.000Z</time>
      </trkpt>
      <trkpt lat="44.7827" lon="0.8243">
        <ele>214.4</ele>
        <time>2026-05-02T12:09:27.000Z</time>
      </trkpt>
      <trkpt lat="44.78268" lon="0.8243">
        <ele>214.8</ele>
        <time>2026-05-02T12:09:28.000Z</time>
      </trkpt>
      <trkpt lat="44.78266" lon="0.8243">
        <ele>214.7</ele>
        <time>2026-05-02T12:09:29.000Z</time>
      </trkpt>
      <trkpt lat="44.78264" lon="0.82431">
        <ele>215</ele>
        <time>2026-05-02T12:09:30.000Z</time>
      </trkpt>
      <trkpt lat="44.78262" lon="0.82432">
        <ele>214.9</ele>
        <time>2026-05-02T12:09:31.000Z</time>
      </trkpt>
      <trkpt lat="44.78261" lon="0.82433">
        <ele>215.1</ele>
        <time>2026-05-02T12:09:32.000Z</time>
      </trkpt>
      <trkpt lat="44.78259" lon="0.82434">
        <ele>215</ele>
        <time>2026-05-02T12:09:33.000Z</time>
      </trkpt>
      <trkpt lat="44.78258" lon="0.82434">
        <ele>215.2</ele>
        <time>2026-05-02T12:09:34.000Z</time>
      </trkpt>
      <trkpt lat="44.78256" lon="0.82434">
        <ele>215.3</ele>
        <time>2026-05-02T12:09:35.000Z</time>
      </trkpt>
      <trkpt lat="44.78254" lon="0.82433">
        <ele>215.8</ele>
        <time>2026-05-02T12:09:36.000Z</time>
      </trkpt>
      <trkpt lat="44.78253" lon="0.82432">
        <ele>216</ele>
        <time>2026-05-02T12:09:37.000Z</time>
      </trkpt>
      <trkpt lat="44.78253" lon="0.8243">
        <ele>216</ele>
        <time>2026-05-02T12:09:38.000Z</time>
      </trkpt>
      <trkpt lat="44.78252" lon="0.82428">
        <ele>215.9</ele>
        <time>2026-05-02T12:09:39.000Z</time>
      </trkpt>
      <trkpt lat="44.78253" lon="0.82426">
        <ele>216</ele>
        <time>2026-05-02T12:09:40.000Z</time>
      </trkpt>
      <trkpt lat="44.78249" lon="0.82424">
        <ele>216.4</ele>
        <time>2026-05-02T12:09:41.000Z</time>
      </trkpt>
      <trkpt lat="44.78247" lon="0.82427">
        <ele>216.3</ele>
        <time>2026-05-02T12:09:42.000Z</time>
      </trkpt>
      <trkpt lat="44.7825" lon="0.82422">
        <ele>216</ele>
        <time>2026-05-02T12:09:43.000Z</time>
      </trkpt>
      <trkpt lat="44.78252" lon="0.82418">
        <ele>216.3</ele>
        <time>2026-05-02T12:09:44.000Z</time>
      </trkpt>
      <trkpt lat="44.78252" lon="0.82415">
        <ele>216.1</ele>
        <time>2026-05-02T12:09:45.000Z</time>
      </trkpt>
      <trkpt lat="44.78253" lon="0.82412">
        <ele>216.2</ele>
        <time>2026-05-02T12:09:46.000Z</time>
      </trkpt>
      <trkpt lat="44.78253" lon="0.8241">
        <ele>216.8</ele>
        <time>2026-05-02T12:09:47.000Z</time>
      </trkpt>
      <trkpt lat="44.78254" lon="0.82407">
        <ele>217.2</ele>
        <time>2026-05-02T12:09:48.000Z</time>
      </trkpt>
      <trkpt lat="44.78255" lon="0.82405">
        <ele>217.2</ele>
        <time>2026-05-02T12:09:49.000Z</time>
      </trkpt>
      <trkpt lat="44.78255" lon="0.82402">
        <ele>217.6</ele>
        <time>2026-05-02T12:09:50.000Z</time>
      </trkpt>
      <trkpt lat="44.78256" lon="0.824">
        <ele>217.7</ele>
        <time>2026-05-02T12:09:51.000Z</time>
      </trkpt>
      <trkpt lat="44.78256" lon="0.82397">
        <ele>217.6</ele>
        <time>2026-05-02T12:09:52.000Z</time>
      </trkpt>
      <trkpt lat="44.78256" lon="0.82395">
        <ele>217.9</ele>
        <time>2026-05-02T12:09:53.000Z</time>
      </trkpt>
      <trkpt lat="44.78257" lon="0.82393">
        <ele>218</ele>
        <time>2026-05-02T12:09:54.000Z</time>
      </trkpt>
      <trkpt lat="44.78257" lon="0.8239">
        <ele>218.1</ele>
        <time>2026-05-02T12:09:55.000Z</time>
      </trkpt>
      <trkpt lat="44.78258" lon="0.82388">
        <ele>218.1</ele>
        <time>2026-05-02T12:09:56.000Z</time>
      </trkpt>
      <trkpt lat="44.78258" lon="0.82386">
        <ele>218.4</ele>
        <time>2026-05-02T12:09:57.000Z</time>
      </trkpt>
      <trkpt lat="44.78258" lon="0.82383">
        <ele>218.6</ele>
        <time>2026-05-02T12:09:58.000Z</time>
      </trkpt>
      <trkpt lat="44.78258" lon="0.82381">
        <ele>218.9</ele>
        <time>2026-05-02T12:09:59.000Z</time>
      </trkpt>
      <trkpt lat="44.78258" lon="0.82378">
        <ele>218.7</ele>
        <time>2026-05-02T12:10:00.000Z</time>
      </trkpt>
      <trkpt lat="44.78258" lon="0.82376">
        <ele>218.6</ele>
        <time>2026-05-02T12:10:01.000Z</time>
      </trkpt>
      <trkpt lat="44.78258" lon="0.82374">
        <ele>218.7</ele>
        <time>2026-05-02T12:10:02.000Z</time>
      </trkpt>
      <trkpt lat="44.78258" lon="0.82372">
        <ele>218.8</ele>
        <time>2026-05-02T12:10:03.000Z</time>
      </trkpt>
      <trkpt lat="44.78258" lon="0.82369">
        <ele>218.7</ele>
        <time>2026-05-02T12:10:04.000Z</time>
      </trkpt>
      <trkpt lat="44.78258" lon="0.82367">
        <ele>218.5</ele>
        <time>2026-05-02T12:10:05.000Z</time>
      </trkpt>
      <trkpt lat="44.78258" lon="0.82365">
        <ele>218.7</ele>
        <time>2026-05-02T12:10:06.000Z</time>
      </trkpt>
      <trkpt lat="44.78258" lon="0.82363">
        <ele>218.6</ele>
        <time>2026-05-02T12:10:07.000Z</time>
      </trkpt>
      <trkpt lat="44.78257" lon="0.8236">
        <ele>218.3</ele>
        <time>2026-05-02T12:10:08.000Z</time>
      </trkpt>
      <trkpt lat="44.78257" lon="0.82358">
        <ele>218.3</ele>
        <time>2026-05-02T12:10:09.000Z</time>
      </trkpt>
      <trkpt lat="44.78257" lon="0.82356">
        <ele>217.9</ele>
        <time>2026-05-02T12:10:10.000Z</time>
      </trkpt>
      <trkpt lat="44.78257" lon="0.82354">
        <ele>218.1</ele>
        <time>2026-05-02T12:10:11.000Z</time>
      </trkpt>
      <trkpt lat="44.78256" lon="0.82351">
        <ele>218.2</ele>
        <time>2026-05-02T12:10:12.000Z</time>
      </trkpt>
      <trkpt lat="44.78256" lon="0.82349">
        <ele>218.1</ele>
        <time>2026-05-02T12:10:13.000Z</time>
      </trkpt>
      <trkpt lat="44.78256" lon="0.82347">
        <ele>218</ele>
        <time>2026-05-02T12:10:14.000Z</time>
      </trkpt>
      <trkpt lat="44.78256" lon="0.82345">
        <ele>218.4</ele>
        <time>2026-05-02T12:10:15.000Z</time>
      </trkpt>
      <trkpt lat="44.78255" lon="0.82343">
        <ele>218.3</ele>
        <time>2026-05-02T12:10:16.000Z</time>
      </trkpt>
      <trkpt lat="44.78255" lon="0.8234">
        <ele>218.4</ele>
        <time>2026-05-02T12:10:17.000Z</time>
      </trkpt>
      <trkpt lat="44.78255" lon="0.82338">
        <ele>218.4</ele>
        <time>2026-05-02T12:10:18.000Z</time>
      </trkpt>
      <trkpt lat="44.78255" lon="0.82336">
        <ele>218.6</ele>
        <time>2026-05-02T12:10:19.000Z</time>
      </trkpt>
      <trkpt lat="44.78254" lon="0.82334">
        <ele>218.8</ele>
        <time>2026-05-02T12:10:20.000Z</time>
      </trkpt>
      <trkpt lat="44.78253" lon="0.82331">
        <ele>218.7</ele>
        <time>2026-05-02T12:10:21.000Z</time>
      </trkpt>
      <trkpt lat="44.78253" lon="0.82329">
        <ele>218.3</ele>
        <time>2026-05-02T12:10:22.000Z</time>
      </trkpt>
      <trkpt lat="44.78252" lon="0.82327">
        <ele>218.1</ele>
        <time>2026-05-02T12:10:23.000Z</time>
      </trkpt>
      <trkpt lat="44.78251" lon="0.82325">
        <ele>218.2</ele>
        <time>2026-05-02T12:10:24.000Z</time>
      </trkpt>
      <trkpt lat="44.78251" lon="0.82323">
        <ele>219</ele>
        <time>2026-05-02T12:10:25.000Z</time>
      </trkpt>
      <trkpt lat="44.78251" lon="0.82321">
        <ele>219.2</ele>
        <time>2026-05-02T12:10:26.000Z</time>
      </trkpt>
      <trkpt lat="44.78251" lon="0.82319">
        <ele>219.3</ele>
        <time>2026-05-02T12:10:27.000Z</time>
      </trkpt>
      <trkpt lat="44.7825" lon="0.82317">
        <ele>219.3</ele>
        <time>2026-05-02T12:10:28.000Z</time>
      </trkpt>
      <trkpt lat="44.7825" lon="0.82315">
        <ele>219.4</ele>
        <time>2026-05-02T12:10:29.000Z</time>
      </trkpt>
      <trkpt lat="44.7825" lon="0.82312">
        <ele>219.5</ele>
        <time>2026-05-02T12:10:30.000Z</time>
      </trkpt>
      <trkpt lat="44.78249" lon="0.8231">
        <ele>219.6</ele>
        <time>2026-05-02T12:10:31.000Z</time>
      </trkpt>
      <trkpt lat="44.78249" lon="0.82308">
        <ele>219.3</ele>
        <time>2026-05-02T12:10:32.000Z</time>
      </trkpt>
      <trkpt lat="44.78249" lon="0.82306">
        <ele>219.6</ele>
        <time>2026-05-02T12:10:33.000Z</time>
      </trkpt>
      <trkpt lat="44.78249" lon="0.82304">
        <ele>219.4</ele>
        <time>2026-05-02T12:10:34.000Z</time>
      </trkpt>
      <trkpt lat="44.78248" lon="0.82301">
        <ele>219.5</ele>
        <time>2026-05-02T12:10:35.000Z</time>
      </trkpt>
      <trkpt lat="44.78248" lon="0.82299">
        <ele>219.6</ele>
        <time>2026-05-02T12:10:36.000Z</time>
      </trkpt>
      <trkpt lat="44.78248" lon="0.82297">
        <ele>219.7</ele>
        <time>2026-05-02T12:10:37.000Z</time>
      </trkpt>
      <trkpt lat="44.78248" lon="0.82295">
        <ele>219.7</ele>
        <time>2026-05-02T12:10:38.000Z</time>
      </trkpt>
      <trkpt lat="44.78248" lon="0.82292">
        <ele>219.6</ele>
        <time>2026-05-02T12:10:39.000Z</time>
      </trkpt>
      <trkpt lat="44.78247" lon="0.8229">
        <ele>219.6</ele>
        <time>2026-05-02T12:10:40.000Z</time>
      </trkpt>
      <trkpt lat="44.78247" lon="0.82288">
        <ele>219.9</ele>
        <time>2026-05-02T12:10:41.000Z</time>
      </trkpt>
      <trkpt lat="44.78247" lon="0.82286">
        <ele>219.9</ele>
        <time>2026-05-02T12:10:42.000Z</time>
      </trkpt>
      <trkpt lat="44.78247" lon="0.82284">
        <ele>219.7</ele>
        <time>2026-05-02T12:10:43.000Z</time>
      </trkpt>
      <trkpt lat="44.78246" lon="0.82281">
        <ele>219.8</ele>
        <time>2026-05-02T12:10:44.000Z</time>
      </trkpt>
      <trkpt lat="44.78246" lon="0.82279">
        <ele>220</ele>
        <time>2026-05-02T12:10:45.000Z</time>
      </trkpt>
      <trkpt lat="44.78246" lon="0.82277">
        <ele>220.2</ele>
        <time>2026-05-02T12:10:46.000Z</time>
      </trkpt>
      <trkpt lat="44.78246" lon="0.82275">
        <ele>220.2</ele>
        <time>2026-05-02T12:10:47.000Z</time>
      </trkpt>
      <trkpt lat="44.78246" lon="0.82273">
        <ele>220.1</ele>
        <time>2026-05-02T12:10:48.000Z</time>
      </trkpt>
      <trkpt lat="44.78246" lon="0.82271">
        <ele>219.7</ele>
        <time>2026-05-02T12:10:49.000Z</time>
      </trkpt>
      <trkpt lat="44.78246" lon="0.82268">
        <ele>220.2</ele>
        <time>2026-05-02T12:10:50.000Z</time>
      </trkpt>
      <trkpt lat="44.78246" lon="0.82266">
        <ele>220.3</ele>
        <time>2026-05-02T12:10:51.000Z</time>
      </trkpt>
      <trkpt lat="44.78246" lon="0.82264">
        <ele>220.3</ele>
        <time>2026-05-02T12:10:52.000Z</time>
      </trkpt>
      <trkpt lat="44.78245" lon="0.82261">
        <ele>220.4</ele>
        <time>2026-05-02T12:10:53.000Z</time>
      </trkpt>
      <trkpt lat="44.78245" lon="0.82259">
        <ele>220.3</ele>
        <time>2026-05-02T12:10:54.000Z</time>
      </trkpt>
      <trkpt lat="44.78245" lon="0.82256">
        <ele>220.1</ele>
        <time>2026-05-02T12:10:55.000Z</time>
      </trkpt>
      <trkpt lat="44.78245" lon="0.82254">
        <ele>219.8</ele>
        <time>2026-05-02T12:10:56.000Z</time>
      </trkpt>
      <trkpt lat="44.78245" lon="0.82252">
        <ele>219.7</ele>
        <time>2026-05-02T12:10:57.000Z</time>
      </trkpt>
      <trkpt lat="44.78244" lon="0.82249">
        <ele>219.7</ele>
        <time>2026-05-02T12:10:58.000Z</time>
      </trkpt>
      <trkpt lat="44.78244" lon="0.82247">
        <ele>219.7</ele>
        <time>2026-05-02T12:10:59.000Z</time>
      </trkpt>
      <trkpt lat="44.78244" lon="0.82244">
        <ele>219.5</ele>
        <time>2026-05-02T12:11:00.000Z</time>
      </trkpt>
      <trkpt lat="44.78243" lon="0.82242">
        <ele>219.4</ele>
        <time>2026-05-02T12:11:01.000Z</time>
      </trkpt>
      <trkpt lat="44.78243" lon="0.8224">
        <ele>219.2</ele>
        <time>2026-05-02T12:11:02.000Z</time>
      </trkpt>
      <trkpt lat="44.78243" lon="0.82237">
        <ele>219</ele>
        <time>2026-05-02T12:11:03.000Z</time>
      </trkpt>
      <trkpt lat="44.78243" lon="0.82235">
        <ele>219.1</ele>
        <time>2026-05-02T12:11:04.000Z</time>
      </trkpt>
      <trkpt lat="44.78243" lon="0.82232">
        <ele>219.2</ele>
        <time>2026-05-02T12:11:05.000Z</time>
      </trkpt>
      <trkpt lat="44.78242" lon="0.8223">
        <ele>219.2</ele>
        <time>2026-05-02T12:11:06.000Z</time>
      </trkpt>
      <trkpt lat="44.78242" lon="0.82228">
        <ele>219.2</ele>
        <time>2026-05-02T12:11:07.000Z</time>
      </trkpt>
      <trkpt lat="44.78242" lon="0.82226">
        <ele>219.2</ele>
        <time>2026-05-02T12:11:08.000Z</time>
      </trkpt>
      <trkpt lat="44.78242" lon="0.82223">
        <ele>219.4</ele>
        <time>2026-05-02T12:11:09.000Z</time>
      </trkpt>
      <trkpt lat="44.78241" lon="0.82221">
        <ele>219.2</ele>
        <time>2026-05-02T12:11:10.000Z</time>
      </trkpt>
      <trkpt lat="44.78241" lon="0.82219">
        <ele>218.8</ele>
        <time>2026-05-02T12:11:11.000Z</time>
      </trkpt>
      <trkpt lat="44.78241" lon="0.82217">
        <ele>218.6</ele>
        <time>2026-05-02T12:11:12.000Z</time>
      </trkpt>
      <trkpt lat="44.78241" lon="0.82214">
        <ele>218.1</ele>
        <time>2026-05-02T12:11:13.000Z</time>
      </trkpt>
      <trkpt lat="44.7824" lon="0.82211">
        <ele>217.6</ele>
        <time>2026-05-02T12:11:14.000Z</time>
      </trkpt>
      <trkpt lat="44.78239" lon="0.82208">
        <ele>217.6</ele>
        <time>2026-05-02T12:11:15.000Z</time>
      </trkpt>
      <trkpt lat="44.78239" lon="0.82206">
        <ele>217.5</ele>
        <time>2026-05-02T12:11:16.000Z</time>
      </trkpt>
      <trkpt lat="44.78239" lon="0.82204">
        <ele>217.3</ele>
        <time>2026-05-02T12:11:17.000Z</time>
      </trkpt>
      <trkpt lat="44.78239" lon="0.82202">
        <ele>217.2</ele>
        <time>2026-05-02T12:11:18.000Z</time>
      </trkpt>
      <trkpt lat="44.78239" lon="0.822">
        <ele>217</ele>
        <time>2026-05-02T12:11:19.000Z</time>
      </trkpt>
      <trkpt lat="44.78238" lon="0.82198">
        <ele>216.8</ele>
        <time>2026-05-02T12:11:20.000Z</time>
      </trkpt>
      <trkpt lat="44.78238" lon="0.82196">
        <ele>216.4</ele>
        <time>2026-05-02T12:11:21.000Z</time>
      </trkpt>
      <trkpt lat="44.78238" lon="0.82193">
        <ele>216.3</ele>
        <time>2026-05-02T12:11:22.000Z</time>
      </trkpt>
      <trkpt lat="44.78238" lon="0.82191">
        <ele>216.1</ele>
        <time>2026-05-02T12:11:23.000Z</time>
      </trkpt>
      <trkpt lat="44.78238" lon="0.82189">
        <ele>216.1</ele>
        <time>2026-05-02T12:11:24.000Z</time>
      </trkpt>
      <trkpt lat="44.78237" lon="0.82187">
        <ele>216</ele>
        <time>2026-05-02T12:11:25.000Z</time>
      </trkpt>
      <trkpt lat="44.78237" lon="0.82185">
        <ele>216.1</ele>
        <time>2026-05-02T12:11:26.000Z</time>
      </trkpt>
      <trkpt lat="44.78237" lon="0.82182">
        <ele>216.1</ele>
        <time>2026-05-02T12:11:27.000Z</time>
      </trkpt>
      <trkpt lat="44.78237" lon="0.8218">
        <ele>216.3</ele>
        <time>2026-05-02T12:11:28.000Z</time>
      </trkpt>
      <trkpt lat="44.78237" lon="0.82178">
        <ele>216.3</ele>
        <time>2026-05-02T12:11:29.000Z</time>
      </trkpt>
      <trkpt lat="44.78237" lon="0.82176">
        <ele>216.4</ele>
        <time>2026-05-02T12:11:30.000Z</time>
      </trkpt>
      <trkpt lat="44.78236" lon="0.82173">
        <ele>216.5</ele>
        <time>2026-05-02T12:11:31.000Z</time>
      </trkpt>
      <trkpt lat="44.78236" lon="0.82171">
        <ele>216.4</ele>
        <time>2026-05-02T12:11:32.000Z</time>
      </trkpt>
      <trkpt lat="44.78236" lon="0.82168">
        <ele>216.4</ele>
        <time>2026-05-02T12:11:33.000Z</time>
      </trkpt>
      <trkpt lat="44.78236" lon="0.82166">
        <ele>216.5</ele>
        <time>2026-05-02T12:11:34.000Z</time>
      </trkpt>
      <trkpt lat="44.78236" lon="0.82164">
        <ele>216.5</ele>
        <time>2026-05-02T12:11:35.000Z</time>
      </trkpt>
      <trkpt lat="44.78236" lon="0.82161">
        <ele>216.4</ele>
        <time>2026-05-02T12:11:36.000Z</time>
      </trkpt>
      <trkpt lat="44.78236" lon="0.82159">
        <ele>216.6</ele>
        <time>2026-05-02T12:11:37.000Z</time>
      </trkpt>
      <trkpt lat="44.78236" lon="0.82156">
        <ele>216.6</ele>
        <time>2026-05-02T12:11:38.000Z</time>
      </trkpt>
      <trkpt lat="44.78236" lon="0.82154">
        <ele>216.7</ele>
        <time>2026-05-02T12:11:39.000Z</time>
      </trkpt>
      <trkpt lat="44.78236" lon="0.82152">
        <ele>216.7</ele>
        <time>2026-05-02T12:11:40.000Z</time>
      </trkpt>
      <trkpt lat="44.78237" lon="0.82149">
        <ele>216.8</ele>
        <time>2026-05-02T12:11:41.000Z</time>
      </trkpt>
      <trkpt lat="44.78237" lon="0.82147">
        <ele>217</ele>
        <time>2026-05-02T12:11:42.000Z</time>
      </trkpt>
      <trkpt lat="44.78237" lon="0.82144">
        <ele>216.8</ele>
        <time>2026-05-02T12:11:43.000Z</time>
      </trkpt>
      <trkpt lat="44.78237" lon="0.82142">
        <ele>216.7</ele>
        <time>2026-05-02T12:11:44.000Z</time>
      </trkpt>
      <trkpt lat="44.78237" lon="0.8214">
        <ele>216.7</ele>
        <time>2026-05-02T12:11:45.000Z</time>
      </trkpt>
      <trkpt lat="44.78237" lon="0.82137">
        <ele>216.7</ele>
        <time>2026-05-02T12:11:46.000Z</time>
      </trkpt>
      <trkpt lat="44.78237" lon="0.82135">
        <ele>216.7</ele>
        <time>2026-05-02T12:11:47.000Z</time>
      </trkpt>
      <trkpt lat="44.78237" lon="0.82132">
        <ele>216.6</ele>
        <time>2026-05-02T12:11:48.000Z</time>
      </trkpt>
      <trkpt lat="44.78237" lon="0.8213">
        <ele>216.5</ele>
        <time>2026-05-02T12:11:49.000Z</time>
      </trkpt>
      <trkpt lat="44.78237" lon="0.82128">
        <ele>216.5</ele>
        <time>2026-05-02T12:11:50.000Z</time>
      </trkpt>
      <trkpt lat="44.78237" lon="0.82125">
        <ele>216.4</ele>
        <time>2026-05-02T12:11:51.000Z</time>
      </trkpt>
      <trkpt lat="44.78237" lon="0.82123">
        <ele>216.5</ele>
        <time>2026-05-02T12:11:52.000Z</time>
      </trkpt>
      <trkpt lat="44.78237" lon="0.82121">
        <ele>216.5</ele>
        <time>2026-05-02T12:11:53.000Z</time>
      </trkpt>
      <trkpt lat="44.78238" lon="0.82118">
        <ele>216.4</ele>
        <time>2026-05-02T12:11:54.000Z</time>
      </trkpt>
      <trkpt lat="44.78238" lon="0.82116">
        <ele>216.4</ele>
        <time>2026-05-02T12:11:55.000Z</time>
      </trkpt>
      <trkpt lat="44.78238" lon="0.82114">
        <ele>216.4</ele>
        <time>2026-05-02T12:11:56.000Z</time>
      </trkpt>
      <trkpt lat="44.78239" lon="0.82111">
        <ele>216.6</ele>
        <time>2026-05-02T12:11:57.000Z</time>
      </trkpt>
      <trkpt lat="44.78239" lon="0.82109">
        <ele>216.4</ele>
        <time>2026-05-02T12:11:58.000Z</time>
      </trkpt>
      <trkpt lat="44.78239" lon="0.82106">
        <ele>216.5</ele>
        <time>2026-05-02T12:11:59.000Z</time>
      </trkpt>
      <trkpt lat="44.7824" lon="0.82105">
        <ele>216.5</ele>
        <time>2026-05-02T12:12:00.000Z</time>
      </trkpt>
      <trkpt lat="44.7824" lon="0.82104">
        <ele>216.7</ele>
        <time>2026-05-02T12:12:01.000Z</time>
      </trkpt>
      <trkpt lat="44.7824" lon="0.82101">
        <ele>216.7</ele>
        <time>2026-05-02T12:12:02.000Z</time>
      </trkpt>
      <trkpt lat="44.78241" lon="0.82099">
        <ele>216.7</ele>
        <time>2026-05-02T12:12:03.000Z</time>
      </trkpt>
      <trkpt lat="44.78241" lon="0.82096">
        <ele>216.9</ele>
        <time>2026-05-02T12:12:04.000Z</time>
      </trkpt>
      <trkpt lat="44.78242" lon="0.82094">
        <ele>217</ele>
        <time>2026-05-02T12:12:05.000Z</time>
      </trkpt>
      <trkpt lat="44.78242" lon="0.82091">
        <ele>216.8</ele>
        <time>2026-05-02T12:12:06.000Z</time>
      </trkpt>
      <trkpt lat="44.78243" lon="0.82089">
        <ele>216.9</ele>
        <time>2026-05-02T12:12:07.000Z</time>
      </trkpt>
      <trkpt lat="44.78243" lon="0.82087">
        <ele>216.9</ele>
        <time>2026-05-02T12:12:08.000Z</time>
      </trkpt>
      <trkpt lat="44.78244" lon="0.82084">
        <ele>217</ele>
        <time>2026-05-02T12:12:09.000Z</time>
      </trkpt>
      <trkpt lat="44.78244" lon="0.82082">
        <ele>217</ele>
        <time>2026-05-02T12:12:10.000Z</time>
      </trkpt>
      <trkpt lat="44.78245" lon="0.82079">
        <ele>217.1</ele>
        <time>2026-05-02T12:12:11.000Z</time>
      </trkpt>
      <trkpt lat="44.78245" lon="0.82077">
        <ele>217.1</ele>
        <time>2026-05-02T12:12:12.000Z</time>
      </trkpt>
      <trkpt lat="44.78246" lon="0.82074">
        <ele>217.1</ele>
        <time>2026-05-02T12:12:13.000Z</time>
      </trkpt>
      <trkpt lat="44.78246" lon="0.82072">
        <ele>217</ele>
        <time>2026-05-02T12:12:14.000Z</time>
      </trkpt>
      <trkpt lat="44.78247" lon="0.8207">
        <ele>217</ele>
        <time>2026-05-02T12:12:15.000Z</time>
      </trkpt>
      <trkpt lat="44.78247" lon="0.82068">
        <ele>217</ele>
        <time>2026-05-02T12:12:16.000Z</time>
      </trkpt>
      <trkpt lat="44.78247" lon="0.82065">
        <ele>216.9</ele>
        <time>2026-05-02T12:12:17.000Z</time>
      </trkpt>
      <trkpt lat="44.78248" lon="0.82063">
        <ele>216.9</ele>
        <time>2026-05-02T12:12:18.000Z</time>
      </trkpt>
      <trkpt lat="44.78248" lon="0.82061">
        <ele>216.9</ele>
        <time>2026-05-02T12:12:19.000Z</time>
      </trkpt>
      <trkpt lat="44.78249" lon="0.82058">
        <ele>216.8</ele>
        <time>2026-05-02T12:12:20.000Z</time>
      </trkpt>
      <trkpt lat="44.78249" lon="0.82056">
        <ele>216.7</ele>
        <time>2026-05-02T12:12:21.000Z</time>
      </trkpt>
      <trkpt lat="44.7825" lon="0.82054">
        <ele>216.7</ele>
        <time>2026-05-02T12:12:22.000Z</time>
      </trkpt>
      <trkpt lat="44.7825" lon="0.82052">
        <ele>216.6</ele>
        <time>2026-05-02T12:12:23.000Z</time>
      </trkpt>
      <trkpt lat="44.7825" lon="0.82049">
        <ele>216.8</ele>
        <time>2026-05-02T12:12:24.000Z</time>
      </trkpt>
      <trkpt lat="44.78251" lon="0.82047">
        <ele>216.8</ele>
        <time>2026-05-02T12:12:25.000Z</time>
      </trkpt>
      <trkpt lat="44.78251" lon="0.82045">
        <ele>216.8</ele>
        <time>2026-05-02T12:12:26.000Z</time>
      </trkpt>
      <trkpt lat="44.78252" lon="0.82043">
        <ele>216.8</ele>
        <time>2026-05-02T12:12:27.000Z</time>
      </trkpt>
      <trkpt lat="44.78252" lon="0.82041">
        <ele>216.9</ele>
        <time>2026-05-02T12:12:28.000Z</time>
      </trkpt>
      <trkpt lat="44.78253" lon="0.82039">
        <ele>217</ele>
        <time>2026-05-02T12:12:29.000Z</time>
      </trkpt>
      <trkpt lat="44.78253" lon="0.82036">
        <ele>217.4</ele>
        <time>2026-05-02T12:12:30.000Z</time>
      </trkpt>
      <trkpt lat="44.78253" lon="0.82034">
        <ele>217.3</ele>
        <time>2026-05-02T12:12:31.000Z</time>
      </trkpt>
      <trkpt lat="44.78254" lon="0.82032">
        <ele>217.5</ele>
        <time>2026-05-02T12:12:32.000Z</time>
      </trkpt>
      <trkpt lat="44.78254" lon="0.82029">
        <ele>217.7</ele>
        <time>2026-05-02T12:12:33.000Z</time>
      </trkpt>
      <trkpt lat="44.78255" lon="0.82027">
        <ele>217.8</ele>
        <time>2026-05-02T12:12:34.000Z</time>
      </trkpt>
      <trkpt lat="44.78255" lon="0.82025">
        <ele>217.7</ele>
        <time>2026-05-02T12:12:35.000Z</time>
      </trkpt>
      <trkpt lat="44.78255" lon="0.82023">
        <ele>217.5</ele>
        <time>2026-05-02T12:12:36.000Z</time>
      </trkpt>
      <trkpt lat="44.78256" lon="0.82021">
        <ele>217.6</ele>
        <time>2026-05-02T12:12:37.000Z</time>
      </trkpt>
      <trkpt lat="44.78256" lon="0.82019">
        <ele>217.6</ele>
        <time>2026-05-02T12:12:38.000Z</time>
      </trkpt>
      <trkpt lat="44.78256" lon="0.82016">
        <ele>217.6</ele>
        <time>2026-05-02T12:12:39.000Z</time>
      </trkpt>
      <trkpt lat="44.78257" lon="0.82014">
        <ele>217.7</ele>
        <time>2026-05-02T12:12:40.000Z</time>
      </trkpt>
      <trkpt lat="44.78257" lon="0.82012">
        <ele>217.5</ele>
        <time>2026-05-02T12:12:41.000Z</time>
      </trkpt>
      <trkpt lat="44.78257" lon="0.82009">
        <ele>217.7</ele>
        <time>2026-05-02T12:12:42.000Z</time>
      </trkpt>
      <trkpt lat="44.78257" lon="0.82007">
        <ele>217.7</ele>
        <time>2026-05-02T12:12:43.000Z</time>
      </trkpt>
      <trkpt lat="44.78257" lon="0.82005">
        <ele>217.8</ele>
        <time>2026-05-02T12:12:44.000Z</time>
      </trkpt>
      <trkpt lat="44.78258" lon="0.82003">
        <ele>217.8</ele>
        <time>2026-05-02T12:12:45.000Z</time>
      </trkpt>
      <trkpt lat="44.78258" lon="0.82">
        <ele>217.7</ele>
        <time>2026-05-02T12:12:46.000Z</time>
      </trkpt>
      <trkpt lat="44.78258" lon="0.81998">
        <ele>217.7</ele>
        <time>2026-05-02T12:12:47.000Z</time>
      </trkpt>
      <trkpt lat="44.78259" lon="0.81996">
        <ele>217.6</ele>
        <time>2026-05-02T12:12:48.000Z</time>
      </trkpt>
      <trkpt lat="44.78259" lon="0.81994">
        <ele>217.7</ele>
        <time>2026-05-02T12:12:49.000Z</time>
      </trkpt>
      <trkpt lat="44.78259" lon="0.81992">
        <ele>218</ele>
        <time>2026-05-02T12:12:50.000Z</time>
      </trkpt>
      <trkpt lat="44.78259" lon="0.81989">
        <ele>217.8</ele>
        <time>2026-05-02T12:12:51.000Z</time>
      </trkpt>
      <trkpt lat="44.78259" lon="0.81987">
        <ele>217.8</ele>
        <time>2026-05-02T12:12:52.000Z</time>
      </trkpt>
      <trkpt lat="44.78259" lon="0.81985">
        <ele>217.8</ele>
        <time>2026-05-02T12:12:53.000Z</time>
      </trkpt>
      <trkpt lat="44.78259" lon="0.81983">
        <ele>217.9</ele>
        <time>2026-05-02T12:12:54.000Z</time>
      </trkpt>
      <trkpt lat="44.78259" lon="0.81981">
        <ele>218.2</ele>
        <time>2026-05-02T12:12:55.000Z</time>
      </trkpt>
      <trkpt lat="44.78259" lon="0.81979">
        <ele>218</ele>
        <time>2026-05-02T12:12:56.000Z</time>
      </trkpt>
      <trkpt lat="44.78259" lon="0.81977">
        <ele>217.8</ele>
        <time>2026-05-02T12:12:57.000Z</time>
      </trkpt>
      <trkpt lat="44.78259" lon="0.81975">
        <ele>217.7</ele>
        <time>2026-05-02T12:12:58.000Z</time>
      </trkpt>
      <trkpt lat="44.78258" lon="0.81972">
        <ele>217.8</ele>
        <time>2026-05-02T12:12:59.000Z</time>
      </trkpt>
      <trkpt lat="44.78258" lon="0.8197">
        <ele>217.8</ele>
        <time>2026-05-02T12:13:00.000Z</time>
      </trkpt>
      <trkpt lat="44.78258" lon="0.81968">
        <ele>218</ele>
        <time>2026-05-02T12:13:01.000Z</time>
      </trkpt>
      <trkpt lat="44.78258" lon="0.81966">
        <ele>217.8</ele>
        <time>2026-05-02T12:13:02.000Z</time>
      </trkpt>
      <trkpt lat="44.78258" lon="0.81964">
        <ele>218</ele>
        <time>2026-05-02T12:13:03.000Z</time>
      </trkpt>
      <trkpt lat="44.78258" lon="0.81962">
        <ele>217.9</ele>
        <time>2026-05-02T12:13:04.000Z</time>
      </trkpt>
      <trkpt lat="44.78257" lon="0.8196">
        <ele>217.9</ele>
        <time>2026-05-02T12:13:05.000Z</time>
      </trkpt>
      <trkpt lat="44.78257" lon="0.81958">
        <ele>218.1</ele>
        <time>2026-05-02T12:13:06.000Z</time>
      </trkpt>
      <trkpt lat="44.78257" lon="0.81955">
        <ele>218</ele>
        <time>2026-05-02T12:13:07.000Z</time>
      </trkpt>
      <trkpt lat="44.78257" lon="0.81953">
        <ele>218.2</ele>
        <time>2026-05-02T12:13:08.000Z</time>
      </trkpt>
      <trkpt lat="44.78256" lon="0.81951">
        <ele>218.3</ele>
        <time>2026-05-02T12:13:09.000Z</time>
      </trkpt>
      <trkpt lat="44.78256" lon="0.81948">
        <ele>218.4</ele>
        <time>2026-05-02T12:13:10.000Z</time>
      </trkpt>
      <trkpt lat="44.78256" lon="0.81946">
        <ele>218</ele>
        <time>2026-05-02T12:13:11.000Z</time>
      </trkpt>
      <trkpt lat="44.78255" lon="0.81944">
        <ele>217.8</ele>
        <time>2026-05-02T12:13:12.000Z</time>
      </trkpt>
      <trkpt lat="44.78255" lon="0.81941">
        <ele>217.7</ele>
        <time>2026-05-02T12:13:13.000Z</time>
      </trkpt>
      <trkpt lat="44.78255" lon="0.81939">
        <ele>217.4</ele>
        <time>2026-05-02T12:13:14.000Z</time>
      </trkpt>
      <trkpt lat="44.78255" lon="0.81937">
        <ele>217.2</ele>
        <time>2026-05-02T12:13:15.000Z</time>
      </trkpt>
      <trkpt lat="44.78254" lon="0.81935">
        <ele>217.3</ele>
        <time>2026-05-02T12:13:16.000Z</time>
      </trkpt>
      <trkpt lat="44.78254" lon="0.81932">
        <ele>217.4</ele>
        <time>2026-05-02T12:13:17.000Z</time>
      </trkpt>
      <trkpt lat="44.78253" lon="0.8193">
        <ele>217.1</ele>
        <time>2026-05-02T12:13:18.000Z</time>
      </trkpt>
      <trkpt lat="44.78253" lon="0.81928">
        <ele>216.9</ele>
        <time>2026-05-02T12:13:19.000Z</time>
      </trkpt>
      <trkpt lat="44.78253" lon="0.81926">
        <ele>216.7</ele>
        <time>2026-05-02T12:13:20.000Z</time>
      </trkpt>
      <trkpt lat="44.78252" lon="0.81924">
        <ele>216.5</ele>
        <time>2026-05-02T12:13:21.000Z</time>
      </trkpt>
      <trkpt lat="44.78252" lon="0.81922">
        <ele>216.6</ele>
        <time>2026-05-02T12:13:22.000Z</time>
      </trkpt>
      <trkpt lat="44.78252" lon="0.81919">
        <ele>216.6</ele>
        <time>2026-05-02T12:13:23.000Z</time>
      </trkpt>
      <trkpt lat="44.78252" lon="0.81917">
        <ele>216.7</ele>
        <time>2026-05-02T12:13:24.000Z</time>
      </trkpt>
      <trkpt lat="44.78251" lon="0.81915">
        <ele>216.6</ele>
        <time>2026-05-02T12:13:25.000Z</time>
      </trkpt>
      <trkpt lat="44.78251" lon="0.81913">
        <ele>216.7</ele>
        <time>2026-05-02T12:13:26.000Z</time>
      </trkpt>
      <trkpt lat="44.78251" lon="0.81911">
        <ele>216.6</ele>
        <time>2026-05-02T12:13:27.000Z</time>
      </trkpt>
      <trkpt lat="44.7825" lon="0.81908">
        <ele>216.5</ele>
        <time>2026-05-02T12:13:28.000Z</time>
      </trkpt>
      <trkpt lat="44.7825" lon="0.81906">
        <ele>216.4</ele>
        <time>2026-05-02T12:13:29.000Z</time>
      </trkpt>
      <trkpt lat="44.7825" lon="0.81904">
        <ele>216.2</ele>
        <time>2026-05-02T12:13:30.000Z</time>
      </trkpt>
      <trkpt lat="44.78249" lon="0.81902">
        <ele>216.3</ele>
        <time>2026-05-02T12:13:31.000Z</time>
      </trkpt>
      <trkpt lat="44.78249" lon="0.81899">
        <ele>216.5</ele>
        <time>2026-05-02T12:13:32.000Z</time>
      </trkpt>
      <trkpt lat="44.78248" lon="0.81897">
        <ele>216.4</ele>
        <time>2026-05-02T12:13:33.000Z</time>
      </trkpt>
      <trkpt lat="44.78248" lon="0.81895">
        <ele>216.5</ele>
        <time>2026-05-02T12:13:34.000Z</time>
      </trkpt>
      <trkpt lat="44.78248" lon="0.81893">
        <ele>216.6</ele>
        <time>2026-05-02T12:13:35.000Z</time>
      </trkpt>
      <trkpt lat="44.78247" lon="0.81891">
        <ele>216.7</ele>
        <time>2026-05-02T12:13:36.000Z</time>
      </trkpt>
      <trkpt lat="44.78247" lon="0.81889">
        <ele>216.9</ele>
        <time>2026-05-02T12:13:37.000Z</time>
      </trkpt>
      <trkpt lat="44.78246" lon="0.81887">
        <ele>216.6</ele>
        <time>2026-05-02T12:13:38.000Z</time>
      </trkpt>
      <trkpt lat="44.78246" lon="0.81884">
        <ele>216.8</ele>
        <time>2026-05-02T12:13:39.000Z</time>
      </trkpt>
      <trkpt lat="44.78245" lon="0.81882">
        <ele>216.8</ele>
        <time>2026-05-02T12:13:40.000Z</time>
      </trkpt>
      <trkpt lat="44.78244" lon="0.8188">
        <ele>216.8</ele>
        <time>2026-05-02T12:13:41.000Z</time>
      </trkpt>
      <trkpt lat="44.78244" lon="0.81878">
        <ele>217</ele>
        <time>2026-05-02T12:13:42.000Z</time>
      </trkpt>
      <trkpt lat="44.78243" lon="0.81876">
        <ele>217</ele>
        <time>2026-05-02T12:13:43.000Z</time>
      </trkpt>
      <trkpt lat="44.78243" lon="0.81874">
        <ele>217.1</ele>
        <time>2026-05-02T12:13:44.000Z</time>
      </trkpt>
      <trkpt lat="44.78242" lon="0.81871">
        <ele>217</ele>
        <time>2026-05-02T12:13:45.000Z</time>
      </trkpt>
      <trkpt lat="44.78242" lon="0.81869">
        <ele>217.2</ele>
        <time>2026-05-02T12:13:46.000Z</time>
      </trkpt>
      <trkpt lat="44.78241" lon="0.81867">
        <ele>217.1</ele>
        <time>2026-05-02T12:13:47.000Z</time>
      </trkpt>
      <trkpt lat="44.78241" lon="0.81865">
        <ele>217</ele>
        <time>2026-05-02T12:13:48.000Z</time>
      </trkpt>
      <trkpt lat="44.78241" lon="0.81863">
        <ele>217.1</ele>
        <time>2026-05-02T12:13:49.000Z</time>
      </trkpt>
      <trkpt lat="44.7824" lon="0.8186">
        <ele>217</ele>
        <time>2026-05-02T12:13:50.000Z</time>
      </trkpt>
      <trkpt lat="44.7824" lon="0.81858">
        <ele>216.8</ele>
        <time>2026-05-02T12:13:51.000Z</time>
      </trkpt>
      <trkpt lat="44.7824" lon="0.81856">
        <ele>216.8</ele>
        <time>2026-05-02T12:13:52.000Z</time>
      </trkpt>
      <trkpt lat="44.78239" lon="0.81854">
        <ele>216.8</ele>
        <time>2026-05-02T12:13:53.000Z</time>
      </trkpt>
      <trkpt lat="44.78239" lon="0.81851">
        <ele>216.9</ele>
        <time>2026-05-02T12:13:54.000Z</time>
      </trkpt>
      <trkpt lat="44.78239" lon="0.81849">
        <ele>216.9</ele>
        <time>2026-05-02T12:13:55.000Z</time>
      </trkpt>
      <trkpt lat="44.78238" lon="0.81847">
        <ele>216.7</ele>
        <time>2026-05-02T12:13:56.000Z</time>
      </trkpt>
      <trkpt lat="44.78238" lon="0.81844">
        <ele>216.6</ele>
        <time>2026-05-02T12:13:57.000Z</time>
      </trkpt>
      <trkpt lat="44.78238" lon="0.81842">
        <ele>216.4</ele>
        <time>2026-05-02T12:13:58.000Z</time>
      </trkpt>
      <trkpt lat="44.78237" lon="0.81839">
        <ele>216.4</ele>
        <time>2026-05-02T12:13:59.000Z</time>
      </trkpt>
      <trkpt lat="44.78237" lon="0.81837">
        <ele>216.5</ele>
        <time>2026-05-02T12:14:00.000Z</time>
      </trkpt>
      <trkpt lat="44.78237" lon="0.81835">
        <ele>216.5</ele>
        <time>2026-05-02T12:14:01.000Z</time>
      </trkpt>
      <trkpt lat="44.78236" lon="0.81832">
        <ele>216.4</ele>
        <time>2026-05-02T12:14:02.000Z</time>
      </trkpt>
      <trkpt lat="44.78236" lon="0.8183">
        <ele>216</ele>
        <time>2026-05-02T12:14:03.000Z</time>
      </trkpt>
      <trkpt lat="44.78236" lon="0.81828">
        <ele>215.9</ele>
        <time>2026-05-02T12:14:04.000Z</time>
      </trkpt>
      <trkpt lat="44.78236" lon="0.81825">
        <ele>215.7</ele>
        <time>2026-05-02T12:14:05.000Z</time>
      </trkpt>
      <trkpt lat="44.78235" lon="0.81824">
        <ele>215.7</ele>
        <time>2026-05-02T12:14:06.000Z</time>
      </trkpt>
      <trkpt lat="44.78235" lon="0.81821">
        <ele>215.5</ele>
        <time>2026-05-02T12:14:07.000Z</time>
      </trkpt>
      <trkpt lat="44.78235" lon="0.81819">
        <ele>215.6</ele>
        <time>2026-05-02T12:14:08.000Z</time>
      </trkpt>
      <trkpt lat="44.78236" lon="0.81817">
        <ele>215.8</ele>
        <time>2026-05-02T12:14:09.000Z</time>
      </trkpt>
      <trkpt lat="44.78236" lon="0.81814">
        <ele>215.8</ele>
        <time>2026-05-02T12:14:10.000Z</time>
      </trkpt>
      <trkpt lat="44.78236" lon="0.81812">
        <ele>216</ele>
        <time>2026-05-02T12:14:11.000Z</time>
      </trkpt>
      <trkpt lat="44.78236" lon="0.8181">
        <ele>216</ele>
        <time>2026-05-02T12:14:12.000Z</time>
      </trkpt>
      <trkpt lat="44.78236" lon="0.81807">
        <ele>215.9</ele>
        <time>2026-05-02T12:14:13.000Z</time>
      </trkpt>
      <trkpt lat="44.78236" lon="0.81805">
        <ele>216</ele>
        <time>2026-05-02T12:14:14.000Z</time>
      </trkpt>
      <trkpt lat="44.78236" lon="0.81803">
        <ele>216.1</ele>
        <time>2026-05-02T12:14:15.000Z</time>
      </trkpt>
      <trkpt lat="44.78236" lon="0.818">
        <ele>215.9</ele>
        <time>2026-05-02T12:14:16.000Z</time>
      </trkpt>
      <trkpt lat="44.78236" lon="0.81798">
        <ele>215.8</ele>
        <time>2026-05-02T12:14:17.000Z</time>
      </trkpt>
      <trkpt lat="44.78236" lon="0.81796">
        <ele>215.5</ele>
        <time>2026-05-02T12:14:18.000Z</time>
      </trkpt>
      <trkpt lat="44.78236" lon="0.81794">
        <ele>215.5</ele>
        <time>2026-05-02T12:14:19.000Z</time>
      </trkpt>
      <trkpt lat="44.78236" lon="0.81791">
        <ele>215.5</ele>
        <time>2026-05-02T12:14:20.000Z</time>
      </trkpt>
      <trkpt lat="44.78236" lon="0.81789">
        <ele>215.4</ele>
        <time>2026-05-02T12:14:21.000Z</time>
      </trkpt>
      <trkpt lat="44.78236" lon="0.81787">
        <ele>215.1</ele>
        <time>2026-05-02T12:14:22.000Z</time>
      </trkpt>
      <trkpt lat="44.78237" lon="0.81785">
        <ele>215.1</ele>
        <time>2026-05-02T12:14:23.000Z</time>
      </trkpt>
      <trkpt lat="44.78238" lon="0.81782">
        <ele>215.2</ele>
        <time>2026-05-02T12:14:24.000Z</time>
      </trkpt>
      <trkpt lat="44.78239" lon="0.81781">
        <ele>215.1</ele>
        <time>2026-05-02T12:14:25.000Z</time>
      </trkpt>
      <trkpt lat="44.7824" lon="0.81781">
        <ele>214.9</ele>
        <time>2026-05-02T12:14:26.000Z</time>
      </trkpt>
      <trkpt lat="44.7824" lon="0.8178">
        <ele>215</ele>
        <time>2026-05-02T12:14:27.000Z</time>
      </trkpt>
      <trkpt lat="44.78241" lon="0.81779">
        <ele>214.7</ele>
        <time>2026-05-02T12:14:28.000Z</time>
      </trkpt>
      <trkpt lat="44.7824" lon="0.81776">
        <ele>214.9</ele>
        <time>2026-05-02T12:14:29.000Z</time>
      </trkpt>
      <trkpt lat="44.7824" lon="0.81776">
        <ele>214.7</ele>
        <time>2026-05-02T12:14:30.000Z</time>
      </trkpt>
      <trkpt lat="44.78239" lon="0.81775">
        <ele>214.7</ele>
        <time>2026-05-02T12:14:31.000Z</time>
      </trkpt>
      <trkpt lat="44.78238" lon="0.81773">
        <ele>214.7</ele>
        <time>2026-05-02T12:14:32.000Z</time>
      </trkpt>
      <trkpt lat="44.78237" lon="0.81771">
        <ele>214.6</ele>
        <time>2026-05-02T12:14:33.000Z</time>
      </trkpt>
      <trkpt lat="44.78237" lon="0.81769">
        <ele>214.4</ele>
        <time>2026-05-02T12:14:34.000Z</time>
      </trkpt>
      <trkpt lat="44.78237" lon="0.81767">
        <ele>214.5</ele>
        <time>2026-05-02T12:14:35.000Z</time>
      </trkpt>
      <trkpt lat="44.78236" lon="0.81765">
        <ele>214.6</ele>
        <time>2026-05-02T12:14:36.000Z</time>
      </trkpt>
      <trkpt lat="44.78236" lon="0.81764">
        <ele>214.9</ele>
        <time>2026-05-02T12:14:37.000Z</time>
      </trkpt>
      <trkpt lat="44.78236" lon="0.81761">
        <ele>214.9</ele>
        <time>2026-05-02T12:14:38.000Z</time>
      </trkpt>
      <trkpt lat="44.78236" lon="0.8176">
        <ele>214.7</ele>
        <time>2026-05-02T12:14:39.000Z</time>
      </trkpt>
      <trkpt lat="44.78236" lon="0.81757">
        <ele>215.1</ele>
        <time>2026-05-02T12:14:40.000Z</time>
      </trkpt>
      <trkpt lat="44.78236" lon="0.81755">
        <ele>215.8</ele>
        <time>2026-05-02T12:14:41.000Z</time>
      </trkpt>
      <trkpt lat="44.78235" lon="0.81753">
        <ele>216.1</ele>
        <time>2026-05-02T12:14:42.000Z</time>
      </trkpt>
      <trkpt lat="44.78235" lon="0.81751">
        <ele>216.2</ele>
        <time>2026-05-02T12:14:43.000Z</time>
      </trkpt>
      <trkpt lat="44.78235" lon="0.81748">
        <ele>216.5</ele>
        <time>2026-05-02T12:14:44.000Z</time>
      </trkpt>
      <trkpt lat="44.78234" lon="0.81746">
        <ele>217</ele>
        <time>2026-05-02T12:14:45.000Z</time>
      </trkpt>
      <trkpt lat="44.78234" lon="0.81744">
        <ele>216.9</ele>
        <time>2026-05-02T12:14:46.000Z</time>
      </trkpt>
      <trkpt lat="44.78234" lon="0.81742">
        <ele>217.2</ele>
        <time>2026-05-02T12:14:47.000Z</time>
      </trkpt>
      <trkpt lat="44.78234" lon="0.81739">
        <ele>217.1</ele>
        <time>2026-05-02T12:14:48.000Z</time>
      </trkpt>
      <trkpt lat="44.78234" lon="0.81738">
        <ele>217.5</ele>
        <time>2026-05-02T12:14:49.000Z</time>
      </trkpt>
      <trkpt lat="44.78233" lon="0.81735">
        <ele>217.7</ele>
        <time>2026-05-02T12:14:50.000Z</time>
      </trkpt>
      <trkpt lat="44.78233" lon="0.81733">
        <ele>218.2</ele>
        <time>2026-05-02T12:14:51.000Z</time>
      </trkpt>
      <trkpt lat="44.78233" lon="0.81731">
        <ele>218.5</ele>
        <time>2026-05-02T12:14:52.000Z</time>
      </trkpt>
      <trkpt lat="44.78233" lon="0.81729">
        <ele>218.7</ele>
        <time>2026-05-02T12:14:53.000Z</time>
      </trkpt>
      <trkpt lat="44.78232" lon="0.81727">
        <ele>218.9</ele>
        <time>2026-05-02T12:14:54.000Z</time>
      </trkpt>
      <trkpt lat="44.78232" lon="0.81725">
        <ele>219.2</ele>
        <time>2026-05-02T12:14:55.000Z</time>
      </trkpt>
      <trkpt lat="44.78232" lon="0.81723">
        <ele>219.4</ele>
        <time>2026-05-02T12:14:56.000Z</time>
      </trkpt>
      <trkpt lat="44.78232" lon="0.81721">
        <ele>219.6</ele>
        <time>2026-05-02T12:14:57.000Z</time>
      </trkpt>
      <trkpt lat="44.78231" lon="0.81719">
        <ele>219.6</ele>
        <time>2026-05-02T12:14:58.000Z</time>
      </trkpt>
      <trkpt lat="44.78231" lon="0.81717">
        <ele>219.7</ele>
        <time>2026-05-02T12:14:59.000Z</time>
      </trkpt>
      <trkpt lat="44.7823" lon="0.81716">
        <ele>219.9</ele>
        <time>2026-05-02T12:15:00.000Z</time>
      </trkpt>
      <trkpt lat="44.78229" lon="0.81714">
        <ele>220</ele>
        <time>2026-05-02T12:15:01.000Z</time>
      </trkpt>
      <trkpt lat="44.78228" lon="0.81713">
        <ele>219.9</ele>
        <time>2026-05-02T12:15:02.000Z</time>
      </trkpt>
      <trkpt lat="44.78227" lon="0.81712">
        <ele>219.8</ele>
        <time>2026-05-02T12:15:03.000Z</time>
      </trkpt>
      <trkpt lat="44.78226" lon="0.81711">
        <ele>219.8</ele>
        <time>2026-05-02T12:15:04.000Z</time>
      </trkpt>
      <trkpt lat="44.78226" lon="0.81706">
        <ele>219.3</ele>
        <time>2026-05-02T12:15:05.000Z</time>
      </trkpt>
      <trkpt lat="44.78223" lon="0.81708">
        <ele>220.3</ele>
        <time>2026-05-02T12:15:06.000Z</time>
      </trkpt>
      <trkpt lat="44.78221" lon="0.81709">
        <ele>220.1</ele>
        <time>2026-05-02T12:15:07.000Z</time>
      </trkpt>
      <trkpt lat="44.7822" lon="0.8171">
        <ele>220.2</ele>
        <time>2026-05-02T12:15:08.000Z</time>
      </trkpt>
      <trkpt lat="44.78218" lon="0.81711">
        <ele>220.2</ele>
        <time>2026-05-02T12:15:09.000Z</time>
      </trkpt>
      <trkpt lat="44.78217" lon="0.81711">
        <ele>220.3</ele>
        <time>2026-05-02T12:15:10.000Z</time>
      </trkpt>
      <trkpt lat="44.78215" lon="0.81712">
        <ele>220.2</ele>
        <time>2026-05-02T12:15:11.000Z</time>
      </trkpt>
      <trkpt lat="44.78214" lon="0.81713">
        <ele>220.2</ele>
        <time>2026-05-02T12:15:12.000Z</time>
      </trkpt>
      <trkpt lat="44.78212" lon="0.81713">
        <ele>220.1</ele>
        <time>2026-05-02T12:15:13.000Z</time>
      </trkpt>
      <trkpt lat="44.78211" lon="0.81713">
        <ele>220.3</ele>
        <time>2026-05-02T12:15:14.000Z</time>
      </trkpt>
      <trkpt lat="44.7821" lon="0.81713">
        <ele>220.1</ele>
        <time>2026-05-02T12:15:15.000Z</time>
      </trkpt>
      <trkpt lat="44.78208" lon="0.81712">
        <ele>220.3</ele>
        <time>2026-05-02T12:15:16.000Z</time>
      </trkpt>
      <trkpt lat="44.78207" lon="0.81712">
        <ele>220.3</ele>
        <time>2026-05-02T12:15:17.000Z</time>
      </trkpt>
      <trkpt lat="44.78207" lon="0.81712">
        <ele>220.1</ele>
        <time>2026-05-02T12:15:18.000Z</time>
      </trkpt>
      <trkpt lat="44.78206" lon="0.81713">
        <ele>220.1</ele>
        <time>2026-05-02T12:15:19.000Z</time>
      </trkpt>
      <trkpt lat="44.78206" lon="0.81713">
        <ele>220.1</ele>
        <time>2026-05-02T12:15:20.000Z</time>
      </trkpt>
      <trkpt lat="44.78206" lon="0.81713">
        <ele>220.1</ele>
        <time>2026-05-02T12:15:21.000Z</time>
      </trkpt>
      <trkpt lat="44.78206" lon="0.81713">
        <ele>220.1</ele>
        <time>2026-05-02T12:15:22.000Z</time>
      </trkpt>
      <trkpt lat="44.78206" lon="0.81713">
        <ele>220.1</ele>
        <time>2026-05-02T12:15:23.000Z</time>
      </trkpt>
      <trkpt lat="44.78206" lon="0.81713">
        <ele>220.1</ele>
        <time>2026-05-02T12:15:24.000Z</time>
      </trkpt>
      <trkpt lat="44.78206" lon="0.81713">
        <ele>220.1</ele>
        <time>2026-05-02T12:15:25.000Z</time>
      </trkpt>
      <trkpt lat="44.78205" lon="0.81713">
        <ele>220</ele>
        <time>2026-05-02T12:15:26.000Z</time>
      </trkpt>
      <trkpt lat="44.78204" lon="0.81712">
        <ele>220.5</ele>
        <time>2026-05-02T12:15:27.000Z</time>
      </trkpt>
      <trkpt lat="44.78203" lon="0.81711">
        <ele>220.6</ele>
        <time>2026-05-02T12:15:28.000Z</time>
      </trkpt>
      <trkpt lat="44.78202" lon="0.8171">
        <ele>220.8</ele>
        <time>2026-05-02T12:15:29.000Z</time>
      </trkpt>
      <trkpt lat="44.78202" lon="0.81708">
        <ele>220.8</ele>
        <time>2026-05-02T12:15:30.000Z</time>
      </trkpt>
      <trkpt lat="44.78201" lon="0.81706">
        <ele>220.8</ele>
        <time>2026-05-02T12:15:31.000Z</time>
      </trkpt>
      <trkpt lat="44.782" lon="0.81704">
        <ele>220.8</ele>
        <time>2026-05-02T12:15:32.000Z</time>
      </trkpt>
      <trkpt lat="44.782" lon="0.81702">
        <ele>220.7</ele>
        <time>2026-05-02T12:15:33.000Z</time>
      </trkpt>
      <trkpt lat="44.78199" lon="0.817">
        <ele>220.9</ele>
        <time>2026-05-02T12:15:34.000Z</time>
      </trkpt>
      <trkpt lat="44.78199" lon="0.81698">
        <ele>220.9</ele>
        <time>2026-05-02T12:15:35.000Z</time>
      </trkpt>
      <trkpt lat="44.78199" lon="0.81695">
        <ele>221.1</ele>
        <time>2026-05-02T12:15:36.000Z</time>
      </trkpt>
      <trkpt lat="44.78198" lon="0.81693">
        <ele>221.3</ele>
        <time>2026-05-02T12:15:37.000Z</time>
      </trkpt>
      <trkpt lat="44.78198" lon="0.81691">
        <ele>221.3</ele>
        <time>2026-05-02T12:15:38.000Z</time>
      </trkpt>
      <trkpt lat="44.78198" lon="0.81689">
        <ele>221.4</ele>
        <time>2026-05-02T12:15:39.000Z</time>
      </trkpt>
      <trkpt lat="44.78197" lon="0.81687">
        <ele>221.2</ele>
        <time>2026-05-02T12:15:40.000Z</time>
      </trkpt>
      <trkpt lat="44.78197" lon="0.81685">
        <ele>221.4</ele>
        <time>2026-05-02T12:15:41.000Z</time>
      </trkpt>
      <trkpt lat="44.78196" lon="0.81683">
        <ele>221.5</ele>
        <time>2026-05-02T12:15:42.000Z</time>
      </trkpt>
      <trkpt lat="44.78196" lon="0.81682">
        <ele>221.7</ele>
        <time>2026-05-02T12:15:43.000Z</time>
      </trkpt>
      <trkpt lat="44.78196" lon="0.81679">
        <ele>221.8</ele>
        <time>2026-05-02T12:15:44.000Z</time>
      </trkpt>
      <trkpt lat="44.78196" lon="0.81678">
        <ele>222.1</ele>
        <time>2026-05-02T12:15:45.000Z</time>
      </trkpt>
      <trkpt lat="44.78195" lon="0.81676">
        <ele>222.2</ele>
        <time>2026-05-02T12:15:46.000Z</time>
      </trkpt>
      <trkpt lat="44.78195" lon="0.81674">
        <ele>222.1</ele>
        <time>2026-05-02T12:15:47.000Z</time>
      </trkpt>
      <trkpt lat="44.78194" lon="0.81672">
        <ele>222.2</ele>
        <time>2026-05-02T12:15:48.000Z</time>
      </trkpt>
      <trkpt lat="44.78194" lon="0.8167">
        <ele>222.1</ele>
        <time>2026-05-02T12:15:49.000Z</time>
      </trkpt>
      <trkpt lat="44.78193" lon="0.81668">
        <ele>221.6</ele>
        <time>2026-05-02T12:15:50.000Z</time>
      </trkpt>
      <trkpt lat="44.78192" lon="0.81665">
        <ele>222.4</ele>
        <time>2026-05-02T12:15:51.000Z</time>
      </trkpt>
      <trkpt lat="44.78192" lon="0.81663">
        <ele>222.5</ele>
        <time>2026-05-02T12:15:52.000Z</time>
      </trkpt>
      <trkpt lat="44.78192" lon="0.81661">
        <ele>222.5</ele>
        <time>2026-05-02T12:15:53.000Z</time>
      </trkpt>
      <trkpt lat="44.78191" lon="0.81658">
        <ele>222.7</ele>
        <time>2026-05-02T12:15:54.000Z</time>
      </trkpt>
      <trkpt lat="44.78191" lon="0.81657">
        <ele>222.3</ele>
        <time>2026-05-02T12:15:55.000Z</time>
      </trkpt>
      <trkpt lat="44.7819" lon="0.81655">
        <ele>222.4</ele>
        <time>2026-05-02T12:15:56.000Z</time>
      </trkpt>
      <trkpt lat="44.7819" lon="0.81653">
        <ele>222.7</ele>
        <time>2026-05-02T12:15:57.000Z</time>
      </trkpt>
      <trkpt lat="44.78189" lon="0.81651">
        <ele>222.5</ele>
        <time>2026-05-02T12:15:58.000Z</time>
      </trkpt>
      <trkpt lat="44.78189" lon="0.81649">
        <ele>222.1</ele>
        <time>2026-05-02T12:15:59.000Z</time>
      </trkpt>
      <trkpt lat="44.78189" lon="0.81647">
        <ele>222.4</ele>
        <time>2026-05-02T12:16:00.000Z</time>
      </trkpt>
      <trkpt lat="44.78189" lon="0.81644">
        <ele>222.6</ele>
        <time>2026-05-02T12:16:01.000Z</time>
      </trkpt>
      <trkpt lat="44.78188" lon="0.81642">
        <ele>222.4</ele>
        <time>2026-05-02T12:16:02.000Z</time>
      </trkpt>
      <trkpt lat="44.78188" lon="0.8164">
        <ele>222.5</ele>
        <time>2026-05-02T12:16:03.000Z</time>
      </trkpt>
      <trkpt lat="44.78188" lon="0.81638">
        <ele>222.3</ele>
        <time>2026-05-02T12:16:04.000Z</time>
      </trkpt>
      <trkpt lat="44.78187" lon="0.81636">
        <ele>222.1</ele>
        <time>2026-05-02T12:16:05.000Z</time>
      </trkpt>
      <trkpt lat="44.78187" lon="0.81634">
        <ele>222.3</ele>
        <time>2026-05-02T12:16:06.000Z</time>
      </trkpt>
      <trkpt lat="44.78187" lon="0.81632">
        <ele>222.3</ele>
        <time>2026-05-02T12:16:07.000Z</time>
      </trkpt>
      <trkpt lat="44.78186" lon="0.8163">
        <ele>222.4</ele>
        <time>2026-05-02T12:16:08.000Z</time>
      </trkpt>
      <trkpt lat="44.78186" lon="0.81628">
        <ele>222.7</ele>
        <time>2026-05-02T12:16:09.000Z</time>
      </trkpt>
      <trkpt lat="44.78185" lon="0.81625">
        <ele>222.4</ele>
        <time>2026-05-02T12:16:10.000Z</time>
      </trkpt>
      <trkpt lat="44.78185" lon="0.81623">
        <ele>222.7</ele>
        <time>2026-05-02T12:16:11.000Z</time>
      </trkpt>
      <trkpt lat="44.78185" lon="0.81621">
        <ele>222.9</ele>
        <time>2026-05-02T12:16:12.000Z</time>
      </trkpt>
      <trkpt lat="44.78184" lon="0.81619">
        <ele>222.8</ele>
        <time>2026-05-02T12:16:13.000Z</time>
      </trkpt>
      <trkpt lat="44.78184" lon="0.81617">
        <ele>222.7</ele>
        <time>2026-05-02T12:16:14.000Z</time>
      </trkpt>
      <trkpt lat="44.78184" lon="0.81614">
        <ele>222.7</ele>
        <time>2026-05-02T12:16:15.000Z</time>
      </trkpt>
      <trkpt lat="44.78183" lon="0.81612">
        <ele>222.7</ele>
        <time>2026-05-02T12:16:16.000Z</time>
      </trkpt>
      <trkpt lat="44.78183" lon="0.8161">
        <ele>222.5</ele>
        <time>2026-05-02T12:16:17.000Z</time>
      </trkpt>
      <trkpt lat="44.78182" lon="0.81608">
        <ele>222.4</ele>
        <time>2026-05-02T12:16:18.000Z</time>
      </trkpt>
      <trkpt lat="44.78182" lon="0.81606">
        <ele>222.5</ele>
        <time>2026-05-02T12:16:19.000Z</time>
      </trkpt>
      <trkpt lat="44.78182" lon="0.81604">
        <ele>222.5</ele>
        <time>2026-05-02T12:16:20.000Z</time>
      </trkpt>
      <trkpt lat="44.78182" lon="0.81601">
        <ele>222.4</ele>
        <time>2026-05-02T12:16:21.000Z</time>
      </trkpt>
      <trkpt lat="44.78181" lon="0.81599">
        <ele>222.1</ele>
        <time>2026-05-02T12:16:22.000Z</time>
      </trkpt>
      <trkpt lat="44.78181" lon="0.81596">
        <ele>222.1</ele>
        <time>2026-05-02T12:16:23.000Z</time>
      </trkpt>
      <trkpt lat="44.7818" lon="0.81593">
        <ele>221.9</ele>
        <time>2026-05-02T12:16:24.000Z</time>
      </trkpt>
      <trkpt lat="44.7818" lon="0.8159">
        <ele>221.8</ele>
        <time>2026-05-02T12:16:25.000Z</time>
      </trkpt>
      <trkpt lat="44.78179" lon="0.81587">
        <ele>221.7</ele>
        <time>2026-05-02T12:16:26.000Z</time>
      </trkpt>
      <trkpt lat="44.78178" lon="0.81584">
        <ele>221.6</ele>
        <time>2026-05-02T12:16:27.000Z</time>
      </trkpt>
      <trkpt lat="44.78178" lon="0.8158">
        <ele>221.8</ele>
        <time>2026-05-02T12:16:28.000Z</time>
      </trkpt>
      <trkpt lat="44.78177" lon="0.81577">
        <ele>221.8</ele>
        <time>2026-05-02T12:16:29.000Z</time>
      </trkpt>
      <trkpt lat="44.78177" lon="0.81573">
        <ele>221.6</ele>
        <time>2026-05-02T12:16:30.000Z</time>
      </trkpt>
      <trkpt lat="44.78176" lon="0.8157">
        <ele>221.9</ele>
        <time>2026-05-02T12:16:31.000Z</time>
      </trkpt>
      <trkpt lat="44.78176" lon="0.81567">
        <ele>221.9</ele>
        <time>2026-05-02T12:16:32.000Z</time>
      </trkpt>
      <trkpt lat="44.78176" lon="0.81564">
        <ele>221.8</ele>
        <time>2026-05-02T12:16:33.000Z</time>
      </trkpt>
      <trkpt lat="44.78175" lon="0.8156">
        <ele>221.5</ele>
        <time>2026-05-02T12:16:34.000Z</time>
      </trkpt>
      <trkpt lat="44.78175" lon="0.81556">
        <ele>221.7</ele>
        <time>2026-05-02T12:16:35.000Z</time>
      </trkpt>
      <trkpt lat="44.78174" lon="0.81553">
        <ele>221.5</ele>
        <time>2026-05-02T12:16:36.000Z</time>
      </trkpt>
      <trkpt lat="44.78174" lon="0.81549">
        <ele>221.3</ele>
        <time>2026-05-02T12:16:37.000Z</time>
      </trkpt>
      <trkpt lat="44.78174" lon="0.81545">
        <ele>221.1</ele>
        <time>2026-05-02T12:16:38.000Z</time>
      </trkpt>
      <trkpt lat="44.78173" lon="0.81542">
        <ele>220.9</ele>
        <time>2026-05-02T12:16:39.000Z</time>
      </trkpt>
      <trkpt lat="44.78173" lon="0.81538">
        <ele>221</ele>
        <time>2026-05-02T12:16:40.000Z</time>
      </trkpt>
      <trkpt lat="44.78173" lon="0.81534">
        <ele>221</ele>
        <time>2026-05-02T12:16:41.000Z</time>
      </trkpt>
      <trkpt lat="44.78172" lon="0.81531">
        <ele>221.2</ele>
        <time>2026-05-02T12:16:42.000Z</time>
      </trkpt>
      <trkpt lat="44.78172" lon="0.81528">
        <ele>221</ele>
        <time>2026-05-02T12:16:43.000Z</time>
      </trkpt>
      <trkpt lat="44.78172" lon="0.81524">
        <ele>221.1</ele>
        <time>2026-05-02T12:16:44.000Z</time>
      </trkpt>
      <trkpt lat="44.78171" lon="0.81521">
        <ele>221.2</ele>
        <time>2026-05-02T12:16:45.000Z</time>
      </trkpt>
      <trkpt lat="44.7817" lon="0.81517">
        <ele>221.2</ele>
        <time>2026-05-02T12:16:46.000Z</time>
      </trkpt>
      <trkpt lat="44.7817" lon="0.81514">
        <ele>221.3</ele>
        <time>2026-05-02T12:16:47.000Z</time>
      </trkpt>
      <trkpt lat="44.7817" lon="0.81511">
        <ele>221.2</ele>
        <time>2026-05-02T12:16:48.000Z</time>
      </trkpt>
      <trkpt lat="44.7817" lon="0.81507">
        <ele>221.3</ele>
        <time>2026-05-02T12:16:49.000Z</time>
      </trkpt>
      <trkpt lat="44.7817" lon="0.81503">
        <ele>221.4</ele>
        <time>2026-05-02T12:16:50.000Z</time>
      </trkpt>
      <trkpt lat="44.7817" lon="0.815">
        <ele>221.3</ele>
        <time>2026-05-02T12:16:51.000Z</time>
      </trkpt>
      <trkpt lat="44.78169" lon="0.81496">
        <ele>221.2</ele>
        <time>2026-05-02T12:16:52.000Z</time>
      </trkpt>
      <trkpt lat="44.78169" lon="0.81492">
        <ele>221.2</ele>
        <time>2026-05-02T12:16:53.000Z</time>
      </trkpt>
      <trkpt lat="44.78169" lon="0.81489">
        <ele>221.3</ele>
        <time>2026-05-02T12:16:54.000Z</time>
      </trkpt>
      <trkpt lat="44.78168" lon="0.81485">
        <ele>221.2</ele>
        <time>2026-05-02T12:16:55.000Z</time>
      </trkpt>
      <trkpt lat="44.78168" lon="0.81481">
        <ele>220.9</ele>
        <time>2026-05-02T12:16:56.000Z</time>
      </trkpt>
      <trkpt lat="44.78168" lon="0.81477">
        <ele>220.8</ele>
        <time>2026-05-02T12:16:57.000Z</time>
      </trkpt>
      <trkpt lat="44.78168" lon="0.81473">
        <ele>220.2</ele>
        <time>2026-05-02T12:16:58.000Z</time>
      </trkpt>
      <trkpt lat="44.78167" lon="0.8147">
        <ele>220.3</ele>
        <time>2026-05-02T12:16:59.000Z</time>
      </trkpt>
      <trkpt lat="44.78167" lon="0.81466">
        <ele>219.8</ele>
        <time>2026-05-02T12:17:00.000Z</time>
      </trkpt>
      <trkpt lat="44.78167" lon="0.81463">
        <ele>219.9</ele>
        <time>2026-05-02T12:17:01.000Z</time>
      </trkpt>
      <trkpt lat="44.78167" lon="0.8146">
        <ele>219.9</ele>
        <time>2026-05-02T12:17:02.000Z</time>
      </trkpt>
      <trkpt lat="44.78166" lon="0.81457">
        <ele>220.2</ele>
        <time>2026-05-02T12:17:03.000Z</time>
      </trkpt>
      <trkpt lat="44.78166" lon="0.81454">
        <ele>220.4</ele>
        <time>2026-05-02T12:17:04.000Z</time>
      </trkpt>
      <trkpt lat="44.78166" lon="0.81451">
        <ele>220.5</ele>
        <time>2026-05-02T12:17:05.000Z</time>
      </trkpt>
      <trkpt lat="44.78166" lon="0.81447">
        <ele>220.8</ele>
        <time>2026-05-02T12:17:06.000Z</time>
      </trkpt>
      <trkpt lat="44.78165" lon="0.81444">
        <ele>221</ele>
        <time>2026-05-02T12:17:07.000Z</time>
      </trkpt>
      <trkpt lat="44.78165" lon="0.81441">
        <ele>221.4</ele>
        <time>2026-05-02T12:17:08.000Z</time>
      </trkpt>
      <trkpt lat="44.78164" lon="0.81438">
        <ele>221.6</ele>
        <time>2026-05-02T12:17:09.000Z</time>
      </trkpt>
      <trkpt lat="44.78164" lon="0.81435">
        <ele>221.6</ele>
        <time>2026-05-02T12:17:10.000Z</time>
      </trkpt>
      <trkpt lat="44.78163" lon="0.81432">
        <ele>221.4</ele>
        <time>2026-05-02T12:17:11.000Z</time>
      </trkpt>
      <trkpt lat="44.78163" lon="0.81429">
        <ele>221.2</ele>
        <time>2026-05-02T12:17:12.000Z</time>
      </trkpt>
      <trkpt lat="44.78162" lon="0.81425">
        <ele>221</ele>
        <time>2026-05-02T12:17:13.000Z</time>
      </trkpt>
      <trkpt lat="44.78162" lon="0.81422">
        <ele>220.5</ele>
        <time>2026-05-02T12:17:14.000Z</time>
      </trkpt>
      <trkpt lat="44.78162" lon="0.81419">
        <ele>220.7</ele>
        <time>2026-05-02T12:17:15.000Z</time>
      </trkpt>
      <trkpt lat="44.78162" lon="0.81415">
        <ele>221.1</ele>
        <time>2026-05-02T12:17:16.000Z</time>
      </trkpt>
      <trkpt lat="44.78161" lon="0.81412">
        <ele>221.1</ele>
        <time>2026-05-02T12:17:17.000Z</time>
      </trkpt>
      <trkpt lat="44.78161" lon="0.81408">
        <ele>221.1</ele>
        <time>2026-05-02T12:17:18.000Z</time>
      </trkpt>
      <trkpt lat="44.7816" lon="0.81405">
        <ele>221.5</ele>
        <time>2026-05-02T12:17:19.000Z</time>
      </trkpt>
      <trkpt lat="44.7816" lon="0.81401">
        <ele>221.5</ele>
        <time>2026-05-02T12:17:20.000Z</time>
      </trkpt>
      <trkpt lat="44.7816" lon="0.81398">
        <ele>221.6</ele>
        <time>2026-05-02T12:17:21.000Z</time>
      </trkpt>
      <trkpt lat="44.78159" lon="0.81395">
        <ele>221.7</ele>
        <time>2026-05-02T12:17:22.000Z</time>
      </trkpt>
      <trkpt lat="44.78159" lon="0.81392">
        <ele>221.5</ele>
        <time>2026-05-02T12:17:23.000Z</time>
      </trkpt>
      <trkpt lat="44.78159" lon="0.81389">
        <ele>221.7</ele>
        <time>2026-05-02T12:17:24.000Z</time>
      </trkpt>
      <trkpt lat="44.78158" lon="0.81386">
        <ele>222</ele>
        <time>2026-05-02T12:17:25.000Z</time>
      </trkpt>
      <trkpt lat="44.78158" lon="0.81384">
        <ele>222</ele>
        <time>2026-05-02T12:17:26.000Z</time>
      </trkpt>
      <trkpt lat="44.78157" lon="0.81381">
        <ele>222</ele>
        <time>2026-05-02T12:17:27.000Z</time>
      </trkpt>
      <trkpt lat="44.78157" lon="0.81378">
        <ele>221.9</ele>
        <time>2026-05-02T12:17:28.000Z</time>
      </trkpt>
      <trkpt lat="44.78157" lon="0.81375">
        <ele>222</ele>
        <time>2026-05-02T12:17:29.000Z</time>
      </trkpt>
      <trkpt lat="44.78157" lon="0.81372">
        <ele>221.9</ele>
        <time>2026-05-02T12:17:30.000Z</time>
      </trkpt>
      <trkpt lat="44.78156" lon="0.8137">
        <ele>221.6</ele>
        <time>2026-05-02T12:17:31.000Z</time>
      </trkpt>
      <trkpt lat="44.78156" lon="0.81367">
        <ele>221.4</ele>
        <time>2026-05-02T12:17:32.000Z</time>
      </trkpt>
      <trkpt lat="44.78155" lon="0.81365">
        <ele>221.2</ele>
        <time>2026-05-02T12:17:33.000Z</time>
      </trkpt>
      <trkpt lat="44.78154" lon="0.81363">
        <ele>221.3</ele>
        <time>2026-05-02T12:17:34.000Z</time>
      </trkpt>
      <trkpt lat="44.78152" lon="0.81361">
        <ele>221.2</ele>
        <time>2026-05-02T12:17:35.000Z</time>
      </trkpt>
      <trkpt lat="44.78151" lon="0.81359">
        <ele>221.1</ele>
        <time>2026-05-02T12:17:36.000Z</time>
      </trkpt>
      <trkpt lat="44.7815" lon="0.81357">
        <ele>221.3</ele>
        <time>2026-05-02T12:17:37.000Z</time>
      </trkpt>
      <trkpt lat="44.78148" lon="0.81356">
        <ele>221.2</ele>
        <time>2026-05-02T12:17:38.000Z</time>
      </trkpt>
      <trkpt lat="44.78146" lon="0.81355">
        <ele>220.9</ele>
        <time>2026-05-02T12:17:39.000Z</time>
      </trkpt>
      <trkpt lat="44.78144" lon="0.81354">
        <ele>221.2</ele>
        <time>2026-05-02T12:17:40.000Z</time>
      </trkpt>
      <trkpt lat="44.78143" lon="0.81353">
        <ele>221.1</ele>
        <time>2026-05-02T12:17:41.000Z</time>
      </trkpt>
      <trkpt lat="44.78141" lon="0.81352">
        <ele>221.2</ele>
        <time>2026-05-02T12:17:42.000Z</time>
      </trkpt>
      <trkpt lat="44.78139" lon="0.81352">
        <ele>221.1</ele>
        <time>2026-05-02T12:17:43.000Z</time>
      </trkpt>
      <trkpt lat="44.78137" lon="0.81352">
        <ele>221.1</ele>
        <time>2026-05-02T12:17:44.000Z</time>
      </trkpt>
      <trkpt lat="44.78135" lon="0.81352">
        <ele>221.2</ele>
        <time>2026-05-02T12:17:45.000Z</time>
      </trkpt>
      <trkpt lat="44.78134" lon="0.81353">
        <ele>221</ele>
        <time>2026-05-02T12:17:46.000Z</time>
      </trkpt>
      <trkpt lat="44.78132" lon="0.81353">
        <ele>221</ele>
        <time>2026-05-02T12:17:47.000Z</time>
      </trkpt>
      <trkpt lat="44.7813" lon="0.81354">
        <ele>221</ele>
        <time>2026-05-02T12:17:48.000Z</time>
      </trkpt>
      <trkpt lat="44.78128" lon="0.81354">
        <ele>221.1</ele>
        <time>2026-05-02T12:17:49.000Z</time>
      </trkpt>
      <trkpt lat="44.78126" lon="0.81355">
        <ele>220.8</ele>
        <time>2026-05-02T12:17:50.000Z</time>
      </trkpt>
      <trkpt lat="44.78124" lon="0.81355">
        <ele>220.8</ele>
        <time>2026-05-02T12:17:51.000Z</time>
      </trkpt>
      <trkpt lat="44.78123" lon="0.81356">
        <ele>220.7</ele>
        <time>2026-05-02T12:17:52.000Z</time>
      </trkpt>
      <trkpt lat="44.78121" lon="0.81356">
        <ele>220.5</ele>
        <time>2026-05-02T12:17:53.000Z</time>
      </trkpt>
      <trkpt lat="44.78119" lon="0.81357">
        <ele>220</ele>
        <time>2026-05-02T12:17:54.000Z</time>
      </trkpt>
      <trkpt lat="44.78117" lon="0.81357">
        <ele>220.1</ele>
        <time>2026-05-02T12:17:55.000Z</time>
      </trkpt>
      <trkpt lat="44.78117" lon="0.81358">
        <ele>219.6</ele>
        <time>2026-05-02T12:17:56.000Z</time>
      </trkpt>
      <trkpt lat="44.78115" lon="0.81359">
        <ele>219.6</ele>
        <time>2026-05-02T12:17:57.000Z</time>
      </trkpt>
      <trkpt lat="44.78113" lon="0.8136">
        <ele>219.9</ele>
        <time>2026-05-02T12:17:58.000Z</time>
      </trkpt>
      <trkpt lat="44.7811" lon="0.8136">
        <ele>220.3</ele>
        <time>2026-05-02T12:17:59.000Z</time>
      </trkpt>
      <trkpt lat="44.78108" lon="0.8136">
        <ele>220.4</ele>
        <time>2026-05-02T12:18:00.000Z</time>
      </trkpt>
      <trkpt lat="44.78107" lon="0.8136">
        <ele>220.3</ele>
        <time>2026-05-02T12:18:01.000Z</time>
      </trkpt>
      <trkpt lat="44.78105" lon="0.81361">
        <ele>220.2</ele>
        <time>2026-05-02T12:18:02.000Z</time>
      </trkpt>
      <trkpt lat="44.78103" lon="0.81361">
        <ele>220.3</ele>
        <time>2026-05-02T12:18:03.000Z</time>
      </trkpt>
      <trkpt lat="44.78101" lon="0.8136">
        <ele>220.2</ele>
        <time>2026-05-02T12:18:04.000Z</time>
      </trkpt>
      <trkpt lat="44.781" lon="0.81359">
        <ele>220.1</ele>
        <time>2026-05-02T12:18:05.000Z</time>
      </trkpt>
      <trkpt lat="44.78099" lon="0.81358">
        <ele>219.9</ele>
        <time>2026-05-02T12:18:06.000Z</time>
      </trkpt>
      <trkpt lat="44.78098" lon="0.81356">
        <ele>220.1</ele>
        <time>2026-05-02T12:18:07.000Z</time>
      </trkpt>
      <trkpt lat="44.78097" lon="0.81354">
        <ele>220.1</ele>
        <time>2026-05-02T12:18:08.000Z</time>
      </trkpt>
      <trkpt lat="44.78097" lon="0.81351">
        <ele>220</ele>
        <time>2026-05-02T12:18:09.000Z</time>
      </trkpt>
      <trkpt lat="44.78098" lon="0.81349">
        <ele>220.2</ele>
        <time>2026-05-02T12:18:10.000Z</time>
      </trkpt>
      <trkpt lat="44.78099" lon="0.81346">
        <ele>220.3</ele>
        <time>2026-05-02T12:18:11.000Z</time>
      </trkpt>
      <trkpt lat="44.78099" lon="0.81344">
        <ele>220.4</ele>
        <time>2026-05-02T12:18:12.000Z</time>
      </trkpt>
      <trkpt lat="44.781" lon="0.81342">
        <ele>220.6</ele>
        <time>2026-05-02T12:18:13.000Z</time>
      </trkpt>
      <trkpt lat="44.78101" lon="0.8134">
        <ele>220.8</ele>
        <time>2026-05-02T12:18:14.000Z</time>
      </trkpt>
      <trkpt lat="44.78102" lon="0.81337">
        <ele>220.7</ele>
        <time>2026-05-02T12:18:15.000Z</time>
      </trkpt>
      <trkpt lat="44.78102" lon="0.81335">
        <ele>220.7</ele>
        <time>2026-05-02T12:18:16.000Z</time>
      </trkpt>
      <trkpt lat="44.78103" lon="0.81333">
        <ele>220.8</ele>
        <time>2026-05-02T12:18:17.000Z</time>
      </trkpt>
      <trkpt lat="44.78104" lon="0.81331">
        <ele>220.8</ele>
        <time>2026-05-02T12:18:18.000Z</time>
      </trkpt>
      <trkpt lat="44.78104" lon="0.81329">
        <ele>220.7</ele>
        <time>2026-05-02T12:18:19.000Z</time>
      </trkpt>
      <trkpt lat="44.78105" lon="0.81327">
        <ele>220.8</ele>
        <time>2026-05-02T12:18:20.000Z</time>
      </trkpt>
      <trkpt lat="44.78106" lon="0.81325">
        <ele>220.9</ele>
        <time>2026-05-02T12:18:21.000Z</time>
      </trkpt>
      <trkpt lat="44.78106" lon="0.81322">
        <ele>221</ele>
        <time>2026-05-02T12:18:22.000Z</time>
      </trkpt>
      <trkpt lat="44.78107" lon="0.8132">
        <ele>220.9</ele>
        <time>2026-05-02T12:18:23.000Z</time>
      </trkpt>
      <trkpt lat="44.78108" lon="0.81318">
        <ele>220.9</ele>
        <time>2026-05-02T12:18:24.000Z</time>
      </trkpt>
      <trkpt lat="44.78108" lon="0.81316">
        <ele>220.9</ele>
        <time>2026-05-02T12:18:25.000Z</time>
      </trkpt>
      <trkpt lat="44.78109" lon="0.81314">
        <ele>220.8</ele>
        <time>2026-05-02T12:18:26.000Z</time>
      </trkpt>
      <trkpt lat="44.78109" lon="0.81312">
        <ele>220.7</ele>
        <time>2026-05-02T12:18:27.000Z</time>
      </trkpt>
      <trkpt lat="44.7811" lon="0.8131">
        <ele>220.7</ele>
        <time>2026-05-02T12:18:28.000Z</time>
      </trkpt>
      <trkpt lat="44.7811" lon="0.81308">
        <ele>220.8</ele>
        <time>2026-05-02T12:18:29.000Z</time>
      </trkpt>
      <trkpt lat="44.78111" lon="0.81306">
        <ele>220.9</ele>
        <time>2026-05-02T12:18:30.000Z</time>
      </trkpt>
      <trkpt lat="44.78112" lon="0.81304">
        <ele>220.8</ele>
        <time>2026-05-02T12:18:31.000Z</time>
      </trkpt>
      <trkpt lat="44.78112" lon="0.81302">
        <ele>220.7</ele>
        <time>2026-05-02T12:18:32.000Z</time>
      </trkpt>
      <trkpt lat="44.78113" lon="0.813">
        <ele>220.8</ele>
        <time>2026-05-02T12:18:33.000Z</time>
      </trkpt>
      <trkpt lat="44.78113" lon="0.81298">
        <ele>220.9</ele>
        <time>2026-05-02T12:18:34.000Z</time>
      </trkpt>
      <trkpt lat="44.78114" lon="0.81296">
        <ele>221</ele>
        <time>2026-05-02T12:18:35.000Z</time>
      </trkpt>
      <trkpt lat="44.78115" lon="0.81294">
        <ele>221</ele>
        <time>2026-05-02T12:18:36.000Z</time>
      </trkpt>
      <trkpt lat="44.78116" lon="0.81292">
        <ele>220.9</ele>
        <time>2026-05-02T12:18:37.000Z</time>
      </trkpt>
      <trkpt lat="44.78116" lon="0.8129">
        <ele>221</ele>
        <time>2026-05-02T12:18:38.000Z</time>
      </trkpt>
      <trkpt lat="44.78117" lon="0.81288">
        <ele>220.9</ele>
        <time>2026-05-02T12:18:39.000Z</time>
      </trkpt>
      <trkpt lat="44.78118" lon="0.81286">
        <ele>220.9</ele>
        <time>2026-05-02T12:18:40.000Z</time>
      </trkpt>
      <trkpt lat="44.78118" lon="0.81284">
        <ele>220.9</ele>
        <time>2026-05-02T12:18:41.000Z</time>
      </trkpt>
      <trkpt lat="44.78119" lon="0.81282">
        <ele>221.2</ele>
        <time>2026-05-02T12:18:42.000Z</time>
      </trkpt>
      <trkpt lat="44.7812" lon="0.8128">
        <ele>221.1</ele>
        <time>2026-05-02T12:18:43.000Z</time>
      </trkpt>
      <trkpt lat="44.78121" lon="0.81278">
        <ele>221.4</ele>
        <time>2026-05-02T12:18:44.000Z</time>
      </trkpt>
      <trkpt lat="44.78121" lon="0.81276">
        <ele>221.3</ele>
        <time>2026-05-02T12:18:45.000Z</time>
      </trkpt>
      <trkpt lat="44.78122" lon="0.81273">
        <ele>221.3</ele>
        <time>2026-05-02T12:18:46.000Z</time>
      </trkpt>
      <trkpt lat="44.78122" lon="0.81271">
        <ele>221.2</ele>
        <time>2026-05-02T12:18:47.000Z</time>
      </trkpt>
      <trkpt lat="44.78123" lon="0.81269">
        <ele>221.2</ele>
        <time>2026-05-02T12:18:48.000Z</time>
      </trkpt>
      <trkpt lat="44.78124" lon="0.81267">
        <ele>221.2</ele>
        <time>2026-05-02T12:18:49.000Z</time>
      </trkpt>
      <trkpt lat="44.78125" lon="0.81265">
        <ele>221.2</ele>
        <time>2026-05-02T12:18:50.000Z</time>
      </trkpt>
      <trkpt lat="44.78125" lon="0.81264">
        <ele>221.2</ele>
        <time>2026-05-02T12:18:51.000Z</time>
      </trkpt>
      <trkpt lat="44.78126" lon="0.81262">
        <ele>221.1</ele>
        <time>2026-05-02T12:18:52.000Z</time>
      </trkpt>
      <trkpt lat="44.78127" lon="0.8126">
        <ele>220.9</ele>
        <time>2026-05-02T12:18:53.000Z</time>
      </trkpt>
      <trkpt lat="44.78127" lon="0.81258">
        <ele>220.9</ele>
        <time>2026-05-02T12:18:54.000Z</time>
      </trkpt>
      <trkpt lat="44.78128" lon="0.81256">
        <ele>220.7</ele>
        <time>2026-05-02T12:18:55.000Z</time>
      </trkpt>
      <trkpt lat="44.78129" lon="0.81254">
        <ele>220.6</ele>
        <time>2026-05-02T12:18:56.000Z</time>
      </trkpt>
      <trkpt lat="44.78129" lon="0.81252">
        <ele>220.6</ele>
        <time>2026-05-02T12:18:57.000Z</time>
      </trkpt>
      <trkpt lat="44.7813" lon="0.8125">
        <ele>220.6</ele>
        <time>2026-05-02T12:18:58.000Z</time>
      </trkpt>
      <trkpt lat="44.7813" lon="0.81248">
        <ele>220.5</ele>
        <time>2026-05-02T12:18:59.000Z</time>
      </trkpt>
      <trkpt lat="44.78131" lon="0.81246">
        <ele>220.5</ele>
        <time>2026-05-02T12:19:00.000Z</time>
      </trkpt>
      <trkpt lat="44.78132" lon="0.81244">
        <ele>220.5</ele>
        <time>2026-05-02T12:19:01.000Z</time>
      </trkpt>
      <trkpt lat="44.78132" lon="0.81242">
        <ele>220.2</ele>
        <time>2026-05-02T12:19:02.000Z</time>
      </trkpt>
      <trkpt lat="44.78133" lon="0.8124">
        <ele>220.2</ele>
        <time>2026-05-02T12:19:03.000Z</time>
      </trkpt>
      <trkpt lat="44.78134" lon="0.81238">
        <ele>220.1</ele>
        <time>2026-05-02T12:19:04.000Z</time>
      </trkpt>
      <trkpt lat="44.78134" lon="0.81236">
        <ele>220.2</ele>
        <time>2026-05-02T12:19:05.000Z</time>
      </trkpt>
      <trkpt lat="44.78135" lon="0.81234">
        <ele>220.5</ele>
        <time>2026-05-02T12:19:06.000Z</time>
      </trkpt>
      <trkpt lat="44.78136" lon="0.81232">
        <ele>220.6</ele>
        <time>2026-05-02T12:19:07.000Z</time>
      </trkpt>
      <trkpt lat="44.78137" lon="0.8123">
        <ele>220.7</ele>
        <time>2026-05-02T12:19:08.000Z</time>
      </trkpt>
      <trkpt lat="44.78137" lon="0.81228">
        <ele>220.9</ele>
        <time>2026-05-02T12:19:09.000Z</time>
      </trkpt>
      <trkpt lat="44.78138" lon="0.81225">
        <ele>220.6</ele>
        <time>2026-05-02T12:19:10.000Z</time>
      </trkpt>
      <trkpt lat="44.78138" lon="0.81223">
        <ele>220.2</ele>
        <time>2026-05-02T12:19:11.000Z</time>
      </trkpt>
      <trkpt lat="44.78139" lon="0.81221">
        <ele>220.2</ele>
        <time>2026-05-02T12:19:12.000Z</time>
      </trkpt>
      <trkpt lat="44.78139" lon="0.81219">
        <ele>220.2</ele>
        <time>2026-05-02T12:19:13.000Z</time>
      </trkpt>
      <trkpt lat="44.7814" lon="0.81217">
        <ele>220.1</ele>
        <time>2026-05-02T12:19:14.000Z</time>
      </trkpt>
      <trkpt lat="44.7814" lon="0.81215">
        <ele>219.9</ele>
        <time>2026-05-02T12:19:15.000Z</time>
      </trkpt>
      <trkpt lat="44.78141" lon="0.81212">
        <ele>220</ele>
        <time>2026-05-02T12:19:16.000Z</time>
      </trkpt>
      <trkpt lat="44.78141" lon="0.81211">
        <ele>220.4</ele>
        <time>2026-05-02T12:19:17.000Z</time>
      </trkpt>
      <trkpt lat="44.78142" lon="0.81209">
        <ele>220.8</ele>
        <time>2026-05-02T12:19:18.000Z</time>
      </trkpt>
      <trkpt lat="44.78143" lon="0.81207">
        <ele>220.5</ele>
        <time>2026-05-02T12:19:19.000Z</time>
      </trkpt>
      <trkpt lat="44.78143" lon="0.81205">
        <ele>220.6</ele>
        <time>2026-05-02T12:19:20.000Z</time>
      </trkpt>
      <trkpt lat="44.78144" lon="0.81203">
        <ele>220.1</ele>
        <time>2026-05-02T12:19:21.000Z</time>
      </trkpt>
      <trkpt lat="44.78144" lon="0.81201">
        <ele>219.6</ele>
        <time>2026-05-02T12:19:22.000Z</time>
      </trkpt>
      <trkpt lat="44.78144" lon="0.81199">
        <ele>219.4</ele>
        <time>2026-05-02T12:19:23.000Z</time>
      </trkpt>
      <trkpt lat="44.78145" lon="0.81198">
        <ele>219.1</ele>
        <time>2026-05-02T12:19:24.000Z</time>
      </trkpt>
      <trkpt lat="44.78146" lon="0.81196">
        <ele>218.6</ele>
        <time>2026-05-02T12:19:25.000Z</time>
      </trkpt>
      <trkpt lat="44.78146" lon="0.81194">
        <ele>218.5</ele>
        <time>2026-05-02T12:19:26.000Z</time>
      </trkpt>
      <trkpt lat="44.78147" lon="0.81193">
        <ele>218.4</ele>
        <time>2026-05-02T12:19:27.000Z</time>
      </trkpt>
      <trkpt lat="44.78147" lon="0.81191">
        <ele>218.3</ele>
        <time>2026-05-02T12:19:28.000Z</time>
      </trkpt>
      <trkpt lat="44.78148" lon="0.81189">
        <ele>217.9</ele>
        <time>2026-05-02T12:19:29.000Z</time>
      </trkpt>
      <trkpt lat="44.78148" lon="0.81187">
        <ele>217.8</ele>
        <time>2026-05-02T12:19:30.000Z</time>
      </trkpt>
      <trkpt lat="44.78149" lon="0.81184">
        <ele>217.8</ele>
        <time>2026-05-02T12:19:31.000Z</time>
      </trkpt>
      <trkpt lat="44.78149" lon="0.81182">
        <ele>217.8</ele>
        <time>2026-05-02T12:19:32.000Z</time>
      </trkpt>
      <trkpt lat="44.7815" lon="0.8118">
        <ele>217.8</ele>
        <time>2026-05-02T12:19:33.000Z</time>
      </trkpt>
      <trkpt lat="44.7815" lon="0.81178">
        <ele>218</ele>
        <time>2026-05-02T12:19:34.000Z</time>
      </trkpt>
      <trkpt lat="44.78151" lon="0.81176">
        <ele>217.9</ele>
        <time>2026-05-02T12:19:35.000Z</time>
      </trkpt>
      <trkpt lat="44.78151" lon="0.81173">
        <ele>217.6</ele>
        <time>2026-05-02T12:19:36.000Z</time>
      </trkpt>
      <trkpt lat="44.78152" lon="0.81171">
        <ele>217.8</ele>
        <time>2026-05-02T12:19:37.000Z</time>
      </trkpt>
      <trkpt lat="44.78152" lon="0.81169">
        <ele>217.6</ele>
        <time>2026-05-02T12:19:38.000Z</time>
      </trkpt>
      <trkpt lat="44.78153" lon="0.81167">
        <ele>217.5</ele>
        <time>2026-05-02T12:19:39.000Z</time>
      </trkpt>
      <trkpt lat="44.78154" lon="0.81165">
        <ele>217.2</ele>
        <time>2026-05-02T12:19:40.000Z</time>
      </trkpt>
      <trkpt lat="44.78154" lon="0.81163">
        <ele>217.1</ele>
        <time>2026-05-02T12:19:41.000Z</time>
      </trkpt>
      <trkpt lat="44.78155" lon="0.81161">
        <ele>217</ele>
        <time>2026-05-02T12:19:42.000Z</time>
      </trkpt>
      <trkpt lat="44.78155" lon="0.81159">
        <ele>217.1</ele>
        <time>2026-05-02T12:19:43.000Z</time>
      </trkpt>
      <trkpt lat="44.78156" lon="0.81157">
        <ele>217</ele>
        <time>2026-05-02T12:19:44.000Z</time>
      </trkpt>
      <trkpt lat="44.78156" lon="0.81155">
        <ele>217.1</ele>
        <time>2026-05-02T12:19:45.000Z</time>
      </trkpt>
      <trkpt lat="44.78157" lon="0.81153">
        <ele>217.2</ele>
        <time>2026-05-02T12:19:46.000Z</time>
      </trkpt>
      <trkpt lat="44.78157" lon="0.81151">
        <ele>217.1</ele>
        <time>2026-05-02T12:19:47.000Z</time>
      </trkpt>
      <trkpt lat="44.78158" lon="0.81149">
        <ele>216.7</ele>
        <time>2026-05-02T12:19:48.000Z</time>
      </trkpt>
      <trkpt lat="44.78158" lon="0.81147">
        <ele>216.5</ele>
        <time>2026-05-02T12:19:49.000Z</time>
      </trkpt>
      <trkpt lat="44.78159" lon="0.81145">
        <ele>216.4</ele>
        <time>2026-05-02T12:19:50.000Z</time>
      </trkpt>
      <trkpt lat="44.78159" lon="0.81143">
        <ele>216.8</ele>
        <time>2026-05-02T12:19:51.000Z</time>
      </trkpt>
      <trkpt lat="44.78159" lon="0.81141">
        <ele>216.9</ele>
        <time>2026-05-02T12:19:52.000Z</time>
      </trkpt>
      <trkpt lat="44.7816" lon="0.81139">
        <ele>216.6</ele>
        <time>2026-05-02T12:19:53.000Z</time>
      </trkpt>
      <trkpt lat="44.78161" lon="0.81136">
        <ele>216.3</ele>
        <time>2026-05-02T12:19:54.000Z</time>
      </trkpt>
      <trkpt lat="44.78161" lon="0.81134">
        <ele>215.9</ele>
        <time>2026-05-02T12:19:55.000Z</time>
      </trkpt>
      <trkpt lat="44.78162" lon="0.81132">
        <ele>216.1</ele>
        <time>2026-05-02T12:19:56.000Z</time>
      </trkpt>
      <trkpt lat="44.78162" lon="0.81131">
        <ele>215.9</ele>
        <time>2026-05-02T12:19:57.000Z</time>
      </trkpt>
      <trkpt lat="44.78163" lon="0.81129">
        <ele>216.5</ele>
        <time>2026-05-02T12:19:58.000Z</time>
      </trkpt>
      <trkpt lat="44.78163" lon="0.81127">
        <ele>216.3</ele>
        <time>2026-05-02T12:19:59.000Z</time>
      </trkpt>
      <trkpt lat="44.78164" lon="0.81125">
        <ele>216.1</ele>
        <time>2026-05-02T12:20:00.000Z</time>
      </trkpt>
      <trkpt lat="44.78165" lon="0.81123">
        <ele>216.1</ele>
        <time>2026-05-02T12:20:01.000Z</time>
      </trkpt>
      <trkpt lat="44.78165" lon="0.81121">
        <ele>216.3</ele>
        <time>2026-05-02T12:20:02.000Z</time>
      </trkpt>
      <trkpt lat="44.78166" lon="0.81119">
        <ele>216.5</ele>
        <time>2026-05-02T12:20:03.000Z</time>
      </trkpt>
      <trkpt lat="44.78167" lon="0.81117">
        <ele>216.6</ele>
        <time>2026-05-02T12:20:04.000Z</time>
      </trkpt>
      <trkpt lat="44.78167" lon="0.81115">
        <ele>216.8</ele>
        <time>2026-05-02T12:20:05.000Z</time>
      </trkpt>
      <trkpt lat="44.78168" lon="0.81113">
        <ele>217.1</ele>
        <time>2026-05-02T12:20:06.000Z</time>
      </trkpt>
      <trkpt lat="44.78169" lon="0.81111">
        <ele>216.9</ele>
        <time>2026-05-02T12:20:07.000Z</time>
      </trkpt>
      <trkpt lat="44.7817" lon="0.81109">
        <ele>216.4</ele>
        <time>2026-05-02T12:20:08.000Z</time>
      </trkpt>
      <trkpt lat="44.78171" lon="0.81108">
        <ele>216.9</ele>
        <time>2026-05-02T12:20:09.000Z</time>
      </trkpt>
      <trkpt lat="44.78173" lon="0.81106">
        <ele>216.6</ele>
        <time>2026-05-02T12:20:10.000Z</time>
      </trkpt>
      <trkpt lat="44.78174" lon="0.81105">
        <ele>216.2</ele>
        <time>2026-05-02T12:20:11.000Z</time>
      </trkpt>
      <trkpt lat="44.78176" lon="0.81105">
        <ele>216.3</ele>
        <time>2026-05-02T12:20:12.000Z</time>
      </trkpt>
      <trkpt lat="44.78178" lon="0.81104">
        <ele>216.4</ele>
        <time>2026-05-02T12:20:13.000Z</time>
      </trkpt>
      <trkpt lat="44.78181" lon="0.81106">
        <ele>215.3</ele>
        <time>2026-05-02T12:20:14.000Z</time>
      </trkpt>
      <trkpt lat="44.78182" lon="0.81107">
        <ele>215.6</ele>
        <time>2026-05-02T12:20:15.000Z</time>
      </trkpt>
      <trkpt lat="44.78184" lon="0.81109">
        <ele>215.3</ele>
        <time>2026-05-02T12:20:16.000Z</time>
      </trkpt>
      <trkpt lat="44.78186" lon="0.8111">
        <ele>215</ele>
        <time>2026-05-02T12:20:17.000Z</time>
      </trkpt>
      <trkpt lat="44.78187" lon="0.81112">
        <ele>215</ele>
        <time>2026-05-02T12:20:18.000Z</time>
      </trkpt>
      <trkpt lat="44.78188" lon="0.81113">
        <ele>215.1</ele>
        <time>2026-05-02T12:20:19.000Z</time>
      </trkpt>
      <trkpt lat="44.7819" lon="0.81114">
        <ele>214.8</ele>
        <time>2026-05-02T12:20:20.000Z</time>
      </trkpt>
      <trkpt lat="44.78191" lon="0.81115">
        <ele>215</ele>
        <time>2026-05-02T12:20:21.000Z</time>
      </trkpt>
      <trkpt lat="44.78192" lon="0.81117">
        <ele>215.1</ele>
        <time>2026-05-02T12:20:22.000Z</time>
      </trkpt>
      <trkpt lat="44.78194" lon="0.81118">
        <ele>215.4</ele>
        <time>2026-05-02T12:20:23.000Z</time>
      </trkpt>
      <trkpt lat="44.78195" lon="0.81119">
        <ele>215.9</ele>
        <time>2026-05-02T12:20:24.000Z</time>
      </trkpt>
      <trkpt lat="44.78197" lon="0.8112">
        <ele>216.2</ele>
        <time>2026-05-02T12:20:25.000Z</time>
      </trkpt>
      <trkpt lat="44.78198" lon="0.81121">
        <ele>216.6</ele>
        <time>2026-05-02T12:20:26.000Z</time>
      </trkpt>
      <trkpt lat="44.78199" lon="0.81123">
        <ele>217.1</ele>
        <time>2026-05-02T12:20:27.000Z</time>
      </trkpt>
      <trkpt lat="44.78201" lon="0.81124">
        <ele>217.2</ele>
        <time>2026-05-02T12:20:28.000Z</time>
      </trkpt>
      <trkpt lat="44.78202" lon="0.81125">
        <ele>217.1</ele>
        <time>2026-05-02T12:20:29.000Z</time>
      </trkpt>
      <trkpt lat="44.78203" lon="0.81126">
        <ele>216.5</ele>
        <time>2026-05-02T12:20:30.000Z</time>
      </trkpt>
      <trkpt lat="44.78205" lon="0.81127">
        <ele>216.5</ele>
        <time>2026-05-02T12:20:31.000Z</time>
      </trkpt>
      <trkpt lat="44.78206" lon="0.81127">
        <ele>216.4</ele>
        <time>2026-05-02T12:20:32.000Z</time>
      </trkpt>
      <trkpt lat="44.78207" lon="0.81128">
        <ele>216.2</ele>
        <time>2026-05-02T12:20:33.000Z</time>
      </trkpt>
      <trkpt lat="44.78209" lon="0.81129">
        <ele>216.2</ele>
        <time>2026-05-02T12:20:34.000Z</time>
      </trkpt>
      <trkpt lat="44.7821" lon="0.8113">
        <ele>216.3</ele>
        <time>2026-05-02T12:20:35.000Z</time>
      </trkpt>
      <trkpt lat="44.78212" lon="0.81131">
        <ele>216.2</ele>
        <time>2026-05-02T12:20:36.000Z</time>
      </trkpt>
      <trkpt lat="44.78213" lon="0.81132">
        <ele>215.6</ele>
        <time>2026-05-02T12:20:37.000Z</time>
      </trkpt>
      <trkpt lat="44.78214" lon="0.81132">
        <ele>215.6</ele>
        <time>2026-05-02T12:20:38.000Z</time>
      </trkpt>
      <trkpt lat="44.78216" lon="0.81134">
        <ele>215.5</ele>
        <time>2026-05-02T12:20:39.000Z</time>
      </trkpt>
      <trkpt lat="44.78217" lon="0.81135">
        <ele>215.1</ele>
        <time>2026-05-02T12:20:40.000Z</time>
      </trkpt>
      <trkpt lat="44.78218" lon="0.81136">
        <ele>215</ele>
        <time>2026-05-02T12:20:41.000Z</time>
      </trkpt>
      <trkpt lat="44.78219" lon="0.81138">
        <ele>214.6</ele>
        <time>2026-05-02T12:20:42.000Z</time>
      </trkpt>
      <trkpt lat="44.7822" lon="0.81139">
        <ele>214.1</ele>
        <time>2026-05-02T12:20:43.000Z</time>
      </trkpt>
      <trkpt lat="44.78221" lon="0.81141">
        <ele>214</ele>
        <time>2026-05-02T12:20:44.000Z</time>
      </trkpt>
      <trkpt lat="44.78222" lon="0.81141">
        <ele>214.2</ele>
        <time>2026-05-02T12:20:45.000Z</time>
      </trkpt>
      <trkpt lat="44.78224" lon="0.81142">
        <ele>214.6</ele>
        <time>2026-05-02T12:20:46.000Z</time>
      </trkpt>
      <trkpt lat="44.78225" lon="0.81143">
        <ele>215.2</ele>
        <time>2026-05-02T12:20:47.000Z</time>
      </trkpt>
      <trkpt lat="44.78226" lon="0.81144">
        <ele>215.8</ele>
        <time>2026-05-02T12:20:48.000Z</time>
      </trkpt>
      <trkpt lat="44.78227" lon="0.81145">
        <ele>216.5</ele>
        <time>2026-05-02T12:20:49.000Z</time>
      </trkpt>
      <trkpt lat="44.78229" lon="0.81146">
        <ele>216.3</ele>
        <time>2026-05-02T12:20:50.000Z</time>
      </trkpt>
      <trkpt lat="44.78229" lon="0.81146">
        <ele>216.4</ele>
        <time>2026-05-02T12:20:51.000Z</time>
      </trkpt>
      <trkpt lat="44.7823" lon="0.81147">
        <ele>216.3</ele>
        <time>2026-05-02T12:20:52.000Z</time>
      </trkpt>
      <trkpt lat="44.78232" lon="0.81147">
        <ele>216.6</ele>
        <time>2026-05-02T12:20:53.000Z</time>
      </trkpt>
      <trkpt lat="44.78232" lon="0.81147">
        <ele>216.5</ele>
        <time>2026-05-02T12:20:54.000Z</time>
      </trkpt>
      <trkpt lat="44.78231" lon="0.81147">
        <ele>216.5</ele>
        <time>2026-05-02T12:20:55.000Z</time>
      </trkpt>
      <trkpt lat="44.78231" lon="0.81147">
        <ele>216.5</ele>
        <time>2026-05-02T12:20:56.000Z</time>
      </trkpt>
      <trkpt lat="44.78231" lon="0.81147">
        <ele>216.5</ele>
        <time>2026-05-02T12:20:57.000Z</time>
      </trkpt>
      <trkpt lat="44.78231" lon="0.81147">
        <ele>216.5</ele>
        <time>2026-05-02T12:20:58.000Z</time>
      </trkpt>
      <trkpt lat="44.78231" lon="0.81147">
        <ele>216.5</ele>
        <time>2026-05-02T12:20:59.000Z</time>
      </trkpt>
      <trkpt lat="44.78231" lon="0.81147">
        <ele>216.5</ele>
        <time>2026-05-02T12:21:00.000Z</time>
      </trkpt>
      <trkpt lat="44.78231" lon="0.81147">
        <ele>216.5</ele>
        <time>2026-05-02T12:21:01.000Z</time>
      </trkpt>
      <trkpt lat="44.78231" lon="0.81147">
        <ele>216.5</ele>
        <time>2026-05-02T12:21:02.000Z</time>
      </trkpt>
      <trkpt lat="44.78231" lon="0.81147">
        <ele>216.5</ele>
        <time>2026-05-02T12:21:03.000Z</time>
      </trkpt>
      <trkpt lat="44.78232" lon="0.81148">
        <ele>216.4</ele>
        <time>2026-05-02T12:21:04.000Z</time>
      </trkpt>
      <trkpt lat="44.78232" lon="0.81149">
        <ele>216.5</ele>
        <time>2026-05-02T12:21:05.000Z</time>
      </trkpt>
      <trkpt lat="44.78233" lon="0.8115">
        <ele>216.5</ele>
        <time>2026-05-02T12:21:06.000Z</time>
      </trkpt>
      <trkpt lat="44.78234" lon="0.81152">
        <ele>216.7</ele>
        <time>2026-05-02T12:21:07.000Z</time>
      </trkpt>
      <trkpt lat="44.78235" lon="0.81153">
        <ele>216.3</ele>
        <time>2026-05-02T12:21:08.000Z</time>
      </trkpt>
      <trkpt lat="44.78236" lon="0.81155">
        <ele>216.2</ele>
        <time>2026-05-02T12:21:09.000Z</time>
      </trkpt>
      <trkpt lat="44.78237" lon="0.81156">
        <ele>216.4</ele>
        <time>2026-05-02T12:21:10.000Z</time>
      </trkpt>
      <trkpt lat="44.78238" lon="0.81157">
        <ele>216.7</ele>
        <time>2026-05-02T12:21:11.000Z</time>
      </trkpt>
      <trkpt lat="44.78239" lon="0.81159">
        <ele>215.3</ele>
        <time>2026-05-02T12:21:12.000Z</time>
      </trkpt>
      <trkpt lat="44.78239" lon="0.8116">
        <ele>215</ele>
        <time>2026-05-02T12:21:13.000Z</time>
      </trkpt>
      <trkpt lat="44.78241" lon="0.81162">
        <ele>214.7</ele>
        <time>2026-05-02T12:21:14.000Z</time>
      </trkpt>
      <trkpt lat="44.78242" lon="0.81163">
        <ele>214.7</ele>
        <time>2026-05-02T12:21:15.000Z</time>
      </trkpt>
      <trkpt lat="44.78243" lon="0.81165">
        <ele>214.7</ele>
        <time>2026-05-02T12:21:16.000Z</time>
      </trkpt>
      <trkpt lat="44.78244" lon="0.81166">
        <ele>215</ele>
        <time>2026-05-02T12:21:17.000Z</time>
      </trkpt>
      <trkpt lat="44.78245" lon="0.81168">
        <ele>214.4</ele>
        <time>2026-05-02T12:21:18.000Z</time>
      </trkpt>
      <trkpt lat="44.78247" lon="0.81169">
        <ele>214.3</ele>
        <time>2026-05-02T12:21:19.000Z</time>
      </trkpt>
      <trkpt lat="44.78248" lon="0.8117">
        <ele>214.3</ele>
        <time>2026-05-02T12:21:20.000Z</time>
      </trkpt>
      <trkpt lat="44.78249" lon="0.81171">
        <ele>214.5</ele>
        <time>2026-05-02T12:21:21.000Z</time>
      </trkpt>
      <trkpt lat="44.7825" lon="0.81172">
        <ele>213.5</ele>
        <time>2026-05-02T12:21:22.000Z</time>
      </trkpt>
      <trkpt lat="44.78252" lon="0.81172">
        <ele>214.6</ele>
        <time>2026-05-02T12:21:23.000Z</time>
      </trkpt>
      <trkpt lat="44.78253" lon="0.81174">
        <ele>214.2</ele>
        <time>2026-05-02T12:21:24.000Z</time>
      </trkpt>
      <trkpt lat="44.78254" lon="0.81176">
        <ele>214.1</ele>
        <time>2026-05-02T12:21:25.000Z</time>
      </trkpt>
      <trkpt lat="44.78255" lon="0.81177">
        <ele>214.9</ele>
        <time>2026-05-02T12:21:26.000Z</time>
      </trkpt>
      <trkpt lat="44.78257" lon="0.81178">
        <ele>215.2</ele>
        <time>2026-05-02T12:21:27.000Z</time>
      </trkpt>
      <trkpt lat="44.78258" lon="0.81179">
        <ele>215</ele>
        <time>2026-05-02T12:21:28.000Z</time>
      </trkpt>
      <trkpt lat="44.78259" lon="0.8118">
        <ele>215.3</ele>
        <time>2026-05-02T12:21:29.000Z</time>
      </trkpt>
      <trkpt lat="44.78261" lon="0.81182">
        <ele>214.7</ele>
        <time>2026-05-02T12:21:30.000Z</time>
      </trkpt>
      <trkpt lat="44.78262" lon="0.81183">
        <ele>214.5</ele>
        <time>2026-05-02T12:21:31.000Z</time>
      </trkpt>
      <trkpt lat="44.78263" lon="0.81185">
        <ele>214.4</ele>
        <time>2026-05-02T12:21:32.000Z</time>
      </trkpt>
      <trkpt lat="44.78265" lon="0.81187">
        <ele>214.4</ele>
        <time>2026-05-02T12:21:33.000Z</time>
      </trkpt>
      <trkpt lat="44.78266" lon="0.81188">
        <ele>214.2</ele>
        <time>2026-05-02T12:21:34.000Z</time>
      </trkpt>
      <trkpt lat="44.78267" lon="0.8119">
        <ele>214.5</ele>
        <time>2026-05-02T12:21:35.000Z</time>
      </trkpt>
      <trkpt lat="44.78268" lon="0.81191">
        <ele>214.7</ele>
        <time>2026-05-02T12:21:36.000Z</time>
      </trkpt>
      <trkpt lat="44.7827" lon="0.81193">
        <ele>214.5</ele>
        <time>2026-05-02T12:21:37.000Z</time>
      </trkpt>
      <trkpt lat="44.78271" lon="0.81194">
        <ele>214.2</ele>
        <time>2026-05-02T12:21:38.000Z</time>
      </trkpt>
      <trkpt lat="44.78272" lon="0.81196">
        <ele>213.8</ele>
        <time>2026-05-02T12:21:39.000Z</time>
      </trkpt>
      <trkpt lat="44.78274" lon="0.81198">
        <ele>213.1</ele>
        <time>2026-05-02T12:21:40.000Z</time>
      </trkpt>
      <trkpt lat="44.78275" lon="0.81201">
        <ele>213</ele>
        <time>2026-05-02T12:21:41.000Z</time>
      </trkpt>
      <trkpt lat="44.78276" lon="0.81203">
        <ele>212.6</ele>
        <time>2026-05-02T12:21:42.000Z</time>
      </trkpt>
      <trkpt lat="44.78277" lon="0.81204">
        <ele>212.3</ele>
        <time>2026-05-02T12:21:43.000Z</time>
      </trkpt>
      <trkpt lat="44.78279" lon="0.81206">
        <ele>212.4</ele>
        <time>2026-05-02T12:21:44.000Z</time>
      </trkpt>
      <trkpt lat="44.78279" lon="0.81208">
        <ele>210.8</ele>
        <time>2026-05-02T12:21:45.000Z</time>
      </trkpt>
      <trkpt lat="44.78279" lon="0.81208">
        <ele>211.5</ele>
        <time>2026-05-02T12:21:46.000Z</time>
      </trkpt>
      <trkpt lat="44.78279" lon="0.81208">
        <ele>211.5</ele>
        <time>2026-05-02T12:21:47.000Z</time>
      </trkpt>
      <trkpt lat="44.78279" lon="0.81208">
        <ele>211.5</ele>
        <time>2026-05-02T12:21:48.000Z</time>
      </trkpt>
      <trkpt lat="44.78279" lon="0.81208">
        <ele>211.5</ele>
        <time>2026-05-02T12:21:49.000Z</time>
      </trkpt>
      <trkpt lat="44.78279" lon="0.81208">
        <ele>211.7</ele>
        <time>2026-05-02T12:21:50.000Z</time>
      </trkpt>
      <trkpt lat="44.7828" lon="0.81209">
        <ele>212.2</ele>
        <time>2026-05-02T12:21:51.000Z</time>
      </trkpt>
      <trkpt lat="44.78281" lon="0.81211">
        <ele>212.2</ele>
        <time>2026-05-02T12:21:52.000Z</time>
      </trkpt>
      <trkpt lat="44.78283" lon="0.81212">
        <ele>212.1</ele>
        <time>2026-05-02T12:21:53.000Z</time>
      </trkpt>
      <trkpt lat="44.78284" lon="0.81213">
        <ele>211.6</ele>
        <time>2026-05-02T12:21:54.000Z</time>
      </trkpt>
      <trkpt lat="44.78285" lon="0.81215">
        <ele>211.4</ele>
        <time>2026-05-02T12:21:55.000Z</time>
      </trkpt>
      <trkpt lat="44.78286" lon="0.81216">
        <ele>211.7</ele>
        <time>2026-05-02T12:21:56.000Z</time>
      </trkpt>
      <trkpt lat="44.78287" lon="0.81217">
        <ele>212</ele>
        <time>2026-05-02T12:21:57.000Z</time>
      </trkpt>
      <trkpt lat="44.78288" lon="0.81218">
        <ele>212.1</ele>
        <time>2026-05-02T12:21:58.000Z</time>
      </trkpt>
      <trkpt lat="44.78289" lon="0.8122">
        <ele>211.7</ele>
        <time>2026-05-02T12:21:59.000Z</time>
      </trkpt>
      <trkpt lat="44.7829" lon="0.8122">
        <ele>212.1</ele>
        <time>2026-05-02T12:22:00.000Z</time>
      </trkpt>
      <trkpt lat="44.78291" lon="0.81222">
        <ele>211.6</ele>
        <time>2026-05-02T12:22:01.000Z</time>
      </trkpt>
      <trkpt lat="44.78292" lon="0.81223">
        <ele>211.6</ele>
        <time>2026-05-02T12:22:02.000Z</time>
      </trkpt>
      <trkpt lat="44.78294" lon="0.81224">
        <ele>211.5</ele>
        <time>2026-05-02T12:22:03.000Z</time>
      </trkpt>
      <trkpt lat="44.78295" lon="0.81225">
        <ele>211.2</ele>
        <time>2026-05-02T12:22:04.000Z</time>
      </trkpt>
      <trkpt lat="44.78296" lon="0.81225">
        <ele>211.1</ele>
        <time>2026-05-02T12:22:05.000Z</time>
      </trkpt>
      <trkpt lat="44.78298" lon="0.81226">
        <ele>211.3</ele>
        <time>2026-05-02T12:22:06.000Z</time>
      </trkpt>
      <trkpt lat="44.78299" lon="0.81226">
        <ele>211.5</ele>
        <time>2026-05-02T12:22:07.000Z</time>
      </trkpt>
      <trkpt lat="44.78301" lon="0.81226">
        <ele>211.6</ele>
        <time>2026-05-02T12:22:08.000Z</time>
      </trkpt>
      <trkpt lat="44.78303" lon="0.81225">
        <ele>211.3</ele>
        <time>2026-05-02T12:22:09.000Z</time>
      </trkpt>
      <trkpt lat="44.78304" lon="0.81225">
        <ele>211.2</ele>
        <time>2026-05-02T12:22:10.000Z</time>
      </trkpt>
      <trkpt lat="44.78305" lon="0.81224">
        <ele>211</ele>
        <time>2026-05-02T12:22:11.000Z</time>
      </trkpt>
      <trkpt lat="44.78307" lon="0.81223">
        <ele>210.6</ele>
        <time>2026-05-02T12:22:12.000Z</time>
      </trkpt>
      <trkpt lat="44.78308" lon="0.81222">
        <ele>210.8</ele>
        <time>2026-05-02T12:22:13.000Z</time>
      </trkpt>
      <trkpt lat="44.78309" lon="0.81221">
        <ele>210.3</ele>
        <time>2026-05-02T12:22:14.000Z</time>
      </trkpt>
      <trkpt lat="44.7831" lon="0.8122">
        <ele>210.1</ele>
        <time>2026-05-02T12:22:15.000Z</time>
      </trkpt>
      <trkpt lat="44.78312" lon="0.81219">
        <ele>209.8</ele>
        <time>2026-05-02T12:22:16.000Z</time>
      </trkpt>
      <trkpt lat="44.78313" lon="0.81217">
        <ele>209.4</ele>
        <time>2026-05-02T12:22:17.000Z</time>
      </trkpt>
      <trkpt lat="44.78314" lon="0.81217">
        <ele>208.5</ele>
        <time>2026-05-02T12:22:18.000Z</time>
      </trkpt>
      <trkpt lat="44.78316" lon="0.81215">
        <ele>208.3</ele>
        <time>2026-05-02T12:22:19.000Z</time>
      </trkpt>
      <trkpt lat="44.78317" lon="0.81214">
        <ele>208.6</ele>
        <time>2026-05-02T12:22:20.000Z</time>
      </trkpt>
      <trkpt lat="44.78318" lon="0.81213">
        <ele>207.5</ele>
        <time>2026-05-02T12:22:21.000Z</time>
      </trkpt>
      <trkpt lat="44.78319" lon="0.81212">
        <ele>207.5</ele>
        <time>2026-05-02T12:22:22.000Z</time>
      </trkpt>
      <trkpt lat="44.78321" lon="0.81211">
        <ele>207.4</ele>
        <time>2026-05-02T12:22:23.000Z</time>
      </trkpt>
      <trkpt lat="44.78322" lon="0.8121">
        <ele>207.3</ele>
        <time>2026-05-02T12:22:24.000Z</time>
      </trkpt>
      <trkpt lat="44.78323" lon="0.81209">
        <ele>207.4</ele>
        <time>2026-05-02T12:22:25.000Z</time>
      </trkpt>
      <trkpt lat="44.78325" lon="0.81208">
        <ele>207.2</ele>
        <time>2026-05-02T12:22:26.000Z</time>
      </trkpt>
      <trkpt lat="44.78327" lon="0.81207">
        <ele>207.2</ele>
        <time>2026-05-02T12:22:27.000Z</time>
      </trkpt>
      <trkpt lat="44.78328" lon="0.81206">
        <ele>207</ele>
        <time>2026-05-02T12:22:28.000Z</time>
      </trkpt>
      <trkpt lat="44.78329" lon="0.81205">
        <ele>206.6</ele>
        <time>2026-05-02T12:22:29.000Z</time>
      </trkpt>
      <trkpt lat="44.78331" lon="0.81204">
        <ele>206.4</ele>
        <time>2026-05-02T12:22:30.000Z</time>
      </trkpt>
      <trkpt lat="44.78332" lon="0.81203">
        <ele>206</ele>
        <time>2026-05-02T12:22:31.000Z</time>
      </trkpt>
      <trkpt lat="44.78334" lon="0.81203">
        <ele>205.8</ele>
        <time>2026-05-02T12:22:32.000Z</time>
      </trkpt>
      <trkpt lat="44.78335" lon="0.81202">
        <ele>205.3</ele>
        <time>2026-05-02T12:22:33.000Z</time>
      </trkpt>
      <trkpt lat="44.78337" lon="0.81201">
        <ele>205.3</ele>
        <time>2026-05-02T12:22:34.000Z</time>
      </trkpt>
      <trkpt lat="44.78338" lon="0.81201">
        <ele>204.9</ele>
        <time>2026-05-02T12:22:35.000Z</time>
      </trkpt>
      <trkpt lat="44.7834" lon="0.812">
        <ele>205</ele>
        <time>2026-05-02T12:22:36.000Z</time>
      </trkpt>
      <trkpt lat="44.78341" lon="0.812">
        <ele>205.1</ele>
        <time>2026-05-02T12:22:37.000Z</time>
      </trkpt>
      <trkpt lat="44.78343" lon="0.81199">
        <ele>204.5</ele>
        <time>2026-05-02T12:22:38.000Z</time>
      </trkpt>
      <trkpt lat="44.78344" lon="0.81199">
        <ele>204.7</ele>
        <time>2026-05-02T12:22:39.000Z</time>
      </trkpt>
      <trkpt lat="44.78346" lon="0.81198">
        <ele>204</ele>
        <time>2026-05-02T12:22:40.000Z</time>
      </trkpt>
      <trkpt lat="44.78347" lon="0.81197">
        <ele>204.2</ele>
        <time>2026-05-02T12:22:41.000Z</time>
      </trkpt>
      <trkpt lat="44.78349" lon="0.81196">
        <ele>203.7</ele>
        <time>2026-05-02T12:22:42.000Z</time>
      </trkpt>
      <trkpt lat="44.7835" lon="0.81195">
        <ele>203.8</ele>
        <time>2026-05-02T12:22:43.000Z</time>
      </trkpt>
      <trkpt lat="44.78351" lon="0.81195">
        <ele>203.4</ele>
        <time>2026-05-02T12:22:44.000Z</time>
      </trkpt>
      <trkpt lat="44.78353" lon="0.81194">
        <ele>203</ele>
        <time>2026-05-02T12:22:45.000Z</time>
      </trkpt>
      <trkpt lat="44.78354" lon="0.81193">
        <ele>203</ele>
        <time>2026-05-02T12:22:46.000Z</time>
      </trkpt>
      <trkpt lat="44.78356" lon="0.81192">
        <ele>203.1</ele>
        <time>2026-05-02T12:22:47.000Z</time>
      </trkpt>
      <trkpt lat="44.78357" lon="0.81192">
        <ele>203</ele>
        <time>2026-05-02T12:22:48.000Z</time>
      </trkpt>
      <trkpt lat="44.78359" lon="0.81191">
        <ele>203.3</ele>
        <time>2026-05-02T12:22:49.000Z</time>
      </trkpt>
      <trkpt lat="44.7836" lon="0.8119">
        <ele>203.5</ele>
        <time>2026-05-02T12:22:50.000Z</time>
      </trkpt>
      <trkpt lat="44.78362" lon="0.81189">
        <ele>203.5</ele>
        <time>2026-05-02T12:22:51.000Z</time>
      </trkpt>
      <trkpt lat="44.78363" lon="0.81188">
        <ele>203.6</ele>
        <time>2026-05-02T12:22:52.000Z</time>
      </trkpt>
      <trkpt lat="44.78365" lon="0.81187">
        <ele>204.2</ele>
        <time>2026-05-02T12:22:53.000Z</time>
      </trkpt>
      <trkpt lat="44.78367" lon="0.81186">
        <ele>204.4</ele>
        <time>2026-05-02T12:22:54.000Z</time>
      </trkpt>
      <trkpt lat="44.78368" lon="0.81184">
        <ele>204.1</ele>
        <time>2026-05-02T12:22:55.000Z</time>
      </trkpt>
      <trkpt lat="44.78369" lon="0.81183">
        <ele>203.3</ele>
        <time>2026-05-02T12:22:56.000Z</time>
      </trkpt>
      <trkpt lat="44.7837" lon="0.81182">
        <ele>203</ele>
        <time>2026-05-02T12:22:57.000Z</time>
      </trkpt>
      <trkpt lat="44.78371" lon="0.81181">
        <ele>202.7</ele>
        <time>2026-05-02T12:22:58.000Z</time>
      </trkpt>
      <trkpt lat="44.78372" lon="0.81179">
        <ele>202.4</ele>
        <time>2026-05-02T12:22:59.000Z</time>
      </trkpt>
      <trkpt lat="44.78373" lon="0.81178">
        <ele>202.1</ele>
        <time>2026-05-02T12:23:00.000Z</time>
      </trkpt>
      <trkpt lat="44.78374" lon="0.81176">
        <ele>201.9</ele>
        <time>2026-05-02T12:23:01.000Z</time>
      </trkpt>
      <trkpt lat="44.78375" lon="0.81175">
        <ele>201.9</ele>
        <time>2026-05-02T12:23:02.000Z</time>
      </trkpt>
      <trkpt lat="44.78375" lon="0.81173">
        <ele>201.9</ele>
        <time>2026-05-02T12:23:03.000Z</time>
      </trkpt>
      <trkpt lat="44.78376" lon="0.81171">
        <ele>201.9</ele>
        <time>2026-05-02T12:23:04.000Z</time>
      </trkpt>
      <trkpt lat="44.78376" lon="0.81169">
        <ele>201.8</ele>
        <time>2026-05-02T12:23:05.000Z</time>
      </trkpt>
      <trkpt lat="44.78377" lon="0.81166">
        <ele>202</ele>
        <time>2026-05-02T12:23:06.000Z</time>
      </trkpt>
      <trkpt lat="44.78377" lon="0.81164">
        <ele>201.9</ele>
        <time>2026-05-02T12:23:07.000Z</time>
      </trkpt>
      <trkpt lat="44.78378" lon="0.81163">
        <ele>201.1</ele>
        <time>2026-05-02T12:23:08.000Z</time>
      </trkpt>
      <trkpt lat="44.78378" lon="0.81161">
        <ele>200.7</ele>
        <time>2026-05-02T12:23:09.000Z</time>
      </trkpt>
      <trkpt lat="44.78378" lon="0.81158">
        <ele>200.5</ele>
        <time>2026-05-02T12:23:10.000Z</time>
      </trkpt>
      <trkpt lat="44.78379" lon="0.81156">
        <ele>200.5</ele>
        <time>2026-05-02T12:23:11.000Z</time>
      </trkpt>
      <trkpt lat="44.78379" lon="0.81154">
        <ele>201.1</ele>
        <time>2026-05-02T12:23:12.000Z</time>
      </trkpt>
      <trkpt lat="44.78379" lon="0.81152">
        <ele>201.5</ele>
        <time>2026-05-02T12:23:13.000Z</time>
      </trkpt>
      <trkpt lat="44.7838" lon="0.8115">
        <ele>201</ele>
        <time>2026-05-02T12:23:14.000Z</time>
      </trkpt>
      <trkpt lat="44.7838" lon="0.81148">
        <ele>201</ele>
        <time>2026-05-02T12:23:15.000Z</time>
      </trkpt>
      <trkpt lat="44.7838" lon="0.81146">
        <ele>201.4</ele>
        <time>2026-05-02T12:23:16.000Z</time>
      </trkpt>
      <trkpt lat="44.7838" lon="0.81143">
        <ele>201.6</ele>
        <time>2026-05-02T12:23:17.000Z</time>
      </trkpt>
      <trkpt lat="44.78381" lon="0.81141">
        <ele>201.1</ele>
        <time>2026-05-02T12:23:18.000Z</time>
      </trkpt>
      <trkpt lat="44.78381" lon="0.81139">
        <ele>200.8</ele>
        <time>2026-05-02T12:23:19.000Z</time>
      </trkpt>
      <trkpt lat="44.78382" lon="0.81137">
        <ele>200.2</ele>
        <time>2026-05-02T12:23:20.000Z</time>
      </trkpt>
      <trkpt lat="44.78384" lon="0.81135">
        <ele>199.6</ele>
        <time>2026-05-02T12:23:21.000Z</time>
      </trkpt>
      <trkpt lat="44.78385" lon="0.81134">
        <ele>199.4</ele>
        <time>2026-05-02T12:23:22.000Z</time>
      </trkpt>
      <trkpt lat="44.78386" lon="0.81132">
        <ele>198.9</ele>
        <time>2026-05-02T12:23:23.000Z</time>
      </trkpt>
      <trkpt lat="44.78388" lon="0.81131">
        <ele>198.2</ele>
        <time>2026-05-02T12:23:24.000Z</time>
      </trkpt>
      <trkpt lat="44.7839" lon="0.8113">
        <ele>197.8</ele>
        <time>2026-05-02T12:23:25.000Z</time>
      </trkpt>
      <trkpt lat="44.78391" lon="0.81129">
        <ele>198.7</ele>
        <time>2026-05-02T12:23:26.000Z</time>
      </trkpt>
      <trkpt lat="44.78393" lon="0.81128">
        <ele>199</ele>
        <time>2026-05-02T12:23:27.000Z</time>
      </trkpt>
      <trkpt lat="44.78394" lon="0.81128">
        <ele>198.1</ele>
        <time>2026-05-02T12:23:28.000Z</time>
      </trkpt>
      <trkpt lat="44.78394" lon="0.81128">
        <ele>198.2</ele>
        <time>2026-05-02T12:23:29.000Z</time>
      </trkpt>
      <trkpt lat="44.78395" lon="0.81127">
        <ele>198.2</ele>
        <time>2026-05-02T12:23:30.000Z</time>
      </trkpt>
      <trkpt lat="44.78397" lon="0.81127">
        <ele>198</ele>
        <time>2026-05-02T12:23:31.000Z</time>
      </trkpt>
      <trkpt lat="44.78398" lon="0.81126">
        <ele>199.2</ele>
        <time>2026-05-02T12:23:32.000Z</time>
      </trkpt>
      <trkpt lat="44.78399" lon="0.81125">
        <ele>198</ele>
        <time>2026-05-02T12:23:33.000Z</time>
      </trkpt>
      <trkpt lat="44.784" lon="0.81124">
        <ele>199.4</ele>
        <time>2026-05-02T12:23:34.000Z</time>
      </trkpt>
      <trkpt lat="44.78401" lon="0.81123">
        <ele>199.3</ele>
        <time>2026-05-02T12:23:35.000Z</time>
      </trkpt>
      <trkpt lat="44.78402" lon="0.81123">
        <ele>199.4</ele>
        <time>2026-05-02T12:23:36.000Z</time>
      </trkpt>
      <trkpt lat="44.78404" lon="0.81122">
        <ele>199.1</ele>
        <time>2026-05-02T12:23:37.000Z</time>
      </trkpt>
      <trkpt lat="44.78405" lon="0.81121">
        <ele>198</ele>
        <time>2026-05-02T12:23:38.000Z</time>
      </trkpt>
      <trkpt lat="44.78407" lon="0.8112">
        <ele>197.2</ele>
        <time>2026-05-02T12:23:39.000Z</time>
      </trkpt>
      <trkpt lat="44.78409" lon="0.81119">
        <ele>197.3</ele>
        <time>2026-05-02T12:23:40.000Z</time>
      </trkpt>
      <trkpt lat="44.7841" lon="0.81117">
        <ele>196.9</ele>
        <time>2026-05-02T12:23:41.000Z</time>
      </trkpt>
      <trkpt lat="44.78411" lon="0.81116">
        <ele>196.5</ele>
        <time>2026-05-02T12:23:42.000Z</time>
      </trkpt>
      <trkpt lat="44.78412" lon="0.81114">
        <ele>196.8</ele>
        <time>2026-05-02T12:23:43.000Z</time>
      </trkpt>
      <trkpt lat="44.78414" lon="0.81112">
        <ele>196.8</ele>
        <time>2026-05-02T12:23:44.000Z</time>
      </trkpt>
      <trkpt lat="44.78415" lon="0.81111">
        <ele>195.9</ele>
        <time>2026-05-02T12:23:45.000Z</time>
      </trkpt>
      <trkpt lat="44.78416" lon="0.81109">
        <ele>195.2</ele>
        <time>2026-05-02T12:23:46.000Z</time>
      </trkpt>
      <trkpt lat="44.78418" lon="0.81108">
        <ele>194.7</ele>
        <time>2026-05-02T12:23:47.000Z</time>
      </trkpt>
      <trkpt lat="44.78419" lon="0.81106">
        <ele>194.2</ele>
        <time>2026-05-02T12:23:48.000Z</time>
      </trkpt>
      <trkpt lat="44.7842" lon="0.81105">
        <ele>194.3</ele>
        <time>2026-05-02T12:23:49.000Z</time>
      </trkpt>
      <trkpt lat="44.78422" lon="0.81103">
        <ele>194.2</ele>
        <time>2026-05-02T12:23:50.000Z</time>
      </trkpt>
      <trkpt lat="44.78423" lon="0.81101">
        <ele>194.6</ele>
        <time>2026-05-02T12:23:51.000Z</time>
      </trkpt>
      <trkpt lat="44.78425" lon="0.811">
        <ele>193.8</ele>
        <time>2026-05-02T12:23:52.000Z</time>
      </trkpt>
      <trkpt lat="44.78426" lon="0.81099">
        <ele>194.1</ele>
        <time>2026-05-02T12:23:53.000Z</time>
      </trkpt>
      <trkpt lat="44.78427" lon="0.81097">
        <ele>193.5</ele>
        <time>2026-05-02T12:23:54.000Z</time>
      </trkpt>
      <trkpt lat="44.78428" lon="0.81095">
        <ele>193.1</ele>
        <time>2026-05-02T12:23:55.000Z</time>
      </trkpt>
      <trkpt lat="44.7843" lon="0.81094">
        <ele>192.6</ele>
        <time>2026-05-02T12:23:56.000Z</time>
      </trkpt>
      <trkpt lat="44.78431" lon="0.81092">
        <ele>192.2</ele>
        <time>2026-05-02T12:23:57.000Z</time>
      </trkpt>
      <trkpt lat="44.78432" lon="0.8109">
        <ele>192.1</ele>
        <time>2026-05-02T12:23:58.000Z</time>
      </trkpt>
      <trkpt lat="44.78434" lon="0.81088">
        <ele>191.8</ele>
        <time>2026-05-02T12:23:59.000Z</time>
      </trkpt>
      <trkpt lat="44.78435" lon="0.81087">
        <ele>191.5</ele>
        <time>2026-05-02T12:24:00.000Z</time>
      </trkpt>
      <trkpt lat="44.78437" lon="0.81085">
        <ele>191.1</ele>
        <time>2026-05-02T12:24:01.000Z</time>
      </trkpt>
      <trkpt lat="44.78438" lon="0.81083">
        <ele>191.4</ele>
        <time>2026-05-02T12:24:02.000Z</time>
      </trkpt>
      <trkpt lat="44.78439" lon="0.81082">
        <ele>191.8</ele>
        <time>2026-05-02T12:24:03.000Z</time>
      </trkpt>
      <trkpt lat="44.78441" lon="0.81082">
        <ele>191.6</ele>
        <time>2026-05-02T12:24:04.000Z</time>
      </trkpt>
      <trkpt lat="44.78443" lon="0.8108">
        <ele>191.2</ele>
        <time>2026-05-02T12:24:05.000Z</time>
      </trkpt>
      <trkpt lat="44.78444" lon="0.81079">
        <ele>191.1</ele>
        <time>2026-05-02T12:24:06.000Z</time>
      </trkpt>
      <trkpt lat="44.78445" lon="0.81077">
        <ele>190.6</ele>
        <time>2026-05-02T12:24:07.000Z</time>
      </trkpt>
      <trkpt lat="44.78447" lon="0.81076">
        <ele>190.6</ele>
        <time>2026-05-02T12:24:08.000Z</time>
      </trkpt>
      <trkpt lat="44.78448" lon="0.81074">
        <ele>190.5</ele>
        <time>2026-05-02T12:24:09.000Z</time>
      </trkpt>
      <trkpt lat="44.78449" lon="0.81072">
        <ele>190.7</ele>
        <time>2026-05-02T12:24:10.000Z</time>
      </trkpt>
      <trkpt lat="44.78451" lon="0.8107">
        <ele>190.8</ele>
        <time>2026-05-02T12:24:11.000Z</time>
      </trkpt>
      <trkpt lat="44.78452" lon="0.81069">
        <ele>190.9</ele>
        <time>2026-05-02T12:24:12.000Z</time>
      </trkpt>
      <trkpt lat="44.78453" lon="0.81067">
        <ele>191.1</ele>
        <time>2026-05-02T12:24:13.000Z</time>
      </trkpt>
      <trkpt lat="44.78454" lon="0.81065">
        <ele>191</ele>
        <time>2026-05-02T12:24:14.000Z</time>
      </trkpt>
      <trkpt lat="44.78456" lon="0.81064">
        <ele>191</ele>
        <time>2026-05-02T12:24:15.000Z</time>
      </trkpt>
      <trkpt lat="44.78457" lon="0.81062">
        <ele>190.9</ele>
        <time>2026-05-02T12:24:16.000Z</time>
      </trkpt>
      <trkpt lat="44.78458" lon="0.8106">
        <ele>190.9</ele>
        <time>2026-05-02T12:24:17.000Z</time>
      </trkpt>
      <trkpt lat="44.78459" lon="0.81058">
        <ele>190.9</ele>
        <time>2026-05-02T12:24:18.000Z</time>
      </trkpt>
      <trkpt lat="44.7846" lon="0.81056">
        <ele>190.8</ele>
        <time>2026-05-02T12:24:19.000Z</time>
      </trkpt>
      <trkpt lat="44.78461" lon="0.81054">
        <ele>190.6</ele>
        <time>2026-05-02T12:24:20.000Z</time>
      </trkpt>
      <trkpt lat="44.78461" lon="0.81052">
        <ele>190.1</ele>
        <time>2026-05-02T12:24:21.000Z</time>
      </trkpt>
      <trkpt lat="44.78462" lon="0.8105">
        <ele>190.2</ele>
        <time>2026-05-02T12:24:22.000Z</time>
      </trkpt>
      <trkpt lat="44.78463" lon="0.81048">
        <ele>189</ele>
        <time>2026-05-02T12:24:23.000Z</time>
      </trkpt>
      <trkpt lat="44.78463" lon="0.81046">
        <ele>189.1</ele>
        <time>2026-05-02T12:24:24.000Z</time>
      </trkpt>
      <trkpt lat="44.78463" lon="0.81044">
        <ele>188.8</ele>
        <time>2026-05-02T12:24:25.000Z</time>
      </trkpt>
      <trkpt lat="44.78463" lon="0.81041">
        <ele>189.1</ele>
        <time>2026-05-02T12:24:26.000Z</time>
      </trkpt>
      <trkpt lat="44.78463" lon="0.81039">
        <ele>188.7</ele>
        <time>2026-05-02T12:24:27.000Z</time>
      </trkpt>
      <trkpt lat="44.78464" lon="0.81036">
        <ele>188.8</ele>
        <time>2026-05-02T12:24:28.000Z</time>
      </trkpt>
      <trkpt lat="44.78464" lon="0.81034">
        <ele>189.2</ele>
        <time>2026-05-02T12:24:29.000Z</time>
      </trkpt>
      <trkpt lat="44.78465" lon="0.81032">
        <ele>189.1</ele>
        <time>2026-05-02T12:24:30.000Z</time>
      </trkpt>
      <trkpt lat="44.78466" lon="0.81029">
        <ele>189.4</ele>
        <time>2026-05-02T12:24:31.000Z</time>
      </trkpt>
      <trkpt lat="44.78468" lon="0.81027">
        <ele>189.7</ele>
        <time>2026-05-02T12:24:32.000Z</time>
      </trkpt>
      <trkpt lat="44.78469" lon="0.81025">
        <ele>190.1</ele>
        <time>2026-05-02T12:24:33.000Z</time>
      </trkpt>
      <trkpt lat="44.7847" lon="0.81023">
        <ele>190.2</ele>
        <time>2026-05-02T12:24:34.000Z</time>
      </trkpt>
      <trkpt lat="44.78472" lon="0.81022">
        <ele>190.1</ele>
        <time>2026-05-02T12:24:35.000Z</time>
      </trkpt>
      <trkpt lat="44.78474" lon="0.8102">
        <ele>190.6</ele>
        <time>2026-05-02T12:24:36.000Z</time>
      </trkpt>
      <trkpt lat="44.78475" lon="0.81018">
        <ele>190.6</ele>
        <time>2026-05-02T12:24:37.000Z</time>
      </trkpt>
      <trkpt lat="44.78477" lon="0.81017">
        <ele>190.8</ele>
        <time>2026-05-02T12:24:38.000Z</time>
      </trkpt>
      <trkpt lat="44.78479" lon="0.81014">
        <ele>191.5</ele>
        <time>2026-05-02T12:24:39.000Z</time>
      </trkpt>
      <trkpt lat="44.78481" lon="0.81012">
        <ele>191.5</ele>
        <time>2026-05-02T12:24:40.000Z</time>
      </trkpt>
      <trkpt lat="44.78483" lon="0.81011">
        <ele>192.3</ele>
        <time>2026-05-02T12:24:41.000Z</time>
      </trkpt>
      <trkpt lat="44.78485" lon="0.8101">
        <ele>192.4</ele>
        <time>2026-05-02T12:24:42.000Z</time>
      </trkpt>
      <trkpt lat="44.78487" lon="0.81009">
        <ele>191.9</ele>
        <time>2026-05-02T12:24:43.000Z</time>
      </trkpt>
      <trkpt lat="44.78489" lon="0.81008">
        <ele>192</ele>
        <time>2026-05-02T12:24:44.000Z</time>
      </trkpt>
      <trkpt lat="44.78491" lon="0.81006">
        <ele>192</ele>
        <time>2026-05-02T12:24:45.000Z</time>
      </trkpt>
      <trkpt lat="44.78492" lon="0.81005">
        <ele>191.8</ele>
        <time>2026-05-02T12:24:46.000Z</time>
      </trkpt>
      <trkpt lat="44.78494" lon="0.81004">
        <ele>191.9</ele>
        <time>2026-05-02T12:24:47.000Z</time>
      </trkpt>
      <trkpt lat="44.78495" lon="0.81002">
        <ele>191.4</ele>
        <time>2026-05-02T12:24:48.000Z</time>
      </trkpt>
      <trkpt lat="44.78497" lon="0.81001">
        <ele>192</ele>
        <time>2026-05-02T12:24:49.000Z</time>
      </trkpt>
      <trkpt lat="44.78498" lon="0.80999">
        <ele>192.5</ele>
        <time>2026-05-02T12:24:50.000Z</time>
      </trkpt>
      <trkpt lat="44.785" lon="0.80997">
        <ele>192.7</ele>
        <time>2026-05-02T12:24:51.000Z</time>
      </trkpt>
      <trkpt lat="44.78501" lon="0.80995">
        <ele>192.6</ele>
        <time>2026-05-02T12:24:52.000Z</time>
      </trkpt>
      <trkpt lat="44.78503" lon="0.80994">
        <ele>192.9</ele>
        <time>2026-05-02T12:24:53.000Z</time>
      </trkpt>
      <trkpt lat="44.78504" lon="0.80993">
        <ele>192.5</ele>
        <time>2026-05-02T12:24:54.000Z</time>
      </trkpt>
      <trkpt lat="44.78505" lon="0.80992">
        <ele>192.6</ele>
        <time>2026-05-02T12:24:55.000Z</time>
      </trkpt>
      <trkpt lat="44.78507" lon="0.80991">
        <ele>192.3</ele>
        <time>2026-05-02T12:24:56.000Z</time>
      </trkpt>
      <trkpt lat="44.78508" lon="0.8099">
        <ele>192.5</ele>
        <time>2026-05-02T12:24:57.000Z</time>
      </trkpt>
      <trkpt lat="44.78509" lon="0.80989">
        <ele>192.2</ele>
        <time>2026-05-02T12:24:58.000Z</time>
      </trkpt>
      <trkpt lat="44.7851" lon="0.80988">
        <ele>192.3</ele>
        <time>2026-05-02T12:24:59.000Z</time>
      </trkpt>
      <trkpt lat="44.78512" lon="0.80988">
        <ele>191.9</ele>
        <time>2026-05-02T12:25:00.000Z</time>
      </trkpt>
      <trkpt lat="44.78513" lon="0.80987">
        <ele>192</ele>
        <time>2026-05-02T12:25:01.000Z</time>
      </trkpt>
      <trkpt lat="44.78514" lon="0.80986">
        <ele>192</ele>
        <time>2026-05-02T12:25:02.000Z</time>
      </trkpt>
      <trkpt lat="44.78516" lon="0.80986">
        <ele>192.2</ele>
        <time>2026-05-02T12:25:03.000Z</time>
      </trkpt>
      <trkpt lat="44.78517" lon="0.80985">
        <ele>191.9</ele>
        <time>2026-05-02T12:25:04.000Z</time>
      </trkpt>
      <trkpt lat="44.78518" lon="0.80984">
        <ele>192</ele>
        <time>2026-05-02T12:25:05.000Z</time>
      </trkpt>
      <trkpt lat="44.7852" lon="0.80983">
        <ele>191.8</ele>
        <time>2026-05-02T12:25:06.000Z</time>
      </trkpt>
      <trkpt lat="44.78521" lon="0.80982">
        <ele>191.7</ele>
        <time>2026-05-02T12:25:07.000Z</time>
      </trkpt>
      <trkpt lat="44.78523" lon="0.80981">
        <ele>191.9</ele>
        <time>2026-05-02T12:25:08.000Z</time>
      </trkpt>
      <trkpt lat="44.78524" lon="0.80979">
        <ele>191.8</ele>
        <time>2026-05-02T12:25:09.000Z</time>
      </trkpt>
      <trkpt lat="44.78526" lon="0.80978">
        <ele>191.7</ele>
        <time>2026-05-02T12:25:10.000Z</time>
      </trkpt>
      <trkpt lat="44.78527" lon="0.80977">
        <ele>191.9</ele>
        <time>2026-05-02T12:25:11.000Z</time>
      </trkpt>
      <trkpt lat="44.78528" lon="0.80975">
        <ele>192</ele>
        <time>2026-05-02T12:25:12.000Z</time>
      </trkpt>
      <trkpt lat="44.7853" lon="0.80974">
        <ele>191.8</ele>
        <time>2026-05-02T12:25:13.000Z</time>
      </trkpt>
      <trkpt lat="44.78531" lon="0.80973">
        <ele>191.7</ele>
        <time>2026-05-02T12:25:14.000Z</time>
      </trkpt>
      <trkpt lat="44.78532" lon="0.80972">
        <ele>191.3</ele>
        <time>2026-05-02T12:25:15.000Z</time>
      </trkpt>
      <trkpt lat="44.78533" lon="0.8097">
        <ele>190.9</ele>
        <time>2026-05-02T12:25:16.000Z</time>
      </trkpt>
      <trkpt lat="44.78534" lon="0.80969">
        <ele>191</ele>
        <time>2026-05-02T12:25:17.000Z</time>
      </trkpt>
      <trkpt lat="44.78536" lon="0.80968">
        <ele>191.8</ele>
        <time>2026-05-02T12:25:18.000Z</time>
      </trkpt>
      <trkpt lat="44.78537" lon="0.80967">
        <ele>191.9</ele>
        <time>2026-05-02T12:25:19.000Z</time>
      </trkpt>
      <trkpt lat="44.78539" lon="0.80967">
        <ele>190.9</ele>
        <time>2026-05-02T12:25:20.000Z</time>
      </trkpt>
      <trkpt lat="44.7854" lon="0.80966">
        <ele>190.7</ele>
        <time>2026-05-02T12:25:21.000Z</time>
      </trkpt>
      <trkpt lat="44.78542" lon="0.80965">
        <ele>190.5</ele>
        <time>2026-05-02T12:25:22.000Z</time>
      </trkpt>
      <trkpt lat="44.78544" lon="0.80965">
        <ele>190.9</ele>
        <time>2026-05-02T12:25:23.000Z</time>
      </trkpt>
      <trkpt lat="44.78545" lon="0.80964">
        <ele>190.1</ele>
        <time>2026-05-02T12:25:24.000Z</time>
      </trkpt>
      <trkpt lat="44.78547" lon="0.80963">
        <ele>189.8</ele>
        <time>2026-05-02T12:25:25.000Z</time>
      </trkpt>
      <trkpt lat="44.78548" lon="0.80962">
        <ele>189.6</ele>
        <time>2026-05-02T12:25:26.000Z</time>
      </trkpt>
      <trkpt lat="44.7855" lon="0.8096">
        <ele>189.9</ele>
        <time>2026-05-02T12:25:27.000Z</time>
      </trkpt>
      <trkpt lat="44.78551" lon="0.80958">
        <ele>190</ele>
        <time>2026-05-02T12:25:28.000Z</time>
      </trkpt>
      <trkpt lat="44.78552" lon="0.80957">
        <ele>189.8</ele>
        <time>2026-05-02T12:25:29.000Z</time>
      </trkpt>
      <trkpt lat="44.78553" lon="0.80955">
        <ele>189.5</ele>
        <time>2026-05-02T12:25:30.000Z</time>
      </trkpt>
      <trkpt lat="44.78553" lon="0.80953">
        <ele>189.4</ele>
        <time>2026-05-02T12:25:31.000Z</time>
      </trkpt>
      <trkpt lat="44.78554" lon="0.80951">
        <ele>189.8</ele>
        <time>2026-05-02T12:25:32.000Z</time>
      </trkpt>
      <trkpt lat="44.78555" lon="0.80949">
        <ele>190</ele>
        <time>2026-05-02T12:25:33.000Z</time>
      </trkpt>
      <trkpt lat="44.78556" lon="0.80948">
        <ele>189.7</ele>
        <time>2026-05-02T12:25:34.000Z</time>
      </trkpt>
      <trkpt lat="44.78557" lon="0.80945">
        <ele>189.3</ele>
        <time>2026-05-02T12:25:35.000Z</time>
      </trkpt>
      <trkpt lat="44.78558" lon="0.80943">
        <ele>189.2</ele>
        <time>2026-05-02T12:25:36.000Z</time>
      </trkpt>
      <trkpt lat="44.78559" lon="0.80941">
        <ele>188.5</ele>
        <time>2026-05-02T12:25:37.000Z</time>
      </trkpt>
      <trkpt lat="44.78561" lon="0.8094">
        <ele>188.2</ele>
        <time>2026-05-02T12:25:38.000Z</time>
      </trkpt>
      <trkpt lat="44.78562" lon="0.80938">
        <ele>188.4</ele>
        <time>2026-05-02T12:25:39.000Z</time>
      </trkpt>
      <trkpt lat="44.78564" lon="0.80936">
        <ele>188.7</ele>
        <time>2026-05-02T12:25:40.000Z</time>
      </trkpt>
      <trkpt lat="44.78565" lon="0.80934">
        <ele>188.5</ele>
        <time>2026-05-02T12:25:41.000Z</time>
      </trkpt>
      <trkpt lat="44.78567" lon="0.80932">
        <ele>188.1</ele>
        <time>2026-05-02T12:25:42.000Z</time>
      </trkpt>
      <trkpt lat="44.78568" lon="0.8093">
        <ele>187.7</ele>
        <time>2026-05-02T12:25:43.000Z</time>
      </trkpt>
      <trkpt lat="44.78569" lon="0.80928">
        <ele>187.7</ele>
        <time>2026-05-02T12:25:44.000Z</time>
      </trkpt>
      <trkpt lat="44.7857" lon="0.80926">
        <ele>187.6</ele>
        <time>2026-05-02T12:25:45.000Z</time>
      </trkpt>
      <trkpt lat="44.78572" lon="0.80924">
        <ele>186.9</ele>
        <time>2026-05-02T12:25:46.000Z</time>
      </trkpt>
      <trkpt lat="44.78572" lon="0.80922">
        <ele>186.9</ele>
        <time>2026-05-02T12:25:47.000Z</time>
      </trkpt>
      <trkpt lat="44.78573" lon="0.80921">
        <ele>187</ele>
        <time>2026-05-02T12:25:48.000Z</time>
      </trkpt>
      <trkpt lat="44.78574" lon="0.80918">
        <ele>187.2</ele>
        <time>2026-05-02T12:25:49.000Z</time>
      </trkpt>
      <trkpt lat="44.78575" lon="0.80916">
        <ele>186.6</ele>
        <time>2026-05-02T12:25:50.000Z</time>
      </trkpt>
      <trkpt lat="44.78577" lon="0.80914">
        <ele>186.3</ele>
        <time>2026-05-02T12:25:51.000Z</time>
      </trkpt>
      <trkpt lat="44.78578" lon="0.80912">
        <ele>186</ele>
        <time>2026-05-02T12:25:52.000Z</time>
      </trkpt>
      <trkpt lat="44.78579" lon="0.80911">
        <ele>186.5</ele>
        <time>2026-05-02T12:25:53.000Z</time>
      </trkpt>
      <trkpt lat="44.7858" lon="0.80909">
        <ele>186.6</ele>
        <time>2026-05-02T12:25:54.000Z</time>
      </trkpt>
      <trkpt lat="44.78582" lon="0.80907">
        <ele>186.5</ele>
        <time>2026-05-02T12:25:55.000Z</time>
      </trkpt>
      <trkpt lat="44.78583" lon="0.80905">
        <ele>186.3</ele>
        <time>2026-05-02T12:25:56.000Z</time>
      </trkpt>
      <trkpt lat="44.78584" lon="0.80903">
        <ele>186.8</ele>
        <time>2026-05-02T12:25:57.000Z</time>
      </trkpt>
      <trkpt lat="44.78585" lon="0.80901">
        <ele>186.8</ele>
        <time>2026-05-02T12:25:58.000Z</time>
      </trkpt>
      <trkpt lat="44.78586" lon="0.809">
        <ele>186.8</ele>
        <time>2026-05-02T12:25:59.000Z</time>
      </trkpt>
      <trkpt lat="44.78588" lon="0.80898">
        <ele>186.6</ele>
        <time>2026-05-02T12:26:00.000Z</time>
      </trkpt>
      <trkpt lat="44.78589" lon="0.80896">
        <ele>186.1</ele>
        <time>2026-05-02T12:26:01.000Z</time>
      </trkpt>
      <trkpt lat="44.7859" lon="0.80894">
        <ele>186.7</ele>
        <time>2026-05-02T12:26:02.000Z</time>
      </trkpt>
      <trkpt lat="44.78591" lon="0.80893">
        <ele>186.2</ele>
        <time>2026-05-02T12:26:03.000Z</time>
      </trkpt>
      <trkpt lat="44.78593" lon="0.80891">
        <ele>185.8</ele>
        <time>2026-05-02T12:26:04.000Z</time>
      </trkpt>
      <trkpt lat="44.78594" lon="0.8089">
        <ele>185.5</ele>
        <time>2026-05-02T12:26:05.000Z</time>
      </trkpt>
      <trkpt lat="44.78596" lon="0.80888">
        <ele>185.4</ele>
        <time>2026-05-02T12:26:06.000Z</time>
      </trkpt>
      <trkpt lat="44.78597" lon="0.80887">
        <ele>185.1</ele>
        <time>2026-05-02T12:26:07.000Z</time>
      </trkpt>
      <trkpt lat="44.78598" lon="0.80886">
        <ele>185.2</ele>
        <time>2026-05-02T12:26:08.000Z</time>
      </trkpt>
      <trkpt lat="44.786" lon="0.80885">
        <ele>184.9</ele>
        <time>2026-05-02T12:26:09.000Z</time>
      </trkpt>
      <trkpt lat="44.78601" lon="0.80884">
        <ele>184.3</ele>
        <time>2026-05-02T12:26:10.000Z</time>
      </trkpt>
      <trkpt lat="44.78603" lon="0.80883">
        <ele>183.7</ele>
        <time>2026-05-02T12:26:11.000Z</time>
      </trkpt>
      <trkpt lat="44.78604" lon="0.80882">
        <ele>183.4</ele>
        <time>2026-05-02T12:26:12.000Z</time>
      </trkpt>
      <trkpt lat="44.78605" lon="0.8088">
        <ele>183.2</ele>
        <time>2026-05-02T12:26:13.000Z</time>
      </trkpt>
      <trkpt lat="44.78605" lon="0.80879">
        <ele>183.1</ele>
        <time>2026-05-02T12:26:14.000Z</time>
      </trkpt>
      <trkpt lat="44.78605" lon="0.80875">
        <ele>182</ele>
        <time>2026-05-02T12:26:15.000Z</time>
      </trkpt>
      <trkpt lat="44.78605" lon="0.80873">
        <ele>180.4</ele>
        <time>2026-05-02T12:26:16.000Z</time>
      </trkpt>
      <trkpt lat="44.78605" lon="0.80873">
        <ele>180.8</ele>
        <time>2026-05-02T12:26:17.000Z</time>
      </trkpt>
      <trkpt lat="44.78606" lon="0.80871">
        <ele>181.2</ele>
        <time>2026-05-02T12:26:18.000Z</time>
      </trkpt>
      <trkpt lat="44.78607" lon="0.8087">
        <ele>181.4</ele>
        <time>2026-05-02T12:26:19.000Z</time>
      </trkpt>
      <trkpt lat="44.78609" lon="0.80868">
        <ele>181</ele>
        <time>2026-05-02T12:26:20.000Z</time>
      </trkpt>
      <trkpt lat="44.7861" lon="0.80867">
        <ele>180.7</ele>
        <time>2026-05-02T12:26:21.000Z</time>
      </trkpt>
      <trkpt lat="44.78611" lon="0.80865">
        <ele>180.9</ele>
        <time>2026-05-02T12:26:22.000Z</time>
      </trkpt>
      <trkpt lat="44.78612" lon="0.80864">
        <ele>181</ele>
        <time>2026-05-02T12:26:23.000Z</time>
      </trkpt>
      <trkpt lat="44.78614" lon="0.80862">
        <ele>181.5</ele>
        <time>2026-05-02T12:26:24.000Z</time>
      </trkpt>
      <trkpt lat="44.78615" lon="0.8086">
        <ele>181.7</ele>
        <time>2026-05-02T12:26:25.000Z</time>
      </trkpt>
      <trkpt lat="44.78616" lon="0.80858">
        <ele>181.7</ele>
        <time>2026-05-02T12:26:26.000Z</time>
      </trkpt>
      <trkpt lat="44.78617" lon="0.80857">
        <ele>181.8</ele>
        <time>2026-05-02T12:26:27.000Z</time>
      </trkpt>
      <trkpt lat="44.78618" lon="0.80855">
        <ele>182.1</ele>
        <time>2026-05-02T12:26:28.000Z</time>
      </trkpt>
      <trkpt lat="44.78619" lon="0.80853">
        <ele>182.3</ele>
        <time>2026-05-02T12:26:29.000Z</time>
      </trkpt>
      <trkpt lat="44.7862" lon="0.80851">
        <ele>182.2</ele>
        <time>2026-05-02T12:26:30.000Z</time>
      </trkpt>
      <trkpt lat="44.78621" lon="0.8085">
        <ele>182</ele>
        <time>2026-05-02T12:26:31.000Z</time>
      </trkpt>
      <trkpt lat="44.78622" lon="0.80848">
        <ele>181.8</ele>
        <time>2026-05-02T12:26:32.000Z</time>
      </trkpt>
      <trkpt lat="44.78623" lon="0.80846">
        <ele>182.1</ele>
        <time>2026-05-02T12:26:33.000Z</time>
      </trkpt>
      <trkpt lat="44.78625" lon="0.80844">
        <ele>181.9</ele>
        <time>2026-05-02T12:26:34.000Z</time>
      </trkpt>
      <trkpt lat="44.78626" lon="0.80843">
        <ele>181.8</ele>
        <time>2026-05-02T12:26:35.000Z</time>
      </trkpt>
      <trkpt lat="44.78627" lon="0.80841">
        <ele>181.8</ele>
        <time>2026-05-02T12:26:36.000Z</time>
      </trkpt>
      <trkpt lat="44.78628" lon="0.8084">
        <ele>181.9</ele>
        <time>2026-05-02T12:26:37.000Z</time>
      </trkpt>
      <trkpt lat="44.7863" lon="0.80838">
        <ele>182</ele>
        <time>2026-05-02T12:26:38.000Z</time>
      </trkpt>
      <trkpt lat="44.78631" lon="0.80837">
        <ele>181.9</ele>
        <time>2026-05-02T12:26:39.000Z</time>
      </trkpt>
      <trkpt lat="44.78632" lon="0.80835">
        <ele>182.1</ele>
        <time>2026-05-02T12:26:40.000Z</time>
      </trkpt>
      <trkpt lat="44.78633" lon="0.80833">
        <ele>182.1</ele>
        <time>2026-05-02T12:26:41.000Z</time>
      </trkpt>
      <trkpt lat="44.78634" lon="0.80832">
        <ele>182</ele>
        <time>2026-05-02T12:26:42.000Z</time>
      </trkpt>
      <trkpt lat="44.78635" lon="0.8083">
        <ele>181.4</ele>
        <time>2026-05-02T12:26:43.000Z</time>
      </trkpt>
      <trkpt lat="44.78637" lon="0.80829">
        <ele>181.4</ele>
        <time>2026-05-02T12:26:44.000Z</time>
      </trkpt>
      <trkpt lat="44.78638" lon="0.80827">
        <ele>181.6</ele>
        <time>2026-05-02T12:26:45.000Z</time>
      </trkpt>
      <trkpt lat="44.78639" lon="0.80825">
        <ele>181.5</ele>
        <time>2026-05-02T12:26:46.000Z</time>
      </trkpt>
      <trkpt lat="44.7864" lon="0.80823">
        <ele>181.3</ele>
        <time>2026-05-02T12:26:47.000Z</time>
      </trkpt>
      <trkpt lat="44.78641" lon="0.80822">
        <ele>181.4</ele>
        <time>2026-05-02T12:26:48.000Z</time>
      </trkpt>
      <trkpt lat="44.78642" lon="0.8082">
        <ele>180.6</ele>
        <time>2026-05-02T12:26:49.000Z</time>
      </trkpt>
      <trkpt lat="44.78643" lon="0.80819">
        <ele>180.1</ele>
        <time>2026-05-02T12:26:50.000Z</time>
      </trkpt>
      <trkpt lat="44.78644" lon="0.80817">
        <ele>180.3</ele>
        <time>2026-05-02T12:26:51.000Z</time>
      </trkpt>
      <trkpt lat="44.78645" lon="0.80815">
        <ele>180.4</ele>
        <time>2026-05-02T12:26:52.000Z</time>
      </trkpt>
      <trkpt lat="44.78646" lon="0.80814">
        <ele>180.8</ele>
        <time>2026-05-02T12:26:53.000Z</time>
      </trkpt>
      <trkpt lat="44.78647" lon="0.80811">
        <ele>180.5</ele>
        <time>2026-05-02T12:26:54.000Z</time>
      </trkpt>
      <trkpt lat="44.78648" lon="0.80809">
        <ele>180</ele>
        <time>2026-05-02T12:26:55.000Z</time>
      </trkpt>
      <trkpt lat="44.78648" lon="0.80807">
        <ele>179.9</ele>
        <time>2026-05-02T12:26:56.000Z</time>
      </trkpt>
      <trkpt lat="44.78649" lon="0.80806">
        <ele>180.2</ele>
        <time>2026-05-02T12:26:57.000Z</time>
      </trkpt>
      <trkpt lat="44.78649" lon="0.80803">
        <ele>180.2</ele>
        <time>2026-05-02T12:26:58.000Z</time>
      </trkpt>
      <trkpt lat="44.78649" lon="0.80801">
        <ele>180.2</ele>
        <time>2026-05-02T12:26:59.000Z</time>
      </trkpt>
      <trkpt lat="44.78649" lon="0.80799">
        <ele>179.9</ele>
        <time>2026-05-02T12:27:00.000Z</time>
      </trkpt>
      <trkpt lat="44.78649" lon="0.80796">
        <ele>179.8</ele>
        <time>2026-05-02T12:27:01.000Z</time>
      </trkpt>
      <trkpt lat="44.7865" lon="0.80794">
        <ele>179.6</ele>
        <time>2026-05-02T12:27:02.000Z</time>
      </trkpt>
      <trkpt lat="44.7865" lon="0.80791">
        <ele>180</ele>
        <time>2026-05-02T12:27:03.000Z</time>
      </trkpt>
      <trkpt lat="44.78651" lon="0.80789">
        <ele>180.2</ele>
        <time>2026-05-02T12:27:04.000Z</time>
      </trkpt>
      <trkpt lat="44.78652" lon="0.80786">
        <ele>179.8</ele>
        <time>2026-05-02T12:27:05.000Z</time>
      </trkpt>
      <trkpt lat="44.78654" lon="0.80783">
        <ele>179.2</ele>
        <time>2026-05-02T12:27:06.000Z</time>
      </trkpt>
      <trkpt lat="44.78655" lon="0.80779">
        <ele>179.4</ele>
        <time>2026-05-02T12:27:07.000Z</time>
      </trkpt>
      <trkpt lat="44.78656" lon="0.80776">
        <ele>179.4</ele>
        <time>2026-05-02T12:27:08.000Z</time>
      </trkpt>
      <trkpt lat="44.78657" lon="0.80773">
        <ele>179.1</ele>
        <time>2026-05-02T12:27:09.000Z</time>
      </trkpt>
      <trkpt lat="44.78658" lon="0.80771">
        <ele>180.3</ele>
        <time>2026-05-02T12:27:10.000Z</time>
      </trkpt>
      <trkpt lat="44.78658" lon="0.80769">
        <ele>180.3</ele>
        <time>2026-05-02T12:27:11.000Z</time>
      </trkpt>
      <trkpt lat="44.78659" lon="0.80767">
        <ele>180.2</ele>
        <time>2026-05-02T12:27:12.000Z</time>
      </trkpt>
      <trkpt lat="44.7866" lon="0.80765">
        <ele>180.9</ele>
        <time>2026-05-02T12:27:13.000Z</time>
      </trkpt>
      <trkpt lat="44.78661" lon="0.80763">
        <ele>180.1</ele>
        <time>2026-05-02T12:27:14.000Z</time>
      </trkpt>
      <trkpt lat="44.78661" lon="0.80761">
        <ele>180.9</ele>
        <time>2026-05-02T12:27:15.000Z</time>
      </trkpt>
      <trkpt lat="44.78662" lon="0.80759">
        <ele>180.6</ele>
        <time>2026-05-02T12:27:16.000Z</time>
      </trkpt>
      <trkpt lat="44.78663" lon="0.80756">
        <ele>180.5</ele>
        <time>2026-05-02T12:27:17.000Z</time>
      </trkpt>
      <trkpt lat="44.78663" lon="0.80754">
        <ele>180.7</ele>
        <time>2026-05-02T12:27:18.000Z</time>
      </trkpt>
      <trkpt lat="44.78664" lon="0.80751">
        <ele>179.8</ele>
        <time>2026-05-02T12:27:19.000Z</time>
      </trkpt>
      <trkpt lat="44.78665" lon="0.80749">
        <ele>179.3</ele>
        <time>2026-05-02T12:27:20.000Z</time>
      </trkpt>
      <trkpt lat="44.78665" lon="0.80747">
        <ele>178.5</ele>
        <time>2026-05-02T12:27:21.000Z</time>
      </trkpt>
      <trkpt lat="44.78665" lon="0.80746">
        <ele>178.4</ele>
        <time>2026-05-02T12:27:22.000Z</time>
      </trkpt>
      <trkpt lat="44.78666" lon="0.80744">
        <ele>178.7</ele>
        <time>2026-05-02T12:27:23.000Z</time>
      </trkpt>
      <trkpt lat="44.78666" lon="0.80742">
        <ele>178.8</ele>
        <time>2026-05-02T12:27:24.000Z</time>
      </trkpt>
      <trkpt lat="44.78666" lon="0.80741">
        <ele>178</ele>
        <time>2026-05-02T12:27:25.000Z</time>
      </trkpt>
      <trkpt lat="44.78667" lon="0.80739">
        <ele>181</ele>
        <time>2026-05-02T12:27:26.000Z</time>
      </trkpt>
      <trkpt lat="44.78666" lon="0.80738">
        <ele>182</ele>
        <time>2026-05-02T12:27:27.000Z</time>
      </trkpt>
      <trkpt lat="44.78666" lon="0.80736">
        <ele>181.9</ele>
        <time>2026-05-02T12:27:28.000Z</time>
      </trkpt>
      <trkpt lat="44.78667" lon="0.80733">
        <ele>181.8</ele>
        <time>2026-05-02T12:27:29.000Z</time>
      </trkpt>
      <trkpt lat="44.78668" lon="0.80731">
        <ele>181.1</ele>
        <time>2026-05-02T12:27:30.000Z</time>
      </trkpt>
      <trkpt lat="44.78668" lon="0.80729">
        <ele>182.1</ele>
        <time>2026-05-02T12:27:31.000Z</time>
      </trkpt>
      <trkpt lat="44.78669" lon="0.80727">
        <ele>181.5</ele>
        <time>2026-05-02T12:27:32.000Z</time>
      </trkpt>
      <trkpt lat="44.7867" lon="0.80725">
        <ele>181.7</ele>
        <time>2026-05-02T12:27:33.000Z</time>
      </trkpt>
      <trkpt lat="44.78671" lon="0.80723">
        <ele>183.7</ele>
        <time>2026-05-02T12:27:34.000Z</time>
      </trkpt>
      <trkpt lat="44.78672" lon="0.80722">
        <ele>185.4</ele>
        <time>2026-05-02T12:27:35.000Z</time>
      </trkpt>
      <trkpt lat="44.78673" lon="0.8072">
        <ele>184.8</ele>
        <time>2026-05-02T12:27:36.000Z</time>
      </trkpt>
      <trkpt lat="44.78674" lon="0.80718">
        <ele>185.1</ele>
        <time>2026-05-02T12:27:37.000Z</time>
      </trkpt>
      <trkpt lat="44.78675" lon="0.80717">
        <ele>185.5</ele>
        <time>2026-05-02T12:27:38.000Z</time>
      </trkpt>
      <trkpt lat="44.78676" lon="0.80716">
        <ele>186.3</ele>
        <time>2026-05-02T12:27:39.000Z</time>
      </trkpt>
      <trkpt lat="44.78677" lon="0.80714">
        <ele>186.9</ele>
        <time>2026-05-02T12:27:40.000Z</time>
      </trkpt>
      <trkpt lat="44.78678" lon="0.80712">
        <ele>187</ele>
        <time>2026-05-02T12:27:41.000Z</time>
      </trkpt>
      <trkpt lat="44.78679" lon="0.80711">
        <ele>186.7</ele>
        <time>2026-05-02T12:27:42.000Z</time>
      </trkpt>
      <trkpt lat="44.78681" lon="0.80709">
        <ele>187.1</ele>
        <time>2026-05-02T12:27:43.000Z</time>
      </trkpt>
      <trkpt lat="44.78682" lon="0.80708">
        <ele>187.1</ele>
        <time>2026-05-02T12:27:44.000Z</time>
      </trkpt>
      <trkpt lat="44.78684" lon="0.80707">
        <ele>186.5</ele>
        <time>2026-05-02T12:27:45.000Z</time>
      </trkpt>
      <trkpt lat="44.78685" lon="0.80706">
        <ele>186.5</ele>
        <time>2026-05-02T12:27:46.000Z</time>
      </trkpt>
      <trkpt lat="44.78687" lon="0.80705">
        <ele>186.3</ele>
        <time>2026-05-02T12:27:47.000Z</time>
      </trkpt>
      <trkpt lat="44.78688" lon="0.80704">
        <ele>186.2</ele>
        <time>2026-05-02T12:27:48.000Z</time>
      </trkpt>
      <trkpt lat="44.7869" lon="0.80703">
        <ele>186.2</ele>
        <time>2026-05-02T12:27:49.000Z</time>
      </trkpt>
      <trkpt lat="44.78692" lon="0.80702">
        <ele>186</ele>
        <time>2026-05-02T12:27:50.000Z</time>
      </trkpt>
      <trkpt lat="44.78693" lon="0.80701">
        <ele>185.4</ele>
        <time>2026-05-02T12:27:51.000Z</time>
      </trkpt>
      <trkpt lat="44.78695" lon="0.80699">
        <ele>184.9</ele>
        <time>2026-05-02T12:27:52.000Z</time>
      </trkpt>
      <trkpt lat="44.78696" lon="0.80698">
        <ele>184.9</ele>
        <time>2026-05-02T12:27:53.000Z</time>
      </trkpt>
      <trkpt lat="44.78698" lon="0.80697">
        <ele>184.3</ele>
        <time>2026-05-02T12:27:54.000Z</time>
      </trkpt>
      <trkpt lat="44.78699" lon="0.80697">
        <ele>183.9</ele>
        <time>2026-05-02T12:27:55.000Z</time>
      </trkpt>
      <trkpt lat="44.78701" lon="0.80696">
        <ele>183.4</ele>
        <time>2026-05-02T12:27:56.000Z</time>
      </trkpt>
      <trkpt lat="44.78702" lon="0.80695">
        <ele>183.2</ele>
        <time>2026-05-02T12:27:57.000Z</time>
      </trkpt>
      <trkpt lat="44.78704" lon="0.80694">
        <ele>183.3</ele>
        <time>2026-05-02T12:27:58.000Z</time>
      </trkpt>
      <trkpt lat="44.78705" lon="0.80693">
        <ele>182.8</ele>
        <time>2026-05-02T12:27:59.000Z</time>
      </trkpt>
      <trkpt lat="44.78707" lon="0.80693">
        <ele>183.7</ele>
        <time>2026-05-02T12:28:00.000Z</time>
      </trkpt>
      <trkpt lat="44.78708" lon="0.80692">
        <ele>181.8</ele>
        <time>2026-05-02T12:28:01.000Z</time>
      </trkpt>
      <trkpt lat="44.78711" lon="0.80692">
        <ele>181.1</ele>
        <time>2026-05-02T12:28:02.000Z</time>
      </trkpt>
      <trkpt lat="44.78712" lon="0.80691">
        <ele>181.5</ele>
        <time>2026-05-02T12:28:03.000Z</time>
      </trkpt>
      <trkpt lat="44.78714" lon="0.8069">
        <ele>180.7</ele>
        <time>2026-05-02T12:28:04.000Z</time>
      </trkpt>
      <trkpt lat="44.78715" lon="0.80689">
        <ele>181.2</ele>
        <time>2026-05-02T12:28:05.000Z</time>
      </trkpt>
      <trkpt lat="44.78717" lon="0.80687">
        <ele>180</ele>
        <time>2026-05-02T12:28:06.000Z</time>
      </trkpt>
      <trkpt lat="44.78718" lon="0.80685">
        <ele>179.4</ele>
        <time>2026-05-02T12:28:07.000Z</time>
      </trkpt>
      <trkpt lat="44.78719" lon="0.80683">
        <ele>178.8</ele>
        <time>2026-05-02T12:28:08.000Z</time>
      </trkpt>
      <trkpt lat="44.7872" lon="0.80681">
        <ele>178.6</ele>
        <time>2026-05-02T12:28:09.000Z</time>
      </trkpt>
      <trkpt lat="44.78721" lon="0.80679">
        <ele>179</ele>
        <time>2026-05-02T12:28:10.000Z</time>
      </trkpt>
      <trkpt lat="44.78722" lon="0.80678">
        <ele>179.5</ele>
        <time>2026-05-02T12:28:11.000Z</time>
      </trkpt>
      <trkpt lat="44.78723" lon="0.80676">
        <ele>179.4</ele>
        <time>2026-05-02T12:28:12.000Z</time>
      </trkpt>
      <trkpt lat="44.78724" lon="0.80674">
        <ele>177.8</ele>
        <time>2026-05-02T12:28:13.000Z</time>
      </trkpt>
      <trkpt lat="44.78725" lon="0.80672">
        <ele>177.5</ele>
        <time>2026-05-02T12:28:14.000Z</time>
      </trkpt>
      <trkpt lat="44.78725" lon="0.8067">
        <ele>177.5</ele>
        <time>2026-05-02T12:28:15.000Z</time>
      </trkpt>
      <trkpt lat="44.78726" lon="0.80668">
        <ele>177.2</ele>
        <time>2026-05-02T12:28:16.000Z</time>
      </trkpt>
      <trkpt lat="44.78727" lon="0.80666">
        <ele>177.7</ele>
        <time>2026-05-02T12:28:17.000Z</time>
      </trkpt>
      <trkpt lat="44.78728" lon="0.80664">
        <ele>177.3</ele>
        <time>2026-05-02T12:28:18.000Z</time>
      </trkpt>
      <trkpt lat="44.78729" lon="0.80662">
        <ele>177.8</ele>
        <time>2026-05-02T12:28:19.000Z</time>
      </trkpt>
      <trkpt lat="44.7873" lon="0.8066">
        <ele>177.9</ele>
        <time>2026-05-02T12:28:20.000Z</time>
      </trkpt>
      <trkpt lat="44.78731" lon="0.80658">
        <ele>178.1</ele>
        <time>2026-05-02T12:28:21.000Z</time>
      </trkpt>
      <trkpt lat="44.78731" lon="0.80655">
        <ele>178.5</ele>
        <time>2026-05-02T12:28:22.000Z</time>
      </trkpt>
      <trkpt lat="44.78732" lon="0.80653">
        <ele>176.9</ele>
        <time>2026-05-02T12:28:23.000Z</time>
      </trkpt>
      <trkpt lat="44.78733" lon="0.80652">
        <ele>177.1</ele>
        <time>2026-05-02T12:28:24.000Z</time>
      </trkpt>
      <trkpt lat="44.78732" lon="0.80652">
        <ele>177.8</ele>
        <time>2026-05-02T12:28:25.000Z</time>
      </trkpt>
      <trkpt lat="44.78731" lon="0.80652">
        <ele>177.8</ele>
        <time>2026-05-02T12:28:26.000Z</time>
      </trkpt>
      <trkpt lat="44.78732" lon="0.80652">
        <ele>177.3</ele>
        <time>2026-05-02T12:28:27.000Z</time>
      </trkpt>
      <trkpt lat="44.78734" lon="0.8065">
        <ele>177.2</ele>
        <time>2026-05-02T12:28:28.000Z</time>
      </trkpt>
      <trkpt lat="44.78733" lon="0.80651">
        <ele>177.3</ele>
        <time>2026-05-02T12:28:29.000Z</time>
      </trkpt>
      <trkpt lat="44.78733" lon="0.80651">
        <ele>177.3</ele>
        <time>2026-05-02T12:28:30.000Z</time>
      </trkpt>
      <trkpt lat="44.78734" lon="0.8065">
        <ele>177</ele>
        <time>2026-05-02T12:28:31.000Z</time>
      </trkpt>
      <trkpt lat="44.78733" lon="0.8065">
        <ele>176.6</ele>
        <time>2026-05-02T12:28:32.000Z</time>
      </trkpt>
      <trkpt lat="44.78733" lon="0.80649">
        <ele>176.2</ele>
        <time>2026-05-02T12:28:33.000Z</time>
      </trkpt>
      <trkpt lat="44.78734" lon="0.80648">
        <ele>176.1</ele>
        <time>2026-05-02T12:28:34.000Z</time>
      </trkpt>
      <trkpt lat="44.78734" lon="0.80647">
        <ele>176.5</ele>
        <time>2026-05-02T12:28:35.000Z</time>
      </trkpt>
      <trkpt lat="44.78733" lon="0.80646">
        <ele>175.5</ele>
        <time>2026-05-02T12:28:36.000Z</time>
      </trkpt>
      <trkpt lat="44.78733" lon="0.80646">
        <ele>175.4</ele>
        <time>2026-05-02T12:28:37.000Z</time>
      </trkpt>
      <trkpt lat="44.78733" lon="0.80646">
        <ele>175.4</ele>
        <time>2026-05-02T12:28:38.000Z</time>
      </trkpt>
      <trkpt lat="44.78733" lon="0.80645">
        <ele>174.9</ele>
        <time>2026-05-02T12:28:39.000Z</time>
      </trkpt>
      <trkpt lat="44.78733" lon="0.80645">
        <ele>175.2</ele>
        <time>2026-05-02T12:28:40.000Z</time>
      </trkpt>
      <trkpt lat="44.78733" lon="0.80643">
        <ele>175</ele>
        <time>2026-05-02T12:28:41.000Z</time>
      </trkpt>
      <trkpt lat="44.78734" lon="0.80641">
        <ele>174.4</ele>
        <time>2026-05-02T12:28:42.000Z</time>
      </trkpt>
      <trkpt lat="44.78735" lon="0.80639">
        <ele>172.6</ele>
        <time>2026-05-02T12:28:43.000Z</time>
      </trkpt>
      <trkpt lat="44.78736" lon="0.80638">
        <ele>172.8</ele>
        <time>2026-05-02T12:28:44.000Z</time>
      </trkpt>
      <trkpt lat="44.78737" lon="0.80637">
        <ele>172.5</ele>
        <time>2026-05-02T12:28:45.000Z</time>
      </trkpt>
      <trkpt lat="44.78739" lon="0.80637">
        <ele>172.5</ele>
        <time>2026-05-02T12:28:46.000Z</time>
      </trkpt>
      <trkpt lat="44.7874" lon="0.80638">
        <ele>173.1</ele>
        <time>2026-05-02T12:28:47.000Z</time>
      </trkpt>
      <trkpt lat="44.78742" lon="0.80639">
        <ele>172.4</ele>
        <time>2026-05-02T12:28:48.000Z</time>
      </trkpt>
      <trkpt lat="44.78743" lon="0.80641">
        <ele>172.9</ele>
        <time>2026-05-02T12:28:49.000Z</time>
      </trkpt>
      <trkpt lat="44.78744" lon="0.80643">
        <ele>173.6</ele>
        <time>2026-05-02T12:28:50.000Z</time>
      </trkpt>
      <trkpt lat="44.78745" lon="0.80645">
        <ele>173.5</ele>
        <time>2026-05-02T12:28:51.000Z</time>
      </trkpt>
      <trkpt lat="44.78746" lon="0.80647">
        <ele>173.9</ele>
        <time>2026-05-02T12:28:52.000Z</time>
      </trkpt>
      <trkpt lat="44.78748" lon="0.80649">
        <ele>173.9</ele>
        <time>2026-05-02T12:28:53.000Z</time>
      </trkpt>
      <trkpt lat="44.78749" lon="0.80651">
        <ele>174.1</ele>
        <time>2026-05-02T12:28:54.000Z</time>
      </trkpt>
      <trkpt lat="44.7875" lon="0.80653">
        <ele>174.2</ele>
        <time>2026-05-02T12:28:55.000Z</time>
      </trkpt>
      <trkpt lat="44.78751" lon="0.80654">
        <ele>174.1</ele>
        <time>2026-05-02T12:28:56.000Z</time>
      </trkpt>
      <trkpt lat="44.78751" lon="0.80657">
        <ele>173.5</ele>
        <time>2026-05-02T12:28:57.000Z</time>
      </trkpt>
      <trkpt lat="44.78752" lon="0.80659">
        <ele>173.1</ele>
        <time>2026-05-02T12:28:58.000Z</time>
      </trkpt>
      <trkpt lat="44.78754" lon="0.80661">
        <ele>172.7</ele>
        <time>2026-05-02T12:28:59.000Z</time>
      </trkpt>
      <trkpt lat="44.78755" lon="0.80663">
        <ele>172.4</ele>
        <time>2026-05-02T12:29:00.000Z</time>
      </trkpt>
      <trkpt lat="44.78756" lon="0.80665">
        <ele>171.9</ele>
        <time>2026-05-02T12:29:01.000Z</time>
      </trkpt>
      <trkpt lat="44.78757" lon="0.80667">
        <ele>172.6</ele>
        <time>2026-05-02T12:29:02.000Z</time>
      </trkpt>
      <trkpt lat="44.78759" lon="0.80668">
        <ele>173.2</ele>
        <time>2026-05-02T12:29:03.000Z</time>
      </trkpt>
      <trkpt lat="44.7876" lon="0.8067">
        <ele>173.2</ele>
        <time>2026-05-02T12:29:04.000Z</time>
      </trkpt>
      <trkpt lat="44.78761" lon="0.80671">
        <ele>173.2</ele>
        <time>2026-05-02T12:29:05.000Z</time>
      </trkpt>
      <trkpt lat="44.78762" lon="0.80672">
        <ele>173.2</ele>
        <time>2026-05-02T12:29:06.000Z</time>
      </trkpt>
      <trkpt lat="44.78763" lon="0.80673">
        <ele>173.3</ele>
        <time>2026-05-02T12:29:07.000Z</time>
      </trkpt>
      <trkpt lat="44.78765" lon="0.80674">
        <ele>173.8</ele>
        <time>2026-05-02T12:29:08.000Z</time>
      </trkpt>
      <trkpt lat="44.78766" lon="0.80676">
        <ele>173.4</ele>
        <time>2026-05-02T12:29:09.000Z</time>
      </trkpt>
      <trkpt lat="44.78768" lon="0.80678">
        <ele>173.1</ele>
        <time>2026-05-02T12:29:10.000Z</time>
      </trkpt>
      <trkpt lat="44.78769" lon="0.80679">
        <ele>173</ele>
        <time>2026-05-02T12:29:11.000Z</time>
      </trkpt>
      <trkpt lat="44.78771" lon="0.80681">
        <ele>173</ele>
        <time>2026-05-02T12:29:12.000Z</time>
      </trkpt>
      <trkpt lat="44.78772" lon="0.80682">
        <ele>173.3</ele>
        <time>2026-05-02T12:29:13.000Z</time>
      </trkpt>
      <trkpt lat="44.78774" lon="0.80684">
        <ele>173.4</ele>
        <time>2026-05-02T12:29:14.000Z</time>
      </trkpt>
      <trkpt lat="44.78775" lon="0.80686">
        <ele>172.7</ele>
        <time>2026-05-02T12:29:15.000Z</time>
      </trkpt>
      <trkpt lat="44.78776" lon="0.80688">
        <ele>172.9</ele>
        <time>2026-05-02T12:29:16.000Z</time>
      </trkpt>
      <trkpt lat="44.78778" lon="0.80689">
        <ele>173.1</ele>
        <time>2026-05-02T12:29:17.000Z</time>
      </trkpt>
      <trkpt lat="44.78779" lon="0.80691">
        <ele>173.2</ele>
        <time>2026-05-02T12:29:18.000Z</time>
      </trkpt>
      <trkpt lat="44.78781" lon="0.80692">
        <ele>173.5</ele>
        <time>2026-05-02T12:29:19.000Z</time>
      </trkpt>
      <trkpt lat="44.78782" lon="0.80694">
        <ele>173.7</ele>
        <time>2026-05-02T12:29:20.000Z</time>
      </trkpt>
      <trkpt lat="44.78784" lon="0.80696">
        <ele>173.5</ele>
        <time>2026-05-02T12:29:21.000Z</time>
      </trkpt>
      <trkpt lat="44.78785" lon="0.80698">
        <ele>173.4</ele>
        <time>2026-05-02T12:29:22.000Z</time>
      </trkpt>
      <trkpt lat="44.78786" lon="0.80699">
        <ele>173.3</ele>
        <time>2026-05-02T12:29:23.000Z</time>
      </trkpt>
      <trkpt lat="44.78787" lon="0.80701">
        <ele>173.3</ele>
        <time>2026-05-02T12:29:24.000Z</time>
      </trkpt>
      <trkpt lat="44.78789" lon="0.80703">
        <ele>173</ele>
        <time>2026-05-02T12:29:25.000Z</time>
      </trkpt>
      <trkpt lat="44.7879" lon="0.80705">
        <ele>172.8</ele>
        <time>2026-05-02T12:29:26.000Z</time>
      </trkpt>
      <trkpt lat="44.78791" lon="0.80706">
        <ele>173</ele>
        <time>2026-05-02T12:29:27.000Z</time>
      </trkpt>
      <trkpt lat="44.78792" lon="0.80708">
        <ele>172.6</ele>
        <time>2026-05-02T12:29:28.000Z</time>
      </trkpt>
      <trkpt lat="44.78793" lon="0.8071">
        <ele>172.5</ele>
        <time>2026-05-02T12:29:29.000Z</time>
      </trkpt>
      <trkpt lat="44.78794" lon="0.80711">
        <ele>172.7</ele>
        <time>2026-05-02T12:29:30.000Z</time>
      </trkpt>
      <trkpt lat="44.78795" lon="0.80713">
        <ele>172.6</ele>
        <time>2026-05-02T12:29:31.000Z</time>
      </trkpt>
      <trkpt lat="44.78796" lon="0.80715">
        <ele>172.5</ele>
        <time>2026-05-02T12:29:32.000Z</time>
      </trkpt>
      <trkpt lat="44.78798" lon="0.80718">
        <ele>172.1</ele>
        <time>2026-05-02T12:29:33.000Z</time>
      </trkpt>
      <trkpt lat="44.78799" lon="0.8072">
        <ele>172.1</ele>
        <time>2026-05-02T12:29:34.000Z</time>
      </trkpt>
      <trkpt lat="44.78801" lon="0.80722">
        <ele>172.3</ele>
        <time>2026-05-02T12:29:35.000Z</time>
      </trkpt>
      <trkpt lat="44.78802" lon="0.80723">
        <ele>172.3</ele>
        <time>2026-05-02T12:29:36.000Z</time>
      </trkpt>
      <trkpt lat="44.78803" lon="0.80726">
        <ele>172.1</ele>
        <time>2026-05-02T12:29:37.000Z</time>
      </trkpt>
      <trkpt lat="44.78804" lon="0.80728">
        <ele>171.9</ele>
        <time>2026-05-02T12:29:38.000Z</time>
      </trkpt>
      <trkpt lat="44.78805" lon="0.8073">
        <ele>172</ele>
        <time>2026-05-02T12:29:39.000Z</time>
      </trkpt>
      <trkpt lat="44.78806" lon="0.80732">
        <ele>171.9</ele>
        <time>2026-05-02T12:29:40.000Z</time>
      </trkpt>
      <trkpt lat="44.78807" lon="0.80734">
        <ele>171.6</ele>
        <time>2026-05-02T12:29:41.000Z</time>
      </trkpt>
      <trkpt lat="44.78808" lon="0.80736">
        <ele>171.5</ele>
        <time>2026-05-02T12:29:42.000Z</time>
      </trkpt>
      <trkpt lat="44.78809" lon="0.80739">
        <ele>171.3</ele>
        <time>2026-05-02T12:29:43.000Z</time>
      </trkpt>
      <trkpt lat="44.7881" lon="0.80741">
        <ele>171.2</ele>
        <time>2026-05-02T12:29:44.000Z</time>
      </trkpt>
      <trkpt lat="44.78811" lon="0.80743">
        <ele>171.7</ele>
        <time>2026-05-02T12:29:45.000Z</time>
      </trkpt>
      <trkpt lat="44.78811" lon="0.80745">
        <ele>171.4</ele>
        <time>2026-05-02T12:29:46.000Z</time>
      </trkpt>
      <trkpt lat="44.78813" lon="0.80747">
        <ele>171.4</ele>
        <time>2026-05-02T12:29:47.000Z</time>
      </trkpt>
      <trkpt lat="44.78814" lon="0.80749">
        <ele>171.3</ele>
        <time>2026-05-02T12:29:48.000Z</time>
      </trkpt>
      <trkpt lat="44.78814" lon="0.80751">
        <ele>171.2</ele>
        <time>2026-05-02T12:29:49.000Z</time>
      </trkpt>
      <trkpt lat="44.78815" lon="0.80753">
        <ele>170.9</ele>
        <time>2026-05-02T12:29:50.000Z</time>
      </trkpt>
      <trkpt lat="44.78816" lon="0.80754">
        <ele>170.7</ele>
        <time>2026-05-02T12:29:51.000Z</time>
      </trkpt>
      <trkpt lat="44.78817" lon="0.80755">
        <ele>169.7</ele>
        <time>2026-05-02T12:29:52.000Z</time>
      </trkpt>
      <trkpt lat="44.78819" lon="0.80754">
        <ele>169.6</ele>
        <time>2026-05-02T12:29:53.000Z</time>
      </trkpt>
      <trkpt lat="44.7882" lon="0.80754">
        <ele>169</ele>
        <time>2026-05-02T12:29:54.000Z</time>
      </trkpt>
      <trkpt lat="44.78821" lon="0.80753">
        <ele>169.1</ele>
        <time>2026-05-02T12:29:55.000Z</time>
      </trkpt>
      <trkpt lat="44.78822" lon="0.80753">
        <ele>168.3</ele>
        <time>2026-05-02T12:29:56.000Z</time>
      </trkpt>
      <trkpt lat="44.78822" lon="0.80752">
        <ele>168.6</ele>
        <time>2026-05-02T12:29:57.000Z</time>
      </trkpt>
      <trkpt lat="44.78823" lon="0.80751">
        <ele>168.2</ele>
        <time>2026-05-02T12:29:58.000Z</time>
      </trkpt>
      <trkpt lat="44.78824" lon="0.8075">
        <ele>167.4</ele>
        <time>2026-05-02T12:29:59.000Z</time>
      </trkpt>
      <trkpt lat="44.78825" lon="0.80747">
        <ele>168.1</ele>
        <time>2026-05-02T12:30:00.000Z</time>
      </trkpt>
      <trkpt lat="44.78826" lon="0.80745">
        <ele>168.5</ele>
        <time>2026-05-02T12:30:01.000Z</time>
      </trkpt>
      <trkpt lat="44.78827" lon="0.80742">
        <ele>168.7</ele>
        <time>2026-05-02T12:30:02.000Z</time>
      </trkpt>
      <trkpt lat="44.78828" lon="0.8074">
        <ele>168.5</ele>
        <time>2026-05-02T12:30:03.000Z</time>
      </trkpt>
      <trkpt lat="44.7883" lon="0.80737">
        <ele>168.6</ele>
        <time>2026-05-02T12:30:04.000Z</time>
      </trkpt>
      <trkpt lat="44.78831" lon="0.80735">
        <ele>168.7</ele>
        <time>2026-05-02T12:30:05.000Z</time>
      </trkpt>
      <trkpt lat="44.78832" lon="0.80733">
        <ele>168.6</ele>
        <time>2026-05-02T12:30:06.000Z</time>
      </trkpt>
      <trkpt lat="44.78833" lon="0.8073">
        <ele>168.8</ele>
        <time>2026-05-02T12:30:07.000Z</time>
      </trkpt>
      <trkpt lat="44.78834" lon="0.80728">
        <ele>168.7</ele>
        <time>2026-05-02T12:30:08.000Z</time>
      </trkpt>
      <trkpt lat="44.78836" lon="0.80726">
        <ele>168.9</ele>
        <time>2026-05-02T12:30:09.000Z</time>
      </trkpt>
      <trkpt lat="44.78837" lon="0.80723">
        <ele>169.1</ele>
        <time>2026-05-02T12:30:10.000Z</time>
      </trkpt>
      <trkpt lat="44.78839" lon="0.8072">
        <ele>168.8</ele>
        <time>2026-05-02T12:30:11.000Z</time>
      </trkpt>
      <trkpt lat="44.78841" lon="0.80717">
        <ele>168.8</ele>
        <time>2026-05-02T12:30:12.000Z</time>
      </trkpt>
      <trkpt lat="44.78843" lon="0.80715">
        <ele>168.8</ele>
        <time>2026-05-02T12:30:13.000Z</time>
      </trkpt>
      <trkpt lat="44.78845" lon="0.80711">
        <ele>168.9</ele>
        <time>2026-05-02T12:30:14.000Z</time>
      </trkpt>
      <trkpt lat="44.78846" lon="0.80708">
        <ele>169</ele>
        <time>2026-05-02T12:30:15.000Z</time>
      </trkpt>
      <trkpt lat="44.78848" lon="0.80705">
        <ele>168.7</ele>
        <time>2026-05-02T12:30:16.000Z</time>
      </trkpt>
      <trkpt lat="44.78851" lon="0.80701">
        <ele>168.6</ele>
        <time>2026-05-02T12:30:17.000Z</time>
      </trkpt>
      <trkpt lat="44.78853" lon="0.80698">
        <ele>168.4</ele>
        <time>2026-05-02T12:30:18.000Z</time>
      </trkpt>
      <trkpt lat="44.78855" lon="0.80694">
        <ele>168.3</ele>
        <time>2026-05-02T12:30:19.000Z</time>
      </trkpt>
      <trkpt lat="44.78858" lon="0.8069">
        <ele>167.9</ele>
        <time>2026-05-02T12:30:20.000Z</time>
      </trkpt>
      <trkpt lat="44.78861" lon="0.80687">
        <ele>167.9</ele>
        <time>2026-05-02T12:30:21.000Z</time>
      </trkpt>
      <trkpt lat="44.78864" lon="0.80683">
        <ele>166.9</ele>
        <time>2026-05-02T12:30:22.000Z</time>
      </trkpt>
      <trkpt lat="44.78867" lon="0.8068">
        <ele>167.1</ele>
        <time>2026-05-02T12:30:23.000Z</time>
      </trkpt>
      <trkpt lat="44.78869" lon="0.80677">
        <ele>167.2</ele>
        <time>2026-05-02T12:30:24.000Z</time>
      </trkpt>
      <trkpt lat="44.78872" lon="0.80674">
        <ele>167.5</ele>
        <time>2026-05-02T12:30:25.000Z</time>
      </trkpt>
      <trkpt lat="44.78875" lon="0.80671">
        <ele>167.7</ele>
        <time>2026-05-02T12:30:26.000Z</time>
      </trkpt>
      <trkpt lat="44.78878" lon="0.80668">
        <ele>167.8</ele>
        <time>2026-05-02T12:30:27.000Z</time>
      </trkpt>
      <trkpt lat="44.78881" lon="0.80665">
        <ele>167.6</ele>
        <time>2026-05-02T12:30:28.000Z</time>
      </trkpt>
      <trkpt lat="44.78884" lon="0.80663">
        <ele>167.7</ele>
        <time>2026-05-02T12:30:29.000Z</time>
      </trkpt>
      <trkpt lat="44.78888" lon="0.80661">
        <ele>167.7</ele>
        <time>2026-05-02T12:30:30.000Z</time>
      </trkpt>
      <trkpt lat="44.78891" lon="0.80659">
        <ele>167.9</ele>
        <time>2026-05-02T12:30:31.000Z</time>
      </trkpt>
      <trkpt lat="44.78895" lon="0.80657">
        <ele>167.9</ele>
        <time>2026-05-02T12:30:32.000Z</time>
      </trkpt>
      <trkpt lat="44.78898" lon="0.80655">
        <ele>167.7</ele>
        <time>2026-05-02T12:30:33.000Z</time>
      </trkpt>
      <trkpt lat="44.78901" lon="0.80654">
        <ele>167.9</ele>
        <time>2026-05-02T12:30:34.000Z</time>
      </trkpt>
      <trkpt lat="44.78905" lon="0.80652">
        <ele>168.1</ele>
        <time>2026-05-02T12:30:35.000Z</time>
      </trkpt>
      <trkpt lat="44.78908" lon="0.8065">
        <ele>168</ele>
        <time>2026-05-02T12:30:36.000Z</time>
      </trkpt>
      <trkpt lat="44.78912" lon="0.80648">
        <ele>168.1</ele>
        <time>2026-05-02T12:30:37.000Z</time>
      </trkpt>
      <trkpt lat="44.78915" lon="0.80647">
        <ele>168.1</ele>
        <time>2026-05-02T12:30:38.000Z</time>
      </trkpt>
      <trkpt lat="44.78919" lon="0.80645">
        <ele>168.3</ele>
        <time>2026-05-02T12:30:39.000Z</time>
      </trkpt>
      <trkpt lat="44.78922" lon="0.80643">
        <ele>168.4</ele>
        <time>2026-05-02T12:30:40.000Z</time>
      </trkpt>
      <trkpt lat="44.78926" lon="0.80641">
        <ele>168.4</ele>
        <time>2026-05-02T12:30:41.000Z</time>
      </trkpt>
      <trkpt lat="44.7893" lon="0.8064">
        <ele>167.9</ele>
        <time>2026-05-02T12:30:42.000Z</time>
      </trkpt>
      <trkpt lat="44.78932" lon="0.80639">
        <ele>168.1</ele>
        <time>2026-05-02T12:30:43.000Z</time>
      </trkpt>
      <trkpt lat="44.78935" lon="0.80637">
        <ele>168.1</ele>
        <time>2026-05-02T12:30:44.000Z</time>
      </trkpt>
      <trkpt lat="44.78939" lon="0.80636">
        <ele>168.2</ele>
        <time>2026-05-02T12:30:45.000Z</time>
      </trkpt>
      <trkpt lat="44.78942" lon="0.80635">
        <ele>168.1</ele>
        <time>2026-05-02T12:30:46.000Z</time>
      </trkpt>
      <trkpt lat="44.78944" lon="0.80633">
        <ele>168.2</ele>
        <time>2026-05-02T12:30:47.000Z</time>
      </trkpt>
      <trkpt lat="44.78947" lon="0.80632">
        <ele>168.1</ele>
        <time>2026-05-02T12:30:48.000Z</time>
      </trkpt>
      <trkpt lat="44.7895" lon="0.80631">
        <ele>168.1</ele>
        <time>2026-05-02T12:30:49.000Z</time>
      </trkpt>
      <trkpt lat="44.78953" lon="0.80629">
        <ele>167.8</ele>
        <time>2026-05-02T12:30:50.000Z</time>
      </trkpt>
      <trkpt lat="44.78956" lon="0.80628">
        <ele>167.8</ele>
        <time>2026-05-02T12:30:51.000Z</time>
      </trkpt>
      <trkpt lat="44.78959" lon="0.80626">
        <ele>167.8</ele>
        <time>2026-05-02T12:30:52.000Z</time>
      </trkpt>
      <trkpt lat="44.78962" lon="0.80624">
        <ele>167.6</ele>
        <time>2026-05-02T12:30:53.000Z</time>
      </trkpt>
      <trkpt lat="44.78965" lon="0.80623">
        <ele>167.6</ele>
        <time>2026-05-02T12:30:54.000Z</time>
      </trkpt>
      <trkpt lat="44.78968" lon="0.80621">
        <ele>167.6</ele>
        <time>2026-05-02T12:30:55.000Z</time>
      </trkpt>
      <trkpt lat="44.78971" lon="0.8062">
        <ele>167.4</ele>
        <time>2026-05-02T12:30:56.000Z</time>
      </trkpt>
      <trkpt lat="44.78974" lon="0.80618">
        <ele>167.3</ele>
        <time>2026-05-02T12:30:57.000Z</time>
      </trkpt>
      <trkpt lat="44.78977" lon="0.80616">
        <ele>167</ele>
        <time>2026-05-02T12:30:58.000Z</time>
      </trkpt>
      <trkpt lat="44.7898" lon="0.80614">
        <ele>166.5</ele>
        <time>2026-05-02T12:30:59.000Z</time>
      </trkpt>
      <trkpt lat="44.78983" lon="0.80613">
        <ele>166.2</ele>
        <time>2026-05-02T12:31:00.000Z</time>
      </trkpt>
      <trkpt lat="44.78986" lon="0.80611">
        <ele>166</ele>
        <time>2026-05-02T12:31:01.000Z</time>
      </trkpt>
      <trkpt lat="44.78989" lon="0.80609">
        <ele>166</ele>
        <time>2026-05-02T12:31:02.000Z</time>
      </trkpt>
      <trkpt lat="44.78991" lon="0.80607">
        <ele>165.9</ele>
        <time>2026-05-02T12:31:03.000Z</time>
      </trkpt>
      <trkpt lat="44.78995" lon="0.80606">
        <ele>165.5</ele>
        <time>2026-05-02T12:31:04.000Z</time>
      </trkpt>
      <trkpt lat="44.78997" lon="0.80605">
        <ele>165.4</ele>
        <time>2026-05-02T12:31:05.000Z</time>
      </trkpt>
      <trkpt lat="44.78999" lon="0.80604">
        <ele>165.2</ele>
        <time>2026-05-02T12:31:06.000Z</time>
      </trkpt>
      <trkpt lat="44.79001" lon="0.80603">
        <ele>165.1</ele>
        <time>2026-05-02T12:31:07.000Z</time>
      </trkpt>
      <trkpt lat="44.79004" lon="0.80602">
        <ele>164.2</ele>
        <time>2026-05-02T12:31:08.000Z</time>
      </trkpt>
      <trkpt lat="44.79006" lon="0.80601">
        <ele>163.3</ele>
        <time>2026-05-02T12:31:09.000Z</time>
      </trkpt>
      <trkpt lat="44.79008" lon="0.806">
        <ele>163.5</ele>
        <time>2026-05-02T12:31:10.000Z</time>
      </trkpt>
      <trkpt lat="44.79009" lon="0.80599">
        <ele>163.4</ele>
        <time>2026-05-02T12:31:11.000Z</time>
      </trkpt>
      <trkpt lat="44.79011" lon="0.80598">
        <ele>163.7</ele>
        <time>2026-05-02T12:31:12.000Z</time>
      </trkpt>
      <trkpt lat="44.79013" lon="0.80596">
        <ele>164.1</ele>
        <time>2026-05-02T12:31:13.000Z</time>
      </trkpt>
      <trkpt lat="44.79014" lon="0.80595">
        <ele>164.5</ele>
        <time>2026-05-02T12:31:14.000Z</time>
      </trkpt>
      <trkpt lat="44.79016" lon="0.80594">
        <ele>164.9</ele>
        <time>2026-05-02T12:31:15.000Z</time>
      </trkpt>
      <trkpt lat="44.79017" lon="0.80593">
        <ele>165</ele>
        <time>2026-05-02T12:31:16.000Z</time>
      </trkpt>
      <trkpt lat="44.79019" lon="0.80593">
        <ele>167.5</ele>
        <time>2026-05-02T12:31:17.000Z</time>
      </trkpt>
      <trkpt lat="44.79021" lon="0.80592">
        <ele>168</ele>
        <time>2026-05-02T12:31:18.000Z</time>
      </trkpt>
      <trkpt lat="44.79022" lon="0.80592">
        <ele>168.1</ele>
        <time>2026-05-02T12:31:19.000Z</time>
      </trkpt>
      <trkpt lat="44.79022" lon="0.80591">
        <ele>167.3</ele>
        <time>2026-05-02T12:31:20.000Z</time>
      </trkpt>
      <trkpt lat="44.79023" lon="0.8059">
        <ele>167.1</ele>
        <time>2026-05-02T12:31:21.000Z</time>
      </trkpt>
      <trkpt lat="44.79024" lon="0.80589">
        <ele>167.1</ele>
        <time>2026-05-02T12:31:22.000Z</time>
      </trkpt>
      <trkpt lat="44.79025" lon="0.80588">
        <ele>166.9</ele>
        <time>2026-05-02T12:31:23.000Z</time>
      </trkpt>
      <trkpt lat="44.79026" lon="0.80586">
        <ele>166.6</ele>
        <time>2026-05-02T12:31:24.000Z</time>
      </trkpt>
      <trkpt lat="44.79027" lon="0.80584">
        <ele>166.5</ele>
        <time>2026-05-02T12:31:25.000Z</time>
      </trkpt>
      <trkpt lat="44.79028" lon="0.80582">
        <ele>166.1</ele>
        <time>2026-05-02T12:31:26.000Z</time>
      </trkpt>
      <trkpt lat="44.79027" lon="0.80582">
        <ele>164.3</ele>
        <time>2026-05-02T12:31:27.000Z</time>
      </trkpt>
      <trkpt lat="44.79027" lon="0.80582">
        <ele>165</ele>
        <time>2026-05-02T12:31:28.000Z</time>
      </trkpt>
      <trkpt lat="44.79028" lon="0.8058">
        <ele>164.9</ele>
        <time>2026-05-02T12:31:29.000Z</time>
      </trkpt>
      <trkpt lat="44.79028" lon="0.80579">
        <ele>164.1</ele>
        <time>2026-05-02T12:31:30.000Z</time>
      </trkpt>
      <trkpt lat="44.79029" lon="0.80577">
        <ele>164.1</ele>
        <time>2026-05-02T12:31:31.000Z</time>
      </trkpt>
      <trkpt lat="44.79031" lon="0.80576">
        <ele>163.7</ele>
        <time>2026-05-02T12:31:32.000Z</time>
      </trkpt>
      <trkpt lat="44.79032" lon="0.80574">
        <ele>163.1</ele>
        <time>2026-05-02T12:31:33.000Z</time>
      </trkpt>
      <trkpt lat="44.79034" lon="0.80573">
        <ele>163.7</ele>
        <time>2026-05-02T12:31:34.000Z</time>
      </trkpt>
      <trkpt lat="44.79035" lon="0.80572">
        <ele>164.4</ele>
        <time>2026-05-02T12:31:35.000Z</time>
      </trkpt>
      <trkpt lat="44.79037" lon="0.8057">
        <ele>165</ele>
        <time>2026-05-02T12:31:36.000Z</time>
      </trkpt>
      <trkpt lat="44.79038" lon="0.80568">
        <ele>164.8</ele>
        <time>2026-05-02T12:31:37.000Z</time>
      </trkpt>
      <trkpt lat="44.7904" lon="0.80567">
        <ele>165</ele>
        <time>2026-05-02T12:31:38.000Z</time>
      </trkpt>
      <trkpt lat="44.79041" lon="0.80565">
        <ele>165.3</ele>
        <time>2026-05-02T12:31:39.000Z</time>
      </trkpt>
      <trkpt lat="44.79043" lon="0.80564">
        <ele>165.5</ele>
        <time>2026-05-02T12:31:40.000Z</time>
      </trkpt>
      <trkpt lat="44.79044" lon="0.80563">
        <ele>165.4</ele>
        <time>2026-05-02T12:31:41.000Z</time>
      </trkpt>
      <trkpt lat="44.79045" lon="0.80561">
        <ele>165.6</ele>
        <time>2026-05-02T12:31:42.000Z</time>
      </trkpt>
      <trkpt lat="44.79047" lon="0.8056">
        <ele>166.8</ele>
        <time>2026-05-02T12:31:43.000Z</time>
      </trkpt>
      <trkpt lat="44.79048" lon="0.80559">
        <ele>166</ele>
        <time>2026-05-02T12:31:44.000Z</time>
      </trkpt>
      <trkpt lat="44.79049" lon="0.80557">
        <ele>165.8</ele>
        <time>2026-05-02T12:31:45.000Z</time>
      </trkpt>
      <trkpt lat="44.7905" lon="0.80555">
        <ele>165.1</ele>
        <time>2026-05-02T12:31:46.000Z</time>
      </trkpt>
      <trkpt lat="44.79051" lon="0.80553">
        <ele>164.6</ele>
        <time>2026-05-02T12:31:47.000Z</time>
      </trkpt>
      <trkpt lat="44.79052" lon="0.80552">
        <ele>164.3</ele>
        <time>2026-05-02T12:31:48.000Z</time>
      </trkpt>
      <trkpt lat="44.79053" lon="0.8055">
        <ele>163.8</ele>
        <time>2026-05-02T12:31:49.000Z</time>
      </trkpt>
      <trkpt lat="44.79054" lon="0.80548">
        <ele>163.7</ele>
        <time>2026-05-02T12:31:50.000Z</time>
      </trkpt>
      <trkpt lat="44.79056" lon="0.80547">
        <ele>164</ele>
        <time>2026-05-02T12:31:51.000Z</time>
      </trkpt>
      <trkpt lat="44.79057" lon="0.80545">
        <ele>164.1</ele>
        <time>2026-05-02T12:31:52.000Z</time>
      </trkpt>
      <trkpt lat="44.79058" lon="0.80543">
        <ele>163.6</ele>
        <time>2026-05-02T12:31:53.000Z</time>
      </trkpt>
      <trkpt lat="44.79059" lon="0.80541">
        <ele>163.4</ele>
        <time>2026-05-02T12:31:54.000Z</time>
      </trkpt>
      <trkpt lat="44.7906" lon="0.80538">
        <ele>163.4</ele>
        <time>2026-05-02T12:31:55.000Z</time>
      </trkpt>
      <trkpt lat="44.79062" lon="0.80536">
        <ele>163.2</ele>
        <time>2026-05-02T12:31:56.000Z</time>
      </trkpt>
      <trkpt lat="44.79063" lon="0.80534">
        <ele>163.9</ele>
        <time>2026-05-02T12:31:57.000Z</time>
      </trkpt>
      <trkpt lat="44.79065" lon="0.80532">
        <ele>163.3</ele>
        <time>2026-05-02T12:31:58.000Z</time>
      </trkpt>
      <trkpt lat="44.79067" lon="0.8053">
        <ele>163.7</ele>
        <time>2026-05-02T12:31:59.000Z</time>
      </trkpt>
      <trkpt lat="44.79068" lon="0.80528">
        <ele>163</ele>
        <time>2026-05-02T12:32:00.000Z</time>
      </trkpt>
      <trkpt lat="44.7907" lon="0.80525">
        <ele>163</ele>
        <time>2026-05-02T12:32:01.000Z</time>
      </trkpt>
      <trkpt lat="44.79072" lon="0.80523">
        <ele>162.6</ele>
        <time>2026-05-02T12:32:02.000Z</time>
      </trkpt>
      <trkpt lat="44.79073" lon="0.80521">
        <ele>162.4</ele>
        <time>2026-05-02T12:32:03.000Z</time>
      </trkpt>
      <trkpt lat="44.79074" lon="0.80519">
        <ele>162.6</ele>
        <time>2026-05-02T12:32:04.000Z</time>
      </trkpt>
      <trkpt lat="44.79076" lon="0.80517">
        <ele>162.8</ele>
        <time>2026-05-02T12:32:05.000Z</time>
      </trkpt>
      <trkpt lat="44.79077" lon="0.80515">
        <ele>163.5</ele>
        <time>2026-05-02T12:32:06.000Z</time>
      </trkpt>
      <trkpt lat="44.79078" lon="0.80513">
        <ele>163.6</ele>
        <time>2026-05-02T12:32:07.000Z</time>
      </trkpt>
      <trkpt lat="44.7908" lon="0.80511">
        <ele>163.8</ele>
        <time>2026-05-02T12:32:08.000Z</time>
      </trkpt>
      <trkpt lat="44.79081" lon="0.8051">
        <ele>164.1</ele>
        <time>2026-05-02T12:32:09.000Z</time>
      </trkpt>
      <trkpt lat="44.79082" lon="0.80508">
        <ele>164.6</ele>
        <time>2026-05-02T12:32:10.000Z</time>
      </trkpt>
      <trkpt lat="44.79083" lon="0.80506">
        <ele>164.2</ele>
        <time>2026-05-02T12:32:11.000Z</time>
      </trkpt>
      <trkpt lat="44.79084" lon="0.80504">
        <ele>163.5</ele>
        <time>2026-05-02T12:32:12.000Z</time>
      </trkpt>
      <trkpt lat="44.79085" lon="0.80502">
        <ele>164</ele>
        <time>2026-05-02T12:32:13.000Z</time>
      </trkpt>
      <trkpt lat="44.79086" lon="0.80501">
        <ele>163.8</ele>
        <time>2026-05-02T12:32:14.000Z</time>
      </trkpt>
      <trkpt lat="44.79087" lon="0.80499">
        <ele>164.6</ele>
        <time>2026-05-02T12:32:15.000Z</time>
      </trkpt>
      <trkpt lat="44.79088" lon="0.80497">
        <ele>165.1</ele>
        <time>2026-05-02T12:32:16.000Z</time>
      </trkpt>
      <trkpt lat="44.79088" lon="0.80495">
        <ele>164.5</ele>
        <time>2026-05-02T12:32:17.000Z</time>
      </trkpt>
      <trkpt lat="44.79089" lon="0.80492">
        <ele>163.9</ele>
        <time>2026-05-02T12:32:18.000Z</time>
      </trkpt>
      <trkpt lat="44.7909" lon="0.8049">
        <ele>164</ele>
        <time>2026-05-02T12:32:19.000Z</time>
      </trkpt>
      <trkpt lat="44.79091" lon="0.80488">
        <ele>164.2</ele>
        <time>2026-05-02T12:32:20.000Z</time>
      </trkpt>
      <trkpt lat="44.79092" lon="0.80486">
        <ele>164</ele>
        <time>2026-05-02T12:32:21.000Z</time>
      </trkpt>
      <trkpt lat="44.79091" lon="0.80484">
        <ele>164.2</ele>
        <time>2026-05-02T12:32:22.000Z</time>
      </trkpt>
      <trkpt lat="44.79092" lon="0.80482">
        <ele>165.2</ele>
        <time>2026-05-02T12:32:23.000Z</time>
      </trkpt>
      <trkpt lat="44.79093" lon="0.80481">
        <ele>165.1</ele>
        <time>2026-05-02T12:32:24.000Z</time>
      </trkpt>
      <trkpt lat="44.79094" lon="0.80479">
        <ele>165.4</ele>
        <time>2026-05-02T12:32:25.000Z</time>
      </trkpt>
      <trkpt lat="44.79094" lon="0.80479">
        <ele>165.1</ele>
        <time>2026-05-02T12:32:26.000Z</time>
      </trkpt>
      <trkpt lat="44.79094" lon="0.80477">
        <ele>164.8</ele>
        <time>2026-05-02T12:32:27.000Z</time>
      </trkpt>
      <trkpt lat="44.79095" lon="0.80475">
        <ele>165.3</ele>
        <time>2026-05-02T12:32:28.000Z</time>
      </trkpt>
      <trkpt lat="44.79096" lon="0.80473">
        <ele>165.6</ele>
        <time>2026-05-02T12:32:29.000Z</time>
      </trkpt>
      <trkpt lat="44.79096" lon="0.80471">
        <ele>165.7</ele>
        <time>2026-05-02T12:32:30.000Z</time>
      </trkpt>
      <trkpt lat="44.79097" lon="0.80469">
        <ele>166.3</ele>
        <time>2026-05-02T12:32:31.000Z</time>
      </trkpt>
      <trkpt lat="44.79098" lon="0.80466">
        <ele>166.2</ele>
        <time>2026-05-02T12:32:32.000Z</time>
      </trkpt>
      <trkpt lat="44.79098" lon="0.80463">
        <ele>167.6</ele>
        <time>2026-05-02T12:32:33.000Z</time>
      </trkpt>
      <trkpt lat="44.79099" lon="0.80462">
        <ele>167.6</ele>
        <time>2026-05-02T12:32:34.000Z</time>
      </trkpt>
      <trkpt lat="44.79099" lon="0.8046">
        <ele>167</ele>
        <time>2026-05-02T12:32:35.000Z</time>
      </trkpt>
      <trkpt lat="44.791" lon="0.80457">
        <ele>165.1</ele>
        <time>2026-05-02T12:32:36.000Z</time>
      </trkpt>
      <trkpt lat="44.791" lon="0.80455">
        <ele>164.8</ele>
        <time>2026-05-02T12:32:37.000Z</time>
      </trkpt>
      <trkpt lat="44.79101" lon="0.80453">
        <ele>164.6</ele>
        <time>2026-05-02T12:32:38.000Z</time>
      </trkpt>
      <trkpt lat="44.79101" lon="0.80451">
        <ele>164.5</ele>
        <time>2026-05-02T12:32:39.000Z</time>
      </trkpt>
      <trkpt lat="44.79102" lon="0.80448">
        <ele>164.4</ele>
        <time>2026-05-02T12:32:40.000Z</time>
      </trkpt>
      <trkpt lat="44.79102" lon="0.80446">
        <ele>164.5</ele>
        <time>2026-05-02T12:32:41.000Z</time>
      </trkpt>
      <trkpt lat="44.79103" lon="0.80444">
        <ele>164.2</ele>
        <time>2026-05-02T12:32:42.000Z</time>
      </trkpt>
      <trkpt lat="44.79104" lon="0.80442">
        <ele>166.3</ele>
        <time>2026-05-02T12:32:43.000Z</time>
      </trkpt>
      <trkpt lat="44.79105" lon="0.8044">
        <ele>167.3</ele>
        <time>2026-05-02T12:32:44.000Z</time>
      </trkpt>
      <trkpt lat="44.79106" lon="0.80438">
        <ele>167.3</ele>
        <time>2026-05-02T12:32:45.000Z</time>
      </trkpt>
      <trkpt lat="44.79107" lon="0.80436">
        <ele>167.2</ele>
        <time>2026-05-02T12:32:46.000Z</time>
      </trkpt>
      <trkpt lat="44.79108" lon="0.80434">
        <ele>167.6</ele>
        <time>2026-05-02T12:32:47.000Z</time>
      </trkpt>
      <trkpt lat="44.79108" lon="0.80432">
        <ele>167.7</ele>
        <time>2026-05-02T12:32:48.000Z</time>
      </trkpt>
      <trkpt lat="44.79109" lon="0.80431">
        <ele>167.6</ele>
        <time>2026-05-02T12:32:49.000Z</time>
      </trkpt>
      <trkpt lat="44.7911" lon="0.80428">
        <ele>169.1</ele>
        <time>2026-05-02T12:32:50.000Z</time>
      </trkpt>
      <trkpt lat="44.79111" lon="0.80426">
        <ele>169.4</ele>
        <time>2026-05-02T12:32:51.000Z</time>
      </trkpt>
      <trkpt lat="44.79112" lon="0.80424">
        <ele>170.8</ele>
        <time>2026-05-02T12:32:52.000Z</time>
      </trkpt>
      <trkpt lat="44.79114" lon="0.80421">
        <ele>170.7</ele>
        <time>2026-05-02T12:32:53.000Z</time>
      </trkpt>
      <trkpt lat="44.79115" lon="0.80419">
        <ele>170.5</ele>
        <time>2026-05-02T12:32:54.000Z</time>
      </trkpt>
      <trkpt lat="44.79116" lon="0.80418">
        <ele>170.6</ele>
        <time>2026-05-02T12:32:55.000Z</time>
      </trkpt>
      <trkpt lat="44.79117" lon="0.80416">
        <ele>170.1</ele>
        <time>2026-05-02T12:32:56.000Z</time>
      </trkpt>
      <trkpt lat="44.79118" lon="0.80414">
        <ele>170.3</ele>
        <time>2026-05-02T12:32:57.000Z</time>
      </trkpt>
      <trkpt lat="44.7912" lon="0.80412">
        <ele>170.6</ele>
        <time>2026-05-02T12:32:58.000Z</time>
      </trkpt>
      <trkpt lat="44.79121" lon="0.80411">
        <ele>170.6</ele>
        <time>2026-05-02T12:32:59.000Z</time>
      </trkpt>
      <trkpt lat="44.79122" lon="0.80409">
        <ele>169.9</ele>
        <time>2026-05-02T12:33:00.000Z</time>
      </trkpt>
      <trkpt lat="44.79122" lon="0.80408">
        <ele>169.6</ele>
        <time>2026-05-02T12:33:01.000Z</time>
      </trkpt>
      <trkpt lat="44.79124" lon="0.80406">
        <ele>170</ele>
        <time>2026-05-02T12:33:02.000Z</time>
      </trkpt>
      <trkpt lat="44.79124" lon="0.80404">
        <ele>170.1</ele>
        <time>2026-05-02T12:33:03.000Z</time>
      </trkpt>
      <trkpt lat="44.79125" lon="0.80403">
        <ele>170.8</ele>
        <time>2026-05-02T12:33:04.000Z</time>
      </trkpt>
      <trkpt lat="44.79126" lon="0.80401">
        <ele>169.1</ele>
        <time>2026-05-02T12:33:05.000Z</time>
      </trkpt>
      <trkpt lat="44.79127" lon="0.80399">
        <ele>169.3</ele>
        <time>2026-05-02T12:33:06.000Z</time>
      </trkpt>
      <trkpt lat="44.79128" lon="0.80397">
        <ele>169.3</ele>
        <time>2026-05-02T12:33:07.000Z</time>
      </trkpt>
      <trkpt lat="44.79129" lon="0.80395">
        <ele>169.3</ele>
        <time>2026-05-02T12:33:08.000Z</time>
      </trkpt>
      <trkpt lat="44.7913" lon="0.80394">
        <ele>168.8</ele>
        <time>2026-05-02T12:33:09.000Z</time>
      </trkpt>
      <trkpt lat="44.79131" lon="0.80392">
        <ele>167.7</ele>
        <time>2026-05-02T12:33:10.000Z</time>
      </trkpt>
      <trkpt lat="44.79132" lon="0.8039">
        <ele>166.5</ele>
        <time>2026-05-02T12:33:11.000Z</time>
      </trkpt>
      <trkpt lat="44.79133" lon="0.80388">
        <ele>165.4</ele>
        <time>2026-05-02T12:33:12.000Z</time>
      </trkpt>
      <trkpt lat="44.79134" lon="0.80386">
        <ele>164.6</ele>
        <time>2026-05-02T12:33:13.000Z</time>
      </trkpt>
      <trkpt lat="44.79135" lon="0.80384">
        <ele>164.1</ele>
        <time>2026-05-02T12:33:14.000Z</time>
      </trkpt>
      <trkpt lat="44.79136" lon="0.80382">
        <ele>164.9</ele>
        <time>2026-05-02T12:33:15.000Z</time>
      </trkpt>
      <trkpt lat="44.79137" lon="0.8038">
        <ele>167.2</ele>
        <time>2026-05-02T12:33:16.000Z</time>
      </trkpt>
      <trkpt lat="44.79138" lon="0.80378">
        <ele>166.2</ele>
        <time>2026-05-02T12:33:17.000Z</time>
      </trkpt>
      <trkpt lat="44.79139" lon="0.80376">
        <ele>165.2</ele>
        <time>2026-05-02T12:33:18.000Z</time>
      </trkpt>
      <trkpt lat="44.7914" lon="0.80374">
        <ele>167.6</ele>
        <time>2026-05-02T12:33:19.000Z</time>
      </trkpt>
      <trkpt lat="44.7914" lon="0.80371">
        <ele>169.8</ele>
        <time>2026-05-02T12:33:20.000Z</time>
      </trkpt>
      <trkpt lat="44.79141" lon="0.80369">
        <ele>170.2</ele>
        <time>2026-05-02T12:33:21.000Z</time>
      </trkpt>
      <trkpt lat="44.79141" lon="0.80367">
        <ele>169.8</ele>
        <time>2026-05-02T12:33:22.000Z</time>
      </trkpt>
      <trkpt lat="44.79142" lon="0.80365">
        <ele>166.6</ele>
        <time>2026-05-02T12:33:23.000Z</time>
      </trkpt>
      <trkpt lat="44.79143" lon="0.80362">
        <ele>166.4</ele>
        <time>2026-05-02T12:33:24.000Z</time>
      </trkpt>
      <trkpt lat="44.79144" lon="0.8036">
        <ele>165.8</ele>
        <time>2026-05-02T12:33:25.000Z</time>
      </trkpt>
      <trkpt lat="44.79145" lon="0.80357">
        <ele>165.9</ele>
        <time>2026-05-02T12:33:26.000Z</time>
      </trkpt>
      <trkpt lat="44.79145" lon="0.80355">
        <ele>164.7</ele>
        <time>2026-05-02T12:33:27.000Z</time>
      </trkpt>
      <trkpt lat="44.79146" lon="0.80352">
        <ele>164.4</ele>
        <time>2026-05-02T12:33:28.000Z</time>
      </trkpt>
      <trkpt lat="44.79147" lon="0.8035">
        <ele>163.9</ele>
        <time>2026-05-02T12:33:29.000Z</time>
      </trkpt>
      <trkpt lat="44.79146" lon="0.80347">
        <ele>162.2</ele>
        <time>2026-05-02T12:33:30.000Z</time>
      </trkpt>
      <trkpt lat="44.79143" lon="0.80346">
        <ele>160.8</ele>
        <time>2026-05-02T12:33:31.000Z</time>
      </trkpt>
      <trkpt lat="44.79142" lon="0.80344">
        <ele>163.2</ele>
        <time>2026-05-02T12:33:32.000Z</time>
      </trkpt>
      <trkpt lat="44.79142" lon="0.80341">
        <ele>163.6</ele>
        <time>2026-05-02T12:33:33.000Z</time>
      </trkpt>
      <trkpt lat="44.79143" lon="0.80338">
        <ele>164.1</ele>
        <time>2026-05-02T12:33:34.000Z</time>
      </trkpt>
      <trkpt lat="44.79144" lon="0.80336">
        <ele>163.9</ele>
        <time>2026-05-02T12:33:35.000Z</time>
      </trkpt>
      <trkpt lat="44.79145" lon="0.80334">
        <ele>164.2</ele>
        <time>2026-05-02T12:33:36.000Z</time>
      </trkpt>
      <trkpt lat="44.79146" lon="0.80332">
        <ele>164</ele>
        <time>2026-05-02T12:33:37.000Z</time>
      </trkpt>
      <trkpt lat="44.79147" lon="0.8033">
        <ele>166.2</ele>
        <time>2026-05-02T12:33:38.000Z</time>
      </trkpt>
      <trkpt lat="44.79148" lon="0.80328">
        <ele>167</ele>
        <time>2026-05-02T12:33:39.000Z</time>
      </trkpt>
      <trkpt lat="44.79149" lon="0.80326">
        <ele>166.7</ele>
        <time>2026-05-02T12:33:40.000Z</time>
      </trkpt>
      <trkpt lat="44.79149" lon="0.80324">
        <ele>165.9</ele>
        <time>2026-05-02T12:33:41.000Z</time>
      </trkpt>
      <trkpt lat="44.79151" lon="0.80322">
        <ele>166.1</ele>
        <time>2026-05-02T12:33:42.000Z</time>
      </trkpt>
      <trkpt lat="44.79151" lon="0.80319">
        <ele>166</ele>
        <time>2026-05-02T12:33:43.000Z</time>
      </trkpt>
      <trkpt lat="44.79152" lon="0.80316">
        <ele>165.9</ele>
        <time>2026-05-02T12:33:44.000Z</time>
      </trkpt>
      <trkpt lat="44.79153" lon="0.80314">
        <ele>164.4</ele>
        <time>2026-05-02T12:33:45.000Z</time>
      </trkpt>
      <trkpt lat="44.79154" lon="0.80312">
        <ele>163.9</ele>
        <time>2026-05-02T12:33:46.000Z</time>
      </trkpt>
      <trkpt lat="44.79155" lon="0.80309">
        <ele>163</ele>
        <time>2026-05-02T12:33:47.000Z</time>
      </trkpt>
      <trkpt lat="44.79156" lon="0.80307">
        <ele>162.7</ele>
        <time>2026-05-02T12:33:48.000Z</time>
      </trkpt>
      <trkpt lat="44.79157" lon="0.80305">
        <ele>165.5</ele>
        <time>2026-05-02T12:33:49.000Z</time>
      </trkpt>
      <trkpt lat="44.79157" lon="0.80303">
        <ele>164.8</ele>
        <time>2026-05-02T12:33:50.000Z</time>
      </trkpt>
      <trkpt lat="44.79158" lon="0.80301">
        <ele>164.2</ele>
        <time>2026-05-02T12:33:51.000Z</time>
      </trkpt>
      <trkpt lat="44.79159" lon="0.80299">
        <ele>165.4</ele>
        <time>2026-05-02T12:33:52.000Z</time>
      </trkpt>
      <trkpt lat="44.7916" lon="0.80297">
        <ele>165.1</ele>
        <time>2026-05-02T12:33:53.000Z</time>
      </trkpt>
      <trkpt lat="44.79161" lon="0.80296">
        <ele>165.1</ele>
        <time>2026-05-02T12:33:54.000Z</time>
      </trkpt>
      <trkpt lat="44.79162" lon="0.80294">
        <ele>165.5</ele>
        <time>2026-05-02T12:33:55.000Z</time>
      </trkpt>
      <trkpt lat="44.79163" lon="0.80292">
        <ele>166.4</ele>
        <time>2026-05-02T12:33:56.000Z</time>
      </trkpt>
      <trkpt lat="44.79164" lon="0.80291">
        <ele>167.3</ele>
        <time>2026-05-02T12:33:57.000Z</time>
      </trkpt>
      <trkpt lat="44.79165" lon="0.80289">
        <ele>167.1</ele>
        <time>2026-05-02T12:33:58.000Z</time>
      </trkpt>
      <trkpt lat="44.79166" lon="0.80288">
        <ele>167.7</ele>
        <time>2026-05-02T12:33:59.000Z</time>
      </trkpt>
      <trkpt lat="44.79167" lon="0.80286">
        <ele>167</ele>
        <time>2026-05-02T12:34:00.000Z</time>
      </trkpt>
      <trkpt lat="44.79168" lon="0.80284">
        <ele>166.7</ele>
        <time>2026-05-02T12:34:01.000Z</time>
      </trkpt>
      <trkpt lat="44.79169" lon="0.80282">
        <ele>167.4</ele>
        <time>2026-05-02T12:34:02.000Z</time>
      </trkpt>
      <trkpt lat="44.7917" lon="0.8028">
        <ele>167.3</ele>
        <time>2026-05-02T12:34:03.000Z</time>
      </trkpt>
      <trkpt lat="44.79171" lon="0.80278">
        <ele>167.7</ele>
        <time>2026-05-02T12:34:04.000Z</time>
      </trkpt>
      <trkpt lat="44.79172" lon="0.80276">
        <ele>168.1</ele>
        <time>2026-05-02T12:34:05.000Z</time>
      </trkpt>
      <trkpt lat="44.79173" lon="0.80274">
        <ele>168.2</ele>
        <time>2026-05-02T12:34:06.000Z</time>
      </trkpt>
      <trkpt lat="44.79174" lon="0.80272">
        <ele>168.4</ele>
        <time>2026-05-02T12:34:07.000Z</time>
      </trkpt>
      <trkpt lat="44.79175" lon="0.8027">
        <ele>168.8</ele>
        <time>2026-05-02T12:34:08.000Z</time>
      </trkpt>
      <trkpt lat="44.79176" lon="0.80268">
        <ele>168</ele>
        <time>2026-05-02T12:34:09.000Z</time>
      </trkpt>
      <trkpt lat="44.79176" lon="0.80266">
        <ele>167</ele>
        <time>2026-05-02T12:34:10.000Z</time>
      </trkpt>
      <trkpt lat="44.79177" lon="0.80263">
        <ele>165.9</ele>
        <time>2026-05-02T12:34:11.000Z</time>
      </trkpt>
      <trkpt lat="44.79178" lon="0.80261">
        <ele>164.5</ele>
        <time>2026-05-02T12:34:12.000Z</time>
      </trkpt>
      <trkpt lat="44.79179" lon="0.80259">
        <ele>164</ele>
        <time>2026-05-02T12:34:13.000Z</time>
      </trkpt>
      <trkpt lat="44.7918" lon="0.80256">
        <ele>165.8</ele>
        <time>2026-05-02T12:34:14.000Z</time>
      </trkpt>
      <trkpt lat="44.7918" lon="0.80254">
        <ele>165.4</ele>
        <time>2026-05-02T12:34:15.000Z</time>
      </trkpt>
      <trkpt lat="44.79181" lon="0.80251">
        <ele>164.9</ele>
        <time>2026-05-02T12:34:16.000Z</time>
      </trkpt>
      <trkpt lat="44.79182" lon="0.80249">
        <ele>164.3</ele>
        <time>2026-05-02T12:34:17.000Z</time>
      </trkpt>
      <trkpt lat="44.79183" lon="0.80247">
        <ele>163.9</ele>
        <time>2026-05-02T12:34:18.000Z</time>
      </trkpt>
      <trkpt lat="44.79184" lon="0.80245">
        <ele>163.4</ele>
        <time>2026-05-02T12:34:19.000Z</time>
      </trkpt>
      <trkpt lat="44.79185" lon="0.80242">
        <ele>162.7</ele>
        <time>2026-05-02T12:34:20.000Z</time>
      </trkpt>
      <trkpt lat="44.79186" lon="0.8024">
        <ele>162.2</ele>
        <time>2026-05-02T12:34:21.000Z</time>
      </trkpt>
      <trkpt lat="44.79187" lon="0.80238">
        <ele>161.7</ele>
        <time>2026-05-02T12:34:22.000Z</time>
      </trkpt>
      <trkpt lat="44.79188" lon="0.80235">
        <ele>162.2</ele>
        <time>2026-05-02T12:34:23.000Z</time>
      </trkpt>
      <trkpt lat="44.79189" lon="0.80233">
        <ele>162.2</ele>
        <time>2026-05-02T12:34:24.000Z</time>
      </trkpt>
      <trkpt lat="44.7919" lon="0.80231">
        <ele>162.4</ele>
        <time>2026-05-02T12:34:25.000Z</time>
      </trkpt>
      <trkpt lat="44.7919" lon="0.80228">
        <ele>162.7</ele>
        <time>2026-05-02T12:34:26.000Z</time>
      </trkpt>
      <trkpt lat="44.79191" lon="0.80226">
        <ele>162.3</ele>
        <time>2026-05-02T12:34:27.000Z</time>
      </trkpt>
      <trkpt lat="44.79192" lon="0.80224">
        <ele>162.1</ele>
        <time>2026-05-02T12:34:28.000Z</time>
      </trkpt>
      <trkpt lat="44.79193" lon="0.80222">
        <ele>161.4</ele>
        <time>2026-05-02T12:34:29.000Z</time>
      </trkpt>
      <trkpt lat="44.79193" lon="0.8022">
        <ele>161.8</ele>
        <time>2026-05-02T12:34:30.000Z</time>
      </trkpt>
      <trkpt lat="44.79194" lon="0.80218">
        <ele>161.5</ele>
        <time>2026-05-02T12:34:31.000Z</time>
      </trkpt>
      <trkpt lat="44.79195" lon="0.80215">
        <ele>161.5</ele>
        <time>2026-05-02T12:34:32.000Z</time>
      </trkpt>
      <trkpt lat="44.79197" lon="0.80213">
        <ele>161.1</ele>
        <time>2026-05-02T12:34:33.000Z</time>
      </trkpt>
      <trkpt lat="44.79198" lon="0.80211">
        <ele>160.6</ele>
        <time>2026-05-02T12:34:34.000Z</time>
      </trkpt>
      <trkpt lat="44.79199" lon="0.80209">
        <ele>160.4</ele>
        <time>2026-05-02T12:34:35.000Z</time>
      </trkpt>
      <trkpt lat="44.792" lon="0.80207">
        <ele>159</ele>
        <time>2026-05-02T12:34:36.000Z</time>
      </trkpt>
      <trkpt lat="44.79202" lon="0.80204">
        <ele>158.1</ele>
        <time>2026-05-02T12:34:37.000Z</time>
      </trkpt>
      <trkpt lat="44.79204" lon="0.80202">
        <ele>157</ele>
        <time>2026-05-02T12:34:38.000Z</time>
      </trkpt>
      <trkpt lat="44.79205" lon="0.80199">
        <ele>157.3</ele>
        <time>2026-05-02T12:34:39.000Z</time>
      </trkpt>
      <trkpt lat="44.79207" lon="0.80195">
        <ele>156.9</ele>
        <time>2026-05-02T12:34:40.000Z</time>
      </trkpt>
      <trkpt lat="44.79208" lon="0.80192">
        <ele>156.7</ele>
        <time>2026-05-02T12:34:41.000Z</time>
      </trkpt>
      <trkpt lat="44.7921" lon="0.80189">
        <ele>156.6</ele>
        <time>2026-05-02T12:34:42.000Z</time>
      </trkpt>
      <trkpt lat="44.79211" lon="0.80187">
        <ele>156.8</ele>
        <time>2026-05-02T12:34:43.000Z</time>
      </trkpt>
      <trkpt lat="44.79213" lon="0.80184">
        <ele>157.1</ele>
        <time>2026-05-02T12:34:44.000Z</time>
      </trkpt>
      <trkpt lat="44.79214" lon="0.80181">
        <ele>156.9</ele>
        <time>2026-05-02T12:34:45.000Z</time>
      </trkpt>
      <trkpt lat="44.79216" lon="0.80178">
        <ele>156.4</ele>
        <time>2026-05-02T12:34:46.000Z</time>
      </trkpt>
      <trkpt lat="44.79217" lon="0.80174">
        <ele>156.1</ele>
        <time>2026-05-02T12:34:47.000Z</time>
      </trkpt>
      <trkpt lat="44.79218" lon="0.8017">
        <ele>155.6</ele>
        <time>2026-05-02T12:34:48.000Z</time>
      </trkpt>
      <trkpt lat="44.79219" lon="0.80166">
        <ele>155.5</ele>
        <time>2026-05-02T12:34:49.000Z</time>
      </trkpt>
      <trkpt lat="44.79219" lon="0.80162">
        <ele>156.2</ele>
        <time>2026-05-02T12:34:50.000Z</time>
      </trkpt>
      <trkpt lat="44.7922" lon="0.80157">
        <ele>156.8</ele>
        <time>2026-05-02T12:34:51.000Z</time>
      </trkpt>
      <trkpt lat="44.7922" lon="0.80152">
        <ele>157.3</ele>
        <time>2026-05-02T12:34:52.000Z</time>
      </trkpt>
      <trkpt lat="44.7922" lon="0.80147">
        <ele>157.3</ele>
        <time>2026-05-02T12:34:53.000Z</time>
      </trkpt>
      <trkpt lat="44.7922" lon="0.80142">
        <ele>158</ele>
        <time>2026-05-02T12:34:54.000Z</time>
      </trkpt>
      <trkpt lat="44.7922" lon="0.80137">
        <ele>158.4</ele>
        <time>2026-05-02T12:34:55.000Z</time>
      </trkpt>
      <trkpt lat="44.79219" lon="0.80133">
        <ele>158.8</ele>
        <time>2026-05-02T12:34:56.000Z</time>
      </trkpt>
      <trkpt lat="44.79219" lon="0.80128">
        <ele>159.1</ele>
        <time>2026-05-02T12:34:57.000Z</time>
      </trkpt>
      <trkpt lat="44.79219" lon="0.80123">
        <ele>159.4</ele>
        <time>2026-05-02T12:34:58.000Z</time>
      </trkpt>
      <trkpt lat="44.79219" lon="0.80118">
        <ele>159.5</ele>
        <time>2026-05-02T12:34:59.000Z</time>
      </trkpt>
      <trkpt lat="44.79219" lon="0.80113">
        <ele>159.5</ele>
        <time>2026-05-02T12:35:00.000Z</time>
      </trkpt>
      <trkpt lat="44.7922" lon="0.80108">
        <ele>159.7</ele>
        <time>2026-05-02T12:35:01.000Z</time>
      </trkpt>
      <trkpt lat="44.7922" lon="0.80103">
        <ele>159.6</ele>
        <time>2026-05-02T12:35:02.000Z</time>
      </trkpt>
      <trkpt lat="44.7922" lon="0.80099">
        <ele>159.5</ele>
        <time>2026-05-02T12:35:03.000Z</time>
      </trkpt>
      <trkpt lat="44.7922" lon="0.80094">
        <ele>159.4</ele>
        <time>2026-05-02T12:35:04.000Z</time>
      </trkpt>
      <trkpt lat="44.79221" lon="0.8009">
        <ele>159.5</ele>
        <time>2026-05-02T12:35:05.000Z</time>
      </trkpt>
      <trkpt lat="44.79221" lon="0.80085">
        <ele>159.5</ele>
        <time>2026-05-02T12:35:06.000Z</time>
      </trkpt>
      <trkpt lat="44.7922" lon="0.80081">
        <ele>159.6</ele>
        <time>2026-05-02T12:35:07.000Z</time>
      </trkpt>
      <trkpt lat="44.79219" lon="0.80076">
        <ele>159.6</ele>
        <time>2026-05-02T12:35:08.000Z</time>
      </trkpt>
      <trkpt lat="44.79218" lon="0.80072">
        <ele>160.1</ele>
        <time>2026-05-02T12:35:09.000Z</time>
      </trkpt>
      <trkpt lat="44.79217" lon="0.80068">
        <ele>161.1</ele>
        <time>2026-05-02T12:35:10.000Z</time>
      </trkpt>
      <trkpt lat="44.79215" lon="0.80064">
        <ele>162.2</ele>
        <time>2026-05-02T12:35:11.000Z</time>
      </trkpt>
      <trkpt lat="44.79213" lon="0.80061">
        <ele>162.8</ele>
        <time>2026-05-02T12:35:12.000Z</time>
      </trkpt>
      <trkpt lat="44.79212" lon="0.8006">
        <ele>164.9</ele>
        <time>2026-05-02T12:35:13.000Z</time>
      </trkpt>
      <trkpt lat="44.79211" lon="0.80058">
        <ele>166.1</ele>
        <time>2026-05-02T12:35:14.000Z</time>
      </trkpt>
      <trkpt lat="44.7921" lon="0.80057">
        <ele>168.3</ele>
        <time>2026-05-02T12:35:15.000Z</time>
      </trkpt>
      <trkpt lat="44.79208" lon="0.80054">
        <ele>169</ele>
        <time>2026-05-02T12:35:16.000Z</time>
      </trkpt>
      <trkpt lat="44.79207" lon="0.8005">
        <ele>168.4</ele>
        <time>2026-05-02T12:35:17.000Z</time>
      </trkpt>
      <trkpt lat="44.79205" lon="0.80046">
        <ele>168.1</ele>
        <time>2026-05-02T12:35:18.000Z</time>
      </trkpt>
      <trkpt lat="44.79205" lon="0.80041">
        <ele>168.1</ele>
        <time>2026-05-02T12:35:19.000Z</time>
      </trkpt>
      <trkpt lat="44.79204" lon="0.80036">
        <ele>167</ele>
        <time>2026-05-02T12:35:20.000Z</time>
      </trkpt>
      <trkpt lat="44.79204" lon="0.80032">
        <ele>165.3</ele>
        <time>2026-05-02T12:35:21.000Z</time>
      </trkpt>
      <trkpt lat="44.79204" lon="0.80028">
        <ele>163.8</ele>
        <time>2026-05-02T12:35:22.000Z</time>
      </trkpt>
      <trkpt lat="44.79204" lon="0.80024">
        <ele>162.7</ele>
        <time>2026-05-02T12:35:23.000Z</time>
      </trkpt>
      <trkpt lat="44.79204" lon="0.8002">
        <ele>162.9</ele>
        <time>2026-05-02T12:35:24.000Z</time>
      </trkpt>
      <trkpt lat="44.79204" lon="0.80017">
        <ele>164.7</ele>
        <time>2026-05-02T12:35:25.000Z</time>
      </trkpt>
      <trkpt lat="44.79203" lon="0.80015">
        <ele>166.5</ele>
        <time>2026-05-02T12:35:26.000Z</time>
      </trkpt>
      <trkpt lat="44.79203" lon="0.80012">
        <ele>167</ele>
        <time>2026-05-02T12:35:27.000Z</time>
      </trkpt>
      <trkpt lat="44.79202" lon="0.80009">
        <ele>168.4</ele>
        <time>2026-05-02T12:35:28.000Z</time>
      </trkpt>
      <trkpt lat="44.79201" lon="0.80009">
        <ele>168.6</ele>
        <time>2026-05-02T12:35:29.000Z</time>
      </trkpt>
      <trkpt lat="44.79202" lon="0.80009">
        <ele>168.6</ele>
        <time>2026-05-02T12:35:30.000Z</time>
      </trkpt>
      <trkpt lat="44.79202" lon="0.80009">
        <ele>168.6</ele>
        <time>2026-05-02T12:35:31.000Z</time>
      </trkpt>
      <trkpt lat="44.79202" lon="0.80007">
        <ele>168.8</ele>
        <time>2026-05-02T12:35:32.000Z</time>
      </trkpt>
      <trkpt lat="44.79202" lon="0.80006">
        <ele>168.7</ele>
        <time>2026-05-02T12:35:33.000Z</time>
      </trkpt>
      <trkpt lat="44.79202" lon="0.80006">
        <ele>168.7</ele>
        <time>2026-05-02T12:35:34.000Z</time>
      </trkpt>
      <trkpt lat="44.79202" lon="0.80006">
        <ele>168.7</ele>
        <time>2026-05-02T12:35:35.000Z</time>
      </trkpt>
      <trkpt lat="44.79202" lon="0.80006">
        <ele>168.7</ele>
        <time>2026-05-02T12:35:36.000Z</time>
      </trkpt>
      <trkpt lat="44.79202" lon="0.80006">
        <ele>168.7</ele>
        <time>2026-05-02T12:35:37.000Z</time>
      </trkpt>
      <trkpt lat="44.79202" lon="0.80006">
        <ele>168.7</ele>
        <time>2026-05-02T12:35:38.000Z</time>
      </trkpt>
      <trkpt lat="44.79202" lon="0.80006">
        <ele>168.8</ele>
        <time>2026-05-02T12:35:39.000Z</time>
      </trkpt>
      <trkpt lat="44.79202" lon="0.80006">
        <ele>168.8</ele>
        <time>2026-05-02T12:35:40.000Z</time>
      </trkpt>
      <trkpt lat="44.79202" lon="0.80004">
        <ele>168.6</ele>
        <time>2026-05-02T12:35:41.000Z</time>
      </trkpt>
      <trkpt lat="44.79203" lon="0.80002">
        <ele>169</ele>
        <time>2026-05-02T12:35:42.000Z</time>
      </trkpt>
      <trkpt lat="44.79204" lon="0.8">
        <ele>169</ele>
        <time>2026-05-02T12:35:43.000Z</time>
      </trkpt>
      <trkpt lat="44.79206" lon="0.79999">
        <ele>168.9</ele>
        <time>2026-05-02T12:35:44.000Z</time>
      </trkpt>
      <trkpt lat="44.79206" lon="0.79998">
        <ele>168.8</ele>
        <time>2026-05-02T12:35:45.000Z</time>
      </trkpt>
      <trkpt lat="44.79206" lon="0.79996">
        <ele>169.1</ele>
        <time>2026-05-02T12:35:46.000Z</time>
      </trkpt>
      <trkpt lat="44.79206" lon="0.79995">
        <ele>168.2</ele>
        <time>2026-05-02T12:35:47.000Z</time>
      </trkpt>
      <trkpt lat="44.79206" lon="0.79993">
        <ele>167.9</ele>
        <time>2026-05-02T12:35:48.000Z</time>
      </trkpt>
      <trkpt lat="44.79207" lon="0.79991">
        <ele>168</ele>
        <time>2026-05-02T12:35:49.000Z</time>
      </trkpt>
      <trkpt lat="44.79207" lon="0.79988">
        <ele>167.6</ele>
        <time>2026-05-02T12:35:50.000Z</time>
      </trkpt>
      <trkpt lat="44.79207" lon="0.79986">
        <ele>167.8</ele>
        <time>2026-05-02T12:35:51.000Z</time>
      </trkpt>
      <trkpt lat="44.79207" lon="0.79983">
        <ele>167.7</ele>
        <time>2026-05-02T12:35:52.000Z</time>
      </trkpt>
      <trkpt lat="44.79207" lon="0.79981">
        <ele>167.3</ele>
        <time>2026-05-02T12:35:53.000Z</time>
      </trkpt>
      <trkpt lat="44.79207" lon="0.79979">
        <ele>167.5</ele>
        <time>2026-05-02T12:35:54.000Z</time>
      </trkpt>
      <trkpt lat="44.79207" lon="0.79976">
        <ele>168</ele>
        <time>2026-05-02T12:35:55.000Z</time>
      </trkpt>
      <trkpt lat="44.79208" lon="0.79974">
        <ele>167.9</ele>
        <time>2026-05-02T12:35:56.000Z</time>
      </trkpt>
      <trkpt lat="44.79208" lon="0.79972">
        <ele>167.5</ele>
        <time>2026-05-02T12:35:57.000Z</time>
      </trkpt>
      <trkpt lat="44.79208" lon="0.7997">
        <ele>169</ele>
        <time>2026-05-02T12:35:58.000Z</time>
      </trkpt>
      <trkpt lat="44.79208" lon="0.79967">
        <ele>169.1</ele>
        <time>2026-05-02T12:35:59.000Z</time>
      </trkpt>
      <trkpt lat="44.79208" lon="0.79965">
        <ele>169.1</ele>
        <time>2026-05-02T12:36:00.000Z</time>
      </trkpt>
      <trkpt lat="44.79209" lon="0.79963">
        <ele>168.8</ele>
        <time>2026-05-02T12:36:01.000Z</time>
      </trkpt>
      <trkpt lat="44.79209" lon="0.7996">
        <ele>169.3</ele>
        <time>2026-05-02T12:36:02.000Z</time>
      </trkpt>
      <trkpt lat="44.79209" lon="0.79958">
        <ele>169.5</ele>
        <time>2026-05-02T12:36:03.000Z</time>
      </trkpt>
      <trkpt lat="44.79209" lon="0.79956">
        <ele>170.7</ele>
        <time>2026-05-02T12:36:04.000Z</time>
      </trkpt>
      <trkpt lat="44.79209" lon="0.79954">
        <ele>171.1</ele>
        <time>2026-05-02T12:36:05.000Z</time>
      </trkpt>
      <trkpt lat="44.79209" lon="0.79952">
        <ele>171.6</ele>
        <time>2026-05-02T12:36:06.000Z</time>
      </trkpt>
      <trkpt lat="44.79209" lon="0.79949">
        <ele>171.5</ele>
        <time>2026-05-02T12:36:07.000Z</time>
      </trkpt>
      <trkpt lat="44.79209" lon="0.79947">
        <ele>170.9</ele>
        <time>2026-05-02T12:36:08.000Z</time>
      </trkpt>
      <trkpt lat="44.79209" lon="0.79945">
        <ele>172.2</ele>
        <time>2026-05-02T12:36:09.000Z</time>
      </trkpt>
      <trkpt lat="44.79209" lon="0.79943">
        <ele>172.4</ele>
        <time>2026-05-02T12:36:10.000Z</time>
      </trkpt>
      <trkpt lat="44.79209" lon="0.79942">
        <ele>171.6</ele>
        <time>2026-05-02T12:36:11.000Z</time>
      </trkpt>
      <trkpt lat="44.79209" lon="0.79941">
        <ele>171.2</ele>
        <time>2026-05-02T12:36:12.000Z</time>
      </trkpt>
      <trkpt lat="44.79208" lon="0.7994">
        <ele>172.4</ele>
        <time>2026-05-02T12:36:13.000Z</time>
      </trkpt>
      <trkpt lat="44.79209" lon="0.79938">
        <ele>171</ele>
        <time>2026-05-02T12:36:14.000Z</time>
      </trkpt>
      <trkpt lat="44.79209" lon="0.79935">
        <ele>171</ele>
        <time>2026-05-02T12:36:15.000Z</time>
      </trkpt>
      <trkpt lat="44.79209" lon="0.79933">
        <ele>169.6</ele>
        <time>2026-05-02T12:36:16.000Z</time>
      </trkpt>
      <trkpt lat="44.7921" lon="0.79931">
        <ele>169.7</ele>
        <time>2026-05-02T12:36:17.000Z</time>
      </trkpt>
      <trkpt lat="44.7921" lon="0.79929">
        <ele>170.8</ele>
        <time>2026-05-02T12:36:18.000Z</time>
      </trkpt>
      <trkpt lat="44.7921" lon="0.79927">
        <ele>171.7</ele>
        <time>2026-05-02T12:36:19.000Z</time>
      </trkpt>
      <trkpt lat="44.7921" lon="0.79925">
        <ele>172.2</ele>
        <time>2026-05-02T12:36:20.000Z</time>
      </trkpt>
      <trkpt lat="44.7921" lon="0.79923">
        <ele>172.1</ele>
        <time>2026-05-02T12:36:21.000Z</time>
      </trkpt>
      <trkpt lat="44.79209" lon="0.79921">
        <ele>172</ele>
        <time>2026-05-02T12:36:22.000Z</time>
      </trkpt>
      <trkpt lat="44.79209" lon="0.7992">
        <ele>172.2</ele>
        <time>2026-05-02T12:36:23.000Z</time>
      </trkpt>
      <trkpt lat="44.79209" lon="0.79918">
        <ele>172</ele>
        <time>2026-05-02T12:36:24.000Z</time>
      </trkpt>
      <trkpt lat="44.79208" lon="0.79916">
        <ele>172.5</ele>
        <time>2026-05-02T12:36:25.000Z</time>
      </trkpt>
      <trkpt lat="44.79208" lon="0.79913">
        <ele>172.6</ele>
        <time>2026-05-02T12:36:26.000Z</time>
      </trkpt>
      <trkpt lat="44.79209" lon="0.7991">
        <ele>169</ele>
        <time>2026-05-02T12:36:27.000Z</time>
      </trkpt>
      <trkpt lat="44.79209" lon="0.79907">
        <ele>168.6</ele>
        <time>2026-05-02T12:36:28.000Z</time>
      </trkpt>
      <trkpt lat="44.7921" lon="0.79905">
        <ele>169</ele>
        <time>2026-05-02T12:36:29.000Z</time>
      </trkpt>
      <trkpt lat="44.79211" lon="0.79902">
        <ele>168.4</ele>
        <time>2026-05-02T12:36:30.000Z</time>
      </trkpt>
      <trkpt lat="44.79212" lon="0.799">
        <ele>168</ele>
        <time>2026-05-02T12:36:31.000Z</time>
      </trkpt>
      <trkpt lat="44.79213" lon="0.79897">
        <ele>167</ele>
        <time>2026-05-02T12:36:32.000Z</time>
      </trkpt>
      <trkpt lat="44.79214" lon="0.79894">
        <ele>167.1</ele>
        <time>2026-05-02T12:36:33.000Z</time>
      </trkpt>
      <trkpt lat="44.79214" lon="0.79891">
        <ele>166.9</ele>
        <time>2026-05-02T12:36:34.000Z</time>
      </trkpt>
      <trkpt lat="44.79215" lon="0.79889">
        <ele>166.1</ele>
        <time>2026-05-02T12:36:35.000Z</time>
      </trkpt>
      <trkpt lat="44.79216" lon="0.79886">
        <ele>166.1</ele>
        <time>2026-05-02T12:36:36.000Z</time>
      </trkpt>
      <trkpt lat="44.79217" lon="0.79884">
        <ele>165.9</ele>
        <time>2026-05-02T12:36:37.000Z</time>
      </trkpt>
      <trkpt lat="44.79217" lon="0.79882">
        <ele>168.6</ele>
        <time>2026-05-02T12:36:38.000Z</time>
      </trkpt>
      <trkpt lat="44.79218" lon="0.7988">
        <ele>168.2</ele>
        <time>2026-05-02T12:36:39.000Z</time>
      </trkpt>
      <trkpt lat="44.79218" lon="0.79878">
        <ele>166.9</ele>
        <time>2026-05-02T12:36:40.000Z</time>
      </trkpt>
      <trkpt lat="44.79218" lon="0.79876">
        <ele>167.3</ele>
        <time>2026-05-02T12:36:41.000Z</time>
      </trkpt>
      <trkpt lat="44.79219" lon="0.79874">
        <ele>167.1</ele>
        <time>2026-05-02T12:36:42.000Z</time>
      </trkpt>
      <trkpt lat="44.79219" lon="0.79872">
        <ele>167</ele>
        <time>2026-05-02T12:36:43.000Z</time>
      </trkpt>
      <trkpt lat="44.79219" lon="0.7987">
        <ele>166.7</ele>
        <time>2026-05-02T12:36:44.000Z</time>
      </trkpt>
      <trkpt lat="44.79219" lon="0.79868">
        <ele>166.5</ele>
        <time>2026-05-02T12:36:45.000Z</time>
      </trkpt>
      <trkpt lat="44.79219" lon="0.79866">
        <ele>168.8</ele>
        <time>2026-05-02T12:36:46.000Z</time>
      </trkpt>
      <trkpt lat="44.79218" lon="0.79865">
        <ele>170.2</ele>
        <time>2026-05-02T12:36:47.000Z</time>
      </trkpt>
      <trkpt lat="44.79218" lon="0.79862">
        <ele>170.1</ele>
        <time>2026-05-02T12:36:48.000Z</time>
      </trkpt>
      <trkpt lat="44.79219" lon="0.79859">
        <ele>169.5</ele>
        <time>2026-05-02T12:36:49.000Z</time>
      </trkpt>
      <trkpt lat="44.79219" lon="0.79856">
        <ele>169.6</ele>
        <time>2026-05-02T12:36:50.000Z</time>
      </trkpt>
      <trkpt lat="44.79219" lon="0.79854">
        <ele>170</ele>
        <time>2026-05-02T12:36:51.000Z</time>
      </trkpt>
      <trkpt lat="44.79219" lon="0.79851">
        <ele>171.5</ele>
        <time>2026-05-02T12:36:52.000Z</time>
      </trkpt>
      <trkpt lat="44.7922" lon="0.79848">
        <ele>171.8</ele>
        <time>2026-05-02T12:36:53.000Z</time>
      </trkpt>
      <trkpt lat="44.7922" lon="0.79846">
        <ele>171.4</ele>
        <time>2026-05-02T12:36:54.000Z</time>
      </trkpt>
      <trkpt lat="44.7922" lon="0.79844">
        <ele>171.1</ele>
        <time>2026-05-02T12:36:55.000Z</time>
      </trkpt>
      <trkpt lat="44.79221" lon="0.79842">
        <ele>169.6</ele>
        <time>2026-05-02T12:36:56.000Z</time>
      </trkpt>
      <trkpt lat="44.79221" lon="0.79839">
        <ele>169.4</ele>
        <time>2026-05-02T12:36:57.000Z</time>
      </trkpt>
      <trkpt lat="44.79221" lon="0.79836">
        <ele>167.5</ele>
        <time>2026-05-02T12:36:58.000Z</time>
      </trkpt>
      <trkpt lat="44.79222" lon="0.79833">
        <ele>167.2</ele>
        <time>2026-05-02T12:36:59.000Z</time>
      </trkpt>
      <trkpt lat="44.79223" lon="0.79831">
        <ele>166.3</ele>
        <time>2026-05-02T12:37:00.000Z</time>
      </trkpt>
      <trkpt lat="44.79225" lon="0.79829">
        <ele>166.2</ele>
        <time>2026-05-02T12:37:01.000Z</time>
      </trkpt>
      <trkpt lat="44.79226" lon="0.79827">
        <ele>164.9</ele>
        <time>2026-05-02T12:37:02.000Z</time>
      </trkpt>
      <trkpt lat="44.79227" lon="0.79824">
        <ele>162.6</ele>
        <time>2026-05-02T12:37:03.000Z</time>
      </trkpt>
      <trkpt lat="44.79228" lon="0.79821">
        <ele>162.8</ele>
        <time>2026-05-02T12:37:04.000Z</time>
      </trkpt>
      <trkpt lat="44.79228" lon="0.79818">
        <ele>162.4</ele>
        <time>2026-05-02T12:37:05.000Z</time>
      </trkpt>
      <trkpt lat="44.79228" lon="0.79815">
        <ele>163.7</ele>
        <time>2026-05-02T12:37:06.000Z</time>
      </trkpt>
      <trkpt lat="44.79228" lon="0.79813">
        <ele>163.9</ele>
        <time>2026-05-02T12:37:07.000Z</time>
      </trkpt>
      <trkpt lat="44.79229" lon="0.7981">
        <ele>164.2</ele>
        <time>2026-05-02T12:37:08.000Z</time>
      </trkpt>
      <trkpt lat="44.7923" lon="0.79807">
        <ele>164</ele>
        <time>2026-05-02T12:37:09.000Z</time>
      </trkpt>
      <trkpt lat="44.7923" lon="0.79804">
        <ele>164.9</ele>
        <time>2026-05-02T12:37:10.000Z</time>
      </trkpt>
      <trkpt lat="44.7923" lon="0.79801">
        <ele>165.3</ele>
        <time>2026-05-02T12:37:11.000Z</time>
      </trkpt>
      <trkpt lat="44.7923" lon="0.79798">
        <ele>165.4</ele>
        <time>2026-05-02T12:37:12.000Z</time>
      </trkpt>
      <trkpt lat="44.79229" lon="0.79794">
        <ele>165.5</ele>
        <time>2026-05-02T12:37:13.000Z</time>
      </trkpt>
      <trkpt lat="44.7923" lon="0.7979">
        <ele>165.6</ele>
        <time>2026-05-02T12:37:14.000Z</time>
      </trkpt>
      <trkpt lat="44.79231" lon="0.79786">
        <ele>165.9</ele>
        <time>2026-05-02T12:37:15.000Z</time>
      </trkpt>
      <trkpt lat="44.7923" lon="0.79782">
        <ele>166.8</ele>
        <time>2026-05-02T12:37:16.000Z</time>
      </trkpt>
      <trkpt lat="44.7923" lon="0.79778">
        <ele>167.7</ele>
        <time>2026-05-02T12:37:17.000Z</time>
      </trkpt>
      <trkpt lat="44.7923" lon="0.79773">
        <ele>166.6</ele>
        <time>2026-05-02T12:37:18.000Z</time>
      </trkpt>
      <trkpt lat="44.7923" lon="0.79768">
        <ele>167.2</ele>
        <time>2026-05-02T12:37:19.000Z</time>
      </trkpt>
      <trkpt lat="44.7923" lon="0.79762">
        <ele>167.7</ele>
        <time>2026-05-02T12:37:20.000Z</time>
      </trkpt>
      <trkpt lat="44.7923" lon="0.79756">
        <ele>166.4</ele>
        <time>2026-05-02T12:37:21.000Z</time>
      </trkpt>
      <trkpt lat="44.7923" lon="0.79751">
        <ele>165.8</ele>
        <time>2026-05-02T12:37:22.000Z</time>
      </trkpt>
      <trkpt lat="44.7923" lon="0.79747">
        <ele>167</ele>
        <time>2026-05-02T12:37:23.000Z</time>
      </trkpt>
      <trkpt lat="44.7923" lon="0.79741">
        <ele>168.1</ele>
        <time>2026-05-02T12:37:24.000Z</time>
      </trkpt>
      <trkpt lat="44.7923" lon="0.79736">
        <ele>169.5</ele>
        <time>2026-05-02T12:37:25.000Z</time>
      </trkpt>
      <trkpt lat="44.7923" lon="0.79731">
        <ele>169.9</ele>
        <time>2026-05-02T12:37:26.000Z</time>
      </trkpt>
      <trkpt lat="44.7923" lon="0.79726">
        <ele>170.3</ele>
        <time>2026-05-02T12:37:27.000Z</time>
      </trkpt>
      <trkpt lat="44.7923" lon="0.79719">
        <ele>166.8</ele>
        <time>2026-05-02T12:37:28.000Z</time>
      </trkpt>
      <trkpt lat="44.79231" lon="0.79712">
        <ele>165.8</ele>
        <time>2026-05-02T12:37:29.000Z</time>
      </trkpt>
      <trkpt lat="44.79231" lon="0.79706">
        <ele>164.2</ele>
        <time>2026-05-02T12:37:30.000Z</time>
      </trkpt>
      <trkpt lat="44.79232" lon="0.797">
        <ele>163.8</ele>
        <time>2026-05-02T12:37:31.000Z</time>
      </trkpt>
      <trkpt lat="44.79234" lon="0.79695">
        <ele>163</ele>
        <time>2026-05-02T12:37:32.000Z</time>
      </trkpt>
      <trkpt lat="44.79234" lon="0.79691">
        <ele>162.9</ele>
        <time>2026-05-02T12:37:33.000Z</time>
      </trkpt>
      <trkpt lat="44.79236" lon="0.79686">
        <ele>162.8</ele>
        <time>2026-05-02T12:37:34.000Z</time>
      </trkpt>
      <trkpt lat="44.79238" lon="0.79681">
        <ele>162.5</ele>
        <time>2026-05-02T12:37:35.000Z</time>
      </trkpt>
      <trkpt lat="44.79239" lon="0.79677">
        <ele>161.6</ele>
        <time>2026-05-02T12:37:36.000Z</time>
      </trkpt>
      <trkpt lat="44.79241" lon="0.79674">
        <ele>160.8</ele>
        <time>2026-05-02T12:37:37.000Z</time>
      </trkpt>
      <trkpt lat="44.79242" lon="0.79671">
        <ele>160.7</ele>
        <time>2026-05-02T12:37:38.000Z</time>
      </trkpt>
      <trkpt lat="44.79244" lon="0.79668">
        <ele>160.7</ele>
        <time>2026-05-02T12:37:39.000Z</time>
      </trkpt>
      <trkpt lat="44.79245" lon="0.79665">
        <ele>161.8</ele>
        <time>2026-05-02T12:37:40.000Z</time>
      </trkpt>
      <trkpt lat="44.79246" lon="0.79663">
        <ele>162.1</ele>
        <time>2026-05-02T12:37:41.000Z</time>
      </trkpt>
      <trkpt lat="44.79247" lon="0.79661">
        <ele>161.6</ele>
        <time>2026-05-02T12:37:42.000Z</time>
      </trkpt>
      <trkpt lat="44.79249" lon="0.79658">
        <ele>161.9</ele>
        <time>2026-05-02T12:37:43.000Z</time>
      </trkpt>
      <trkpt lat="44.7925" lon="0.79656">
        <ele>161.8</ele>
        <time>2026-05-02T12:37:44.000Z</time>
      </trkpt>
      <trkpt lat="44.79252" lon="0.79653">
        <ele>161.7</ele>
        <time>2026-05-02T12:37:45.000Z</time>
      </trkpt>
      <trkpt lat="44.79254" lon="0.79651">
        <ele>161.9</ele>
        <time>2026-05-02T12:37:46.000Z</time>
      </trkpt>
      <trkpt lat="44.79256" lon="0.79649">
        <ele>162.1</ele>
        <time>2026-05-02T12:37:47.000Z</time>
      </trkpt>
      <trkpt lat="44.79257" lon="0.79647">
        <ele>162.3</ele>
        <time>2026-05-02T12:37:48.000Z</time>
      </trkpt>
      <trkpt lat="44.79259" lon="0.79645">
        <ele>162.5</ele>
        <time>2026-05-02T12:37:49.000Z</time>
      </trkpt>
      <trkpt lat="44.79261" lon="0.79643">
        <ele>162.6</ele>
        <time>2026-05-02T12:37:50.000Z</time>
      </trkpt>
      <trkpt lat="44.79263" lon="0.7964">
        <ele>162.8</ele>
        <time>2026-05-02T12:37:51.000Z</time>
      </trkpt>
      <trkpt lat="44.79265" lon="0.79638">
        <ele>163.1</ele>
        <time>2026-05-02T12:37:52.000Z</time>
      </trkpt>
      <trkpt lat="44.79267" lon="0.79636">
        <ele>162.7</ele>
        <time>2026-05-02T12:37:53.000Z</time>
      </trkpt>
      <trkpt lat="44.79269" lon="0.79633">
        <ele>162.4</ele>
        <time>2026-05-02T12:37:54.000Z</time>
      </trkpt>
      <trkpt lat="44.79271" lon="0.79629">
        <ele>162.6</ele>
        <time>2026-05-02T12:37:55.000Z</time>
      </trkpt>
      <trkpt lat="44.79273" lon="0.79626">
        <ele>163.4</ele>
        <time>2026-05-02T12:37:56.000Z</time>
      </trkpt>
      <trkpt lat="44.79275" lon="0.79623">
        <ele>163.5</ele>
        <time>2026-05-02T12:37:57.000Z</time>
      </trkpt>
      <trkpt lat="44.79277" lon="0.7962">
        <ele>163.8</ele>
        <time>2026-05-02T12:37:58.000Z</time>
      </trkpt>
      <trkpt lat="44.79279" lon="0.79617">
        <ele>163.7</ele>
        <time>2026-05-02T12:37:59.000Z</time>
      </trkpt>
      <trkpt lat="44.79281" lon="0.79613">
        <ele>164.9</ele>
        <time>2026-05-02T12:38:00.000Z</time>
      </trkpt>
      <trkpt lat="44.79283" lon="0.7961">
        <ele>165.7</ele>
        <time>2026-05-02T12:38:01.000Z</time>
      </trkpt>
      <trkpt lat="44.79285" lon="0.79606">
        <ele>166</ele>
        <time>2026-05-02T12:38:02.000Z</time>
      </trkpt>
      <trkpt lat="44.79286" lon="0.79602">
        <ele>167.4</ele>
        <time>2026-05-02T12:38:03.000Z</time>
      </trkpt>
      <trkpt lat="44.79289" lon="0.79599">
        <ele>167.7</ele>
        <time>2026-05-02T12:38:04.000Z</time>
      </trkpt>
      <trkpt lat="44.79291" lon="0.79596">
        <ele>168.5</ele>
        <time>2026-05-02T12:38:05.000Z</time>
      </trkpt>
      <trkpt lat="44.79293" lon="0.79592">
        <ele>168.3</ele>
        <time>2026-05-02T12:38:06.000Z</time>
      </trkpt>
      <trkpt lat="44.79295" lon="0.79588">
        <ele>168.1</ele>
        <time>2026-05-02T12:38:07.000Z</time>
      </trkpt>
      <trkpt lat="44.79297" lon="0.79585">
        <ele>168.2</ele>
        <time>2026-05-02T12:38:08.000Z</time>
      </trkpt>
      <trkpt lat="44.79299" lon="0.79581">
        <ele>168.3</ele>
        <time>2026-05-02T12:38:09.000Z</time>
      </trkpt>
      <trkpt lat="44.79301" lon="0.79577">
        <ele>168.1</ele>
        <time>2026-05-02T12:38:10.000Z</time>
      </trkpt>
      <trkpt lat="44.79303" lon="0.79574">
        <ele>168.4</ele>
        <time>2026-05-02T12:38:11.000Z</time>
      </trkpt>
      <trkpt lat="44.79305" lon="0.7957">
        <ele>168.4</ele>
        <time>2026-05-02T12:38:12.000Z</time>
      </trkpt>
      <trkpt lat="44.79307" lon="0.79567">
        <ele>168.3</ele>
        <time>2026-05-02T12:38:13.000Z</time>
      </trkpt>
      <trkpt lat="44.79309" lon="0.79564">
        <ele>167.9</ele>
        <time>2026-05-02T12:38:14.000Z</time>
      </trkpt>
      <trkpt lat="44.79311" lon="0.7956">
        <ele>167.8</ele>
        <time>2026-05-02T12:38:15.000Z</time>
      </trkpt>
      <trkpt lat="44.79313" lon="0.79557">
        <ele>167.3</ele>
        <time>2026-05-02T12:38:16.000Z</time>
      </trkpt>
      <trkpt lat="44.79315" lon="0.79553">
        <ele>166.9</ele>
        <time>2026-05-02T12:38:17.000Z</time>
      </trkpt>
      <trkpt lat="44.79316" lon="0.79549">
        <ele>166.8</ele>
        <time>2026-05-02T12:38:18.000Z</time>
      </trkpt>
      <trkpt lat="44.79318" lon="0.79545">
        <ele>166.8</ele>
        <time>2026-05-02T12:38:19.000Z</time>
      </trkpt>
      <trkpt lat="44.7932" lon="0.79541">
        <ele>167.2</ele>
        <time>2026-05-02T12:38:20.000Z</time>
      </trkpt>
      <trkpt lat="44.79321" lon="0.79537">
        <ele>167</ele>
        <time>2026-05-02T12:38:21.000Z</time>
      </trkpt>
      <trkpt lat="44.79323" lon="0.79532">
        <ele>167.1</ele>
        <time>2026-05-02T12:38:22.000Z</time>
      </trkpt>
      <trkpt lat="44.79324" lon="0.79527">
        <ele>167.1</ele>
        <time>2026-05-02T12:38:23.000Z</time>
      </trkpt>
      <trkpt lat="44.79325" lon="0.79523">
        <ele>166.6</ele>
        <time>2026-05-02T12:38:24.000Z</time>
      </trkpt>
      <trkpt lat="44.79326" lon="0.79518">
        <ele>166.4</ele>
        <time>2026-05-02T12:38:25.000Z</time>
      </trkpt>
      <trkpt lat="44.79327" lon="0.79514">
        <ele>166.8</ele>
        <time>2026-05-02T12:38:26.000Z</time>
      </trkpt>
      <trkpt lat="44.79328" lon="0.79509">
        <ele>167.5</ele>
        <time>2026-05-02T12:38:27.000Z</time>
      </trkpt>
      <trkpt lat="44.79329" lon="0.79504">
        <ele>167.7</ele>
        <time>2026-05-02T12:38:28.000Z</time>
      </trkpt>
      <trkpt lat="44.7933" lon="0.795">
        <ele>167.8</ele>
        <time>2026-05-02T12:38:29.000Z</time>
      </trkpt>
      <trkpt lat="44.79331" lon="0.79496">
        <ele>167.9</ele>
        <time>2026-05-02T12:38:30.000Z</time>
      </trkpt>
      <trkpt lat="44.79332" lon="0.79493">
        <ele>167.3</ele>
        <time>2026-05-02T12:38:31.000Z</time>
      </trkpt>
      <trkpt lat="44.79334" lon="0.79489">
        <ele>167.1</ele>
        <time>2026-05-02T12:38:32.000Z</time>
      </trkpt>
      <trkpt lat="44.79335" lon="0.79486">
        <ele>166.3</ele>
        <time>2026-05-02T12:38:33.000Z</time>
      </trkpt>
      <trkpt lat="44.79336" lon="0.79484">
        <ele>165.8</ele>
        <time>2026-05-02T12:38:34.000Z</time>
      </trkpt>
      <trkpt lat="44.79337" lon="0.79482">
        <ele>165.5</ele>
        <time>2026-05-02T12:38:35.000Z</time>
      </trkpt>
      <trkpt lat="44.79338" lon="0.7948">
        <ele>165.1</ele>
        <time>2026-05-02T12:38:36.000Z</time>
      </trkpt>
      <trkpt lat="44.79339" lon="0.79478">
        <ele>164.2</ele>
        <time>2026-05-02T12:38:37.000Z</time>
      </trkpt>
      <trkpt lat="44.7934" lon="0.79477">
        <ele>163.4</ele>
        <time>2026-05-02T12:38:38.000Z</time>
      </trkpt>
      <trkpt lat="44.79341" lon="0.79474">
        <ele>162.7</ele>
        <time>2026-05-02T12:38:39.000Z</time>
      </trkpt>
      <trkpt lat="44.79342" lon="0.79472">
        <ele>162.1</ele>
        <time>2026-05-02T12:38:40.000Z</time>
      </trkpt>
      <trkpt lat="44.79342" lon="0.7947">
        <ele>162</ele>
        <time>2026-05-02T12:38:41.000Z</time>
      </trkpt>
      <trkpt lat="44.79343" lon="0.79469">
        <ele>162.1</ele>
        <time>2026-05-02T12:38:42.000Z</time>
      </trkpt>
      <trkpt lat="44.79343" lon="0.79467">
        <ele>161.9</ele>
        <time>2026-05-02T12:38:43.000Z</time>
      </trkpt>
      <trkpt lat="44.79344" lon="0.79465">
        <ele>163</ele>
        <time>2026-05-02T12:38:44.000Z</time>
      </trkpt>
      <trkpt lat="44.79344" lon="0.79463">
        <ele>163</ele>
        <time>2026-05-02T12:38:45.000Z</time>
      </trkpt>
      <trkpt lat="44.79345" lon="0.79462">
        <ele>163.5</ele>
        <time>2026-05-02T12:38:46.000Z</time>
      </trkpt>
      <trkpt lat="44.79345" lon="0.7946">
        <ele>164.5</ele>
        <time>2026-05-02T12:38:47.000Z</time>
      </trkpt>
      <trkpt lat="44.79346" lon="0.79458">
        <ele>165.6</ele>
        <time>2026-05-02T12:38:48.000Z</time>
      </trkpt>
      <trkpt lat="44.79346" lon="0.79456">
        <ele>165.7</ele>
        <time>2026-05-02T12:38:49.000Z</time>
      </trkpt>
      <trkpt lat="44.79347" lon="0.79455">
        <ele>165</ele>
        <time>2026-05-02T12:38:50.000Z</time>
      </trkpt>
      <trkpt lat="44.79347" lon="0.79453">
        <ele>164.7</ele>
        <time>2026-05-02T12:38:51.000Z</time>
      </trkpt>
      <trkpt lat="44.79348" lon="0.79451">
        <ele>164.7</ele>
        <time>2026-05-02T12:38:52.000Z</time>
      </trkpt>
      <trkpt lat="44.79348" lon="0.79449">
        <ele>164.3</ele>
        <time>2026-05-02T12:38:53.000Z</time>
      </trkpt>
      <trkpt lat="44.79349" lon="0.79447">
        <ele>163.8</ele>
        <time>2026-05-02T12:38:54.000Z</time>
      </trkpt>
      <trkpt lat="44.79349" lon="0.79445">
        <ele>163.9</ele>
        <time>2026-05-02T12:38:55.000Z</time>
      </trkpt>
      <trkpt lat="44.7935" lon="0.79443">
        <ele>164.3</ele>
        <time>2026-05-02T12:38:56.000Z</time>
      </trkpt>
      <trkpt lat="44.79351" lon="0.79441">
        <ele>163.9</ele>
        <time>2026-05-02T12:38:57.000Z</time>
      </trkpt>
      <trkpt lat="44.79351" lon="0.79439">
        <ele>164.1</ele>
        <time>2026-05-02T12:38:58.000Z</time>
      </trkpt>
      <trkpt lat="44.79352" lon="0.79437">
        <ele>163.8</ele>
        <time>2026-05-02T12:38:59.000Z</time>
      </trkpt>
      <trkpt lat="44.79353" lon="0.79435">
        <ele>163.7</ele>
        <time>2026-05-02T12:39:00.000Z</time>
      </trkpt>
      <trkpt lat="44.79353" lon="0.79433">
        <ele>164.3</ele>
        <time>2026-05-02T12:39:01.000Z</time>
      </trkpt>
      <trkpt lat="44.79354" lon="0.79431">
        <ele>163.6</ele>
        <time>2026-05-02T12:39:02.000Z</time>
      </trkpt>
      <trkpt lat="44.79355" lon="0.79429">
        <ele>163.4</ele>
        <time>2026-05-02T12:39:03.000Z</time>
      </trkpt>
      <trkpt lat="44.79356" lon="0.79426">
        <ele>163.5</ele>
        <time>2026-05-02T12:39:04.000Z</time>
      </trkpt>
      <trkpt lat="44.79356" lon="0.79424">
        <ele>163.3</ele>
        <time>2026-05-02T12:39:05.000Z</time>
      </trkpt>
      <trkpt lat="44.79357" lon="0.79422">
        <ele>163</ele>
        <time>2026-05-02T12:39:06.000Z</time>
      </trkpt>
      <trkpt lat="44.79358" lon="0.7942">
        <ele>162.6</ele>
        <time>2026-05-02T12:39:07.000Z</time>
      </trkpt>
      <trkpt lat="44.79359" lon="0.79418">
        <ele>162.3</ele>
        <time>2026-05-02T12:39:08.000Z</time>
      </trkpt>
      <trkpt lat="44.7936" lon="0.79415">
        <ele>162.1</ele>
        <time>2026-05-02T12:39:09.000Z</time>
      </trkpt>
      <trkpt lat="44.7936" lon="0.79413">
        <ele>161.9</ele>
        <time>2026-05-02T12:39:10.000Z</time>
      </trkpt>
      <trkpt lat="44.79361" lon="0.79411">
        <ele>161.7</ele>
        <time>2026-05-02T12:39:11.000Z</time>
      </trkpt>
      <trkpt lat="44.79362" lon="0.79409">
        <ele>161.6</ele>
        <time>2026-05-02T12:39:12.000Z</time>
      </trkpt>
      <trkpt lat="44.79363" lon="0.79407">
        <ele>161.9</ele>
        <time>2026-05-02T12:39:13.000Z</time>
      </trkpt>
      <trkpt lat="44.79364" lon="0.79405">
        <ele>161.7</ele>
        <time>2026-05-02T12:39:14.000Z</time>
      </trkpt>
      <trkpt lat="44.79365" lon="0.79403">
        <ele>161</ele>
        <time>2026-05-02T12:39:15.000Z</time>
      </trkpt>
      <trkpt lat="44.79365" lon="0.79401">
        <ele>161.2</ele>
        <time>2026-05-02T12:39:16.000Z</time>
      </trkpt>
      <trkpt lat="44.79366" lon="0.79399">
        <ele>160.7</ele>
        <time>2026-05-02T12:39:17.000Z</time>
      </trkpt>
      <trkpt lat="44.79367" lon="0.79397">
        <ele>160.8</ele>
        <time>2026-05-02T12:39:18.000Z</time>
      </trkpt>
      <trkpt lat="44.79367" lon="0.79395">
        <ele>160.7</ele>
        <time>2026-05-02T12:39:19.000Z</time>
      </trkpt>
      <trkpt lat="44.79368" lon="0.79393">
        <ele>160.6</ele>
        <time>2026-05-02T12:39:20.000Z</time>
      </trkpt>
      <trkpt lat="44.79368" lon="0.79391">
        <ele>160.8</ele>
        <time>2026-05-02T12:39:21.000Z</time>
      </trkpt>
      <trkpt lat="44.79368" lon="0.79389">
        <ele>160.8</ele>
        <time>2026-05-02T12:39:22.000Z</time>
      </trkpt>
      <trkpt lat="44.79369" lon="0.79387">
        <ele>160.4</ele>
        <time>2026-05-02T12:39:23.000Z</time>
      </trkpt>
      <trkpt lat="44.7937" lon="0.79385">
        <ele>160.2</ele>
        <time>2026-05-02T12:39:24.000Z</time>
      </trkpt>
      <trkpt lat="44.79371" lon="0.79383">
        <ele>160.3</ele>
        <time>2026-05-02T12:39:25.000Z</time>
      </trkpt>
      <trkpt lat="44.79373" lon="0.79381">
        <ele>160.5</ele>
        <time>2026-05-02T12:39:26.000Z</time>
      </trkpt>
      <trkpt lat="44.79374" lon="0.79379">
        <ele>160</ele>
        <time>2026-05-02T12:39:27.000Z</time>
      </trkpt>
      <trkpt lat="44.79375" lon="0.79377">
        <ele>160</ele>
        <time>2026-05-02T12:39:28.000Z</time>
      </trkpt>
      <trkpt lat="44.79376" lon="0.79375">
        <ele>160.1</ele>
        <time>2026-05-02T12:39:29.000Z</time>
      </trkpt>
      <trkpt lat="44.79377" lon="0.79374">
        <ele>159.8</ele>
        <time>2026-05-02T12:39:30.000Z</time>
      </trkpt>
      <trkpt lat="44.79378" lon="0.79372">
        <ele>159.8</ele>
        <time>2026-05-02T12:39:31.000Z</time>
      </trkpt>
      <trkpt lat="44.79379" lon="0.7937">
        <ele>159.3</ele>
        <time>2026-05-02T12:39:32.000Z</time>
      </trkpt>
      <trkpt lat="44.79379" lon="0.79369">
        <ele>159.3</ele>
        <time>2026-05-02T12:39:33.000Z</time>
      </trkpt>
      <trkpt lat="44.7938" lon="0.79367">
        <ele>159.3</ele>
        <time>2026-05-02T12:39:34.000Z</time>
      </trkpt>
      <trkpt lat="44.79381" lon="0.79365">
        <ele>159.2</ele>
        <time>2026-05-02T12:39:35.000Z</time>
      </trkpt>
      <trkpt lat="44.79382" lon="0.79363">
        <ele>159.2</ele>
        <time>2026-05-02T12:39:36.000Z</time>
      </trkpt>
      <trkpt lat="44.79383" lon="0.79361">
        <ele>159.2</ele>
        <time>2026-05-02T12:39:37.000Z</time>
      </trkpt>
      <trkpt lat="44.79385" lon="0.79358">
        <ele>159.2</ele>
        <time>2026-05-02T12:39:38.000Z</time>
      </trkpt>
      <trkpt lat="44.79385" lon="0.79356">
        <ele>159</ele>
        <time>2026-05-02T12:39:39.000Z</time>
      </trkpt>
      <trkpt lat="44.79386" lon="0.79354">
        <ele>158.7</ele>
        <time>2026-05-02T12:39:40.000Z</time>
      </trkpt>
      <trkpt lat="44.79386" lon="0.79352">
        <ele>158.2</ele>
        <time>2026-05-02T12:39:41.000Z</time>
      </trkpt>
      <trkpt lat="44.79386" lon="0.7935">
        <ele>157.9</ele>
        <time>2026-05-02T12:39:42.000Z</time>
      </trkpt>
      <trkpt lat="44.79387" lon="0.79348">
        <ele>157.6</ele>
        <time>2026-05-02T12:39:43.000Z</time>
      </trkpt>
      <trkpt lat="44.79387" lon="0.79346">
        <ele>157.5</ele>
        <time>2026-05-02T12:39:44.000Z</time>
      </trkpt>
      <trkpt lat="44.79388" lon="0.79344">
        <ele>157.2</ele>
        <time>2026-05-02T12:39:45.000Z</time>
      </trkpt>
      <trkpt lat="44.79388" lon="0.79342">
        <ele>157</ele>
        <time>2026-05-02T12:39:46.000Z</time>
      </trkpt>
      <trkpt lat="44.79388" lon="0.7934">
        <ele>157</ele>
        <time>2026-05-02T12:39:47.000Z</time>
      </trkpt>
      <trkpt lat="44.79389" lon="0.79338">
        <ele>156.2</ele>
        <time>2026-05-02T12:39:48.000Z</time>
      </trkpt>
      <trkpt lat="44.7939" lon="0.79336">
        <ele>156.1</ele>
        <time>2026-05-02T12:39:49.000Z</time>
      </trkpt>
      <trkpt lat="44.7939" lon="0.79334">
        <ele>156.3</ele>
        <time>2026-05-02T12:39:50.000Z</time>
      </trkpt>
      <trkpt lat="44.79391" lon="0.79332">
        <ele>156</ele>
        <time>2026-05-02T12:39:51.000Z</time>
      </trkpt>
      <trkpt lat="44.79391" lon="0.7933">
        <ele>156.2</ele>
        <time>2026-05-02T12:39:52.000Z</time>
      </trkpt>
      <trkpt lat="44.79392" lon="0.79328">
        <ele>156.4</ele>
        <time>2026-05-02T12:39:53.000Z</time>
      </trkpt>
      <trkpt lat="44.79393" lon="0.79325">
        <ele>156</ele>
        <time>2026-05-02T12:39:54.000Z</time>
      </trkpt>
      <trkpt lat="44.79394" lon="0.79323">
        <ele>156.6</ele>
        <time>2026-05-02T12:39:55.000Z</time>
      </trkpt>
      <trkpt lat="44.79395" lon="0.79322">
        <ele>157</ele>
        <time>2026-05-02T12:39:56.000Z</time>
      </trkpt>
      <trkpt lat="44.79396" lon="0.7932">
        <ele>157.5</ele>
        <time>2026-05-02T12:39:57.000Z</time>
      </trkpt>
      <trkpt lat="44.79397" lon="0.79318">
        <ele>157.1</ele>
        <time>2026-05-02T12:39:58.000Z</time>
      </trkpt>
      <trkpt lat="44.79399" lon="0.79317">
        <ele>155.7</ele>
        <time>2026-05-02T12:39:59.000Z</time>
      </trkpt>
      <trkpt lat="44.794" lon="0.79315">
        <ele>155.6</ele>
        <time>2026-05-02T12:40:00.000Z</time>
      </trkpt>
      <trkpt lat="44.79401" lon="0.79314">
        <ele>155.5</ele>
        <time>2026-05-02T12:40:01.000Z</time>
      </trkpt>
      <trkpt lat="44.79403" lon="0.79315">
        <ele>151.1</ele>
        <time>2026-05-02T12:40:02.000Z</time>
      </trkpt>
      <trkpt lat="44.79405" lon="0.79313">
        <ele>149.9</ele>
        <time>2026-05-02T12:40:03.000Z</time>
      </trkpt>
      <trkpt lat="44.79406" lon="0.79312">
        <ele>149.5</ele>
        <time>2026-05-02T12:40:04.000Z</time>
      </trkpt>
      <trkpt lat="44.79407" lon="0.7931">
        <ele>149.3</ele>
        <time>2026-05-02T12:40:05.000Z</time>
      </trkpt>
      <trkpt lat="44.79408" lon="0.79308">
        <ele>149</ele>
        <time>2026-05-02T12:40:06.000Z</time>
      </trkpt>
      <trkpt lat="44.7941" lon="0.79307">
        <ele>149</ele>
        <time>2026-05-02T12:40:07.000Z</time>
      </trkpt>
      <trkpt lat="44.79411" lon="0.79305">
        <ele>149</ele>
        <time>2026-05-02T12:40:08.000Z</time>
      </trkpt>
      <trkpt lat="44.79413" lon="0.79304">
        <ele>149.9</ele>
        <time>2026-05-02T12:40:09.000Z</time>
      </trkpt>
      <trkpt lat="44.79415" lon="0.79304">
        <ele>149.9</ele>
        <time>2026-05-02T12:40:10.000Z</time>
      </trkpt>
      <trkpt lat="44.79416" lon="0.79303">
        <ele>150.9</ele>
        <time>2026-05-02T12:40:11.000Z</time>
      </trkpt>
      <trkpt lat="44.79418" lon="0.79302">
        <ele>150.6</ele>
        <time>2026-05-02T12:40:12.000Z</time>
      </trkpt>
      <trkpt lat="44.79419" lon="0.79301">
        <ele>151.4</ele>
        <time>2026-05-02T12:40:13.000Z</time>
      </trkpt>
      <trkpt lat="44.79421" lon="0.793">
        <ele>152.2</ele>
        <time>2026-05-02T12:40:14.000Z</time>
      </trkpt>
      <trkpt lat="44.79423" lon="0.79299">
        <ele>153</ele>
        <time>2026-05-02T12:40:15.000Z</time>
      </trkpt>
      <trkpt lat="44.79424" lon="0.79298">
        <ele>153.5</ele>
        <time>2026-05-02T12:40:16.000Z</time>
      </trkpt>
      <trkpt lat="44.79426" lon="0.79297">
        <ele>154.1</ele>
        <time>2026-05-02T12:40:17.000Z</time>
      </trkpt>
      <trkpt lat="44.79428" lon="0.79297">
        <ele>154</ele>
        <time>2026-05-02T12:40:18.000Z</time>
      </trkpt>
      <trkpt lat="44.79429" lon="0.79296">
        <ele>153.8</ele>
        <time>2026-05-02T12:40:19.000Z</time>
      </trkpt>
      <trkpt lat="44.79431" lon="0.79294">
        <ele>153.6</ele>
        <time>2026-05-02T12:40:20.000Z</time>
      </trkpt>
      <trkpt lat="44.79432" lon="0.79293">
        <ele>153.7</ele>
        <time>2026-05-02T12:40:21.000Z</time>
      </trkpt>
      <trkpt lat="44.79434" lon="0.79291">
        <ele>153.7</ele>
        <time>2026-05-02T12:40:22.000Z</time>
      </trkpt>
      <trkpt lat="44.79435" lon="0.7929">
        <ele>153.9</ele>
        <time>2026-05-02T12:40:23.000Z</time>
      </trkpt>
      <trkpt lat="44.79437" lon="0.79288">
        <ele>154.3</ele>
        <time>2026-05-02T12:40:24.000Z</time>
      </trkpt>
      <trkpt lat="44.79438" lon="0.79287">
        <ele>154.5</ele>
        <time>2026-05-02T12:40:25.000Z</time>
      </trkpt>
      <trkpt lat="44.79439" lon="0.79285">
        <ele>154.7</ele>
        <time>2026-05-02T12:40:26.000Z</time>
      </trkpt>
      <trkpt lat="44.79441" lon="0.79283">
        <ele>154.8</ele>
        <time>2026-05-02T12:40:27.000Z</time>
      </trkpt>
      <trkpt lat="44.79442" lon="0.79281">
        <ele>155</ele>
        <time>2026-05-02T12:40:28.000Z</time>
      </trkpt>
      <trkpt lat="44.79443" lon="0.79279">
        <ele>154.3</ele>
        <time>2026-05-02T12:40:29.000Z</time>
      </trkpt>
      <trkpt lat="44.79444" lon="0.79277">
        <ele>154</ele>
        <time>2026-05-02T12:40:30.000Z</time>
      </trkpt>
      <trkpt lat="44.79446" lon="0.79276">
        <ele>154.5</ele>
        <time>2026-05-02T12:40:31.000Z</time>
      </trkpt>
      <trkpt lat="44.79447" lon="0.79274">
        <ele>154.2</ele>
        <time>2026-05-02T12:40:32.000Z</time>
      </trkpt>
      <trkpt lat="44.79448" lon="0.79273">
        <ele>154.3</ele>
        <time>2026-05-02T12:40:33.000Z</time>
      </trkpt>
      <trkpt lat="44.79449" lon="0.79271">
        <ele>154.2</ele>
        <time>2026-05-02T12:40:34.000Z</time>
      </trkpt>
      <trkpt lat="44.7945" lon="0.79269">
        <ele>154.3</ele>
        <time>2026-05-02T12:40:35.000Z</time>
      </trkpt>
      <trkpt lat="44.79452" lon="0.79268">
        <ele>154.1</ele>
        <time>2026-05-02T12:40:36.000Z</time>
      </trkpt>
      <trkpt lat="44.79453" lon="0.79266">
        <ele>154.5</ele>
        <time>2026-05-02T12:40:37.000Z</time>
      </trkpt>
      <trkpt lat="44.79453" lon="0.79265">
        <ele>154.1</ele>
        <time>2026-05-02T12:40:38.000Z</time>
      </trkpt>
      <trkpt lat="44.79454" lon="0.79263">
        <ele>153.8</ele>
        <time>2026-05-02T12:40:39.000Z</time>
      </trkpt>
      <trkpt lat="44.79455" lon="0.79262">
        <ele>153.7</ele>
        <time>2026-05-02T12:40:40.000Z</time>
      </trkpt>
      <trkpt lat="44.79457" lon="0.7926">
        <ele>153.6</ele>
        <time>2026-05-02T12:40:41.000Z</time>
      </trkpt>
      <trkpt lat="44.79458" lon="0.79258">
        <ele>153.1</ele>
        <time>2026-05-02T12:40:42.000Z</time>
      </trkpt>
      <trkpt lat="44.79459" lon="0.79257">
        <ele>153.3</ele>
        <time>2026-05-02T12:40:43.000Z</time>
      </trkpt>
      <trkpt lat="44.79459" lon="0.79255">
        <ele>153.3</ele>
        <time>2026-05-02T12:40:44.000Z</time>
      </trkpt>
      <trkpt lat="44.7946" lon="0.79253">
        <ele>152.6</ele>
        <time>2026-05-02T12:40:45.000Z</time>
      </trkpt>
      <trkpt lat="44.79461" lon="0.79252">
        <ele>152.3</ele>
        <time>2026-05-02T12:40:46.000Z</time>
      </trkpt>
      <trkpt lat="44.79462" lon="0.7925">
        <ele>152.2</ele>
        <time>2026-05-02T12:40:47.000Z</time>
      </trkpt>
      <trkpt lat="44.79463" lon="0.79248">
        <ele>152.4</ele>
        <time>2026-05-02T12:40:48.000Z</time>
      </trkpt>
      <trkpt lat="44.79464" lon="0.79246">
        <ele>152.1</ele>
        <time>2026-05-02T12:40:49.000Z</time>
      </trkpt>
      <trkpt lat="44.79465" lon="0.79244">
        <ele>152</ele>
        <time>2026-05-02T12:40:50.000Z</time>
      </trkpt>
      <trkpt lat="44.79466" lon="0.79242">
        <ele>151.8</ele>
        <time>2026-05-02T12:40:51.000Z</time>
      </trkpt>
      <trkpt lat="44.79468" lon="0.7924">
        <ele>151.1</ele>
        <time>2026-05-02T12:40:52.000Z</time>
      </trkpt>
      <trkpt lat="44.79469" lon="0.79238">
        <ele>151.5</ele>
        <time>2026-05-02T12:40:53.000Z</time>
      </trkpt>
      <trkpt lat="44.7947" lon="0.79236">
        <ele>151</ele>
        <time>2026-05-02T12:40:54.000Z</time>
      </trkpt>
      <trkpt lat="44.79471" lon="0.79234">
        <ele>150.9</ele>
        <time>2026-05-02T12:40:55.000Z</time>
      </trkpt>
      <trkpt lat="44.79472" lon="0.79232">
        <ele>151.3</ele>
        <time>2026-05-02T12:40:56.000Z</time>
      </trkpt>
      <trkpt lat="44.79473" lon="0.7923">
        <ele>151.2</ele>
        <time>2026-05-02T12:40:57.000Z</time>
      </trkpt>
      <trkpt lat="44.79474" lon="0.79227">
        <ele>150.7</ele>
        <time>2026-05-02T12:40:58.000Z</time>
      </trkpt>
      <trkpt lat="44.79475" lon="0.79225">
        <ele>150.3</ele>
        <time>2026-05-02T12:40:59.000Z</time>
      </trkpt>
      <trkpt lat="44.79476" lon="0.79223">
        <ele>150.8</ele>
        <time>2026-05-02T12:41:00.000Z</time>
      </trkpt>
      <trkpt lat="44.79477" lon="0.79221">
        <ele>150.7</ele>
        <time>2026-05-02T12:41:01.000Z</time>
      </trkpt>
      <trkpt lat="44.79478" lon="0.79219">
        <ele>150.4</ele>
        <time>2026-05-02T12:41:02.000Z</time>
      </trkpt>
      <trkpt lat="44.79479" lon="0.79217">
        <ele>150.2</ele>
        <time>2026-05-02T12:41:03.000Z</time>
      </trkpt>
      <trkpt lat="44.7948" lon="0.79214">
        <ele>150.7</ele>
        <time>2026-05-02T12:41:04.000Z</time>
      </trkpt>
      <trkpt lat="44.79481" lon="0.79212">
        <ele>150.7</ele>
        <time>2026-05-02T12:41:05.000Z</time>
      </trkpt>
      <trkpt lat="44.79482" lon="0.7921">
        <ele>150</ele>
        <time>2026-05-02T12:41:06.000Z</time>
      </trkpt>
      <trkpt lat="44.79483" lon="0.79208">
        <ele>149.7</ele>
        <time>2026-05-02T12:41:07.000Z</time>
      </trkpt>
      <trkpt lat="44.79483" lon="0.79206">
        <ele>149.5</ele>
        <time>2026-05-02T12:41:08.000Z</time>
      </trkpt>
      <trkpt lat="44.79484" lon="0.79204">
        <ele>149.2</ele>
        <time>2026-05-02T12:41:09.000Z</time>
      </trkpt>
      <trkpt lat="44.79485" lon="0.79202">
        <ele>149.1</ele>
        <time>2026-05-02T12:41:10.000Z</time>
      </trkpt>
      <trkpt lat="44.79486" lon="0.79199">
        <ele>149.2</ele>
        <time>2026-05-02T12:41:11.000Z</time>
      </trkpt>
      <trkpt lat="44.79487" lon="0.79196">
        <ele>149.3</ele>
        <time>2026-05-02T12:41:12.000Z</time>
      </trkpt>
      <trkpt lat="44.79487" lon="0.79194">
        <ele>149</ele>
        <time>2026-05-02T12:41:13.000Z</time>
      </trkpt>
      <trkpt lat="44.79488" lon="0.79191">
        <ele>149.2</ele>
        <time>2026-05-02T12:41:14.000Z</time>
      </trkpt>
      <trkpt lat="44.79489" lon="0.79189">
        <ele>149.2</ele>
        <time>2026-05-02T12:41:15.000Z</time>
      </trkpt>
      <trkpt lat="44.7949" lon="0.79186">
        <ele>148.8</ele>
        <time>2026-05-02T12:41:16.000Z</time>
      </trkpt>
      <trkpt lat="44.7949" lon="0.79184">
        <ele>149.1</ele>
        <time>2026-05-02T12:41:17.000Z</time>
      </trkpt>
      <trkpt lat="44.79491" lon="0.79181">
        <ele>148.7</ele>
        <time>2026-05-02T12:41:18.000Z</time>
      </trkpt>
      <trkpt lat="44.79492" lon="0.79178">
        <ele>148.6</ele>
        <time>2026-05-02T12:41:19.000Z</time>
      </trkpt>
      <trkpt lat="44.79492" lon="0.79175">
        <ele>148.2</ele>
        <time>2026-05-02T12:41:20.000Z</time>
      </trkpt>
      <trkpt lat="44.79493" lon="0.79173">
        <ele>147</ele>
        <time>2026-05-02T12:41:21.000Z</time>
      </trkpt>
      <trkpt lat="44.79494" lon="0.79171">
        <ele>146.8</ele>
        <time>2026-05-02T12:41:22.000Z</time>
      </trkpt>
      <trkpt lat="44.79496" lon="0.7917">
        <ele>147.7</ele>
        <time>2026-05-02T12:41:23.000Z</time>
      </trkpt>
      <trkpt lat="44.79497" lon="0.79168">
        <ele>147.1</ele>
        <time>2026-05-02T12:41:24.000Z</time>
      </trkpt>
      <trkpt lat="44.79498" lon="0.79166">
        <ele>147</ele>
        <time>2026-05-02T12:41:25.000Z</time>
      </trkpt>
      <trkpt lat="44.79499" lon="0.79163">
        <ele>147</ele>
        <time>2026-05-02T12:41:26.000Z</time>
      </trkpt>
      <trkpt lat="44.79499" lon="0.79161">
        <ele>146.7</ele>
        <time>2026-05-02T12:41:27.000Z</time>
      </trkpt>
      <trkpt lat="44.795" lon="0.79158">
        <ele>146.6</ele>
        <time>2026-05-02T12:41:28.000Z</time>
      </trkpt>
      <trkpt lat="44.795" lon="0.79156">
        <ele>146.9</ele>
        <time>2026-05-02T12:41:29.000Z</time>
      </trkpt>
      <trkpt lat="44.795" lon="0.79154">
        <ele>146.5</ele>
        <time>2026-05-02T12:41:30.000Z</time>
      </trkpt>
      <trkpt lat="44.79501" lon="0.79151">
        <ele>146.4</ele>
        <time>2026-05-02T12:41:31.000Z</time>
      </trkpt>
      <trkpt lat="44.79501" lon="0.79149">
        <ele>146.6</ele>
        <time>2026-05-02T12:41:32.000Z</time>
      </trkpt>
      <trkpt lat="44.79502" lon="0.79147">
        <ele>147.8</ele>
        <time>2026-05-02T12:41:33.000Z</time>
      </trkpt>
      <trkpt lat="44.79502" lon="0.79145">
        <ele>147.3</ele>
        <time>2026-05-02T12:41:34.000Z</time>
      </trkpt>
      <trkpt lat="44.79503" lon="0.79143">
        <ele>147.4</ele>
        <time>2026-05-02T12:41:35.000Z</time>
      </trkpt>
      <trkpt lat="44.79503" lon="0.7914">
        <ele>147.5</ele>
        <time>2026-05-02T12:41:36.000Z</time>
      </trkpt>
      <trkpt lat="44.79504" lon="0.79138">
        <ele>147.7</ele>
        <time>2026-05-02T12:41:37.000Z</time>
      </trkpt>
      <trkpt lat="44.79504" lon="0.79136">
        <ele>147.3</ele>
        <time>2026-05-02T12:41:38.000Z</time>
      </trkpt>
      <trkpt lat="44.79505" lon="0.79134">
        <ele>147.1</ele>
        <time>2026-05-02T12:41:39.000Z</time>
      </trkpt>
      <trkpt lat="44.79506" lon="0.79131">
        <ele>147.1</ele>
        <time>2026-05-02T12:41:40.000Z</time>
      </trkpt>
      <trkpt lat="44.79506" lon="0.79129">
        <ele>147.1</ele>
        <time>2026-05-02T12:41:41.000Z</time>
      </trkpt>
      <trkpt lat="44.79507" lon="0.79127">
        <ele>147.4</ele>
        <time>2026-05-02T12:41:42.000Z</time>
      </trkpt>
      <trkpt lat="44.79508" lon="0.79125">
        <ele>147.3</ele>
        <time>2026-05-02T12:41:43.000Z</time>
      </trkpt>
      <trkpt lat="44.79509" lon="0.79123">
        <ele>147.5</ele>
        <time>2026-05-02T12:41:44.000Z</time>
      </trkpt>
      <trkpt lat="44.7951" lon="0.7912">
        <ele>147.5</ele>
        <time>2026-05-02T12:41:45.000Z</time>
      </trkpt>
      <trkpt lat="44.7951" lon="0.79118">
        <ele>147.7</ele>
        <time>2026-05-02T12:41:46.000Z</time>
      </trkpt>
      <trkpt lat="44.79511" lon="0.79116">
        <ele>148.4</ele>
        <time>2026-05-02T12:41:47.000Z</time>
      </trkpt>
      <trkpt lat="44.79512" lon="0.79114">
        <ele>148.8</ele>
        <time>2026-05-02T12:41:48.000Z</time>
      </trkpt>
      <trkpt lat="44.79512" lon="0.79112">
        <ele>149</ele>
        <time>2026-05-02T12:41:49.000Z</time>
      </trkpt>
      <trkpt lat="44.79513" lon="0.7911">
        <ele>149.3</ele>
        <time>2026-05-02T12:41:50.000Z</time>
      </trkpt>
      <trkpt lat="44.79514" lon="0.79108">
        <ele>149.9</ele>
        <time>2026-05-02T12:41:51.000Z</time>
      </trkpt>
      <trkpt lat="44.79515" lon="0.79106">
        <ele>149.3</ele>
        <time>2026-05-02T12:41:52.000Z</time>
      </trkpt>
      <trkpt lat="44.79516" lon="0.79103">
        <ele>148.7</ele>
        <time>2026-05-02T12:41:53.000Z</time>
      </trkpt>
      <trkpt lat="44.79516" lon="0.79101">
        <ele>148.6</ele>
        <time>2026-05-02T12:41:54.000Z</time>
      </trkpt>
      <trkpt lat="44.79517" lon="0.79099">
        <ele>148.5</ele>
        <time>2026-05-02T12:41:55.000Z</time>
      </trkpt>
      <trkpt lat="44.79518" lon="0.79096">
        <ele>148.5</ele>
        <time>2026-05-02T12:41:56.000Z</time>
      </trkpt>
      <trkpt lat="44.79519" lon="0.79094">
        <ele>148.2</ele>
        <time>2026-05-02T12:41:57.000Z</time>
      </trkpt>
      <trkpt lat="44.79521" lon="0.79092">
        <ele>148.3</ele>
        <time>2026-05-02T12:41:58.000Z</time>
      </trkpt>
      <trkpt lat="44.79522" lon="0.7909">
        <ele>148.4</ele>
        <time>2026-05-02T12:41:59.000Z</time>
      </trkpt>
      <trkpt lat="44.79523" lon="0.79088">
        <ele>149.3</ele>
        <time>2026-05-02T12:42:00.000Z</time>
      </trkpt>
      <trkpt lat="44.79524" lon="0.79086">
        <ele>149.1</ele>
        <time>2026-05-02T12:42:01.000Z</time>
      </trkpt>
      <trkpt lat="44.79525" lon="0.79084">
        <ele>148.8</ele>
        <time>2026-05-02T12:42:02.000Z</time>
      </trkpt>
      <trkpt lat="44.79526" lon="0.79082">
        <ele>148.4</ele>
        <time>2026-05-02T12:42:03.000Z</time>
      </trkpt>
      <trkpt lat="44.79526" lon="0.7908">
        <ele>148.5</ele>
        <time>2026-05-02T12:42:04.000Z</time>
      </trkpt>
      <trkpt lat="44.79527" lon="0.79077">
        <ele>148.7</ele>
        <time>2026-05-02T12:42:05.000Z</time>
      </trkpt>
      <trkpt lat="44.79528" lon="0.79074">
        <ele>148.7</ele>
        <time>2026-05-02T12:42:06.000Z</time>
      </trkpt>
      <trkpt lat="44.7953" lon="0.79072">
        <ele>149</ele>
        <time>2026-05-02T12:42:07.000Z</time>
      </trkpt>
      <trkpt lat="44.79531" lon="0.79069">
        <ele>149</ele>
        <time>2026-05-02T12:42:08.000Z</time>
      </trkpt>
      <trkpt lat="44.79532" lon="0.79067">
        <ele>148.8</ele>
        <time>2026-05-02T12:42:09.000Z</time>
      </trkpt>
      <trkpt lat="44.79533" lon="0.79065">
        <ele>148.9</ele>
        <time>2026-05-02T12:42:10.000Z</time>
      </trkpt>
      <trkpt lat="44.79534" lon="0.79063">
        <ele>148.8</ele>
        <time>2026-05-02T12:42:11.000Z</time>
      </trkpt>
      <trkpt lat="44.79534" lon="0.79061">
        <ele>148.5</ele>
        <time>2026-05-02T12:42:12.000Z</time>
      </trkpt>
      <trkpt lat="44.79535" lon="0.79059">
        <ele>148.7</ele>
        <time>2026-05-02T12:42:13.000Z</time>
      </trkpt>
      <trkpt lat="44.79536" lon="0.79057">
        <ele>149</ele>
        <time>2026-05-02T12:42:14.000Z</time>
      </trkpt>
      <trkpt lat="44.79536" lon="0.79055">
        <ele>149</ele>
        <time>2026-05-02T12:42:15.000Z</time>
      </trkpt>
      <trkpt lat="44.79537" lon="0.79052">
        <ele>148.7</ele>
        <time>2026-05-02T12:42:16.000Z</time>
      </trkpt>
      <trkpt lat="44.79537" lon="0.7905">
        <ele>148.4</ele>
        <time>2026-05-02T12:42:17.000Z</time>
      </trkpt>
      <trkpt lat="44.79538" lon="0.79048">
        <ele>148.5</ele>
        <time>2026-05-02T12:42:18.000Z</time>
      </trkpt>
      <trkpt lat="44.79538" lon="0.79046">
        <ele>148.7</ele>
        <time>2026-05-02T12:42:19.000Z</time>
      </trkpt>
      <trkpt lat="44.79538" lon="0.79044">
        <ele>148.7</ele>
        <time>2026-05-02T12:42:20.000Z</time>
      </trkpt>
      <trkpt lat="44.79539" lon="0.79042">
        <ele>149.4</ele>
        <time>2026-05-02T12:42:21.000Z</time>
      </trkpt>
      <trkpt lat="44.79539" lon="0.7904">
        <ele>149</ele>
        <time>2026-05-02T12:42:22.000Z</time>
      </trkpt>
      <trkpt lat="44.79539" lon="0.79038">
        <ele>148.8</ele>
        <time>2026-05-02T12:42:23.000Z</time>
      </trkpt>
      <trkpt lat="44.79539" lon="0.79038">
        <ele>149.5</ele>
        <time>2026-05-02T12:42:24.000Z</time>
      </trkpt>
      <trkpt lat="44.79539" lon="0.79036">
        <ele>147.7</ele>
        <time>2026-05-02T12:42:25.000Z</time>
      </trkpt>
      <trkpt lat="44.7954" lon="0.79034">
        <ele>145.9</ele>
        <time>2026-05-02T12:42:26.000Z</time>
      </trkpt>
      <trkpt lat="44.7954" lon="0.79032">
        <ele>144.9</ele>
        <time>2026-05-02T12:42:27.000Z</time>
      </trkpt>
      <trkpt lat="44.79539" lon="0.79031">
        <ele>143.5</ele>
        <time>2026-05-02T12:42:28.000Z</time>
      </trkpt>
      <trkpt lat="44.79539" lon="0.79031">
        <ele>144.9</ele>
        <time>2026-05-02T12:42:29.000Z</time>
      </trkpt>
      <trkpt lat="44.7954" lon="0.79031">
        <ele>145.3</ele>
        <time>2026-05-02T12:42:30.000Z</time>
      </trkpt>
      <trkpt lat="44.7954" lon="0.79031">
        <ele>145.9</ele>
        <time>2026-05-02T12:42:31.000Z</time>
      </trkpt>
      <trkpt lat="44.7954" lon="0.79032">
        <ele>145.9</ele>
        <time>2026-05-02T12:42:32.000Z</time>
      </trkpt>
      <trkpt lat="44.7954" lon="0.79032">
        <ele>145.9</ele>
        <time>2026-05-02T12:42:33.000Z</time>
      </trkpt>
      <trkpt lat="44.7954" lon="0.79032">
        <ele>145.9</ele>
        <time>2026-05-02T12:42:34.000Z</time>
      </trkpt>
      <trkpt lat="44.7954" lon="0.79032">
        <ele>145.9</ele>
        <time>2026-05-02T12:42:35.000Z</time>
      </trkpt>
      <trkpt lat="44.7954" lon="0.79032">
        <ele>146.2</ele>
        <time>2026-05-02T12:42:36.000Z</time>
      </trkpt>
      <trkpt lat="44.7954" lon="0.79032">
        <ele>146.3</ele>
        <time>2026-05-02T12:42:37.000Z</time>
      </trkpt>
      <trkpt lat="44.79541" lon="0.79032">
        <ele>146.4</ele>
        <time>2026-05-02T12:42:38.000Z</time>
      </trkpt>
      <trkpt lat="44.79542" lon="0.79032">
        <ele>146.6</ele>
        <time>2026-05-02T12:42:39.000Z</time>
      </trkpt>
      <trkpt lat="44.79542" lon="0.79032">
        <ele>146.6</ele>
        <time>2026-05-02T12:42:40.000Z</time>
      </trkpt>
      <trkpt lat="44.79542" lon="0.79033">
        <ele>146.6</ele>
        <time>2026-05-02T12:42:41.000Z</time>
      </trkpt>
      <trkpt lat="44.79542" lon="0.79033">
        <ele>146.6</ele>
        <time>2026-05-02T12:42:42.000Z</time>
      </trkpt>
      <trkpt lat="44.79542" lon="0.79033">
        <ele>146.7</ele>
        <time>2026-05-02T12:42:43.000Z</time>
      </trkpt>
      <trkpt lat="44.79542" lon="0.79033">
        <ele>146.7</ele>
        <time>2026-05-02T12:42:44.000Z</time>
      </trkpt>
      <trkpt lat="44.79542" lon="0.79033">
        <ele>146.7</ele>
        <time>2026-05-02T12:42:45.000Z</time>
      </trkpt>
      <trkpt lat="44.79542" lon="0.79033">
        <ele>146.7</ele>
        <time>2026-05-02T12:42:46.000Z</time>
      </trkpt>
      <trkpt lat="44.79542" lon="0.79033">
        <ele>147.4</ele>
        <time>2026-05-02T12:42:47.000Z</time>
      </trkpt>
      <trkpt lat="44.79542" lon="0.79034">
        <ele>147.4</ele>
        <time>2026-05-02T12:42:48.000Z</time>
      </trkpt>
      <trkpt lat="44.79542" lon="0.79034">
        <ele>147.6</ele>
        <time>2026-05-02T12:42:49.000Z</time>
      </trkpt>
      <trkpt lat="44.79542" lon="0.79032">
        <ele>147.6</ele>
        <time>2026-05-02T12:42:50.000Z</time>
      </trkpt>
      <trkpt lat="44.79542" lon="0.79031">
        <ele>148.4</ele>
        <time>2026-05-02T12:42:51.000Z</time>
      </trkpt>
      <trkpt lat="44.79542" lon="0.79029">
        <ele>148.7</ele>
        <time>2026-05-02T12:42:52.000Z</time>
      </trkpt>
      <trkpt lat="44.79541" lon="0.79027">
        <ele>149</ele>
        <time>2026-05-02T12:42:53.000Z</time>
      </trkpt>
      <trkpt lat="44.79541" lon="0.79025">
        <ele>148.7</ele>
        <time>2026-05-02T12:42:54.000Z</time>
      </trkpt>
      <trkpt lat="44.79541" lon="0.79023">
        <ele>148.9</ele>
        <time>2026-05-02T12:42:55.000Z</time>
      </trkpt>
      <trkpt lat="44.7954" lon="0.7902">
        <ele>149.3</ele>
        <time>2026-05-02T12:42:56.000Z</time>
      </trkpt>
      <trkpt lat="44.7954" lon="0.79018">
        <ele>149.4</ele>
        <time>2026-05-02T12:42:57.000Z</time>
      </trkpt>
      <trkpt lat="44.79539" lon="0.79016">
        <ele>149.8</ele>
        <time>2026-05-02T12:42:58.000Z</time>
      </trkpt>
      <trkpt lat="44.79537" lon="0.79015">
        <ele>150.7</ele>
        <time>2026-05-02T12:42:59.000Z</time>
      </trkpt>
      <trkpt lat="44.79536" lon="0.79014">
        <ele>150.9</ele>
        <time>2026-05-02T12:43:00.000Z</time>
      </trkpt>
      <trkpt lat="44.79534" lon="0.79012">
        <ele>149.7</ele>
        <time>2026-05-02T12:43:01.000Z</time>
      </trkpt>
      <trkpt lat="44.79535" lon="0.79009">
        <ele>148.9</ele>
        <time>2026-05-02T12:43:02.000Z</time>
      </trkpt>
      <trkpt lat="44.79534" lon="0.79006">
        <ele>148</ele>
        <time>2026-05-02T12:43:03.000Z</time>
      </trkpt>
      <trkpt lat="44.79533" lon="0.79003">
        <ele>148.1</ele>
        <time>2026-05-02T12:43:04.000Z</time>
      </trkpt>
      <trkpt lat="44.79533" lon="0.79">
        <ele>148.6</ele>
        <time>2026-05-02T12:43:05.000Z</time>
      </trkpt>
      <trkpt lat="44.79533" lon="0.78999">
        <ele>148.9</ele>
        <time>2026-05-02T12:43:06.000Z</time>
      </trkpt>
      <trkpt lat="44.79533" lon="0.78997">
        <ele>149.1</ele>
        <time>2026-05-02T12:43:07.000Z</time>
      </trkpt>
      <trkpt lat="44.79533" lon="0.78995">
        <ele>148.5</ele>
        <time>2026-05-02T12:43:08.000Z</time>
      </trkpt>
      <trkpt lat="44.79533" lon="0.78993">
        <ele>148.5</ele>
        <time>2026-05-02T12:43:09.000Z</time>
      </trkpt>
      <trkpt lat="44.79533" lon="0.78991">
        <ele>148.3</ele>
        <time>2026-05-02T12:43:10.000Z</time>
      </trkpt>
      <trkpt lat="44.79533" lon="0.78989">
        <ele>148</ele>
        <time>2026-05-02T12:43:11.000Z</time>
      </trkpt>
      <trkpt lat="44.79532" lon="0.78986">
        <ele>147.9</ele>
        <time>2026-05-02T12:43:12.000Z</time>
      </trkpt>
      <trkpt lat="44.79532" lon="0.78983">
        <ele>147.8</ele>
        <time>2026-05-02T12:43:13.000Z</time>
      </trkpt>
      <trkpt lat="44.79532" lon="0.78979">
        <ele>147.7</ele>
        <time>2026-05-02T12:43:14.000Z</time>
      </trkpt>
      <trkpt lat="44.79532" lon="0.78976">
        <ele>147.7</ele>
        <time>2026-05-02T12:43:15.000Z</time>
      </trkpt>
      <trkpt lat="44.79533" lon="0.78973">
        <ele>146.4</ele>
        <time>2026-05-02T12:43:16.000Z</time>
      </trkpt>
      <trkpt lat="44.79533" lon="0.7897">
        <ele>146.5</ele>
        <time>2026-05-02T12:43:17.000Z</time>
      </trkpt>
      <trkpt lat="44.79534" lon="0.78967">
        <ele>146</ele>
        <time>2026-05-02T12:43:18.000Z</time>
      </trkpt>
      <trkpt lat="44.79535" lon="0.78965">
        <ele>147.7</ele>
        <time>2026-05-02T12:43:19.000Z</time>
      </trkpt>
      <trkpt lat="44.79535" lon="0.78962">
        <ele>148.9</ele>
        <time>2026-05-02T12:43:20.000Z</time>
      </trkpt>
      <trkpt lat="44.79535" lon="0.78959">
        <ele>148.1</ele>
        <time>2026-05-02T12:43:21.000Z</time>
      </trkpt>
      <trkpt lat="44.79535" lon="0.78956">
        <ele>148.3</ele>
        <time>2026-05-02T12:43:22.000Z</time>
      </trkpt>
      <trkpt lat="44.79536" lon="0.78954">
        <ele>148.9</ele>
        <time>2026-05-02T12:43:23.000Z</time>
      </trkpt>
      <trkpt lat="44.79537" lon="0.78952">
        <ele>149.2</ele>
        <time>2026-05-02T12:43:24.000Z</time>
      </trkpt>
      <trkpt lat="44.79537" lon="0.7895">
        <ele>149.5</ele>
        <time>2026-05-02T12:43:25.000Z</time>
      </trkpt>
      <trkpt lat="44.79538" lon="0.78948">
        <ele>150</ele>
        <time>2026-05-02T12:43:26.000Z</time>
      </trkpt>
      <trkpt lat="44.79539" lon="0.78946">
        <ele>150.6</ele>
        <time>2026-05-02T12:43:27.000Z</time>
      </trkpt>
      <trkpt lat="44.79539" lon="0.78944">
        <ele>151.1</ele>
        <time>2026-05-02T12:43:28.000Z</time>
      </trkpt>
      <trkpt lat="44.7954" lon="0.78941">
        <ele>151.1</ele>
        <time>2026-05-02T12:43:29.000Z</time>
      </trkpt>
      <trkpt lat="44.79541" lon="0.78939">
        <ele>151</ele>
        <time>2026-05-02T12:43:30.000Z</time>
      </trkpt>
      <trkpt lat="44.79541" lon="0.78937">
        <ele>151</ele>
        <time>2026-05-02T12:43:31.000Z</time>
      </trkpt>
      <trkpt lat="44.79542" lon="0.78935">
        <ele>151</ele>
        <time>2026-05-02T12:43:32.000Z</time>
      </trkpt>
      <trkpt lat="44.79542" lon="0.78934">
        <ele>151</ele>
        <time>2026-05-02T12:43:33.000Z</time>
      </trkpt>
      <trkpt lat="44.79543" lon="0.78932">
        <ele>151.3</ele>
        <time>2026-05-02T12:43:34.000Z</time>
      </trkpt>
      <trkpt lat="44.79543" lon="0.7893">
        <ele>151.4</ele>
        <time>2026-05-02T12:43:35.000Z</time>
      </trkpt>
      <trkpt lat="44.79544" lon="0.78928">
        <ele>151.6</ele>
        <time>2026-05-02T12:43:36.000Z</time>
      </trkpt>
      <trkpt lat="44.79545" lon="0.78926">
        <ele>151.7</ele>
        <time>2026-05-02T12:43:37.000Z</time>
      </trkpt>
      <trkpt lat="44.79545" lon="0.78924">
        <ele>151.7</ele>
        <time>2026-05-02T12:43:38.000Z</time>
      </trkpt>
      <trkpt lat="44.79546" lon="0.78922">
        <ele>151.3</ele>
        <time>2026-05-02T12:43:39.000Z</time>
      </trkpt>
      <trkpt lat="44.79546" lon="0.7892">
        <ele>151.2</ele>
        <time>2026-05-02T12:43:40.000Z</time>
      </trkpt>
      <trkpt lat="44.79546" lon="0.78918">
        <ele>151.3</ele>
        <time>2026-05-02T12:43:41.000Z</time>
      </trkpt>
      <trkpt lat="44.79546" lon="0.78916">
        <ele>151.6</ele>
        <time>2026-05-02T12:43:42.000Z</time>
      </trkpt>
      <trkpt lat="44.79547" lon="0.78914">
        <ele>151.7</ele>
        <time>2026-05-02T12:43:43.000Z</time>
      </trkpt>
      <trkpt lat="44.79546" lon="0.78912">
        <ele>151.8</ele>
        <time>2026-05-02T12:43:44.000Z</time>
      </trkpt>
      <trkpt lat="44.79546" lon="0.7891">
        <ele>152</ele>
        <time>2026-05-02T12:43:45.000Z</time>
      </trkpt>
      <trkpt lat="44.79546" lon="0.78908">
        <ele>152</ele>
        <time>2026-05-02T12:43:46.000Z</time>
      </trkpt>
      <trkpt lat="44.79547" lon="0.78906">
        <ele>151.8</ele>
        <time>2026-05-02T12:43:47.000Z</time>
      </trkpt>
      <trkpt lat="44.79547" lon="0.78904">
        <ele>151.3</ele>
        <time>2026-05-02T12:43:48.000Z</time>
      </trkpt>
      <trkpt lat="44.79546" lon="0.78902">
        <ele>151.7</ele>
        <time>2026-05-02T12:43:49.000Z</time>
      </trkpt>
      <trkpt lat="44.79546" lon="0.789">
        <ele>151.3</ele>
        <time>2026-05-02T12:43:50.000Z</time>
      </trkpt>
      <trkpt lat="44.79546" lon="0.78898">
        <ele>151.8</ele>
        <time>2026-05-02T12:43:51.000Z</time>
      </trkpt>
      <trkpt lat="44.79546" lon="0.78896">
        <ele>151.9</ele>
        <time>2026-05-02T12:43:52.000Z</time>
      </trkpt>
      <trkpt lat="44.79546" lon="0.78893">
        <ele>152.3</ele>
        <time>2026-05-02T12:43:53.000Z</time>
      </trkpt>
      <trkpt lat="44.79545" lon="0.78891">
        <ele>152.5</ele>
        <time>2026-05-02T12:43:54.000Z</time>
      </trkpt>
      <trkpt lat="44.79545" lon="0.78889">
        <ele>152.8</ele>
        <time>2026-05-02T12:43:55.000Z</time>
      </trkpt>
      <trkpt lat="44.79545" lon="0.78887">
        <ele>152.7</ele>
        <time>2026-05-02T12:43:56.000Z</time>
      </trkpt>
      <trkpt lat="44.79544" lon="0.78884">
        <ele>152.3</ele>
        <time>2026-05-02T12:43:57.000Z</time>
      </trkpt>
      <trkpt lat="44.79544" lon="0.78882">
        <ele>152.7</ele>
        <time>2026-05-02T12:43:58.000Z</time>
      </trkpt>
      <trkpt lat="44.79544" lon="0.78879">
        <ele>152.2</ele>
        <time>2026-05-02T12:43:59.000Z</time>
      </trkpt>
      <trkpt lat="44.79544" lon="0.78876">
        <ele>152.4</ele>
        <time>2026-05-02T12:44:00.000Z</time>
      </trkpt>
      <trkpt lat="44.79544" lon="0.78873">
        <ele>152.1</ele>
        <time>2026-05-02T12:44:01.000Z</time>
      </trkpt>
      <trkpt lat="44.79544" lon="0.78871">
        <ele>151.7</ele>
        <time>2026-05-02T12:44:02.000Z</time>
      </trkpt>
      <trkpt lat="44.79544" lon="0.78868">
        <ele>152</ele>
        <time>2026-05-02T12:44:03.000Z</time>
      </trkpt>
      <trkpt lat="44.79544" lon="0.78866">
        <ele>153.2</ele>
        <time>2026-05-02T12:44:04.000Z</time>
      </trkpt>
      <trkpt lat="44.79544" lon="0.78863">
        <ele>153.8</ele>
        <time>2026-05-02T12:44:05.000Z</time>
      </trkpt>
      <trkpt lat="44.79544" lon="0.78861">
        <ele>153.2</ele>
        <time>2026-05-02T12:44:06.000Z</time>
      </trkpt>
      <trkpt lat="44.79544" lon="0.78859">
        <ele>153.7</ele>
        <time>2026-05-02T12:44:07.000Z</time>
      </trkpt>
      <trkpt lat="44.79544" lon="0.78856">
        <ele>153.6</ele>
        <time>2026-05-02T12:44:08.000Z</time>
      </trkpt>
      <trkpt lat="44.79544" lon="0.78854">
        <ele>153.9</ele>
        <time>2026-05-02T12:44:09.000Z</time>
      </trkpt>
      <trkpt lat="44.79544" lon="0.78851">
        <ele>153.5</ele>
        <time>2026-05-02T12:44:10.000Z</time>
      </trkpt>
      <trkpt lat="44.79543" lon="0.78848">
        <ele>153.3</ele>
        <time>2026-05-02T12:44:11.000Z</time>
      </trkpt>
      <trkpt lat="44.79543" lon="0.78846">
        <ele>153.7</ele>
        <time>2026-05-02T12:44:12.000Z</time>
      </trkpt>
      <trkpt lat="44.79543" lon="0.78843">
        <ele>155</ele>
        <time>2026-05-02T12:44:13.000Z</time>
      </trkpt>
      <trkpt lat="44.79543" lon="0.78841">
        <ele>154.8</ele>
        <time>2026-05-02T12:44:14.000Z</time>
      </trkpt>
      <trkpt lat="44.79543" lon="0.78839">
        <ele>155.2</ele>
        <time>2026-05-02T12:44:15.000Z</time>
      </trkpt>
      <trkpt lat="44.79543" lon="0.78836">
        <ele>155.2</ele>
        <time>2026-05-02T12:44:16.000Z</time>
      </trkpt>
      <trkpt lat="44.79543" lon="0.78834">
        <ele>155.3</ele>
        <time>2026-05-02T12:44:17.000Z</time>
      </trkpt>
      <trkpt lat="44.79543" lon="0.78831">
        <ele>155.9</ele>
        <time>2026-05-02T12:44:18.000Z</time>
      </trkpt>
      <trkpt lat="44.79543" lon="0.78828">
        <ele>155.9</ele>
        <time>2026-05-02T12:44:19.000Z</time>
      </trkpt>
      <trkpt lat="44.79543" lon="0.78826">
        <ele>155.9</ele>
        <time>2026-05-02T12:44:20.000Z</time>
      </trkpt>
      <trkpt lat="44.79543" lon="0.78823">
        <ele>156.1</ele>
        <time>2026-05-02T12:44:21.000Z</time>
      </trkpt>
      <trkpt lat="44.79543" lon="0.78821">
        <ele>159.6</ele>
        <time>2026-05-02T12:44:22.000Z</time>
      </trkpt>
      <trkpt lat="44.79543" lon="0.78819">
        <ele>159.6</ele>
        <time>2026-05-02T12:44:23.000Z</time>
      </trkpt>
      <trkpt lat="44.79543" lon="0.78817">
        <ele>159.7</ele>
        <time>2026-05-02T12:44:24.000Z</time>
      </trkpt>
      <trkpt lat="44.79543" lon="0.78815">
        <ele>160.2</ele>
        <time>2026-05-02T12:44:25.000Z</time>
      </trkpt>
      <trkpt lat="44.79543" lon="0.78813">
        <ele>158.9</ele>
        <time>2026-05-02T12:44:26.000Z</time>
      </trkpt>
      <trkpt lat="44.79543" lon="0.78811">
        <ele>157.7</ele>
        <time>2026-05-02T12:44:27.000Z</time>
      </trkpt>
      <trkpt lat="44.79543" lon="0.78808">
        <ele>157</ele>
        <time>2026-05-02T12:44:28.000Z</time>
      </trkpt>
      <trkpt lat="44.79543" lon="0.78805">
        <ele>156.6</ele>
        <time>2026-05-02T12:44:29.000Z</time>
      </trkpt>
      <trkpt lat="44.79543" lon="0.78802">
        <ele>156.1</ele>
        <time>2026-05-02T12:44:30.000Z</time>
      </trkpt>
      <trkpt lat="44.79542" lon="0.78799">
        <ele>155.9</ele>
        <time>2026-05-02T12:44:31.000Z</time>
      </trkpt>
      <trkpt lat="44.79542" lon="0.78797">
        <ele>156</ele>
        <time>2026-05-02T12:44:32.000Z</time>
      </trkpt>
      <trkpt lat="44.79542" lon="0.78795">
        <ele>155.4</ele>
        <time>2026-05-02T12:44:33.000Z</time>
      </trkpt>
      <trkpt lat="44.79541" lon="0.78792">
        <ele>155.2</ele>
        <time>2026-05-02T12:44:34.000Z</time>
      </trkpt>
      <trkpt lat="44.79541" lon="0.7879">
        <ele>155.3</ele>
        <time>2026-05-02T12:44:35.000Z</time>
      </trkpt>
      <trkpt lat="44.7954" lon="0.78788">
        <ele>155.1</ele>
        <time>2026-05-02T12:44:36.000Z</time>
      </trkpt>
      <trkpt lat="44.79539" lon="0.78786">
        <ele>155.2</ele>
        <time>2026-05-02T12:44:37.000Z</time>
      </trkpt>
      <trkpt lat="44.79538" lon="0.78784">
        <ele>155.3</ele>
        <time>2026-05-02T12:44:38.000Z</time>
      </trkpt>
      <trkpt lat="44.79537" lon="0.78782">
        <ele>154.6</ele>
        <time>2026-05-02T12:44:39.000Z</time>
      </trkpt>
      <trkpt lat="44.79537" lon="0.7878">
        <ele>154.4</ele>
        <time>2026-05-02T12:44:40.000Z</time>
      </trkpt>
      <trkpt lat="44.79536" lon="0.78778">
        <ele>154.3</ele>
        <time>2026-05-02T12:44:41.000Z</time>
      </trkpt>
      <trkpt lat="44.79535" lon="0.78775">
        <ele>154.2</ele>
        <time>2026-05-02T12:44:42.000Z</time>
      </trkpt>
      <trkpt lat="44.79534" lon="0.78773">
        <ele>154</ele>
        <time>2026-05-02T12:44:43.000Z</time>
      </trkpt>
      <trkpt lat="44.79533" lon="0.78771">
        <ele>154.1</ele>
        <time>2026-05-02T12:44:44.000Z</time>
      </trkpt>
      <trkpt lat="44.79532" lon="0.78769">
        <ele>154.2</ele>
        <time>2026-05-02T12:44:45.000Z</time>
      </trkpt>
      <trkpt lat="44.79531" lon="0.78767">
        <ele>154.5</ele>
        <time>2026-05-02T12:44:46.000Z</time>
      </trkpt>
      <trkpt lat="44.7953" lon="0.78765">
        <ele>154.7</ele>
        <time>2026-05-02T12:44:47.000Z</time>
      </trkpt>
      <trkpt lat="44.79529" lon="0.78764">
        <ele>155.1</ele>
        <time>2026-05-02T12:44:48.000Z</time>
      </trkpt>
      <trkpt lat="44.79528" lon="0.78762">
        <ele>155.5</ele>
        <time>2026-05-02T12:44:49.000Z</time>
      </trkpt>
      <trkpt lat="44.79527" lon="0.7876">
        <ele>155.6</ele>
        <time>2026-05-02T12:44:50.000Z</time>
      </trkpt>
      <trkpt lat="44.79525" lon="0.78758">
        <ele>155.8</ele>
        <time>2026-05-02T12:44:51.000Z</time>
      </trkpt>
      <trkpt lat="44.79524" lon="0.78756">
        <ele>156.1</ele>
        <time>2026-05-02T12:44:52.000Z</time>
      </trkpt>
      <trkpt lat="44.79523" lon="0.78754">
        <ele>156.1</ele>
        <time>2026-05-02T12:44:53.000Z</time>
      </trkpt>
      <trkpt lat="44.79522" lon="0.78752">
        <ele>156.5</ele>
        <time>2026-05-02T12:44:54.000Z</time>
      </trkpt>
      <trkpt lat="44.79521" lon="0.7875">
        <ele>156.4</ele>
        <time>2026-05-02T12:44:55.000Z</time>
      </trkpt>
      <trkpt lat="44.7952" lon="0.78748">
        <ele>156.3</ele>
        <time>2026-05-02T12:44:56.000Z</time>
      </trkpt>
      <trkpt lat="44.79518" lon="0.78746">
        <ele>156.3</ele>
        <time>2026-05-02T12:44:57.000Z</time>
      </trkpt>
      <trkpt lat="44.79517" lon="0.78744">
        <ele>156</ele>
        <time>2026-05-02T12:44:58.000Z</time>
      </trkpt>
      <trkpt lat="44.79516" lon="0.78742">
        <ele>156.4</ele>
        <time>2026-05-02T12:44:59.000Z</time>
      </trkpt>
      <trkpt lat="44.79515" lon="0.7874">
        <ele>156.5</ele>
        <time>2026-05-02T12:45:00.000Z</time>
      </trkpt>
      <trkpt lat="44.79514" lon="0.78738">
        <ele>156.3</ele>
        <time>2026-05-02T12:45:01.000Z</time>
      </trkpt>
      <trkpt lat="44.79513" lon="0.78736">
        <ele>156.3</ele>
        <time>2026-05-02T12:45:02.000Z</time>
      </trkpt>
      <trkpt lat="44.79512" lon="0.78734">
        <ele>156.2</ele>
        <time>2026-05-02T12:45:03.000Z</time>
      </trkpt>
      <trkpt lat="44.79512" lon="0.78732">
        <ele>156.1</ele>
        <time>2026-05-02T12:45:04.000Z</time>
      </trkpt>
      <trkpt lat="44.79511" lon="0.7873">
        <ele>155.8</ele>
        <time>2026-05-02T12:45:05.000Z</time>
      </trkpt>
      <trkpt lat="44.7951" lon="0.78728">
        <ele>155.3</ele>
        <time>2026-05-02T12:45:06.000Z</time>
      </trkpt>
      <trkpt lat="44.7951" lon="0.78726">
        <ele>155.3</ele>
        <time>2026-05-02T12:45:07.000Z</time>
      </trkpt>
      <trkpt lat="44.79509" lon="0.78723">
        <ele>155.1</ele>
        <time>2026-05-02T12:45:08.000Z</time>
      </trkpt>
      <trkpt lat="44.79509" lon="0.78721">
        <ele>154.9</ele>
        <time>2026-05-02T12:45:09.000Z</time>
      </trkpt>
      <trkpt lat="44.79509" lon="0.78718">
        <ele>154.9</ele>
        <time>2026-05-02T12:45:10.000Z</time>
      </trkpt>
      <trkpt lat="44.79509" lon="0.78716">
        <ele>154.2</ele>
        <time>2026-05-02T12:45:11.000Z</time>
      </trkpt>
      <trkpt lat="44.79508" lon="0.78713">
        <ele>153.8</ele>
        <time>2026-05-02T12:45:12.000Z</time>
      </trkpt>
      <trkpt lat="44.79509" lon="0.78711">
        <ele>153.7</ele>
        <time>2026-05-02T12:45:13.000Z</time>
      </trkpt>
      <trkpt lat="44.79508" lon="0.78708">
        <ele>153.3</ele>
        <time>2026-05-02T12:45:14.000Z</time>
      </trkpt>
      <trkpt lat="44.79509" lon="0.78706">
        <ele>153.3</ele>
        <time>2026-05-02T12:45:15.000Z</time>
      </trkpt>
      <trkpt lat="44.79509" lon="0.78703">
        <ele>153.3</ele>
        <time>2026-05-02T12:45:16.000Z</time>
      </trkpt>
      <trkpt lat="44.79509" lon="0.787">
        <ele>153.3</ele>
        <time>2026-05-02T12:45:17.000Z</time>
      </trkpt>
      <trkpt lat="44.7951" lon="0.78698">
        <ele>153.2</ele>
        <time>2026-05-02T12:45:18.000Z</time>
      </trkpt>
      <trkpt lat="44.7951" lon="0.78695">
        <ele>153.3</ele>
        <time>2026-05-02T12:45:19.000Z</time>
      </trkpt>
      <trkpt lat="44.79511" lon="0.78692">
        <ele>153.3</ele>
        <time>2026-05-02T12:45:20.000Z</time>
      </trkpt>
      <trkpt lat="44.79511" lon="0.78689">
        <ele>153.3</ele>
        <time>2026-05-02T12:45:21.000Z</time>
      </trkpt>
      <trkpt lat="44.79512" lon="0.78687">
        <ele>153.2</ele>
        <time>2026-05-02T12:45:22.000Z</time>
      </trkpt>
      <trkpt lat="44.79512" lon="0.78684">
        <ele>153.1</ele>
        <time>2026-05-02T12:45:23.000Z</time>
      </trkpt>
      <trkpt lat="44.79513" lon="0.78681">
        <ele>153</ele>
        <time>2026-05-02T12:45:24.000Z</time>
      </trkpt>
      <trkpt lat="44.79513" lon="0.78679">
        <ele>153.1</ele>
        <time>2026-05-02T12:45:25.000Z</time>
      </trkpt>
      <trkpt lat="44.79514" lon="0.78676">
        <ele>153.1</ele>
        <time>2026-05-02T12:45:26.000Z</time>
      </trkpt>
      <trkpt lat="44.79514" lon="0.78674">
        <ele>153.1</ele>
        <time>2026-05-02T12:45:27.000Z</time>
      </trkpt>
      <trkpt lat="44.79515" lon="0.78672">
        <ele>153</ele>
        <time>2026-05-02T12:45:28.000Z</time>
      </trkpt>
      <trkpt lat="44.79516" lon="0.78669">
        <ele>153.1</ele>
        <time>2026-05-02T12:45:29.000Z</time>
      </trkpt>
      <trkpt lat="44.79516" lon="0.78667">
        <ele>153.4</ele>
        <time>2026-05-02T12:45:30.000Z</time>
      </trkpt>
      <trkpt lat="44.79517" lon="0.78664">
        <ele>153.5</ele>
        <time>2026-05-02T12:45:31.000Z</time>
      </trkpt>
      <trkpt lat="44.79518" lon="0.78661">
        <ele>153.7</ele>
        <time>2026-05-02T12:45:32.000Z</time>
      </trkpt>
      <trkpt lat="44.79518" lon="0.78658">
        <ele>153.8</ele>
        <time>2026-05-02T12:45:33.000Z</time>
      </trkpt>
      <trkpt lat="44.79519" lon="0.78656">
        <ele>153.9</ele>
        <time>2026-05-02T12:45:34.000Z</time>
      </trkpt>
      <trkpt lat="44.79519" lon="0.78653">
        <ele>154.1</ele>
        <time>2026-05-02T12:45:35.000Z</time>
      </trkpt>
      <trkpt lat="44.7952" lon="0.78651">
        <ele>154.1</ele>
        <time>2026-05-02T12:45:36.000Z</time>
      </trkpt>
      <trkpt lat="44.7952" lon="0.78649">
        <ele>154.1</ele>
        <time>2026-05-02T12:45:37.000Z</time>
      </trkpt>
      <trkpt lat="44.7952" lon="0.78647">
        <ele>154.4</ele>
        <time>2026-05-02T12:45:38.000Z</time>
      </trkpt>
      <trkpt lat="44.79521" lon="0.78644">
        <ele>154.6</ele>
        <time>2026-05-02T12:45:39.000Z</time>
      </trkpt>
      <trkpt lat="44.79521" lon="0.78642">
        <ele>154.6</ele>
        <time>2026-05-02T12:45:40.000Z</time>
      </trkpt>
      <trkpt lat="44.79521" lon="0.7864">
        <ele>154.7</ele>
        <time>2026-05-02T12:45:41.000Z</time>
      </trkpt>
      <trkpt lat="44.7952" lon="0.78638">
        <ele>155</ele>
        <time>2026-05-02T12:45:42.000Z</time>
      </trkpt>
      <trkpt lat="44.7952" lon="0.78635">
        <ele>155.2</ele>
        <time>2026-05-02T12:45:43.000Z</time>
      </trkpt>
      <trkpt lat="44.79519" lon="0.78633">
        <ele>155.5</ele>
        <time>2026-05-02T12:45:44.000Z</time>
      </trkpt>
      <trkpt lat="44.79519" lon="0.78631">
        <ele>155.7</ele>
        <time>2026-05-02T12:45:45.000Z</time>
      </trkpt>
      <trkpt lat="44.79518" lon="0.78628">
        <ele>155.9</ele>
        <time>2026-05-02T12:45:46.000Z</time>
      </trkpt>
      <trkpt lat="44.79517" lon="0.78626">
        <ele>156.1</ele>
        <time>2026-05-02T12:45:47.000Z</time>
      </trkpt>
      <trkpt lat="44.79516" lon="0.78624">
        <ele>156.3</ele>
        <time>2026-05-02T12:45:48.000Z</time>
      </trkpt>
      <trkpt lat="44.79515" lon="0.78622">
        <ele>156.4</ele>
        <time>2026-05-02T12:45:49.000Z</time>
      </trkpt>
      <trkpt lat="44.79514" lon="0.7862">
        <ele>156.4</ele>
        <time>2026-05-02T12:45:50.000Z</time>
      </trkpt>
      <trkpt lat="44.79513" lon="0.78618">
        <ele>156.5</ele>
        <time>2026-05-02T12:45:51.000Z</time>
      </trkpt>
      <trkpt lat="44.79511" lon="0.78616">
        <ele>156.7</ele>
        <time>2026-05-02T12:45:52.000Z</time>
      </trkpt>
      <trkpt lat="44.7951" lon="0.78614">
        <ele>156.8</ele>
        <time>2026-05-02T12:45:53.000Z</time>
      </trkpt>
      <trkpt lat="44.79509" lon="0.78611">
        <ele>156.8</ele>
        <time>2026-05-02T12:45:54.000Z</time>
      </trkpt>
      <trkpt lat="44.79508" lon="0.78609">
        <ele>157</ele>
        <time>2026-05-02T12:45:55.000Z</time>
      </trkpt>
      <trkpt lat="44.79507" lon="0.78606">
        <ele>156.7</ele>
        <time>2026-05-02T12:45:56.000Z</time>
      </trkpt>
      <trkpt lat="44.79506" lon="0.78604">
        <ele>156.5</ele>
        <time>2026-05-02T12:45:57.000Z</time>
      </trkpt>
      <trkpt lat="44.79505" lon="0.78601">
        <ele>156.5</ele>
        <time>2026-05-02T12:45:58.000Z</time>
      </trkpt>
      <trkpt lat="44.79504" lon="0.78598">
        <ele>156.2</ele>
        <time>2026-05-02T12:45:59.000Z</time>
      </trkpt>
      <trkpt lat="44.79504" lon="0.78596">
        <ele>156</ele>
        <time>2026-05-02T12:46:00.000Z</time>
      </trkpt>
      <trkpt lat="44.79504" lon="0.78594">
        <ele>156.3</ele>
        <time>2026-05-02T12:46:01.000Z</time>
      </trkpt>
      <trkpt lat="44.79504" lon="0.78591">
        <ele>155.6</ele>
        <time>2026-05-02T12:46:02.000Z</time>
      </trkpt>
      <trkpt lat="44.79505" lon="0.78589">
        <ele>156.1</ele>
        <time>2026-05-02T12:46:03.000Z</time>
      </trkpt>
      <trkpt lat="44.79505" lon="0.78586">
        <ele>156.6</ele>
        <time>2026-05-02T12:46:04.000Z</time>
      </trkpt>
      <trkpt lat="44.79505" lon="0.78584">
        <ele>157</ele>
        <time>2026-05-02T12:46:05.000Z</time>
      </trkpt>
      <trkpt lat="44.79505" lon="0.78582">
        <ele>157.1</ele>
        <time>2026-05-02T12:46:06.000Z</time>
      </trkpt>
      <trkpt lat="44.79505" lon="0.78579">
        <ele>157.4</ele>
        <time>2026-05-02T12:46:07.000Z</time>
      </trkpt>
      <trkpt lat="44.79505" lon="0.78577">
        <ele>157.6</ele>
        <time>2026-05-02T12:46:08.000Z</time>
      </trkpt>
      <trkpt lat="44.79505" lon="0.78574">
        <ele>157.5</ele>
        <time>2026-05-02T12:46:09.000Z</time>
      </trkpt>
      <trkpt lat="44.79505" lon="0.78572">
        <ele>157.3</ele>
        <time>2026-05-02T12:46:10.000Z</time>
      </trkpt>
      <trkpt lat="44.79505" lon="0.78569">
        <ele>157.3</ele>
        <time>2026-05-02T12:46:11.000Z</time>
      </trkpt>
      <trkpt lat="44.79505" lon="0.78567">
        <ele>157.1</ele>
        <time>2026-05-02T12:46:12.000Z</time>
      </trkpt>
      <trkpt lat="44.79505" lon="0.78565">
        <ele>157.1</ele>
        <time>2026-05-02T12:46:13.000Z</time>
      </trkpt>
      <trkpt lat="44.79505" lon="0.78562">
        <ele>157.2</ele>
        <time>2026-05-02T12:46:14.000Z</time>
      </trkpt>
      <trkpt lat="44.79505" lon="0.7856">
        <ele>157</ele>
        <time>2026-05-02T12:46:15.000Z</time>
      </trkpt>
      <trkpt lat="44.79506" lon="0.78558">
        <ele>157</ele>
        <time>2026-05-02T12:46:16.000Z</time>
      </trkpt>
      <trkpt lat="44.79506" lon="0.78556">
        <ele>156.9</ele>
        <time>2026-05-02T12:46:17.000Z</time>
      </trkpt>
      <trkpt lat="44.79505" lon="0.78553">
        <ele>156.7</ele>
        <time>2026-05-02T12:46:18.000Z</time>
      </trkpt>
      <trkpt lat="44.79506" lon="0.78551">
        <ele>156.9</ele>
        <time>2026-05-02T12:46:19.000Z</time>
      </trkpt>
      <trkpt lat="44.79506" lon="0.78549">
        <ele>156.8</ele>
        <time>2026-05-02T12:46:20.000Z</time>
      </trkpt>
      <trkpt lat="44.79506" lon="0.78547">
        <ele>156.6</ele>
        <time>2026-05-02T12:46:21.000Z</time>
      </trkpt>
      <trkpt lat="44.79506" lon="0.78544">
        <ele>156.6</ele>
        <time>2026-05-02T12:46:22.000Z</time>
      </trkpt>
      <trkpt lat="44.79506" lon="0.78542">
        <ele>156.6</ele>
        <time>2026-05-02T12:46:23.000Z</time>
      </trkpt>
      <trkpt lat="44.79506" lon="0.7854">
        <ele>156.7</ele>
        <time>2026-05-02T12:46:24.000Z</time>
      </trkpt>
      <trkpt lat="44.79506" lon="0.78537">
        <ele>156.6</ele>
        <time>2026-05-02T12:46:25.000Z</time>
      </trkpt>
      <trkpt lat="44.79506" lon="0.78535">
        <ele>156.1</ele>
        <time>2026-05-02T12:46:26.000Z</time>
      </trkpt>
      <trkpt lat="44.79506" lon="0.78533">
        <ele>156.2</ele>
        <time>2026-05-02T12:46:27.000Z</time>
      </trkpt>
      <trkpt lat="44.79506" lon="0.78531">
        <ele>156</ele>
        <time>2026-05-02T12:46:28.000Z</time>
      </trkpt>
      <trkpt lat="44.79506" lon="0.78529">
        <ele>155.8</ele>
        <time>2026-05-02T12:46:29.000Z</time>
      </trkpt>
      <trkpt lat="44.79506" lon="0.78527">
        <ele>155.9</ele>
        <time>2026-05-02T12:46:30.000Z</time>
      </trkpt>
      <trkpt lat="44.79505" lon="0.78525">
        <ele>155.8</ele>
        <time>2026-05-02T12:46:31.000Z</time>
      </trkpt>
      <trkpt lat="44.79504" lon="0.78523">
        <ele>155.8</ele>
        <time>2026-05-02T12:46:32.000Z</time>
      </trkpt>
      <trkpt lat="44.79504" lon="0.78521">
        <ele>155.8</ele>
        <time>2026-05-02T12:46:33.000Z</time>
      </trkpt>
      <trkpt lat="44.79505" lon="0.78519">
        <ele>155.6</ele>
        <time>2026-05-02T12:46:34.000Z</time>
      </trkpt>
      <trkpt lat="44.79506" lon="0.78518">
        <ele>155.6</ele>
        <time>2026-05-02T12:46:35.000Z</time>
      </trkpt>
      <trkpt lat="44.79507" lon="0.78518">
        <ele>155.3</ele>
        <time>2026-05-02T12:46:36.000Z</time>
      </trkpt>
      <trkpt lat="44.79509" lon="0.78518">
        <ele>155</ele>
        <time>2026-05-02T12:46:37.000Z</time>
      </trkpt>
      <trkpt lat="44.7951" lon="0.78518">
        <ele>154.9</ele>
        <time>2026-05-02T12:46:38.000Z</time>
      </trkpt>
      <trkpt lat="44.79511" lon="0.78519">
        <ele>154.8</ele>
        <time>2026-05-02T12:46:39.000Z</time>
      </trkpt>
      <trkpt lat="44.79513" lon="0.7852">
        <ele>154.6</ele>
        <time>2026-05-02T12:46:40.000Z</time>
      </trkpt>
      <trkpt lat="44.79514" lon="0.78522">
        <ele>154.5</ele>
        <time>2026-05-02T12:46:41.000Z</time>
      </trkpt>
      <trkpt lat="44.79515" lon="0.78523">
        <ele>154.2</ele>
        <time>2026-05-02T12:46:42.000Z</time>
      </trkpt>
      <trkpt lat="44.79517" lon="0.78525">
        <ele>154</ele>
        <time>2026-05-02T12:46:43.000Z</time>
      </trkpt>
      <trkpt lat="44.79518" lon="0.78526">
        <ele>153.9</ele>
        <time>2026-05-02T12:46:44.000Z</time>
      </trkpt>
      <trkpt lat="44.79519" lon="0.78528">
        <ele>153.6</ele>
        <time>2026-05-02T12:46:45.000Z</time>
      </trkpt>
      <trkpt lat="44.79521" lon="0.78529">
        <ele>153.5</ele>
        <time>2026-05-02T12:46:46.000Z</time>
      </trkpt>
      <trkpt lat="44.79522" lon="0.78531">
        <ele>153.4</ele>
        <time>2026-05-02T12:46:47.000Z</time>
      </trkpt>
      <trkpt lat="44.79523" lon="0.78532">
        <ele>153.3</ele>
        <time>2026-05-02T12:46:48.000Z</time>
      </trkpt>
      <trkpt lat="44.79525" lon="0.78533">
        <ele>153.2</ele>
        <time>2026-05-02T12:46:49.000Z</time>
      </trkpt>
      <trkpt lat="44.79526" lon="0.78535">
        <ele>153</ele>
        <time>2026-05-02T12:46:50.000Z</time>
      </trkpt>
      <trkpt lat="44.79527" lon="0.78536">
        <ele>152.9</ele>
        <time>2026-05-02T12:46:51.000Z</time>
      </trkpt>
      <trkpt lat="44.79529" lon="0.78537">
        <ele>152.8</ele>
        <time>2026-05-02T12:46:52.000Z</time>
      </trkpt>
      <trkpt lat="44.7953" lon="0.78539">
        <ele>152.6</ele>
        <time>2026-05-02T12:46:53.000Z</time>
      </trkpt>
      <trkpt lat="44.79532" lon="0.7854">
        <ele>152.3</ele>
        <time>2026-05-02T12:46:54.000Z</time>
      </trkpt>
      <trkpt lat="44.79533" lon="0.78541">
        <ele>152.2</ele>
        <time>2026-05-02T12:46:55.000Z</time>
      </trkpt>
      <trkpt lat="44.79535" lon="0.78543">
        <ele>152.1</ele>
        <time>2026-05-02T12:46:56.000Z</time>
      </trkpt>
      <trkpt lat="44.79536" lon="0.78544">
        <ele>151.9</ele>
        <time>2026-05-02T12:46:57.000Z</time>
      </trkpt>
      <trkpt lat="44.79538" lon="0.78545">
        <ele>151.8</ele>
        <time>2026-05-02T12:46:58.000Z</time>
      </trkpt>
      <trkpt lat="44.79539" lon="0.78546">
        <ele>151.7</ele>
        <time>2026-05-02T12:46:59.000Z</time>
      </trkpt>
      <trkpt lat="44.79541" lon="0.78547">
        <ele>151.6</ele>
        <time>2026-05-02T12:47:00.000Z</time>
      </trkpt>
      <trkpt lat="44.79542" lon="0.78548">
        <ele>151.4</ele>
        <time>2026-05-02T12:47:01.000Z</time>
      </trkpt>
      <trkpt lat="44.79544" lon="0.78549">
        <ele>151.2</ele>
        <time>2026-05-02T12:47:02.000Z</time>
      </trkpt>
      <trkpt lat="44.79545" lon="0.7855">
        <ele>151.1</ele>
        <time>2026-05-02T12:47:03.000Z</time>
      </trkpt>
      <trkpt lat="44.79547" lon="0.78551">
        <ele>151</ele>
        <time>2026-05-02T12:47:04.000Z</time>
      </trkpt>
      <trkpt lat="44.79548" lon="0.78552">
        <ele>150.8</ele>
        <time>2026-05-02T12:47:05.000Z</time>
      </trkpt>
      <trkpt lat="44.7955" lon="0.78553">
        <ele>150.9</ele>
        <time>2026-05-02T12:47:06.000Z</time>
      </trkpt>
      <trkpt lat="44.79551" lon="0.78554">
        <ele>150.5</ele>
        <time>2026-05-02T12:47:07.000Z</time>
      </trkpt>
      <trkpt lat="44.79553" lon="0.78554">
        <ele>150.6</ele>
        <time>2026-05-02T12:47:08.000Z</time>
      </trkpt>
      <trkpt lat="44.79554" lon="0.78555">
        <ele>150.5</ele>
        <time>2026-05-02T12:47:09.000Z</time>
      </trkpt>
      <trkpt lat="44.79556" lon="0.78556">
        <ele>150.3</ele>
        <time>2026-05-02T12:47:10.000Z</time>
      </trkpt>
      <trkpt lat="44.79558" lon="0.78556">
        <ele>150.3</ele>
        <time>2026-05-02T12:47:11.000Z</time>
      </trkpt>
      <trkpt lat="44.79559" lon="0.78557">
        <ele>150.4</ele>
        <time>2026-05-02T12:47:12.000Z</time>
      </trkpt>
      <trkpt lat="44.79561" lon="0.78558">
        <ele>150.3</ele>
        <time>2026-05-02T12:47:13.000Z</time>
      </trkpt>
      <trkpt lat="44.79562" lon="0.78558">
        <ele>150.2</ele>
        <time>2026-05-02T12:47:14.000Z</time>
      </trkpt>
      <trkpt lat="44.79564" lon="0.78559">
        <ele>150.2</ele>
        <time>2026-05-02T12:47:15.000Z</time>
      </trkpt>
      <trkpt lat="44.79566" lon="0.78559">
        <ele>150</ele>
        <time>2026-05-02T12:47:16.000Z</time>
      </trkpt>
      <trkpt lat="44.79567" lon="0.7856">
        <ele>149.8</ele>
        <time>2026-05-02T12:47:17.000Z</time>
      </trkpt>
      <trkpt lat="44.79569" lon="0.78561">
        <ele>149.5</ele>
        <time>2026-05-02T12:47:18.000Z</time>
      </trkpt>
      <trkpt lat="44.79571" lon="0.78561">
        <ele>149.2</ele>
        <time>2026-05-02T12:47:19.000Z</time>
      </trkpt>
      <trkpt lat="44.79572" lon="0.78561">
        <ele>149.1</ele>
        <time>2026-05-02T12:47:20.000Z</time>
      </trkpt>
      <trkpt lat="44.79574" lon="0.78562">
        <ele>148.8</ele>
        <time>2026-05-02T12:47:21.000Z</time>
      </trkpt>
      <trkpt lat="44.79576" lon="0.78562">
        <ele>148.7</ele>
        <time>2026-05-02T12:47:22.000Z</time>
      </trkpt>
      <trkpt lat="44.79577" lon="0.78562">
        <ele>148.5</ele>
        <time>2026-05-02T12:47:23.000Z</time>
      </trkpt>
      <trkpt lat="44.79579" lon="0.78563">
        <ele>148.4</ele>
        <time>2026-05-02T12:47:24.000Z</time>
      </trkpt>
      <trkpt lat="44.79581" lon="0.78563">
        <ele>148.5</ele>
        <time>2026-05-02T12:47:25.000Z</time>
      </trkpt>
      <trkpt lat="44.79582" lon="0.78563">
        <ele>148.2</ele>
        <time>2026-05-02T12:47:26.000Z</time>
      </trkpt>
      <trkpt lat="44.79584" lon="0.78564">
        <ele>148.3</ele>
        <time>2026-05-02T12:47:27.000Z</time>
      </trkpt>
      <trkpt lat="44.79586" lon="0.78564">
        <ele>148.1</ele>
        <time>2026-05-02T12:47:28.000Z</time>
      </trkpt>
      <trkpt lat="44.79588" lon="0.78565">
        <ele>148.1</ele>
        <time>2026-05-02T12:47:29.000Z</time>
      </trkpt>
      <trkpt lat="44.7959" lon="0.78565">
        <ele>148</ele>
        <time>2026-05-02T12:47:30.000Z</time>
      </trkpt>
      <trkpt lat="44.79591" lon="0.78565">
        <ele>147.9</ele>
        <time>2026-05-02T12:47:31.000Z</time>
      </trkpt>
      <trkpt lat="44.79593" lon="0.78566">
        <ele>147.6</ele>
        <time>2026-05-02T12:47:32.000Z</time>
      </trkpt>
      <trkpt lat="44.79595" lon="0.78567">
        <ele>147.3</ele>
        <time>2026-05-02T12:47:33.000Z</time>
      </trkpt>
      <trkpt lat="44.79597" lon="0.78567">
        <ele>147.2</ele>
        <time>2026-05-02T12:47:34.000Z</time>
      </trkpt>
      <trkpt lat="44.79599" lon="0.78568">
        <ele>147</ele>
        <time>2026-05-02T12:47:35.000Z</time>
      </trkpt>
      <trkpt lat="44.796" lon="0.78568">
        <ele>146.9</ele>
        <time>2026-05-02T12:47:36.000Z</time>
      </trkpt>
      <trkpt lat="44.79602" lon="0.78569">
        <ele>146.8</ele>
        <time>2026-05-02T12:47:37.000Z</time>
      </trkpt>
      <trkpt lat="44.79604" lon="0.7857">
        <ele>146.7</ele>
        <time>2026-05-02T12:47:38.000Z</time>
      </trkpt>
      <trkpt lat="44.79605" lon="0.7857">
        <ele>146.6</ele>
        <time>2026-05-02T12:47:39.000Z</time>
      </trkpt>
      <trkpt lat="44.79607" lon="0.78571">
        <ele>146.5</ele>
        <time>2026-05-02T12:47:40.000Z</time>
      </trkpt>
      <trkpt lat="44.79609" lon="0.78572">
        <ele>146.3</ele>
        <time>2026-05-02T12:47:41.000Z</time>
      </trkpt>
      <trkpt lat="44.7961" lon="0.78573">
        <ele>146.1</ele>
        <time>2026-05-02T12:47:42.000Z</time>
      </trkpt>
      <trkpt lat="44.79612" lon="0.78573">
        <ele>145.6</ele>
        <time>2026-05-02T12:47:43.000Z</time>
      </trkpt>
      <trkpt lat="44.79614" lon="0.78574">
        <ele>145.5</ele>
        <time>2026-05-02T12:47:44.000Z</time>
      </trkpt>
      <trkpt lat="44.79615" lon="0.78575">
        <ele>145.2</ele>
        <time>2026-05-02T12:47:45.000Z</time>
      </trkpt>
      <trkpt lat="44.79617" lon="0.78576">
        <ele>144.7</ele>
        <time>2026-05-02T12:47:46.000Z</time>
      </trkpt>
      <trkpt lat="44.79618" lon="0.78576">
        <ele>144.4</ele>
        <time>2026-05-02T12:47:47.000Z</time>
      </trkpt>
      <trkpt lat="44.7962" lon="0.78577">
        <ele>144.3</ele>
        <time>2026-05-02T12:47:48.000Z</time>
      </trkpt>
      <trkpt lat="44.79622" lon="0.78577">
        <ele>144.1</ele>
        <time>2026-05-02T12:47:49.000Z</time>
      </trkpt>
      <trkpt lat="44.79623" lon="0.78578">
        <ele>144.2</ele>
        <time>2026-05-02T12:47:50.000Z</time>
      </trkpt>
      <trkpt lat="44.79625" lon="0.78579">
        <ele>143.8</ele>
        <time>2026-05-02T12:47:51.000Z</time>
      </trkpt>
      <trkpt lat="44.79627" lon="0.7858">
        <ele>143.8</ele>
        <time>2026-05-02T12:47:52.000Z</time>
      </trkpt>
      <trkpt lat="44.79628" lon="0.78581">
        <ele>143.9</ele>
        <time>2026-05-02T12:47:53.000Z</time>
      </trkpt>
      <trkpt lat="44.79629" lon="0.78582">
        <ele>144.2</ele>
        <time>2026-05-02T12:47:54.000Z</time>
      </trkpt>
      <trkpt lat="44.79631" lon="0.78583">
        <ele>144.1</ele>
        <time>2026-05-02T12:47:55.000Z</time>
      </trkpt>
      <trkpt lat="44.79632" lon="0.78584">
        <ele>144.1</ele>
        <time>2026-05-02T12:47:56.000Z</time>
      </trkpt>
      <trkpt lat="44.79634" lon="0.78585">
        <ele>144.4</ele>
        <time>2026-05-02T12:47:57.000Z</time>
      </trkpt>
      <trkpt lat="44.79636" lon="0.78586">
        <ele>144.2</ele>
        <time>2026-05-02T12:47:58.000Z</time>
      </trkpt>
      <trkpt lat="44.79637" lon="0.78587">
        <ele>144.3</ele>
        <time>2026-05-02T12:47:59.000Z</time>
      </trkpt>
      <trkpt lat="44.79639" lon="0.78587">
        <ele>144.5</ele>
        <time>2026-05-02T12:48:00.000Z</time>
      </trkpt>
      <trkpt lat="44.7964" lon="0.78588">
        <ele>144.5</ele>
        <time>2026-05-02T12:48:01.000Z</time>
      </trkpt>
      <trkpt lat="44.79642" lon="0.78589">
        <ele>144.6</ele>
        <time>2026-05-02T12:48:02.000Z</time>
      </trkpt>
      <trkpt lat="44.79643" lon="0.78589">
        <ele>144.5</ele>
        <time>2026-05-02T12:48:03.000Z</time>
      </trkpt>
      <trkpt lat="44.79645" lon="0.7859">
        <ele>144.4</ele>
        <time>2026-05-02T12:48:04.000Z</time>
      </trkpt>
      <trkpt lat="44.79646" lon="0.78591">
        <ele>144.5</ele>
        <time>2026-05-02T12:48:05.000Z</time>
      </trkpt>
      <trkpt lat="44.79648" lon="0.78592">
        <ele>144.1</ele>
        <time>2026-05-02T12:48:06.000Z</time>
      </trkpt>
      <trkpt lat="44.7965" lon="0.78593">
        <ele>143.9</ele>
        <time>2026-05-02T12:48:07.000Z</time>
      </trkpt>
      <trkpt lat="44.79651" lon="0.78595">
        <ele>143.9</ele>
        <time>2026-05-02T12:48:08.000Z</time>
      </trkpt>
      <trkpt lat="44.79653" lon="0.78596">
        <ele>143.9</ele>
        <time>2026-05-02T12:48:09.000Z</time>
      </trkpt>
      <trkpt lat="44.79654" lon="0.78597">
        <ele>143.4</ele>
        <time>2026-05-02T12:48:10.000Z</time>
      </trkpt>
      <trkpt lat="44.79655" lon="0.78599">
        <ele>143.1</ele>
        <time>2026-05-02T12:48:11.000Z</time>
      </trkpt>
      <trkpt lat="44.79657" lon="0.78601">
        <ele>143</ele>
        <time>2026-05-02T12:48:12.000Z</time>
      </trkpt>
      <trkpt lat="44.79658" lon="0.78602">
        <ele>142.9</ele>
        <time>2026-05-02T12:48:13.000Z</time>
      </trkpt>
      <trkpt lat="44.7966" lon="0.78603">
        <ele>142.9</ele>
        <time>2026-05-02T12:48:14.000Z</time>
      </trkpt>
      <trkpt lat="44.79661" lon="0.78605">
        <ele>142.8</ele>
        <time>2026-05-02T12:48:15.000Z</time>
      </trkpt>
      <trkpt lat="44.79662" lon="0.78606">
        <ele>142.8</ele>
        <time>2026-05-02T12:48:16.000Z</time>
      </trkpt>
      <trkpt lat="44.79663" lon="0.78608">
        <ele>142.6</ele>
        <time>2026-05-02T12:48:17.000Z</time>
      </trkpt>
      <trkpt lat="44.79665" lon="0.7861">
        <ele>142.4</ele>
        <time>2026-05-02T12:48:18.000Z</time>
      </trkpt>
      <trkpt lat="44.79666" lon="0.78612">
        <ele>142.2</ele>
        <time>2026-05-02T12:48:19.000Z</time>
      </trkpt>
      <trkpt lat="44.79667" lon="0.78613">
        <ele>142</ele>
        <time>2026-05-02T12:48:20.000Z</time>
      </trkpt>
      <trkpt lat="44.79668" lon="0.78615">
        <ele>142.1</ele>
        <time>2026-05-02T12:48:21.000Z</time>
      </trkpt>
      <trkpt lat="44.79669" lon="0.78616">
        <ele>142</ele>
        <time>2026-05-02T12:48:22.000Z</time>
      </trkpt>
      <trkpt lat="44.7967" lon="0.78618">
        <ele>141.9</ele>
        <time>2026-05-02T12:48:23.000Z</time>
      </trkpt>
      <trkpt lat="44.79671" lon="0.7862">
        <ele>141.8</ele>
        <time>2026-05-02T12:48:24.000Z</time>
      </trkpt>
      <trkpt lat="44.79672" lon="0.78622">
        <ele>141.7</ele>
        <time>2026-05-02T12:48:25.000Z</time>
      </trkpt>
      <trkpt lat="44.79674" lon="0.78624">
        <ele>141.6</ele>
        <time>2026-05-02T12:48:26.000Z</time>
      </trkpt>
      <trkpt lat="44.79675" lon="0.78626">
        <ele>141.5</ele>
        <time>2026-05-02T12:48:27.000Z</time>
      </trkpt>
      <trkpt lat="44.79676" lon="0.78628">
        <ele>141.5</ele>
        <time>2026-05-02T12:48:28.000Z</time>
      </trkpt>
      <trkpt lat="44.79677" lon="0.7863">
        <ele>141.2</ele>
        <time>2026-05-02T12:48:29.000Z</time>
      </trkpt>
      <trkpt lat="44.79678" lon="0.78632">
        <ele>141.1</ele>
        <time>2026-05-02T12:48:30.000Z</time>
      </trkpt>
      <trkpt lat="44.79679" lon="0.78633">
        <ele>141</ele>
        <time>2026-05-02T12:48:31.000Z</time>
      </trkpt>
      <trkpt lat="44.7968" lon="0.78635">
        <ele>140.7</ele>
        <time>2026-05-02T12:48:32.000Z</time>
      </trkpt>
      <trkpt lat="44.79681" lon="0.78637">
        <ele>140.5</ele>
        <time>2026-05-02T12:48:33.000Z</time>
      </trkpt>
      <trkpt lat="44.79682" lon="0.78639">
        <ele>140.3</ele>
        <time>2026-05-02T12:48:34.000Z</time>
      </trkpt>
      <trkpt lat="44.79683" lon="0.78641">
        <ele>140.3</ele>
        <time>2026-05-02T12:48:35.000Z</time>
      </trkpt>
      <trkpt lat="44.79684" lon="0.78643">
        <ele>140.3</ele>
        <time>2026-05-02T12:48:36.000Z</time>
      </trkpt>
      <trkpt lat="44.79684" lon="0.78643">
        <ele>140.5</ele>
        <time>2026-05-02T12:48:37.000Z</time>
      </trkpt>
      <trkpt lat="44.79685" lon="0.78644">
        <ele>141.2</ele>
        <time>2026-05-02T12:48:38.000Z</time>
      </trkpt>
      <trkpt lat="44.79686" lon="0.78645">
        <ele>141.1</ele>
        <time>2026-05-02T12:48:39.000Z</time>
      </trkpt>
      <trkpt lat="44.79687" lon="0.78647">
        <ele>140.8</ele>
        <time>2026-05-02T12:48:40.000Z</time>
      </trkpt>
      <trkpt lat="44.79688" lon="0.78649">
        <ele>140.5</ele>
        <time>2026-05-02T12:48:41.000Z</time>
      </trkpt>
      <trkpt lat="44.79689" lon="0.78651">
        <ele>140.2</ele>
        <time>2026-05-02T12:48:42.000Z</time>
      </trkpt>
      <trkpt lat="44.7969" lon="0.78653">
        <ele>140.1</ele>
        <time>2026-05-02T12:48:43.000Z</time>
      </trkpt>
      <trkpt lat="44.79691" lon="0.78655">
        <ele>140.1</ele>
        <time>2026-05-02T12:48:44.000Z</time>
      </trkpt>
      <trkpt lat="44.79692" lon="0.78656">
        <ele>140.1</ele>
        <time>2026-05-02T12:48:45.000Z</time>
      </trkpt>
      <trkpt lat="44.79693" lon="0.78658">
        <ele>140.2</ele>
        <time>2026-05-02T12:48:46.000Z</time>
      </trkpt>
      <trkpt lat="44.79694" lon="0.7866">
        <ele>140.4</ele>
        <time>2026-05-02T12:48:47.000Z</time>
      </trkpt>
      <trkpt lat="44.79695" lon="0.78662">
        <ele>140.5</ele>
        <time>2026-05-02T12:48:48.000Z</time>
      </trkpt>
      <trkpt lat="44.79697" lon="0.78664">
        <ele>140.5</ele>
        <time>2026-05-02T12:48:49.000Z</time>
      </trkpt>
      <trkpt lat="44.79698" lon="0.78666">
        <ele>140.5</ele>
        <time>2026-05-02T12:48:50.000Z</time>
      </trkpt>
      <trkpt lat="44.79699" lon="0.78668">
        <ele>140.5</ele>
        <time>2026-05-02T12:48:51.000Z</time>
      </trkpt>
      <trkpt lat="44.797" lon="0.7867">
        <ele>140.4</ele>
        <time>2026-05-02T12:48:52.000Z</time>
      </trkpt>
      <trkpt lat="44.79701" lon="0.78672">
        <ele>140.4</ele>
        <time>2026-05-02T12:48:53.000Z</time>
      </trkpt>
      <trkpt lat="44.79702" lon="0.78674">
        <ele>140.2</ele>
        <time>2026-05-02T12:48:54.000Z</time>
      </trkpt>
      <trkpt lat="44.79703" lon="0.78676">
        <ele>140.1</ele>
        <time>2026-05-02T12:48:55.000Z</time>
      </trkpt>
      <trkpt lat="44.79704" lon="0.78678">
        <ele>140.3</ele>
        <time>2026-05-02T12:48:56.000Z</time>
      </trkpt>
      <trkpt lat="44.79705" lon="0.7868">
        <ele>140.4</ele>
        <time>2026-05-02T12:48:57.000Z</time>
      </trkpt>
      <trkpt lat="44.79706" lon="0.78682">
        <ele>140.3</ele>
        <time>2026-05-02T12:48:58.000Z</time>
      </trkpt>
      <trkpt lat="44.79707" lon="0.78684">
        <ele>140.3</ele>
        <time>2026-05-02T12:48:59.000Z</time>
      </trkpt>
      <trkpt lat="44.79708" lon="0.78686">
        <ele>140.3</ele>
        <time>2026-05-02T12:49:00.000Z</time>
      </trkpt>
      <trkpt lat="44.79709" lon="0.78687">
        <ele>140.5</ele>
        <time>2026-05-02T12:49:01.000Z</time>
      </trkpt>
      <trkpt lat="44.7971" lon="0.78689">
        <ele>140.4</ele>
        <time>2026-05-02T12:49:02.000Z</time>
      </trkpt>
      <trkpt lat="44.79711" lon="0.78691">
        <ele>139.4</ele>
        <time>2026-05-02T12:49:03.000Z</time>
      </trkpt>
      <trkpt lat="44.79713" lon="0.78692">
        <ele>139.5</ele>
        <time>2026-05-02T12:49:04.000Z</time>
      </trkpt>
      <trkpt lat="44.79714" lon="0.78694">
        <ele>139.5</ele>
        <time>2026-05-02T12:49:05.000Z</time>
      </trkpt>
      <trkpt lat="44.79714" lon="0.78696">
        <ele>139.3</ele>
        <time>2026-05-02T12:49:06.000Z</time>
      </trkpt>
      <trkpt lat="44.79714" lon="0.78699">
        <ele>139.5</ele>
        <time>2026-05-02T12:49:07.000Z</time>
      </trkpt>
      <trkpt lat="44.79715" lon="0.78701">
        <ele>138.4</ele>
        <time>2026-05-02T12:49:08.000Z</time>
      </trkpt>
      <trkpt lat="44.79715" lon="0.78703">
        <ele>138.5</ele>
        <time>2026-05-02T12:49:09.000Z</time>
      </trkpt>
      <trkpt lat="44.79715" lon="0.78705">
        <ele>139.3</ele>
        <time>2026-05-02T12:49:10.000Z</time>
      </trkpt>
      <trkpt lat="44.79716" lon="0.78708">
        <ele>139.3</ele>
        <time>2026-05-02T12:49:11.000Z</time>
      </trkpt>
      <trkpt lat="44.79717" lon="0.7871">
        <ele>139.5</ele>
        <time>2026-05-02T12:49:12.000Z</time>
      </trkpt>
      <trkpt lat="44.79717" lon="0.78712">
        <ele>139.5</ele>
        <time>2026-05-02T12:49:13.000Z</time>
      </trkpt>
      <trkpt lat="44.79718" lon="0.78714">
        <ele>139.8</ele>
        <time>2026-05-02T12:49:14.000Z</time>
      </trkpt>
      <trkpt lat="44.79719" lon="0.78716">
        <ele>139.7</ele>
        <time>2026-05-02T12:49:15.000Z</time>
      </trkpt>
      <trkpt lat="44.79719" lon="0.78718">
        <ele>140.6</ele>
        <time>2026-05-02T12:49:16.000Z</time>
      </trkpt>
      <trkpt lat="44.7972" lon="0.7872">
        <ele>140.9</ele>
        <time>2026-05-02T12:49:17.000Z</time>
      </trkpt>
      <trkpt lat="44.79721" lon="0.78722">
        <ele>141.1</ele>
        <time>2026-05-02T12:49:18.000Z</time>
      </trkpt>
      <trkpt lat="44.79722" lon="0.78724">
        <ele>140.7</ele>
        <time>2026-05-02T12:49:19.000Z</time>
      </trkpt>
      <trkpt lat="44.79723" lon="0.78726">
        <ele>140.8</ele>
        <time>2026-05-02T12:49:20.000Z</time>
      </trkpt>
      <trkpt lat="44.79723" lon="0.78728">
        <ele>140.6</ele>
        <time>2026-05-02T12:49:21.000Z</time>
      </trkpt>
      <trkpt lat="44.79724" lon="0.7873">
        <ele>140.1</ele>
        <time>2026-05-02T12:49:22.000Z</time>
      </trkpt>
      <trkpt lat="44.79725" lon="0.78731">
        <ele>140.1</ele>
        <time>2026-05-02T12:49:23.000Z</time>
      </trkpt>
      <trkpt lat="44.79726" lon="0.78733">
        <ele>139.9</ele>
        <time>2026-05-02T12:49:24.000Z</time>
      </trkpt>
      <trkpt lat="44.79727" lon="0.78735">
        <ele>139.8</ele>
        <time>2026-05-02T12:49:25.000Z</time>
      </trkpt>
      <trkpt lat="44.79728" lon="0.78737">
        <ele>140</ele>
        <time>2026-05-02T12:49:26.000Z</time>
      </trkpt>
      <trkpt lat="44.79729" lon="0.78739">
        <ele>140.1</ele>
        <time>2026-05-02T12:49:27.000Z</time>
      </trkpt>
      <trkpt lat="44.7973" lon="0.7874">
        <ele>140</ele>
        <time>2026-05-02T12:49:28.000Z</time>
      </trkpt>
      <trkpt lat="44.79731" lon="0.78742">
        <ele>139.9</ele>
        <time>2026-05-02T12:49:29.000Z</time>
      </trkpt>
      <trkpt lat="44.79732" lon="0.78744">
        <ele>140.1</ele>
        <time>2026-05-02T12:49:30.000Z</time>
      </trkpt>
      <trkpt lat="44.79733" lon="0.78745">
        <ele>140.2</ele>
        <time>2026-05-02T12:49:31.000Z</time>
      </trkpt>
      <trkpt lat="44.79735" lon="0.78747">
        <ele>140.4</ele>
        <time>2026-05-02T12:49:32.000Z</time>
      </trkpt>
      <trkpt lat="44.79736" lon="0.78748">
        <ele>140.4</ele>
        <time>2026-05-02T12:49:33.000Z</time>
      </trkpt>
      <trkpt lat="44.79737" lon="0.78749">
        <ele>140.5</ele>
        <time>2026-05-02T12:49:34.000Z</time>
      </trkpt>
      <trkpt lat="44.79739" lon="0.78751">
        <ele>140.7</ele>
        <time>2026-05-02T12:49:35.000Z</time>
      </trkpt>
      <trkpt lat="44.7974" lon="0.78752">
        <ele>140.7</ele>
        <time>2026-05-02T12:49:36.000Z</time>
      </trkpt>
      <trkpt lat="44.79742" lon="0.78754">
        <ele>140.3</ele>
        <time>2026-05-02T12:49:37.000Z</time>
      </trkpt>
      <trkpt lat="44.79743" lon="0.78756">
        <ele>140.5</ele>
        <time>2026-05-02T12:49:38.000Z</time>
      </trkpt>
      <trkpt lat="44.79744" lon="0.78758">
        <ele>140.9</ele>
        <time>2026-05-02T12:49:39.000Z</time>
      </trkpt>
      <trkpt lat="44.79745" lon="0.78759">
        <ele>141.1</ele>
        <time>2026-05-02T12:49:40.000Z</time>
      </trkpt>
      <trkpt lat="44.79747" lon="0.78761">
        <ele>141.4</ele>
        <time>2026-05-02T12:49:41.000Z</time>
      </trkpt>
      <trkpt lat="44.79749" lon="0.78762">
        <ele>141.5</ele>
        <time>2026-05-02T12:49:42.000Z</time>
      </trkpt>
      <trkpt lat="44.79751" lon="0.78763">
        <ele>141.3</ele>
        <time>2026-05-02T12:49:43.000Z</time>
      </trkpt>
      <trkpt lat="44.79753" lon="0.78764">
        <ele>141.4</ele>
        <time>2026-05-02T12:49:44.000Z</time>
      </trkpt>
      <trkpt lat="44.79755" lon="0.78765">
        <ele>142.7</ele>
        <time>2026-05-02T12:49:45.000Z</time>
      </trkpt>
      <trkpt lat="44.79756" lon="0.78766">
        <ele>142.8</ele>
        <time>2026-05-02T12:49:46.000Z</time>
      </trkpt>
      <trkpt lat="44.79757" lon="0.78767">
        <ele>143.3</ele>
        <time>2026-05-02T12:49:47.000Z</time>
      </trkpt>
      <trkpt lat="44.79759" lon="0.78768">
        <ele>143.7</ele>
        <time>2026-05-02T12:49:48.000Z</time>
      </trkpt>
      <trkpt lat="44.7976" lon="0.78769">
        <ele>144.1</ele>
        <time>2026-05-02T12:49:49.000Z</time>
      </trkpt>
      <trkpt lat="44.79762" lon="0.7877">
        <ele>144.3</ele>
        <time>2026-05-02T12:49:50.000Z</time>
      </trkpt>
      <trkpt lat="44.79763" lon="0.78771">
        <ele>144.6</ele>
        <time>2026-05-02T12:49:51.000Z</time>
      </trkpt>
      <trkpt lat="44.79764" lon="0.78772">
        <ele>144.4</ele>
        <time>2026-05-02T12:49:52.000Z</time>
      </trkpt>
      <trkpt lat="44.79766" lon="0.78773">
        <ele>144.9</ele>
        <time>2026-05-02T12:49:53.000Z</time>
      </trkpt>
      <trkpt lat="44.79767" lon="0.78773">
        <ele>145.1</ele>
        <time>2026-05-02T12:49:54.000Z</time>
      </trkpt>
      <trkpt lat="44.79769" lon="0.78774">
        <ele>145.4</ele>
        <time>2026-05-02T12:49:55.000Z</time>
      </trkpt>
      <trkpt lat="44.7977" lon="0.78775">
        <ele>145.7</ele>
        <time>2026-05-02T12:49:56.000Z</time>
      </trkpt>
      <trkpt lat="44.79772" lon="0.78776">
        <ele>146.6</ele>
        <time>2026-05-02T12:49:57.000Z</time>
      </trkpt>
      <trkpt lat="44.79773" lon="0.78776">
        <ele>146.2</ele>
        <time>2026-05-02T12:49:58.000Z</time>
      </trkpt>
      <trkpt lat="44.79775" lon="0.78777">
        <ele>146.3</ele>
        <time>2026-05-02T12:49:59.000Z</time>
      </trkpt>
      <trkpt lat="44.79776" lon="0.78778">
        <ele>146.1</ele>
        <time>2026-05-02T12:50:00.000Z</time>
      </trkpt>
      <trkpt lat="44.79778" lon="0.78778">
        <ele>146.1</ele>
        <time>2026-05-02T12:50:01.000Z</time>
      </trkpt>
      <trkpt lat="44.79779" lon="0.78779">
        <ele>146.3</ele>
        <time>2026-05-02T12:50:02.000Z</time>
      </trkpt>
      <trkpt lat="44.79781" lon="0.78779">
        <ele>146.2</ele>
        <time>2026-05-02T12:50:03.000Z</time>
      </trkpt>
      <trkpt lat="44.79782" lon="0.7878">
        <ele>146.3</ele>
        <time>2026-05-02T12:50:04.000Z</time>
      </trkpt>
      <trkpt lat="44.79784" lon="0.7878">
        <ele>146.6</ele>
        <time>2026-05-02T12:50:05.000Z</time>
      </trkpt>
      <trkpt lat="44.79786" lon="0.78781">
        <ele>146.8</ele>
        <time>2026-05-02T12:50:06.000Z</time>
      </trkpt>
      <trkpt lat="44.79787" lon="0.78781">
        <ele>146.8</ele>
        <time>2026-05-02T12:50:07.000Z</time>
      </trkpt>
      <trkpt lat="44.79789" lon="0.78782">
        <ele>146.7</ele>
        <time>2026-05-02T12:50:08.000Z</time>
      </trkpt>
      <trkpt lat="44.79791" lon="0.78782">
        <ele>147</ele>
        <time>2026-05-02T12:50:09.000Z</time>
      </trkpt>
      <trkpt lat="44.79792" lon="0.78782">
        <ele>146.9</ele>
        <time>2026-05-02T12:50:10.000Z</time>
      </trkpt>
      <trkpt lat="44.79794" lon="0.78783">
        <ele>147.3</ele>
        <time>2026-05-02T12:50:11.000Z</time>
      </trkpt>
      <trkpt lat="44.79796" lon="0.78783">
        <ele>147.3</ele>
        <time>2026-05-02T12:50:12.000Z</time>
      </trkpt>
      <trkpt lat="44.79798" lon="0.78783">
        <ele>147.1</ele>
        <time>2026-05-02T12:50:13.000Z</time>
      </trkpt>
      <trkpt lat="44.79799" lon="0.78783">
        <ele>146.9</ele>
        <time>2026-05-02T12:50:14.000Z</time>
      </trkpt>
      <trkpt lat="44.79801" lon="0.78784">
        <ele>146.8</ele>
        <time>2026-05-02T12:50:15.000Z</time>
      </trkpt>
      <trkpt lat="44.79803" lon="0.78784">
        <ele>146.9</ele>
        <time>2026-05-02T12:50:16.000Z</time>
      </trkpt>
      <trkpt lat="44.79805" lon="0.78784">
        <ele>146.7</ele>
        <time>2026-05-02T12:50:17.000Z</time>
      </trkpt>
      <trkpt lat="44.79806" lon="0.78784">
        <ele>146.9</ele>
        <time>2026-05-02T12:50:18.000Z</time>
      </trkpt>
      <trkpt lat="44.79808" lon="0.78784">
        <ele>146.9</ele>
        <time>2026-05-02T12:50:19.000Z</time>
      </trkpt>
      <trkpt lat="44.7981" lon="0.78784">
        <ele>146.4</ele>
        <time>2026-05-02T12:50:20.000Z</time>
      </trkpt>
      <trkpt lat="44.79811" lon="0.78784">
        <ele>145.9</ele>
        <time>2026-05-02T12:50:21.000Z</time>
      </trkpt>
      <trkpt lat="44.79813" lon="0.78783">
        <ele>146.7</ele>
        <time>2026-05-02T12:50:22.000Z</time>
      </trkpt>
      <trkpt lat="44.79816" lon="0.78783">
        <ele>147</ele>
        <time>2026-05-02T12:50:23.000Z</time>
      </trkpt>
      <trkpt lat="44.79818" lon="0.78782">
        <ele>145.3</ele>
        <time>2026-05-02T12:50:24.000Z</time>
      </trkpt>
      <trkpt lat="44.7982" lon="0.78782">
        <ele>143.9</ele>
        <time>2026-05-02T12:50:25.000Z</time>
      </trkpt>
      <trkpt lat="44.79822" lon="0.78781">
        <ele>143.6</ele>
        <time>2026-05-02T12:50:26.000Z</time>
      </trkpt>
      <trkpt lat="44.79824" lon="0.78781">
        <ele>142.5</ele>
        <time>2026-05-02T12:50:27.000Z</time>
      </trkpt>
      <trkpt lat="44.79827" lon="0.78781">
        <ele>141.3</ele>
        <time>2026-05-02T12:50:28.000Z</time>
      </trkpt>
      <trkpt lat="44.79828" lon="0.7878">
        <ele>140.5</ele>
        <time>2026-05-02T12:50:29.000Z</time>
      </trkpt>
      <trkpt lat="44.79829" lon="0.78779">
        <ele>140</ele>
        <time>2026-05-02T12:50:30.000Z</time>
      </trkpt>
      <trkpt lat="44.79831" lon="0.7878">
        <ele>139.7</ele>
        <time>2026-05-02T12:50:31.000Z</time>
      </trkpt>
      <trkpt lat="44.79832" lon="0.78779">
        <ele>140.2</ele>
        <time>2026-05-02T12:50:32.000Z</time>
      </trkpt>
      <trkpt lat="44.79834" lon="0.78779">
        <ele>141</ele>
        <time>2026-05-02T12:50:33.000Z</time>
      </trkpt>
      <trkpt lat="44.79836" lon="0.78779">
        <ele>141.3</ele>
        <time>2026-05-02T12:50:34.000Z</time>
      </trkpt>
      <trkpt lat="44.79838" lon="0.7878">
        <ele>141.4</ele>
        <time>2026-05-02T12:50:35.000Z</time>
      </trkpt>
      <trkpt lat="44.79839" lon="0.78782">
        <ele>141.4</ele>
        <time>2026-05-02T12:50:36.000Z</time>
      </trkpt>
      <trkpt lat="44.79841" lon="0.78782">
        <ele>141.4</ele>
        <time>2026-05-02T12:50:37.000Z</time>
      </trkpt>
      <trkpt lat="44.79843" lon="0.78782">
        <ele>142.3</ele>
        <time>2026-05-02T12:50:38.000Z</time>
      </trkpt>
      <trkpt lat="44.79845" lon="0.78781">
        <ele>143.3</ele>
        <time>2026-05-02T12:50:39.000Z</time>
      </trkpt>
      <trkpt lat="44.79846" lon="0.78781">
        <ele>143.3</ele>
        <time>2026-05-02T12:50:40.000Z</time>
      </trkpt>
      <trkpt lat="44.79848" lon="0.78781">
        <ele>143.2</ele>
        <time>2026-05-02T12:50:41.000Z</time>
      </trkpt>
      <trkpt lat="44.7985" lon="0.7878">
        <ele>143.4</ele>
        <time>2026-05-02T12:50:42.000Z</time>
      </trkpt>
      <trkpt lat="44.79852" lon="0.7878">
        <ele>143</ele>
        <time>2026-05-02T12:50:43.000Z</time>
      </trkpt>
      <trkpt lat="44.79853" lon="0.78775">
        <ele>142.9</ele>
        <time>2026-05-02T12:50:44.000Z</time>
      </trkpt>
      <trkpt lat="44.79852" lon="0.78774">
        <ele>143.2</ele>
        <time>2026-05-02T12:50:45.000Z</time>
      </trkpt>
      <trkpt lat="44.79852" lon="0.78773">
        <ele>144</ele>
        <time>2026-05-02T12:50:46.000Z</time>
      </trkpt>
      <trkpt lat="44.79853" lon="0.78773">
        <ele>144.8</ele>
        <time>2026-05-02T12:50:47.000Z</time>
      </trkpt>
      <trkpt lat="44.79855" lon="0.78774">
        <ele>145.1</ele>
        <time>2026-05-02T12:50:48.000Z</time>
      </trkpt>
      <trkpt lat="44.79857" lon="0.78775">
        <ele>145.7</ele>
        <time>2026-05-02T12:50:49.000Z</time>
      </trkpt>
      <trkpt lat="44.79859" lon="0.78776">
        <ele>146.2</ele>
        <time>2026-05-02T12:50:50.000Z</time>
      </trkpt>
      <trkpt lat="44.79861" lon="0.78776">
        <ele>147.5</ele>
        <time>2026-05-02T12:50:51.000Z</time>
      </trkpt>
      <trkpt lat="44.79862" lon="0.78776">
        <ele>147.9</ele>
        <time>2026-05-02T12:50:52.000Z</time>
      </trkpt>
      <trkpt lat="44.79864" lon="0.78776">
        <ele>148</ele>
        <time>2026-05-02T12:50:53.000Z</time>
      </trkpt>
      <trkpt lat="44.79866" lon="0.78776">
        <ele>148.8</ele>
        <time>2026-05-02T12:50:54.000Z</time>
      </trkpt>
      <trkpt lat="44.79868" lon="0.78777">
        <ele>148.6</ele>
        <time>2026-05-02T12:50:55.000Z</time>
      </trkpt>
      <trkpt lat="44.79869" lon="0.78778">
        <ele>148.7</ele>
        <time>2026-05-02T12:50:56.000Z</time>
      </trkpt>
      <trkpt lat="44.79871" lon="0.78778">
        <ele>148.7</ele>
        <time>2026-05-02T12:50:57.000Z</time>
      </trkpt>
      <trkpt lat="44.79873" lon="0.78779">
        <ele>148.1</ele>
        <time>2026-05-02T12:50:58.000Z</time>
      </trkpt>
      <trkpt lat="44.79875" lon="0.78779">
        <ele>148</ele>
        <time>2026-05-02T12:50:59.000Z</time>
      </trkpt>
      <trkpt lat="44.79876" lon="0.78779">
        <ele>147.9</ele>
        <time>2026-05-02T12:51:00.000Z</time>
      </trkpt>
      <trkpt lat="44.79878" lon="0.7878">
        <ele>148.8</ele>
        <time>2026-05-02T12:51:01.000Z</time>
      </trkpt>
      <trkpt lat="44.7988" lon="0.7878">
        <ele>148.9</ele>
        <time>2026-05-02T12:51:02.000Z</time>
      </trkpt>
      <trkpt lat="44.79882" lon="0.78781">
        <ele>149.5</ele>
        <time>2026-05-02T12:51:03.000Z</time>
      </trkpt>
      <trkpt lat="44.79883" lon="0.78781">
        <ele>149.4</ele>
        <time>2026-05-02T12:51:04.000Z</time>
      </trkpt>
      <trkpt lat="44.79885" lon="0.78781">
        <ele>149.3</ele>
        <time>2026-05-02T12:51:05.000Z</time>
      </trkpt>
      <trkpt lat="44.79887" lon="0.78782">
        <ele>149.2</ele>
        <time>2026-05-02T12:51:06.000Z</time>
      </trkpt>
      <trkpt lat="44.79889" lon="0.78782">
        <ele>149.3</ele>
        <time>2026-05-02T12:51:07.000Z</time>
      </trkpt>
      <trkpt lat="44.7989" lon="0.78783">
        <ele>149.8</ele>
        <time>2026-05-02T12:51:08.000Z</time>
      </trkpt>
      <trkpt lat="44.79892" lon="0.78783">
        <ele>150</ele>
        <time>2026-05-02T12:51:09.000Z</time>
      </trkpt>
      <trkpt lat="44.79894" lon="0.78784">
        <ele>150.1</ele>
        <time>2026-05-02T12:51:10.000Z</time>
      </trkpt>
      <trkpt lat="44.79895" lon="0.78784">
        <ele>150.4</ele>
        <time>2026-05-02T12:51:11.000Z</time>
      </trkpt>
      <trkpt lat="44.79897" lon="0.78784">
        <ele>150.1</ele>
        <time>2026-05-02T12:51:12.000Z</time>
      </trkpt>
      <trkpt lat="44.79899" lon="0.78785">
        <ele>150.3</ele>
        <time>2026-05-02T12:51:13.000Z</time>
      </trkpt>
      <trkpt lat="44.799" lon="0.78785">
        <ele>150.4</ele>
        <time>2026-05-02T12:51:14.000Z</time>
      </trkpt>
      <trkpt lat="44.79902" lon="0.78785">
        <ele>150.6</ele>
        <time>2026-05-02T12:51:15.000Z</time>
      </trkpt>
      <trkpt lat="44.79904" lon="0.78786">
        <ele>150.5</ele>
        <time>2026-05-02T12:51:16.000Z</time>
      </trkpt>
      <trkpt lat="44.79905" lon="0.78787">
        <ele>148.8</ele>
        <time>2026-05-02T12:51:17.000Z</time>
      </trkpt>
      <trkpt lat="44.79907" lon="0.78787">
        <ele>150.2</ele>
        <time>2026-05-02T12:51:18.000Z</time>
      </trkpt>
      <trkpt lat="44.79908" lon="0.78787">
        <ele>151.1</ele>
        <time>2026-05-02T12:51:19.000Z</time>
      </trkpt>
      <trkpt lat="44.7991" lon="0.78787">
        <ele>151.8</ele>
        <time>2026-05-02T12:51:20.000Z</time>
      </trkpt>
      <trkpt lat="44.79911" lon="0.78787">
        <ele>151.9</ele>
        <time>2026-05-02T12:51:21.000Z</time>
      </trkpt>
      <trkpt lat="44.79913" lon="0.78788">
        <ele>151.6</ele>
        <time>2026-05-02T12:51:22.000Z</time>
      </trkpt>
      <trkpt lat="44.79915" lon="0.78788">
        <ele>151.8</ele>
        <time>2026-05-02T12:51:23.000Z</time>
      </trkpt>
      <trkpt lat="44.79917" lon="0.78789">
        <ele>151.9</ele>
        <time>2026-05-02T12:51:24.000Z</time>
      </trkpt>
      <trkpt lat="44.79918" lon="0.78789">
        <ele>151.6</ele>
        <time>2026-05-02T12:51:25.000Z</time>
      </trkpt>
      <trkpt lat="44.7992" lon="0.7879">
        <ele>151.6</ele>
        <time>2026-05-02T12:51:26.000Z</time>
      </trkpt>
      <trkpt lat="44.79922" lon="0.7879">
        <ele>151.2</ele>
        <time>2026-05-02T12:51:27.000Z</time>
      </trkpt>
      <trkpt lat="44.79924" lon="0.78791">
        <ele>151.5</ele>
        <time>2026-05-02T12:51:28.000Z</time>
      </trkpt>
      <trkpt lat="44.79926" lon="0.78791">
        <ele>151.2</ele>
        <time>2026-05-02T12:51:29.000Z</time>
      </trkpt>
      <trkpt lat="44.79927" lon="0.78792">
        <ele>151.3</ele>
        <time>2026-05-02T12:51:30.000Z</time>
      </trkpt>
      <trkpt lat="44.79929" lon="0.78792">
        <ele>151.4</ele>
        <time>2026-05-02T12:51:31.000Z</time>
      </trkpt>
      <trkpt lat="44.79931" lon="0.78793">
        <ele>151.5</ele>
        <time>2026-05-02T12:51:32.000Z</time>
      </trkpt>
      <trkpt lat="44.79932" lon="0.78794">
        <ele>151.8</ele>
        <time>2026-05-02T12:51:33.000Z</time>
      </trkpt>
      <trkpt lat="44.79934" lon="0.78794">
        <ele>151.9</ele>
        <time>2026-05-02T12:51:34.000Z</time>
      </trkpt>
      <trkpt lat="44.79936" lon="0.78795">
        <ele>152.3</ele>
        <time>2026-05-02T12:51:35.000Z</time>
      </trkpt>
      <trkpt lat="44.79937" lon="0.78796">
        <ele>152.2</ele>
        <time>2026-05-02T12:51:36.000Z</time>
      </trkpt>
      <trkpt lat="44.79938" lon="0.78798">
        <ele>152.1</ele>
        <time>2026-05-02T12:51:37.000Z</time>
      </trkpt>
      <trkpt lat="44.7994" lon="0.78799">
        <ele>151.8</ele>
        <time>2026-05-02T12:51:38.000Z</time>
      </trkpt>
      <trkpt lat="44.79941" lon="0.78799">
        <ele>151.5</ele>
        <time>2026-05-02T12:51:39.000Z</time>
      </trkpt>
      <trkpt lat="44.79943" lon="0.788">
        <ele>151.5</ele>
        <time>2026-05-02T12:51:40.000Z</time>
      </trkpt>
      <trkpt lat="44.79945" lon="0.788">
        <ele>151.1</ele>
        <time>2026-05-02T12:51:41.000Z</time>
      </trkpt>
      <trkpt lat="44.79947" lon="0.788">
        <ele>151</ele>
        <time>2026-05-02T12:51:42.000Z</time>
      </trkpt>
      <trkpt lat="44.79949" lon="0.78801">
        <ele>151.1</ele>
        <time>2026-05-02T12:51:43.000Z</time>
      </trkpt>
      <trkpt lat="44.7995" lon="0.78801">
        <ele>151.1</ele>
        <time>2026-05-02T12:51:44.000Z</time>
      </trkpt>
      <trkpt lat="44.79951" lon="0.78801">
        <ele>151.2</ele>
        <time>2026-05-02T12:51:45.000Z</time>
      </trkpt>
      <trkpt lat="44.79952" lon="0.78802">
        <ele>150</ele>
        <time>2026-05-02T12:51:46.000Z</time>
      </trkpt>
      <trkpt lat="44.79953" lon="0.78802">
        <ele>150.4</ele>
        <time>2026-05-02T12:51:47.000Z</time>
      </trkpt>
      <trkpt lat="44.79955" lon="0.78803">
        <ele>150.4</ele>
        <time>2026-05-02T12:51:48.000Z</time>
      </trkpt>
      <trkpt lat="44.79957" lon="0.78803">
        <ele>150.7</ele>
        <time>2026-05-02T12:51:49.000Z</time>
      </trkpt>
      <trkpt lat="44.79959" lon="0.78804">
        <ele>150.8</ele>
        <time>2026-05-02T12:51:50.000Z</time>
      </trkpt>
      <trkpt lat="44.79961" lon="0.78804">
        <ele>151.4</ele>
        <time>2026-05-02T12:51:51.000Z</time>
      </trkpt>
      <trkpt lat="44.79962" lon="0.78804">
        <ele>151.7</ele>
        <time>2026-05-02T12:51:52.000Z</time>
      </trkpt>
      <trkpt lat="44.79964" lon="0.78805">
        <ele>151.8</ele>
        <time>2026-05-02T12:51:53.000Z</time>
      </trkpt>
      <trkpt lat="44.79966" lon="0.78805">
        <ele>151.6</ele>
        <time>2026-05-02T12:51:54.000Z</time>
      </trkpt>
      <trkpt lat="44.79967" lon="0.78806">
        <ele>152.1</ele>
        <time>2026-05-02T12:51:55.000Z</time>
      </trkpt>
      <trkpt lat="44.79969" lon="0.78806">
        <ele>152</ele>
        <time>2026-05-02T12:51:56.000Z</time>
      </trkpt>
      <trkpt lat="44.79971" lon="0.78806">
        <ele>152.4</ele>
        <time>2026-05-02T12:51:57.000Z</time>
      </trkpt>
      <trkpt lat="44.79972" lon="0.78807">
        <ele>153.7</ele>
        <time>2026-05-02T12:51:58.000Z</time>
      </trkpt>
      <trkpt lat="44.79974" lon="0.78808">
        <ele>153.9</ele>
        <time>2026-05-02T12:51:59.000Z</time>
      </trkpt>
      <trkpt lat="44.79975" lon="0.78809">
        <ele>153.7</ele>
        <time>2026-05-02T12:52:00.000Z</time>
      </trkpt>
      <trkpt lat="44.79976" lon="0.78809">
        <ele>153.1</ele>
        <time>2026-05-02T12:52:01.000Z</time>
      </trkpt>
      <trkpt lat="44.79977" lon="0.78808">
        <ele>153.5</ele>
        <time>2026-05-02T12:52:02.000Z</time>
      </trkpt>
      <trkpt lat="44.79978" lon="0.78808">
        <ele>153.1</ele>
        <time>2026-05-02T12:52:03.000Z</time>
      </trkpt>
      <trkpt lat="44.79978" lon="0.78808">
        <ele>153.8</ele>
        <time>2026-05-02T12:52:04.000Z</time>
      </trkpt>
      <trkpt lat="44.79977" lon="0.78808">
        <ele>153.8</ele>
        <time>2026-05-02T12:52:05.000Z</time>
      </trkpt>
      <trkpt lat="44.79978" lon="0.78808">
        <ele>153.8</ele>
        <time>2026-05-02T12:52:06.000Z</time>
      </trkpt>
      <trkpt lat="44.79979" lon="0.78808">
        <ele>153.7</ele>
        <time>2026-05-02T12:52:07.000Z</time>
      </trkpt>
      <trkpt lat="44.79982" lon="0.78807">
        <ele>153.4</ele>
        <time>2026-05-02T12:52:08.000Z</time>
      </trkpt>
      <trkpt lat="44.79983" lon="0.78807">
        <ele>154.2</ele>
        <time>2026-05-02T12:52:09.000Z</time>
      </trkpt>
      <trkpt lat="44.79985" lon="0.78808">
        <ele>154.3</ele>
        <time>2026-05-02T12:52:10.000Z</time>
      </trkpt>
      <trkpt lat="44.79987" lon="0.78808">
        <ele>153.9</ele>
        <time>2026-05-02T12:52:11.000Z</time>
      </trkpt>
      <trkpt lat="44.79989" lon="0.78808">
        <ele>153.5</ele>
        <time>2026-05-02T12:52:12.000Z</time>
      </trkpt>
      <trkpt lat="44.79991" lon="0.78808">
        <ele>152.8</ele>
        <time>2026-05-02T12:52:13.000Z</time>
      </trkpt>
      <trkpt lat="44.79993" lon="0.78809">
        <ele>152.7</ele>
        <time>2026-05-02T12:52:14.000Z</time>
      </trkpt>
      <trkpt lat="44.79994" lon="0.78809">
        <ele>152.7</ele>
        <time>2026-05-02T12:52:15.000Z</time>
      </trkpt>
      <trkpt lat="44.79996" lon="0.78809">
        <ele>152.2</ele>
        <time>2026-05-02T12:52:16.000Z</time>
      </trkpt>
      <trkpt lat="44.79998" lon="0.7881">
        <ele>152.1</ele>
        <time>2026-05-02T12:52:17.000Z</time>
      </trkpt>
      <trkpt lat="44.79999" lon="0.7881">
        <ele>152.2</ele>
        <time>2026-05-02T12:52:18.000Z</time>
      </trkpt>
      <trkpt lat="44.80001" lon="0.7881">
        <ele>152</ele>
        <time>2026-05-02T12:52:19.000Z</time>
      </trkpt>
      <trkpt lat="44.80003" lon="0.78811">
        <ele>152</ele>
        <time>2026-05-02T12:52:20.000Z</time>
      </trkpt>
      <trkpt lat="44.80004" lon="0.78811">
        <ele>152.2</ele>
        <time>2026-05-02T12:52:21.000Z</time>
      </trkpt>
      <trkpt lat="44.80006" lon="0.78811">
        <ele>152.1</ele>
        <time>2026-05-02T12:52:22.000Z</time>
      </trkpt>
      <trkpt lat="44.80007" lon="0.78811">
        <ele>152.6</ele>
        <time>2026-05-02T12:52:23.000Z</time>
      </trkpt>
      <trkpt lat="44.80009" lon="0.78811">
        <ele>153.1</ele>
        <time>2026-05-02T12:52:24.000Z</time>
      </trkpt>
      <trkpt lat="44.8001" lon="0.78812">
        <ele>153.1</ele>
        <time>2026-05-02T12:52:25.000Z</time>
      </trkpt>
      <trkpt lat="44.80012" lon="0.78812">
        <ele>153.6</ele>
        <time>2026-05-02T12:52:26.000Z</time>
      </trkpt>
      <trkpt lat="44.80013" lon="0.78812">
        <ele>153.5</ele>
        <time>2026-05-02T12:52:27.000Z</time>
      </trkpt>
      <trkpt lat="44.80015" lon="0.78812">
        <ele>153.5</ele>
        <time>2026-05-02T12:52:28.000Z</time>
      </trkpt>
      <trkpt lat="44.80017" lon="0.78813">
        <ele>154.1</ele>
        <time>2026-05-02T12:52:29.000Z</time>
      </trkpt>
      <trkpt lat="44.80019" lon="0.78813">
        <ele>154.2</ele>
        <time>2026-05-02T12:52:30.000Z</time>
      </trkpt>
      <trkpt lat="44.8002" lon="0.78813">
        <ele>154.2</ele>
        <time>2026-05-02T12:52:31.000Z</time>
      </trkpt>
      <trkpt lat="44.80022" lon="0.78814">
        <ele>154</ele>
        <time>2026-05-02T12:52:32.000Z</time>
      </trkpt>
      <trkpt lat="44.80024" lon="0.78814">
        <ele>154.2</ele>
        <time>2026-05-02T12:52:33.000Z</time>
      </trkpt>
      <trkpt lat="44.80025" lon="0.78814">
        <ele>154.9</ele>
        <time>2026-05-02T12:52:34.000Z</time>
      </trkpt>
      <trkpt lat="44.80027" lon="0.78815">
        <ele>154.7</ele>
        <time>2026-05-02T12:52:35.000Z</time>
      </trkpt>
      <trkpt lat="44.80029" lon="0.78815">
        <ele>154.4</ele>
        <time>2026-05-02T12:52:36.000Z</time>
      </trkpt>
      <trkpt lat="44.80031" lon="0.78816">
        <ele>154.5</ele>
        <time>2026-05-02T12:52:37.000Z</time>
      </trkpt>
      <trkpt lat="44.80032" lon="0.78816">
        <ele>155</ele>
        <time>2026-05-02T12:52:38.000Z</time>
      </trkpt>
      <trkpt lat="44.80034" lon="0.78816">
        <ele>155.4</ele>
        <time>2026-05-02T12:52:39.000Z</time>
      </trkpt>
      <trkpt lat="44.80036" lon="0.78816">
        <ele>155.6</ele>
        <time>2026-05-02T12:52:40.000Z</time>
      </trkpt>
      <trkpt lat="44.80037" lon="0.78816">
        <ele>155.9</ele>
        <time>2026-05-02T12:52:41.000Z</time>
      </trkpt>
      <trkpt lat="44.80039" lon="0.78817">
        <ele>155.4</ele>
        <time>2026-05-02T12:52:42.000Z</time>
      </trkpt>
      <trkpt lat="44.80041" lon="0.78817">
        <ele>155.1</ele>
        <time>2026-05-02T12:52:43.000Z</time>
      </trkpt>
      <trkpt lat="44.80042" lon="0.78817">
        <ele>156</ele>
        <time>2026-05-02T12:52:44.000Z</time>
      </trkpt>
      <trkpt lat="44.80044" lon="0.78817">
        <ele>156.6</ele>
        <time>2026-05-02T12:52:45.000Z</time>
      </trkpt>
      <trkpt lat="44.80045" lon="0.78817">
        <ele>156.4</ele>
        <time>2026-05-02T12:52:46.000Z</time>
      </trkpt>
      <trkpt lat="44.80046" lon="0.78817">
        <ele>159.1</ele>
        <time>2026-05-02T12:52:47.000Z</time>
      </trkpt>
      <trkpt lat="44.80048" lon="0.7882">
        <ele>151.6</ele>
        <time>2026-05-02T12:52:48.000Z</time>
      </trkpt>
      <trkpt lat="44.8005" lon="0.7882">
        <ele>152.5</ele>
        <time>2026-05-02T12:52:49.000Z</time>
      </trkpt>
      <trkpt lat="44.80053" lon="0.78821">
        <ele>152</ele>
        <time>2026-05-02T12:52:50.000Z</time>
      </trkpt>
      <trkpt lat="44.80054" lon="0.78821">
        <ele>151.7</ele>
        <time>2026-05-02T12:52:51.000Z</time>
      </trkpt>
      <trkpt lat="44.80056" lon="0.78822">
        <ele>151.2</ele>
        <time>2026-05-02T12:52:52.000Z</time>
      </trkpt>
      <trkpt lat="44.80058" lon="0.78822">
        <ele>151</ele>
        <time>2026-05-02T12:52:53.000Z</time>
      </trkpt>
      <trkpt lat="44.8006" lon="0.78823">
        <ele>150.2</ele>
        <time>2026-05-02T12:52:54.000Z</time>
      </trkpt>
      <trkpt lat="44.80062" lon="0.78823">
        <ele>150.2</ele>
        <time>2026-05-02T12:52:55.000Z</time>
      </trkpt>
      <trkpt lat="44.80063" lon="0.78823">
        <ele>150.2</ele>
        <time>2026-05-02T12:52:56.000Z</time>
      </trkpt>
      <trkpt lat="44.80065" lon="0.78824">
        <ele>150.4</ele>
        <time>2026-05-02T12:52:57.000Z</time>
      </trkpt>
      <trkpt lat="44.80067" lon="0.78824">
        <ele>151.3</ele>
        <time>2026-05-02T12:52:58.000Z</time>
      </trkpt>
      <trkpt lat="44.80069" lon="0.78825">
        <ele>151.3</ele>
        <time>2026-05-02T12:52:59.000Z</time>
      </trkpt>
      <trkpt lat="44.8007" lon="0.78826">
        <ele>150.9</ele>
        <time>2026-05-02T12:53:00.000Z</time>
      </trkpt>
      <trkpt lat="44.80072" lon="0.78827">
        <ele>150.4</ele>
        <time>2026-05-02T12:53:01.000Z</time>
      </trkpt>
      <trkpt lat="44.80074" lon="0.78828">
        <ele>149.7</ele>
        <time>2026-05-02T12:53:02.000Z</time>
      </trkpt>
      <trkpt lat="44.80076" lon="0.78829">
        <ele>149.4</ele>
        <time>2026-05-02T12:53:03.000Z</time>
      </trkpt>
      <trkpt lat="44.80077" lon="0.7883">
        <ele>149.2</ele>
        <time>2026-05-02T12:53:04.000Z</time>
      </trkpt>
      <trkpt lat="44.80079" lon="0.78831">
        <ele>148.8</ele>
        <time>2026-05-02T12:53:05.000Z</time>
      </trkpt>
      <trkpt lat="44.80081" lon="0.78832">
        <ele>148.8</ele>
        <time>2026-05-02T12:53:06.000Z</time>
      </trkpt>
      <trkpt lat="44.80082" lon="0.78834">
        <ele>149</ele>
        <time>2026-05-02T12:53:07.000Z</time>
      </trkpt>
      <trkpt lat="44.80084" lon="0.78835">
        <ele>148.6</ele>
        <time>2026-05-02T12:53:08.000Z</time>
      </trkpt>
      <trkpt lat="44.80085" lon="0.78837">
        <ele>148.3</ele>
        <time>2026-05-02T12:53:09.000Z</time>
      </trkpt>
      <trkpt lat="44.80087" lon="0.78839">
        <ele>148.3</ele>
        <time>2026-05-02T12:53:10.000Z</time>
      </trkpt>
      <trkpt lat="44.80088" lon="0.78841">
        <ele>148.3</ele>
        <time>2026-05-02T12:53:11.000Z</time>
      </trkpt>
      <trkpt lat="44.80089" lon="0.78843">
        <ele>148.1</ele>
        <time>2026-05-02T12:53:12.000Z</time>
      </trkpt>
      <trkpt lat="44.8009" lon="0.78844">
        <ele>148.7</ele>
        <time>2026-05-02T12:53:13.000Z</time>
      </trkpt>
      <trkpt lat="44.80091" lon="0.78846">
        <ele>148.7</ele>
        <time>2026-05-02T12:53:14.000Z</time>
      </trkpt>
      <trkpt lat="44.80092" lon="0.78848">
        <ele>148.5</ele>
        <time>2026-05-02T12:53:15.000Z</time>
      </trkpt>
      <trkpt lat="44.80093" lon="0.78849">
        <ele>148.4</ele>
        <time>2026-05-02T12:53:16.000Z</time>
      </trkpt>
      <trkpt lat="44.80095" lon="0.78851">
        <ele>148.5</ele>
        <time>2026-05-02T12:53:17.000Z</time>
      </trkpt>
      <trkpt lat="44.80097" lon="0.78852">
        <ele>148.3</ele>
        <time>2026-05-02T12:53:18.000Z</time>
      </trkpt>
      <trkpt lat="44.80096" lon="0.78852">
        <ele>147.1</ele>
        <time>2026-05-02T12:53:19.000Z</time>
      </trkpt>
      <trkpt lat="44.80096" lon="0.78851">
        <ele>147.1</ele>
        <time>2026-05-02T12:53:20.000Z</time>
      </trkpt>
      <trkpt lat="44.80096" lon="0.78851">
        <ele>147.1</ele>
        <time>2026-05-02T12:53:21.000Z</time>
      </trkpt>
      <trkpt lat="44.80096" lon="0.78851">
        <ele>147.2</ele>
        <time>2026-05-02T12:53:22.000Z</time>
      </trkpt>
      <trkpt lat="44.80098" lon="0.78852">
        <ele>147.3</ele>
        <time>2026-05-02T12:53:23.000Z</time>
      </trkpt>
      <trkpt lat="44.80099" lon="0.78852">
        <ele>147.5</ele>
        <time>2026-05-02T12:53:24.000Z</time>
      </trkpt>
      <trkpt lat="44.801" lon="0.78852">
        <ele>147.6</ele>
        <time>2026-05-02T12:53:25.000Z</time>
      </trkpt>
      <trkpt lat="44.80102" lon="0.78852">
        <ele>147.9</ele>
        <time>2026-05-02T12:53:26.000Z</time>
      </trkpt>
      <trkpt lat="44.80103" lon="0.78852">
        <ele>148</ele>
        <time>2026-05-02T12:53:27.000Z</time>
      </trkpt>
      <trkpt lat="44.80104" lon="0.78852">
        <ele>148.7</ele>
        <time>2026-05-02T12:53:28.000Z</time>
      </trkpt>
      <trkpt lat="44.80105" lon="0.78852">
        <ele>149.9</ele>
        <time>2026-05-02T12:53:29.000Z</time>
      </trkpt>
      <trkpt lat="44.80106" lon="0.78853">
        <ele>150.8</ele>
        <time>2026-05-02T12:53:30.000Z</time>
      </trkpt>
      <trkpt lat="44.80108" lon="0.78853">
        <ele>149.9</ele>
        <time>2026-05-02T12:53:31.000Z</time>
      </trkpt>
      <trkpt lat="44.80109" lon="0.78853">
        <ele>149.8</ele>
        <time>2026-05-02T12:53:32.000Z</time>
      </trkpt>
      <trkpt lat="44.8011" lon="0.78854">
        <ele>150.2</ele>
        <time>2026-05-02T12:53:33.000Z</time>
      </trkpt>
      <trkpt lat="44.80112" lon="0.78853">
        <ele>150.8</ele>
        <time>2026-05-02T12:53:34.000Z</time>
      </trkpt>
      <trkpt lat="44.80113" lon="0.78853">
        <ele>150.7</ele>
        <time>2026-05-02T12:53:35.000Z</time>
      </trkpt>
      <trkpt lat="44.80114" lon="0.78854">
        <ele>150.7</ele>
        <time>2026-05-02T12:53:36.000Z</time>
      </trkpt>
      <trkpt lat="44.80116" lon="0.78854">
        <ele>150.5</ele>
        <time>2026-05-02T12:53:37.000Z</time>
      </trkpt>
      <trkpt lat="44.80117" lon="0.78854">
        <ele>151.3</ele>
        <time>2026-05-02T12:53:38.000Z</time>
      </trkpt>
      <trkpt lat="44.80119" lon="0.78854">
        <ele>152.5</ele>
        <time>2026-05-02T12:53:39.000Z</time>
      </trkpt>
      <trkpt lat="44.80121" lon="0.78854">
        <ele>153.1</ele>
        <time>2026-05-02T12:53:40.000Z</time>
      </trkpt>
      <trkpt lat="44.80123" lon="0.78855">
        <ele>151.7</ele>
        <time>2026-05-02T12:53:41.000Z</time>
      </trkpt>
      <trkpt lat="44.80124" lon="0.78856">
        <ele>150.9</ele>
        <time>2026-05-02T12:53:42.000Z</time>
      </trkpt>
      <trkpt lat="44.80126" lon="0.78856">
        <ele>150.3</ele>
        <time>2026-05-02T12:53:43.000Z</time>
      </trkpt>
      <trkpt lat="44.80128" lon="0.78856">
        <ele>151.1</ele>
        <time>2026-05-02T12:53:44.000Z</time>
      </trkpt>
      <trkpt lat="44.80129" lon="0.78857">
        <ele>151.8</ele>
        <time>2026-05-02T12:53:45.000Z</time>
      </trkpt>
      <trkpt lat="44.80131" lon="0.78857">
        <ele>151.8</ele>
        <time>2026-05-02T12:53:46.000Z</time>
      </trkpt>
      <trkpt lat="44.80132" lon="0.78857">
        <ele>151.4</ele>
        <time>2026-05-02T12:53:47.000Z</time>
      </trkpt>
      <trkpt lat="44.80134" lon="0.78858">
        <ele>151.5</ele>
        <time>2026-05-02T12:53:48.000Z</time>
      </trkpt>
      <trkpt lat="44.80136" lon="0.78857">
        <ele>151.2</ele>
        <time>2026-05-02T12:53:49.000Z</time>
      </trkpt>
      <trkpt lat="44.80137" lon="0.78858">
        <ele>152.1</ele>
        <time>2026-05-02T12:53:50.000Z</time>
      </trkpt>
      <trkpt lat="44.80139" lon="0.78859">
        <ele>151.5</ele>
        <time>2026-05-02T12:53:51.000Z</time>
      </trkpt>
      <trkpt lat="44.80141" lon="0.7886">
        <ele>150.7</ele>
        <time>2026-05-02T12:53:52.000Z</time>
      </trkpt>
      <trkpt lat="44.80142" lon="0.78861">
        <ele>150.9</ele>
        <time>2026-05-02T12:53:53.000Z</time>
      </trkpt>
      <trkpt lat="44.80144" lon="0.78861">
        <ele>151.3</ele>
        <time>2026-05-02T12:53:54.000Z</time>
      </trkpt>
      <trkpt lat="44.80146" lon="0.78863">
        <ele>151</ele>
        <time>2026-05-02T12:53:55.000Z</time>
      </trkpt>
      <trkpt lat="44.80147" lon="0.78863">
        <ele>150.8</ele>
        <time>2026-05-02T12:53:56.000Z</time>
      </trkpt>
      <trkpt lat="44.8015" lon="0.78863">
        <ele>151.3</ele>
        <time>2026-05-02T12:53:57.000Z</time>
      </trkpt>
      <trkpt lat="44.80151" lon="0.78862">
        <ele>151.1</ele>
        <time>2026-05-02T12:53:58.000Z</time>
      </trkpt>
      <trkpt lat="44.80153" lon="0.78862">
        <ele>150.7</ele>
        <time>2026-05-02T12:53:59.000Z</time>
      </trkpt>
      <trkpt lat="44.80155" lon="0.78862">
        <ele>150.8</ele>
        <time>2026-05-02T12:54:00.000Z</time>
      </trkpt>
      <trkpt lat="44.80157" lon="0.78862">
        <ele>151</ele>
        <time>2026-05-02T12:54:01.000Z</time>
      </trkpt>
      <trkpt lat="44.80158" lon="0.78862">
        <ele>150.2</ele>
        <time>2026-05-02T12:54:02.000Z</time>
      </trkpt>
      <trkpt lat="44.80159" lon="0.78862">
        <ele>150.5</ele>
        <time>2026-05-02T12:54:03.000Z</time>
      </trkpt>
      <trkpt lat="44.8016" lon="0.78863">
        <ele>151.2</ele>
        <time>2026-05-02T12:54:04.000Z</time>
      </trkpt>
      <trkpt lat="44.80162" lon="0.78864">
        <ele>151.2</ele>
        <time>2026-05-02T12:54:05.000Z</time>
      </trkpt>
      <trkpt lat="44.80162" lon="0.78864">
        <ele>151.7</ele>
        <time>2026-05-02T12:54:06.000Z</time>
      </trkpt>
      <trkpt lat="44.80162" lon="0.78864">
        <ele>152.4</ele>
        <time>2026-05-02T12:54:07.000Z</time>
      </trkpt>
      <trkpt lat="44.80163" lon="0.78864">
        <ele>153</ele>
        <time>2026-05-02T12:54:08.000Z</time>
      </trkpt>
      <trkpt lat="44.80165" lon="0.78865">
        <ele>153.3</ele>
        <time>2026-05-02T12:54:09.000Z</time>
      </trkpt>
      <trkpt lat="44.80166" lon="0.78866">
        <ele>153.5</ele>
        <time>2026-05-02T12:54:10.000Z</time>
      </trkpt>
      <trkpt lat="44.80168" lon="0.78866">
        <ele>153.7</ele>
        <time>2026-05-02T12:54:11.000Z</time>
      </trkpt>
      <trkpt lat="44.80169" lon="0.78866">
        <ele>157.6</ele>
        <time>2026-05-02T12:54:12.000Z</time>
      </trkpt>
      <trkpt lat="44.8017" lon="0.78866">
        <ele>157.7</ele>
        <time>2026-05-02T12:54:13.000Z</time>
      </trkpt>
      <trkpt lat="44.80171" lon="0.78867">
        <ele>157.9</ele>
        <time>2026-05-02T12:54:14.000Z</time>
      </trkpt>
      <trkpt lat="44.80172" lon="0.78868">
        <ele>158</ele>
        <time>2026-05-02T12:54:15.000Z</time>
      </trkpt>
      <trkpt lat="44.80173" lon="0.78868">
        <ele>158.7</ele>
        <time>2026-05-02T12:54:16.000Z</time>
      </trkpt>
      <trkpt lat="44.80174" lon="0.78869">
        <ele>158</ele>
        <time>2026-05-02T12:54:17.000Z</time>
      </trkpt>
      <trkpt lat="44.80176" lon="0.7887">
        <ele>157.6</ele>
        <time>2026-05-02T12:54:18.000Z</time>
      </trkpt>
      <trkpt lat="44.80178" lon="0.7887">
        <ele>159.2</ele>
        <time>2026-05-02T12:54:19.000Z</time>
      </trkpt>
      <trkpt lat="44.8018" lon="0.7887">
        <ele>160.1</ele>
        <time>2026-05-02T12:54:20.000Z</time>
      </trkpt>
      <trkpt lat="44.80182" lon="0.7887">
        <ele>160.3</ele>
        <time>2026-05-02T12:54:21.000Z</time>
      </trkpt>
      <trkpt lat="44.80184" lon="0.78871">
        <ele>162.1</ele>
        <time>2026-05-02T12:54:22.000Z</time>
      </trkpt>
      <trkpt lat="44.80185" lon="0.78871">
        <ele>162.6</ele>
        <time>2026-05-02T12:54:23.000Z</time>
      </trkpt>
      <trkpt lat="44.80187" lon="0.78872">
        <ele>163.1</ele>
        <time>2026-05-02T12:54:24.000Z</time>
      </trkpt>
      <trkpt lat="44.80189" lon="0.78872">
        <ele>163.5</ele>
        <time>2026-05-02T12:54:25.000Z</time>
      </trkpt>
      <trkpt lat="44.8019" lon="0.78873">
        <ele>162.8</ele>
        <time>2026-05-02T12:54:26.000Z</time>
      </trkpt>
      <trkpt lat="44.80192" lon="0.78874">
        <ele>162.7</ele>
        <time>2026-05-02T12:54:27.000Z</time>
      </trkpt>
      <trkpt lat="44.80193" lon="0.78875">
        <ele>162.9</ele>
        <time>2026-05-02T12:54:28.000Z</time>
      </trkpt>
      <trkpt lat="44.80194" lon="0.78875">
        <ele>163.6</ele>
        <time>2026-05-02T12:54:29.000Z</time>
      </trkpt>
      <trkpt lat="44.80195" lon="0.78877">
        <ele>163.5</ele>
        <time>2026-05-02T12:54:30.000Z</time>
      </trkpt>
      <trkpt lat="44.80197" lon="0.78878">
        <ele>163.8</ele>
        <time>2026-05-02T12:54:31.000Z</time>
      </trkpt>
      <trkpt lat="44.80198" lon="0.78879">
        <ele>163.5</ele>
        <time>2026-05-02T12:54:32.000Z</time>
      </trkpt>
      <trkpt lat="44.802" lon="0.7888">
        <ele>163.1</ele>
        <time>2026-05-02T12:54:33.000Z</time>
      </trkpt>
      <trkpt lat="44.80201" lon="0.78881">
        <ele>163.1</ele>
        <time>2026-05-02T12:54:34.000Z</time>
      </trkpt>
      <trkpt lat="44.80203" lon="0.78882">
        <ele>165.4</ele>
        <time>2026-05-02T12:54:35.000Z</time>
      </trkpt>
      <trkpt lat="44.80204" lon="0.78883">
        <ele>166.2</ele>
        <time>2026-05-02T12:54:36.000Z</time>
      </trkpt>
      <trkpt lat="44.80206" lon="0.78884">
        <ele>166.3</ele>
        <time>2026-05-02T12:54:37.000Z</time>
      </trkpt>
      <trkpt lat="44.80207" lon="0.78885">
        <ele>166.1</ele>
        <time>2026-05-02T12:54:38.000Z</time>
      </trkpt>
      <trkpt lat="44.80209" lon="0.78886">
        <ele>165.8</ele>
        <time>2026-05-02T12:54:39.000Z</time>
      </trkpt>
      <trkpt lat="44.80211" lon="0.78888">
        <ele>162.7</ele>
        <time>2026-05-02T12:54:40.000Z</time>
      </trkpt>
      <trkpt lat="44.80212" lon="0.78889">
        <ele>163.7</ele>
        <time>2026-05-02T12:54:41.000Z</time>
      </trkpt>
      <trkpt lat="44.80214" lon="0.78891">
        <ele>163</ele>
        <time>2026-05-02T12:54:42.000Z</time>
      </trkpt>
      <trkpt lat="44.80216" lon="0.78893">
        <ele>158.5</ele>
        <time>2026-05-02T12:54:43.000Z</time>
      </trkpt>
      <trkpt lat="44.80218" lon="0.78896">
        <ele>156.7</ele>
        <time>2026-05-02T12:54:44.000Z</time>
      </trkpt>
      <trkpt lat="44.80219" lon="0.78898">
        <ele>155</ele>
        <time>2026-05-02T12:54:45.000Z</time>
      </trkpt>
      <trkpt lat="44.80221" lon="0.789">
        <ele>153.6</ele>
        <time>2026-05-02T12:54:46.000Z</time>
      </trkpt>
      <trkpt lat="44.80223" lon="0.78902">
        <ele>153.2</ele>
        <time>2026-05-02T12:54:47.000Z</time>
      </trkpt>
      <trkpt lat="44.80224" lon="0.78904">
        <ele>152.7</ele>
        <time>2026-05-02T12:54:48.000Z</time>
      </trkpt>
      <trkpt lat="44.80225" lon="0.78905">
        <ele>152.7</ele>
        <time>2026-05-02T12:54:49.000Z</time>
      </trkpt>
      <trkpt lat="44.80227" lon="0.78907">
        <ele>152.8</ele>
        <time>2026-05-02T12:54:50.000Z</time>
      </trkpt>
      <trkpt lat="44.80228" lon="0.78909">
        <ele>152.2</ele>
        <time>2026-05-02T12:54:51.000Z</time>
      </trkpt>
      <trkpt lat="44.80229" lon="0.7891">
        <ele>152.6</ele>
        <time>2026-05-02T12:54:52.000Z</time>
      </trkpt>
      <trkpt lat="44.80231" lon="0.78912">
        <ele>152.3</ele>
        <time>2026-05-02T12:54:53.000Z</time>
      </trkpt>
      <trkpt lat="44.80232" lon="0.78913">
        <ele>152.9</ele>
        <time>2026-05-02T12:54:54.000Z</time>
      </trkpt>
      <trkpt lat="44.80233" lon="0.78915">
        <ele>153.2</ele>
        <time>2026-05-02T12:54:55.000Z</time>
      </trkpt>
      <trkpt lat="44.80235" lon="0.78916">
        <ele>154.2</ele>
        <time>2026-05-02T12:54:56.000Z</time>
      </trkpt>
      <trkpt lat="44.80236" lon="0.78917">
        <ele>154.9</ele>
        <time>2026-05-02T12:54:57.000Z</time>
      </trkpt>
      <trkpt lat="44.80237" lon="0.78919">
        <ele>155.3</ele>
        <time>2026-05-02T12:54:58.000Z</time>
      </trkpt>
      <trkpt lat="44.80238" lon="0.78921">
        <ele>155.6</ele>
        <time>2026-05-02T12:54:59.000Z</time>
      </trkpt>
      <trkpt lat="44.80239" lon="0.78923">
        <ele>155.7</ele>
        <time>2026-05-02T12:55:00.000Z</time>
      </trkpt>
      <trkpt lat="44.8024" lon="0.78925">
        <ele>156</ele>
        <time>2026-05-02T12:55:01.000Z</time>
      </trkpt>
      <trkpt lat="44.80241" lon="0.78927">
        <ele>156.1</ele>
        <time>2026-05-02T12:55:02.000Z</time>
      </trkpt>
      <trkpt lat="44.80242" lon="0.78928">
        <ele>157</ele>
        <time>2026-05-02T12:55:03.000Z</time>
      </trkpt>
      <trkpt lat="44.80243" lon="0.7893">
        <ele>156.7</ele>
        <time>2026-05-02T12:55:04.000Z</time>
      </trkpt>
      <trkpt lat="44.80245" lon="0.78933">
        <ele>156</ele>
        <time>2026-05-02T12:55:05.000Z</time>
      </trkpt>
      <trkpt lat="44.80246" lon="0.78935">
        <ele>155.5</ele>
        <time>2026-05-02T12:55:06.000Z</time>
      </trkpt>
      <trkpt lat="44.80247" lon="0.78937">
        <ele>155.6</ele>
        <time>2026-05-02T12:55:07.000Z</time>
      </trkpt>
      <trkpt lat="44.80248" lon="0.78939">
        <ele>155.7</ele>
        <time>2026-05-02T12:55:08.000Z</time>
      </trkpt>
      <trkpt lat="44.8025" lon="0.78941">
        <ele>155.9</ele>
        <time>2026-05-02T12:55:09.000Z</time>
      </trkpt>
      <trkpt lat="44.80251" lon="0.78943">
        <ele>155.7</ele>
        <time>2026-05-02T12:55:10.000Z</time>
      </trkpt>
      <trkpt lat="44.80252" lon="0.78945">
        <ele>155.3</ele>
        <time>2026-05-02T12:55:11.000Z</time>
      </trkpt>
      <trkpt lat="44.80253" lon="0.78947">
        <ele>155.1</ele>
        <time>2026-05-02T12:55:12.000Z</time>
      </trkpt>
      <trkpt lat="44.80254" lon="0.78949">
        <ele>155.4</ele>
        <time>2026-05-02T12:55:13.000Z</time>
      </trkpt>
      <trkpt lat="44.80255" lon="0.78951">
        <ele>155.3</ele>
        <time>2026-05-02T12:55:14.000Z</time>
      </trkpt>
      <trkpt lat="44.80257" lon="0.78953">
        <ele>155.3</ele>
        <time>2026-05-02T12:55:15.000Z</time>
      </trkpt>
      <trkpt lat="44.80258" lon="0.78955">
        <ele>156.3</ele>
        <time>2026-05-02T12:55:16.000Z</time>
      </trkpt>
      <trkpt lat="44.80259" lon="0.78956">
        <ele>156.3</ele>
        <time>2026-05-02T12:55:17.000Z</time>
      </trkpt>
      <trkpt lat="44.8026" lon="0.78958">
        <ele>157.2</ele>
        <time>2026-05-02T12:55:18.000Z</time>
      </trkpt>
      <trkpt lat="44.80262" lon="0.78959">
        <ele>158.1</ele>
        <time>2026-05-02T12:55:19.000Z</time>
      </trkpt>
      <trkpt lat="44.80261" lon="0.78963">
        <ele>156.4</ele>
        <time>2026-05-02T12:55:20.000Z</time>
      </trkpt>
      <trkpt lat="44.80261" lon="0.78965">
        <ele>156.1</ele>
        <time>2026-05-02T12:55:21.000Z</time>
      </trkpt>
      <trkpt lat="44.80262" lon="0.78966">
        <ele>156.4</ele>
        <time>2026-05-02T12:55:22.000Z</time>
      </trkpt>
      <trkpt lat="44.80263" lon="0.78968">
        <ele>156.3</ele>
        <time>2026-05-02T12:55:23.000Z</time>
      </trkpt>
      <trkpt lat="44.80264" lon="0.7897">
        <ele>156</ele>
        <time>2026-05-02T12:55:24.000Z</time>
      </trkpt>
      <trkpt lat="44.80265" lon="0.78971">
        <ele>155.9</ele>
        <time>2026-05-02T12:55:25.000Z</time>
      </trkpt>
      <trkpt lat="44.80266" lon="0.78972">
        <ele>155.8</ele>
        <time>2026-05-02T12:55:26.000Z</time>
      </trkpt>
      <trkpt lat="44.80267" lon="0.78974">
        <ele>155.9</ele>
        <time>2026-05-02T12:55:27.000Z</time>
      </trkpt>
      <trkpt lat="44.80269" lon="0.78975">
        <ele>156.1</ele>
        <time>2026-05-02T12:55:28.000Z</time>
      </trkpt>
      <trkpt lat="44.8027" lon="0.78976">
        <ele>156</ele>
        <time>2026-05-02T12:55:29.000Z</time>
      </trkpt>
      <trkpt lat="44.80271" lon="0.78978">
        <ele>156</ele>
        <time>2026-05-02T12:55:30.000Z</time>
      </trkpt>
      <trkpt lat="44.80273" lon="0.78979">
        <ele>156</ele>
        <time>2026-05-02T12:55:31.000Z</time>
      </trkpt>
      <trkpt lat="44.80274" lon="0.7898">
        <ele>155.8</ele>
        <time>2026-05-02T12:55:32.000Z</time>
      </trkpt>
      <trkpt lat="44.80276" lon="0.78981">
        <ele>153.6</ele>
        <time>2026-05-02T12:55:33.000Z</time>
      </trkpt>
      <trkpt lat="44.80277" lon="0.78983">
        <ele>153</ele>
        <time>2026-05-02T12:55:34.000Z</time>
      </trkpt>
      <trkpt lat="44.80278" lon="0.78985">
        <ele>152.4</ele>
        <time>2026-05-02T12:55:35.000Z</time>
      </trkpt>
      <trkpt lat="44.80279" lon="0.78987">
        <ele>151.1</ele>
        <time>2026-05-02T12:55:36.000Z</time>
      </trkpt>
      <trkpt lat="44.8028" lon="0.78988">
        <ele>150.1</ele>
        <time>2026-05-02T12:55:37.000Z</time>
      </trkpt>
      <trkpt lat="44.80279" lon="0.78988">
        <ele>150.4</ele>
        <time>2026-05-02T12:55:38.000Z</time>
      </trkpt>
      <trkpt lat="44.80279" lon="0.78988">
        <ele>150.4</ele>
        <time>2026-05-02T12:55:39.000Z</time>
      </trkpt>
      <trkpt lat="44.80279" lon="0.78988">
        <ele>150.4</ele>
        <time>2026-05-02T12:55:40.000Z</time>
      </trkpt>
      <trkpt lat="44.80278" lon="0.78989">
        <ele>150.2</ele>
        <time>2026-05-02T12:55:41.000Z</time>
      </trkpt>
      <trkpt lat="44.80278" lon="0.7899">
        <ele>149.2</ele>
        <time>2026-05-02T12:55:42.000Z</time>
      </trkpt>
      <trkpt lat="44.80279" lon="0.78993">
        <ele>149.2</ele>
        <time>2026-05-02T12:55:43.000Z</time>
      </trkpt>
      <trkpt lat="44.80279" lon="0.78996">
        <ele>148.8</ele>
        <time>2026-05-02T12:55:44.000Z</time>
      </trkpt>
      <trkpt lat="44.80278" lon="0.78998">
        <ele>149</ele>
        <time>2026-05-02T12:55:45.000Z</time>
      </trkpt>
      <trkpt lat="44.80277" lon="0.78999">
        <ele>148.8</ele>
        <time>2026-05-02T12:55:46.000Z</time>
      </trkpt>
      <trkpt lat="44.80277" lon="0.79002">
        <ele>149.3</ele>
        <time>2026-05-02T12:55:47.000Z</time>
      </trkpt>
      <trkpt lat="44.80277" lon="0.79003">
        <ele>149.9</ele>
        <time>2026-05-02T12:55:48.000Z</time>
      </trkpt>
      <trkpt lat="44.80277" lon="0.79005">
        <ele>150.9</ele>
        <time>2026-05-02T12:55:49.000Z</time>
      </trkpt>
      <trkpt lat="44.80278" lon="0.79005">
        <ele>150.6</ele>
        <time>2026-05-02T12:55:50.000Z</time>
      </trkpt>
      <trkpt lat="44.80279" lon="0.79008">
        <ele>151.1</ele>
        <time>2026-05-02T12:55:51.000Z</time>
      </trkpt>
      <trkpt lat="44.80279" lon="0.79008">
        <ele>151</ele>
        <time>2026-05-02T12:55:52.000Z</time>
      </trkpt>
      <trkpt lat="44.80279" lon="0.79008">
        <ele>151</ele>
        <time>2026-05-02T12:55:53.000Z</time>
      </trkpt>
      <trkpt lat="44.80279" lon="0.79008">
        <ele>151</ele>
        <time>2026-05-02T12:55:54.000Z</time>
      </trkpt>
      <trkpt lat="44.80279" lon="0.79008">
        <ele>151</ele>
        <time>2026-05-02T12:55:55.000Z</time>
      </trkpt>
      <trkpt lat="44.80279" lon="0.79008">
        <ele>151.1</ele>
        <time>2026-05-02T12:55:56.000Z</time>
      </trkpt>
      <trkpt lat="44.80279" lon="0.79008">
        <ele>151.1</ele>
        <time>2026-05-02T12:55:57.000Z</time>
      </trkpt>
      <trkpt lat="44.80279" lon="0.79008">
        <ele>151</ele>
        <time>2026-05-02T12:55:58.000Z</time>
      </trkpt>
      <trkpt lat="44.80279" lon="0.79009">
        <ele>151.3</ele>
        <time>2026-05-02T12:55:59.000Z</time>
      </trkpt>
      <trkpt lat="44.80279" lon="0.79009">
        <ele>151.4</ele>
        <time>2026-05-02T12:56:00.000Z</time>
      </trkpt>
      <trkpt lat="44.80279" lon="0.79011">
        <ele>151.2</ele>
        <time>2026-05-02T12:56:01.000Z</time>
      </trkpt>
      <trkpt lat="44.80279" lon="0.79013">
        <ele>150.8</ele>
        <time>2026-05-02T12:56:02.000Z</time>
      </trkpt>
      <trkpt lat="44.80279" lon="0.79013">
        <ele>150.9</ele>
        <time>2026-05-02T12:56:03.000Z</time>
      </trkpt>
      <trkpt lat="44.80279" lon="0.79012">
        <ele>150.5</ele>
        <time>2026-05-02T12:56:04.000Z</time>
      </trkpt>
      <trkpt lat="44.80281" lon="0.79013">
        <ele>149.7</ele>
        <time>2026-05-02T12:56:05.000Z</time>
      </trkpt>
      <trkpt lat="44.80282" lon="0.79013">
        <ele>149.5</ele>
        <time>2026-05-02T12:56:06.000Z</time>
      </trkpt>
      <trkpt lat="44.80283" lon="0.79014">
        <ele>151.1</ele>
        <time>2026-05-02T12:56:07.000Z</time>
      </trkpt>
      <trkpt lat="44.80283" lon="0.79016">
        <ele>151.7</ele>
        <time>2026-05-02T12:56:08.000Z</time>
      </trkpt>
      <trkpt lat="44.80283" lon="0.79018">
        <ele>151.4</ele>
        <time>2026-05-02T12:56:09.000Z</time>
      </trkpt>
      <trkpt lat="44.80284" lon="0.79019">
        <ele>150.9</ele>
        <time>2026-05-02T12:56:10.000Z</time>
      </trkpt>
      <trkpt lat="44.80285" lon="0.7902">
        <ele>151.8</ele>
        <time>2026-05-02T12:56:11.000Z</time>
      </trkpt>
      <trkpt lat="44.80286" lon="0.79021">
        <ele>151.7</ele>
        <time>2026-05-02T12:56:12.000Z</time>
      </trkpt>
      <trkpt lat="44.80287" lon="0.79023">
        <ele>151.1</ele>
        <time>2026-05-02T12:56:13.000Z</time>
      </trkpt>
      <trkpt lat="44.80288" lon="0.79024">
        <ele>150.1</ele>
        <time>2026-05-02T12:56:14.000Z</time>
      </trkpt>
      <trkpt lat="44.80289" lon="0.79026">
        <ele>150</ele>
        <time>2026-05-02T12:56:15.000Z</time>
      </trkpt>
      <trkpt lat="44.80289" lon="0.79027">
        <ele>150.2</ele>
        <time>2026-05-02T12:56:16.000Z</time>
      </trkpt>
      <trkpt lat="44.8029" lon="0.79029">
        <ele>149.7</ele>
        <time>2026-05-02T12:56:17.000Z</time>
      </trkpt>
      <trkpt lat="44.80291" lon="0.79031">
        <ele>149.7</ele>
        <time>2026-05-02T12:56:18.000Z</time>
      </trkpt>
      <trkpt lat="44.80291" lon="0.79032">
        <ele>149.6</ele>
        <time>2026-05-02T12:56:19.000Z</time>
      </trkpt>
      <trkpt lat="44.80292" lon="0.79034">
        <ele>148.9</ele>
        <time>2026-05-02T12:56:20.000Z</time>
      </trkpt>
      <trkpt lat="44.80293" lon="0.79036">
        <ele>148.2</ele>
        <time>2026-05-02T12:56:21.000Z</time>
      </trkpt>
      <trkpt lat="44.80294" lon="0.79037">
        <ele>148</ele>
        <time>2026-05-02T12:56:22.000Z</time>
      </trkpt>
      <trkpt lat="44.80294" lon="0.79039">
        <ele>147.7</ele>
        <time>2026-05-02T12:56:23.000Z</time>
      </trkpt>
      <trkpt lat="44.80295" lon="0.79041">
        <ele>147.5</ele>
        <time>2026-05-02T12:56:24.000Z</time>
      </trkpt>
      <trkpt lat="44.80296" lon="0.79043">
        <ele>147.4</ele>
        <time>2026-05-02T12:56:25.000Z</time>
      </trkpt>
      <trkpt lat="44.80297" lon="0.79045">
        <ele>147.8</ele>
        <time>2026-05-02T12:56:26.000Z</time>
      </trkpt>
      <trkpt lat="44.80298" lon="0.79047">
        <ele>147.9</ele>
        <time>2026-05-02T12:56:27.000Z</time>
      </trkpt>
      <trkpt lat="44.80299" lon="0.79048">
        <ele>147.6</ele>
        <time>2026-05-02T12:56:28.000Z</time>
      </trkpt>
      <trkpt lat="44.803" lon="0.7905">
        <ele>147.7</ele>
        <time>2026-05-02T12:56:29.000Z</time>
      </trkpt>
      <trkpt lat="44.803" lon="0.79052">
        <ele>148.8</ele>
        <time>2026-05-02T12:56:30.000Z</time>
      </trkpt>
      <trkpt lat="44.80301" lon="0.79053">
        <ele>148.9</ele>
        <time>2026-05-02T12:56:31.000Z</time>
      </trkpt>
      <trkpt lat="44.80302" lon="0.79055">
        <ele>148.8</ele>
        <time>2026-05-02T12:56:32.000Z</time>
      </trkpt>
      <trkpt lat="44.80303" lon="0.79057">
        <ele>148.8</ele>
        <time>2026-05-02T12:56:33.000Z</time>
      </trkpt>
      <trkpt lat="44.80304" lon="0.79059">
        <ele>148.6</ele>
        <time>2026-05-02T12:56:34.000Z</time>
      </trkpt>
      <trkpt lat="44.80305" lon="0.7906">
        <ele>147.7</ele>
        <time>2026-05-02T12:56:35.000Z</time>
      </trkpt>
      <trkpt lat="44.80306" lon="0.79062">
        <ele>147.7</ele>
        <time>2026-05-02T12:56:36.000Z</time>
      </trkpt>
      <trkpt lat="44.80308" lon="0.79064">
        <ele>147.2</ele>
        <time>2026-05-02T12:56:37.000Z</time>
      </trkpt>
      <trkpt lat="44.8031" lon="0.79066">
        <ele>147.7</ele>
        <time>2026-05-02T12:56:38.000Z</time>
      </trkpt>
      <trkpt lat="44.80311" lon="0.79068">
        <ele>148.2</ele>
        <time>2026-05-02T12:56:39.000Z</time>
      </trkpt>
      <trkpt lat="44.80313" lon="0.7907">
        <ele>148.5</ele>
        <time>2026-05-02T12:56:40.000Z</time>
      </trkpt>
      <trkpt lat="44.80315" lon="0.79071">
        <ele>148.4</ele>
        <time>2026-05-02T12:56:41.000Z</time>
      </trkpt>
      <trkpt lat="44.80316" lon="0.79073">
        <ele>149</ele>
        <time>2026-05-02T12:56:42.000Z</time>
      </trkpt>
      <trkpt lat="44.80318" lon="0.79075">
        <ele>148.6</ele>
        <time>2026-05-02T12:56:43.000Z</time>
      </trkpt>
      <trkpt lat="44.8032" lon="0.79077">
        <ele>148.9</ele>
        <time>2026-05-02T12:56:44.000Z</time>
      </trkpt>
      <trkpt lat="44.80322" lon="0.79079">
        <ele>148.8</ele>
        <time>2026-05-02T12:56:45.000Z</time>
      </trkpt>
      <trkpt lat="44.80323" lon="0.79081">
        <ele>149.3</ele>
        <time>2026-05-02T12:56:46.000Z</time>
      </trkpt>
      <trkpt lat="44.80325" lon="0.79082">
        <ele>149.8</ele>
        <time>2026-05-02T12:56:47.000Z</time>
      </trkpt>
      <trkpt lat="44.80327" lon="0.79084">
        <ele>150</ele>
        <time>2026-05-02T12:56:48.000Z</time>
      </trkpt>
      <trkpt lat="44.80328" lon="0.79086">
        <ele>150.5</ele>
        <time>2026-05-02T12:56:49.000Z</time>
      </trkpt>
      <trkpt lat="44.8033" lon="0.79088">
        <ele>151.4</ele>
        <time>2026-05-02T12:56:50.000Z</time>
      </trkpt>
      <trkpt lat="44.80332" lon="0.79089">
        <ele>152</ele>
        <time>2026-05-02T12:56:51.000Z</time>
      </trkpt>
      <trkpt lat="44.80334" lon="0.79091">
        <ele>151.8</ele>
        <time>2026-05-02T12:56:52.000Z</time>
      </trkpt>
      <trkpt lat="44.80335" lon="0.79092">
        <ele>151.9</ele>
        <time>2026-05-02T12:56:53.000Z</time>
      </trkpt>
      <trkpt lat="44.80337" lon="0.79094">
        <ele>152.1</ele>
        <time>2026-05-02T12:56:54.000Z</time>
      </trkpt>
      <trkpt lat="44.80339" lon="0.79095">
        <ele>152.4</ele>
        <time>2026-05-02T12:56:55.000Z</time>
      </trkpt>
      <trkpt lat="44.80341" lon="0.79097">
        <ele>152.7</ele>
        <time>2026-05-02T12:56:56.000Z</time>
      </trkpt>
      <trkpt lat="44.80342" lon="0.79099">
        <ele>153</ele>
        <time>2026-05-02T12:56:57.000Z</time>
      </trkpt>
      <trkpt lat="44.80344" lon="0.791">
        <ele>153</ele>
        <time>2026-05-02T12:56:58.000Z</time>
      </trkpt>
      <trkpt lat="44.80346" lon="0.79101">
        <ele>153.3</ele>
        <time>2026-05-02T12:56:59.000Z</time>
      </trkpt>
      <trkpt lat="44.80347" lon="0.79103">
        <ele>153.3</ele>
        <time>2026-05-02T12:57:00.000Z</time>
      </trkpt>
      <trkpt lat="44.80349" lon="0.79104">
        <ele>153.4</ele>
        <time>2026-05-02T12:57:01.000Z</time>
      </trkpt>
      <trkpt lat="44.8035" lon="0.79105">
        <ele>152.9</ele>
        <time>2026-05-02T12:57:02.000Z</time>
      </trkpt>
      <trkpt lat="44.80351" lon="0.79106">
        <ele>152.6</ele>
        <time>2026-05-02T12:57:03.000Z</time>
      </trkpt>
      <trkpt lat="44.80353" lon="0.79108">
        <ele>152.8</ele>
        <time>2026-05-02T12:57:04.000Z</time>
      </trkpt>
      <trkpt lat="44.80355" lon="0.79109">
        <ele>153</ele>
        <time>2026-05-02T12:57:05.000Z</time>
      </trkpt>
      <trkpt lat="44.80356" lon="0.7911">
        <ele>153.1</ele>
        <time>2026-05-02T12:57:06.000Z</time>
      </trkpt>
      <trkpt lat="44.80358" lon="0.79112">
        <ele>153.4</ele>
        <time>2026-05-02T12:57:07.000Z</time>
      </trkpt>
      <trkpt lat="44.8036" lon="0.79113">
        <ele>153.8</ele>
        <time>2026-05-02T12:57:08.000Z</time>
      </trkpt>
      <trkpt lat="44.80362" lon="0.79114">
        <ele>154.4</ele>
        <time>2026-05-02T12:57:09.000Z</time>
      </trkpt>
      <trkpt lat="44.80363" lon="0.79116">
        <ele>155.2</ele>
        <time>2026-05-02T12:57:10.000Z</time>
      </trkpt>
      <trkpt lat="44.80365" lon="0.79118">
        <ele>155.5</ele>
        <time>2026-05-02T12:57:11.000Z</time>
      </trkpt>
      <trkpt lat="44.80367" lon="0.79119">
        <ele>155.2</ele>
        <time>2026-05-02T12:57:12.000Z</time>
      </trkpt>
      <trkpt lat="44.80369" lon="0.79119">
        <ele>155.1</ele>
        <time>2026-05-02T12:57:13.000Z</time>
      </trkpt>
      <trkpt lat="44.80371" lon="0.7912">
        <ele>154.9</ele>
        <time>2026-05-02T12:57:14.000Z</time>
      </trkpt>
      <trkpt lat="44.80373" lon="0.79121">
        <ele>154.6</ele>
        <time>2026-05-02T12:57:15.000Z</time>
      </trkpt>
      <trkpt lat="44.80375" lon="0.79122">
        <ele>154.1</ele>
        <time>2026-05-02T12:57:16.000Z</time>
      </trkpt>
      <trkpt lat="44.80377" lon="0.79123">
        <ele>154</ele>
        <time>2026-05-02T12:57:17.000Z</time>
      </trkpt>
      <trkpt lat="44.80378" lon="0.79123">
        <ele>154.1</ele>
        <time>2026-05-02T12:57:18.000Z</time>
      </trkpt>
      <trkpt lat="44.8038" lon="0.79124">
        <ele>154.3</ele>
        <time>2026-05-02T12:57:19.000Z</time>
      </trkpt>
      <trkpt lat="44.80383" lon="0.79124">
        <ele>154.5</ele>
        <time>2026-05-02T12:57:20.000Z</time>
      </trkpt>
      <trkpt lat="44.80385" lon="0.79124">
        <ele>153.8</ele>
        <time>2026-05-02T12:57:21.000Z</time>
      </trkpt>
      <trkpt lat="44.80387" lon="0.79124">
        <ele>154.1</ele>
        <time>2026-05-02T12:57:22.000Z</time>
      </trkpt>
      <trkpt lat="44.80389" lon="0.79124">
        <ele>154.3</ele>
        <time>2026-05-02T12:57:23.000Z</time>
      </trkpt>
      <trkpt lat="44.8039" lon="0.79123">
        <ele>154</ele>
        <time>2026-05-02T12:57:24.000Z</time>
      </trkpt>
      <trkpt lat="44.80391" lon="0.79123">
        <ele>154.4</ele>
        <time>2026-05-02T12:57:25.000Z</time>
      </trkpt>
      <trkpt lat="44.80393" lon="0.79123">
        <ele>154.2</ele>
        <time>2026-05-02T12:57:26.000Z</time>
      </trkpt>
      <trkpt lat="44.80395" lon="0.79122">
        <ele>153.9</ele>
        <time>2026-05-02T12:57:27.000Z</time>
      </trkpt>
      <trkpt lat="44.80397" lon="0.79122">
        <ele>154.1</ele>
        <time>2026-05-02T12:57:28.000Z</time>
      </trkpt>
      <trkpt lat="44.80399" lon="0.79122">
        <ele>154.3</ele>
        <time>2026-05-02T12:57:29.000Z</time>
      </trkpt>
      <trkpt lat="44.80402" lon="0.7912">
        <ele>155.4</ele>
        <time>2026-05-02T12:57:30.000Z</time>
      </trkpt>
      <trkpt lat="44.80404" lon="0.79119">
        <ele>155.1</ele>
        <time>2026-05-02T12:57:31.000Z</time>
      </trkpt>
      <trkpt lat="44.80408" lon="0.79119">
        <ele>156.6</ele>
        <time>2026-05-02T12:57:32.000Z</time>
      </trkpt>
      <trkpt lat="44.8041" lon="0.7912">
        <ele>157.8</ele>
        <time>2026-05-02T12:57:33.000Z</time>
      </trkpt>
      <trkpt lat="44.80413" lon="0.79122">
        <ele>158.7</ele>
        <time>2026-05-02T12:57:34.000Z</time>
      </trkpt>
      <trkpt lat="44.80415" lon="0.79123">
        <ele>158.6</ele>
        <time>2026-05-02T12:57:35.000Z</time>
      </trkpt>
      <trkpt lat="44.80418" lon="0.79124">
        <ele>159.2</ele>
        <time>2026-05-02T12:57:36.000Z</time>
      </trkpt>
      <trkpt lat="44.8042" lon="0.79123">
        <ele>159</ele>
        <time>2026-05-02T12:57:37.000Z</time>
      </trkpt>
      <trkpt lat="44.80422" lon="0.79121">
        <ele>159</ele>
        <time>2026-05-02T12:57:38.000Z</time>
      </trkpt>
      <trkpt lat="44.80424" lon="0.79118">
        <ele>158.9</ele>
        <time>2026-05-02T12:57:39.000Z</time>
      </trkpt>
      <trkpt lat="44.80425" lon="0.79115">
        <ele>159.4</ele>
        <time>2026-05-02T12:57:40.000Z</time>
      </trkpt>
      <trkpt lat="44.80426" lon="0.79111">
        <ele>159</ele>
        <time>2026-05-02T12:57:41.000Z</time>
      </trkpt>
      <trkpt lat="44.80426" lon="0.79107">
        <ele>159.5</ele>
        <time>2026-05-02T12:57:42.000Z</time>
      </trkpt>
      <trkpt lat="44.80426" lon="0.79105">
        <ele>160.2</ele>
        <time>2026-05-02T12:57:43.000Z</time>
      </trkpt>
      <trkpt lat="44.80426" lon="0.79102">
        <ele>160.4</ele>
        <time>2026-05-02T12:57:44.000Z</time>
      </trkpt>
      <trkpt lat="44.80427" lon="0.79099">
        <ele>160</ele>
        <time>2026-05-02T12:57:45.000Z</time>
      </trkpt>
      <trkpt lat="44.80428" lon="0.79095">
        <ele>159.6</ele>
        <time>2026-05-02T12:57:46.000Z</time>
      </trkpt>
      <trkpt lat="44.80429" lon="0.79092">
        <ele>159.5</ele>
        <time>2026-05-02T12:57:47.000Z</time>
      </trkpt>
      <trkpt lat="44.80429" lon="0.79089">
        <ele>159.9</ele>
        <time>2026-05-02T12:57:48.000Z</time>
      </trkpt>
      <trkpt lat="44.80429" lon="0.79086">
        <ele>159.9</ele>
        <time>2026-05-02T12:57:49.000Z</time>
      </trkpt>
      <trkpt lat="44.80429" lon="0.79083">
        <ele>161.1</ele>
        <time>2026-05-02T12:57:50.000Z</time>
      </trkpt>
      <trkpt lat="44.8043" lon="0.79079">
        <ele>160.6</ele>
        <time>2026-05-02T12:57:51.000Z</time>
      </trkpt>
      <trkpt lat="44.8043" lon="0.79075">
        <ele>159.7</ele>
        <time>2026-05-02T12:57:52.000Z</time>
      </trkpt>
      <trkpt lat="44.8043" lon="0.79071">
        <ele>159.4</ele>
        <time>2026-05-02T12:57:53.000Z</time>
      </trkpt>
      <trkpt lat="44.80431" lon="0.79066">
        <ele>158.7</ele>
        <time>2026-05-02T12:57:54.000Z</time>
      </trkpt>
      <trkpt lat="44.80433" lon="0.79063">
        <ele>157.8</ele>
        <time>2026-05-02T12:57:55.000Z</time>
      </trkpt>
      <trkpt lat="44.80436" lon="0.7906">
        <ele>156.7</ele>
        <time>2026-05-02T12:57:56.000Z</time>
      </trkpt>
      <trkpt lat="44.80438" lon="0.79058">
        <ele>156</ele>
        <time>2026-05-02T12:57:57.000Z</time>
      </trkpt>
      <trkpt lat="44.80441" lon="0.79056">
        <ele>156</ele>
        <time>2026-05-02T12:57:58.000Z</time>
      </trkpt>
      <trkpt lat="44.80444" lon="0.79054">
        <ele>156</ele>
        <time>2026-05-02T12:57:59.000Z</time>
      </trkpt>
      <trkpt lat="44.80447" lon="0.79053">
        <ele>156.2</ele>
        <time>2026-05-02T12:58:00.000Z</time>
      </trkpt>
      <trkpt lat="44.80451" lon="0.79053">
        <ele>156.4</ele>
        <time>2026-05-02T12:58:01.000Z</time>
      </trkpt>
      <trkpt lat="44.80455" lon="0.79053">
        <ele>156.7</ele>
        <time>2026-05-02T12:58:02.000Z</time>
      </trkpt>
      <trkpt lat="44.80458" lon="0.79053">
        <ele>156.5</ele>
        <time>2026-05-02T12:58:03.000Z</time>
      </trkpt>
      <trkpt lat="44.80462" lon="0.79053">
        <ele>156.7</ele>
        <time>2026-05-02T12:58:04.000Z</time>
      </trkpt>
      <trkpt lat="44.80465" lon="0.79054">
        <ele>156.8</ele>
        <time>2026-05-02T12:58:05.000Z</time>
      </trkpt>
      <trkpt lat="44.80468" lon="0.79054">
        <ele>156.8</ele>
        <time>2026-05-02T12:58:06.000Z</time>
      </trkpt>
      <trkpt lat="44.80471" lon="0.79055">
        <ele>156.9</ele>
        <time>2026-05-02T12:58:07.000Z</time>
      </trkpt>
      <trkpt lat="44.80477" lon="0.79054">
        <ele>158.7</ele>
        <time>2026-05-02T12:58:08.000Z</time>
      </trkpt>
      <trkpt lat="44.80482" lon="0.79054">
        <ele>159.6</ele>
        <time>2026-05-02T12:58:09.000Z</time>
      </trkpt>
      <trkpt lat="44.80487" lon="0.79053">
        <ele>160.4</ele>
        <time>2026-05-02T12:58:10.000Z</time>
      </trkpt>
      <trkpt lat="44.80491" lon="0.79054">
        <ele>161.3</ele>
        <time>2026-05-02T12:58:11.000Z</time>
      </trkpt>
      <trkpt lat="44.80495" lon="0.79055">
        <ele>162.7</ele>
        <time>2026-05-02T12:58:12.000Z</time>
      </trkpt>
      <trkpt lat="44.80499" lon="0.79056">
        <ele>163.9</ele>
        <time>2026-05-02T12:58:13.000Z</time>
      </trkpt>
      <trkpt lat="44.80504" lon="0.79057">
        <ele>164.6</ele>
        <time>2026-05-02T12:58:14.000Z</time>
      </trkpt>
      <trkpt lat="44.80512" lon="0.79056">
        <ele>165.6</ele>
        <time>2026-05-02T12:58:15.000Z</time>
      </trkpt>
      <trkpt lat="44.80519" lon="0.79056">
        <ele>166.6</ele>
        <time>2026-05-02T12:58:16.000Z</time>
      </trkpt>
      <trkpt lat="44.80525" lon="0.79055">
        <ele>167.3</ele>
        <time>2026-05-02T12:58:17.000Z</time>
      </trkpt>
      <trkpt lat="44.80532" lon="0.79054">
        <ele>168.4</ele>
        <time>2026-05-02T12:58:18.000Z</time>
      </trkpt>
      <trkpt lat="44.80539" lon="0.79052">
        <ele>170.2</ele>
        <time>2026-05-02T12:58:19.000Z</time>
      </trkpt>
      <trkpt lat="44.80545" lon="0.7905">
        <ele>170.4</ele>
        <time>2026-05-02T12:58:20.000Z</time>
      </trkpt>
      <trkpt lat="44.8055" lon="0.7905">
        <ele>170.7</ele>
        <time>2026-05-02T12:58:21.000Z</time>
      </trkpt>
      <trkpt lat="44.80555" lon="0.79049">
        <ele>170.4</ele>
        <time>2026-05-02T12:58:22.000Z</time>
      </trkpt>
      <trkpt lat="44.8056" lon="0.79049">
        <ele>170.5</ele>
        <time>2026-05-02T12:58:23.000Z</time>
      </trkpt>
      <trkpt lat="44.80566" lon="0.79048">
        <ele>170.5</ele>
        <time>2026-05-02T12:58:24.000Z</time>
      </trkpt>
      <trkpt lat="44.8057" lon="0.79047">
        <ele>171.3</ele>
        <time>2026-05-02T12:58:25.000Z</time>
      </trkpt>
      <trkpt lat="44.80574" lon="0.79045">
        <ele>171</ele>
        <time>2026-05-02T12:58:26.000Z</time>
      </trkpt>
      <trkpt lat="44.80577" lon="0.79045">
        <ele>171.3</ele>
        <time>2026-05-02T12:58:27.000Z</time>
      </trkpt>
      <trkpt lat="44.80581" lon="0.79043">
        <ele>171.4</ele>
        <time>2026-05-02T12:58:28.000Z</time>
      </trkpt>
      <trkpt lat="44.80585" lon="0.79041">
        <ele>171.4</ele>
        <time>2026-05-02T12:58:29.000Z</time>
      </trkpt>
      <trkpt lat="44.80588" lon="0.79039">
        <ele>170.9</ele>
        <time>2026-05-02T12:58:30.000Z</time>
      </trkpt>
      <trkpt lat="44.80593" lon="0.79037">
        <ele>172.2</ele>
        <time>2026-05-02T12:58:31.000Z</time>
      </trkpt>
      <trkpt lat="44.80599" lon="0.79034">
        <ele>168</ele>
        <time>2026-05-02T12:58:32.000Z</time>
      </trkpt>
      <trkpt lat="44.80604" lon="0.7903">
        <ele>168.5</ele>
        <time>2026-05-02T12:58:33.000Z</time>
      </trkpt>
      <trkpt lat="44.80609" lon="0.79027">
        <ele>168.9</ele>
        <time>2026-05-02T12:58:34.000Z</time>
      </trkpt>
      <trkpt lat="44.80613" lon="0.79025">
        <ele>169.5</ele>
        <time>2026-05-02T12:58:35.000Z</time>
      </trkpt>
      <trkpt lat="44.80616" lon="0.79023">
        <ele>170.1</ele>
        <time>2026-05-02T12:58:36.000Z</time>
      </trkpt>
      <trkpt lat="44.8062" lon="0.79022">
        <ele>170.3</ele>
        <time>2026-05-02T12:58:37.000Z</time>
      </trkpt>
      <trkpt lat="44.80625" lon="0.79023">
        <ele>170.8</ele>
        <time>2026-05-02T12:58:38.000Z</time>
      </trkpt>
      <trkpt lat="44.80628" lon="0.79023">
        <ele>170.4</ele>
        <time>2026-05-02T12:58:39.000Z</time>
      </trkpt>
      <trkpt lat="44.80632" lon="0.79023">
        <ele>170.4</ele>
        <time>2026-05-02T12:58:40.000Z</time>
      </trkpt>
      <trkpt lat="44.80636" lon="0.79024">
        <ele>170.5</ele>
        <time>2026-05-02T12:58:41.000Z</time>
      </trkpt>
      <trkpt lat="44.80639" lon="0.79025">
        <ele>170.7</ele>
        <time>2026-05-02T12:58:42.000Z</time>
      </trkpt>
      <trkpt lat="44.80642" lon="0.79025">
        <ele>170.5</ele>
        <time>2026-05-02T12:58:43.000Z</time>
      </trkpt>
      <trkpt lat="44.80645" lon="0.79025">
        <ele>170.7</ele>
        <time>2026-05-02T12:58:44.000Z</time>
      </trkpt>
      <trkpt lat="44.80651" lon="0.79025">
        <ele>171.5</ele>
        <time>2026-05-02T12:58:45.000Z</time>
      </trkpt>
      <trkpt lat="44.80656" lon="0.79025">
        <ele>171.9</ele>
        <time>2026-05-02T12:58:46.000Z</time>
      </trkpt>
      <trkpt lat="44.8066" lon="0.79025">
        <ele>172.4</ele>
        <time>2026-05-02T12:58:47.000Z</time>
      </trkpt>
      <trkpt lat="44.80665" lon="0.79025">
        <ele>172.5</ele>
        <time>2026-05-02T12:58:48.000Z</time>
      </trkpt>
      <trkpt lat="44.80669" lon="0.79024">
        <ele>173.5</ele>
        <time>2026-05-02T12:58:49.000Z</time>
      </trkpt>
      <trkpt lat="44.80673" lon="0.79024">
        <ele>174.1</ele>
        <time>2026-05-02T12:58:50.000Z</time>
      </trkpt>
      <trkpt lat="44.80677" lon="0.79024">
        <ele>173.9</ele>
        <time>2026-05-02T12:58:51.000Z</time>
      </trkpt>
      <trkpt lat="44.8068" lon="0.79024">
        <ele>174.1</ele>
        <time>2026-05-02T12:58:52.000Z</time>
      </trkpt>
      <trkpt lat="44.80683" lon="0.79024">
        <ele>175</ele>
        <time>2026-05-02T12:58:53.000Z</time>
      </trkpt>
      <trkpt lat="44.80687" lon="0.79025">
        <ele>173.2</ele>
        <time>2026-05-02T12:58:54.000Z</time>
      </trkpt>
      <trkpt lat="44.8069" lon="0.79023">
        <ele>177.2</ele>
        <time>2026-05-02T12:58:55.000Z</time>
      </trkpt>
      <trkpt lat="44.80694" lon="0.79022">
        <ele>176.3</ele>
        <time>2026-05-02T12:58:56.000Z</time>
      </trkpt>
      <trkpt lat="44.80699" lon="0.79021">
        <ele>177.8</ele>
        <time>2026-05-02T12:58:57.000Z</time>
      </trkpt>
      <trkpt lat="44.80703" lon="0.79021">
        <ele>178.5</ele>
        <time>2026-05-02T12:58:58.000Z</time>
      </trkpt>
      <trkpt lat="44.80706" lon="0.79021">
        <ele>177.9</ele>
        <time>2026-05-02T12:58:59.000Z</time>
      </trkpt>
      <trkpt lat="44.80709" lon="0.79021">
        <ele>176.7</ele>
        <time>2026-05-02T12:59:00.000Z</time>
      </trkpt>
      <trkpt lat="44.80711" lon="0.7902">
        <ele>177</ele>
        <time>2026-05-02T12:59:01.000Z</time>
      </trkpt>
      <trkpt lat="44.80713" lon="0.79019">
        <ele>179.2</ele>
        <time>2026-05-02T12:59:02.000Z</time>
      </trkpt>
      <trkpt lat="44.80715" lon="0.79019">
        <ele>179.2</ele>
        <time>2026-05-02T12:59:03.000Z</time>
      </trkpt>
      <trkpt lat="44.80716" lon="0.79018">
        <ele>179.9</ele>
        <time>2026-05-02T12:59:04.000Z</time>
      </trkpt>
      <trkpt lat="44.80717" lon="0.79018">
        <ele>179.6</ele>
        <time>2026-05-02T12:59:05.000Z</time>
      </trkpt>
      <trkpt lat="44.80719" lon="0.79018">
        <ele>179.4</ele>
        <time>2026-05-02T12:59:06.000Z</time>
      </trkpt>
      <trkpt lat="44.80722" lon="0.79017">
        <ele>180.5</ele>
        <time>2026-05-02T12:59:07.000Z</time>
      </trkpt>
      <trkpt lat="44.80724" lon="0.79017">
        <ele>183</ele>
        <time>2026-05-02T12:59:08.000Z</time>
      </trkpt>
      <trkpt lat="44.80726" lon="0.79017">
        <ele>181.5</ele>
        <time>2026-05-02T12:59:09.000Z</time>
      </trkpt>
      <trkpt lat="44.80729" lon="0.79018">
        <ele>179</ele>
        <time>2026-05-02T12:59:10.000Z</time>
      </trkpt>
      <trkpt lat="44.80731" lon="0.79019">
        <ele>178.2</ele>
        <time>2026-05-02T12:59:11.000Z</time>
      </trkpt>
      <trkpt lat="44.80734" lon="0.79021">
        <ele>177.9</ele>
        <time>2026-05-02T12:59:12.000Z</time>
      </trkpt>
      <trkpt lat="44.80736" lon="0.79022">
        <ele>178.1</ele>
        <time>2026-05-02T12:59:13.000Z</time>
      </trkpt>
      <trkpt lat="44.80739" lon="0.79022">
        <ele>179.1</ele>
        <time>2026-05-02T12:59:14.000Z</time>
      </trkpt>
      <trkpt lat="44.80741" lon="0.79022">
        <ele>179</ele>
        <time>2026-05-02T12:59:15.000Z</time>
      </trkpt>
      <trkpt lat="44.80743" lon="0.79021">
        <ele>180</ele>
        <time>2026-05-02T12:59:16.000Z</time>
      </trkpt>
      <trkpt lat="44.80746" lon="0.7902">
        <ele>180.4</ele>
        <time>2026-05-02T12:59:17.000Z</time>
      </trkpt>
      <trkpt lat="44.80748" lon="0.79019">
        <ele>180.9</ele>
        <time>2026-05-02T12:59:18.000Z</time>
      </trkpt>
      <trkpt lat="44.80749" lon="0.79019">
        <ele>181.3</ele>
        <time>2026-05-02T12:59:19.000Z</time>
      </trkpt>
      <trkpt lat="44.80751" lon="0.7902">
        <ele>182.2</ele>
        <time>2026-05-02T12:59:20.000Z</time>
      </trkpt>
      <trkpt lat="44.80753" lon="0.79019">
        <ele>182.8</ele>
        <time>2026-05-02T12:59:21.000Z</time>
      </trkpt>
      <trkpt lat="44.80754" lon="0.79019">
        <ele>182.9</ele>
        <time>2026-05-02T12:59:22.000Z</time>
      </trkpt>
      <trkpt lat="44.80756" lon="0.79019">
        <ele>181</ele>
        <time>2026-05-02T12:59:23.000Z</time>
      </trkpt>
      <trkpt lat="44.80758" lon="0.79019">
        <ele>180.5</ele>
        <time>2026-05-02T12:59:24.000Z</time>
      </trkpt>
      <trkpt lat="44.80759" lon="0.79019">
        <ele>181</ele>
        <time>2026-05-02T12:59:25.000Z</time>
      </trkpt>
      <trkpt lat="44.80761" lon="0.79018">
        <ele>181.8</ele>
        <time>2026-05-02T12:59:26.000Z</time>
      </trkpt>
      <trkpt lat="44.80762" lon="0.79018">
        <ele>181.5</ele>
        <time>2026-05-02T12:59:27.000Z</time>
      </trkpt>
      <trkpt lat="44.80764" lon="0.79018">
        <ele>181</ele>
        <time>2026-05-02T12:59:28.000Z</time>
      </trkpt>
      <trkpt lat="44.80765" lon="0.79018">
        <ele>181.2</ele>
        <time>2026-05-02T12:59:29.000Z</time>
      </trkpt>
      <trkpt lat="44.80767" lon="0.79018">
        <ele>182.4</ele>
        <time>2026-05-02T12:59:30.000Z</time>
      </trkpt>
      <trkpt lat="44.80768" lon="0.79018">
        <ele>183</ele>
        <time>2026-05-02T12:59:31.000Z</time>
      </trkpt>
      <trkpt lat="44.8077" lon="0.79018">
        <ele>183</ele>
        <time>2026-05-02T12:59:32.000Z</time>
      </trkpt>
      <trkpt lat="44.80772" lon="0.79018">
        <ele>183.1</ele>
        <time>2026-05-02T12:59:33.000Z</time>
      </trkpt>
      <trkpt lat="44.80773" lon="0.79018">
        <ele>183.2</ele>
        <time>2026-05-02T12:59:34.000Z</time>
      </trkpt>
      <trkpt lat="44.80775" lon="0.79018">
        <ele>183.3</ele>
        <time>2026-05-02T12:59:35.000Z</time>
      </trkpt>
      <trkpt lat="44.80776" lon="0.79018">
        <ele>183.6</ele>
        <time>2026-05-02T12:59:36.000Z</time>
      </trkpt>
      <trkpt lat="44.80778" lon="0.79018">
        <ele>183.7</ele>
        <time>2026-05-02T12:59:37.000Z</time>
      </trkpt>
      <trkpt lat="44.8078" lon="0.79018">
        <ele>183.6</ele>
        <time>2026-05-02T12:59:38.000Z</time>
      </trkpt>
      <trkpt lat="44.80782" lon="0.79018">
        <ele>183.6</ele>
        <time>2026-05-02T12:59:39.000Z</time>
      </trkpt>
      <trkpt lat="44.80784" lon="0.79017">
        <ele>183.8</ele>
        <time>2026-05-02T12:59:40.000Z</time>
      </trkpt>
      <trkpt lat="44.80786" lon="0.79017">
        <ele>183.7</ele>
        <time>2026-05-02T12:59:41.000Z</time>
      </trkpt>
      <trkpt lat="44.80788" lon="0.79017">
        <ele>184.7</ele>
        <time>2026-05-02T12:59:42.000Z</time>
      </trkpt>
      <trkpt lat="44.80789" lon="0.79017">
        <ele>184.6</ele>
        <time>2026-05-02T12:59:43.000Z</time>
      </trkpt>
      <trkpt lat="44.80791" lon="0.79017">
        <ele>185.4</ele>
        <time>2026-05-02T12:59:44.000Z</time>
      </trkpt>
      <trkpt lat="44.80793" lon="0.79017">
        <ele>186</ele>
        <time>2026-05-02T12:59:45.000Z</time>
      </trkpt>
      <trkpt lat="44.80794" lon="0.79017">
        <ele>186.2</ele>
        <time>2026-05-02T12:59:46.000Z</time>
      </trkpt>
      <trkpt lat="44.80796" lon="0.79017">
        <ele>186.1</ele>
        <time>2026-05-02T12:59:47.000Z</time>
      </trkpt>
      <trkpt lat="44.80797" lon="0.79017">
        <ele>186.3</ele>
        <time>2026-05-02T12:59:48.000Z</time>
      </trkpt>
      <trkpt lat="44.80799" lon="0.79017">
        <ele>186.2</ele>
        <time>2026-05-02T12:59:49.000Z</time>
      </trkpt>
      <trkpt lat="44.808" lon="0.79016">
        <ele>186.5</ele>
        <time>2026-05-02T12:59:50.000Z</time>
      </trkpt>
      <trkpt lat="44.80802" lon="0.79016">
        <ele>186.4</ele>
        <time>2026-05-02T12:59:51.000Z</time>
      </trkpt>
      <trkpt lat="44.80804" lon="0.79015">
        <ele>187</ele>
        <time>2026-05-02T12:59:52.000Z</time>
      </trkpt>
      <trkpt lat="44.80805" lon="0.79014">
        <ele>185.8</ele>
        <time>2026-05-02T12:59:53.000Z</time>
      </trkpt>
      <trkpt lat="44.80807" lon="0.79013">
        <ele>185.6</ele>
        <time>2026-05-02T12:59:54.000Z</time>
      </trkpt>
      <trkpt lat="44.80808" lon="0.79013">
        <ele>186.1</ele>
        <time>2026-05-02T12:59:55.000Z</time>
      </trkpt>
      <trkpt lat="44.8081" lon="0.79013">
        <ele>186.6</ele>
        <time>2026-05-02T12:59:56.000Z</time>
      </trkpt>
      <trkpt lat="44.80811" lon="0.79013">
        <ele>186.3</ele>
        <time>2026-05-02T12:59:57.000Z</time>
      </trkpt>
      <trkpt lat="44.80813" lon="0.79013">
        <ele>186.5</ele>
        <time>2026-05-02T12:59:58.000Z</time>
      </trkpt>
      <trkpt lat="44.80815" lon="0.79013">
        <ele>186.3</ele>
        <time>2026-05-02T12:59:59.000Z</time>
      </trkpt>
      <trkpt lat="44.80816" lon="0.79013">
        <ele>186.5</ele>
        <time>2026-05-02T13:00:00.000Z</time>
      </trkpt>
      <trkpt lat="44.80818" lon="0.79012">
        <ele>187.1</ele>
        <time>2026-05-02T13:00:01.000Z</time>
      </trkpt>
      <trkpt lat="44.8082" lon="0.79012">
        <ele>188</ele>
        <time>2026-05-02T13:00:02.000Z</time>
      </trkpt>
      <trkpt lat="44.80822" lon="0.79012">
        <ele>188.4</ele>
        <time>2026-05-02T13:00:03.000Z</time>
      </trkpt>
      <trkpt lat="44.80824" lon="0.79012">
        <ele>188.7</ele>
        <time>2026-05-02T13:00:04.000Z</time>
      </trkpt>
      <trkpt lat="44.80826" lon="0.79012">
        <ele>188.5</ele>
        <time>2026-05-02T13:00:05.000Z</time>
      </trkpt>
      <trkpt lat="44.80828" lon="0.79012">
        <ele>188.8</ele>
        <time>2026-05-02T13:00:06.000Z</time>
      </trkpt>
      <trkpt lat="44.8083" lon="0.79012">
        <ele>189.3</ele>
        <time>2026-05-02T13:00:07.000Z</time>
      </trkpt>
      <trkpt lat="44.80832" lon="0.79012">
        <ele>189.2</ele>
        <time>2026-05-02T13:00:08.000Z</time>
      </trkpt>
      <trkpt lat="44.80833" lon="0.79012">
        <ele>189</ele>
        <time>2026-05-02T13:00:09.000Z</time>
      </trkpt>
      <trkpt lat="44.80835" lon="0.79011">
        <ele>187.8</ele>
        <time>2026-05-02T13:00:10.000Z</time>
      </trkpt>
      <trkpt lat="44.80836" lon="0.79012">
        <ele>187.3</ele>
        <time>2026-05-02T13:00:11.000Z</time>
      </trkpt>
      <trkpt lat="44.80838" lon="0.79012">
        <ele>187.9</ele>
        <time>2026-05-02T13:00:12.000Z</time>
      </trkpt>
      <trkpt lat="44.80839" lon="0.79013">
        <ele>188</ele>
        <time>2026-05-02T13:00:13.000Z</time>
      </trkpt>
      <trkpt lat="44.80841" lon="0.79013">
        <ele>187.8</ele>
        <time>2026-05-02T13:00:14.000Z</time>
      </trkpt>
      <trkpt lat="44.80843" lon="0.79014">
        <ele>188.7</ele>
        <time>2026-05-02T13:00:15.000Z</time>
      </trkpt>
      <trkpt lat="44.80844" lon="0.79014">
        <ele>188.8</ele>
        <time>2026-05-02T13:00:16.000Z</time>
      </trkpt>
      <trkpt lat="44.80846" lon="0.79015">
        <ele>189.2</ele>
        <time>2026-05-02T13:00:17.000Z</time>
      </trkpt>
      <trkpt lat="44.80848" lon="0.79015">
        <ele>189</ele>
        <time>2026-05-02T13:00:18.000Z</time>
      </trkpt>
      <trkpt lat="44.80849" lon="0.79015">
        <ele>188.9</ele>
        <time>2026-05-02T13:00:19.000Z</time>
      </trkpt>
      <trkpt lat="44.80851" lon="0.79015">
        <ele>188.8</ele>
        <time>2026-05-02T13:00:20.000Z</time>
      </trkpt>
      <trkpt lat="44.80853" lon="0.79015">
        <ele>188.9</ele>
        <time>2026-05-02T13:00:21.000Z</time>
      </trkpt>
      <trkpt lat="44.80854" lon="0.79016">
        <ele>188.6</ele>
        <time>2026-05-02T13:00:22.000Z</time>
      </trkpt>
      <trkpt lat="44.80856" lon="0.79016">
        <ele>189.4</ele>
        <time>2026-05-02T13:00:23.000Z</time>
      </trkpt>
      <trkpt lat="44.80857" lon="0.79016">
        <ele>189.8</ele>
        <time>2026-05-02T13:00:24.000Z</time>
      </trkpt>
      <trkpt lat="44.80859" lon="0.79016">
        <ele>190</ele>
        <time>2026-05-02T13:00:25.000Z</time>
      </trkpt>
      <trkpt lat="44.8086" lon="0.79016">
        <ele>190.3</ele>
        <time>2026-05-02T13:00:26.000Z</time>
      </trkpt>
      <trkpt lat="44.80862" lon="0.79016">
        <ele>190.3</ele>
        <time>2026-05-02T13:00:27.000Z</time>
      </trkpt>
      <trkpt lat="44.80863" lon="0.79017">
        <ele>190.1</ele>
        <time>2026-05-02T13:00:28.000Z</time>
      </trkpt>
      <trkpt lat="44.80865" lon="0.79018">
        <ele>190.2</ele>
        <time>2026-05-02T13:00:29.000Z</time>
      </trkpt>
      <trkpt lat="44.80866" lon="0.79018">
        <ele>190.1</ele>
        <time>2026-05-02T13:00:30.000Z</time>
      </trkpt>
      <trkpt lat="44.80867" lon="0.79019">
        <ele>190.9</ele>
        <time>2026-05-02T13:00:31.000Z</time>
      </trkpt>
      <trkpt lat="44.80869" lon="0.7902">
        <ele>191.5</ele>
        <time>2026-05-02T13:00:32.000Z</time>
      </trkpt>
      <trkpt lat="44.8087" lon="0.79021">
        <ele>191.1</ele>
        <time>2026-05-02T13:00:33.000Z</time>
      </trkpt>
      <trkpt lat="44.80872" lon="0.79022">
        <ele>191.8</ele>
        <time>2026-05-02T13:00:34.000Z</time>
      </trkpt>
      <trkpt lat="44.80873" lon="0.79023">
        <ele>191.9</ele>
        <time>2026-05-02T13:00:35.000Z</time>
      </trkpt>
      <trkpt lat="44.80874" lon="0.79024">
        <ele>191.7</ele>
        <time>2026-05-02T13:00:36.000Z</time>
      </trkpt>
      <trkpt lat="44.80876" lon="0.79025">
        <ele>192.7</ele>
        <time>2026-05-02T13:00:37.000Z</time>
      </trkpt>
      <trkpt lat="44.80877" lon="0.79027">
        <ele>193</ele>
        <time>2026-05-02T13:00:38.000Z</time>
      </trkpt>
      <trkpt lat="44.80878" lon="0.79028">
        <ele>193</ele>
        <time>2026-05-02T13:00:39.000Z</time>
      </trkpt>
      <trkpt lat="44.80879" lon="0.79029">
        <ele>193.3</ele>
        <time>2026-05-02T13:00:40.000Z</time>
      </trkpt>
      <trkpt lat="44.80881" lon="0.79031">
        <ele>193.2</ele>
        <time>2026-05-02T13:00:41.000Z</time>
      </trkpt>
      <trkpt lat="44.80882" lon="0.79032">
        <ele>193.1</ele>
        <time>2026-05-02T13:00:42.000Z</time>
      </trkpt>
      <trkpt lat="44.80883" lon="0.79033">
        <ele>192.9</ele>
        <time>2026-05-02T13:00:43.000Z</time>
      </trkpt>
      <trkpt lat="44.80884" lon="0.79035">
        <ele>193.1</ele>
        <time>2026-05-02T13:00:44.000Z</time>
      </trkpt>
      <trkpt lat="44.80886" lon="0.79036">
        <ele>192.8</ele>
        <time>2026-05-02T13:00:45.000Z</time>
      </trkpt>
      <trkpt lat="44.80887" lon="0.79038">
        <ele>193.5</ele>
        <time>2026-05-02T13:00:46.000Z</time>
      </trkpt>
      <trkpt lat="44.80888" lon="0.7904">
        <ele>193.5</ele>
        <time>2026-05-02T13:00:47.000Z</time>
      </trkpt>
      <trkpt lat="44.80889" lon="0.79041">
        <ele>193.5</ele>
        <time>2026-05-02T13:00:48.000Z</time>
      </trkpt>
      <trkpt lat="44.8089" lon="0.79043">
        <ele>193.4</ele>
        <time>2026-05-02T13:00:49.000Z</time>
      </trkpt>
      <trkpt lat="44.8089" lon="0.79045">
        <ele>193.2</ele>
        <time>2026-05-02T13:00:50.000Z</time>
      </trkpt>
      <trkpt lat="44.80891" lon="0.79046">
        <ele>193.4</ele>
        <time>2026-05-02T13:00:51.000Z</time>
      </trkpt>
      <trkpt lat="44.80892" lon="0.79048">
        <ele>192.8</ele>
        <time>2026-05-02T13:00:52.000Z</time>
      </trkpt>
      <trkpt lat="44.80893" lon="0.7905">
        <ele>192.4</ele>
        <time>2026-05-02T13:00:53.000Z</time>
      </trkpt>
      <trkpt lat="44.80894" lon="0.79052">
        <ele>192.1</ele>
        <time>2026-05-02T13:00:54.000Z</time>
      </trkpt>
      <trkpt lat="44.80895" lon="0.79053">
        <ele>192.1</ele>
        <time>2026-05-02T13:00:55.000Z</time>
      </trkpt>
      <trkpt lat="44.80897" lon="0.79054">
        <ele>192.8</ele>
        <time>2026-05-02T13:00:56.000Z</time>
      </trkpt>
      <trkpt lat="44.80897" lon="0.79055">
        <ele>193</ele>
        <time>2026-05-02T13:00:57.000Z</time>
      </trkpt>
      <trkpt lat="44.80898" lon="0.79056">
        <ele>192</ele>
        <time>2026-05-02T13:00:58.000Z</time>
      </trkpt>
      <trkpt lat="44.809" lon="0.79057">
        <ele>190.4</ele>
        <time>2026-05-02T13:00:59.000Z</time>
      </trkpt>
      <trkpt lat="44.80901" lon="0.79058">
        <ele>190.2</ele>
        <time>2026-05-02T13:01:00.000Z</time>
      </trkpt>
      <trkpt lat="44.80902" lon="0.7906">
        <ele>191.4</ele>
        <time>2026-05-02T13:01:01.000Z</time>
      </trkpt>
      <trkpt lat="44.80903" lon="0.79062">
        <ele>191.8</ele>
        <time>2026-05-02T13:01:02.000Z</time>
      </trkpt>
      <trkpt lat="44.80904" lon="0.79064">
        <ele>192.5</ele>
        <time>2026-05-02T13:01:03.000Z</time>
      </trkpt>
      <trkpt lat="44.80905" lon="0.79066">
        <ele>192.2</ele>
        <time>2026-05-02T13:01:04.000Z</time>
      </trkpt>
      <trkpt lat="44.80907" lon="0.79068">
        <ele>192.2</ele>
        <time>2026-05-02T13:01:05.000Z</time>
      </trkpt>
      <trkpt lat="44.80908" lon="0.7907">
        <ele>192.4</ele>
        <time>2026-05-02T13:01:06.000Z</time>
      </trkpt>
      <trkpt lat="44.80909" lon="0.79071">
        <ele>193.5</ele>
        <time>2026-05-02T13:01:07.000Z</time>
      </trkpt>
      <trkpt lat="44.8091" lon="0.79073">
        <ele>194.3</ele>
        <time>2026-05-02T13:01:08.000Z</time>
      </trkpt>
      <trkpt lat="44.80911" lon="0.79075">
        <ele>194.3</ele>
        <time>2026-05-02T13:01:09.000Z</time>
      </trkpt>
      <trkpt lat="44.80912" lon="0.79077">
        <ele>194.2</ele>
        <time>2026-05-02T13:01:10.000Z</time>
      </trkpt>
      <trkpt lat="44.80913" lon="0.79079">
        <ele>194.4</ele>
        <time>2026-05-02T13:01:11.000Z</time>
      </trkpt>
      <trkpt lat="44.80914" lon="0.7908">
        <ele>193.5</ele>
        <time>2026-05-02T13:01:12.000Z</time>
      </trkpt>
      <trkpt lat="44.80916" lon="0.79082">
        <ele>193.3</ele>
        <time>2026-05-02T13:01:13.000Z</time>
      </trkpt>
      <trkpt lat="44.80917" lon="0.79084">
        <ele>193.3</ele>
        <time>2026-05-02T13:01:14.000Z</time>
      </trkpt>
      <trkpt lat="44.80918" lon="0.79085">
        <ele>193.5</ele>
        <time>2026-05-02T13:01:15.000Z</time>
      </trkpt>
      <trkpt lat="44.80919" lon="0.79087">
        <ele>193.4</ele>
        <time>2026-05-02T13:01:16.000Z</time>
      </trkpt>
      <trkpt lat="44.8092" lon="0.7909">
        <ele>193.5</ele>
        <time>2026-05-02T13:01:17.000Z</time>
      </trkpt>
      <trkpt lat="44.80921" lon="0.79091">
        <ele>193.7</ele>
        <time>2026-05-02T13:01:18.000Z</time>
      </trkpt>
      <trkpt lat="44.80923" lon="0.79094">
        <ele>194.3</ele>
        <time>2026-05-02T13:01:19.000Z</time>
      </trkpt>
      <trkpt lat="44.80924" lon="0.79096">
        <ele>195.4</ele>
        <time>2026-05-02T13:01:20.000Z</time>
      </trkpt>
      <trkpt lat="44.80926" lon="0.79098">
        <ele>195.9</ele>
        <time>2026-05-02T13:01:21.000Z</time>
      </trkpt>
      <trkpt lat="44.80927" lon="0.79101">
        <ele>195.6</ele>
        <time>2026-05-02T13:01:22.000Z</time>
      </trkpt>
      <trkpt lat="44.80929" lon="0.79104">
        <ele>196.2</ele>
        <time>2026-05-02T13:01:23.000Z</time>
      </trkpt>
      <trkpt lat="44.80931" lon="0.79106">
        <ele>196.6</ele>
        <time>2026-05-02T13:01:24.000Z</time>
      </trkpt>
      <trkpt lat="44.80933" lon="0.79108">
        <ele>196.9</ele>
        <time>2026-05-02T13:01:25.000Z</time>
      </trkpt>
      <trkpt lat="44.80935" lon="0.7911">
        <ele>196.8</ele>
        <time>2026-05-02T13:01:26.000Z</time>
      </trkpt>
      <trkpt lat="44.80937" lon="0.79113">
        <ele>196.4</ele>
        <time>2026-05-02T13:01:27.000Z</time>
      </trkpt>
      <trkpt lat="44.80939" lon="0.79115">
        <ele>194.4</ele>
        <time>2026-05-02T13:01:28.000Z</time>
      </trkpt>
      <trkpt lat="44.8094" lon="0.79118">
        <ele>194</ele>
        <time>2026-05-02T13:01:29.000Z</time>
      </trkpt>
      <trkpt lat="44.80942" lon="0.79121">
        <ele>193.1</ele>
        <time>2026-05-02T13:01:30.000Z</time>
      </trkpt>
      <trkpt lat="44.80944" lon="0.79122">
        <ele>192.5</ele>
        <time>2026-05-02T13:01:31.000Z</time>
      </trkpt>
      <trkpt lat="44.80945" lon="0.79124">
        <ele>192.2</ele>
        <time>2026-05-02T13:01:32.000Z</time>
      </trkpt>
      <trkpt lat="44.80946" lon="0.79126">
        <ele>192</ele>
        <time>2026-05-02T13:01:33.000Z</time>
      </trkpt>
      <trkpt lat="44.80948" lon="0.79127">
        <ele>191.5</ele>
        <time>2026-05-02T13:01:34.000Z</time>
      </trkpt>
      <trkpt lat="44.80949" lon="0.79128">
        <ele>190.2</ele>
        <time>2026-05-02T13:01:35.000Z</time>
      </trkpt>
      <trkpt lat="44.8095" lon="0.79129">
        <ele>190.5</ele>
        <time>2026-05-02T13:01:36.000Z</time>
      </trkpt>
      <trkpt lat="44.80951" lon="0.79128">
        <ele>194.8</ele>
        <time>2026-05-02T13:01:37.000Z</time>
      </trkpt>
      <trkpt lat="44.80952" lon="0.79129">
        <ele>195.7</ele>
        <time>2026-05-02T13:01:38.000Z</time>
      </trkpt>
      <trkpt lat="44.80954" lon="0.79129">
        <ele>196.2</ele>
        <time>2026-05-02T13:01:39.000Z</time>
      </trkpt>
      <trkpt lat="44.80955" lon="0.7913">
        <ele>197.6</ele>
        <time>2026-05-02T13:01:40.000Z</time>
      </trkpt>
      <trkpt lat="44.80957" lon="0.7913">
        <ele>200.4</ele>
        <time>2026-05-02T13:01:41.000Z</time>
      </trkpt>
      <trkpt lat="44.80957" lon="0.79131">
        <ele>201.4</ele>
        <time>2026-05-02T13:01:42.000Z</time>
      </trkpt>
      <trkpt lat="44.80959" lon="0.79132">
        <ele>201.5</ele>
        <time>2026-05-02T13:01:43.000Z</time>
      </trkpt>
      <trkpt lat="44.8096" lon="0.79133">
        <ele>201.5</ele>
        <time>2026-05-02T13:01:44.000Z</time>
      </trkpt>
      <trkpt lat="44.80961" lon="0.79134">
        <ele>201.3</ele>
        <time>2026-05-02T13:01:45.000Z</time>
      </trkpt>
      <trkpt lat="44.80962" lon="0.79135">
        <ele>201.5</ele>
        <time>2026-05-02T13:01:46.000Z</time>
      </trkpt>
      <trkpt lat="44.80963" lon="0.79137">
        <ele>201.2</ele>
        <time>2026-05-02T13:01:47.000Z</time>
      </trkpt>
      <trkpt lat="44.80964" lon="0.79138">
        <ele>201.2</ele>
        <time>2026-05-02T13:01:48.000Z</time>
      </trkpt>
      <trkpt lat="44.80965" lon="0.7914">
        <ele>200.8</ele>
        <time>2026-05-02T13:01:49.000Z</time>
      </trkpt>
      <trkpt lat="44.80966" lon="0.79142">
        <ele>200.9</ele>
        <time>2026-05-02T13:01:50.000Z</time>
      </trkpt>
      <trkpt lat="44.80967" lon="0.79143">
        <ele>201.4</ele>
        <time>2026-05-02T13:01:51.000Z</time>
      </trkpt>
      <trkpt lat="44.80968" lon="0.79145">
        <ele>200.9</ele>
        <time>2026-05-02T13:01:52.000Z</time>
      </trkpt>
      <trkpt lat="44.80969" lon="0.79147">
        <ele>200.9</ele>
        <time>2026-05-02T13:01:53.000Z</time>
      </trkpt>
      <trkpt lat="44.80971" lon="0.79148">
        <ele>201.4</ele>
        <time>2026-05-02T13:01:54.000Z</time>
      </trkpt>
      <trkpt lat="44.80972" lon="0.79149">
        <ele>201.2</ele>
        <time>2026-05-02T13:01:55.000Z</time>
      </trkpt>
      <trkpt lat="44.80973" lon="0.7915">
        <ele>201</ele>
        <time>2026-05-02T13:01:56.000Z</time>
      </trkpt>
      <trkpt lat="44.80974" lon="0.79152">
        <ele>200.9</ele>
        <time>2026-05-02T13:01:57.000Z</time>
      </trkpt>
      <trkpt lat="44.80975" lon="0.79153">
        <ele>201.2</ele>
        <time>2026-05-02T13:01:58.000Z</time>
      </trkpt>
      <trkpt lat="44.80976" lon="0.79155">
        <ele>201.1</ele>
        <time>2026-05-02T13:01:59.000Z</time>
      </trkpt>
      <trkpt lat="44.80977" lon="0.79156">
        <ele>202.3</ele>
        <time>2026-05-02T13:02:00.000Z</time>
      </trkpt>
      <trkpt lat="44.80978" lon="0.79157">
        <ele>202.6</ele>
        <time>2026-05-02T13:02:01.000Z</time>
      </trkpt>
      <trkpt lat="44.80979" lon="0.79158">
        <ele>202.8</ele>
        <time>2026-05-02T13:02:02.000Z</time>
      </trkpt>
      <trkpt lat="44.8098" lon="0.79159">
        <ele>202.9</ele>
        <time>2026-05-02T13:02:03.000Z</time>
      </trkpt>
      <trkpt lat="44.80981" lon="0.7916">
        <ele>202.5</ele>
        <time>2026-05-02T13:02:04.000Z</time>
      </trkpt>
      <trkpt lat="44.80982" lon="0.79162">
        <ele>202.5</ele>
        <time>2026-05-02T13:02:05.000Z</time>
      </trkpt>
      <trkpt lat="44.80983" lon="0.79163">
        <ele>202.5</ele>
        <time>2026-05-02T13:02:06.000Z</time>
      </trkpt>
      <trkpt lat="44.80984" lon="0.79165">
        <ele>202.9</ele>
        <time>2026-05-02T13:02:07.000Z</time>
      </trkpt>
      <trkpt lat="44.80985" lon="0.79166">
        <ele>203.4</ele>
        <time>2026-05-02T13:02:08.000Z</time>
      </trkpt>
      <trkpt lat="44.80986" lon="0.79168">
        <ele>203.3</ele>
        <time>2026-05-02T13:02:09.000Z</time>
      </trkpt>
      <trkpt lat="44.80987" lon="0.79169">
        <ele>203.4</ele>
        <time>2026-05-02T13:02:10.000Z</time>
      </trkpt>
      <trkpt lat="44.80988" lon="0.79171">
        <ele>202.9</ele>
        <time>2026-05-02T13:02:11.000Z</time>
      </trkpt>
      <trkpt lat="44.80989" lon="0.79173">
        <ele>203.8</ele>
        <time>2026-05-02T13:02:12.000Z</time>
      </trkpt>
      <trkpt lat="44.8099" lon="0.79175">
        <ele>204.1</ele>
        <time>2026-05-02T13:02:13.000Z</time>
      </trkpt>
      <trkpt lat="44.80991" lon="0.79176">
        <ele>204.3</ele>
        <time>2026-05-02T13:02:14.000Z</time>
      </trkpt>
      <trkpt lat="44.80992" lon="0.79178">
        <ele>204.3</ele>
        <time>2026-05-02T13:02:15.000Z</time>
      </trkpt>
      <trkpt lat="44.80993" lon="0.7918">
        <ele>203.1</ele>
        <time>2026-05-02T13:02:16.000Z</time>
      </trkpt>
      <trkpt lat="44.80994" lon="0.79182">
        <ele>203.1</ele>
        <time>2026-05-02T13:02:17.000Z</time>
      </trkpt>
      <trkpt lat="44.80995" lon="0.79184">
        <ele>202.5</ele>
        <time>2026-05-02T13:02:18.000Z</time>
      </trkpt>
      <trkpt lat="44.80996" lon="0.79186">
        <ele>201.7</ele>
        <time>2026-05-02T13:02:19.000Z</time>
      </trkpt>
      <trkpt lat="44.80997" lon="0.79187">
        <ele>201.4</ele>
        <time>2026-05-02T13:02:20.000Z</time>
      </trkpt>
      <trkpt lat="44.80998" lon="0.79189">
        <ele>201.5</ele>
        <time>2026-05-02T13:02:21.000Z</time>
      </trkpt>
      <trkpt lat="44.80999" lon="0.79191">
        <ele>201.3</ele>
        <time>2026-05-02T13:02:22.000Z</time>
      </trkpt>
      <trkpt lat="44.81" lon="0.79193">
        <ele>201.3</ele>
        <time>2026-05-02T13:02:23.000Z</time>
      </trkpt>
      <trkpt lat="44.81001" lon="0.79195">
        <ele>201.3</ele>
        <time>2026-05-02T13:02:24.000Z</time>
      </trkpt>
      <trkpt lat="44.81003" lon="0.79197">
        <ele>201.5</ele>
        <time>2026-05-02T13:02:25.000Z</time>
      </trkpt>
      <trkpt lat="44.81003" lon="0.79198">
        <ele>201.4</ele>
        <time>2026-05-02T13:02:26.000Z</time>
      </trkpt>
      <trkpt lat="44.81005" lon="0.79199">
        <ele>201.8</ele>
        <time>2026-05-02T13:02:27.000Z</time>
      </trkpt>
      <trkpt lat="44.81006" lon="0.792">
        <ele>201.9</ele>
        <time>2026-05-02T13:02:28.000Z</time>
      </trkpt>
      <trkpt lat="44.81007" lon="0.79201">
        <ele>202.1</ele>
        <time>2026-05-02T13:02:29.000Z</time>
      </trkpt>
      <trkpt lat="44.81008" lon="0.79202">
        <ele>202.7</ele>
        <time>2026-05-02T13:02:30.000Z</time>
      </trkpt>
      <trkpt lat="44.81009" lon="0.79204">
        <ele>202.2</ele>
        <time>2026-05-02T13:02:31.000Z</time>
      </trkpt>
      <trkpt lat="44.8101" lon="0.79205">
        <ele>202.2</ele>
        <time>2026-05-02T13:02:32.000Z</time>
      </trkpt>
      <trkpt lat="44.81011" lon="0.79207">
        <ele>202.8</ele>
        <time>2026-05-02T13:02:33.000Z</time>
      </trkpt>
      <trkpt lat="44.81012" lon="0.79208">
        <ele>203.4</ele>
        <time>2026-05-02T13:02:34.000Z</time>
      </trkpt>
      <trkpt lat="44.81013" lon="0.79209">
        <ele>203.2</ele>
        <time>2026-05-02T13:02:35.000Z</time>
      </trkpt>
      <trkpt lat="44.81015" lon="0.7921">
        <ele>205.1</ele>
        <time>2026-05-02T13:02:36.000Z</time>
      </trkpt>
      <trkpt lat="44.81016" lon="0.79212">
        <ele>204.8</ele>
        <time>2026-05-02T13:02:37.000Z</time>
      </trkpt>
      <trkpt lat="44.81018" lon="0.79213">
        <ele>205.4</ele>
        <time>2026-05-02T13:02:38.000Z</time>
      </trkpt>
      <trkpt lat="44.8102" lon="0.79214">
        <ele>205.1</ele>
        <time>2026-05-02T13:02:39.000Z</time>
      </trkpt>
      <trkpt lat="44.81021" lon="0.79215">
        <ele>205.1</ele>
        <time>2026-05-02T13:02:40.000Z</time>
      </trkpt>
      <trkpt lat="44.81023" lon="0.79216">
        <ele>205.1</ele>
        <time>2026-05-02T13:02:41.000Z</time>
      </trkpt>
      <trkpt lat="44.81025" lon="0.79217">
        <ele>204.5</ele>
        <time>2026-05-02T13:02:42.000Z</time>
      </trkpt>
      <trkpt lat="44.81026" lon="0.79219">
        <ele>203.9</ele>
        <time>2026-05-02T13:02:43.000Z</time>
      </trkpt>
      <trkpt lat="44.81027" lon="0.79221">
        <ele>203.6</ele>
        <time>2026-05-02T13:02:44.000Z</time>
      </trkpt>
      <trkpt lat="44.81028" lon="0.79222">
        <ele>203.4</ele>
        <time>2026-05-02T13:02:45.000Z</time>
      </trkpt>
      <trkpt lat="44.8103" lon="0.79223">
        <ele>203.1</ele>
        <time>2026-05-02T13:02:46.000Z</time>
      </trkpt>
      <trkpt lat="44.81031" lon="0.79225">
        <ele>202.1</ele>
        <time>2026-05-02T13:02:47.000Z</time>
      </trkpt>
      <trkpt lat="44.81032" lon="0.79226">
        <ele>202.5</ele>
        <time>2026-05-02T13:02:48.000Z</time>
      </trkpt>
      <trkpt lat="44.81034" lon="0.79228">
        <ele>202.4</ele>
        <time>2026-05-02T13:02:49.000Z</time>
      </trkpt>
      <trkpt lat="44.81035" lon="0.79229">
        <ele>202.5</ele>
        <time>2026-05-02T13:02:50.000Z</time>
      </trkpt>
      <trkpt lat="44.81036" lon="0.7923">
        <ele>202.6</ele>
        <time>2026-05-02T13:02:51.000Z</time>
      </trkpt>
      <trkpt lat="44.81038" lon="0.79232">
        <ele>202.6</ele>
        <time>2026-05-02T13:02:52.000Z</time>
      </trkpt>
      <trkpt lat="44.8104" lon="0.79233">
        <ele>202.4</ele>
        <time>2026-05-02T13:02:53.000Z</time>
      </trkpt>
      <trkpt lat="44.81042" lon="0.79234">
        <ele>202</ele>
        <time>2026-05-02T13:02:54.000Z</time>
      </trkpt>
      <trkpt lat="44.81043" lon="0.79235">
        <ele>201.7</ele>
        <time>2026-05-02T13:02:55.000Z</time>
      </trkpt>
      <trkpt lat="44.81045" lon="0.79237">
        <ele>201.8</ele>
        <time>2026-05-02T13:02:56.000Z</time>
      </trkpt>
      <trkpt lat="44.81046" lon="0.79238">
        <ele>201.9</ele>
        <time>2026-05-02T13:02:57.000Z</time>
      </trkpt>
      <trkpt lat="44.81048" lon="0.7924">
        <ele>200.8</ele>
        <time>2026-05-02T13:02:58.000Z</time>
      </trkpt>
      <trkpt lat="44.81049" lon="0.79241">
        <ele>203</ele>
        <time>2026-05-02T13:02:59.000Z</time>
      </trkpt>
      <trkpt lat="44.8105" lon="0.79243">
        <ele>202.8</ele>
        <time>2026-05-02T13:03:00.000Z</time>
      </trkpt>
      <trkpt lat="44.81052" lon="0.79243">
        <ele>204.6</ele>
        <time>2026-05-02T13:03:01.000Z</time>
      </trkpt>
      <trkpt lat="44.81053" lon="0.79244">
        <ele>205.5</ele>
        <time>2026-05-02T13:03:02.000Z</time>
      </trkpt>
      <trkpt lat="44.81055" lon="0.79246">
        <ele>205.2</ele>
        <time>2026-05-02T13:03:03.000Z</time>
      </trkpt>
      <trkpt lat="44.81057" lon="0.79247">
        <ele>204.4</ele>
        <time>2026-05-02T13:03:04.000Z</time>
      </trkpt>
      <trkpt lat="44.81058" lon="0.7925">
        <ele>204.9</ele>
        <time>2026-05-02T13:03:05.000Z</time>
      </trkpt>
      <trkpt lat="44.8106" lon="0.79251">
        <ele>205.9</ele>
        <time>2026-05-02T13:03:06.000Z</time>
      </trkpt>
      <trkpt lat="44.81062" lon="0.79253">
        <ele>206.1</ele>
        <time>2026-05-02T13:03:07.000Z</time>
      </trkpt>
      <trkpt lat="44.81064" lon="0.79255">
        <ele>205.3</ele>
        <time>2026-05-02T13:03:08.000Z</time>
      </trkpt>
      <trkpt lat="44.81066" lon="0.79256">
        <ele>205.2</ele>
        <time>2026-05-02T13:03:09.000Z</time>
      </trkpt>
      <trkpt lat="44.81068" lon="0.7926">
        <ele>204.7</ele>
        <time>2026-05-02T13:03:10.000Z</time>
      </trkpt>
      <trkpt lat="44.8107" lon="0.79262">
        <ele>205</ele>
        <time>2026-05-02T13:03:11.000Z</time>
      </trkpt>
      <trkpt lat="44.81072" lon="0.79265">
        <ele>206.8</ele>
        <time>2026-05-02T13:03:12.000Z</time>
      </trkpt>
      <trkpt lat="44.81074" lon="0.79267">
        <ele>203.6</ele>
        <time>2026-05-02T13:03:13.000Z</time>
      </trkpt>
      <trkpt lat="44.81075" lon="0.79271">
        <ele>202.7</ele>
        <time>2026-05-02T13:03:14.000Z</time>
      </trkpt>
      <trkpt lat="44.81077" lon="0.79273">
        <ele>203.7</ele>
        <time>2026-05-02T13:03:15.000Z</time>
      </trkpt>
      <trkpt lat="44.81079" lon="0.79276">
        <ele>202.7</ele>
        <time>2026-05-02T13:03:16.000Z</time>
      </trkpt>
      <trkpt lat="44.81081" lon="0.79279">
        <ele>203.6</ele>
        <time>2026-05-02T13:03:17.000Z</time>
      </trkpt>
      <trkpt lat="44.81083" lon="0.79282">
        <ele>203.7</ele>
        <time>2026-05-02T13:03:18.000Z</time>
      </trkpt>
      <trkpt lat="44.81086" lon="0.79285">
        <ele>203.4</ele>
        <time>2026-05-02T13:03:19.000Z</time>
      </trkpt>
      <trkpt lat="44.81088" lon="0.79289">
        <ele>203.4</ele>
        <time>2026-05-02T13:03:20.000Z</time>
      </trkpt>
      <trkpt lat="44.8109" lon="0.79293">
        <ele>205.8</ele>
        <time>2026-05-02T13:03:21.000Z</time>
      </trkpt>
      <trkpt lat="44.81092" lon="0.79296">
        <ele>209</ele>
        <time>2026-05-02T13:03:22.000Z</time>
      </trkpt>
      <trkpt lat="44.81094" lon="0.79299">
        <ele>208.4</ele>
        <time>2026-05-02T13:03:23.000Z</time>
      </trkpt>
      <trkpt lat="44.81097" lon="0.79301">
        <ele>209</ele>
        <time>2026-05-02T13:03:24.000Z</time>
      </trkpt>
      <trkpt lat="44.81099" lon="0.79304">
        <ele>209.6</ele>
        <time>2026-05-02T13:03:25.000Z</time>
      </trkpt>
      <trkpt lat="44.81101" lon="0.79307">
        <ele>209</ele>
        <time>2026-05-02T13:03:26.000Z</time>
      </trkpt>
      <trkpt lat="44.81103" lon="0.79311">
        <ele>209.1</ele>
        <time>2026-05-02T13:03:27.000Z</time>
      </trkpt>
      <trkpt lat="44.81105" lon="0.79314">
        <ele>208.8</ele>
        <time>2026-05-02T13:03:28.000Z</time>
      </trkpt>
      <trkpt lat="44.81107" lon="0.79315">
        <ele>208.6</ele>
        <time>2026-05-02T13:03:29.000Z</time>
      </trkpt>
      <trkpt lat="44.81109" lon="0.79318">
        <ele>208.3</ele>
        <time>2026-05-02T13:03:30.000Z</time>
      </trkpt>
      <trkpt lat="44.81111" lon="0.7932">
        <ele>208.6</ele>
        <time>2026-05-02T13:03:31.000Z</time>
      </trkpt>
      <trkpt lat="44.81112" lon="0.79322">
        <ele>208.5</ele>
        <time>2026-05-02T13:03:32.000Z</time>
      </trkpt>
      <trkpt lat="44.81114" lon="0.79324">
        <ele>208.6</ele>
        <time>2026-05-02T13:03:33.000Z</time>
      </trkpt>
      <trkpt lat="44.81116" lon="0.79325">
        <ele>208.6</ele>
        <time>2026-05-02T13:03:34.000Z</time>
      </trkpt>
      <trkpt lat="44.81118" lon="0.79327">
        <ele>208.9</ele>
        <time>2026-05-02T13:03:35.000Z</time>
      </trkpt>
      <trkpt lat="44.81119" lon="0.7933">
        <ele>208.2</ele>
        <time>2026-05-02T13:03:36.000Z</time>
      </trkpt>
      <trkpt lat="44.8112" lon="0.79332">
        <ele>207.8</ele>
        <time>2026-05-02T13:03:37.000Z</time>
      </trkpt>
      <trkpt lat="44.81122" lon="0.79335">
        <ele>207.6</ele>
        <time>2026-05-02T13:03:38.000Z</time>
      </trkpt>
      <trkpt lat="44.81123" lon="0.79337">
        <ele>208.2</ele>
        <time>2026-05-02T13:03:39.000Z</time>
      </trkpt>
      <trkpt lat="44.81124" lon="0.79338">
        <ele>207.9</ele>
        <time>2026-05-02T13:03:40.000Z</time>
      </trkpt>
      <trkpt lat="44.81125" lon="0.7934">
        <ele>208.5</ele>
        <time>2026-05-02T13:03:41.000Z</time>
      </trkpt>
      <trkpt lat="44.81126" lon="0.79342">
        <ele>208.4</ele>
        <time>2026-05-02T13:03:42.000Z</time>
      </trkpt>
      <trkpt lat="44.81126" lon="0.79344">
        <ele>208.2</ele>
        <time>2026-05-02T13:03:43.000Z</time>
      </trkpt>
      <trkpt lat="44.81128" lon="0.79346">
        <ele>208.5</ele>
        <time>2026-05-02T13:03:44.000Z</time>
      </trkpt>
      <trkpt lat="44.81129" lon="0.79347">
        <ele>208.6</ele>
        <time>2026-05-02T13:03:45.000Z</time>
      </trkpt>
      <trkpt lat="44.8113" lon="0.79348">
        <ele>208.6</ele>
        <time>2026-05-02T13:03:46.000Z</time>
      </trkpt>
      <trkpt lat="44.81132" lon="0.7935">
        <ele>208.4</ele>
        <time>2026-05-02T13:03:47.000Z</time>
      </trkpt>
      <trkpt lat="44.81133" lon="0.79352">
        <ele>209.6</ele>
        <time>2026-05-02T13:03:48.000Z</time>
      </trkpt>
      <trkpt lat="44.81134" lon="0.79354">
        <ele>209.5</ele>
        <time>2026-05-02T13:03:49.000Z</time>
      </trkpt>
      <trkpt lat="44.81136" lon="0.79356">
        <ele>209.8</ele>
        <time>2026-05-02T13:03:50.000Z</time>
      </trkpt>
      <trkpt lat="44.81137" lon="0.79358">
        <ele>209.4</ele>
        <time>2026-05-02T13:03:51.000Z</time>
      </trkpt>
      <trkpt lat="44.81138" lon="0.7936">
        <ele>209.5</ele>
        <time>2026-05-02T13:03:52.000Z</time>
      </trkpt>
      <trkpt lat="44.81139" lon="0.79362">
        <ele>209</ele>
        <time>2026-05-02T13:03:53.000Z</time>
      </trkpt>
      <trkpt lat="44.81141" lon="0.79364">
        <ele>209</ele>
        <time>2026-05-02T13:03:54.000Z</time>
      </trkpt>
      <trkpt lat="44.81142" lon="0.79365">
        <ele>210.2</ele>
        <time>2026-05-02T13:03:55.000Z</time>
      </trkpt>
      <trkpt lat="44.81143" lon="0.79367">
        <ele>211.9</ele>
        <time>2026-05-02T13:03:56.000Z</time>
      </trkpt>
      <trkpt lat="44.81144" lon="0.79368">
        <ele>212.5</ele>
        <time>2026-05-02T13:03:57.000Z</time>
      </trkpt>
      <trkpt lat="44.81146" lon="0.7937">
        <ele>212.9</ele>
        <time>2026-05-02T13:03:58.000Z</time>
      </trkpt>
      <trkpt lat="44.81147" lon="0.79372">
        <ele>211.9</ele>
        <time>2026-05-02T13:03:59.000Z</time>
      </trkpt>
      <trkpt lat="44.81149" lon="0.79373">
        <ele>212.8</ele>
        <time>2026-05-02T13:04:00.000Z</time>
      </trkpt>
      <trkpt lat="44.8115" lon="0.79375">
        <ele>213.4</ele>
        <time>2026-05-02T13:04:01.000Z</time>
      </trkpt>
      <trkpt lat="44.81151" lon="0.79376">
        <ele>213.5</ele>
        <time>2026-05-02T13:04:02.000Z</time>
      </trkpt>
      <trkpt lat="44.81153" lon="0.79378">
        <ele>213.7</ele>
        <time>2026-05-02T13:04:03.000Z</time>
      </trkpt>
      <trkpt lat="44.81154" lon="0.7938">
        <ele>213.8</ele>
        <time>2026-05-02T13:04:04.000Z</time>
      </trkpt>
      <trkpt lat="44.81156" lon="0.79382">
        <ele>213.7</ele>
        <time>2026-05-02T13:04:05.000Z</time>
      </trkpt>
      <trkpt lat="44.81157" lon="0.79383">
        <ele>213.5</ele>
        <time>2026-05-02T13:04:06.000Z</time>
      </trkpt>
      <trkpt lat="44.81158" lon="0.79385">
        <ele>212.7</ele>
        <time>2026-05-02T13:04:07.000Z</time>
      </trkpt>
      <trkpt lat="44.8116" lon="0.79386">
        <ele>213.4</ele>
        <time>2026-05-02T13:04:08.000Z</time>
      </trkpt>
      <trkpt lat="44.81161" lon="0.79388">
        <ele>213.6</ele>
        <time>2026-05-02T13:04:09.000Z</time>
      </trkpt>
      <trkpt lat="44.81162" lon="0.7939">
        <ele>213.6</ele>
        <time>2026-05-02T13:04:10.000Z</time>
      </trkpt>
      <trkpt lat="44.81164" lon="0.79391">
        <ele>214</ele>
        <time>2026-05-02T13:04:11.000Z</time>
      </trkpt>
      <trkpt lat="44.81165" lon="0.79393">
        <ele>214.2</ele>
        <time>2026-05-02T13:04:12.000Z</time>
      </trkpt>
      <trkpt lat="44.81166" lon="0.79395">
        <ele>214</ele>
        <time>2026-05-02T13:04:13.000Z</time>
      </trkpt>
      <trkpt lat="44.81167" lon="0.79397">
        <ele>214.2</ele>
        <time>2026-05-02T13:04:14.000Z</time>
      </trkpt>
      <trkpt lat="44.81168" lon="0.79399">
        <ele>213.8</ele>
        <time>2026-05-02T13:04:15.000Z</time>
      </trkpt>
      <trkpt lat="44.81169" lon="0.79402">
        <ele>213.7</ele>
        <time>2026-05-02T13:04:16.000Z</time>
      </trkpt>
      <trkpt lat="44.81169" lon="0.79405">
        <ele>213.3</ele>
        <time>2026-05-02T13:04:17.000Z</time>
      </trkpt>
      <trkpt lat="44.81169" lon="0.79408">
        <ele>214</ele>
        <time>2026-05-02T13:04:18.000Z</time>
      </trkpt>
      <trkpt lat="44.81169" lon="0.79411">
        <ele>214.6</ele>
        <time>2026-05-02T13:04:19.000Z</time>
      </trkpt>
      <trkpt lat="44.81169" lon="0.79413">
        <ele>215.2</ele>
        <time>2026-05-02T13:04:20.000Z</time>
      </trkpt>
      <trkpt lat="44.8117" lon="0.79415">
        <ele>215.8</ele>
        <time>2026-05-02T13:04:21.000Z</time>
      </trkpt>
      <trkpt lat="44.81172" lon="0.79416">
        <ele>215.5</ele>
        <time>2026-05-02T13:04:22.000Z</time>
      </trkpt>
      <trkpt lat="44.81173" lon="0.79417">
        <ele>215.3</ele>
        <time>2026-05-02T13:04:23.000Z</time>
      </trkpt>
      <trkpt lat="44.81175" lon="0.79418">
        <ele>216.3</ele>
        <time>2026-05-02T13:04:24.000Z</time>
      </trkpt>
      <trkpt lat="44.81175" lon="0.79419">
        <ele>215.1</ele>
        <time>2026-05-02T13:04:25.000Z</time>
      </trkpt>
      <trkpt lat="44.81176" lon="0.7942">
        <ele>214.9</ele>
        <time>2026-05-02T13:04:26.000Z</time>
      </trkpt>
      <trkpt lat="44.81177" lon="0.79421">
        <ele>214.9</ele>
        <time>2026-05-02T13:04:27.000Z</time>
      </trkpt>
      <trkpt lat="44.81177" lon="0.79423">
        <ele>214.9</ele>
        <time>2026-05-02T13:04:28.000Z</time>
      </trkpt>
      <trkpt lat="44.81178" lon="0.79424">
        <ele>214.1</ele>
        <time>2026-05-02T13:04:29.000Z</time>
      </trkpt>
      <trkpt lat="44.81179" lon="0.79426">
        <ele>215.2</ele>
        <time>2026-05-02T13:04:30.000Z</time>
      </trkpt>
      <trkpt lat="44.8118" lon="0.79428">
        <ele>215.1</ele>
        <time>2026-05-02T13:04:31.000Z</time>
      </trkpt>
      <trkpt lat="44.81181" lon="0.79429">
        <ele>214.5</ele>
        <time>2026-05-02T13:04:32.000Z</time>
      </trkpt>
      <trkpt lat="44.81183" lon="0.79431">
        <ele>214.2</ele>
        <time>2026-05-02T13:04:33.000Z</time>
      </trkpt>
      <trkpt lat="44.81184" lon="0.79432">
        <ele>214.2</ele>
        <time>2026-05-02T13:04:34.000Z</time>
      </trkpt>
      <trkpt lat="44.81186" lon="0.79434">
        <ele>214.3</ele>
        <time>2026-05-02T13:04:35.000Z</time>
      </trkpt>
      <trkpt lat="44.81187" lon="0.79435">
        <ele>214.4</ele>
        <time>2026-05-02T13:04:36.000Z</time>
      </trkpt>
      <trkpt lat="44.81189" lon="0.79436">
        <ele>215.5</ele>
        <time>2026-05-02T13:04:37.000Z</time>
      </trkpt>
      <trkpt lat="44.8119" lon="0.79438">
        <ele>215.9</ele>
        <time>2026-05-02T13:04:38.000Z</time>
      </trkpt>
      <trkpt lat="44.81191" lon="0.79439">
        <ele>216.7</ele>
        <time>2026-05-02T13:04:39.000Z</time>
      </trkpt>
      <trkpt lat="44.81193" lon="0.79441">
        <ele>217.7</ele>
        <time>2026-05-02T13:04:40.000Z</time>
      </trkpt>
      <trkpt lat="44.81194" lon="0.79443">
        <ele>217.3</ele>
        <time>2026-05-02T13:04:41.000Z</time>
      </trkpt>
      <trkpt lat="44.81195" lon="0.79444">
        <ele>217.5</ele>
        <time>2026-05-02T13:04:42.000Z</time>
      </trkpt>
      <trkpt lat="44.81196" lon="0.79445">
        <ele>217.3</ele>
        <time>2026-05-02T13:04:43.000Z</time>
      </trkpt>
      <trkpt lat="44.81197" lon="0.79447">
        <ele>217.3</ele>
        <time>2026-05-02T13:04:44.000Z</time>
      </trkpt>
      <trkpt lat="44.81198" lon="0.79448">
        <ele>216.8</ele>
        <time>2026-05-02T13:04:45.000Z</time>
      </trkpt>
      <trkpt lat="44.81199" lon="0.7945">
        <ele>216.4</ele>
        <time>2026-05-02T13:04:46.000Z</time>
      </trkpt>
      <trkpt lat="44.81199" lon="0.79452">
        <ele>215.4</ele>
        <time>2026-05-02T13:04:47.000Z</time>
      </trkpt>
      <trkpt lat="44.812" lon="0.79454">
        <ele>215.1</ele>
        <time>2026-05-02T13:04:48.000Z</time>
      </trkpt>
      <trkpt lat="44.81201" lon="0.79455">
        <ele>215.5</ele>
        <time>2026-05-02T13:04:49.000Z</time>
      </trkpt>
      <trkpt lat="44.81202" lon="0.79456">
        <ele>215.8</ele>
        <time>2026-05-02T13:04:50.000Z</time>
      </trkpt>
      <trkpt lat="44.81204" lon="0.79457">
        <ele>215.8</ele>
        <time>2026-05-02T13:04:51.000Z</time>
      </trkpt>
      <trkpt lat="44.81205" lon="0.79459">
        <ele>215.5</ele>
        <time>2026-05-02T13:04:52.000Z</time>
      </trkpt>
      <trkpt lat="44.81207" lon="0.79461">
        <ele>215.5</ele>
        <time>2026-05-02T13:04:53.000Z</time>
      </trkpt>
      <trkpt lat="44.81208" lon="0.79462">
        <ele>215.3</ele>
        <time>2026-05-02T13:04:54.000Z</time>
      </trkpt>
      <trkpt lat="44.8121" lon="0.79463">
        <ele>215</ele>
        <time>2026-05-02T13:04:55.000Z</time>
      </trkpt>
      <trkpt lat="44.81212" lon="0.79465">
        <ele>215.3</ele>
        <time>2026-05-02T13:04:56.000Z</time>
      </trkpt>
      <trkpt lat="44.81213" lon="0.79466">
        <ele>215.3</ele>
        <time>2026-05-02T13:04:57.000Z</time>
      </trkpt>
      <trkpt lat="44.81214" lon="0.79467">
        <ele>215.9</ele>
        <time>2026-05-02T13:04:58.000Z</time>
      </trkpt>
      <trkpt lat="44.81216" lon="0.79468">
        <ele>216.4</ele>
        <time>2026-05-02T13:04:59.000Z</time>
      </trkpt>
      <trkpt lat="44.81217" lon="0.79469">
        <ele>216.1</ele>
        <time>2026-05-02T13:05:00.000Z</time>
      </trkpt>
      <trkpt lat="44.81218" lon="0.7947">
        <ele>216</ele>
        <time>2026-05-02T13:05:01.000Z</time>
      </trkpt>
      <trkpt lat="44.81219" lon="0.79471">
        <ele>215.4</ele>
        <time>2026-05-02T13:05:02.000Z</time>
      </trkpt>
      <trkpt lat="44.8122" lon="0.79471">
        <ele>214.5</ele>
        <time>2026-05-02T13:05:03.000Z</time>
      </trkpt>
      <trkpt lat="44.81222" lon="0.79473">
        <ele>214.7</ele>
        <time>2026-05-02T13:05:04.000Z</time>
      </trkpt>
      <trkpt lat="44.81223" lon="0.79474">
        <ele>214.4</ele>
        <time>2026-05-02T13:05:05.000Z</time>
      </trkpt>
      <trkpt lat="44.81224" lon="0.79475">
        <ele>214.7</ele>
        <time>2026-05-02T13:05:06.000Z</time>
      </trkpt>
      <trkpt lat="44.81226" lon="0.79476">
        <ele>215.4</ele>
        <time>2026-05-02T13:05:07.000Z</time>
      </trkpt>
      <trkpt lat="44.81228" lon="0.79477">
        <ele>215.4</ele>
        <time>2026-05-02T13:05:08.000Z</time>
      </trkpt>
      <trkpt lat="44.8123" lon="0.79478">
        <ele>215.5</ele>
        <time>2026-05-02T13:05:09.000Z</time>
      </trkpt>
      <trkpt lat="44.81231" lon="0.7948">
        <ele>215.4</ele>
        <time>2026-05-02T13:05:10.000Z</time>
      </trkpt>
      <trkpt lat="44.81232" lon="0.79483">
        <ele>214</ele>
        <time>2026-05-02T13:05:11.000Z</time>
      </trkpt>
      <trkpt lat="44.81233" lon="0.79486">
        <ele>213.9</ele>
        <time>2026-05-02T13:05:12.000Z</time>
      </trkpt>
      <trkpt lat="44.81234" lon="0.79488">
        <ele>212.6</ele>
        <time>2026-05-02T13:05:13.000Z</time>
      </trkpt>
      <trkpt lat="44.81235" lon="0.79489">
        <ele>212</ele>
        <time>2026-05-02T13:05:14.000Z</time>
      </trkpt>
      <trkpt lat="44.81236" lon="0.79491">
        <ele>212.1</ele>
        <time>2026-05-02T13:05:15.000Z</time>
      </trkpt>
      <trkpt lat="44.81237" lon="0.79492">
        <ele>212.4</ele>
        <time>2026-05-02T13:05:16.000Z</time>
      </trkpt>
      <trkpt lat="44.81238" lon="0.79494">
        <ele>211.4</ele>
        <time>2026-05-02T13:05:17.000Z</time>
      </trkpt>
      <trkpt lat="44.81239" lon="0.79496">
        <ele>211.4</ele>
        <time>2026-05-02T13:05:18.000Z</time>
      </trkpt>
      <trkpt lat="44.8124" lon="0.79498">
        <ele>211.5</ele>
        <time>2026-05-02T13:05:19.000Z</time>
      </trkpt>
      <trkpt lat="44.81242" lon="0.795">
        <ele>211.2</ele>
        <time>2026-05-02T13:05:20.000Z</time>
      </trkpt>
      <trkpt lat="44.81243" lon="0.79501">
        <ele>210.5</ele>
        <time>2026-05-02T13:05:21.000Z</time>
      </trkpt>
      <trkpt lat="44.81244" lon="0.79502">
        <ele>209.5</ele>
        <time>2026-05-02T13:05:22.000Z</time>
      </trkpt>
      <trkpt lat="44.81245" lon="0.79503">
        <ele>209.3</ele>
        <time>2026-05-02T13:05:23.000Z</time>
      </trkpt>
      <trkpt lat="44.81246" lon="0.79504">
        <ele>208.9</ele>
        <time>2026-05-02T13:05:24.000Z</time>
      </trkpt>
      <trkpt lat="44.81247" lon="0.79505">
        <ele>209.2</ele>
        <time>2026-05-02T13:05:25.000Z</time>
      </trkpt>
      <trkpt lat="44.81248" lon="0.79506">
        <ele>208.7</ele>
        <time>2026-05-02T13:05:26.000Z</time>
      </trkpt>
      <trkpt lat="44.8125" lon="0.79508">
        <ele>208.7</ele>
        <time>2026-05-02T13:05:27.000Z</time>
      </trkpt>
      <trkpt lat="44.8125" lon="0.79509">
        <ele>208.7</ele>
        <time>2026-05-02T13:05:28.000Z</time>
      </trkpt>
      <trkpt lat="44.81251" lon="0.7951">
        <ele>210.7</ele>
        <time>2026-05-02T13:05:29.000Z</time>
      </trkpt>
      <trkpt lat="44.81253" lon="0.79511">
        <ele>210.9</ele>
        <time>2026-05-02T13:05:30.000Z</time>
      </trkpt>
      <trkpt lat="44.81254" lon="0.79513">
        <ele>210.8</ele>
        <time>2026-05-02T13:05:31.000Z</time>
      </trkpt>
      <trkpt lat="44.81255" lon="0.79514">
        <ele>210.9</ele>
        <time>2026-05-02T13:05:32.000Z</time>
      </trkpt>
      <trkpt lat="44.81256" lon="0.79516">
        <ele>209.7</ele>
        <time>2026-05-02T13:05:33.000Z</time>
      </trkpt>
      <trkpt lat="44.81257" lon="0.79518">
        <ele>209.1</ele>
        <time>2026-05-02T13:05:34.000Z</time>
      </trkpt>
      <trkpt lat="44.81258" lon="0.79519">
        <ele>209.5</ele>
        <time>2026-05-02T13:05:35.000Z</time>
      </trkpt>
      <trkpt lat="44.81259" lon="0.7952">
        <ele>211.3</ele>
        <time>2026-05-02T13:05:36.000Z</time>
      </trkpt>
      <trkpt lat="44.81261" lon="0.79521">
        <ele>212.8</ele>
        <time>2026-05-02T13:05:37.000Z</time>
      </trkpt>
      <trkpt lat="44.81263" lon="0.79522">
        <ele>212.1</ele>
        <time>2026-05-02T13:05:38.000Z</time>
      </trkpt>
      <trkpt lat="44.81265" lon="0.79522">
        <ele>211.2</ele>
        <time>2026-05-02T13:05:39.000Z</time>
      </trkpt>
      <trkpt lat="44.81267" lon="0.79524">
        <ele>211.5</ele>
        <time>2026-05-02T13:05:40.000Z</time>
      </trkpt>
      <trkpt lat="44.81269" lon="0.79525">
        <ele>211.9</ele>
        <time>2026-05-02T13:05:41.000Z</time>
      </trkpt>
      <trkpt lat="44.8127" lon="0.79527">
        <ele>211.9</ele>
        <time>2026-05-02T13:05:42.000Z</time>
      </trkpt>
      <trkpt lat="44.81271" lon="0.79528">
        <ele>212.1</ele>
        <time>2026-05-02T13:05:43.000Z</time>
      </trkpt>
      <trkpt lat="44.81273" lon="0.7953">
        <ele>212.5</ele>
        <time>2026-05-02T13:05:44.000Z</time>
      </trkpt>
      <trkpt lat="44.81274" lon="0.79532">
        <ele>212.1</ele>
        <time>2026-05-02T13:05:45.000Z</time>
      </trkpt>
      <trkpt lat="44.81275" lon="0.79533">
        <ele>211.9</ele>
        <time>2026-05-02T13:05:46.000Z</time>
      </trkpt>
      <trkpt lat="44.81276" lon="0.79535">
        <ele>211.9</ele>
        <time>2026-05-02T13:05:47.000Z</time>
      </trkpt>
      <trkpt lat="44.81277" lon="0.79537">
        <ele>212</ele>
        <time>2026-05-02T13:05:48.000Z</time>
      </trkpt>
      <trkpt lat="44.81278" lon="0.79539">
        <ele>212.2</ele>
        <time>2026-05-02T13:05:49.000Z</time>
      </trkpt>
      <trkpt lat="44.81278" lon="0.79541">
        <ele>211.9</ele>
        <time>2026-05-02T13:05:50.000Z</time>
      </trkpt>
      <trkpt lat="44.81279" lon="0.79544">
        <ele>211.6</ele>
        <time>2026-05-02T13:05:51.000Z</time>
      </trkpt>
      <trkpt lat="44.8128" lon="0.79546">
        <ele>211.6</ele>
        <time>2026-05-02T13:05:52.000Z</time>
      </trkpt>
      <trkpt lat="44.81281" lon="0.79548">
        <ele>211.9</ele>
        <time>2026-05-02T13:05:53.000Z</time>
      </trkpt>
      <trkpt lat="44.81281" lon="0.7955">
        <ele>211.8</ele>
        <time>2026-05-02T13:05:54.000Z</time>
      </trkpt>
      <trkpt lat="44.81282" lon="0.79553">
        <ele>212.1</ele>
        <time>2026-05-02T13:05:55.000Z</time>
      </trkpt>
      <trkpt lat="44.81283" lon="0.79555">
        <ele>212.1</ele>
        <time>2026-05-02T13:05:56.000Z</time>
      </trkpt>
      <trkpt lat="44.81284" lon="0.79557">
        <ele>212.7</ele>
        <time>2026-05-02T13:05:57.000Z</time>
      </trkpt>
      <trkpt lat="44.81285" lon="0.79559">
        <ele>212.9</ele>
        <time>2026-05-02T13:05:58.000Z</time>
      </trkpt>
      <trkpt lat="44.81286" lon="0.7956">
        <ele>213.2</ele>
        <time>2026-05-02T13:05:59.000Z</time>
      </trkpt>
      <trkpt lat="44.81287" lon="0.79562">
        <ele>213.2</ele>
        <time>2026-05-02T13:06:00.000Z</time>
      </trkpt>
      <trkpt lat="44.81288" lon="0.79564">
        <ele>213.7</ele>
        <time>2026-05-02T13:06:01.000Z</time>
      </trkpt>
      <trkpt lat="44.81289" lon="0.79566">
        <ele>213.9</ele>
        <time>2026-05-02T13:06:02.000Z</time>
      </trkpt>
      <trkpt lat="44.81289" lon="0.79568">
        <ele>213.1</ele>
        <time>2026-05-02T13:06:03.000Z</time>
      </trkpt>
      <trkpt lat="44.8129" lon="0.7957">
        <ele>213.7</ele>
        <time>2026-05-02T13:06:04.000Z</time>
      </trkpt>
      <trkpt lat="44.81291" lon="0.79572">
        <ele>213.4</ele>
        <time>2026-05-02T13:06:05.000Z</time>
      </trkpt>
      <trkpt lat="44.81292" lon="0.79574">
        <ele>213.5</ele>
        <time>2026-05-02T13:06:06.000Z</time>
      </trkpt>
      <trkpt lat="44.81293" lon="0.79576">
        <ele>213.3</ele>
        <time>2026-05-02T13:06:07.000Z</time>
      </trkpt>
      <trkpt lat="44.81294" lon="0.79578">
        <ele>213.1</ele>
        <time>2026-05-02T13:06:08.000Z</time>
      </trkpt>
      <trkpt lat="44.81295" lon="0.7958">
        <ele>213.2</ele>
        <time>2026-05-02T13:06:09.000Z</time>
      </trkpt>
      <trkpt lat="44.81296" lon="0.79582">
        <ele>213.2</ele>
        <time>2026-05-02T13:06:10.000Z</time>
      </trkpt>
      <trkpt lat="44.81298" lon="0.79584">
        <ele>213.2</ele>
        <time>2026-05-02T13:06:11.000Z</time>
      </trkpt>
      <trkpt lat="44.81299" lon="0.79585">
        <ele>213.5</ele>
        <time>2026-05-02T13:06:12.000Z</time>
      </trkpt>
      <trkpt lat="44.813" lon="0.79587">
        <ele>213.5</ele>
        <time>2026-05-02T13:06:13.000Z</time>
      </trkpt>
      <trkpt lat="44.81301" lon="0.79589">
        <ele>214</ele>
        <time>2026-05-02T13:06:14.000Z</time>
      </trkpt>
      <trkpt lat="44.81302" lon="0.7959">
        <ele>213.9</ele>
        <time>2026-05-02T13:06:15.000Z</time>
      </trkpt>
      <trkpt lat="44.81304" lon="0.79592">
        <ele>214.4</ele>
        <time>2026-05-02T13:06:16.000Z</time>
      </trkpt>
      <trkpt lat="44.81305" lon="0.79593">
        <ele>214.5</ele>
        <time>2026-05-02T13:06:17.000Z</time>
      </trkpt>
      <trkpt lat="44.81307" lon="0.79595">
        <ele>214.4</ele>
        <time>2026-05-02T13:06:18.000Z</time>
      </trkpt>
      <trkpt lat="44.81309" lon="0.79596">
        <ele>214.5</ele>
        <time>2026-05-02T13:06:19.000Z</time>
      </trkpt>
      <trkpt lat="44.8131" lon="0.79598">
        <ele>214.7</ele>
        <time>2026-05-02T13:06:20.000Z</time>
      </trkpt>
      <trkpt lat="44.81311" lon="0.796">
        <ele>215.2</ele>
        <time>2026-05-02T13:06:21.000Z</time>
      </trkpt>
      <trkpt lat="44.81313" lon="0.79601">
        <ele>215.6</ele>
        <time>2026-05-02T13:06:22.000Z</time>
      </trkpt>
      <trkpt lat="44.81314" lon="0.79603">
        <ele>215.5</ele>
        <time>2026-05-02T13:06:23.000Z</time>
      </trkpt>
      <trkpt lat="44.81315" lon="0.79604">
        <ele>215.6</ele>
        <time>2026-05-02T13:06:24.000Z</time>
      </trkpt>
      <trkpt lat="44.81317" lon="0.79605">
        <ele>215.8</ele>
        <time>2026-05-02T13:06:25.000Z</time>
      </trkpt>
      <trkpt lat="44.81319" lon="0.79606">
        <ele>215.6</ele>
        <time>2026-05-02T13:06:26.000Z</time>
      </trkpt>
      <trkpt lat="44.8132" lon="0.79607">
        <ele>215.6</ele>
        <time>2026-05-02T13:06:27.000Z</time>
      </trkpt>
      <trkpt lat="44.81322" lon="0.79608">
        <ele>215.8</ele>
        <time>2026-05-02T13:06:28.000Z</time>
      </trkpt>
      <trkpt lat="44.81323" lon="0.79609">
        <ele>215.7</ele>
        <time>2026-05-02T13:06:29.000Z</time>
      </trkpt>
      <trkpt lat="44.81325" lon="0.7961">
        <ele>215.9</ele>
        <time>2026-05-02T13:06:30.000Z</time>
      </trkpt>
      <trkpt lat="44.81326" lon="0.79611">
        <ele>215.8</ele>
        <time>2026-05-02T13:06:31.000Z</time>
      </trkpt>
      <trkpt lat="44.81328" lon="0.79611">
        <ele>215.9</ele>
        <time>2026-05-02T13:06:32.000Z</time>
      </trkpt>
      <trkpt lat="44.81329" lon="0.79612">
        <ele>216</ele>
        <time>2026-05-02T13:06:33.000Z</time>
      </trkpt>
      <trkpt lat="44.8133" lon="0.79613">
        <ele>216.3</ele>
        <time>2026-05-02T13:06:34.000Z</time>
      </trkpt>
      <trkpt lat="44.81332" lon="0.79614">
        <ele>216.5</ele>
        <time>2026-05-02T13:06:35.000Z</time>
      </trkpt>
      <trkpt lat="44.81333" lon="0.79614">
        <ele>216.7</ele>
        <time>2026-05-02T13:06:36.000Z</time>
      </trkpt>
      <trkpt lat="44.81335" lon="0.79615">
        <ele>216.7</ele>
        <time>2026-05-02T13:06:37.000Z</time>
      </trkpt>
      <trkpt lat="44.81336" lon="0.79616">
        <ele>216.7</ele>
        <time>2026-05-02T13:06:38.000Z</time>
      </trkpt>
      <trkpt lat="44.81338" lon="0.79617">
        <ele>216.9</ele>
        <time>2026-05-02T13:06:39.000Z</time>
      </trkpt>
      <trkpt lat="44.81339" lon="0.79617">
        <ele>217.1</ele>
        <time>2026-05-02T13:06:40.000Z</time>
      </trkpt>
      <trkpt lat="44.81341" lon="0.79618">
        <ele>217.2</ele>
        <time>2026-05-02T13:06:41.000Z</time>
      </trkpt>
      <trkpt lat="44.81343" lon="0.79619">
        <ele>217.4</ele>
        <time>2026-05-02T13:06:42.000Z</time>
      </trkpt>
      <trkpt lat="44.81344" lon="0.79619">
        <ele>217.5</ele>
        <time>2026-05-02T13:06:43.000Z</time>
      </trkpt>
      <trkpt lat="44.81346" lon="0.7962">
        <ele>217.5</ele>
        <time>2026-05-02T13:06:44.000Z</time>
      </trkpt>
      <trkpt lat="44.81347" lon="0.7962">
        <ele>217.4</ele>
        <time>2026-05-02T13:06:45.000Z</time>
      </trkpt>
      <trkpt lat="44.81349" lon="0.79621">
        <ele>217.4</ele>
        <time>2026-05-02T13:06:46.000Z</time>
      </trkpt>
      <trkpt lat="44.8135" lon="0.79621">
        <ele>217.4</ele>
        <time>2026-05-02T13:06:47.000Z</time>
      </trkpt>
      <trkpt lat="44.81352" lon="0.79622">
        <ele>217.6</ele>
        <time>2026-05-02T13:06:48.000Z</time>
      </trkpt>
      <trkpt lat="44.81353" lon="0.79622">
        <ele>217.7</ele>
        <time>2026-05-02T13:06:49.000Z</time>
      </trkpt>
      <trkpt lat="44.81355" lon="0.79623">
        <ele>217.6</ele>
        <time>2026-05-02T13:06:50.000Z</time>
      </trkpt>
      <trkpt lat="44.81356" lon="0.79624">
        <ele>217.6</ele>
        <time>2026-05-02T13:06:51.000Z</time>
      </trkpt>
      <trkpt lat="44.81358" lon="0.79624">
        <ele>217.7</ele>
        <time>2026-05-02T13:06:52.000Z</time>
      </trkpt>
      <trkpt lat="44.81359" lon="0.79625">
        <ele>217.4</ele>
        <time>2026-05-02T13:06:53.000Z</time>
      </trkpt>
      <trkpt lat="44.81361" lon="0.79625">
        <ele>217.4</ele>
        <time>2026-05-02T13:06:54.000Z</time>
      </trkpt>
      <trkpt lat="44.81362" lon="0.79626">
        <ele>217.5</ele>
        <time>2026-05-02T13:06:55.000Z</time>
      </trkpt>
      <trkpt lat="44.81364" lon="0.79627">
        <ele>217.4</ele>
        <time>2026-05-02T13:06:56.000Z</time>
      </trkpt>
      <trkpt lat="44.81366" lon="0.79627">
        <ele>217.5</ele>
        <time>2026-05-02T13:06:57.000Z</time>
      </trkpt>
      <trkpt lat="44.81367" lon="0.79628">
        <ele>217.5</ele>
        <time>2026-05-02T13:06:58.000Z</time>
      </trkpt>
      <trkpt lat="44.81369" lon="0.79628">
        <ele>217.7</ele>
        <time>2026-05-02T13:06:59.000Z</time>
      </trkpt>
      <trkpt lat="44.8137" lon="0.79629">
        <ele>217.5</ele>
        <time>2026-05-02T13:07:00.000Z</time>
      </trkpt>
      <trkpt lat="44.81372" lon="0.7963">
        <ele>217.5</ele>
        <time>2026-05-02T13:07:01.000Z</time>
      </trkpt>
      <trkpt lat="44.81373" lon="0.7963">
        <ele>217.6</ele>
        <time>2026-05-02T13:07:02.000Z</time>
      </trkpt>
      <trkpt lat="44.81375" lon="0.79631">
        <ele>217.7</ele>
        <time>2026-05-02T13:07:03.000Z</time>
      </trkpt>
      <trkpt lat="44.81376" lon="0.79632">
        <ele>217.5</ele>
        <time>2026-05-02T13:07:04.000Z</time>
      </trkpt>
      <trkpt lat="44.81378" lon="0.79632">
        <ele>216.8</ele>
        <time>2026-05-02T13:07:05.000Z</time>
      </trkpt>
      <trkpt lat="44.81379" lon="0.79632">
        <ele>217</ele>
        <time>2026-05-02T13:07:06.000Z</time>
      </trkpt>
      <trkpt lat="44.81381" lon="0.79632">
        <ele>217.7</ele>
        <time>2026-05-02T13:07:07.000Z</time>
      </trkpt>
      <trkpt lat="44.81382" lon="0.79633">
        <ele>217.4</ele>
        <time>2026-05-02T13:07:08.000Z</time>
      </trkpt>
      <trkpt lat="44.81383" lon="0.79633">
        <ele>217.5</ele>
        <time>2026-05-02T13:07:09.000Z</time>
      </trkpt>
      <trkpt lat="44.81385" lon="0.79634">
        <ele>216.9</ele>
        <time>2026-05-02T13:07:10.000Z</time>
      </trkpt>
      <trkpt lat="44.81387" lon="0.79634">
        <ele>217.3</ele>
        <time>2026-05-02T13:07:11.000Z</time>
      </trkpt>
      <trkpt lat="44.81388" lon="0.79634">
        <ele>216.8</ele>
        <time>2026-05-02T13:07:12.000Z</time>
      </trkpt>
      <trkpt lat="44.8139" lon="0.79634">
        <ele>216.7</ele>
        <time>2026-05-02T13:07:13.000Z</time>
      </trkpt>
      <trkpt lat="44.81392" lon="0.79635">
        <ele>217.2</ele>
        <time>2026-05-02T13:07:14.000Z</time>
      </trkpt>
      <trkpt lat="44.81394" lon="0.79635">
        <ele>217.4</ele>
        <time>2026-05-02T13:07:15.000Z</time>
      </trkpt>
      <trkpt lat="44.81395" lon="0.79636">
        <ele>217.9</ele>
        <time>2026-05-02T13:07:16.000Z</time>
      </trkpt>
      <trkpt lat="44.81396" lon="0.79637">
        <ele>217.8</ele>
        <time>2026-05-02T13:07:17.000Z</time>
      </trkpt>
      <trkpt lat="44.81398" lon="0.79637">
        <ele>218</ele>
        <time>2026-05-02T13:07:18.000Z</time>
      </trkpt>
      <trkpt lat="44.814" lon="0.79638">
        <ele>217.8</ele>
        <time>2026-05-02T13:07:19.000Z</time>
      </trkpt>
      <trkpt lat="44.81401" lon="0.79638">
        <ele>217.6</ele>
        <time>2026-05-02T13:07:20.000Z</time>
      </trkpt>
      <trkpt lat="44.81403" lon="0.79639">
        <ele>217.8</ele>
        <time>2026-05-02T13:07:21.000Z</time>
      </trkpt>
      <trkpt lat="44.81405" lon="0.79639">
        <ele>217.9</ele>
        <time>2026-05-02T13:07:22.000Z</time>
      </trkpt>
      <trkpt lat="44.81406" lon="0.7964">
        <ele>217.7</ele>
        <time>2026-05-02T13:07:23.000Z</time>
      </trkpt>
      <trkpt lat="44.81407" lon="0.79641">
        <ele>217.8</ele>
        <time>2026-05-02T13:07:24.000Z</time>
      </trkpt>
      <trkpt lat="44.81409" lon="0.79641">
        <ele>218</ele>
        <time>2026-05-02T13:07:25.000Z</time>
      </trkpt>
      <trkpt lat="44.81411" lon="0.79642">
        <ele>218.3</ele>
        <time>2026-05-02T13:07:26.000Z</time>
      </trkpt>
      <trkpt lat="44.81412" lon="0.79642">
        <ele>218.5</ele>
        <time>2026-05-02T13:07:27.000Z</time>
      </trkpt>
      <trkpt lat="44.81414" lon="0.79643">
        <ele>218.6</ele>
        <time>2026-05-02T13:07:28.000Z</time>
      </trkpt>
      <trkpt lat="44.81415" lon="0.79643">
        <ele>218.5</ele>
        <time>2026-05-02T13:07:29.000Z</time>
      </trkpt>
      <trkpt lat="44.81416" lon="0.79644">
        <ele>218.5</ele>
        <time>2026-05-02T13:07:30.000Z</time>
      </trkpt>
      <trkpt lat="44.81418" lon="0.79644">
        <ele>218.5</ele>
        <time>2026-05-02T13:07:31.000Z</time>
      </trkpt>
      <trkpt lat="44.81419" lon="0.79644">
        <ele>218.6</ele>
        <time>2026-05-02T13:07:32.000Z</time>
      </trkpt>
      <trkpt lat="44.8142" lon="0.79645">
        <ele>218.5</ele>
        <time>2026-05-02T13:07:33.000Z</time>
      </trkpt>
      <trkpt lat="44.81422" lon="0.79645">
        <ele>218.8</ele>
        <time>2026-05-02T13:07:34.000Z</time>
      </trkpt>
      <trkpt lat="44.81423" lon="0.79646">
        <ele>219.1</ele>
        <time>2026-05-02T13:07:35.000Z</time>
      </trkpt>
      <trkpt lat="44.81425" lon="0.79647">
        <ele>219.3</ele>
        <time>2026-05-02T13:07:36.000Z</time>
      </trkpt>
      <trkpt lat="44.81427" lon="0.79647">
        <ele>219.5</ele>
        <time>2026-05-02T13:07:37.000Z</time>
      </trkpt>
      <trkpt lat="44.81428" lon="0.79648">
        <ele>219.7</ele>
        <time>2026-05-02T13:07:38.000Z</time>
      </trkpt>
      <trkpt lat="44.8143" lon="0.79649">
        <ele>219.8</ele>
        <time>2026-05-02T13:07:39.000Z</time>
      </trkpt>
      <trkpt lat="44.81432" lon="0.79649">
        <ele>219.9</ele>
        <time>2026-05-02T13:07:40.000Z</time>
      </trkpt>
      <trkpt lat="44.81433" lon="0.7965">
        <ele>219.9</ele>
        <time>2026-05-02T13:07:41.000Z</time>
      </trkpt>
      <trkpt lat="44.81435" lon="0.79651">
        <ele>220</ele>
        <time>2026-05-02T13:07:42.000Z</time>
      </trkpt>
      <trkpt lat="44.81436" lon="0.79651">
        <ele>220.3</ele>
        <time>2026-05-02T13:07:43.000Z</time>
      </trkpt>
      <trkpt lat="44.81438" lon="0.79652">
        <ele>220.5</ele>
        <time>2026-05-02T13:07:44.000Z</time>
      </trkpt>
      <trkpt lat="44.8144" lon="0.79653">
        <ele>220.5</ele>
        <time>2026-05-02T13:07:45.000Z</time>
      </trkpt>
      <trkpt lat="44.81441" lon="0.79653">
        <ele>220.4</ele>
        <time>2026-05-02T13:07:46.000Z</time>
      </trkpt>
      <trkpt lat="44.81443" lon="0.79654">
        <ele>220.4</ele>
        <time>2026-05-02T13:07:47.000Z</time>
      </trkpt>
      <trkpt lat="44.81444" lon="0.79655">
        <ele>220.3</ele>
        <time>2026-05-02T13:07:48.000Z</time>
      </trkpt>
      <trkpt lat="44.81446" lon="0.79656">
        <ele>220.4</ele>
        <time>2026-05-02T13:07:49.000Z</time>
      </trkpt>
      <trkpt lat="44.81447" lon="0.79657">
        <ele>220.2</ele>
        <time>2026-05-02T13:07:50.000Z</time>
      </trkpt>
      <trkpt lat="44.81449" lon="0.79657">
        <ele>220.4</ele>
        <time>2026-05-02T13:07:51.000Z</time>
      </trkpt>
      <trkpt lat="44.8145" lon="0.79658">
        <ele>220.3</ele>
        <time>2026-05-02T13:07:52.000Z</time>
      </trkpt>
      <trkpt lat="44.81452" lon="0.79659">
        <ele>220.5</ele>
        <time>2026-05-02T13:07:53.000Z</time>
      </trkpt>
      <trkpt lat="44.81453" lon="0.7966">
        <ele>220.7</ele>
        <time>2026-05-02T13:07:54.000Z</time>
      </trkpt>
      <trkpt lat="44.81455" lon="0.79661">
        <ele>220.8</ele>
        <time>2026-05-02T13:07:55.000Z</time>
      </trkpt>
      <trkpt lat="44.81456" lon="0.79662">
        <ele>221</ele>
        <time>2026-05-02T13:07:56.000Z</time>
      </trkpt>
      <trkpt lat="44.81457" lon="0.79663">
        <ele>220.9</ele>
        <time>2026-05-02T13:07:57.000Z</time>
      </trkpt>
      <trkpt lat="44.81459" lon="0.79665">
        <ele>220.6</ele>
        <time>2026-05-02T13:07:58.000Z</time>
      </trkpt>
      <trkpt lat="44.8146" lon="0.79666">
        <ele>220.8</ele>
        <time>2026-05-02T13:07:59.000Z</time>
      </trkpt>
      <trkpt lat="44.81461" lon="0.79668">
        <ele>220.9</ele>
        <time>2026-05-02T13:08:00.000Z</time>
      </trkpt>
      <trkpt lat="44.81462" lon="0.7967">
        <ele>221.2</ele>
        <time>2026-05-02T13:08:01.000Z</time>
      </trkpt>
      <trkpt lat="44.81463" lon="0.79671">
        <ele>220.9</ele>
        <time>2026-05-02T13:08:02.000Z</time>
      </trkpt>
      <trkpt lat="44.81464" lon="0.79673">
        <ele>221</ele>
        <time>2026-05-02T13:08:03.000Z</time>
      </trkpt>
      <trkpt lat="44.81465" lon="0.79674">
        <ele>220.8</ele>
        <time>2026-05-02T13:08:04.000Z</time>
      </trkpt>
      <trkpt lat="44.81467" lon="0.79675">
        <ele>220.9</ele>
        <time>2026-05-02T13:08:05.000Z</time>
      </trkpt>
      <trkpt lat="44.81468" lon="0.79677">
        <ele>221.1</ele>
        <time>2026-05-02T13:08:06.000Z</time>
      </trkpt>
      <trkpt lat="44.81468" lon="0.79679">
        <ele>221.5</ele>
        <time>2026-05-02T13:08:07.000Z</time>
      </trkpt>
      <trkpt lat="44.81469" lon="0.79681">
        <ele>221.3</ele>
        <time>2026-05-02T13:08:08.000Z</time>
      </trkpt>
      <trkpt lat="44.8147" lon="0.79683">
        <ele>221.3</ele>
        <time>2026-05-02T13:08:09.000Z</time>
      </trkpt>
      <trkpt lat="44.8147" lon="0.79685">
        <ele>221.6</ele>
        <time>2026-05-02T13:08:10.000Z</time>
      </trkpt>
      <trkpt lat="44.81471" lon="0.79687">
        <ele>221.8</ele>
        <time>2026-05-02T13:08:11.000Z</time>
      </trkpt>
      <trkpt lat="44.81472" lon="0.79689">
        <ele>222</ele>
        <time>2026-05-02T13:08:12.000Z</time>
      </trkpt>
      <trkpt lat="44.81472" lon="0.79691">
        <ele>222.7</ele>
        <time>2026-05-02T13:08:13.000Z</time>
      </trkpt>
      <trkpt lat="44.81472" lon="0.79693">
        <ele>222.9</ele>
        <time>2026-05-02T13:08:14.000Z</time>
      </trkpt>
      <trkpt lat="44.81472" lon="0.79696">
        <ele>223.2</ele>
        <time>2026-05-02T13:08:15.000Z</time>
      </trkpt>
      <trkpt lat="44.81472" lon="0.79698">
        <ele>223.4</ele>
        <time>2026-05-02T13:08:16.000Z</time>
      </trkpt>
      <trkpt lat="44.81472" lon="0.797">
        <ele>223.2</ele>
        <time>2026-05-02T13:08:17.000Z</time>
      </trkpt>
      <trkpt lat="44.81472" lon="0.79702">
        <ele>223.3</ele>
        <time>2026-05-02T13:08:18.000Z</time>
      </trkpt>
      <trkpt lat="44.81473" lon="0.79704">
        <ele>223.4</ele>
        <time>2026-05-02T13:08:19.000Z</time>
      </trkpt>
      <trkpt lat="44.81473" lon="0.79706">
        <ele>223.4</ele>
        <time>2026-05-02T13:08:20.000Z</time>
      </trkpt>
      <trkpt lat="44.81473" lon="0.79709">
        <ele>223.5</ele>
        <time>2026-05-02T13:08:21.000Z</time>
      </trkpt>
      <trkpt lat="44.81473" lon="0.79711">
        <ele>223.6</ele>
        <time>2026-05-02T13:08:22.000Z</time>
      </trkpt>
      <trkpt lat="44.81472" lon="0.79713">
        <ele>223.7</ele>
        <time>2026-05-02T13:08:23.000Z</time>
      </trkpt>
      <trkpt lat="44.81472" lon="0.79715">
        <ele>223.8</ele>
        <time>2026-05-02T13:08:24.000Z</time>
      </trkpt>
      <trkpt lat="44.81472" lon="0.79717">
        <ele>223.9</ele>
        <time>2026-05-02T13:08:25.000Z</time>
      </trkpt>
      <trkpt lat="44.81472" lon="0.79719">
        <ele>223.9</ele>
        <time>2026-05-02T13:08:26.000Z</time>
      </trkpt>
      <trkpt lat="44.81472" lon="0.79721">
        <ele>223.8</ele>
        <time>2026-05-02T13:08:27.000Z</time>
      </trkpt>
      <trkpt lat="44.81472" lon="0.79724">
        <ele>224</ele>
        <time>2026-05-02T13:08:28.000Z</time>
      </trkpt>
      <trkpt lat="44.81472" lon="0.79726">
        <ele>224</ele>
        <time>2026-05-02T13:08:29.000Z</time>
      </trkpt>
      <trkpt lat="44.81472" lon="0.79728">
        <ele>224.4</ele>
        <time>2026-05-02T13:08:30.000Z</time>
      </trkpt>
      <trkpt lat="44.81472" lon="0.7973">
        <ele>224.5</ele>
        <time>2026-05-02T13:08:31.000Z</time>
      </trkpt>
      <trkpt lat="44.81472" lon="0.79732">
        <ele>224.7</ele>
        <time>2026-05-02T13:08:32.000Z</time>
      </trkpt>
      <trkpt lat="44.81472" lon="0.79734">
        <ele>224.5</ele>
        <time>2026-05-02T13:08:33.000Z</time>
      </trkpt>
      <trkpt lat="44.81472" lon="0.79736">
        <ele>224.4</ele>
        <time>2026-05-02T13:08:34.000Z</time>
      </trkpt>
      <trkpt lat="44.81472" lon="0.79739">
        <ele>224.3</ele>
        <time>2026-05-02T13:08:35.000Z</time>
      </trkpt>
      <trkpt lat="44.81472" lon="0.79741">
        <ele>224.5</ele>
        <time>2026-05-02T13:08:36.000Z</time>
      </trkpt>
      <trkpt lat="44.81472" lon="0.79743">
        <ele>224.4</ele>
        <time>2026-05-02T13:08:37.000Z</time>
      </trkpt>
      <trkpt lat="44.81472" lon="0.79746">
        <ele>224.4</ele>
        <time>2026-05-02T13:08:38.000Z</time>
      </trkpt>
      <trkpt lat="44.81472" lon="0.79748">
        <ele>224.5</ele>
        <time>2026-05-02T13:08:39.000Z</time>
      </trkpt>
      <trkpt lat="44.81473" lon="0.7975">
        <ele>224.9</ele>
        <time>2026-05-02T13:08:40.000Z</time>
      </trkpt>
      <trkpt lat="44.81473" lon="0.79752">
        <ele>224.7</ele>
        <time>2026-05-02T13:08:41.000Z</time>
      </trkpt>
      <trkpt lat="44.81473" lon="0.79754">
        <ele>224.6</ele>
        <time>2026-05-02T13:08:42.000Z</time>
      </trkpt>
      <trkpt lat="44.81473" lon="0.79756">
        <ele>224.5</ele>
        <time>2026-05-02T13:08:43.000Z</time>
      </trkpt>
      <trkpt lat="44.81473" lon="0.79758">
        <ele>224.1</ele>
        <time>2026-05-02T13:08:44.000Z</time>
      </trkpt>
      <trkpt lat="44.81473" lon="0.7976">
        <ele>224</ele>
        <time>2026-05-02T13:08:45.000Z</time>
      </trkpt>
      <trkpt lat="44.81473" lon="0.79762">
        <ele>223.9</ele>
        <time>2026-05-02T13:08:46.000Z</time>
      </trkpt>
      <trkpt lat="44.81473" lon="0.79764">
        <ele>223.8</ele>
        <time>2026-05-02T13:08:47.000Z</time>
      </trkpt>
      <trkpt lat="44.81473" lon="0.79767">
        <ele>223.8</ele>
        <time>2026-05-02T13:08:48.000Z</time>
      </trkpt>
      <trkpt lat="44.81473" lon="0.79769">
        <ele>223.9</ele>
        <time>2026-05-02T13:08:49.000Z</time>
      </trkpt>
      <trkpt lat="44.81474" lon="0.79771">
        <ele>223.9</ele>
        <time>2026-05-02T13:08:50.000Z</time>
      </trkpt>
      <trkpt lat="44.81474" lon="0.79773">
        <ele>223.5</ele>
        <time>2026-05-02T13:08:51.000Z</time>
      </trkpt>
      <trkpt lat="44.81475" lon="0.79775">
        <ele>223.7</ele>
        <time>2026-05-02T13:08:52.000Z</time>
      </trkpt>
      <trkpt lat="44.81474" lon="0.79779">
        <ele>223.6</ele>
        <time>2026-05-02T13:08:53.000Z</time>
      </trkpt>
      <trkpt lat="44.81471" lon="0.7978">
        <ele>223.9</ele>
        <time>2026-05-02T13:08:54.000Z</time>
      </trkpt>
      <trkpt lat="44.81469" lon="0.79779">
        <ele>223.5</ele>
        <time>2026-05-02T13:08:55.000Z</time>
      </trkpt>
      <trkpt lat="44.81469" lon="0.79779">
        <ele>223.4</ele>
        <time>2026-05-02T13:08:56.000Z</time>
      </trkpt>
      <trkpt lat="44.81468" lon="0.79779">
        <ele>222.6</ele>
        <time>2026-05-02T13:08:57.000Z</time>
      </trkpt>
      <trkpt lat="44.81467" lon="0.79779">
        <ele>222.5</ele>
        <time>2026-05-02T13:08:58.000Z</time>
      </trkpt>
      <trkpt lat="44.81468" lon="0.7978">
        <ele>222.7</ele>
        <time>2026-05-02T13:08:59.000Z</time>
      </trkpt>
      <trkpt lat="44.81468" lon="0.79782">
        <ele>223.1</ele>
        <time>2026-05-02T13:09:00.000Z</time>
      </trkpt>
      <trkpt lat="44.81469" lon="0.79784">
        <ele>223.6</ele>
        <time>2026-05-02T13:09:01.000Z</time>
      </trkpt>
      <trkpt lat="44.81469" lon="0.79786">
        <ele>223.9</ele>
        <time>2026-05-02T13:09:02.000Z</time>
      </trkpt>
      <trkpt lat="44.81466" lon="0.79789">
        <ele>223.9</ele>
        <time>2026-05-02T13:09:03.000Z</time>
      </trkpt>
      <trkpt lat="44.81467" lon="0.79791">
        <ele>224.4</ele>
        <time>2026-05-02T13:09:04.000Z</time>
      </trkpt>
      <trkpt lat="44.81469" lon="0.79794">
        <ele>224.3</ele>
        <time>2026-05-02T13:09:05.000Z</time>
      </trkpt>
      <trkpt lat="44.8147" lon="0.79796">
        <ele>224.4</ele>
        <time>2026-05-02T13:09:06.000Z</time>
      </trkpt>
      <trkpt lat="44.81471" lon="0.79798">
        <ele>224.2</ele>
        <time>2026-05-02T13:09:07.000Z</time>
      </trkpt>
      <trkpt lat="44.81472" lon="0.798">
        <ele>224.2</ele>
        <time>2026-05-02T13:09:08.000Z</time>
      </trkpt>
      <trkpt lat="44.81473" lon="0.79802">
        <ele>224.3</ele>
        <time>2026-05-02T13:09:09.000Z</time>
      </trkpt>
      <trkpt lat="44.81473" lon="0.79804">
        <ele>224.1</ele>
        <time>2026-05-02T13:09:10.000Z</time>
      </trkpt>
      <trkpt lat="44.81474" lon="0.79806">
        <ele>223.5</ele>
        <time>2026-05-02T13:09:11.000Z</time>
      </trkpt>
      <trkpt lat="44.81474" lon="0.79808">
        <ele>223.3</ele>
        <time>2026-05-02T13:09:12.000Z</time>
      </trkpt>
      <trkpt lat="44.81475" lon="0.7981">
        <ele>223.3</ele>
        <time>2026-05-02T13:09:13.000Z</time>
      </trkpt>
      <trkpt lat="44.81476" lon="0.79812">
        <ele>223.3</ele>
        <time>2026-05-02T13:09:14.000Z</time>
      </trkpt>
      <trkpt lat="44.81477" lon="0.79814">
        <ele>223.2</ele>
        <time>2026-05-02T13:09:15.000Z</time>
      </trkpt>
      <trkpt lat="44.81478" lon="0.79816">
        <ele>223.5</ele>
        <time>2026-05-02T13:09:16.000Z</time>
      </trkpt>
      <trkpt lat="44.81479" lon="0.79818">
        <ele>223.2</ele>
        <time>2026-05-02T13:09:17.000Z</time>
      </trkpt>
      <trkpt lat="44.81479" lon="0.79821">
        <ele>223.2</ele>
        <time>2026-05-02T13:09:18.000Z</time>
      </trkpt>
      <trkpt lat="44.8148" lon="0.79823">
        <ele>223</ele>
        <time>2026-05-02T13:09:19.000Z</time>
      </trkpt>
      <trkpt lat="44.8148" lon="0.79825">
        <ele>222.9</ele>
        <time>2026-05-02T13:09:20.000Z</time>
      </trkpt>
      <trkpt lat="44.81481" lon="0.79826">
        <ele>222.7</ele>
        <time>2026-05-02T13:09:21.000Z</time>
      </trkpt>
      <trkpt lat="44.81483" lon="0.79828">
        <ele>222.9</ele>
        <time>2026-05-02T13:09:22.000Z</time>
      </trkpt>
      <trkpt lat="44.81484" lon="0.7983">
        <ele>222.9</ele>
        <time>2026-05-02T13:09:23.000Z</time>
      </trkpt>
      <trkpt lat="44.81485" lon="0.79832">
        <ele>223</ele>
        <time>2026-05-02T13:09:24.000Z</time>
      </trkpt>
      <trkpt lat="44.81486" lon="0.79834">
        <ele>223.1</ele>
        <time>2026-05-02T13:09:25.000Z</time>
      </trkpt>
      <trkpt lat="44.81487" lon="0.79836">
        <ele>223.4</ele>
        <time>2026-05-02T13:09:26.000Z</time>
      </trkpt>
      <trkpt lat="44.81488" lon="0.79838">
        <ele>223.9</ele>
        <time>2026-05-02T13:09:27.000Z</time>
      </trkpt>
      <trkpt lat="44.81489" lon="0.7984">
        <ele>224.1</ele>
        <time>2026-05-02T13:09:28.000Z</time>
      </trkpt>
      <trkpt lat="44.81489" lon="0.79842">
        <ele>224.2</ele>
        <time>2026-05-02T13:09:29.000Z</time>
      </trkpt>
      <trkpt lat="44.81491" lon="0.79844">
        <ele>224.1</ele>
        <time>2026-05-02T13:09:30.000Z</time>
      </trkpt>
      <trkpt lat="44.81491" lon="0.79846">
        <ele>224.2</ele>
        <time>2026-05-02T13:09:31.000Z</time>
      </trkpt>
      <trkpt lat="44.81492" lon="0.79848">
        <ele>224.2</ele>
        <time>2026-05-02T13:09:32.000Z</time>
      </trkpt>
      <trkpt lat="44.81493" lon="0.7985">
        <ele>224.3</ele>
        <time>2026-05-02T13:09:33.000Z</time>
      </trkpt>
      <trkpt lat="44.81494" lon="0.79852">
        <ele>224.3</ele>
        <time>2026-05-02T13:09:34.000Z</time>
      </trkpt>
      <trkpt lat="44.81495" lon="0.79853">
        <ele>224.2</ele>
        <time>2026-05-02T13:09:35.000Z</time>
      </trkpt>
      <trkpt lat="44.81496" lon="0.79855">
        <ele>224.4</ele>
        <time>2026-05-02T13:09:36.000Z</time>
      </trkpt>
      <trkpt lat="44.81497" lon="0.79857">
        <ele>224.2</ele>
        <time>2026-05-02T13:09:37.000Z</time>
      </trkpt>
      <trkpt lat="44.81498" lon="0.79859">
        <ele>224.6</ele>
        <time>2026-05-02T13:09:38.000Z</time>
      </trkpt>
      <trkpt lat="44.81499" lon="0.79861">
        <ele>224.6</ele>
        <time>2026-05-02T13:09:39.000Z</time>
      </trkpt>
      <trkpt lat="44.815" lon="0.79864">
        <ele>225</ele>
        <time>2026-05-02T13:09:40.000Z</time>
      </trkpt>
      <trkpt lat="44.815" lon="0.79866">
        <ele>224.7</ele>
        <time>2026-05-02T13:09:41.000Z</time>
      </trkpt>
      <trkpt lat="44.815" lon="0.79868">
        <ele>224</ele>
        <time>2026-05-02T13:09:42.000Z</time>
      </trkpt>
      <trkpt lat="44.815" lon="0.7987">
        <ele>223.7</ele>
        <time>2026-05-02T13:09:43.000Z</time>
      </trkpt>
      <trkpt lat="44.81501" lon="0.79872">
        <ele>223.6</ele>
        <time>2026-05-02T13:09:44.000Z</time>
      </trkpt>
      <trkpt lat="44.81501" lon="0.79874">
        <ele>223.4</ele>
        <time>2026-05-02T13:09:45.000Z</time>
      </trkpt>
      <trkpt lat="44.81501" lon="0.79876">
        <ele>223.4</ele>
        <time>2026-05-02T13:09:46.000Z</time>
      </trkpt>
      <trkpt lat="44.81501" lon="0.79879">
        <ele>223.4</ele>
        <time>2026-05-02T13:09:47.000Z</time>
      </trkpt>
      <trkpt lat="44.81501" lon="0.79881">
        <ele>223.3</ele>
        <time>2026-05-02T13:09:48.000Z</time>
      </trkpt>
      <trkpt lat="44.81501" lon="0.79883">
        <ele>222.9</ele>
        <time>2026-05-02T13:09:49.000Z</time>
      </trkpt>
      <trkpt lat="44.81501" lon="0.79885">
        <ele>222.7</ele>
        <time>2026-05-02T13:09:50.000Z</time>
      </trkpt>
      <trkpt lat="44.81501" lon="0.79887">
        <ele>222.7</ele>
        <time>2026-05-02T13:09:51.000Z</time>
      </trkpt>
      <trkpt lat="44.81501" lon="0.7989">
        <ele>222.3</ele>
        <time>2026-05-02T13:09:52.000Z</time>
      </trkpt>
      <trkpt lat="44.81501" lon="0.79892">
        <ele>222.6</ele>
        <time>2026-05-02T13:09:53.000Z</time>
      </trkpt>
      <trkpt lat="44.81501" lon="0.79894">
        <ele>222.8</ele>
        <time>2026-05-02T13:09:54.000Z</time>
      </trkpt>
      <trkpt lat="44.81501" lon="0.79896">
        <ele>222.7</ele>
        <time>2026-05-02T13:09:55.000Z</time>
      </trkpt>
      <trkpt lat="44.815" lon="0.79898">
        <ele>222.6</ele>
        <time>2026-05-02T13:09:56.000Z</time>
      </trkpt>
      <trkpt lat="44.815" lon="0.79901">
        <ele>222.3</ele>
        <time>2026-05-02T13:09:57.000Z</time>
      </trkpt>
      <trkpt lat="44.815" lon="0.79903">
        <ele>222</ele>
        <time>2026-05-02T13:09:58.000Z</time>
      </trkpt>
      <trkpt lat="44.815" lon="0.79905">
        <ele>222</ele>
        <time>2026-05-02T13:09:59.000Z</time>
      </trkpt>
      <trkpt lat="44.81499" lon="0.79908">
        <ele>223</ele>
        <time>2026-05-02T13:10:00.000Z</time>
      </trkpt>
      <trkpt lat="44.81499" lon="0.7991">
        <ele>223.3</ele>
        <time>2026-05-02T13:10:01.000Z</time>
      </trkpt>
      <trkpt lat="44.81499" lon="0.79912">
        <ele>223.1</ele>
        <time>2026-05-02T13:10:02.000Z</time>
      </trkpt>
      <trkpt lat="44.81498" lon="0.79914">
        <ele>223.2</ele>
        <time>2026-05-02T13:10:03.000Z</time>
      </trkpt>
      <trkpt lat="44.81498" lon="0.79917">
        <ele>223.5</ele>
        <time>2026-05-02T13:10:04.000Z</time>
      </trkpt>
      <trkpt lat="44.81498" lon="0.79919">
        <ele>223.7</ele>
        <time>2026-05-02T13:10:05.000Z</time>
      </trkpt>
      <trkpt lat="44.81497" lon="0.79921">
        <ele>223.6</ele>
        <time>2026-05-02T13:10:06.000Z</time>
      </trkpt>
      <trkpt lat="44.81497" lon="0.79923">
        <ele>223.8</ele>
        <time>2026-05-02T13:10:07.000Z</time>
      </trkpt>
      <trkpt lat="44.81497" lon="0.79926">
        <ele>223.8</ele>
        <time>2026-05-02T13:10:08.000Z</time>
      </trkpt>
      <trkpt lat="44.81497" lon="0.79928">
        <ele>223.7</ele>
        <time>2026-05-02T13:10:09.000Z</time>
      </trkpt>
      <trkpt lat="44.81497" lon="0.7993">
        <ele>223.6</ele>
        <time>2026-05-02T13:10:10.000Z</time>
      </trkpt>
      <trkpt lat="44.81497" lon="0.79932">
        <ele>223.8</ele>
        <time>2026-05-02T13:10:11.000Z</time>
      </trkpt>
      <trkpt lat="44.81496" lon="0.79934">
        <ele>223.8</ele>
        <time>2026-05-02T13:10:12.000Z</time>
      </trkpt>
      <trkpt lat="44.81496" lon="0.79937">
        <ele>223.9</ele>
        <time>2026-05-02T13:10:13.000Z</time>
      </trkpt>
      <trkpt lat="44.81496" lon="0.79939">
        <ele>223.8</ele>
        <time>2026-05-02T13:10:14.000Z</time>
      </trkpt>
      <trkpt lat="44.81496" lon="0.79941">
        <ele>223.6</ele>
        <time>2026-05-02T13:10:15.000Z</time>
      </trkpt>
      <trkpt lat="44.81496" lon="0.79944">
        <ele>223.5</ele>
        <time>2026-05-02T13:10:16.000Z</time>
      </trkpt>
      <trkpt lat="44.81496" lon="0.79947">
        <ele>223.3</ele>
        <time>2026-05-02T13:10:17.000Z</time>
      </trkpt>
      <trkpt lat="44.81495" lon="0.79949">
        <ele>223</ele>
        <time>2026-05-02T13:10:18.000Z</time>
      </trkpt>
      <trkpt lat="44.81495" lon="0.79951">
        <ele>222.8</ele>
        <time>2026-05-02T13:10:19.000Z</time>
      </trkpt>
      <trkpt lat="44.81495" lon="0.79954">
        <ele>222.7</ele>
        <time>2026-05-02T13:10:20.000Z</time>
      </trkpt>
      <trkpt lat="44.81495" lon="0.79956">
        <ele>222.7</ele>
        <time>2026-05-02T13:10:21.000Z</time>
      </trkpt>
      <trkpt lat="44.81494" lon="0.79958">
        <ele>222.7</ele>
        <time>2026-05-02T13:10:22.000Z</time>
      </trkpt>
      <trkpt lat="44.81494" lon="0.7996">
        <ele>222.7</ele>
        <time>2026-05-02T13:10:23.000Z</time>
      </trkpt>
      <trkpt lat="44.81493" lon="0.79962">
        <ele>222.5</ele>
        <time>2026-05-02T13:10:24.000Z</time>
      </trkpt>
      <trkpt lat="44.81493" lon="0.79964">
        <ele>222.1</ele>
        <time>2026-05-02T13:10:25.000Z</time>
      </trkpt>
      <trkpt lat="44.81493" lon="0.79966">
        <ele>222.1</ele>
        <time>2026-05-02T13:10:26.000Z</time>
      </trkpt>
      <trkpt lat="44.81493" lon="0.79968">
        <ele>222.1</ele>
        <time>2026-05-02T13:10:27.000Z</time>
      </trkpt>
      <trkpt lat="44.81492" lon="0.7997">
        <ele>222</ele>
        <time>2026-05-02T13:10:28.000Z</time>
      </trkpt>
      <trkpt lat="44.81492" lon="0.79972">
        <ele>221.9</ele>
        <time>2026-05-02T13:10:29.000Z</time>
      </trkpt>
      <trkpt lat="44.81492" lon="0.79975">
        <ele>221.9</ele>
        <time>2026-05-02T13:10:30.000Z</time>
      </trkpt>
      <trkpt lat="44.81492" lon="0.79977">
        <ele>222.1</ele>
        <time>2026-05-02T13:10:31.000Z</time>
      </trkpt>
      <trkpt lat="44.81492" lon="0.79979">
        <ele>221.9</ele>
        <time>2026-05-02T13:10:32.000Z</time>
      </trkpt>
      <trkpt lat="44.81492" lon="0.79981">
        <ele>221.8</ele>
        <time>2026-05-02T13:10:33.000Z</time>
      </trkpt>
      <trkpt lat="44.81491" lon="0.79983">
        <ele>221.9</ele>
        <time>2026-05-02T13:10:34.000Z</time>
      </trkpt>
      <trkpt lat="44.81491" lon="0.79986">
        <ele>221.9</ele>
        <time>2026-05-02T13:10:35.000Z</time>
      </trkpt>
      <trkpt lat="44.81491" lon="0.79988">
        <ele>221.7</ele>
        <time>2026-05-02T13:10:36.000Z</time>
      </trkpt>
      <trkpt lat="44.8149" lon="0.7999">
        <ele>221.7</ele>
        <time>2026-05-02T13:10:37.000Z</time>
      </trkpt>
      <trkpt lat="44.8149" lon="0.79992">
        <ele>221.7</ele>
        <time>2026-05-02T13:10:38.000Z</time>
      </trkpt>
      <trkpt lat="44.8149" lon="0.79995">
        <ele>221.5</ele>
        <time>2026-05-02T13:10:39.000Z</time>
      </trkpt>
      <trkpt lat="44.8149" lon="0.79997">
        <ele>221.7</ele>
        <time>2026-05-02T13:10:40.000Z</time>
      </trkpt>
      <trkpt lat="44.81489" lon="0.8">
        <ele>221.7</ele>
        <time>2026-05-02T13:10:41.000Z</time>
      </trkpt>
      <trkpt lat="44.81489" lon="0.80002">
        <ele>221.8</ele>
        <time>2026-05-02T13:10:42.000Z</time>
      </trkpt>
      <trkpt lat="44.81489" lon="0.80004">
        <ele>221.8</ele>
        <time>2026-05-02T13:10:43.000Z</time>
      </trkpt>
      <trkpt lat="44.81486" lon="0.80006">
        <ele>222</ele>
        <time>2026-05-02T13:10:44.000Z</time>
      </trkpt>
      <trkpt lat="44.81487" lon="0.80008">
        <ele>221.5</ele>
        <time>2026-05-02T13:10:45.000Z</time>
      </trkpt>
      <trkpt lat="44.81486" lon="0.8001">
        <ele>221.1</ele>
        <time>2026-05-02T13:10:46.000Z</time>
      </trkpt>
      <trkpt lat="44.81487" lon="0.80013">
        <ele>221.1</ele>
        <time>2026-05-02T13:10:47.000Z</time>
      </trkpt>
      <trkpt lat="44.81487" lon="0.80015">
        <ele>221.1</ele>
        <time>2026-05-02T13:10:48.000Z</time>
      </trkpt>
      <trkpt lat="44.81487" lon="0.80017">
        <ele>221.3</ele>
        <time>2026-05-02T13:10:49.000Z</time>
      </trkpt>
      <trkpt lat="44.81487" lon="0.8002">
        <ele>221.3</ele>
        <time>2026-05-02T13:10:50.000Z</time>
      </trkpt>
      <trkpt lat="44.81488" lon="0.80022">
        <ele>221.2</ele>
        <time>2026-05-02T13:10:51.000Z</time>
      </trkpt>
      <trkpt lat="44.81488" lon="0.80024">
        <ele>221.5</ele>
        <time>2026-05-02T13:10:52.000Z</time>
      </trkpt>
      <trkpt lat="44.81489" lon="0.80026">
        <ele>221.4</ele>
        <time>2026-05-02T13:10:53.000Z</time>
      </trkpt>
      <trkpt lat="44.8149" lon="0.80029">
        <ele>221.4</ele>
        <time>2026-05-02T13:10:54.000Z</time>
      </trkpt>
      <trkpt lat="44.8149" lon="0.80031">
        <ele>221.3</ele>
        <time>2026-05-02T13:10:55.000Z</time>
      </trkpt>
      <trkpt lat="44.81491" lon="0.80033">
        <ele>221.3</ele>
        <time>2026-05-02T13:10:56.000Z</time>
      </trkpt>
      <trkpt lat="44.81492" lon="0.80035">
        <ele>221.5</ele>
        <time>2026-05-02T13:10:57.000Z</time>
      </trkpt>
      <trkpt lat="44.81493" lon="0.80037">
        <ele>221.6</ele>
        <time>2026-05-02T13:10:58.000Z</time>
      </trkpt>
      <trkpt lat="44.81494" lon="0.80039">
        <ele>221.7</ele>
        <time>2026-05-02T13:10:59.000Z</time>
      </trkpt>
      <trkpt lat="44.81494" lon="0.8004">
        <ele>221.7</ele>
        <time>2026-05-02T13:11:00.000Z</time>
      </trkpt>
      <trkpt lat="44.81495" lon="0.8004">
        <ele>221.5</ele>
        <time>2026-05-02T13:11:01.000Z</time>
      </trkpt>
      <trkpt lat="44.81497" lon="0.8004">
        <ele>221.4</ele>
        <time>2026-05-02T13:11:02.000Z</time>
      </trkpt>
      <trkpt lat="44.81499" lon="0.80039">
        <ele>221.6</ele>
        <time>2026-05-02T13:11:03.000Z</time>
      </trkpt>
      <trkpt lat="44.815" lon="0.80039">
        <ele>221.7</ele>
        <time>2026-05-02T13:11:04.000Z</time>
      </trkpt>
      <trkpt lat="44.81502" lon="0.80039">
        <ele>221.6</ele>
        <time>2026-05-02T13:11:05.000Z</time>
      </trkpt>
      <trkpt lat="44.81503" lon="0.80039">
        <ele>221.8</ele>
        <time>2026-05-02T13:11:06.000Z</time>
      </trkpt>
      <trkpt lat="44.81505" lon="0.80038">
        <ele>221.7</ele>
        <time>2026-05-02T13:11:07.000Z</time>
      </trkpt>
      <trkpt lat="44.81506" lon="0.80038">
        <ele>221.4</ele>
        <time>2026-05-02T13:11:08.000Z</time>
      </trkpt>
      <trkpt lat="44.81507" lon="0.80037">
        <ele>221.2</ele>
        <time>2026-05-02T13:11:09.000Z</time>
      </trkpt>
      <trkpt lat="44.81508" lon="0.80036">
        <ele>220.9</ele>
        <time>2026-05-02T13:11:10.000Z</time>
      </trkpt>
      <trkpt lat="44.81509" lon="0.80036">
        <ele>220.9</ele>
        <time>2026-05-02T13:11:11.000Z</time>
      </trkpt>
      <trkpt lat="44.81509" lon="0.80035">
        <ele>220.8</ele>
        <time>2026-05-02T13:11:12.000Z</time>
      </trkpt>
      <trkpt lat="44.81511" lon="0.8004">
        <ele>221</ele>
        <time>2026-05-02T13:11:13.000Z</time>
      </trkpt>
      <trkpt lat="44.81513" lon="0.8004">
        <ele>221</ele>
        <time>2026-05-02T13:11:14.000Z</time>
      </trkpt>
      <trkpt lat="44.81514" lon="0.80039">
        <ele>221.1</ele>
        <time>2026-05-02T13:11:15.000Z</time>
      </trkpt>
      <trkpt lat="44.81514" lon="0.80039">
        <ele>221.1</ele>
        <time>2026-05-02T13:11:16.000Z</time>
      </trkpt>
      <trkpt lat="44.81514" lon="0.80038">
        <ele>220.9</ele>
        <time>2026-05-02T13:11:17.000Z</time>
      </trkpt>
      <trkpt lat="44.81515" lon="0.80038">
        <ele>220.7</ele>
        <time>2026-05-02T13:11:18.000Z</time>
      </trkpt>
      <trkpt lat="44.81516" lon="0.80037">
        <ele>220.6</ele>
        <time>2026-05-02T13:11:19.000Z</time>
      </trkpt>
      <trkpt lat="44.81518" lon="0.80036">
        <ele>220.8</ele>
        <time>2026-05-02T13:11:20.000Z</time>
      </trkpt>
      <trkpt lat="44.81519" lon="0.80035">
        <ele>220.6</ele>
        <time>2026-05-02T13:11:21.000Z</time>
      </trkpt>
      <trkpt lat="44.8152" lon="0.80034">
        <ele>220.5</ele>
        <time>2026-05-02T13:11:22.000Z</time>
      </trkpt>
      <trkpt lat="44.81521" lon="0.80033">
        <ele>220.5</ele>
        <time>2026-05-02T13:11:23.000Z</time>
      </trkpt>
      <trkpt lat="44.81522" lon="0.80031">
        <ele>220.3</ele>
        <time>2026-05-02T13:11:24.000Z</time>
      </trkpt>
      <trkpt lat="44.81523" lon="0.8003">
        <ele>220</ele>
        <time>2026-05-02T13:11:25.000Z</time>
      </trkpt>
      <trkpt lat="44.81524" lon="0.80029">
        <ele>219.5</ele>
        <time>2026-05-02T13:11:26.000Z</time>
      </trkpt>
      <trkpt lat="44.81526" lon="0.80028">
        <ele>219.4</ele>
        <time>2026-05-02T13:11:27.000Z</time>
      </trkpt>
      <trkpt lat="44.81527" lon="0.80027">
        <ele>219.5</ele>
        <time>2026-05-02T13:11:28.000Z</time>
      </trkpt>
      <trkpt lat="44.81529" lon="0.80026">
        <ele>219.2</ele>
        <time>2026-05-02T13:11:29.000Z</time>
      </trkpt>
      <trkpt lat="44.8153" lon="0.80025">
        <ele>218.8</ele>
        <time>2026-05-02T13:11:30.000Z</time>
      </trkpt>
      <trkpt lat="44.81532" lon="0.80023">
        <ele>218.7</ele>
        <time>2026-05-02T13:11:31.000Z</time>
      </trkpt>
      <trkpt lat="44.81533" lon="0.80022">
        <ele>218.5</ele>
        <time>2026-05-02T13:11:32.000Z</time>
      </trkpt>
      <trkpt lat="44.81535" lon="0.8002">
        <ele>218.5</ele>
        <time>2026-05-02T13:11:33.000Z</time>
      </trkpt>
      <trkpt lat="44.81536" lon="0.80019">
        <ele>218.6</ele>
        <time>2026-05-02T13:11:34.000Z</time>
      </trkpt>
      <trkpt lat="44.81538" lon="0.80018">
        <ele>218.6</ele>
        <time>2026-05-02T13:11:35.000Z</time>
      </trkpt>
      <trkpt lat="44.81539" lon="0.80017">
        <ele>218.3</ele>
        <time>2026-05-02T13:11:36.000Z</time>
      </trkpt>
      <trkpt lat="44.81541" lon="0.80015">
        <ele>218.1</ele>
        <time>2026-05-02T13:11:37.000Z</time>
      </trkpt>
      <trkpt lat="44.81542" lon="0.80014">
        <ele>217.8</ele>
        <time>2026-05-02T13:11:38.000Z</time>
      </trkpt>
      <trkpt lat="44.81544" lon="0.80013">
        <ele>218</ele>
        <time>2026-05-02T13:11:39.000Z</time>
      </trkpt>
      <trkpt lat="44.81545" lon="0.80012">
        <ele>218</ele>
        <time>2026-05-02T13:11:40.000Z</time>
      </trkpt>
      <trkpt lat="44.81546" lon="0.80011">
        <ele>217.6</ele>
        <time>2026-05-02T13:11:41.000Z</time>
      </trkpt>
      <trkpt lat="44.81548" lon="0.80011">
        <ele>217.4</ele>
        <time>2026-05-02T13:11:42.000Z</time>
      </trkpt>
      <trkpt lat="44.81549" lon="0.8001">
        <ele>217.3</ele>
        <time>2026-05-02T13:11:43.000Z</time>
      </trkpt>
      <trkpt lat="44.81551" lon="0.80009">
        <ele>216.9</ele>
        <time>2026-05-02T13:11:44.000Z</time>
      </trkpt>
      <trkpt lat="44.81552" lon="0.80008">
        <ele>216.7</ele>
        <time>2026-05-02T13:11:45.000Z</time>
      </trkpt>
      <trkpt lat="44.81554" lon="0.80007">
        <ele>217.3</ele>
        <time>2026-05-02T13:11:46.000Z</time>
      </trkpt>
      <trkpt lat="44.81555" lon="0.80006">
        <ele>217.6</ele>
        <time>2026-05-02T13:11:47.000Z</time>
      </trkpt>
      <trkpt lat="44.81556" lon="0.80005">
        <ele>217.6</ele>
        <time>2026-05-02T13:11:48.000Z</time>
      </trkpt>
      <trkpt lat="44.81558" lon="0.80004">
        <ele>217.7</ele>
        <time>2026-05-02T13:11:49.000Z</time>
      </trkpt>
      <trkpt lat="44.8156" lon="0.80002">
        <ele>217.6</ele>
        <time>2026-05-02T13:11:50.000Z</time>
      </trkpt>
      <trkpt lat="44.81562" lon="0.80002">
        <ele>217.7</ele>
        <time>2026-05-02T13:11:51.000Z</time>
      </trkpt>
      <trkpt lat="44.81563" lon="0.80001">
        <ele>217.5</ele>
        <time>2026-05-02T13:11:52.000Z</time>
      </trkpt>
      <trkpt lat="44.81565" lon="0.8">
        <ele>217.4</ele>
        <time>2026-05-02T13:11:53.000Z</time>
      </trkpt>
      <trkpt lat="44.81566" lon="0.8">
        <ele>217</ele>
        <time>2026-05-02T13:11:54.000Z</time>
      </trkpt>
      <trkpt lat="44.81568" lon="0.79999">
        <ele>216.5</ele>
        <time>2026-05-02T13:11:55.000Z</time>
      </trkpt>
      <trkpt lat="44.81569" lon="0.79998">
        <ele>216.4</ele>
        <time>2026-05-02T13:11:56.000Z</time>
      </trkpt>
      <trkpt lat="44.81571" lon="0.79997">
        <ele>216.6</ele>
        <time>2026-05-02T13:11:57.000Z</time>
      </trkpt>
      <trkpt lat="44.81572" lon="0.79996">
        <ele>216.5</ele>
        <time>2026-05-02T13:11:58.000Z</time>
      </trkpt>
      <trkpt lat="44.81574" lon="0.79995">
        <ele>216.4</ele>
        <time>2026-05-02T13:11:59.000Z</time>
      </trkpt>
      <trkpt lat="44.81575" lon="0.79994">
        <ele>216.2</ele>
        <time>2026-05-02T13:12:00.000Z</time>
      </trkpt>
      <trkpt lat="44.81577" lon="0.79993">
        <ele>216.5</ele>
        <time>2026-05-02T13:12:01.000Z</time>
      </trkpt>
      <trkpt lat="44.81578" lon="0.79992">
        <ele>216.7</ele>
        <time>2026-05-02T13:12:02.000Z</time>
      </trkpt>
      <trkpt lat="44.8158" lon="0.79991">
        <ele>216.6</ele>
        <time>2026-05-02T13:12:03.000Z</time>
      </trkpt>
      <trkpt lat="44.81581" lon="0.7999">
        <ele>216.6</ele>
        <time>2026-05-02T13:12:04.000Z</time>
      </trkpt>
      <trkpt lat="44.81583" lon="0.79989">
        <ele>216.6</ele>
        <time>2026-05-02T13:12:05.000Z</time>
      </trkpt>
      <trkpt lat="44.81584" lon="0.79988">
        <ele>216.9</ele>
        <time>2026-05-02T13:12:06.000Z</time>
      </trkpt>
      <trkpt lat="44.81586" lon="0.79987">
        <ele>216.4</ele>
        <time>2026-05-02T13:12:07.000Z</time>
      </trkpt>
      <trkpt lat="44.81587" lon="0.79986">
        <ele>216.5</ele>
        <time>2026-05-02T13:12:08.000Z</time>
      </trkpt>
      <trkpt lat="44.81589" lon="0.79985">
        <ele>216.6</ele>
        <time>2026-05-02T13:12:09.000Z</time>
      </trkpt>
      <trkpt lat="44.8159" lon="0.79984">
        <ele>216.8</ele>
        <time>2026-05-02T13:12:10.000Z</time>
      </trkpt>
      <trkpt lat="44.81592" lon="0.79984">
        <ele>216.7</ele>
        <time>2026-05-02T13:12:11.000Z</time>
      </trkpt>
      <trkpt lat="44.81593" lon="0.79983">
        <ele>216.5</ele>
        <time>2026-05-02T13:12:12.000Z</time>
      </trkpt>
      <trkpt lat="44.81595" lon="0.79982">
        <ele>216.5</ele>
        <time>2026-05-02T13:12:13.000Z</time>
      </trkpt>
      <trkpt lat="44.81597" lon="0.79981">
        <ele>216.4</ele>
        <time>2026-05-02T13:12:14.000Z</time>
      </trkpt>
      <trkpt lat="44.81598" lon="0.79981">
        <ele>216.3</ele>
        <time>2026-05-02T13:12:15.000Z</time>
      </trkpt>
      <trkpt lat="44.816" lon="0.79981">
        <ele>215.8</ele>
        <time>2026-05-02T13:12:16.000Z</time>
      </trkpt>
      <trkpt lat="44.81602" lon="0.7998">
        <ele>215.6</ele>
        <time>2026-05-02T13:12:17.000Z</time>
      </trkpt>
      <trkpt lat="44.81603" lon="0.79979">
        <ele>215.5</ele>
        <time>2026-05-02T13:12:18.000Z</time>
      </trkpt>
      <trkpt lat="44.81605" lon="0.79978">
        <ele>215.6</ele>
        <time>2026-05-02T13:12:19.000Z</time>
      </trkpt>
      <trkpt lat="44.81607" lon="0.79978">
        <ele>215.6</ele>
        <time>2026-05-02T13:12:20.000Z</time>
      </trkpt>
      <trkpt lat="44.81608" lon="0.79977">
        <ele>215.6</ele>
        <time>2026-05-02T13:12:21.000Z</time>
      </trkpt>
      <trkpt lat="44.8161" lon="0.79976">
        <ele>215.6</ele>
        <time>2026-05-02T13:12:22.000Z</time>
      </trkpt>
      <trkpt lat="44.81611" lon="0.79975">
        <ele>215.4</ele>
        <time>2026-05-02T13:12:23.000Z</time>
      </trkpt>
      <trkpt lat="44.81613" lon="0.79974">
        <ele>215.4</ele>
        <time>2026-05-02T13:12:24.000Z</time>
      </trkpt>
      <trkpt lat="44.81615" lon="0.79973">
        <ele>215.3</ele>
        <time>2026-05-02T13:12:25.000Z</time>
      </trkpt>
      <trkpt lat="44.81616" lon="0.79972">
        <ele>215.1</ele>
        <time>2026-05-02T13:12:26.000Z</time>
      </trkpt>
      <trkpt lat="44.81618" lon="0.79971">
        <ele>215.5</ele>
        <time>2026-05-02T13:12:27.000Z</time>
      </trkpt>
      <trkpt lat="44.81619" lon="0.7997">
        <ele>215.5</ele>
        <time>2026-05-02T13:12:28.000Z</time>
      </trkpt>
      <trkpt lat="44.81621" lon="0.79969">
        <ele>215.8</ele>
        <time>2026-05-02T13:12:29.000Z</time>
      </trkpt>
      <trkpt lat="44.81622" lon="0.79968">
        <ele>216.1</ele>
        <time>2026-05-02T13:12:30.000Z</time>
      </trkpt>
      <trkpt lat="44.81624" lon="0.79968">
        <ele>216.1</ele>
        <time>2026-05-02T13:12:31.000Z</time>
      </trkpt>
      <trkpt lat="44.81626" lon="0.79968">
        <ele>216.2</ele>
        <time>2026-05-02T13:12:32.000Z</time>
      </trkpt>
      <trkpt lat="44.81627" lon="0.79967">
        <ele>216</ele>
        <time>2026-05-02T13:12:33.000Z</time>
      </trkpt>
      <trkpt lat="44.81629" lon="0.79967">
        <ele>215.8</ele>
        <time>2026-05-02T13:12:34.000Z</time>
      </trkpt>
      <trkpt lat="44.81631" lon="0.79967">
        <ele>215.7</ele>
        <time>2026-05-02T13:12:35.000Z</time>
      </trkpt>
      <trkpt lat="44.81633" lon="0.79966">
        <ele>215.7</ele>
        <time>2026-05-02T13:12:36.000Z</time>
      </trkpt>
      <trkpt lat="44.81635" lon="0.79965">
        <ele>216</ele>
        <time>2026-05-02T13:12:37.000Z</time>
      </trkpt>
      <trkpt lat="44.81637" lon="0.79965">
        <ele>215.7</ele>
        <time>2026-05-02T13:12:38.000Z</time>
      </trkpt>
      <trkpt lat="44.81638" lon="0.79964">
        <ele>215.6</ele>
        <time>2026-05-02T13:12:39.000Z</time>
      </trkpt>
      <trkpt lat="44.8164" lon="0.79963">
        <ele>215.5</ele>
        <time>2026-05-02T13:12:40.000Z</time>
      </trkpt>
      <trkpt lat="44.81641" lon="0.79963">
        <ele>215.4</ele>
        <time>2026-05-02T13:12:41.000Z</time>
      </trkpt>
      <trkpt lat="44.81643" lon="0.79963">
        <ele>214.3</ele>
        <time>2026-05-02T13:12:42.000Z</time>
      </trkpt>
      <trkpt lat="44.81644" lon="0.79963">
        <ele>214.2</ele>
        <time>2026-05-02T13:12:43.000Z</time>
      </trkpt>
      <trkpt lat="44.81646" lon="0.79962">
        <ele>214.2</ele>
        <time>2026-05-02T13:12:44.000Z</time>
      </trkpt>
      <trkpt lat="44.81647" lon="0.79962">
        <ele>214.2</ele>
        <time>2026-05-02T13:12:45.000Z</time>
      </trkpt>
      <trkpt lat="44.81649" lon="0.79962">
        <ele>213.9</ele>
        <time>2026-05-02T13:12:46.000Z</time>
      </trkpt>
      <trkpt lat="44.81651" lon="0.79962">
        <ele>214.4</ele>
        <time>2026-05-02T13:12:47.000Z</time>
      </trkpt>
      <trkpt lat="44.81652" lon="0.79961">
        <ele>214.2</ele>
        <time>2026-05-02T13:12:48.000Z</time>
      </trkpt>
      <trkpt lat="44.81654" lon="0.79961">
        <ele>213.9</ele>
        <time>2026-05-02T13:12:49.000Z</time>
      </trkpt>
      <trkpt lat="44.81656" lon="0.7996">
        <ele>213.8</ele>
        <time>2026-05-02T13:12:50.000Z</time>
      </trkpt>
      <trkpt lat="44.81657" lon="0.79959">
        <ele>213.5</ele>
        <time>2026-05-02T13:12:51.000Z</time>
      </trkpt>
      <trkpt lat="44.81659" lon="0.79959">
        <ele>213.3</ele>
        <time>2026-05-02T13:12:52.000Z</time>
      </trkpt>
      <trkpt lat="44.81661" lon="0.79959">
        <ele>213.4</ele>
        <time>2026-05-02T13:12:53.000Z</time>
      </trkpt>
      <trkpt lat="44.81663" lon="0.79958">
        <ele>213.4</ele>
        <time>2026-05-02T13:12:54.000Z</time>
      </trkpt>
      <trkpt lat="44.81664" lon="0.79958">
        <ele>213.4</ele>
        <time>2026-05-02T13:12:55.000Z</time>
      </trkpt>
      <trkpt lat="44.81666" lon="0.79958">
        <ele>213</ele>
        <time>2026-05-02T13:12:56.000Z</time>
      </trkpt>
      <trkpt lat="44.81668" lon="0.79958">
        <ele>213.1</ele>
        <time>2026-05-02T13:12:57.000Z</time>
      </trkpt>
      <trkpt lat="44.81669" lon="0.79958">
        <ele>213.1</ele>
        <time>2026-05-02T13:12:58.000Z</time>
      </trkpt>
      <trkpt lat="44.81671" lon="0.79958">
        <ele>212.8</ele>
        <time>2026-05-02T13:12:59.000Z</time>
      </trkpt>
      <trkpt lat="44.81673" lon="0.79958">
        <ele>212</ele>
        <time>2026-05-02T13:13:00.000Z</time>
      </trkpt>
      <trkpt lat="44.81675" lon="0.79958">
        <ele>211.9</ele>
        <time>2026-05-02T13:13:01.000Z</time>
      </trkpt>
      <trkpt lat="44.81676" lon="0.79958">
        <ele>211.5</ele>
        <time>2026-05-02T13:13:02.000Z</time>
      </trkpt>
      <trkpt lat="44.81678" lon="0.79958">
        <ele>211.8</ele>
        <time>2026-05-02T13:13:03.000Z</time>
      </trkpt>
      <trkpt lat="44.8168" lon="0.79958">
        <ele>211.6</ele>
        <time>2026-05-02T13:13:04.000Z</time>
      </trkpt>
      <trkpt lat="44.81681" lon="0.79958">
        <ele>211.3</ele>
        <time>2026-05-02T13:13:05.000Z</time>
      </trkpt>
      <trkpt lat="44.81683" lon="0.79958">
        <ele>210.7</ele>
        <time>2026-05-02T13:13:06.000Z</time>
      </trkpt>
      <trkpt lat="44.81683" lon="0.79957">
        <ele>210.6</ele>
        <time>2026-05-02T13:13:07.000Z</time>
      </trkpt>
      <trkpt lat="44.81684" lon="0.79957">
        <ele>210.6</ele>
        <time>2026-05-02T13:13:08.000Z</time>
      </trkpt>
      <trkpt lat="44.81686" lon="0.79956">
        <ele>210.5</ele>
        <time>2026-05-02T13:13:09.000Z</time>
      </trkpt>
      <trkpt lat="44.81688" lon="0.79956">
        <ele>209.7</ele>
        <time>2026-05-02T13:13:10.000Z</time>
      </trkpt>
      <trkpt lat="44.8169" lon="0.79956">
        <ele>210.1</ele>
        <time>2026-05-02T13:13:11.000Z</time>
      </trkpt>
      <trkpt lat="44.81692" lon="0.79956">
        <ele>209.9</ele>
        <time>2026-05-02T13:13:12.000Z</time>
      </trkpt>
      <trkpt lat="44.81693" lon="0.79955">
        <ele>210.2</ele>
        <time>2026-05-02T13:13:13.000Z</time>
      </trkpt>
      <trkpt lat="44.81695" lon="0.79955">
        <ele>210.3</ele>
        <time>2026-05-02T13:13:14.000Z</time>
      </trkpt>
      <trkpt lat="44.81696" lon="0.79954">
        <ele>210.2</ele>
        <time>2026-05-02T13:13:15.000Z</time>
      </trkpt>
      <trkpt lat="44.81697" lon="0.79953">
        <ele>210.8</ele>
        <time>2026-05-02T13:13:16.000Z</time>
      </trkpt>
      <trkpt lat="44.81699" lon="0.79952">
        <ele>211</ele>
        <time>2026-05-02T13:13:17.000Z</time>
      </trkpt>
      <trkpt lat="44.817" lon="0.79951">
        <ele>211.1</ele>
        <time>2026-05-02T13:13:18.000Z</time>
      </trkpt>
      <trkpt lat="44.81702" lon="0.79951">
        <ele>211.9</ele>
        <time>2026-05-02T13:13:19.000Z</time>
      </trkpt>
      <trkpt lat="44.81703" lon="0.7995">
        <ele>212.5</ele>
        <time>2026-05-02T13:13:20.000Z</time>
      </trkpt>
      <trkpt lat="44.81705" lon="0.79951">
        <ele>212.6</ele>
        <time>2026-05-02T13:13:21.000Z</time>
      </trkpt>
      <trkpt lat="44.81707" lon="0.79951">
        <ele>212.3</ele>
        <time>2026-05-02T13:13:22.000Z</time>
      </trkpt>
      <trkpt lat="44.81709" lon="0.7995">
        <ele>212</ele>
        <time>2026-05-02T13:13:23.000Z</time>
      </trkpt>
      <trkpt lat="44.81711" lon="0.79951">
        <ele>211.3</ele>
        <time>2026-05-02T13:13:24.000Z</time>
      </trkpt>
      <trkpt lat="44.81712" lon="0.7995">
        <ele>211.2</ele>
        <time>2026-05-02T13:13:25.000Z</time>
      </trkpt>
      <trkpt lat="44.81714" lon="0.7995">
        <ele>211.1</ele>
        <time>2026-05-02T13:13:26.000Z</time>
      </trkpt>
      <trkpt lat="44.81716" lon="0.7995">
        <ele>211.9</ele>
        <time>2026-05-02T13:13:27.000Z</time>
      </trkpt>
      <trkpt lat="44.81717" lon="0.79951">
        <ele>210.7</ele>
        <time>2026-05-02T13:13:28.000Z</time>
      </trkpt>
      <trkpt lat="44.81719" lon="0.79951">
        <ele>210.1</ele>
        <time>2026-05-02T13:13:29.000Z</time>
      </trkpt>
      <trkpt lat="44.8172" lon="0.79951">
        <ele>209.8</ele>
        <time>2026-05-02T13:13:30.000Z</time>
      </trkpt>
      <trkpt lat="44.81722" lon="0.79951">
        <ele>209.7</ele>
        <time>2026-05-02T13:13:31.000Z</time>
      </trkpt>
      <trkpt lat="44.81724" lon="0.79951">
        <ele>209.8</ele>
        <time>2026-05-02T13:13:32.000Z</time>
      </trkpt>
      <trkpt lat="44.81725" lon="0.79951">
        <ele>209.8</ele>
        <time>2026-05-02T13:13:33.000Z</time>
      </trkpt>
      <trkpt lat="44.81727" lon="0.79951">
        <ele>209.2</ele>
        <time>2026-05-02T13:13:34.000Z</time>
      </trkpt>
      <trkpt lat="44.81729" lon="0.79952">
        <ele>209.1</ele>
        <time>2026-05-02T13:13:35.000Z</time>
      </trkpt>
      <trkpt lat="44.8173" lon="0.79952">
        <ele>208.4</ele>
        <time>2026-05-02T13:13:36.000Z</time>
      </trkpt>
      <trkpt lat="44.81732" lon="0.79952">
        <ele>207.6</ele>
        <time>2026-05-02T13:13:37.000Z</time>
      </trkpt>
      <trkpt lat="44.81733" lon="0.79952">
        <ele>207.4</ele>
        <time>2026-05-02T13:13:38.000Z</time>
      </trkpt>
      <trkpt lat="44.81734" lon="0.79951">
        <ele>206.8</ele>
        <time>2026-05-02T13:13:39.000Z</time>
      </trkpt>
      <trkpt lat="44.81736" lon="0.7995">
        <ele>206.3</ele>
        <time>2026-05-02T13:13:40.000Z</time>
      </trkpt>
      <trkpt lat="44.81736" lon="0.79948">
        <ele>206.5</ele>
        <time>2026-05-02T13:13:41.000Z</time>
      </trkpt>
      <trkpt lat="44.81737" lon="0.79946">
        <ele>206.2</ele>
        <time>2026-05-02T13:13:42.000Z</time>
      </trkpt>
      <trkpt lat="44.81737" lon="0.79944">
        <ele>206</ele>
        <time>2026-05-02T13:13:43.000Z</time>
      </trkpt>
      <trkpt lat="44.81738" lon="0.79942">
        <ele>206.1</ele>
        <time>2026-05-02T13:13:44.000Z</time>
      </trkpt>
      <trkpt lat="44.81738" lon="0.7994">
        <ele>206</ele>
        <time>2026-05-02T13:13:45.000Z</time>
      </trkpt>
      <trkpt lat="44.81739" lon="0.79938">
        <ele>205.7</ele>
        <time>2026-05-02T13:13:46.000Z</time>
      </trkpt>
      <trkpt lat="44.81739" lon="0.79935">
        <ele>205.6</ele>
        <time>2026-05-02T13:13:47.000Z</time>
      </trkpt>
      <trkpt lat="44.81739" lon="0.79933">
        <ele>205.2</ele>
        <time>2026-05-02T13:13:48.000Z</time>
      </trkpt>
      <trkpt lat="44.81739" lon="0.7993">
        <ele>204.9</ele>
        <time>2026-05-02T13:13:49.000Z</time>
      </trkpt>
      <trkpt lat="44.81738" lon="0.79928">
        <ele>205.4</ele>
        <time>2026-05-02T13:13:50.000Z</time>
      </trkpt>
      <trkpt lat="44.81738" lon="0.79926">
        <ele>206.2</ele>
        <time>2026-05-02T13:13:51.000Z</time>
      </trkpt>
      <trkpt lat="44.81738" lon="0.79924">
        <ele>206.2</ele>
        <time>2026-05-02T13:13:52.000Z</time>
      </trkpt>
      <trkpt lat="44.81738" lon="0.79923">
        <ele>206.4</ele>
        <time>2026-05-02T13:13:53.000Z</time>
      </trkpt>
      <trkpt lat="44.81738" lon="0.79923">
        <ele>205.9</ele>
        <time>2026-05-02T13:13:54.000Z</time>
      </trkpt>
      <trkpt lat="44.81738" lon="0.79923">
        <ele>205.9</ele>
        <time>2026-05-02T13:13:55.000Z</time>
      </trkpt>
      <trkpt lat="44.81739" lon="0.79922">
        <ele>205.1</ele>
        <time>2026-05-02T13:13:56.000Z</time>
      </trkpt>
      <trkpt lat="44.81739" lon="0.79921">
        <ele>205.1</ele>
        <time>2026-05-02T13:13:57.000Z</time>
      </trkpt>
      <trkpt lat="44.8174" lon="0.7992">
        <ele>203.3</ele>
        <time>2026-05-02T13:13:58.000Z</time>
      </trkpt>
      <trkpt lat="44.8174" lon="0.7992">
        <ele>202.8</ele>
        <time>2026-05-02T13:13:59.000Z</time>
      </trkpt>
      <trkpt lat="44.81741" lon="0.79918">
        <ele>201.2</ele>
        <time>2026-05-02T13:14:00.000Z</time>
      </trkpt>
      <trkpt lat="44.81741" lon="0.79915">
        <ele>200.9</ele>
        <time>2026-05-02T13:14:01.000Z</time>
      </trkpt>
      <trkpt lat="44.81741" lon="0.79913">
        <ele>201</ele>
        <time>2026-05-02T13:14:02.000Z</time>
      </trkpt>
      <trkpt lat="44.81741" lon="0.79911">
        <ele>200.5</ele>
        <time>2026-05-02T13:14:03.000Z</time>
      </trkpt>
      <trkpt lat="44.81741" lon="0.79909">
        <ele>202.2</ele>
        <time>2026-05-02T13:14:04.000Z</time>
      </trkpt>
      <trkpt lat="44.81741" lon="0.79907">
        <ele>203.3</ele>
        <time>2026-05-02T13:14:05.000Z</time>
      </trkpt>
      <trkpt lat="44.81741" lon="0.79906">
        <ele>204.6</ele>
        <time>2026-05-02T13:14:06.000Z</time>
      </trkpt>
      <trkpt lat="44.81741" lon="0.79905">
        <ele>204.8</ele>
        <time>2026-05-02T13:14:07.000Z</time>
      </trkpt>
      <trkpt lat="44.81742" lon="0.79903">
        <ele>205.3</ele>
        <time>2026-05-02T13:14:08.000Z</time>
      </trkpt>
      <trkpt lat="44.81742" lon="0.79902">
        <ele>204.4</ele>
        <time>2026-05-02T13:14:09.000Z</time>
      </trkpt>
      <trkpt lat="44.81743" lon="0.799">
        <ele>204</ele>
        <time>2026-05-02T13:14:10.000Z</time>
      </trkpt>
      <trkpt lat="44.81744" lon="0.79899">
        <ele>204.1</ele>
        <time>2026-05-02T13:14:11.000Z</time>
      </trkpt>
      <trkpt lat="44.81745" lon="0.79898">
        <ele>204</ele>
        <time>2026-05-02T13:14:12.000Z</time>
      </trkpt>
      <trkpt lat="44.81747" lon="0.79897">
        <ele>203.4</ele>
        <time>2026-05-02T13:14:13.000Z</time>
      </trkpt>
      <trkpt lat="44.81749" lon="0.79897">
        <ele>203.5</ele>
        <time>2026-05-02T13:14:14.000Z</time>
      </trkpt>
      <trkpt lat="44.81752" lon="0.79897">
        <ele>203.7</ele>
        <time>2026-05-02T13:14:15.000Z</time>
      </trkpt>
      <trkpt lat="44.81754" lon="0.79897">
        <ele>204</ele>
        <time>2026-05-02T13:14:16.000Z</time>
      </trkpt>
      <trkpt lat="44.81756" lon="0.79897">
        <ele>203.6</ele>
        <time>2026-05-02T13:14:17.000Z</time>
      </trkpt>
      <trkpt lat="44.81758" lon="0.79897">
        <ele>203.3</ele>
        <time>2026-05-02T13:14:18.000Z</time>
      </trkpt>
      <trkpt lat="44.8176" lon="0.79898">
        <ele>203.2</ele>
        <time>2026-05-02T13:14:19.000Z</time>
      </trkpt>
      <trkpt lat="44.81762" lon="0.79898">
        <ele>203.3</ele>
        <time>2026-05-02T13:14:20.000Z</time>
      </trkpt>
      <trkpt lat="44.81764" lon="0.79899">
        <ele>203.2</ele>
        <time>2026-05-02T13:14:21.000Z</time>
      </trkpt>
      <trkpt lat="44.81766" lon="0.799">
        <ele>203.2</ele>
        <time>2026-05-02T13:14:22.000Z</time>
      </trkpt>
      <trkpt lat="44.81767" lon="0.79901">
        <ele>203.1</ele>
        <time>2026-05-02T13:14:23.000Z</time>
      </trkpt>
      <trkpt lat="44.81769" lon="0.79902">
        <ele>202.8</ele>
        <time>2026-05-02T13:14:24.000Z</time>
      </trkpt>
      <trkpt lat="44.81771" lon="0.79902">
        <ele>202.7</ele>
        <time>2026-05-02T13:14:25.000Z</time>
      </trkpt>
      <trkpt lat="44.81773" lon="0.79903">
        <ele>202.5</ele>
        <time>2026-05-02T13:14:26.000Z</time>
      </trkpt>
      <trkpt lat="44.81775" lon="0.79903">
        <ele>202.5</ele>
        <time>2026-05-02T13:14:27.000Z</time>
      </trkpt>
      <trkpt lat="44.81776" lon="0.79904">
        <ele>202.5</ele>
        <time>2026-05-02T13:14:28.000Z</time>
      </trkpt>
      <trkpt lat="44.81778" lon="0.79904">
        <ele>202.5</ele>
        <time>2026-05-02T13:14:29.000Z</time>
      </trkpt>
      <trkpt lat="44.8178" lon="0.79904">
        <ele>202.5</ele>
        <time>2026-05-02T13:14:30.000Z</time>
      </trkpt>
      <trkpt lat="44.81782" lon="0.79905">
        <ele>202.5</ele>
        <time>2026-05-02T13:14:31.000Z</time>
      </trkpt>
      <trkpt lat="44.81784" lon="0.79906">
        <ele>202.2</ele>
        <time>2026-05-02T13:14:32.000Z</time>
      </trkpt>
      <trkpt lat="44.81785" lon="0.79906">
        <ele>202.4</ele>
        <time>2026-05-02T13:14:33.000Z</time>
      </trkpt>
      <trkpt lat="44.81787" lon="0.79906">
        <ele>202.3</ele>
        <time>2026-05-02T13:14:34.000Z</time>
      </trkpt>
      <trkpt lat="44.81789" lon="0.79907">
        <ele>201.5</ele>
        <time>2026-05-02T13:14:35.000Z</time>
      </trkpt>
      <trkpt lat="44.81791" lon="0.79907">
        <ele>202.2</ele>
        <time>2026-05-02T13:14:36.000Z</time>
      </trkpt>
      <trkpt lat="44.81793" lon="0.79908">
        <ele>202</ele>
        <time>2026-05-02T13:14:37.000Z</time>
      </trkpt>
      <trkpt lat="44.81795" lon="0.79908">
        <ele>202</ele>
        <time>2026-05-02T13:14:38.000Z</time>
      </trkpt>
      <trkpt lat="44.81796" lon="0.79909">
        <ele>202.1</ele>
        <time>2026-05-02T13:14:39.000Z</time>
      </trkpt>
      <trkpt lat="44.81798" lon="0.79909">
        <ele>201.9</ele>
        <time>2026-05-02T13:14:40.000Z</time>
      </trkpt>
      <trkpt lat="44.818" lon="0.79909">
        <ele>201.7</ele>
        <time>2026-05-02T13:14:41.000Z</time>
      </trkpt>
      <trkpt lat="44.81801" lon="0.7991">
        <ele>201.4</ele>
        <time>2026-05-02T13:14:42.000Z</time>
      </trkpt>
      <trkpt lat="44.81803" lon="0.7991">
        <ele>201.4</ele>
        <time>2026-05-02T13:14:43.000Z</time>
      </trkpt>
      <trkpt lat="44.81805" lon="0.7991">
        <ele>201.4</ele>
        <time>2026-05-02T13:14:44.000Z</time>
      </trkpt>
      <trkpt lat="44.81807" lon="0.7991">
        <ele>200.9</ele>
        <time>2026-05-02T13:14:45.000Z</time>
      </trkpt>
      <trkpt lat="44.81809" lon="0.79911">
        <ele>200.8</ele>
        <time>2026-05-02T13:14:46.000Z</time>
      </trkpt>
      <trkpt lat="44.81811" lon="0.79911">
        <ele>200.8</ele>
        <time>2026-05-02T13:14:47.000Z</time>
      </trkpt>
      <trkpt lat="44.81813" lon="0.79912">
        <ele>201</ele>
        <time>2026-05-02T13:14:48.000Z</time>
      </trkpt>
      <trkpt lat="44.81814" lon="0.79912">
        <ele>201</ele>
        <time>2026-05-02T13:14:49.000Z</time>
      </trkpt>
      <trkpt lat="44.81816" lon="0.79912">
        <ele>201</ele>
        <time>2026-05-02T13:14:50.000Z</time>
      </trkpt>
      <trkpt lat="44.81818" lon="0.79913">
        <ele>201</ele>
        <time>2026-05-02T13:14:51.000Z</time>
      </trkpt>
      <trkpt lat="44.8182" lon="0.79914">
        <ele>201.1</ele>
        <time>2026-05-02T13:14:52.000Z</time>
      </trkpt>
      <trkpt lat="44.81822" lon="0.79914">
        <ele>201</ele>
        <time>2026-05-02T13:14:53.000Z</time>
      </trkpt>
      <trkpt lat="44.81824" lon="0.79914">
        <ele>201.2</ele>
        <time>2026-05-02T13:14:54.000Z</time>
      </trkpt>
      <trkpt lat="44.81826" lon="0.79914">
        <ele>201.3</ele>
        <time>2026-05-02T13:14:55.000Z</time>
      </trkpt>
      <trkpt lat="44.81827" lon="0.79915">
        <ele>201.2</ele>
        <time>2026-05-02T13:14:56.000Z</time>
      </trkpt>
      <trkpt lat="44.81829" lon="0.79916">
        <ele>201.2</ele>
        <time>2026-05-02T13:14:57.000Z</time>
      </trkpt>
      <trkpt lat="44.8183" lon="0.79916">
        <ele>201.3</ele>
        <time>2026-05-02T13:14:58.000Z</time>
      </trkpt>
      <trkpt lat="44.81832" lon="0.79917">
        <ele>201</ele>
        <time>2026-05-02T13:14:59.000Z</time>
      </trkpt>
      <trkpt lat="44.81834" lon="0.79918">
        <ele>200.8</ele>
        <time>2026-05-02T13:15:00.000Z</time>
      </trkpt>
      <trkpt lat="44.81835" lon="0.79919">
        <ele>200.5</ele>
        <time>2026-05-02T13:15:01.000Z</time>
      </trkpt>
      <trkpt lat="44.81837" lon="0.7992">
        <ele>200.3</ele>
        <time>2026-05-02T13:15:02.000Z</time>
      </trkpt>
      <trkpt lat="44.81839" lon="0.79921">
        <ele>200.2</ele>
        <time>2026-05-02T13:15:03.000Z</time>
      </trkpt>
      <trkpt lat="44.8184" lon="0.79922">
        <ele>199.8</ele>
        <time>2026-05-02T13:15:04.000Z</time>
      </trkpt>
      <trkpt lat="44.81842" lon="0.79923">
        <ele>199.5</ele>
        <time>2026-05-02T13:15:05.000Z</time>
      </trkpt>
      <trkpt lat="44.81843" lon="0.79923">
        <ele>199.7</ele>
        <time>2026-05-02T13:15:06.000Z</time>
      </trkpt>
      <trkpt lat="44.81845" lon="0.79924">
        <ele>199.6</ele>
        <time>2026-05-02T13:15:07.000Z</time>
      </trkpt>
      <trkpt lat="44.81846" lon="0.79925">
        <ele>199.5</ele>
        <time>2026-05-02T13:15:08.000Z</time>
      </trkpt>
      <trkpt lat="44.81847" lon="0.79925">
        <ele>199.6</ele>
        <time>2026-05-02T13:15:09.000Z</time>
      </trkpt>
      <trkpt lat="44.81849" lon="0.79925">
        <ele>199.3</ele>
        <time>2026-05-02T13:15:10.000Z</time>
      </trkpt>
      <trkpt lat="44.8185" lon="0.79926">
        <ele>199.3</ele>
        <time>2026-05-02T13:15:11.000Z</time>
      </trkpt>
      <trkpt lat="44.81851" lon="0.79926">
        <ele>199.3</ele>
        <time>2026-05-02T13:15:12.000Z</time>
      </trkpt>
      <trkpt lat="44.81853" lon="0.79926">
        <ele>199.1</ele>
        <time>2026-05-02T13:15:13.000Z</time>
      </trkpt>
      <trkpt lat="44.81855" lon="0.79926">
        <ele>198.2</ele>
        <time>2026-05-02T13:15:14.000Z</time>
      </trkpt>
      <trkpt lat="44.81857" lon="0.79927">
        <ele>198</ele>
        <time>2026-05-02T13:15:15.000Z</time>
      </trkpt>
      <trkpt lat="44.81858" lon="0.79926">
        <ele>199</ele>
        <time>2026-05-02T13:15:16.000Z</time>
      </trkpt>
      <trkpt lat="44.8186" lon="0.79926">
        <ele>198.9</ele>
        <time>2026-05-02T13:15:17.000Z</time>
      </trkpt>
      <trkpt lat="44.81861" lon="0.79925">
        <ele>198.4</ele>
        <time>2026-05-02T13:15:18.000Z</time>
      </trkpt>
      <trkpt lat="44.81863" lon="0.79925">
        <ele>197.8</ele>
        <time>2026-05-02T13:15:19.000Z</time>
      </trkpt>
      <trkpt lat="44.81864" lon="0.79926">
        <ele>197.6</ele>
        <time>2026-05-02T13:15:20.000Z</time>
      </trkpt>
      <trkpt lat="44.81866" lon="0.79926">
        <ele>197.6</ele>
        <time>2026-05-02T13:15:21.000Z</time>
      </trkpt>
      <trkpt lat="44.81867" lon="0.79926">
        <ele>197.2</ele>
        <time>2026-05-02T13:15:22.000Z</time>
      </trkpt>
      <trkpt lat="44.81869" lon="0.79927">
        <ele>195.6</ele>
        <time>2026-05-02T13:15:23.000Z</time>
      </trkpt>
      <trkpt lat="44.8187" lon="0.79928">
        <ele>194.7</ele>
        <time>2026-05-02T13:15:24.000Z</time>
      </trkpt>
      <trkpt lat="44.81872" lon="0.79929">
        <ele>194.1</ele>
        <time>2026-05-02T13:15:25.000Z</time>
      </trkpt>
      <trkpt lat="44.81873" lon="0.79929">
        <ele>193.2</ele>
        <time>2026-05-02T13:15:26.000Z</time>
      </trkpt>
      <trkpt lat="44.81875" lon="0.7993">
        <ele>192.8</ele>
        <time>2026-05-02T13:15:27.000Z</time>
      </trkpt>
      <trkpt lat="44.81876" lon="0.79932">
        <ele>191.1</ele>
        <time>2026-05-02T13:15:28.000Z</time>
      </trkpt>
      <trkpt lat="44.81878" lon="0.79933">
        <ele>192.2</ele>
        <time>2026-05-02T13:15:29.000Z</time>
      </trkpt>
      <trkpt lat="44.8188" lon="0.79934">
        <ele>192.1</ele>
        <time>2026-05-02T13:15:30.000Z</time>
      </trkpt>
      <trkpt lat="44.81882" lon="0.79935">
        <ele>193.9</ele>
        <time>2026-05-02T13:15:31.000Z</time>
      </trkpt>
      <trkpt lat="44.81884" lon="0.79935">
        <ele>194.1</ele>
        <time>2026-05-02T13:15:32.000Z</time>
      </trkpt>
      <trkpt lat="44.81885" lon="0.79935">
        <ele>193.8</ele>
        <time>2026-05-02T13:15:33.000Z</time>
      </trkpt>
      <trkpt lat="44.81887" lon="0.79934">
        <ele>193.4</ele>
        <time>2026-05-02T13:15:34.000Z</time>
      </trkpt>
      <trkpt lat="44.81889" lon="0.79933">
        <ele>193.3</ele>
        <time>2026-05-02T13:15:35.000Z</time>
      </trkpt>
      <trkpt lat="44.8189" lon="0.79932">
        <ele>193</ele>
        <time>2026-05-02T13:15:36.000Z</time>
      </trkpt>
      <trkpt lat="44.81892" lon="0.79931">
        <ele>192.6</ele>
        <time>2026-05-02T13:15:37.000Z</time>
      </trkpt>
      <trkpt lat="44.81893" lon="0.7993">
        <ele>192.7</ele>
        <time>2026-05-02T13:15:38.000Z</time>
      </trkpt>
      <trkpt lat="44.81894" lon="0.79928">
        <ele>193.8</ele>
        <time>2026-05-02T13:15:39.000Z</time>
      </trkpt>
      <trkpt lat="44.81896" lon="0.79926">
        <ele>194.1</ele>
        <time>2026-05-02T13:15:40.000Z</time>
      </trkpt>
      <trkpt lat="44.81897" lon="0.79925">
        <ele>194.3</ele>
        <time>2026-05-02T13:15:41.000Z</time>
      </trkpt>
      <trkpt lat="44.81899" lon="0.79923">
        <ele>194.9</ele>
        <time>2026-05-02T13:15:42.000Z</time>
      </trkpt>
      <trkpt lat="44.81901" lon="0.79922">
        <ele>194.5</ele>
        <time>2026-05-02T13:15:43.000Z</time>
      </trkpt>
      <trkpt lat="44.81903" lon="0.79921">
        <ele>194.5</ele>
        <time>2026-05-02T13:15:44.000Z</time>
      </trkpt>
      <trkpt lat="44.81905" lon="0.7992">
        <ele>194.3</ele>
        <time>2026-05-02T13:15:45.000Z</time>
      </trkpt>
      <trkpt lat="44.81907" lon="0.79919">
        <ele>194.1</ele>
        <time>2026-05-02T13:15:46.000Z</time>
      </trkpt>
      <trkpt lat="44.81909" lon="0.79917">
        <ele>194.7</ele>
        <time>2026-05-02T13:15:47.000Z</time>
      </trkpt>
      <trkpt lat="44.8191" lon="0.79916">
        <ele>193.6</ele>
        <time>2026-05-02T13:15:48.000Z</time>
      </trkpt>
      <trkpt lat="44.81912" lon="0.79914">
        <ele>192.5</ele>
        <time>2026-05-02T13:15:49.000Z</time>
      </trkpt>
      <trkpt lat="44.81913" lon="0.79912">
        <ele>192.3</ele>
        <time>2026-05-02T13:15:50.000Z</time>
      </trkpt>
      <trkpt lat="44.81915" lon="0.79911">
        <ele>192.4</ele>
        <time>2026-05-02T13:15:51.000Z</time>
      </trkpt>
      <trkpt lat="44.81917" lon="0.79911">
        <ele>192.4</ele>
        <time>2026-05-02T13:15:52.000Z</time>
      </trkpt>
      <trkpt lat="44.81918" lon="0.79909">
        <ele>192.9</ele>
        <time>2026-05-02T13:15:53.000Z</time>
      </trkpt>
      <trkpt lat="44.8192" lon="0.79909">
        <ele>191.3</ele>
        <time>2026-05-02T13:15:54.000Z</time>
      </trkpt>
      <trkpt lat="44.81921" lon="0.79908">
        <ele>190.8</ele>
        <time>2026-05-02T13:15:55.000Z</time>
      </trkpt>
      <trkpt lat="44.81922" lon="0.79905">
        <ele>193.2</ele>
        <time>2026-05-02T13:15:56.000Z</time>
      </trkpt>
      <trkpt lat="44.81922" lon="0.79904">
        <ele>193.3</ele>
        <time>2026-05-02T13:15:57.000Z</time>
      </trkpt>
      <trkpt lat="44.81922" lon="0.79903">
        <ele>193.2</ele>
        <time>2026-05-02T13:15:58.000Z</time>
      </trkpt>
      <trkpt lat="44.81922" lon="0.79903">
        <ele>192.9</ele>
        <time>2026-05-02T13:15:59.000Z</time>
      </trkpt>
      <trkpt lat="44.81923" lon="0.79901">
        <ele>193.1</ele>
        <time>2026-05-02T13:16:00.000Z</time>
      </trkpt>
      <trkpt lat="44.81923" lon="0.799">
        <ele>193.7</ele>
        <time>2026-05-02T13:16:01.000Z</time>
      </trkpt>
      <trkpt lat="44.81924" lon="0.79899">
        <ele>193.9</ele>
        <time>2026-05-02T13:16:02.000Z</time>
      </trkpt>
      <trkpt lat="44.81925" lon="0.79898">
        <ele>195.3</ele>
        <time>2026-05-02T13:16:03.000Z</time>
      </trkpt>
      <trkpt lat="44.81925" lon="0.79897">
        <ele>195.3</ele>
        <time>2026-05-02T13:16:04.000Z</time>
      </trkpt>
      <trkpt lat="44.81926" lon="0.79896">
        <ele>195.2</ele>
        <time>2026-05-02T13:16:05.000Z</time>
      </trkpt>
      <trkpt lat="44.81927" lon="0.79896">
        <ele>195.6</ele>
        <time>2026-05-02T13:16:06.000Z</time>
      </trkpt>
      <trkpt lat="44.81929" lon="0.79895">
        <ele>196</ele>
        <time>2026-05-02T13:16:07.000Z</time>
      </trkpt>
      <trkpt lat="44.81932" lon="0.79893">
        <ele>195.6</ele>
        <time>2026-05-02T13:16:08.000Z</time>
      </trkpt>
      <trkpt lat="44.81934" lon="0.79892">
        <ele>195.3</ele>
        <time>2026-05-02T13:16:09.000Z</time>
      </trkpt>
      <trkpt lat="44.81936" lon="0.79891">
        <ele>195.5</ele>
        <time>2026-05-02T13:16:10.000Z</time>
      </trkpt>
      <trkpt lat="44.81938" lon="0.7989">
        <ele>195.9</ele>
        <time>2026-05-02T13:16:11.000Z</time>
      </trkpt>
      <trkpt lat="44.8194" lon="0.79889">
        <ele>195.6</ele>
        <time>2026-05-02T13:16:12.000Z</time>
      </trkpt>
      <trkpt lat="44.81942" lon="0.79889">
        <ele>195.6</ele>
        <time>2026-05-02T13:16:13.000Z</time>
      </trkpt>
      <trkpt lat="44.81944" lon="0.79888">
        <ele>196</ele>
        <time>2026-05-02T13:16:14.000Z</time>
      </trkpt>
      <trkpt lat="44.81946" lon="0.79887">
        <ele>196.6</ele>
        <time>2026-05-02T13:16:15.000Z</time>
      </trkpt>
      <trkpt lat="44.81948" lon="0.79886">
        <ele>196.8</ele>
        <time>2026-05-02T13:16:16.000Z</time>
      </trkpt>
      <trkpt lat="44.8195" lon="0.79885">
        <ele>196.7</ele>
        <time>2026-05-02T13:16:17.000Z</time>
      </trkpt>
      <trkpt lat="44.81951" lon="0.79884">
        <ele>197.3</ele>
        <time>2026-05-02T13:16:18.000Z</time>
      </trkpt>
      <trkpt lat="44.81953" lon="0.79883">
        <ele>198.2</ele>
        <time>2026-05-02T13:16:19.000Z</time>
      </trkpt>
      <trkpt lat="44.81954" lon="0.79882">
        <ele>198.2</ele>
        <time>2026-05-02T13:16:20.000Z</time>
      </trkpt>
      <trkpt lat="44.81956" lon="0.79881">
        <ele>198</ele>
        <time>2026-05-02T13:16:21.000Z</time>
      </trkpt>
      <trkpt lat="44.81958" lon="0.7988">
        <ele>199.4</ele>
        <time>2026-05-02T13:16:22.000Z</time>
      </trkpt>
      <trkpt lat="44.8196" lon="0.79879">
        <ele>199.4</ele>
        <time>2026-05-02T13:16:23.000Z</time>
      </trkpt>
      <trkpt lat="44.81962" lon="0.79877">
        <ele>200.5</ele>
        <time>2026-05-02T13:16:24.000Z</time>
      </trkpt>
      <trkpt lat="44.81964" lon="0.79876">
        <ele>200.4</ele>
        <time>2026-05-02T13:16:25.000Z</time>
      </trkpt>
      <trkpt lat="44.81964" lon="0.79875">
        <ele>200.7</ele>
        <time>2026-05-02T13:16:26.000Z</time>
      </trkpt>
      <trkpt lat="44.81965" lon="0.79875">
        <ele>200.5</ele>
        <time>2026-05-02T13:16:27.000Z</time>
      </trkpt>
      <trkpt lat="44.81966" lon="0.79875">
        <ele>201</ele>
        <time>2026-05-02T13:16:28.000Z</time>
      </trkpt>
      <trkpt lat="44.81967" lon="0.79873">
        <ele>198.4</ele>
        <time>2026-05-02T13:16:29.000Z</time>
      </trkpt>
      <trkpt lat="44.81968" lon="0.79872">
        <ele>197.7</ele>
        <time>2026-05-02T13:16:30.000Z</time>
      </trkpt>
      <trkpt lat="44.8197" lon="0.79871">
        <ele>196.7</ele>
        <time>2026-05-02T13:16:31.000Z</time>
      </trkpt>
      <trkpt lat="44.81971" lon="0.79869">
        <ele>194.7</ele>
        <time>2026-05-02T13:16:32.000Z</time>
      </trkpt>
      <trkpt lat="44.81973" lon="0.79868">
        <ele>194.7</ele>
        <time>2026-05-02T13:16:33.000Z</time>
      </trkpt>
      <trkpt lat="44.81973" lon="0.79867">
        <ele>193.8</ele>
        <time>2026-05-02T13:16:34.000Z</time>
      </trkpt>
      <trkpt lat="44.81974" lon="0.79866">
        <ele>193.2</ele>
        <time>2026-05-02T13:16:35.000Z</time>
      </trkpt>
      <trkpt lat="44.81974" lon="0.79864">
        <ele>192.8</ele>
        <time>2026-05-02T13:16:36.000Z</time>
      </trkpt>
      <trkpt lat="44.81976" lon="0.79863">
        <ele>191.7</ele>
        <time>2026-05-02T13:16:37.000Z</time>
      </trkpt>
      <trkpt lat="44.81977" lon="0.79861">
        <ele>190</ele>
        <time>2026-05-02T13:16:38.000Z</time>
      </trkpt>
      <trkpt lat="44.81976" lon="0.79861">
        <ele>190.7</ele>
        <time>2026-05-02T13:16:39.000Z</time>
      </trkpt>
      <trkpt lat="44.81976" lon="0.79862">
        <ele>190.8</ele>
        <time>2026-05-02T13:16:40.000Z</time>
      </trkpt>
      <trkpt lat="44.81976" lon="0.79862">
        <ele>190.7</ele>
        <time>2026-05-02T13:16:41.000Z</time>
      </trkpt>
      <trkpt lat="44.81976" lon="0.79862">
        <ele>190.7</ele>
        <time>2026-05-02T13:16:42.000Z</time>
      </trkpt>
      <trkpt lat="44.81975" lon="0.79863">
        <ele>190</ele>
        <time>2026-05-02T13:16:43.000Z</time>
      </trkpt>
      <trkpt lat="44.81975" lon="0.79864">
        <ele>189.3</ele>
        <time>2026-05-02T13:16:44.000Z</time>
      </trkpt>
      <trkpt lat="44.81974" lon="0.79865">
        <ele>188.7</ele>
        <time>2026-05-02T13:16:45.000Z</time>
      </trkpt>
      <trkpt lat="44.81972" lon="0.79867">
        <ele>188.9</ele>
        <time>2026-05-02T13:16:46.000Z</time>
      </trkpt>
      <trkpt lat="44.8197" lon="0.79868">
        <ele>189.1</ele>
        <time>2026-05-02T13:16:47.000Z</time>
      </trkpt>
      <trkpt lat="44.81968" lon="0.79869">
        <ele>189.2</ele>
        <time>2026-05-02T13:16:48.000Z</time>
      </trkpt>
      <trkpt lat="44.81967" lon="0.79871">
        <ele>191</ele>
        <time>2026-05-02T13:16:49.000Z</time>
      </trkpt>
      <trkpt lat="44.81966" lon="0.79871">
        <ele>190.6</ele>
        <time>2026-05-02T13:16:50.000Z</time>
      </trkpt>
      <trkpt lat="44.81966" lon="0.79871">
        <ele>190.6</ele>
        <time>2026-05-02T13:16:51.000Z</time>
      </trkpt>
      <trkpt lat="44.81966" lon="0.79871">
        <ele>190.6</ele>
        <time>2026-05-02T13:16:52.000Z</time>
      </trkpt>
      <trkpt lat="44.81966" lon="0.79871">
        <ele>190.6</ele>
        <time>2026-05-02T13:16:53.000Z</time>
      </trkpt>
      <trkpt lat="44.81966" lon="0.79871">
        <ele>190.6</ele>
        <time>2026-05-02T13:16:54.000Z</time>
      </trkpt>
      <trkpt lat="44.81966" lon="0.79871">
        <ele>190.6</ele>
        <time>2026-05-02T13:16:55.000Z</time>
      </trkpt>
      <trkpt lat="44.81965" lon="0.79872">
        <ele>190.1</ele>
        <time>2026-05-02T13:16:56.000Z</time>
      </trkpt>
      <trkpt lat="44.81965" lon="0.79872">
        <ele>189.8</ele>
        <time>2026-05-02T13:16:57.000Z</time>
      </trkpt>
      <trkpt lat="44.81963" lon="0.79873">
        <ele>190.6</ele>
        <time>2026-05-02T13:16:58.000Z</time>
      </trkpt>
      <trkpt lat="44.81962" lon="0.79875">
        <ele>191.5</ele>
        <time>2026-05-02T13:16:59.000Z</time>
      </trkpt>
      <trkpt lat="44.8196" lon="0.79876">
        <ele>191.9</ele>
        <time>2026-05-02T13:17:00.000Z</time>
      </trkpt>
      <trkpt lat="44.81959" lon="0.79877">
        <ele>192.1</ele>
        <time>2026-05-02T13:17:01.000Z</time>
      </trkpt>
      <trkpt lat="44.81959" lon="0.79878">
        <ele>192.2</ele>
        <time>2026-05-02T13:17:02.000Z</time>
      </trkpt>
      <trkpt lat="44.81956" lon="0.79876">
        <ele>192.4</ele>
        <time>2026-05-02T13:17:03.000Z</time>
      </trkpt>
      <trkpt lat="44.81956" lon="0.79876">
        <ele>192.4</ele>
        <time>2026-05-02T13:17:04.000Z</time>
      </trkpt>
      <trkpt lat="44.81956" lon="0.79874">
        <ele>192.5</ele>
        <time>2026-05-02T13:17:05.000Z</time>
      </trkpt>
      <trkpt lat="44.81955" lon="0.79874">
        <ele>193.2</ele>
        <time>2026-05-02T13:17:06.000Z</time>
      </trkpt>
      <trkpt lat="44.81953" lon="0.79875">
        <ele>193.5</ele>
        <time>2026-05-02T13:17:07.000Z</time>
      </trkpt>
      <trkpt lat="44.8195" lon="0.79875">
        <ele>193.7</ele>
        <time>2026-05-02T13:17:08.000Z</time>
      </trkpt>
      <trkpt lat="44.8195" lon="0.79875">
        <ele>193.7</ele>
        <time>2026-05-02T13:17:09.000Z</time>
      </trkpt>
      <trkpt lat="44.8195" lon="0.79875">
        <ele>193.7</ele>
        <time>2026-05-02T13:17:10.000Z</time>
      </trkpt>
      <trkpt lat="44.8195" lon="0.79875">
        <ele>193.7</ele>
        <time>2026-05-02T13:17:11.000Z</time>
      </trkpt>
      <trkpt lat="44.8195" lon="0.79875">
        <ele>193.7</ele>
        <time>2026-05-02T13:17:12.000Z</time>
      </trkpt>
      <trkpt lat="44.8195" lon="0.79875">
        <ele>193.7</ele>
        <time>2026-05-02T13:17:13.000Z</time>
      </trkpt>
      <trkpt lat="44.8195" lon="0.79875">
        <ele>193.8</ele>
        <time>2026-05-02T13:17:14.000Z</time>
      </trkpt>
      <trkpt lat="44.8195" lon="0.79875">
        <ele>193.8</ele>
        <time>2026-05-02T13:17:15.000Z</time>
      </trkpt>
      <trkpt lat="44.8195" lon="0.79876">
        <ele>194.2</ele>
        <time>2026-05-02T13:17:16.000Z</time>
      </trkpt>
      <trkpt lat="44.8195" lon="0.79876">
        <ele>194.2</ele>
        <time>2026-05-02T13:17:17.000Z</time>
      </trkpt>
      <trkpt lat="44.81951" lon="0.79876">
        <ele>194.2</ele>
        <time>2026-05-02T13:17:18.000Z</time>
      </trkpt>
      <trkpt lat="44.81952" lon="0.79876">
        <ele>195.1</ele>
        <time>2026-05-02T13:17:19.000Z</time>
      </trkpt>
      <trkpt lat="44.81954" lon="0.79875">
        <ele>196.6</ele>
        <time>2026-05-02T13:17:20.000Z</time>
      </trkpt>
      <trkpt lat="44.81955" lon="0.79875">
        <ele>197.4</ele>
        <time>2026-05-02T13:17:21.000Z</time>
      </trkpt>
      <trkpt lat="44.81956" lon="0.79875">
        <ele>197.5</ele>
        <time>2026-05-02T13:17:22.000Z</time>
      </trkpt>
      <trkpt lat="44.81957" lon="0.79874">
        <ele>198</ele>
        <time>2026-05-02T13:17:23.000Z</time>
      </trkpt>
      <trkpt lat="44.81958" lon="0.79873">
        <ele>198.1</ele>
        <time>2026-05-02T13:17:24.000Z</time>
      </trkpt>
      <trkpt lat="44.81959" lon="0.79871">
        <ele>198.8</ele>
        <time>2026-05-02T13:17:25.000Z</time>
      </trkpt>
      <trkpt lat="44.8196" lon="0.79869">
        <ele>199.4</ele>
        <time>2026-05-02T13:17:26.000Z</time>
      </trkpt>
      <trkpt lat="44.81961" lon="0.79867">
        <ele>200.4</ele>
        <time>2026-05-02T13:17:27.000Z</time>
      </trkpt>
      <trkpt lat="44.81962" lon="0.79866">
        <ele>201.2</ele>
        <time>2026-05-02T13:17:28.000Z</time>
      </trkpt>
      <trkpt lat="44.81963" lon="0.79864">
        <ele>201.6</ele>
        <time>2026-05-02T13:17:29.000Z</time>
      </trkpt>
      <trkpt lat="44.81965" lon="0.79863">
        <ele>201.6</ele>
        <time>2026-05-02T13:17:30.000Z</time>
      </trkpt>
      <trkpt lat="44.81966" lon="0.79861">
        <ele>201.4</ele>
        <time>2026-05-02T13:17:31.000Z</time>
      </trkpt>
      <trkpt lat="44.81968" lon="0.79858">
        <ele>201.3</ele>
        <time>2026-05-02T13:17:32.000Z</time>
      </trkpt>
      <trkpt lat="44.81969" lon="0.79856">
        <ele>201.2</ele>
        <time>2026-05-02T13:17:33.000Z</time>
      </trkpt>
      <trkpt lat="44.81971" lon="0.79854">
        <ele>201.4</ele>
        <time>2026-05-02T13:17:34.000Z</time>
      </trkpt>
      <trkpt lat="44.81972" lon="0.79852">
        <ele>202.5</ele>
        <time>2026-05-02T13:17:35.000Z</time>
      </trkpt>
      <trkpt lat="44.81974" lon="0.79849">
        <ele>204.4</ele>
        <time>2026-05-02T13:17:36.000Z</time>
      </trkpt>
      <trkpt lat="44.81976" lon="0.79846">
        <ele>204.9</ele>
        <time>2026-05-02T13:17:37.000Z</time>
      </trkpt>
      <trkpt lat="44.81977" lon="0.79845">
        <ele>205</ele>
        <time>2026-05-02T13:17:38.000Z</time>
      </trkpt>
      <trkpt lat="44.81978" lon="0.79843">
        <ele>205</ele>
        <time>2026-05-02T13:17:39.000Z</time>
      </trkpt>
      <trkpt lat="44.81979" lon="0.79841">
        <ele>205.7</ele>
        <time>2026-05-02T13:17:40.000Z</time>
      </trkpt>
      <trkpt lat="44.8198" lon="0.79838">
        <ele>207.5</ele>
        <time>2026-05-02T13:17:41.000Z</time>
      </trkpt>
      <trkpt lat="44.81981" lon="0.79836">
        <ele>208.2</ele>
        <time>2026-05-02T13:17:42.000Z</time>
      </trkpt>
      <trkpt lat="44.81983" lon="0.79834">
        <ele>209.2</ele>
        <time>2026-05-02T13:17:43.000Z</time>
      </trkpt>
      <trkpt lat="44.81984" lon="0.79832">
        <ele>209.7</ele>
        <time>2026-05-02T13:17:44.000Z</time>
      </trkpt>
      <trkpt lat="44.81986" lon="0.7983">
        <ele>210.1</ele>
        <time>2026-05-02T13:17:45.000Z</time>
      </trkpt>
      <trkpt lat="44.81988" lon="0.79828">
        <ele>210.6</ele>
        <time>2026-05-02T13:17:46.000Z</time>
      </trkpt>
      <trkpt lat="44.81989" lon="0.79826">
        <ele>211.4</ele>
        <time>2026-05-02T13:17:47.000Z</time>
      </trkpt>
      <trkpt lat="44.8199" lon="0.79824">
        <ele>212.2</ele>
        <time>2026-05-02T13:17:48.000Z</time>
      </trkpt>
      <trkpt lat="44.81991" lon="0.79823">
        <ele>211.9</ele>
        <time>2026-05-02T13:17:49.000Z</time>
      </trkpt>
      <trkpt lat="44.81992" lon="0.79821">
        <ele>212.3</ele>
        <time>2026-05-02T13:17:50.000Z</time>
      </trkpt>
      <trkpt lat="44.81993" lon="0.79819">
        <ele>212.5</ele>
        <time>2026-05-02T13:17:51.000Z</time>
      </trkpt>
      <trkpt lat="44.81994" lon="0.79817">
        <ele>212.8</ele>
        <time>2026-05-02T13:17:52.000Z</time>
      </trkpt>
      <trkpt lat="44.81995" lon="0.79816">
        <ele>213.1</ele>
        <time>2026-05-02T13:17:53.000Z</time>
      </trkpt>
      <trkpt lat="44.81997" lon="0.79814">
        <ele>212.8</ele>
        <time>2026-05-02T13:17:54.000Z</time>
      </trkpt>
      <trkpt lat="44.81998" lon="0.79812">
        <ele>211.4</ele>
        <time>2026-05-02T13:17:55.000Z</time>
      </trkpt>
      <trkpt lat="44.81999" lon="0.79811">
        <ele>211</ele>
        <time>2026-05-02T13:17:56.000Z</time>
      </trkpt>
      <trkpt lat="44.82" lon="0.79809">
        <ele>211.4</ele>
        <time>2026-05-02T13:17:57.000Z</time>
      </trkpt>
      <trkpt lat="44.82001" lon="0.79808">
        <ele>211.7</ele>
        <time>2026-05-02T13:17:58.000Z</time>
      </trkpt>
      <trkpt lat="44.82002" lon="0.79806">
        <ele>211.6</ele>
        <time>2026-05-02T13:17:59.000Z</time>
      </trkpt>
      <trkpt lat="44.82003" lon="0.79805">
        <ele>211.6</ele>
        <time>2026-05-02T13:18:00.000Z</time>
      </trkpt>
      <trkpt lat="44.82004" lon="0.79803">
        <ele>212.7</ele>
        <time>2026-05-02T13:18:01.000Z</time>
      </trkpt>
      <trkpt lat="44.82005" lon="0.79801">
        <ele>212.2</ele>
        <time>2026-05-02T13:18:02.000Z</time>
      </trkpt>
      <trkpt lat="44.82006" lon="0.79799">
        <ele>213.2</ele>
        <time>2026-05-02T13:18:03.000Z</time>
      </trkpt>
      <trkpt lat="44.82007" lon="0.79798">
        <ele>213.3</ele>
        <time>2026-05-02T13:18:04.000Z</time>
      </trkpt>
      <trkpt lat="44.82008" lon="0.79796">
        <ele>213.1</ele>
        <time>2026-05-02T13:18:05.000Z</time>
      </trkpt>
      <trkpt lat="44.82009" lon="0.79794">
        <ele>212.6</ele>
        <time>2026-05-02T13:18:06.000Z</time>
      </trkpt>
      <trkpt lat="44.8201" lon="0.79793">
        <ele>213.2</ele>
        <time>2026-05-02T13:18:07.000Z</time>
      </trkpt>
      <trkpt lat="44.8201" lon="0.79791">
        <ele>213.3</ele>
        <time>2026-05-02T13:18:08.000Z</time>
      </trkpt>
      <trkpt lat="44.82011" lon="0.7979">
        <ele>212.7</ele>
        <time>2026-05-02T13:18:09.000Z</time>
      </trkpt>
      <trkpt lat="44.82012" lon="0.79788">
        <ele>213.6</ele>
        <time>2026-05-02T13:18:10.000Z</time>
      </trkpt>
      <trkpt lat="44.82013" lon="0.79789">
        <ele>215.1</ele>
        <time>2026-05-02T13:18:11.000Z</time>
      </trkpt>
      <trkpt lat="44.82014" lon="0.79789">
        <ele>215.1</ele>
        <time>2026-05-02T13:18:12.000Z</time>
      </trkpt>
      <trkpt lat="44.82014" lon="0.79789">
        <ele>215.1</ele>
        <time>2026-05-02T13:18:13.000Z</time>
      </trkpt>
      <trkpt lat="44.82014" lon="0.79789">
        <ele>215.4</ele>
        <time>2026-05-02T13:18:14.000Z</time>
      </trkpt>
      <trkpt lat="44.82014" lon="0.79789">
        <ele>215.4</ele>
        <time>2026-05-02T13:18:15.000Z</time>
      </trkpt>
      <trkpt lat="44.82014" lon="0.79789">
        <ele>215.9</ele>
        <time>2026-05-02T13:18:16.000Z</time>
      </trkpt>
      <trkpt lat="44.82014" lon="0.79789">
        <ele>216.2</ele>
        <time>2026-05-02T13:18:17.000Z</time>
      </trkpt>
      <trkpt lat="44.82014" lon="0.79789">
        <ele>216.2</ele>
        <time>2026-05-02T13:18:18.000Z</time>
      </trkpt>
      <trkpt lat="44.82014" lon="0.79789">
        <ele>216.2</ele>
        <time>2026-05-02T13:18:19.000Z</time>
      </trkpt>
      <trkpt lat="44.82014" lon="0.79789">
        <ele>216.8</ele>
        <time>2026-05-02T13:18:20.000Z</time>
      </trkpt>
      <trkpt lat="44.82014" lon="0.79789">
        <ele>216.8</ele>
        <time>2026-05-02T13:18:21.000Z</time>
      </trkpt>
      <trkpt lat="44.82014" lon="0.79789">
        <ele>216.8</ele>
        <time>2026-05-02T13:18:22.000Z</time>
      </trkpt>
      <trkpt lat="44.82014" lon="0.79789">
        <ele>216.5</ele>
        <time>2026-05-02T13:18:23.000Z</time>
      </trkpt>
      <trkpt lat="44.82015" lon="0.79788">
        <ele>216.7</ele>
        <time>2026-05-02T13:18:24.000Z</time>
      </trkpt>
      <trkpt lat="44.82016" lon="0.79787">
        <ele>216.6</ele>
        <time>2026-05-02T13:18:25.000Z</time>
      </trkpt>
      <trkpt lat="44.82017" lon="0.79786">
        <ele>216.2</ele>
        <time>2026-05-02T13:18:26.000Z</time>
      </trkpt>
      <trkpt lat="44.82018" lon="0.79786">
        <ele>215.6</ele>
        <time>2026-05-02T13:18:27.000Z</time>
      </trkpt>
      <trkpt lat="44.8202" lon="0.79786">
        <ele>215.8</ele>
        <time>2026-05-02T13:18:28.000Z</time>
      </trkpt>
      <trkpt lat="44.82022" lon="0.79786">
        <ele>215.6</ele>
        <time>2026-05-02T13:18:29.000Z</time>
      </trkpt>
      <trkpt lat="44.82023" lon="0.79786">
        <ele>215.3</ele>
        <time>2026-05-02T13:18:30.000Z</time>
      </trkpt>
      <trkpt lat="44.82025" lon="0.79786">
        <ele>214.9</ele>
        <time>2026-05-02T13:18:31.000Z</time>
      </trkpt>
      <trkpt lat="44.82027" lon="0.79788">
        <ele>214.9</ele>
        <time>2026-05-02T13:18:32.000Z</time>
      </trkpt>
      <trkpt lat="44.82029" lon="0.79789">
        <ele>215.2</ele>
        <time>2026-05-02T13:18:33.000Z</time>
      </trkpt>
      <trkpt lat="44.82031" lon="0.7979">
        <ele>215.3</ele>
        <time>2026-05-02T13:18:34.000Z</time>
      </trkpt>
      <trkpt lat="44.82033" lon="0.79791">
        <ele>215</ele>
        <time>2026-05-02T13:18:35.000Z</time>
      </trkpt>
      <trkpt lat="44.82036" lon="0.79792">
        <ele>214.7</ele>
        <time>2026-05-02T13:18:36.000Z</time>
      </trkpt>
      <trkpt lat="44.82037" lon="0.79792">
        <ele>214.7</ele>
        <time>2026-05-02T13:18:37.000Z</time>
      </trkpt>
      <trkpt lat="44.82039" lon="0.79793">
        <ele>215</ele>
        <time>2026-05-02T13:18:38.000Z</time>
      </trkpt>
      <trkpt lat="44.8204" lon="0.79794">
        <ele>214.5</ele>
        <time>2026-05-02T13:18:39.000Z</time>
      </trkpt>
      <trkpt lat="44.82041" lon="0.79794">
        <ele>214.5</ele>
        <time>2026-05-02T13:18:40.000Z</time>
      </trkpt>
      <trkpt lat="44.82043" lon="0.79795">
        <ele>214.3</ele>
        <time>2026-05-02T13:18:41.000Z</time>
      </trkpt>
      <trkpt lat="44.82044" lon="0.79795">
        <ele>213.8</ele>
        <time>2026-05-02T13:18:42.000Z</time>
      </trkpt>
      <trkpt lat="44.82045" lon="0.79796">
        <ele>213.8</ele>
        <time>2026-05-02T13:18:43.000Z</time>
      </trkpt>
      <trkpt lat="44.82047" lon="0.79797">
        <ele>213.7</ele>
        <time>2026-05-02T13:18:44.000Z</time>
      </trkpt>
      <trkpt lat="44.82048" lon="0.79797">
        <ele>213.3</ele>
        <time>2026-05-02T13:18:45.000Z</time>
      </trkpt>
      <trkpt lat="44.8205" lon="0.79798">
        <ele>213</ele>
        <time>2026-05-02T13:18:46.000Z</time>
      </trkpt>
      <trkpt lat="44.82051" lon="0.79798">
        <ele>213</ele>
        <time>2026-05-02T13:18:47.000Z</time>
      </trkpt>
      <trkpt lat="44.82053" lon="0.79799">
        <ele>212.7</ele>
        <time>2026-05-02T13:18:48.000Z</time>
      </trkpt>
      <trkpt lat="44.82054" lon="0.79799">
        <ele>212.4</ele>
        <time>2026-05-02T13:18:49.000Z</time>
      </trkpt>
      <trkpt lat="44.82056" lon="0.798">
        <ele>212.5</ele>
        <time>2026-05-02T13:18:50.000Z</time>
      </trkpt>
      <trkpt lat="44.82057" lon="0.798">
        <ele>212.5</ele>
        <time>2026-05-02T13:18:51.000Z</time>
      </trkpt>
      <trkpt lat="44.82059" lon="0.79801">
        <ele>212.2</ele>
        <time>2026-05-02T13:18:52.000Z</time>
      </trkpt>
      <trkpt lat="44.82061" lon="0.79802">
        <ele>211.9</ele>
        <time>2026-05-02T13:18:53.000Z</time>
      </trkpt>
      <trkpt lat="44.82062" lon="0.79802">
        <ele>211.7</ele>
        <time>2026-05-02T13:18:54.000Z</time>
      </trkpt>
      <trkpt lat="44.82064" lon="0.79803">
        <ele>211.5</ele>
        <time>2026-05-02T13:18:55.000Z</time>
      </trkpt>
      <trkpt lat="44.82065" lon="0.79804">
        <ele>211.4</ele>
        <time>2026-05-02T13:18:56.000Z</time>
      </trkpt>
      <trkpt lat="44.82067" lon="0.79805">
        <ele>211.4</ele>
        <time>2026-05-02T13:18:57.000Z</time>
      </trkpt>
      <trkpt lat="44.82068" lon="0.79806">
        <ele>211.5</ele>
        <time>2026-05-02T13:18:58.000Z</time>
      </trkpt>
      <trkpt lat="44.8207" lon="0.79808">
        <ele>211.4</ele>
        <time>2026-05-02T13:18:59.000Z</time>
      </trkpt>
      <trkpt lat="44.82072" lon="0.79809">
        <ele>211.3</ele>
        <time>2026-05-02T13:19:00.000Z</time>
      </trkpt>
      <trkpt lat="44.82073" lon="0.7981">
        <ele>211.4</ele>
        <time>2026-05-02T13:19:01.000Z</time>
      </trkpt>
      <trkpt lat="44.82075" lon="0.7981">
        <ele>211.2</ele>
        <time>2026-05-02T13:19:02.000Z</time>
      </trkpt>
      <trkpt lat="44.82076" lon="0.79811">
        <ele>210.9</ele>
        <time>2026-05-02T13:19:03.000Z</time>
      </trkpt>
      <trkpt lat="44.82078" lon="0.79812">
        <ele>210.7</ele>
        <time>2026-05-02T13:19:04.000Z</time>
      </trkpt>
      <trkpt lat="44.8208" lon="0.79812">
        <ele>211</ele>
        <time>2026-05-02T13:19:05.000Z</time>
      </trkpt>
      <trkpt lat="44.82081" lon="0.79813">
        <ele>210.8</ele>
        <time>2026-05-02T13:19:06.000Z</time>
      </trkpt>
      <trkpt lat="44.82083" lon="0.79815">
        <ele>210.1</ele>
        <time>2026-05-02T13:19:07.000Z</time>
      </trkpt>
      <trkpt lat="44.82084" lon="0.79816">
        <ele>208.8</ele>
        <time>2026-05-02T13:19:08.000Z</time>
      </trkpt>
      <trkpt lat="44.82086" lon="0.79816">
        <ele>208.8</ele>
        <time>2026-05-02T13:19:09.000Z</time>
      </trkpt>
      <trkpt lat="44.82088" lon="0.79817">
        <ele>209.1</ele>
        <time>2026-05-02T13:19:10.000Z</time>
      </trkpt>
      <trkpt lat="44.82089" lon="0.79818">
        <ele>208.9</ele>
        <time>2026-05-02T13:19:11.000Z</time>
      </trkpt>
      <trkpt lat="44.82091" lon="0.7982">
        <ele>208.5</ele>
        <time>2026-05-02T13:19:12.000Z</time>
      </trkpt>
      <trkpt lat="44.82092" lon="0.79821">
        <ele>208.3</ele>
        <time>2026-05-02T13:19:13.000Z</time>
      </trkpt>
      <trkpt lat="44.82093" lon="0.79822">
        <ele>208.2</ele>
        <time>2026-05-02T13:19:14.000Z</time>
      </trkpt>
      <trkpt lat="44.82095" lon="0.79823">
        <ele>207.8</ele>
        <time>2026-05-02T13:19:15.000Z</time>
      </trkpt>
      <trkpt lat="44.82096" lon="0.79824">
        <ele>207.8</ele>
        <time>2026-05-02T13:19:16.000Z</time>
      </trkpt>
      <trkpt lat="44.82098" lon="0.79826">
        <ele>207.6</ele>
        <time>2026-05-02T13:19:17.000Z</time>
      </trkpt>
      <trkpt lat="44.82099" lon="0.79827">
        <ele>207.4</ele>
        <time>2026-05-02T13:19:18.000Z</time>
      </trkpt>
      <trkpt lat="44.821" lon="0.79828">
        <ele>207.4</ele>
        <time>2026-05-02T13:19:19.000Z</time>
      </trkpt>
      <trkpt lat="44.82102" lon="0.7983">
        <ele>207.4</ele>
        <time>2026-05-02T13:19:20.000Z</time>
      </trkpt>
      <trkpt lat="44.82103" lon="0.79831">
        <ele>207.2</ele>
        <time>2026-05-02T13:19:21.000Z</time>
      </trkpt>
      <trkpt lat="44.82105" lon="0.79832">
        <ele>207.2</ele>
        <time>2026-05-02T13:19:22.000Z</time>
      </trkpt>
      <trkpt lat="44.82106" lon="0.79833">
        <ele>207.4</ele>
        <time>2026-05-02T13:19:23.000Z</time>
      </trkpt>
      <trkpt lat="44.82108" lon="0.79834">
        <ele>207.7</ele>
        <time>2026-05-02T13:19:24.000Z</time>
      </trkpt>
      <trkpt lat="44.82109" lon="0.79835">
        <ele>207.5</ele>
        <time>2026-05-02T13:19:25.000Z</time>
      </trkpt>
      <trkpt lat="44.82111" lon="0.79836">
        <ele>207.4</ele>
        <time>2026-05-02T13:19:26.000Z</time>
      </trkpt>
      <trkpt lat="44.82112" lon="0.79838">
        <ele>207.6</ele>
        <time>2026-05-02T13:19:27.000Z</time>
      </trkpt>
      <trkpt lat="44.82114" lon="0.79838">
        <ele>207.8</ele>
        <time>2026-05-02T13:19:28.000Z</time>
      </trkpt>
      <trkpt lat="44.82115" lon="0.79839">
        <ele>207.8</ele>
        <time>2026-05-02T13:19:29.000Z</time>
      </trkpt>
      <trkpt lat="44.82117" lon="0.7984">
        <ele>207.6</ele>
        <time>2026-05-02T13:19:30.000Z</time>
      </trkpt>
      <trkpt lat="44.82118" lon="0.79841">
        <ele>207.5</ele>
        <time>2026-05-02T13:19:31.000Z</time>
      </trkpt>
      <trkpt lat="44.8212" lon="0.79842">
        <ele>207.4</ele>
        <time>2026-05-02T13:19:32.000Z</time>
      </trkpt>
      <trkpt lat="44.82121" lon="0.79843">
        <ele>207.6</ele>
        <time>2026-05-02T13:19:33.000Z</time>
      </trkpt>
      <trkpt lat="44.82123" lon="0.79844">
        <ele>207.3</ele>
        <time>2026-05-02T13:19:34.000Z</time>
      </trkpt>
      <trkpt lat="44.82125" lon="0.79845">
        <ele>207.4</ele>
        <time>2026-05-02T13:19:35.000Z</time>
      </trkpt>
      <trkpt lat="44.82126" lon="0.79846">
        <ele>206.8</ele>
        <time>2026-05-02T13:19:36.000Z</time>
      </trkpt>
      <trkpt lat="44.82128" lon="0.79847">
        <ele>207.1</ele>
        <time>2026-05-02T13:19:37.000Z</time>
      </trkpt>
      <trkpt lat="44.82129" lon="0.79848">
        <ele>207.3</ele>
        <time>2026-05-02T13:19:38.000Z</time>
      </trkpt>
      <trkpt lat="44.82131" lon="0.79849">
        <ele>207.3</ele>
        <time>2026-05-02T13:19:39.000Z</time>
      </trkpt>
      <trkpt lat="44.82132" lon="0.79851">
        <ele>207.4</ele>
        <time>2026-05-02T13:19:40.000Z</time>
      </trkpt>
      <trkpt lat="44.82134" lon="0.79852">
        <ele>207.3</ele>
        <time>2026-05-02T13:19:41.000Z</time>
      </trkpt>
      <trkpt lat="44.82135" lon="0.79853">
        <ele>207.1</ele>
        <time>2026-05-02T13:19:42.000Z</time>
      </trkpt>
      <trkpt lat="44.82137" lon="0.79854">
        <ele>207.3</ele>
        <time>2026-05-02T13:19:43.000Z</time>
      </trkpt>
      <trkpt lat="44.82138" lon="0.79854">
        <ele>207.4</ele>
        <time>2026-05-02T13:19:44.000Z</time>
      </trkpt>
      <trkpt lat="44.8214" lon="0.79855">
        <ele>207</ele>
        <time>2026-05-02T13:19:45.000Z</time>
      </trkpt>
      <trkpt lat="44.82142" lon="0.79855">
        <ele>206.7</ele>
        <time>2026-05-02T13:19:46.000Z</time>
      </trkpt>
      <trkpt lat="44.82143" lon="0.79856">
        <ele>206.4</ele>
        <time>2026-05-02T13:19:47.000Z</time>
      </trkpt>
      <trkpt lat="44.82145" lon="0.79857">
        <ele>206.3</ele>
        <time>2026-05-02T13:19:48.000Z</time>
      </trkpt>
      <trkpt lat="44.82146" lon="0.79858">
        <ele>205.9</ele>
        <time>2026-05-02T13:19:49.000Z</time>
      </trkpt>
      <trkpt lat="44.82148" lon="0.79858">
        <ele>205.5</ele>
        <time>2026-05-02T13:19:50.000Z</time>
      </trkpt>
      <trkpt lat="44.8215" lon="0.79859">
        <ele>206</ele>
        <time>2026-05-02T13:19:51.000Z</time>
      </trkpt>
      <trkpt lat="44.82151" lon="0.79859">
        <ele>206</ele>
        <time>2026-05-02T13:19:52.000Z</time>
      </trkpt>
      <trkpt lat="44.82153" lon="0.7986">
        <ele>205.6</ele>
        <time>2026-05-02T13:19:53.000Z</time>
      </trkpt>
      <trkpt lat="44.82154" lon="0.79861">
        <ele>206.2</ele>
        <time>2026-05-02T13:19:54.000Z</time>
      </trkpt>
      <trkpt lat="44.82156" lon="0.79861">
        <ele>206.1</ele>
        <time>2026-05-02T13:19:55.000Z</time>
      </trkpt>
      <trkpt lat="44.82158" lon="0.79862">
        <ele>206.4</ele>
        <time>2026-05-02T13:19:56.000Z</time>
      </trkpt>
      <trkpt lat="44.82159" lon="0.79863">
        <ele>206.2</ele>
        <time>2026-05-02T13:19:57.000Z</time>
      </trkpt>
      <trkpt lat="44.82161" lon="0.79863">
        <ele>206.2</ele>
        <time>2026-05-02T13:19:58.000Z</time>
      </trkpt>
      <trkpt lat="44.82162" lon="0.79863">
        <ele>206.6</ele>
        <time>2026-05-02T13:19:59.000Z</time>
      </trkpt>
      <trkpt lat="44.82164" lon="0.79863">
        <ele>206.6</ele>
        <time>2026-05-02T13:20:00.000Z</time>
      </trkpt>
      <trkpt lat="44.82166" lon="0.79864">
        <ele>206.5</ele>
        <time>2026-05-02T13:20:01.000Z</time>
      </trkpt>
      <trkpt lat="44.82167" lon="0.79865">
        <ele>206.5</ele>
        <time>2026-05-02T13:20:02.000Z</time>
      </trkpt>
      <trkpt lat="44.82169" lon="0.79866">
        <ele>206.4</ele>
        <time>2026-05-02T13:20:03.000Z</time>
      </trkpt>
      <trkpt lat="44.82171" lon="0.79867">
        <ele>206.3</ele>
        <time>2026-05-02T13:20:04.000Z</time>
      </trkpt>
      <trkpt lat="44.82172" lon="0.79867">
        <ele>206</ele>
        <time>2026-05-02T13:20:05.000Z</time>
      </trkpt>
      <trkpt lat="44.82174" lon="0.79868">
        <ele>205.7</ele>
        <time>2026-05-02T13:20:06.000Z</time>
      </trkpt>
      <trkpt lat="44.82176" lon="0.79869">
        <ele>205.6</ele>
        <time>2026-05-02T13:20:07.000Z</time>
      </trkpt>
      <trkpt lat="44.82177" lon="0.79869">
        <ele>205.8</ele>
        <time>2026-05-02T13:20:08.000Z</time>
      </trkpt>
      <trkpt lat="44.82179" lon="0.7987">
        <ele>205.7</ele>
        <time>2026-05-02T13:20:09.000Z</time>
      </trkpt>
      <trkpt lat="44.82181" lon="0.79871">
        <ele>205.8</ele>
        <time>2026-05-02T13:20:10.000Z</time>
      </trkpt>
      <trkpt lat="44.82183" lon="0.79872">
        <ele>205.8</ele>
        <time>2026-05-02T13:20:11.000Z</time>
      </trkpt>
      <trkpt lat="44.82184" lon="0.79872">
        <ele>205.9</ele>
        <time>2026-05-02T13:20:12.000Z</time>
      </trkpt>
      <trkpt lat="44.82186" lon="0.79873">
        <ele>206.1</ele>
        <time>2026-05-02T13:20:13.000Z</time>
      </trkpt>
      <trkpt lat="44.82188" lon="0.79874">
        <ele>206.1</ele>
        <time>2026-05-02T13:20:14.000Z</time>
      </trkpt>
      <trkpt lat="44.82189" lon="0.79874">
        <ele>206.2</ele>
        <time>2026-05-02T13:20:15.000Z</time>
      </trkpt>
      <trkpt lat="44.82191" lon="0.79875">
        <ele>206.3</ele>
        <time>2026-05-02T13:20:16.000Z</time>
      </trkpt>
      <trkpt lat="44.82193" lon="0.79875">
        <ele>206.2</ele>
        <time>2026-05-02T13:20:17.000Z</time>
      </trkpt>
      <trkpt lat="44.82195" lon="0.79876">
        <ele>206.3</ele>
        <time>2026-05-02T13:20:18.000Z</time>
      </trkpt>
      <trkpt lat="44.82196" lon="0.79876">
        <ele>206.4</ele>
        <time>2026-05-02T13:20:19.000Z</time>
      </trkpt>
      <trkpt lat="44.82198" lon="0.79876">
        <ele>206.1</ele>
        <time>2026-05-02T13:20:20.000Z</time>
      </trkpt>
      <trkpt lat="44.822" lon="0.79877">
        <ele>205.9</ele>
        <time>2026-05-02T13:20:21.000Z</time>
      </trkpt>
      <trkpt lat="44.82201" lon="0.79877">
        <ele>205.8</ele>
        <time>2026-05-02T13:20:22.000Z</time>
      </trkpt>
      <trkpt lat="44.82203" lon="0.79877">
        <ele>205.8</ele>
        <time>2026-05-02T13:20:23.000Z</time>
      </trkpt>
      <trkpt lat="44.82205" lon="0.79878">
        <ele>205.7</ele>
        <time>2026-05-02T13:20:24.000Z</time>
      </trkpt>
      <trkpt lat="44.82206" lon="0.79878">
        <ele>205.8</ele>
        <time>2026-05-02T13:20:25.000Z</time>
      </trkpt>
      <trkpt lat="44.82208" lon="0.79878">
        <ele>205.6</ele>
        <time>2026-05-02T13:20:26.000Z</time>
      </trkpt>
      <trkpt lat="44.8221" lon="0.79879">
        <ele>205.6</ele>
        <time>2026-05-02T13:20:27.000Z</time>
      </trkpt>
      <trkpt lat="44.82212" lon="0.79879">
        <ele>205.6</ele>
        <time>2026-05-02T13:20:28.000Z</time>
      </trkpt>
      <trkpt lat="44.82214" lon="0.7988">
        <ele>205.7</ele>
        <time>2026-05-02T13:20:29.000Z</time>
      </trkpt>
      <trkpt lat="44.82215" lon="0.7988">
        <ele>205.9</ele>
        <time>2026-05-02T13:20:30.000Z</time>
      </trkpt>
      <trkpt lat="44.82217" lon="0.7988">
        <ele>205.7</ele>
        <time>2026-05-02T13:20:31.000Z</time>
      </trkpt>
      <trkpt lat="44.82219" lon="0.7988">
        <ele>205.7</ele>
        <time>2026-05-02T13:20:32.000Z</time>
      </trkpt>
      <trkpt lat="44.8222" lon="0.79881">
        <ele>205.8</ele>
        <time>2026-05-02T13:20:33.000Z</time>
      </trkpt>
      <trkpt lat="44.82222" lon="0.79881">
        <ele>205.7</ele>
        <time>2026-05-02T13:20:34.000Z</time>
      </trkpt>
      <trkpt lat="44.82224" lon="0.79882">
        <ele>205.8</ele>
        <time>2026-05-02T13:20:35.000Z</time>
      </trkpt>
      <trkpt lat="44.82225" lon="0.79882">
        <ele>205.8</ele>
        <time>2026-05-02T13:20:36.000Z</time>
      </trkpt>
      <trkpt lat="44.82227" lon="0.79881">
        <ele>206</ele>
        <time>2026-05-02T13:20:37.000Z</time>
      </trkpt>
      <trkpt lat="44.82229" lon="0.79881">
        <ele>206.2</ele>
        <time>2026-05-02T13:20:38.000Z</time>
      </trkpt>
      <trkpt lat="44.8223" lon="0.79881">
        <ele>206.2</ele>
        <time>2026-05-02T13:20:39.000Z</time>
      </trkpt>
      <trkpt lat="44.82232" lon="0.79881">
        <ele>206</ele>
        <time>2026-05-02T13:20:40.000Z</time>
      </trkpt>
      <trkpt lat="44.82234" lon="0.79881">
        <ele>206.1</ele>
        <time>2026-05-02T13:20:41.000Z</time>
      </trkpt>
      <trkpt lat="44.82235" lon="0.79881">
        <ele>206.2</ele>
        <time>2026-05-02T13:20:42.000Z</time>
      </trkpt>
      <trkpt lat="44.82237" lon="0.79881">
        <ele>206.4</ele>
        <time>2026-05-02T13:20:43.000Z</time>
      </trkpt>
      <trkpt lat="44.82239" lon="0.79881">
        <ele>206.6</ele>
        <time>2026-05-02T13:20:44.000Z</time>
      </trkpt>
      <trkpt lat="44.82241" lon="0.79881">
        <ele>206.5</ele>
        <time>2026-05-02T13:20:45.000Z</time>
      </trkpt>
      <trkpt lat="44.82242" lon="0.79881">
        <ele>206.4</ele>
        <time>2026-05-02T13:20:46.000Z</time>
      </trkpt>
      <trkpt lat="44.82244" lon="0.79881">
        <ele>206.6</ele>
        <time>2026-05-02T13:20:47.000Z</time>
      </trkpt>
      <trkpt lat="44.82246" lon="0.79881">
        <ele>206.8</ele>
        <time>2026-05-02T13:20:48.000Z</time>
      </trkpt>
      <trkpt lat="44.82248" lon="0.79881">
        <ele>206.9</ele>
        <time>2026-05-02T13:20:49.000Z</time>
      </trkpt>
      <trkpt lat="44.82249" lon="0.7988">
        <ele>207</ele>
        <time>2026-05-02T13:20:50.000Z</time>
      </trkpt>
      <trkpt lat="44.82251" lon="0.7988">
        <ele>207</ele>
        <time>2026-05-02T13:20:51.000Z</time>
      </trkpt>
      <trkpt lat="44.82252" lon="0.7988">
        <ele>207.2</ele>
        <time>2026-05-02T13:20:52.000Z</time>
      </trkpt>
      <trkpt lat="44.82254" lon="0.7988">
        <ele>207.2</ele>
        <time>2026-05-02T13:20:53.000Z</time>
      </trkpt>
      <trkpt lat="44.82256" lon="0.79879">
        <ele>206.8</ele>
        <time>2026-05-02T13:20:54.000Z</time>
      </trkpt>
      <trkpt lat="44.82258" lon="0.79879">
        <ele>206.9</ele>
        <time>2026-05-02T13:20:55.000Z</time>
      </trkpt>
      <trkpt lat="44.82259" lon="0.79879">
        <ele>207</ele>
        <time>2026-05-02T13:20:56.000Z</time>
      </trkpt>
      <trkpt lat="44.82261" lon="0.79878">
        <ele>207</ele>
        <time>2026-05-02T13:20:57.000Z</time>
      </trkpt>
      <trkpt lat="44.82263" lon="0.79878">
        <ele>207.1</ele>
        <time>2026-05-02T13:20:58.000Z</time>
      </trkpt>
      <trkpt lat="44.82264" lon="0.79878">
        <ele>207.2</ele>
        <time>2026-05-02T13:20:59.000Z</time>
      </trkpt>
      <trkpt lat="44.82266" lon="0.79878">
        <ele>207.5</ele>
        <time>2026-05-02T13:21:00.000Z</time>
      </trkpt>
      <trkpt lat="44.82268" lon="0.79877">
        <ele>207.3</ele>
        <time>2026-05-02T13:21:01.000Z</time>
      </trkpt>
      <trkpt lat="44.82269" lon="0.79877">
        <ele>207.2</ele>
        <time>2026-05-02T13:21:02.000Z</time>
      </trkpt>
      <trkpt lat="44.82271" lon="0.79877">
        <ele>207.4</ele>
        <time>2026-05-02T13:21:03.000Z</time>
      </trkpt>
      <trkpt lat="44.82273" lon="0.79877">
        <ele>207.5</ele>
        <time>2026-05-02T13:21:04.000Z</time>
      </trkpt>
      <trkpt lat="44.82274" lon="0.79876">
        <ele>207.6</ele>
        <time>2026-05-02T13:21:05.000Z</time>
      </trkpt>
      <trkpt lat="44.82276" lon="0.79876">
        <ele>207.6</ele>
        <time>2026-05-02T13:21:06.000Z</time>
      </trkpt>
      <trkpt lat="44.82278" lon="0.79876">
        <ele>207.8</ele>
        <time>2026-05-02T13:21:07.000Z</time>
      </trkpt>
      <trkpt lat="44.8228" lon="0.79876">
        <ele>207.9</ele>
        <time>2026-05-02T13:21:08.000Z</time>
      </trkpt>
      <trkpt lat="44.82281" lon="0.79876">
        <ele>208.1</ele>
        <time>2026-05-02T13:21:09.000Z</time>
      </trkpt>
      <trkpt lat="44.82283" lon="0.79875">
        <ele>207.9</ele>
        <time>2026-05-02T13:21:10.000Z</time>
      </trkpt>
      <trkpt lat="44.82285" lon="0.79875">
        <ele>208.3</ele>
        <time>2026-05-02T13:21:11.000Z</time>
      </trkpt>
      <trkpt lat="44.82286" lon="0.79874">
        <ele>208.5</ele>
        <time>2026-05-02T13:21:12.000Z</time>
      </trkpt>
      <trkpt lat="44.82288" lon="0.79873">
        <ele>209</ele>
        <time>2026-05-02T13:21:13.000Z</time>
      </trkpt>
      <trkpt lat="44.8229" lon="0.79872">
        <ele>209.3</ele>
        <time>2026-05-02T13:21:14.000Z</time>
      </trkpt>
      <trkpt lat="44.82292" lon="0.79872">
        <ele>209.7</ele>
        <time>2026-05-02T13:21:15.000Z</time>
      </trkpt>
      <trkpt lat="44.82294" lon="0.79872">
        <ele>209.7</ele>
        <time>2026-05-02T13:21:16.000Z</time>
      </trkpt>
      <trkpt lat="44.82295" lon="0.79871">
        <ele>209.5</ele>
        <time>2026-05-02T13:21:17.000Z</time>
      </trkpt>
      <trkpt lat="44.82297" lon="0.79871">
        <ele>209.6</ele>
        <time>2026-05-02T13:21:18.000Z</time>
      </trkpt>
      <trkpt lat="44.82299" lon="0.79871">
        <ele>209.5</ele>
        <time>2026-05-02T13:21:19.000Z</time>
      </trkpt>
      <trkpt lat="44.82301" lon="0.79871">
        <ele>209.4</ele>
        <time>2026-05-02T13:21:20.000Z</time>
      </trkpt>
      <trkpt lat="44.82303" lon="0.7987">
        <ele>209.5</ele>
        <time>2026-05-02T13:21:21.000Z</time>
      </trkpt>
      <trkpt lat="44.82305" lon="0.7987">
        <ele>209.2</ele>
        <time>2026-05-02T13:21:22.000Z</time>
      </trkpt>
      <trkpt lat="44.82307" lon="0.79869">
        <ele>209.3</ele>
        <time>2026-05-02T13:21:23.000Z</time>
      </trkpt>
      <trkpt lat="44.82309" lon="0.79869">
        <ele>209.3</ele>
        <time>2026-05-02T13:21:24.000Z</time>
      </trkpt>
      <trkpt lat="44.82311" lon="0.79868">
        <ele>209.2</ele>
        <time>2026-05-02T13:21:25.000Z</time>
      </trkpt>
      <trkpt lat="44.82313" lon="0.79867">
        <ele>209.2</ele>
        <time>2026-05-02T13:21:26.000Z</time>
      </trkpt>
      <trkpt lat="44.82315" lon="0.79867">
        <ele>209.1</ele>
        <time>2026-05-02T13:21:27.000Z</time>
      </trkpt>
      <trkpt lat="44.82316" lon="0.79866">
        <ele>209.1</ele>
        <time>2026-05-02T13:21:28.000Z</time>
      </trkpt>
      <trkpt lat="44.82318" lon="0.79866">
        <ele>209.1</ele>
        <time>2026-05-02T13:21:29.000Z</time>
      </trkpt>
      <trkpt lat="44.82319" lon="0.79865">
        <ele>209.5</ele>
        <time>2026-05-02T13:21:30.000Z</time>
      </trkpt>
      <trkpt lat="44.82321" lon="0.79864">
        <ele>209.8</ele>
        <time>2026-05-02T13:21:31.000Z</time>
      </trkpt>
      <trkpt lat="44.82322" lon="0.79864">
        <ele>209.8</ele>
        <time>2026-05-02T13:21:32.000Z</time>
      </trkpt>
      <trkpt lat="44.82324" lon="0.79863">
        <ele>210.1</ele>
        <time>2026-05-02T13:21:33.000Z</time>
      </trkpt>
      <trkpt lat="44.82325" lon="0.79863">
        <ele>210</ele>
        <time>2026-05-02T13:21:34.000Z</time>
      </trkpt>
      <trkpt lat="44.82327" lon="0.79862">
        <ele>210.5</ele>
        <time>2026-05-02T13:21:35.000Z</time>
      </trkpt>
      <trkpt lat="44.82328" lon="0.79861">
        <ele>210.5</ele>
        <time>2026-05-02T13:21:36.000Z</time>
      </trkpt>
      <trkpt lat="44.8233" lon="0.79861">
        <ele>210.4</ele>
        <time>2026-05-02T13:21:37.000Z</time>
      </trkpt>
      <trkpt lat="44.82332" lon="0.7986">
        <ele>210.5</ele>
        <time>2026-05-02T13:21:38.000Z</time>
      </trkpt>
      <trkpt lat="44.82333" lon="0.79859">
        <ele>210.5</ele>
        <time>2026-05-02T13:21:39.000Z</time>
      </trkpt>
      <trkpt lat="44.82335" lon="0.79858">
        <ele>210.5</ele>
        <time>2026-05-02T13:21:40.000Z</time>
      </trkpt>
      <trkpt lat="44.82336" lon="0.79858">
        <ele>210.7</ele>
        <time>2026-05-02T13:21:41.000Z</time>
      </trkpt>
      <trkpt lat="44.82337" lon="0.79857">
        <ele>210.9</ele>
        <time>2026-05-02T13:21:42.000Z</time>
      </trkpt>
      <trkpt lat="44.82339" lon="0.79856">
        <ele>210.7</ele>
        <time>2026-05-02T13:21:43.000Z</time>
      </trkpt>
      <trkpt lat="44.82341" lon="0.79855">
        <ele>211.1</ele>
        <time>2026-05-02T13:21:44.000Z</time>
      </trkpt>
      <trkpt lat="44.82342" lon="0.79854">
        <ele>210.7</ele>
        <time>2026-05-02T13:21:45.000Z</time>
      </trkpt>
      <trkpt lat="44.82344" lon="0.79854">
        <ele>211.1</ele>
        <time>2026-05-02T13:21:46.000Z</time>
      </trkpt>
      <trkpt lat="44.82345" lon="0.79853">
        <ele>211</ele>
        <time>2026-05-02T13:21:47.000Z</time>
      </trkpt>
      <trkpt lat="44.82346" lon="0.79852">
        <ele>211.7</ele>
        <time>2026-05-02T13:21:48.000Z</time>
      </trkpt>
      <trkpt lat="44.82348" lon="0.79851">
        <ele>211.8</ele>
        <time>2026-05-02T13:21:49.000Z</time>
      </trkpt>
      <trkpt lat="44.82349" lon="0.7985">
        <ele>211.9</ele>
        <time>2026-05-02T13:21:50.000Z</time>
      </trkpt>
      <trkpt lat="44.82351" lon="0.7985">
        <ele>211.6</ele>
        <time>2026-05-02T13:21:51.000Z</time>
      </trkpt>
      <trkpt lat="44.82352" lon="0.79849">
        <ele>211.8</ele>
        <time>2026-05-02T13:21:52.000Z</time>
      </trkpt>
      <trkpt lat="44.82354" lon="0.79848">
        <ele>211.5</ele>
        <time>2026-05-02T13:21:53.000Z</time>
      </trkpt>
      <trkpt lat="44.82355" lon="0.79847">
        <ele>211.9</ele>
        <time>2026-05-02T13:21:54.000Z</time>
      </trkpt>
      <trkpt lat="44.82357" lon="0.79847">
        <ele>211.9</ele>
        <time>2026-05-02T13:21:55.000Z</time>
      </trkpt>
      <trkpt lat="44.82358" lon="0.79846">
        <ele>212.1</ele>
        <time>2026-05-02T13:21:56.000Z</time>
      </trkpt>
      <trkpt lat="44.8236" lon="0.79845">
        <ele>211.8</ele>
        <time>2026-05-02T13:21:57.000Z</time>
      </trkpt>
      <trkpt lat="44.82361" lon="0.79844">
        <ele>212.1</ele>
        <time>2026-05-02T13:21:58.000Z</time>
      </trkpt>
      <trkpt lat="44.82363" lon="0.79844">
        <ele>212</ele>
        <time>2026-05-02T13:21:59.000Z</time>
      </trkpt>
      <trkpt lat="44.82364" lon="0.79843">
        <ele>212.1</ele>
        <time>2026-05-02T13:22:00.000Z</time>
      </trkpt>
      <trkpt lat="44.82366" lon="0.79844">
        <ele>211.8</ele>
        <time>2026-05-02T13:22:01.000Z</time>
      </trkpt>
      <trkpt lat="44.82367" lon="0.79843">
        <ele>212</ele>
        <time>2026-05-02T13:22:02.000Z</time>
      </trkpt>
      <trkpt lat="44.82369" lon="0.79844">
        <ele>211.7</ele>
        <time>2026-05-02T13:22:03.000Z</time>
      </trkpt>
      <trkpt lat="44.82371" lon="0.79844">
        <ele>211.7</ele>
        <time>2026-05-02T13:22:04.000Z</time>
      </trkpt>
      <trkpt lat="44.82372" lon="0.79844">
        <ele>211.7</ele>
        <time>2026-05-02T13:22:05.000Z</time>
      </trkpt>
      <trkpt lat="44.82374" lon="0.79843">
        <ele>211.6</ele>
        <time>2026-05-02T13:22:06.000Z</time>
      </trkpt>
      <trkpt lat="44.82376" lon="0.79843">
        <ele>212.1</ele>
        <time>2026-05-02T13:22:07.000Z</time>
      </trkpt>
      <trkpt lat="44.82377" lon="0.79842">
        <ele>212.4</ele>
        <time>2026-05-02T13:22:08.000Z</time>
      </trkpt>
      <trkpt lat="44.82378" lon="0.79841">
        <ele>212.4</ele>
        <time>2026-05-02T13:22:09.000Z</time>
      </trkpt>
      <trkpt lat="44.8238" lon="0.7984">
        <ele>212.5</ele>
        <time>2026-05-02T13:22:10.000Z</time>
      </trkpt>
      <trkpt lat="44.82381" lon="0.79839">
        <ele>212.4</ele>
        <time>2026-05-02T13:22:11.000Z</time>
      </trkpt>
      <trkpt lat="44.82383" lon="0.79838">
        <ele>212.4</ele>
        <time>2026-05-02T13:22:12.000Z</time>
      </trkpt>
      <trkpt lat="44.82384" lon="0.79837">
        <ele>212.5</ele>
        <time>2026-05-02T13:22:13.000Z</time>
      </trkpt>
      <trkpt lat="44.82386" lon="0.79837">
        <ele>212.8</ele>
        <time>2026-05-02T13:22:14.000Z</time>
      </trkpt>
      <trkpt lat="44.82388" lon="0.79836">
        <ele>212.9</ele>
        <time>2026-05-02T13:22:15.000Z</time>
      </trkpt>
      <trkpt lat="44.82389" lon="0.79836">
        <ele>213</ele>
        <time>2026-05-02T13:22:16.000Z</time>
      </trkpt>
      <trkpt lat="44.82391" lon="0.79836">
        <ele>212.9</ele>
        <time>2026-05-02T13:22:17.000Z</time>
      </trkpt>
      <trkpt lat="44.82393" lon="0.79836">
        <ele>212.9</ele>
        <time>2026-05-02T13:22:18.000Z</time>
      </trkpt>
      <trkpt lat="44.82394" lon="0.79836">
        <ele>212.7</ele>
        <time>2026-05-02T13:22:19.000Z</time>
      </trkpt>
      <trkpt lat="44.82396" lon="0.79835">
        <ele>212.6</ele>
        <time>2026-05-02T13:22:20.000Z</time>
      </trkpt>
      <trkpt lat="44.82397" lon="0.79835">
        <ele>213.1</ele>
        <time>2026-05-02T13:22:21.000Z</time>
      </trkpt>
      <trkpt lat="44.82399" lon="0.79835">
        <ele>213.2</ele>
        <time>2026-05-02T13:22:22.000Z</time>
      </trkpt>
      <trkpt lat="44.824" lon="0.79835">
        <ele>213.7</ele>
        <time>2026-05-02T13:22:23.000Z</time>
      </trkpt>
      <trkpt lat="44.82402" lon="0.79835">
        <ele>213.9</ele>
        <time>2026-05-02T13:22:24.000Z</time>
      </trkpt>
      <trkpt lat="44.82403" lon="0.79834">
        <ele>214.1</ele>
        <time>2026-05-02T13:22:25.000Z</time>
      </trkpt>
      <trkpt lat="44.82405" lon="0.79834">
        <ele>214</ele>
        <time>2026-05-02T13:22:26.000Z</time>
      </trkpt>
      <trkpt lat="44.82406" lon="0.79834">
        <ele>214.1</ele>
        <time>2026-05-02T13:22:27.000Z</time>
      </trkpt>
      <trkpt lat="44.82408" lon="0.79833">
        <ele>214.2</ele>
        <time>2026-05-02T13:22:28.000Z</time>
      </trkpt>
      <trkpt lat="44.82409" lon="0.79833">
        <ele>214.1</ele>
        <time>2026-05-02T13:22:29.000Z</time>
      </trkpt>
      <trkpt lat="44.82411" lon="0.79833">
        <ele>213.7</ele>
        <time>2026-05-02T13:22:30.000Z</time>
      </trkpt>
      <trkpt lat="44.82412" lon="0.79833">
        <ele>213.8</ele>
        <time>2026-05-02T13:22:31.000Z</time>
      </trkpt>
      <trkpt lat="44.82414" lon="0.79832">
        <ele>213.8</ele>
        <time>2026-05-02T13:22:32.000Z</time>
      </trkpt>
      <trkpt lat="44.82415" lon="0.79832">
        <ele>214</ele>
        <time>2026-05-02T13:22:33.000Z</time>
      </trkpt>
      <trkpt lat="44.82417" lon="0.79832">
        <ele>214.1</ele>
        <time>2026-05-02T13:22:34.000Z</time>
      </trkpt>
      <trkpt lat="44.82419" lon="0.79832">
        <ele>214.3</ele>
        <time>2026-05-02T13:22:35.000Z</time>
      </trkpt>
      <trkpt lat="44.82421" lon="0.79833">
        <ele>214.3</ele>
        <time>2026-05-02T13:22:36.000Z</time>
      </trkpt>
      <trkpt lat="44.82422" lon="0.79833">
        <ele>214.2</ele>
        <time>2026-05-02T13:22:37.000Z</time>
      </trkpt>
      <trkpt lat="44.82424" lon="0.79833">
        <ele>213.6</ele>
        <time>2026-05-02T13:22:38.000Z</time>
      </trkpt>
      <trkpt lat="44.82426" lon="0.79833">
        <ele>213.4</ele>
        <time>2026-05-02T13:22:39.000Z</time>
      </trkpt>
      <trkpt lat="44.82427" lon="0.79833">
        <ele>213.3</ele>
        <time>2026-05-02T13:22:40.000Z</time>
      </trkpt>
      <trkpt lat="44.82429" lon="0.79834">
        <ele>213.1</ele>
        <time>2026-05-02T13:22:41.000Z</time>
      </trkpt>
      <trkpt lat="44.82431" lon="0.79834">
        <ele>213</ele>
        <time>2026-05-02T13:22:42.000Z</time>
      </trkpt>
      <trkpt lat="44.82432" lon="0.79834">
        <ele>212.6</ele>
        <time>2026-05-02T13:22:43.000Z</time>
      </trkpt>
      <trkpt lat="44.82434" lon="0.79834">
        <ele>212.4</ele>
        <time>2026-05-02T13:22:44.000Z</time>
      </trkpt>
      <trkpt lat="44.82436" lon="0.79834">
        <ele>212.2</ele>
        <time>2026-05-02T13:22:45.000Z</time>
      </trkpt>
      <trkpt lat="44.82438" lon="0.79834">
        <ele>212.1</ele>
        <time>2026-05-02T13:22:46.000Z</time>
      </trkpt>
      <trkpt lat="44.8244" lon="0.79834">
        <ele>211.9</ele>
        <time>2026-05-02T13:22:47.000Z</time>
      </trkpt>
      <trkpt lat="44.82441" lon="0.79834">
        <ele>211.7</ele>
        <time>2026-05-02T13:22:48.000Z</time>
      </trkpt>
      <trkpt lat="44.82443" lon="0.79834">
        <ele>211.5</ele>
        <time>2026-05-02T13:22:49.000Z</time>
      </trkpt>
      <trkpt lat="44.82445" lon="0.79834">
        <ele>211.5</ele>
        <time>2026-05-02T13:22:50.000Z</time>
      </trkpt>
      <trkpt lat="44.82447" lon="0.79834">
        <ele>211.2</ele>
        <time>2026-05-02T13:22:51.000Z</time>
      </trkpt>
      <trkpt lat="44.82448" lon="0.79834">
        <ele>211.2</ele>
        <time>2026-05-02T13:22:52.000Z</time>
      </trkpt>
      <trkpt lat="44.8245" lon="0.79835">
        <ele>211.1</ele>
        <time>2026-05-02T13:22:53.000Z</time>
      </trkpt>
      <trkpt lat="44.82452" lon="0.79835">
        <ele>210.8</ele>
        <time>2026-05-02T13:22:54.000Z</time>
      </trkpt>
      <trkpt lat="44.82453" lon="0.79835">
        <ele>210.6</ele>
        <time>2026-05-02T13:22:55.000Z</time>
      </trkpt>
      <trkpt lat="44.82455" lon="0.79835">
        <ele>210.4</ele>
        <time>2026-05-02T13:22:56.000Z</time>
      </trkpt>
      <trkpt lat="44.82457" lon="0.79836">
        <ele>210.2</ele>
        <time>2026-05-02T13:22:57.000Z</time>
      </trkpt>
      <trkpt lat="44.82458" lon="0.79836">
        <ele>210.1</ele>
        <time>2026-05-02T13:22:58.000Z</time>
      </trkpt>
      <trkpt lat="44.8246" lon="0.79836">
        <ele>209.7</ele>
        <time>2026-05-02T13:22:59.000Z</time>
      </trkpt>
      <trkpt lat="44.82461" lon="0.79837">
        <ele>209.5</ele>
        <time>2026-05-02T13:23:00.000Z</time>
      </trkpt>
      <trkpt lat="44.82463" lon="0.79837">
        <ele>209.3</ele>
        <time>2026-05-02T13:23:01.000Z</time>
      </trkpt>
      <trkpt lat="44.82464" lon="0.79838">
        <ele>209.1</ele>
        <time>2026-05-02T13:23:02.000Z</time>
      </trkpt>
      <trkpt lat="44.82466" lon="0.79839">
        <ele>208.9</ele>
        <time>2026-05-02T13:23:03.000Z</time>
      </trkpt>
      <trkpt lat="44.82468" lon="0.79839">
        <ele>208.6</ele>
        <time>2026-05-02T13:23:04.000Z</time>
      </trkpt>
      <trkpt lat="44.82469" lon="0.7984">
        <ele>208.6</ele>
        <time>2026-05-02T13:23:05.000Z</time>
      </trkpt>
      <trkpt lat="44.82471" lon="0.7984">
        <ele>208.8</ele>
        <time>2026-05-02T13:23:06.000Z</time>
      </trkpt>
      <trkpt lat="44.82473" lon="0.79841">
        <ele>208.9</ele>
        <time>2026-05-02T13:23:07.000Z</time>
      </trkpt>
      <trkpt lat="44.82475" lon="0.79842">
        <ele>208.9</ele>
        <time>2026-05-02T13:23:08.000Z</time>
      </trkpt>
      <trkpt lat="44.82477" lon="0.79842">
        <ele>209.2</ele>
        <time>2026-05-02T13:23:09.000Z</time>
      </trkpt>
      <trkpt lat="44.82478" lon="0.79843">
        <ele>209</ele>
        <time>2026-05-02T13:23:10.000Z</time>
      </trkpt>
      <trkpt lat="44.8248" lon="0.79843">
        <ele>209.1</ele>
        <time>2026-05-02T13:23:11.000Z</time>
      </trkpt>
      <trkpt lat="44.82481" lon="0.79844">
        <ele>208.8</ele>
        <time>2026-05-02T13:23:12.000Z</time>
      </trkpt>
      <trkpt lat="44.82482" lon="0.79845">
        <ele>208.4</ele>
        <time>2026-05-02T13:23:13.000Z</time>
      </trkpt>
      <trkpt lat="44.82484" lon="0.79845">
        <ele>208.2</ele>
        <time>2026-05-02T13:23:14.000Z</time>
      </trkpt>
      <trkpt lat="44.82485" lon="0.79846">
        <ele>208.2</ele>
        <time>2026-05-02T13:23:15.000Z</time>
      </trkpt>
      <trkpt lat="44.82487" lon="0.79846">
        <ele>207.8</ele>
        <time>2026-05-02T13:23:16.000Z</time>
      </trkpt>
      <trkpt lat="44.82488" lon="0.79845">
        <ele>207.8</ele>
        <time>2026-05-02T13:23:17.000Z</time>
      </trkpt>
      <trkpt lat="44.82489" lon="0.79844">
        <ele>208</ele>
        <time>2026-05-02T13:23:18.000Z</time>
      </trkpt>
      <trkpt lat="44.8249" lon="0.79844">
        <ele>207.6</ele>
        <time>2026-05-02T13:23:19.000Z</time>
      </trkpt>
      <trkpt lat="44.82491" lon="0.79843">
        <ele>208.3</ele>
        <time>2026-05-02T13:23:20.000Z</time>
      </trkpt>
      <trkpt lat="44.82492" lon="0.79842">
        <ele>209.2</ele>
        <time>2026-05-02T13:23:21.000Z</time>
      </trkpt>
      <trkpt lat="44.82492" lon="0.79841">
        <ele>209.6</ele>
        <time>2026-05-02T13:23:22.000Z</time>
      </trkpt>
      <trkpt lat="44.82492" lon="0.79839">
        <ele>209.3</ele>
        <time>2026-05-02T13:23:23.000Z</time>
      </trkpt>
      <trkpt lat="44.82492" lon="0.79838">
        <ele>209.1</ele>
        <time>2026-05-02T13:23:24.000Z</time>
      </trkpt>
      <trkpt lat="44.82492" lon="0.79837">
        <ele>208.3</ele>
        <time>2026-05-02T13:23:25.000Z</time>
      </trkpt>
      <trkpt lat="44.82492" lon="0.79835">
        <ele>209.2</ele>
        <time>2026-05-02T13:23:26.000Z</time>
      </trkpt>
      <trkpt lat="44.82492" lon="0.79834">
        <ele>208.8</ele>
        <time>2026-05-02T13:23:27.000Z</time>
      </trkpt>
      <trkpt lat="44.82491" lon="0.79832">
        <ele>209.4</ele>
        <time>2026-05-02T13:23:28.000Z</time>
      </trkpt>
      <trkpt lat="44.82491" lon="0.7983">
        <ele>209.8</ele>
        <time>2026-05-02T13:23:29.000Z</time>
      </trkpt>
      <trkpt lat="44.8249" lon="0.79828">
        <ele>210.2</ele>
        <time>2026-05-02T13:23:30.000Z</time>
      </trkpt>
      <trkpt lat="44.82489" lon="0.79826">
        <ele>209.9</ele>
        <time>2026-05-02T13:23:31.000Z</time>
      </trkpt>
      <trkpt lat="44.82489" lon="0.79824">
        <ele>208.6</ele>
        <time>2026-05-02T13:23:32.000Z</time>
      </trkpt>
      <trkpt lat="44.82489" lon="0.79821">
        <ele>208.1</ele>
        <time>2026-05-02T13:23:33.000Z</time>
      </trkpt>
      <trkpt lat="44.82489" lon="0.79818">
        <ele>207.7</ele>
        <time>2026-05-02T13:23:34.000Z</time>
      </trkpt>
      <trkpt lat="44.82489" lon="0.79816">
        <ele>207.7</ele>
        <time>2026-05-02T13:23:35.000Z</time>
      </trkpt>
      <trkpt lat="44.82488" lon="0.79813">
        <ele>207.8</ele>
        <time>2026-05-02T13:23:36.000Z</time>
      </trkpt>
      <trkpt lat="44.82488" lon="0.79811">
        <ele>207.5</ele>
        <time>2026-05-02T13:23:37.000Z</time>
      </trkpt>
      <trkpt lat="44.82488" lon="0.79808">
        <ele>207</ele>
        <time>2026-05-02T13:23:38.000Z</time>
      </trkpt>
      <trkpt lat="44.82488" lon="0.79806">
        <ele>206.5</ele>
        <time>2026-05-02T13:23:39.000Z</time>
      </trkpt>
      <trkpt lat="44.82488" lon="0.79803">
        <ele>206.6</ele>
        <time>2026-05-02T13:23:40.000Z</time>
      </trkpt>
      <trkpt lat="44.82488" lon="0.798">
        <ele>206.2</ele>
        <time>2026-05-02T13:23:41.000Z</time>
      </trkpt>
      <trkpt lat="44.82488" lon="0.79798">
        <ele>206.1</ele>
        <time>2026-05-02T13:23:42.000Z</time>
      </trkpt>
      <trkpt lat="44.82488" lon="0.79795">
        <ele>206</ele>
        <time>2026-05-02T13:23:43.000Z</time>
      </trkpt>
      <trkpt lat="44.82487" lon="0.79793">
        <ele>205.8</ele>
        <time>2026-05-02T13:23:44.000Z</time>
      </trkpt>
      <trkpt lat="44.82487" lon="0.79791">
        <ele>205.4</ele>
        <time>2026-05-02T13:23:45.000Z</time>
      </trkpt>
      <trkpt lat="44.82487" lon="0.79788">
        <ele>205.2</ele>
        <time>2026-05-02T13:23:46.000Z</time>
      </trkpt>
      <trkpt lat="44.82487" lon="0.79784">
        <ele>205.2</ele>
        <time>2026-05-02T13:23:47.000Z</time>
      </trkpt>
      <trkpt lat="44.82487" lon="0.79781">
        <ele>205.4</ele>
        <time>2026-05-02T13:23:48.000Z</time>
      </trkpt>
      <trkpt lat="44.82487" lon="0.79777">
        <ele>206.4</ele>
        <time>2026-05-02T13:23:49.000Z</time>
      </trkpt>
      <trkpt lat="44.82487" lon="0.79774">
        <ele>206.9</ele>
        <time>2026-05-02T13:23:50.000Z</time>
      </trkpt>
      <trkpt lat="44.82487" lon="0.79772">
        <ele>206.6</ele>
        <time>2026-05-02T13:23:51.000Z</time>
      </trkpt>
      <trkpt lat="44.82487" lon="0.7977">
        <ele>207.9</ele>
        <time>2026-05-02T13:23:52.000Z</time>
      </trkpt>
      <trkpt lat="44.82488" lon="0.79768">
        <ele>207.4</ele>
        <time>2026-05-02T13:23:53.000Z</time>
      </trkpt>
      <trkpt lat="44.82488" lon="0.79766">
        <ele>207.8</ele>
        <time>2026-05-02T13:23:54.000Z</time>
      </trkpt>
      <trkpt lat="44.82488" lon="0.79763">
        <ele>207.4</ele>
        <time>2026-05-02T13:23:55.000Z</time>
      </trkpt>
      <trkpt lat="44.82489" lon="0.79761">
        <ele>207.1</ele>
        <time>2026-05-02T13:23:56.000Z</time>
      </trkpt>
      <trkpt lat="44.82489" lon="0.79758">
        <ele>207</ele>
        <time>2026-05-02T13:23:57.000Z</time>
      </trkpt>
      <trkpt lat="44.82489" lon="0.79756">
        <ele>206.8</ele>
        <time>2026-05-02T13:23:58.000Z</time>
      </trkpt>
      <trkpt lat="44.82489" lon="0.79754">
        <ele>206.7</ele>
        <time>2026-05-02T13:23:59.000Z</time>
      </trkpt>
      <trkpt lat="44.8249" lon="0.79751">
        <ele>207.7</ele>
        <time>2026-05-02T13:24:00.000Z</time>
      </trkpt>
      <trkpt lat="44.8249" lon="0.79749">
        <ele>207.5</ele>
        <time>2026-05-02T13:24:01.000Z</time>
      </trkpt>
      <trkpt lat="44.8249" lon="0.79746">
        <ele>207.2</ele>
        <time>2026-05-02T13:24:02.000Z</time>
      </trkpt>
      <trkpt lat="44.8249" lon="0.79744">
        <ele>206.7</ele>
        <time>2026-05-02T13:24:03.000Z</time>
      </trkpt>
      <trkpt lat="44.8249" lon="0.79742">
        <ele>205.7</ele>
        <time>2026-05-02T13:24:04.000Z</time>
      </trkpt>
      <trkpt lat="44.82491" lon="0.7974">
        <ele>204.7</ele>
        <time>2026-05-02T13:24:05.000Z</time>
      </trkpt>
      <trkpt lat="44.82491" lon="0.79738">
        <ele>204.2</ele>
        <time>2026-05-02T13:24:06.000Z</time>
      </trkpt>
      <trkpt lat="44.82491" lon="0.79735">
        <ele>205.8</ele>
        <time>2026-05-02T13:24:07.000Z</time>
      </trkpt>
      <trkpt lat="44.82491" lon="0.79732">
        <ele>206.7</ele>
        <time>2026-05-02T13:24:08.000Z</time>
      </trkpt>
      <trkpt lat="44.8249" lon="0.7973">
        <ele>206.8</ele>
        <time>2026-05-02T13:24:09.000Z</time>
      </trkpt>
      <trkpt lat="44.8249" lon="0.79728">
        <ele>206.4</ele>
        <time>2026-05-02T13:24:10.000Z</time>
      </trkpt>
      <trkpt lat="44.8249" lon="0.79726">
        <ele>204.9</ele>
        <time>2026-05-02T13:24:11.000Z</time>
      </trkpt>
      <trkpt lat="44.8249" lon="0.79723">
        <ele>204.6</ele>
        <time>2026-05-02T13:24:12.000Z</time>
      </trkpt>
      <trkpt lat="44.82491" lon="0.79721">
        <ele>204.5</ele>
        <time>2026-05-02T13:24:13.000Z</time>
      </trkpt>
      <trkpt lat="44.82491" lon="0.79718">
        <ele>204.3</ele>
        <time>2026-05-02T13:24:14.000Z</time>
      </trkpt>
      <trkpt lat="44.82491" lon="0.79716">
        <ele>203.9</ele>
        <time>2026-05-02T13:24:15.000Z</time>
      </trkpt>
      <trkpt lat="44.82492" lon="0.79713">
        <ele>203.7</ele>
        <time>2026-05-02T13:24:16.000Z</time>
      </trkpt>
      <trkpt lat="44.82492" lon="0.79711">
        <ele>204.8</ele>
        <time>2026-05-02T13:24:17.000Z</time>
      </trkpt>
      <trkpt lat="44.82491" lon="0.79708">
        <ele>204.7</ele>
        <time>2026-05-02T13:24:18.000Z</time>
      </trkpt>
      <trkpt lat="44.82491" lon="0.79706">
        <ele>204.5</ele>
        <time>2026-05-02T13:24:19.000Z</time>
      </trkpt>
      <trkpt lat="44.82491" lon="0.79704">
        <ele>203.9</ele>
        <time>2026-05-02T13:24:20.000Z</time>
      </trkpt>
      <trkpt lat="44.82491" lon="0.79701">
        <ele>204.9</ele>
        <time>2026-05-02T13:24:21.000Z</time>
      </trkpt>
      <trkpt lat="44.8249" lon="0.79697">
        <ele>205.2</ele>
        <time>2026-05-02T13:24:22.000Z</time>
      </trkpt>
      <trkpt lat="44.8249" lon="0.79694">
        <ele>205.5</ele>
        <time>2026-05-02T13:24:23.000Z</time>
      </trkpt>
      <trkpt lat="44.8249" lon="0.79691">
        <ele>205.1</ele>
        <time>2026-05-02T13:24:24.000Z</time>
      </trkpt>
      <trkpt lat="44.8249" lon="0.79688">
        <ele>205.3</ele>
        <time>2026-05-02T13:24:25.000Z</time>
      </trkpt>
      <trkpt lat="44.8249" lon="0.79686">
        <ele>205.4</ele>
        <time>2026-05-02T13:24:26.000Z</time>
      </trkpt>
      <trkpt lat="44.8249" lon="0.79684">
        <ele>204.5</ele>
        <time>2026-05-02T13:24:27.000Z</time>
      </trkpt>
      <trkpt lat="44.8249" lon="0.79683">
        <ele>203.7</ele>
        <time>2026-05-02T13:24:28.000Z</time>
      </trkpt>
      <trkpt lat="44.8249" lon="0.79681">
        <ele>203.6</ele>
        <time>2026-05-02T13:24:29.000Z</time>
      </trkpt>
      <trkpt lat="44.8249" lon="0.79679">
        <ele>202.8</ele>
        <time>2026-05-02T13:24:30.000Z</time>
      </trkpt>
      <trkpt lat="44.8249" lon="0.79677">
        <ele>201.6</ele>
        <time>2026-05-02T13:24:31.000Z</time>
      </trkpt>
      <trkpt lat="44.8249" lon="0.79675">
        <ele>201.2</ele>
        <time>2026-05-02T13:24:32.000Z</time>
      </trkpt>
      <trkpt lat="44.8249" lon="0.79673">
        <ele>200.9</ele>
        <time>2026-05-02T13:24:33.000Z</time>
      </trkpt>
      <trkpt lat="44.8249" lon="0.79671">
        <ele>201</ele>
        <time>2026-05-02T13:24:34.000Z</time>
      </trkpt>
      <trkpt lat="44.82489" lon="0.79669">
        <ele>201.6</ele>
        <time>2026-05-02T13:24:35.000Z</time>
      </trkpt>
      <trkpt lat="44.82489" lon="0.79667">
        <ele>201.3</ele>
        <time>2026-05-02T13:24:36.000Z</time>
      </trkpt>
      <trkpt lat="44.82488" lon="0.79664">
        <ele>201.4</ele>
        <time>2026-05-02T13:24:37.000Z</time>
      </trkpt>
      <trkpt lat="44.82488" lon="0.79662">
        <ele>200.7</ele>
        <time>2026-05-02T13:24:38.000Z</time>
      </trkpt>
      <trkpt lat="44.82488" lon="0.7966">
        <ele>200.5</ele>
        <time>2026-05-02T13:24:39.000Z</time>
      </trkpt>
      <trkpt lat="44.82487" lon="0.79658">
        <ele>200.8</ele>
        <time>2026-05-02T13:24:40.000Z</time>
      </trkpt>
      <trkpt lat="44.82487" lon="0.79656">
        <ele>200.4</ele>
        <time>2026-05-02T13:24:41.000Z</time>
      </trkpt>
      <trkpt lat="44.82486" lon="0.79654">
        <ele>200.6</ele>
        <time>2026-05-02T13:24:42.000Z</time>
      </trkpt>
      <trkpt lat="44.82486" lon="0.79652">
        <ele>200.2</ele>
        <time>2026-05-02T13:24:43.000Z</time>
      </trkpt>
      <trkpt lat="44.82485" lon="0.79649">
        <ele>199.8</ele>
        <time>2026-05-02T13:24:44.000Z</time>
      </trkpt>
      <trkpt lat="44.82484" lon="0.79646">
        <ele>199.8</ele>
        <time>2026-05-02T13:24:45.000Z</time>
      </trkpt>
      <trkpt lat="44.82484" lon="0.79643">
        <ele>199.4</ele>
        <time>2026-05-02T13:24:46.000Z</time>
      </trkpt>
      <trkpt lat="44.82483" lon="0.79641">
        <ele>200</ele>
        <time>2026-05-02T13:24:47.000Z</time>
      </trkpt>
      <trkpt lat="44.82482" lon="0.79639">
        <ele>200</ele>
        <time>2026-05-02T13:24:48.000Z</time>
      </trkpt>
      <trkpt lat="44.82482" lon="0.79637">
        <ele>201.6</ele>
        <time>2026-05-02T13:24:49.000Z</time>
      </trkpt>
      <trkpt lat="44.82481" lon="0.79635">
        <ele>201.2</ele>
        <time>2026-05-02T13:24:50.000Z</time>
      </trkpt>
      <trkpt lat="44.8248" lon="0.79633">
        <ele>201.1</ele>
        <time>2026-05-02T13:24:51.000Z</time>
      </trkpt>
      <trkpt lat="44.8248" lon="0.79631">
        <ele>200.6</ele>
        <time>2026-05-02T13:24:52.000Z</time>
      </trkpt>
      <trkpt lat="44.8248" lon="0.79632">
        <ele>200.5</ele>
        <time>2026-05-02T13:24:53.000Z</time>
      </trkpt>
      <trkpt lat="44.8248" lon="0.79632">
        <ele>200.5</ele>
        <time>2026-05-02T13:24:54.000Z</time>
      </trkpt>
      <trkpt lat="44.8248" lon="0.79632">
        <ele>200.7</ele>
        <time>2026-05-02T13:24:55.000Z</time>
      </trkpt>
      <trkpt lat="44.8248" lon="0.79632">
        <ele>200.3</ele>
        <time>2026-05-02T13:24:56.000Z</time>
      </trkpt>
      <trkpt lat="44.82479" lon="0.7963">
        <ele>199.8</ele>
        <time>2026-05-02T13:24:57.000Z</time>
      </trkpt>
      <trkpt lat="44.82479" lon="0.79629">
        <ele>198.9</ele>
        <time>2026-05-02T13:24:58.000Z</time>
      </trkpt>
      <trkpt lat="44.82478" lon="0.79628">
        <ele>198.9</ele>
        <time>2026-05-02T13:24:59.000Z</time>
      </trkpt>
      <trkpt lat="44.82477" lon="0.79627">
        <ele>198.8</ele>
        <time>2026-05-02T13:25:00.000Z</time>
      </trkpt>
      <trkpt lat="44.82476" lon="0.79626">
        <ele>198.5</ele>
        <time>2026-05-02T13:25:01.000Z</time>
      </trkpt>
      <trkpt lat="44.82475" lon="0.79625">
        <ele>199.2</ele>
        <time>2026-05-02T13:25:02.000Z</time>
      </trkpt>
      <trkpt lat="44.82474" lon="0.79624">
        <ele>198.4</ele>
        <time>2026-05-02T13:25:03.000Z</time>
      </trkpt>
      <trkpt lat="44.82473" lon="0.79623">
        <ele>198</ele>
        <time>2026-05-02T13:25:04.000Z</time>
      </trkpt>
      <trkpt lat="44.82472" lon="0.79621">
        <ele>197.7</ele>
        <time>2026-05-02T13:25:05.000Z</time>
      </trkpt>
      <trkpt lat="44.82472" lon="0.79619">
        <ele>198.2</ele>
        <time>2026-05-02T13:25:06.000Z</time>
      </trkpt>
      <trkpt lat="44.82471" lon="0.79618">
        <ele>197.4</ele>
        <time>2026-05-02T13:25:07.000Z</time>
      </trkpt>
      <trkpt lat="44.8247" lon="0.79616">
        <ele>197.5</ele>
        <time>2026-05-02T13:25:08.000Z</time>
      </trkpt>
      <trkpt lat="44.82468" lon="0.79615">
        <ele>195.9</ele>
        <time>2026-05-02T13:25:09.000Z</time>
      </trkpt>
      <trkpt lat="44.82468" lon="0.79613">
        <ele>196.2</ele>
        <time>2026-05-02T13:25:10.000Z</time>
      </trkpt>
      <trkpt lat="44.82467" lon="0.79612">
        <ele>195.5</ele>
        <time>2026-05-02T13:25:11.000Z</time>
      </trkpt>
      <trkpt lat="44.82466" lon="0.7961">
        <ele>195.2</ele>
        <time>2026-05-02T13:25:12.000Z</time>
      </trkpt>
      <trkpt lat="44.82465" lon="0.79608">
        <ele>194.8</ele>
        <time>2026-05-02T13:25:13.000Z</time>
      </trkpt>
      <trkpt lat="44.82464" lon="0.79606">
        <ele>193.8</ele>
        <time>2026-05-02T13:25:14.000Z</time>
      </trkpt>
      <trkpt lat="44.82463" lon="0.79605">
        <ele>193.8</ele>
        <time>2026-05-02T13:25:15.000Z</time>
      </trkpt>
      <trkpt lat="44.82462" lon="0.79603">
        <ele>193.6</ele>
        <time>2026-05-02T13:25:16.000Z</time>
      </trkpt>
      <trkpt lat="44.82461" lon="0.79601">
        <ele>193.3</ele>
        <time>2026-05-02T13:25:17.000Z</time>
      </trkpt>
      <trkpt lat="44.8246" lon="0.796">
        <ele>193</ele>
        <time>2026-05-02T13:25:18.000Z</time>
      </trkpt>
      <trkpt lat="44.82459" lon="0.79598">
        <ele>192.8</ele>
        <time>2026-05-02T13:25:19.000Z</time>
      </trkpt>
      <trkpt lat="44.82458" lon="0.79596">
        <ele>192.2</ele>
        <time>2026-05-02T13:25:20.000Z</time>
      </trkpt>
      <trkpt lat="44.82457" lon="0.79595">
        <ele>191.6</ele>
        <time>2026-05-02T13:25:21.000Z</time>
      </trkpt>
      <trkpt lat="44.82457" lon="0.79592">
        <ele>191.3</ele>
        <time>2026-05-02T13:25:22.000Z</time>
      </trkpt>
      <trkpt lat="44.82457" lon="0.7959">
        <ele>190.7</ele>
        <time>2026-05-02T13:25:23.000Z</time>
      </trkpt>
      <trkpt lat="44.82456" lon="0.79588">
        <ele>189.5</ele>
        <time>2026-05-02T13:25:24.000Z</time>
      </trkpt>
      <trkpt lat="44.82455" lon="0.79586">
        <ele>188.9</ele>
        <time>2026-05-02T13:25:25.000Z</time>
      </trkpt>
      <trkpt lat="44.82454" lon="0.79584">
        <ele>188</ele>
        <time>2026-05-02T13:25:26.000Z</time>
      </trkpt>
      <trkpt lat="44.82454" lon="0.79583">
        <ele>186.8</ele>
        <time>2026-05-02T13:25:27.000Z</time>
      </trkpt>
      <trkpt lat="44.82453" lon="0.79581">
        <ele>186.5</ele>
        <time>2026-05-02T13:25:28.000Z</time>
      </trkpt>
      <trkpt lat="44.82452" lon="0.7958">
        <ele>185.4</ele>
        <time>2026-05-02T13:25:29.000Z</time>
      </trkpt>
      <trkpt lat="44.82451" lon="0.79579">
        <ele>184.6</ele>
        <time>2026-05-02T13:25:30.000Z</time>
      </trkpt>
      <trkpt lat="44.8245" lon="0.79578">
        <ele>183.7</ele>
        <time>2026-05-02T13:25:31.000Z</time>
      </trkpt>
      <trkpt lat="44.8245" lon="0.79576">
        <ele>183.8</ele>
        <time>2026-05-02T13:25:32.000Z</time>
      </trkpt>
      <trkpt lat="44.82449" lon="0.79573">
        <ele>183.3</ele>
        <time>2026-05-02T13:25:33.000Z</time>
      </trkpt>
      <trkpt lat="44.82448" lon="0.79571">
        <ele>183</ele>
        <time>2026-05-02T13:25:34.000Z</time>
      </trkpt>
      <trkpt lat="44.82447" lon="0.79568">
        <ele>183.3</ele>
        <time>2026-05-02T13:25:35.000Z</time>
      </trkpt>
      <trkpt lat="44.82446" lon="0.79565">
        <ele>182.9</ele>
        <time>2026-05-02T13:25:36.000Z</time>
      </trkpt>
      <trkpt lat="44.82445" lon="0.79563">
        <ele>182.3</ele>
        <time>2026-05-02T13:25:37.000Z</time>
      </trkpt>
      <trkpt lat="44.82444" lon="0.7956">
        <ele>182.3</ele>
        <time>2026-05-02T13:25:38.000Z</time>
      </trkpt>
      <trkpt lat="44.82443" lon="0.79557">
        <ele>182.1</ele>
        <time>2026-05-02T13:25:39.000Z</time>
      </trkpt>
      <trkpt lat="44.82442" lon="0.79555">
        <ele>182.5</ele>
        <time>2026-05-02T13:25:40.000Z</time>
      </trkpt>
      <trkpt lat="44.82441" lon="0.79553">
        <ele>182</ele>
        <time>2026-05-02T13:25:41.000Z</time>
      </trkpt>
      <trkpt lat="44.8244" lon="0.79552">
        <ele>182</ele>
        <time>2026-05-02T13:25:42.000Z</time>
      </trkpt>
      <trkpt lat="44.82438" lon="0.7955">
        <ele>183.5</ele>
        <time>2026-05-02T13:25:43.000Z</time>
      </trkpt>
      <trkpt lat="44.82437" lon="0.79548">
        <ele>183.9</ele>
        <time>2026-05-02T13:25:44.000Z</time>
      </trkpt>
      <trkpt lat="44.82435" lon="0.79547">
        <ele>184.1</ele>
        <time>2026-05-02T13:25:45.000Z</time>
      </trkpt>
      <trkpt lat="44.82434" lon="0.79545">
        <ele>184.5</ele>
        <time>2026-05-02T13:25:46.000Z</time>
      </trkpt>
      <trkpt lat="44.82433" lon="0.79543">
        <ele>184.2</ele>
        <time>2026-05-02T13:25:47.000Z</time>
      </trkpt>
      <trkpt lat="44.82432" lon="0.79542">
        <ele>183.8</ele>
        <time>2026-05-02T13:25:48.000Z</time>
      </trkpt>
      <trkpt lat="44.82431" lon="0.7954">
        <ele>183.2</ele>
        <time>2026-05-02T13:25:49.000Z</time>
      </trkpt>
      <trkpt lat="44.82429" lon="0.79538">
        <ele>183.3</ele>
        <time>2026-05-02T13:25:50.000Z</time>
      </trkpt>
      <trkpt lat="44.82429" lon="0.79537">
        <ele>183</ele>
        <time>2026-05-02T13:25:51.000Z</time>
      </trkpt>
      <trkpt lat="44.82427" lon="0.79535">
        <ele>183.6</ele>
        <time>2026-05-02T13:25:52.000Z</time>
      </trkpt>
      <trkpt lat="44.82426" lon="0.79533">
        <ele>185.2</ele>
        <time>2026-05-02T13:25:53.000Z</time>
      </trkpt>
      <trkpt lat="44.82424" lon="0.79531">
        <ele>184.7</ele>
        <time>2026-05-02T13:25:54.000Z</time>
      </trkpt>
      <trkpt lat="44.82423" lon="0.7953">
        <ele>184.1</ele>
        <time>2026-05-02T13:25:55.000Z</time>
      </trkpt>
      <trkpt lat="44.82422" lon="0.79528">
        <ele>184.5</ele>
        <time>2026-05-02T13:25:56.000Z</time>
      </trkpt>
      <trkpt lat="44.82421" lon="0.79526">
        <ele>184.1</ele>
        <time>2026-05-02T13:25:57.000Z</time>
      </trkpt>
      <trkpt lat="44.8242" lon="0.79524">
        <ele>183.7</ele>
        <time>2026-05-02T13:25:58.000Z</time>
      </trkpt>
      <trkpt lat="44.82419" lon="0.79522">
        <ele>183.8</ele>
        <time>2026-05-02T13:25:59.000Z</time>
      </trkpt>
      <trkpt lat="44.82418" lon="0.7952">
        <ele>183.9</ele>
        <time>2026-05-02T13:26:00.000Z</time>
      </trkpt>
      <trkpt lat="44.82417" lon="0.79518">
        <ele>184.2</ele>
        <time>2026-05-02T13:26:01.000Z</time>
      </trkpt>
      <trkpt lat="44.82416" lon="0.79517">
        <ele>184.1</ele>
        <time>2026-05-02T13:26:02.000Z</time>
      </trkpt>
      <trkpt lat="44.82415" lon="0.79515">
        <ele>184.2</ele>
        <time>2026-05-02T13:26:03.000Z</time>
      </trkpt>
      <trkpt lat="44.82414" lon="0.79513">
        <ele>184.9</ele>
        <time>2026-05-02T13:26:04.000Z</time>
      </trkpt>
      <trkpt lat="44.82413" lon="0.79512">
        <ele>185.4</ele>
        <time>2026-05-02T13:26:05.000Z</time>
      </trkpt>
      <trkpt lat="44.82412" lon="0.7951">
        <ele>185.7</ele>
        <time>2026-05-02T13:26:06.000Z</time>
      </trkpt>
      <trkpt lat="44.82411" lon="0.79508">
        <ele>185.6</ele>
        <time>2026-05-02T13:26:07.000Z</time>
      </trkpt>
      <trkpt lat="44.8241" lon="0.79505">
        <ele>185.5</ele>
        <time>2026-05-02T13:26:08.000Z</time>
      </trkpt>
      <trkpt lat="44.8241" lon="0.79503">
        <ele>185.3</ele>
        <time>2026-05-02T13:26:09.000Z</time>
      </trkpt>
      <trkpt lat="44.82409" lon="0.795">
        <ele>184.6</ele>
        <time>2026-05-02T13:26:10.000Z</time>
      </trkpt>
      <trkpt lat="44.8241" lon="0.79496">
        <ele>183.9</ele>
        <time>2026-05-02T13:26:11.000Z</time>
      </trkpt>
      <trkpt lat="44.82411" lon="0.79493">
        <ele>182.8</ele>
        <time>2026-05-02T13:26:12.000Z</time>
      </trkpt>
      <trkpt lat="44.82413" lon="0.79492">
        <ele>183</ele>
        <time>2026-05-02T13:26:13.000Z</time>
      </trkpt>
      <trkpt lat="44.82414" lon="0.7949">
        <ele>183.1</ele>
        <time>2026-05-02T13:26:14.000Z</time>
      </trkpt>
      <trkpt lat="44.82415" lon="0.79489">
        <ele>182.8</ele>
        <time>2026-05-02T13:26:15.000Z</time>
      </trkpt>
      <trkpt lat="44.82416" lon="0.79487">
        <ele>184.5</ele>
        <time>2026-05-02T13:26:16.000Z</time>
      </trkpt>
      <trkpt lat="44.82418" lon="0.79485">
        <ele>184.8</ele>
        <time>2026-05-02T13:26:17.000Z</time>
      </trkpt>
      <trkpt lat="44.8242" lon="0.79483">
        <ele>185</ele>
        <time>2026-05-02T13:26:18.000Z</time>
      </trkpt>
      <trkpt lat="44.82421" lon="0.79481">
        <ele>185.3</ele>
        <time>2026-05-02T13:26:19.000Z</time>
      </trkpt>
      <trkpt lat="44.82423" lon="0.79479">
        <ele>185.7</ele>
        <time>2026-05-02T13:26:20.000Z</time>
      </trkpt>
      <trkpt lat="44.82425" lon="0.79478">
        <ele>186</ele>
        <time>2026-05-02T13:26:21.000Z</time>
      </trkpt>
      <trkpt lat="44.82426" lon="0.79476">
        <ele>186</ele>
        <time>2026-05-02T13:26:22.000Z</time>
      </trkpt>
      <trkpt lat="44.82428" lon="0.79474">
        <ele>185</ele>
        <time>2026-05-02T13:26:23.000Z</time>
      </trkpt>
      <trkpt lat="44.8243" lon="0.79473">
        <ele>184.1</ele>
        <time>2026-05-02T13:26:24.000Z</time>
      </trkpt>
      <trkpt lat="44.82431" lon="0.79471">
        <ele>184.4</ele>
        <time>2026-05-02T13:26:25.000Z</time>
      </trkpt>
      <trkpt lat="44.82432" lon="0.7947">
        <ele>184.6</ele>
        <time>2026-05-02T13:26:26.000Z</time>
      </trkpt>
      <trkpt lat="44.82433" lon="0.79468">
        <ele>184.8</ele>
        <time>2026-05-02T13:26:27.000Z</time>
      </trkpt>
      <trkpt lat="44.82435" lon="0.79467">
        <ele>184.7</ele>
        <time>2026-05-02T13:26:28.000Z</time>
      </trkpt>
      <trkpt lat="44.82436" lon="0.79466">
        <ele>184.9</ele>
        <time>2026-05-02T13:26:29.000Z</time>
      </trkpt>
      <trkpt lat="44.82437" lon="0.79465">
        <ele>184.9</ele>
        <time>2026-05-02T13:26:30.000Z</time>
      </trkpt>
      <trkpt lat="44.82438" lon="0.79463">
        <ele>185.1</ele>
        <time>2026-05-02T13:26:31.000Z</time>
      </trkpt>
      <trkpt lat="44.82441" lon="0.79462">
        <ele>184.2</ele>
        <time>2026-05-02T13:26:32.000Z</time>
      </trkpt>
      <trkpt lat="44.82442" lon="0.7946">
        <ele>183.9</ele>
        <time>2026-05-02T13:26:33.000Z</time>
      </trkpt>
      <trkpt lat="44.82444" lon="0.7946">
        <ele>182.9</ele>
        <time>2026-05-02T13:26:34.000Z</time>
      </trkpt>
      <trkpt lat="44.82446" lon="0.79459">
        <ele>183.6</ele>
        <time>2026-05-02T13:26:35.000Z</time>
      </trkpt>
      <trkpt lat="44.82448" lon="0.79458">
        <ele>183.5</ele>
        <time>2026-05-02T13:26:36.000Z</time>
      </trkpt>
      <trkpt lat="44.82449" lon="0.79457">
        <ele>184.2</ele>
        <time>2026-05-02T13:26:37.000Z</time>
      </trkpt>
      <trkpt lat="44.82451" lon="0.79456">
        <ele>184.7</ele>
        <time>2026-05-02T13:26:38.000Z</time>
      </trkpt>
      <trkpt lat="44.82452" lon="0.79455">
        <ele>186.3</ele>
        <time>2026-05-02T13:26:39.000Z</time>
      </trkpt>
      <trkpt lat="44.82452" lon="0.79455">
        <ele>185.4</ele>
        <time>2026-05-02T13:26:40.000Z</time>
      </trkpt>
      <trkpt lat="44.82452" lon="0.79455">
        <ele>185.4</ele>
        <time>2026-05-02T13:26:41.000Z</time>
      </trkpt>
      <trkpt lat="44.82453" lon="0.79454">
        <ele>184.8</ele>
        <time>2026-05-02T13:26:42.000Z</time>
      </trkpt>
      <trkpt lat="44.82454" lon="0.79452">
        <ele>184.7</ele>
        <time>2026-05-02T13:26:43.000Z</time>
      </trkpt>
      <trkpt lat="44.82456" lon="0.79451">
        <ele>184.6</ele>
        <time>2026-05-02T13:26:44.000Z</time>
      </trkpt>
      <trkpt lat="44.82457" lon="0.7945">
        <ele>185</ele>
        <time>2026-05-02T13:26:45.000Z</time>
      </trkpt>
      <trkpt lat="44.82459" lon="0.79449">
        <ele>184.9</ele>
        <time>2026-05-02T13:26:46.000Z</time>
      </trkpt>
      <trkpt lat="44.8246" lon="0.79448">
        <ele>185</ele>
        <time>2026-05-02T13:26:47.000Z</time>
      </trkpt>
      <trkpt lat="44.82461" lon="0.79446">
        <ele>185.4</ele>
        <time>2026-05-02T13:26:48.000Z</time>
      </trkpt>
      <trkpt lat="44.82463" lon="0.79445">
        <ele>185.2</ele>
        <time>2026-05-02T13:26:49.000Z</time>
      </trkpt>
      <trkpt lat="44.82465" lon="0.79444">
        <ele>185.3</ele>
        <time>2026-05-02T13:26:50.000Z</time>
      </trkpt>
      <trkpt lat="44.82466" lon="0.79443">
        <ele>185.1</ele>
        <time>2026-05-02T13:26:51.000Z</time>
      </trkpt>
      <trkpt lat="44.82468" lon="0.79441">
        <ele>185</ele>
        <time>2026-05-02T13:26:52.000Z</time>
      </trkpt>
      <trkpt lat="44.82469" lon="0.79441">
        <ele>183.9</ele>
        <time>2026-05-02T13:26:53.000Z</time>
      </trkpt>
      <trkpt lat="44.82471" lon="0.79439">
        <ele>183.4</ele>
        <time>2026-05-02T13:26:54.000Z</time>
      </trkpt>
      <trkpt lat="44.82472" lon="0.79438">
        <ele>183.5</ele>
        <time>2026-05-02T13:26:55.000Z</time>
      </trkpt>
      <trkpt lat="44.82473" lon="0.79436">
        <ele>183.1</ele>
        <time>2026-05-02T13:26:56.000Z</time>
      </trkpt>
      <trkpt lat="44.82474" lon="0.79435">
        <ele>181.8</ele>
        <time>2026-05-02T13:26:57.000Z</time>
      </trkpt>
      <trkpt lat="44.82475" lon="0.79434">
        <ele>181.8</ele>
        <time>2026-05-02T13:26:58.000Z</time>
      </trkpt>
      <trkpt lat="44.82477" lon="0.79433">
        <ele>182.1</ele>
        <time>2026-05-02T13:26:59.000Z</time>
      </trkpt>
      <trkpt lat="44.82479" lon="0.79432">
        <ele>181.7</ele>
        <time>2026-05-02T13:27:00.000Z</time>
      </trkpt>
      <trkpt lat="44.8248" lon="0.79431">
        <ele>182.1</ele>
        <time>2026-05-02T13:27:01.000Z</time>
      </trkpt>
      <trkpt lat="44.82482" lon="0.7943">
        <ele>182.1</ele>
        <time>2026-05-02T13:27:02.000Z</time>
      </trkpt>
      <trkpt lat="44.82484" lon="0.79428">
        <ele>182.3</ele>
        <time>2026-05-02T13:27:03.000Z</time>
      </trkpt>
      <trkpt lat="44.82485" lon="0.79427">
        <ele>182.2</ele>
        <time>2026-05-02T13:27:04.000Z</time>
      </trkpt>
      <trkpt lat="44.82487" lon="0.79425">
        <ele>182.1</ele>
        <time>2026-05-02T13:27:05.000Z</time>
      </trkpt>
      <trkpt lat="44.8249" lon="0.79423">
        <ele>182.1</ele>
        <time>2026-05-02T13:27:06.000Z</time>
      </trkpt>
      <trkpt lat="44.82492" lon="0.79423">
        <ele>181.7</ele>
        <time>2026-05-02T13:27:07.000Z</time>
      </trkpt>
      <trkpt lat="44.82494" lon="0.79422">
        <ele>181.7</ele>
        <time>2026-05-02T13:27:08.000Z</time>
      </trkpt>
      <trkpt lat="44.82495" lon="0.7942">
        <ele>182.1</ele>
        <time>2026-05-02T13:27:09.000Z</time>
      </trkpt>
      <trkpt lat="44.82496" lon="0.79422">
        <ele>179.4</ele>
        <time>2026-05-02T13:27:10.000Z</time>
      </trkpt>
      <trkpt lat="44.82499" lon="0.79425">
        <ele>179.3</ele>
        <time>2026-05-02T13:27:11.000Z</time>
      </trkpt>
      <trkpt lat="44.82499" lon="0.79424">
        <ele>179</ele>
        <time>2026-05-02T13:27:12.000Z</time>
      </trkpt>
      <trkpt lat="44.825" lon="0.79424">
        <ele>179.8</ele>
        <time>2026-05-02T13:27:13.000Z</time>
      </trkpt>
      <trkpt lat="44.825" lon="0.79424">
        <ele>179.7</ele>
        <time>2026-05-02T13:27:14.000Z</time>
      </trkpt>
      <trkpt lat="44.825" lon="0.79423">
        <ele>179.7</ele>
        <time>2026-05-02T13:27:15.000Z</time>
      </trkpt>
      <trkpt lat="44.825" lon="0.79423">
        <ele>179.7</ele>
        <time>2026-05-02T13:27:16.000Z</time>
      </trkpt>
      <trkpt lat="44.82501" lon="0.79423">
        <ele>179.5</ele>
        <time>2026-05-02T13:27:17.000Z</time>
      </trkpt>
      <trkpt lat="44.82503" lon="0.79421">
        <ele>180.2</ele>
        <time>2026-05-02T13:27:18.000Z</time>
      </trkpt>
      <trkpt lat="44.82504" lon="0.79419">
        <ele>180.3</ele>
        <time>2026-05-02T13:27:19.000Z</time>
      </trkpt>
      <trkpt lat="44.82505" lon="0.79418">
        <ele>179.6</ele>
        <time>2026-05-02T13:27:20.000Z</time>
      </trkpt>
      <trkpt lat="44.82507" lon="0.79418">
        <ele>179.3</ele>
        <time>2026-05-02T13:27:21.000Z</time>
      </trkpt>
      <trkpt lat="44.82508" lon="0.79418">
        <ele>178.9</ele>
        <time>2026-05-02T13:27:22.000Z</time>
      </trkpt>
      <trkpt lat="44.82509" lon="0.79418">
        <ele>178.8</ele>
        <time>2026-05-02T13:27:23.000Z</time>
      </trkpt>
      <trkpt lat="44.82511" lon="0.79418">
        <ele>178.1</ele>
        <time>2026-05-02T13:27:24.000Z</time>
      </trkpt>
      <trkpt lat="44.82512" lon="0.79417">
        <ele>179.1</ele>
        <time>2026-05-02T13:27:25.000Z</time>
      </trkpt>
      <trkpt lat="44.82514" lon="0.79417">
        <ele>178.9</ele>
        <time>2026-05-02T13:27:26.000Z</time>
      </trkpt>
      <trkpt lat="44.82515" lon="0.79416">
        <ele>180.6</ele>
        <time>2026-05-02T13:27:27.000Z</time>
      </trkpt>
      <trkpt lat="44.82516" lon="0.79415">
        <ele>181.2</ele>
        <time>2026-05-02T13:27:28.000Z</time>
      </trkpt>
      <trkpt lat="44.82517" lon="0.79414">
        <ele>181.9</ele>
        <time>2026-05-02T13:27:29.000Z</time>
      </trkpt>
      <trkpt lat="44.82518" lon="0.79414">
        <ele>182.7</ele>
        <time>2026-05-02T13:27:30.000Z</time>
      </trkpt>
      <trkpt lat="44.8252" lon="0.79413">
        <ele>182.5</ele>
        <time>2026-05-02T13:27:31.000Z</time>
      </trkpt>
      <trkpt lat="44.82521" lon="0.79412">
        <ele>183.4</ele>
        <time>2026-05-02T13:27:32.000Z</time>
      </trkpt>
      <trkpt lat="44.82522" lon="0.79411">
        <ele>183.7</ele>
        <time>2026-05-02T13:27:33.000Z</time>
      </trkpt>
      <trkpt lat="44.82524" lon="0.7941">
        <ele>183.5</ele>
        <time>2026-05-02T13:27:34.000Z</time>
      </trkpt>
      <trkpt lat="44.82525" lon="0.7941">
        <ele>183.1</ele>
        <time>2026-05-02T13:27:35.000Z</time>
      </trkpt>
      <trkpt lat="44.82526" lon="0.79409">
        <ele>183.6</ele>
        <time>2026-05-02T13:27:36.000Z</time>
      </trkpt>
      <trkpt lat="44.82528" lon="0.79408">
        <ele>182.9</ele>
        <time>2026-05-02T13:27:37.000Z</time>
      </trkpt>
      <trkpt lat="44.82529" lon="0.79408">
        <ele>182.7</ele>
        <time>2026-05-02T13:27:38.000Z</time>
      </trkpt>
      <trkpt lat="44.82531" lon="0.79407">
        <ele>182.6</ele>
        <time>2026-05-02T13:27:39.000Z</time>
      </trkpt>
      <trkpt lat="44.82533" lon="0.79407">
        <ele>182.7</ele>
        <time>2026-05-02T13:27:40.000Z</time>
      </trkpt>
      <trkpt lat="44.82535" lon="0.79406">
        <ele>182.1</ele>
        <time>2026-05-02T13:27:41.000Z</time>
      </trkpt>
      <trkpt lat="44.82536" lon="0.79406">
        <ele>181.5</ele>
        <time>2026-05-02T13:27:42.000Z</time>
      </trkpt>
      <trkpt lat="44.82538" lon="0.79406">
        <ele>180.6</ele>
        <time>2026-05-02T13:27:43.000Z</time>
      </trkpt>
      <trkpt lat="44.8254" lon="0.79405">
        <ele>180.4</ele>
        <time>2026-05-02T13:27:44.000Z</time>
      </trkpt>
      <trkpt lat="44.82541" lon="0.79405">
        <ele>179.3</ele>
        <time>2026-05-02T13:27:45.000Z</time>
      </trkpt>
      <trkpt lat="44.82542" lon="0.79404">
        <ele>180.1</ele>
        <time>2026-05-02T13:27:46.000Z</time>
      </trkpt>
      <trkpt lat="44.82543" lon="0.79403">
        <ele>179.4</ele>
        <time>2026-05-02T13:27:47.000Z</time>
      </trkpt>
      <trkpt lat="44.82545" lon="0.79403">
        <ele>179</ele>
        <time>2026-05-02T13:27:48.000Z</time>
      </trkpt>
      <trkpt lat="44.82547" lon="0.79403">
        <ele>178.5</ele>
        <time>2026-05-02T13:27:49.000Z</time>
      </trkpt>
      <trkpt lat="44.82549" lon="0.79402">
        <ele>177.7</ele>
        <time>2026-05-02T13:27:50.000Z</time>
      </trkpt>
      <trkpt lat="44.8255" lon="0.79401">
        <ele>177.5</ele>
        <time>2026-05-02T13:27:51.000Z</time>
      </trkpt>
      <trkpt lat="44.82552" lon="0.794">
        <ele>177.7</ele>
        <time>2026-05-02T13:27:52.000Z</time>
      </trkpt>
      <trkpt lat="44.82554" lon="0.794">
        <ele>177.3</ele>
        <time>2026-05-02T13:27:53.000Z</time>
      </trkpt>
      <trkpt lat="44.82555" lon="0.79399">
        <ele>177</ele>
        <time>2026-05-02T13:27:54.000Z</time>
      </trkpt>
      <trkpt lat="44.82557" lon="0.79399">
        <ele>177.3</ele>
        <time>2026-05-02T13:27:55.000Z</time>
      </trkpt>
      <trkpt lat="44.82558" lon="0.79398">
        <ele>177.3</ele>
        <time>2026-05-02T13:27:56.000Z</time>
      </trkpt>
      <trkpt lat="44.8256" lon="0.79397">
        <ele>176.9</ele>
        <time>2026-05-02T13:27:57.000Z</time>
      </trkpt>
      <trkpt lat="44.82561" lon="0.79397">
        <ele>176.5</ele>
        <time>2026-05-02T13:27:58.000Z</time>
      </trkpt>
      <trkpt lat="44.82563" lon="0.79395">
        <ele>176.1</ele>
        <time>2026-05-02T13:27:59.000Z</time>
      </trkpt>
      <trkpt lat="44.82565" lon="0.79395">
        <ele>175.8</ele>
        <time>2026-05-02T13:28:00.000Z</time>
      </trkpt>
      <trkpt lat="44.82566" lon="0.79393">
        <ele>175.6</ele>
        <time>2026-05-02T13:28:01.000Z</time>
      </trkpt>
      <trkpt lat="44.82568" lon="0.79393">
        <ele>175.3</ele>
        <time>2026-05-02T13:28:02.000Z</time>
      </trkpt>
      <trkpt lat="44.82569" lon="0.79392">
        <ele>175.4</ele>
        <time>2026-05-02T13:28:03.000Z</time>
      </trkpt>
      <trkpt lat="44.82571" lon="0.7939">
        <ele>176.5</ele>
        <time>2026-05-02T13:28:04.000Z</time>
      </trkpt>
      <trkpt lat="44.82569" lon="0.79391">
        <ele>175.3</ele>
        <time>2026-05-02T13:28:05.000Z</time>
      </trkpt>
      <trkpt lat="44.8257" lon="0.7939">
        <ele>175.4</ele>
        <time>2026-05-02T13:28:06.000Z</time>
      </trkpt>
      <trkpt lat="44.82571" lon="0.79389">
        <ele>175.5</ele>
        <time>2026-05-02T13:28:07.000Z</time>
      </trkpt>
      <trkpt lat="44.82572" lon="0.79388">
        <ele>175.7</ele>
        <time>2026-05-02T13:28:08.000Z</time>
      </trkpt>
      <trkpt lat="44.82573" lon="0.79389">
        <ele>175.8</ele>
        <time>2026-05-02T13:28:09.000Z</time>
      </trkpt>
      <trkpt lat="44.82574" lon="0.79389">
        <ele>176</ele>
        <time>2026-05-02T13:28:10.000Z</time>
      </trkpt>
      <trkpt lat="44.82576" lon="0.79387">
        <ele>175.9</ele>
        <time>2026-05-02T13:28:11.000Z</time>
      </trkpt>
      <trkpt lat="44.82578" lon="0.79386">
        <ele>176.2</ele>
        <time>2026-05-02T13:28:12.000Z</time>
      </trkpt>
      <trkpt lat="44.82579" lon="0.79385">
        <ele>176.4</ele>
        <time>2026-05-02T13:28:13.000Z</time>
      </trkpt>
      <trkpt lat="44.8258" lon="0.79384">
        <ele>177.9</ele>
        <time>2026-05-02T13:28:14.000Z</time>
      </trkpt>
      <trkpt lat="44.82581" lon="0.79384">
        <ele>177.3</ele>
        <time>2026-05-02T13:28:15.000Z</time>
      </trkpt>
      <trkpt lat="44.82582" lon="0.79383">
        <ele>177.7</ele>
        <time>2026-05-02T13:28:16.000Z</time>
      </trkpt>
      <trkpt lat="44.82583" lon="0.79383">
        <ele>177.3</ele>
        <time>2026-05-02T13:28:17.000Z</time>
      </trkpt>
      <trkpt lat="44.82585" lon="0.79383">
        <ele>176.5</ele>
        <time>2026-05-02T13:28:18.000Z</time>
      </trkpt>
      <trkpt lat="44.82586" lon="0.79382">
        <ele>175.7</ele>
        <time>2026-05-02T13:28:19.000Z</time>
      </trkpt>
      <trkpt lat="44.82587" lon="0.79382">
        <ele>176</ele>
        <time>2026-05-02T13:28:20.000Z</time>
      </trkpt>
      <trkpt lat="44.82588" lon="0.79381">
        <ele>176.9</ele>
        <time>2026-05-02T13:28:21.000Z</time>
      </trkpt>
      <trkpt lat="44.82589" lon="0.7938">
        <ele>177.6</ele>
        <time>2026-05-02T13:28:22.000Z</time>
      </trkpt>
      <trkpt lat="44.82591" lon="0.79381">
        <ele>178.2</ele>
        <time>2026-05-02T13:28:23.000Z</time>
      </trkpt>
      <trkpt lat="44.82591" lon="0.79381">
        <ele>177.9</ele>
        <time>2026-05-02T13:28:24.000Z</time>
      </trkpt>
      <trkpt lat="44.82592" lon="0.7938">
        <ele>177.2</ele>
        <time>2026-05-02T13:28:25.000Z</time>
      </trkpt>
      <trkpt lat="44.82593" lon="0.7938">
        <ele>176.5</ele>
        <time>2026-05-02T13:28:26.000Z</time>
      </trkpt>
      <trkpt lat="44.82594" lon="0.7938">
        <ele>174</ele>
        <time>2026-05-02T13:28:27.000Z</time>
      </trkpt>
      <trkpt lat="44.82595" lon="0.79379">
        <ele>173.7</ele>
        <time>2026-05-02T13:28:28.000Z</time>
      </trkpt>
      <trkpt lat="44.82596" lon="0.79378">
        <ele>172.5</ele>
        <time>2026-05-02T13:28:29.000Z</time>
      </trkpt>
      <trkpt lat="44.82598" lon="0.79377">
        <ele>172.7</ele>
        <time>2026-05-02T13:28:30.000Z</time>
      </trkpt>
      <trkpt lat="44.826" lon="0.79377">
        <ele>171.3</ele>
        <time>2026-05-02T13:28:31.000Z</time>
      </trkpt>
      <trkpt lat="44.82601" lon="0.79376">
        <ele>170.1</ele>
        <time>2026-05-02T13:28:32.000Z</time>
      </trkpt>
      <trkpt lat="44.82603" lon="0.79376">
        <ele>168.8</ele>
        <time>2026-05-02T13:28:33.000Z</time>
      </trkpt>
      <trkpt lat="44.82605" lon="0.79376">
        <ele>167.5</ele>
        <time>2026-05-02T13:28:34.000Z</time>
      </trkpt>
      <trkpt lat="44.82606" lon="0.79376">
        <ele>166.3</ele>
        <time>2026-05-02T13:28:35.000Z</time>
      </trkpt>
      <trkpt lat="44.82608" lon="0.79375">
        <ele>165.8</ele>
        <time>2026-05-02T13:28:36.000Z</time>
      </trkpt>
      <trkpt lat="44.8261" lon="0.79375">
        <ele>165.5</ele>
        <time>2026-05-02T13:28:37.000Z</time>
      </trkpt>
      <trkpt lat="44.82612" lon="0.79375">
        <ele>164.8</ele>
        <time>2026-05-02T13:28:38.000Z</time>
      </trkpt>
      <trkpt lat="44.82613" lon="0.79374">
        <ele>164.3</ele>
        <time>2026-05-02T13:28:39.000Z</time>
      </trkpt>
      <trkpt lat="44.82615" lon="0.79374">
        <ele>164.4</ele>
        <time>2026-05-02T13:28:40.000Z</time>
      </trkpt>
      <trkpt lat="44.82617" lon="0.79373">
        <ele>165.8</ele>
        <time>2026-05-02T13:28:41.000Z</time>
      </trkpt>
      <trkpt lat="44.82618" lon="0.79373">
        <ele>165.6</ele>
        <time>2026-05-02T13:28:42.000Z</time>
      </trkpt>
      <trkpt lat="44.8262" lon="0.79372">
        <ele>165.6</ele>
        <time>2026-05-02T13:28:43.000Z</time>
      </trkpt>
      <trkpt lat="44.82622" lon="0.79372">
        <ele>165.9</ele>
        <time>2026-05-02T13:28:44.000Z</time>
      </trkpt>
      <trkpt lat="44.82623" lon="0.79372">
        <ele>166.1</ele>
        <time>2026-05-02T13:28:45.000Z</time>
      </trkpt>
      <trkpt lat="44.82625" lon="0.79371">
        <ele>166.2</ele>
        <time>2026-05-02T13:28:46.000Z</time>
      </trkpt>
      <trkpt lat="44.82627" lon="0.79371">
        <ele>165.1</ele>
        <time>2026-05-02T13:28:47.000Z</time>
      </trkpt>
      <trkpt lat="44.82628" lon="0.7937">
        <ele>164.6</ele>
        <time>2026-05-02T13:28:48.000Z</time>
      </trkpt>
      <trkpt lat="44.82629" lon="0.7937">
        <ele>164.5</ele>
        <time>2026-05-02T13:28:49.000Z</time>
      </trkpt>
      <trkpt lat="44.82631" lon="0.79368">
        <ele>164.6</ele>
        <time>2026-05-02T13:28:50.000Z</time>
      </trkpt>
      <trkpt lat="44.82632" lon="0.79367">
        <ele>164.1</ele>
        <time>2026-05-02T13:28:51.000Z</time>
      </trkpt>
      <trkpt lat="44.82634" lon="0.79367">
        <ele>164.4</ele>
        <time>2026-05-02T13:28:52.000Z</time>
      </trkpt>
      <trkpt lat="44.82635" lon="0.79366">
        <ele>165.3</ele>
        <time>2026-05-02T13:28:53.000Z</time>
      </trkpt>
      <trkpt lat="44.82637" lon="0.79366">
        <ele>165.1</ele>
        <time>2026-05-02T13:28:54.000Z</time>
      </trkpt>
      <trkpt lat="44.82638" lon="0.79365">
        <ele>166</ele>
        <time>2026-05-02T13:28:55.000Z</time>
      </trkpt>
      <trkpt lat="44.8264" lon="0.79364">
        <ele>167.4</ele>
        <time>2026-05-02T13:28:56.000Z</time>
      </trkpt>
      <trkpt lat="44.82642" lon="0.79363">
        <ele>168.4</ele>
        <time>2026-05-02T13:28:57.000Z</time>
      </trkpt>
      <trkpt lat="44.82643" lon="0.79362">
        <ele>169.8</ele>
        <time>2026-05-02T13:28:58.000Z</time>
      </trkpt>
      <trkpt lat="44.82645" lon="0.79361">
        <ele>169.8</ele>
        <time>2026-05-02T13:28:59.000Z</time>
      </trkpt>
      <trkpt lat="44.82646" lon="0.79361">
        <ele>170.6</ele>
        <time>2026-05-02T13:29:00.000Z</time>
      </trkpt>
      <trkpt lat="44.82648" lon="0.79359">
        <ele>171.4</ele>
        <time>2026-05-02T13:29:01.000Z</time>
      </trkpt>
      <trkpt lat="44.82649" lon="0.79358">
        <ele>171.9</ele>
        <time>2026-05-02T13:29:02.000Z</time>
      </trkpt>
      <trkpt lat="44.8265" lon="0.79357">
        <ele>171.9</ele>
        <time>2026-05-02T13:29:03.000Z</time>
      </trkpt>
      <trkpt lat="44.82653" lon="0.79357">
        <ele>170.6</ele>
        <time>2026-05-02T13:29:04.000Z</time>
      </trkpt>
      <trkpt lat="44.82654" lon="0.79357">
        <ele>169.8</ele>
        <time>2026-05-02T13:29:05.000Z</time>
      </trkpt>
      <trkpt lat="44.82657" lon="0.79358">
        <ele>169.4</ele>
        <time>2026-05-02T13:29:06.000Z</time>
      </trkpt>
      <trkpt lat="44.82659" lon="0.79359">
        <ele>168.9</ele>
        <time>2026-05-02T13:29:07.000Z</time>
      </trkpt>
      <trkpt lat="44.8266" lon="0.79359">
        <ele>169.1</ele>
        <time>2026-05-02T13:29:08.000Z</time>
      </trkpt>
      <trkpt lat="44.82661" lon="0.79362">
        <ele>168</ele>
        <time>2026-05-02T13:29:09.000Z</time>
      </trkpt>
      <trkpt lat="44.82662" lon="0.79364">
        <ele>167.1</ele>
        <time>2026-05-02T13:29:10.000Z</time>
      </trkpt>
      <trkpt lat="44.82663" lon="0.79366">
        <ele>165.7</ele>
        <time>2026-05-02T13:29:11.000Z</time>
      </trkpt>
      <trkpt lat="44.82664" lon="0.79368">
        <ele>165.6</ele>
        <time>2026-05-02T13:29:12.000Z</time>
      </trkpt>
      <trkpt lat="44.82665" lon="0.79369">
        <ele>164.6</ele>
        <time>2026-05-02T13:29:13.000Z</time>
      </trkpt>
      <trkpt lat="44.82666" lon="0.79371">
        <ele>164.4</ele>
        <time>2026-05-02T13:29:14.000Z</time>
      </trkpt>
      <trkpt lat="44.82668" lon="0.79372">
        <ele>164.2</ele>
        <time>2026-05-02T13:29:15.000Z</time>
      </trkpt>
      <trkpt lat="44.82669" lon="0.79373">
        <ele>164.4</ele>
        <time>2026-05-02T13:29:16.000Z</time>
      </trkpt>
      <trkpt lat="44.82672" lon="0.79373">
        <ele>165.9</ele>
        <time>2026-05-02T13:29:17.000Z</time>
      </trkpt>
      <trkpt lat="44.82674" lon="0.79373">
        <ele>166.7</ele>
        <time>2026-05-02T13:29:18.000Z</time>
      </trkpt>
      <trkpt lat="44.82675" lon="0.79374">
        <ele>166.8</ele>
        <time>2026-05-02T13:29:19.000Z</time>
      </trkpt>
      <trkpt lat="44.82676" lon="0.79376">
        <ele>167</ele>
        <time>2026-05-02T13:29:20.000Z</time>
      </trkpt>
      <trkpt lat="44.82678" lon="0.79378">
        <ele>167.4</ele>
        <time>2026-05-02T13:29:21.000Z</time>
      </trkpt>
      <trkpt lat="44.82678" lon="0.7938">
        <ele>167</ele>
        <time>2026-05-02T13:29:22.000Z</time>
      </trkpt>
      <trkpt lat="44.8268" lon="0.79382">
        <ele>167.3</ele>
        <time>2026-05-02T13:29:23.000Z</time>
      </trkpt>
      <trkpt lat="44.82681" lon="0.79384">
        <ele>167.4</ele>
        <time>2026-05-02T13:29:24.000Z</time>
      </trkpt>
      <trkpt lat="44.82682" lon="0.79386">
        <ele>168</ele>
        <time>2026-05-02T13:29:25.000Z</time>
      </trkpt>
      <trkpt lat="44.82683" lon="0.79388">
        <ele>168.2</ele>
        <time>2026-05-02T13:29:26.000Z</time>
      </trkpt>
      <trkpt lat="44.82684" lon="0.7939">
        <ele>168.4</ele>
        <time>2026-05-02T13:29:27.000Z</time>
      </trkpt>
      <trkpt lat="44.82685" lon="0.79392">
        <ele>168.5</ele>
        <time>2026-05-02T13:29:28.000Z</time>
      </trkpt>
      <trkpt lat="44.82687" lon="0.79394">
        <ele>168.7</ele>
        <time>2026-05-02T13:29:29.000Z</time>
      </trkpt>
      <trkpt lat="44.82688" lon="0.79396">
        <ele>168.9</ele>
        <time>2026-05-02T13:29:30.000Z</time>
      </trkpt>
      <trkpt lat="44.8269" lon="0.79398">
        <ele>169.3</ele>
        <time>2026-05-02T13:29:31.000Z</time>
      </trkpt>
      <trkpt lat="44.82691" lon="0.794">
        <ele>169.5</ele>
        <time>2026-05-02T13:29:32.000Z</time>
      </trkpt>
      <trkpt lat="44.82692" lon="0.79402">
        <ele>169.9</ele>
        <time>2026-05-02T13:29:33.000Z</time>
      </trkpt>
      <trkpt lat="44.82693" lon="0.79404">
        <ele>169.9</ele>
        <time>2026-05-02T13:29:34.000Z</time>
      </trkpt>
      <trkpt lat="44.82694" lon="0.79406">
        <ele>170.1</ele>
        <time>2026-05-02T13:29:35.000Z</time>
      </trkpt>
      <trkpt lat="44.82696" lon="0.79409">
        <ele>170.2</ele>
        <time>2026-05-02T13:29:36.000Z</time>
      </trkpt>
      <trkpt lat="44.82697" lon="0.79411">
        <ele>170.6</ele>
        <time>2026-05-02T13:29:37.000Z</time>
      </trkpt>
      <trkpt lat="44.82698" lon="0.79413">
        <ele>170.7</ele>
        <time>2026-05-02T13:29:38.000Z</time>
      </trkpt>
      <trkpt lat="44.82699" lon="0.79415">
        <ele>170.9</ele>
        <time>2026-05-02T13:29:39.000Z</time>
      </trkpt>
      <trkpt lat="44.827" lon="0.79417">
        <ele>171.6</ele>
        <time>2026-05-02T13:29:40.000Z</time>
      </trkpt>
      <trkpt lat="44.82702" lon="0.79419">
        <ele>171.7</ele>
        <time>2026-05-02T13:29:41.000Z</time>
      </trkpt>
      <trkpt lat="44.82702" lon="0.79422">
        <ele>171.3</ele>
        <time>2026-05-02T13:29:42.000Z</time>
      </trkpt>
      <trkpt lat="44.82704" lon="0.79424">
        <ele>172.1</ele>
        <time>2026-05-02T13:29:43.000Z</time>
      </trkpt>
      <trkpt lat="44.82705" lon="0.79426">
        <ele>172.5</ele>
        <time>2026-05-02T13:29:44.000Z</time>
      </trkpt>
      <trkpt lat="44.82706" lon="0.79428">
        <ele>173</ele>
        <time>2026-05-02T13:29:45.000Z</time>
      </trkpt>
      <trkpt lat="44.82707" lon="0.7943">
        <ele>173.4</ele>
        <time>2026-05-02T13:29:46.000Z</time>
      </trkpt>
      <trkpt lat="44.82708" lon="0.79432">
        <ele>173.6</ele>
        <time>2026-05-02T13:29:47.000Z</time>
      </trkpt>
      <trkpt lat="44.8271" lon="0.79434">
        <ele>173.8</ele>
        <time>2026-05-02T13:29:48.000Z</time>
      </trkpt>
      <trkpt lat="44.82711" lon="0.79436">
        <ele>174</ele>
        <time>2026-05-02T13:29:49.000Z</time>
      </trkpt>
      <trkpt lat="44.82712" lon="0.79438">
        <ele>174.2</ele>
        <time>2026-05-02T13:29:50.000Z</time>
      </trkpt>
      <trkpt lat="44.82713" lon="0.7944">
        <ele>174.4</ele>
        <time>2026-05-02T13:29:51.000Z</time>
      </trkpt>
      <trkpt lat="44.82714" lon="0.79442">
        <ele>174.8</ele>
        <time>2026-05-02T13:29:52.000Z</time>
      </trkpt>
      <trkpt lat="44.82716" lon="0.79444">
        <ele>175.1</ele>
        <time>2026-05-02T13:29:53.000Z</time>
      </trkpt>
      <trkpt lat="44.82717" lon="0.79447">
        <ele>175.6</ele>
        <time>2026-05-02T13:29:54.000Z</time>
      </trkpt>
      <trkpt lat="44.82718" lon="0.79449">
        <ele>175.8</ele>
        <time>2026-05-02T13:29:55.000Z</time>
      </trkpt>
      <trkpt lat="44.82719" lon="0.79452">
        <ele>176.1</ele>
        <time>2026-05-02T13:29:56.000Z</time>
      </trkpt>
      <trkpt lat="44.8272" lon="0.79454">
        <ele>176.5</ele>
        <time>2026-05-02T13:29:57.000Z</time>
      </trkpt>
      <trkpt lat="44.82721" lon="0.79457">
        <ele>177</ele>
        <time>2026-05-02T13:29:58.000Z</time>
      </trkpt>
      <trkpt lat="44.82722" lon="0.79459">
        <ele>177.7</ele>
        <time>2026-05-02T13:29:59.000Z</time>
      </trkpt>
      <trkpt lat="44.82723" lon="0.79462">
        <ele>178</ele>
        <time>2026-05-02T13:30:00.000Z</time>
      </trkpt>
      <trkpt lat="44.82724" lon="0.79464">
        <ele>177.6</ele>
        <time>2026-05-02T13:30:01.000Z</time>
      </trkpt>
      <trkpt lat="44.82725" lon="0.79467">
        <ele>177.7</ele>
        <time>2026-05-02T13:30:02.000Z</time>
      </trkpt>
      <trkpt lat="44.82726" lon="0.79469">
        <ele>178.4</ele>
        <time>2026-05-02T13:30:03.000Z</time>
      </trkpt>
      <trkpt lat="44.82727" lon="0.79471">
        <ele>178.4</ele>
        <time>2026-05-02T13:30:04.000Z</time>
      </trkpt>
      <trkpt lat="44.82728" lon="0.79474">
        <ele>178.6</ele>
        <time>2026-05-02T13:30:05.000Z</time>
      </trkpt>
      <trkpt lat="44.82728" lon="0.79477">
        <ele>178.5</ele>
        <time>2026-05-02T13:30:06.000Z</time>
      </trkpt>
      <trkpt lat="44.82729" lon="0.79479">
        <ele>179.6</ele>
        <time>2026-05-02T13:30:07.000Z</time>
      </trkpt>
      <trkpt lat="44.8273" lon="0.79482">
        <ele>180</ele>
        <time>2026-05-02T13:30:08.000Z</time>
      </trkpt>
      <trkpt lat="44.82732" lon="0.79484">
        <ele>180.2</ele>
        <time>2026-05-02T13:30:09.000Z</time>
      </trkpt>
      <trkpt lat="44.82733" lon="0.79486">
        <ele>180</ele>
        <time>2026-05-02T13:30:10.000Z</time>
      </trkpt>
      <trkpt lat="44.82734" lon="0.79487">
        <ele>179.8</ele>
        <time>2026-05-02T13:30:11.000Z</time>
      </trkpt>
      <trkpt lat="44.82735" lon="0.79489">
        <ele>180.6</ele>
        <time>2026-05-02T13:30:12.000Z</time>
      </trkpt>
      <trkpt lat="44.82736" lon="0.79492">
        <ele>180.1</ele>
        <time>2026-05-02T13:30:13.000Z</time>
      </trkpt>
      <trkpt lat="44.82737" lon="0.79493">
        <ele>180</ele>
        <time>2026-05-02T13:30:14.000Z</time>
      </trkpt>
      <trkpt lat="44.82738" lon="0.79495">
        <ele>180.9</ele>
        <time>2026-05-02T13:30:15.000Z</time>
      </trkpt>
      <trkpt lat="44.82739" lon="0.79496">
        <ele>182.5</ele>
        <time>2026-05-02T13:30:16.000Z</time>
      </trkpt>
      <trkpt lat="44.82741" lon="0.79497">
        <ele>182.8</ele>
        <time>2026-05-02T13:30:17.000Z</time>
      </trkpt>
      <trkpt lat="44.82742" lon="0.79499">
        <ele>182.8</ele>
        <time>2026-05-02T13:30:18.000Z</time>
      </trkpt>
      <trkpt lat="44.82744" lon="0.79501">
        <ele>182.7</ele>
        <time>2026-05-02T13:30:19.000Z</time>
      </trkpt>
      <trkpt lat="44.82745" lon="0.79502">
        <ele>184</ele>
        <time>2026-05-02T13:30:20.000Z</time>
      </trkpt>
      <trkpt lat="44.82746" lon="0.79504">
        <ele>183.9</ele>
        <time>2026-05-02T13:30:21.000Z</time>
      </trkpt>
      <trkpt lat="44.82747" lon="0.79506">
        <ele>184.3</ele>
        <time>2026-05-02T13:30:22.000Z</time>
      </trkpt>
      <trkpt lat="44.82747" lon="0.79508">
        <ele>183.9</ele>
        <time>2026-05-02T13:30:23.000Z</time>
      </trkpt>
      <trkpt lat="44.82748" lon="0.7951">
        <ele>184.1</ele>
        <time>2026-05-02T13:30:24.000Z</time>
      </trkpt>
      <trkpt lat="44.82749" lon="0.79512">
        <ele>183.8</ele>
        <time>2026-05-02T13:30:25.000Z</time>
      </trkpt>
      <trkpt lat="44.82751" lon="0.79514">
        <ele>184.4</ele>
        <time>2026-05-02T13:30:26.000Z</time>
      </trkpt>
      <trkpt lat="44.82752" lon="0.79515">
        <ele>185.3</ele>
        <time>2026-05-02T13:30:27.000Z</time>
      </trkpt>
      <trkpt lat="44.82754" lon="0.79516">
        <ele>186.3</ele>
        <time>2026-05-02T13:30:28.000Z</time>
      </trkpt>
      <trkpt lat="44.82755" lon="0.79517">
        <ele>187.8</ele>
        <time>2026-05-02T13:30:29.000Z</time>
      </trkpt>
      <trkpt lat="44.82756" lon="0.79519">
        <ele>188.4</ele>
        <time>2026-05-02T13:30:30.000Z</time>
      </trkpt>
      <trkpt lat="44.82758" lon="0.7952">
        <ele>188.8</ele>
        <time>2026-05-02T13:30:31.000Z</time>
      </trkpt>
      <trkpt lat="44.82759" lon="0.79522">
        <ele>189.3</ele>
        <time>2026-05-02T13:30:32.000Z</time>
      </trkpt>
      <trkpt lat="44.82761" lon="0.79524">
        <ele>189.7</ele>
        <time>2026-05-02T13:30:33.000Z</time>
      </trkpt>
      <trkpt lat="44.82763" lon="0.79526">
        <ele>189.9</ele>
        <time>2026-05-02T13:30:34.000Z</time>
      </trkpt>
      <trkpt lat="44.82765" lon="0.79527">
        <ele>190.2</ele>
        <time>2026-05-02T13:30:35.000Z</time>
      </trkpt>
      <trkpt lat="44.82766" lon="0.79529">
        <ele>190.3</ele>
        <time>2026-05-02T13:30:36.000Z</time>
      </trkpt>
      <trkpt lat="44.82766" lon="0.79531">
        <ele>190.7</ele>
        <time>2026-05-02T13:30:37.000Z</time>
      </trkpt>
      <trkpt lat="44.82767" lon="0.79532">
        <ele>192.1</ele>
        <time>2026-05-02T13:30:38.000Z</time>
      </trkpt>
      <trkpt lat="44.82769" lon="0.79533">
        <ele>192.1</ele>
        <time>2026-05-02T13:30:39.000Z</time>
      </trkpt>
      <trkpt lat="44.8277" lon="0.79534">
        <ele>192.4</ele>
        <time>2026-05-02T13:30:40.000Z</time>
      </trkpt>
      <trkpt lat="44.82771" lon="0.79536">
        <ele>192.5</ele>
        <time>2026-05-02T13:30:41.000Z</time>
      </trkpt>
      <trkpt lat="44.82772" lon="0.79537">
        <ele>192.5</ele>
        <time>2026-05-02T13:30:42.000Z</time>
      </trkpt>
      <trkpt lat="44.82773" lon="0.79539">
        <ele>191.9</ele>
        <time>2026-05-02T13:30:43.000Z</time>
      </trkpt>
      <trkpt lat="44.82774" lon="0.7954">
        <ele>191.8</ele>
        <time>2026-05-02T13:30:44.000Z</time>
      </trkpt>
      <trkpt lat="44.82775" lon="0.79542">
        <ele>191.6</ele>
        <time>2026-05-02T13:30:45.000Z</time>
      </trkpt>
      <trkpt lat="44.82776" lon="0.79544">
        <ele>191.5</ele>
        <time>2026-05-02T13:30:46.000Z</time>
      </trkpt>
      <trkpt lat="44.82777" lon="0.79546">
        <ele>192.4</ele>
        <time>2026-05-02T13:30:47.000Z</time>
      </trkpt>
      <trkpt lat="44.82778" lon="0.79548">
        <ele>191.2</ele>
        <time>2026-05-02T13:30:48.000Z</time>
      </trkpt>
      <trkpt lat="44.8278" lon="0.79549">
        <ele>191</ele>
        <time>2026-05-02T13:30:49.000Z</time>
      </trkpt>
      <trkpt lat="44.82781" lon="0.79551">
        <ele>190.8</ele>
        <time>2026-05-02T13:30:50.000Z</time>
      </trkpt>
      <trkpt lat="44.82783" lon="0.79553">
        <ele>190.6</ele>
        <time>2026-05-02T13:30:51.000Z</time>
      </trkpt>
      <trkpt lat="44.82784" lon="0.79554">
        <ele>191.8</ele>
        <time>2026-05-02T13:30:52.000Z</time>
      </trkpt>
      <trkpt lat="44.82785" lon="0.79556">
        <ele>193.4</ele>
        <time>2026-05-02T13:30:53.000Z</time>
      </trkpt>
      <trkpt lat="44.82787" lon="0.79557">
        <ele>195.1</ele>
        <time>2026-05-02T13:30:54.000Z</time>
      </trkpt>
      <trkpt lat="44.82788" lon="0.79559">
        <ele>195.1</ele>
        <time>2026-05-02T13:30:55.000Z</time>
      </trkpt>
      <trkpt lat="44.82789" lon="0.79561">
        <ele>194.9</ele>
        <time>2026-05-02T13:30:56.000Z</time>
      </trkpt>
      <trkpt lat="44.82789" lon="0.79563">
        <ele>194.8</ele>
        <time>2026-05-02T13:30:57.000Z</time>
      </trkpt>
      <trkpt lat="44.8279" lon="0.79565">
        <ele>194.2</ele>
        <time>2026-05-02T13:30:58.000Z</time>
      </trkpt>
      <trkpt lat="44.8279" lon="0.79567">
        <ele>194.2</ele>
        <time>2026-05-02T13:30:59.000Z</time>
      </trkpt>
      <trkpt lat="44.8279" lon="0.7957">
        <ele>194.3</ele>
        <time>2026-05-02T13:31:00.000Z</time>
      </trkpt>
      <trkpt lat="44.82791" lon="0.79572">
        <ele>194.2</ele>
        <time>2026-05-02T13:31:01.000Z</time>
      </trkpt>
      <trkpt lat="44.82792" lon="0.79574">
        <ele>195.2</ele>
        <time>2026-05-02T13:31:02.000Z</time>
      </trkpt>
      <trkpt lat="44.82792" lon="0.79577">
        <ele>194.4</ele>
        <time>2026-05-02T13:31:03.000Z</time>
      </trkpt>
      <trkpt lat="44.82793" lon="0.79579">
        <ele>195.1</ele>
        <time>2026-05-02T13:31:04.000Z</time>
      </trkpt>
      <trkpt lat="44.82795" lon="0.79581">
        <ele>196.2</ele>
        <time>2026-05-02T13:31:05.000Z</time>
      </trkpt>
      <trkpt lat="44.82796" lon="0.79583">
        <ele>196.3</ele>
        <time>2026-05-02T13:31:06.000Z</time>
      </trkpt>
      <trkpt lat="44.82797" lon="0.79585">
        <ele>196.3</ele>
        <time>2026-05-02T13:31:07.000Z</time>
      </trkpt>
      <trkpt lat="44.82798" lon="0.79587">
        <ele>196.8</ele>
        <time>2026-05-02T13:31:08.000Z</time>
      </trkpt>
      <trkpt lat="44.82799" lon="0.79589">
        <ele>198.5</ele>
        <time>2026-05-02T13:31:09.000Z</time>
      </trkpt>
      <trkpt lat="44.82799" lon="0.79591">
        <ele>199.3</ele>
        <time>2026-05-02T13:31:10.000Z</time>
      </trkpt>
      <trkpt lat="44.828" lon="0.79593">
        <ele>199.2</ele>
        <time>2026-05-02T13:31:11.000Z</time>
      </trkpt>
      <trkpt lat="44.82801" lon="0.79595">
        <ele>198.9</ele>
        <time>2026-05-02T13:31:12.000Z</time>
      </trkpt>
      <trkpt lat="44.82801" lon="0.79597">
        <ele>198.6</ele>
        <time>2026-05-02T13:31:13.000Z</time>
      </trkpt>
      <trkpt lat="44.82802" lon="0.79599">
        <ele>198.5</ele>
        <time>2026-05-02T13:31:14.000Z</time>
      </trkpt>
      <trkpt lat="44.82803" lon="0.79601">
        <ele>198.3</ele>
        <time>2026-05-02T13:31:15.000Z</time>
      </trkpt>
      <trkpt lat="44.82805" lon="0.79603">
        <ele>198.5</ele>
        <time>2026-05-02T13:31:16.000Z</time>
      </trkpt>
      <trkpt lat="44.82806" lon="0.79605">
        <ele>199.3</ele>
        <time>2026-05-02T13:31:17.000Z</time>
      </trkpt>
      <trkpt lat="44.82807" lon="0.79606">
        <ele>199.6</ele>
        <time>2026-05-02T13:31:18.000Z</time>
      </trkpt>
      <trkpt lat="44.82809" lon="0.79608">
        <ele>199.2</ele>
        <time>2026-05-02T13:31:19.000Z</time>
      </trkpt>
      <trkpt lat="44.82811" lon="0.79609">
        <ele>201</ele>
        <time>2026-05-02T13:31:20.000Z</time>
      </trkpt>
      <trkpt lat="44.82812" lon="0.79611">
        <ele>200.6</ele>
        <time>2026-05-02T13:31:21.000Z</time>
      </trkpt>
      <trkpt lat="44.82814" lon="0.79612">
        <ele>200.8</ele>
        <time>2026-05-02T13:31:22.000Z</time>
      </trkpt>
      <trkpt lat="44.82816" lon="0.79614">
        <ele>201.3</ele>
        <time>2026-05-02T13:31:23.000Z</time>
      </trkpt>
      <trkpt lat="44.82818" lon="0.79616">
        <ele>201.2</ele>
        <time>2026-05-02T13:31:24.000Z</time>
      </trkpt>
      <trkpt lat="44.8282" lon="0.79618">
        <ele>201.2</ele>
        <time>2026-05-02T13:31:25.000Z</time>
      </trkpt>
      <trkpt lat="44.82822" lon="0.7962">
        <ele>199.9</ele>
        <time>2026-05-02T13:31:26.000Z</time>
      </trkpt>
      <trkpt lat="44.82825" lon="0.79622">
        <ele>200.5</ele>
        <time>2026-05-02T13:31:27.000Z</time>
      </trkpt>
      <trkpt lat="44.82825" lon="0.79621">
        <ele>204</ele>
        <time>2026-05-02T13:31:28.000Z</time>
      </trkpt>
      <trkpt lat="44.82827" lon="0.79621">
        <ele>203.3</ele>
        <time>2026-05-02T13:31:29.000Z</time>
      </trkpt>
      <trkpt lat="44.82829" lon="0.79622">
        <ele>203.4</ele>
        <time>2026-05-02T13:31:30.000Z</time>
      </trkpt>
      <trkpt lat="44.82831" lon="0.79624">
        <ele>205.3</ele>
        <time>2026-05-02T13:31:31.000Z</time>
      </trkpt>
      <trkpt lat="44.82834" lon="0.79626">
        <ele>204.2</ele>
        <time>2026-05-02T13:31:32.000Z</time>
      </trkpt>
      <trkpt lat="44.82837" lon="0.79628">
        <ele>203.1</ele>
        <time>2026-05-02T13:31:33.000Z</time>
      </trkpt>
      <trkpt lat="44.82839" lon="0.7963">
        <ele>203.1</ele>
        <time>2026-05-02T13:31:34.000Z</time>
      </trkpt>
      <trkpt lat="44.82841" lon="0.79632">
        <ele>203.6</ele>
        <time>2026-05-02T13:31:35.000Z</time>
      </trkpt>
      <trkpt lat="44.82843" lon="0.79634">
        <ele>203.1</ele>
        <time>2026-05-02T13:31:36.000Z</time>
      </trkpt>
      <trkpt lat="44.82845" lon="0.79635">
        <ele>203.2</ele>
        <time>2026-05-02T13:31:37.000Z</time>
      </trkpt>
      <trkpt lat="44.82847" lon="0.79636">
        <ele>204.1</ele>
        <time>2026-05-02T13:31:38.000Z</time>
      </trkpt>
      <trkpt lat="44.82849" lon="0.79637">
        <ele>204.2</ele>
        <time>2026-05-02T13:31:39.000Z</time>
      </trkpt>
      <trkpt lat="44.82852" lon="0.79639">
        <ele>205</ele>
        <time>2026-05-02T13:31:40.000Z</time>
      </trkpt>
      <trkpt lat="44.82855" lon="0.79642">
        <ele>204.1</ele>
        <time>2026-05-02T13:31:41.000Z</time>
      </trkpt>
      <trkpt lat="44.82857" lon="0.79643">
        <ele>203.5</ele>
        <time>2026-05-02T13:31:42.000Z</time>
      </trkpt>
      <trkpt lat="44.8286" lon="0.79644">
        <ele>203.2</ele>
        <time>2026-05-02T13:31:43.000Z</time>
      </trkpt>
      <trkpt lat="44.82862" lon="0.79645">
        <ele>202.9</ele>
        <time>2026-05-02T13:31:44.000Z</time>
      </trkpt>
      <trkpt lat="44.82864" lon="0.79647">
        <ele>202.4</ele>
        <time>2026-05-02T13:31:45.000Z</time>
      </trkpt>
      <trkpt lat="44.82866" lon="0.79648">
        <ele>200.7</ele>
        <time>2026-05-02T13:31:46.000Z</time>
      </trkpt>
      <trkpt lat="44.82868" lon="0.79649">
        <ele>199.9</ele>
        <time>2026-05-02T13:31:47.000Z</time>
      </trkpt>
      <trkpt lat="44.82869" lon="0.79651">
        <ele>199.3</ele>
        <time>2026-05-02T13:31:48.000Z</time>
      </trkpt>
      <trkpt lat="44.82871" lon="0.79651">
        <ele>199.7</ele>
        <time>2026-05-02T13:31:49.000Z</time>
      </trkpt>
      <trkpt lat="44.82873" lon="0.79651">
        <ele>199.8</ele>
        <time>2026-05-02T13:31:50.000Z</time>
      </trkpt>
      <trkpt lat="44.82874" lon="0.79651">
        <ele>200.3</ele>
        <time>2026-05-02T13:31:51.000Z</time>
      </trkpt>
      <trkpt lat="44.82876" lon="0.79651">
        <ele>200.6</ele>
        <time>2026-05-02T13:31:52.000Z</time>
      </trkpt>
      <trkpt lat="44.82878" lon="0.79651">
        <ele>199.3</ele>
        <time>2026-05-02T13:31:53.000Z</time>
      </trkpt>
      <trkpt lat="44.82879" lon="0.79651">
        <ele>199</ele>
        <time>2026-05-02T13:31:54.000Z</time>
      </trkpt>
      <trkpt lat="44.82881" lon="0.7965">
        <ele>198.3</ele>
        <time>2026-05-02T13:31:55.000Z</time>
      </trkpt>
      <trkpt lat="44.82882" lon="0.79649">
        <ele>198.1</ele>
        <time>2026-05-02T13:31:56.000Z</time>
      </trkpt>
      <trkpt lat="44.82883" lon="0.79649">
        <ele>197.8</ele>
        <time>2026-05-02T13:31:57.000Z</time>
      </trkpt>
      <trkpt lat="44.82885" lon="0.79648">
        <ele>197.3</ele>
        <time>2026-05-02T13:31:58.000Z</time>
      </trkpt>
      <trkpt lat="44.82886" lon="0.79647">
        <ele>197</ele>
        <time>2026-05-02T13:31:59.000Z</time>
      </trkpt>
      <trkpt lat="44.82888" lon="0.79648">
        <ele>196.3</ele>
        <time>2026-05-02T13:32:00.000Z</time>
      </trkpt>
      <trkpt lat="44.82889" lon="0.79649">
        <ele>195.9</ele>
        <time>2026-05-02T13:32:01.000Z</time>
      </trkpt>
      <trkpt lat="44.82891" lon="0.7965">
        <ele>196.2</ele>
        <time>2026-05-02T13:32:02.000Z</time>
      </trkpt>
      <trkpt lat="44.82892" lon="0.79652">
        <ele>196.6</ele>
        <time>2026-05-02T13:32:03.000Z</time>
      </trkpt>
      <trkpt lat="44.82893" lon="0.79654">
        <ele>196.9</ele>
        <time>2026-05-02T13:32:04.000Z</time>
      </trkpt>
      <trkpt lat="44.82894" lon="0.79656">
        <ele>197.5</ele>
        <time>2026-05-02T13:32:05.000Z</time>
      </trkpt>
      <trkpt lat="44.82895" lon="0.79658">
        <ele>198</ele>
        <time>2026-05-02T13:32:06.000Z</time>
      </trkpt>
      <trkpt lat="44.82896" lon="0.79661">
        <ele>198.6</ele>
        <time>2026-05-02T13:32:07.000Z</time>
      </trkpt>
      <trkpt lat="44.82897" lon="0.79663">
        <ele>198.3</ele>
        <time>2026-05-02T13:32:08.000Z</time>
      </trkpt>
      <trkpt lat="44.82898" lon="0.79665">
        <ele>198.7</ele>
        <time>2026-05-02T13:32:09.000Z</time>
      </trkpt>
      <trkpt lat="44.82899" lon="0.79667">
        <ele>198.9</ele>
        <time>2026-05-02T13:32:10.000Z</time>
      </trkpt>
      <trkpt lat="44.829" lon="0.79669">
        <ele>199.4</ele>
        <time>2026-05-02T13:32:11.000Z</time>
      </trkpt>
      <trkpt lat="44.829" lon="0.79672">
        <ele>199.1</ele>
        <time>2026-05-02T13:32:12.000Z</time>
      </trkpt>
      <trkpt lat="44.82901" lon="0.79674">
        <ele>199.3</ele>
        <time>2026-05-02T13:32:13.000Z</time>
      </trkpt>
      <trkpt lat="44.82902" lon="0.79676">
        <ele>199.3</ele>
        <time>2026-05-02T13:32:14.000Z</time>
      </trkpt>
      <trkpt lat="44.82903" lon="0.79678">
        <ele>199.3</ele>
        <time>2026-05-02T13:32:15.000Z</time>
      </trkpt>
      <trkpt lat="44.82904" lon="0.7968">
        <ele>199.5</ele>
        <time>2026-05-02T13:32:16.000Z</time>
      </trkpt>
      <trkpt lat="44.82905" lon="0.79682">
        <ele>199.5</ele>
        <time>2026-05-02T13:32:17.000Z</time>
      </trkpt>
      <trkpt lat="44.82905" lon="0.79685">
        <ele>199.8</ele>
        <time>2026-05-02T13:32:18.000Z</time>
      </trkpt>
      <trkpt lat="44.82906" lon="0.79687">
        <ele>199.9</ele>
        <time>2026-05-02T13:32:19.000Z</time>
      </trkpt>
      <trkpt lat="44.82907" lon="0.79688">
        <ele>199.4</ele>
        <time>2026-05-02T13:32:20.000Z</time>
      </trkpt>
      <trkpt lat="44.82908" lon="0.79691">
        <ele>199.7</ele>
        <time>2026-05-02T13:32:21.000Z</time>
      </trkpt>
      <trkpt lat="44.82908" lon="0.79693">
        <ele>199.6</ele>
        <time>2026-05-02T13:32:22.000Z</time>
      </trkpt>
      <trkpt lat="44.82909" lon="0.79695">
        <ele>199.3</ele>
        <time>2026-05-02T13:32:23.000Z</time>
      </trkpt>
      <trkpt lat="44.82909" lon="0.79698">
        <ele>199.1</ele>
        <time>2026-05-02T13:32:24.000Z</time>
      </trkpt>
      <trkpt lat="44.8291" lon="0.797">
        <ele>199.4</ele>
        <time>2026-05-02T13:32:25.000Z</time>
      </trkpt>
      <trkpt lat="44.82911" lon="0.79702">
        <ele>199.5</ele>
        <time>2026-05-02T13:32:26.000Z</time>
      </trkpt>
      <trkpt lat="44.82912" lon="0.79704">
        <ele>199.9</ele>
        <time>2026-05-02T13:32:27.000Z</time>
      </trkpt>
      <trkpt lat="44.82913" lon="0.79706">
        <ele>199.7</ele>
        <time>2026-05-02T13:32:28.000Z</time>
      </trkpt>
      <trkpt lat="44.82913" lon="0.79708">
        <ele>199.6</ele>
        <time>2026-05-02T13:32:29.000Z</time>
      </trkpt>
      <trkpt lat="44.82914" lon="0.7971">
        <ele>199.5</ele>
        <time>2026-05-02T13:32:30.000Z</time>
      </trkpt>
      <trkpt lat="44.82915" lon="0.79712">
        <ele>199.4</ele>
        <time>2026-05-02T13:32:31.000Z</time>
      </trkpt>
      <trkpt lat="44.82916" lon="0.79714">
        <ele>199.1</ele>
        <time>2026-05-02T13:32:32.000Z</time>
      </trkpt>
      <trkpt lat="44.82917" lon="0.79716">
        <ele>199.1</ele>
        <time>2026-05-02T13:32:33.000Z</time>
      </trkpt>
      <trkpt lat="44.82918" lon="0.79718">
        <ele>199</ele>
        <time>2026-05-02T13:32:34.000Z</time>
      </trkpt>
      <trkpt lat="44.82918" lon="0.79721">
        <ele>198.5</ele>
        <time>2026-05-02T13:32:35.000Z</time>
      </trkpt>
      <trkpt lat="44.82919" lon="0.79723">
        <ele>198.4</ele>
        <time>2026-05-02T13:32:36.000Z</time>
      </trkpt>
      <trkpt lat="44.82919" lon="0.79725">
        <ele>198.7</ele>
        <time>2026-05-02T13:32:37.000Z</time>
      </trkpt>
      <trkpt lat="44.8292" lon="0.79728">
        <ele>198.5</ele>
        <time>2026-05-02T13:32:38.000Z</time>
      </trkpt>
      <trkpt lat="44.82921" lon="0.7973">
        <ele>198.4</ele>
        <time>2026-05-02T13:32:39.000Z</time>
      </trkpt>
      <trkpt lat="44.82922" lon="0.79732">
        <ele>198.1</ele>
        <time>2026-05-02T13:32:40.000Z</time>
      </trkpt>
      <trkpt lat="44.82923" lon="0.79734">
        <ele>198.6</ele>
        <time>2026-05-02T13:32:41.000Z</time>
      </trkpt>
      <trkpt lat="44.82923" lon="0.79736">
        <ele>198.8</ele>
        <time>2026-05-02T13:32:42.000Z</time>
      </trkpt>
      <trkpt lat="44.82924" lon="0.79739">
        <ele>198.9</ele>
        <time>2026-05-02T13:32:43.000Z</time>
      </trkpt>
      <trkpt lat="44.82925" lon="0.79741">
        <ele>199</ele>
        <time>2026-05-02T13:32:44.000Z</time>
      </trkpt>
      <trkpt lat="44.82926" lon="0.79743">
        <ele>198.6</ele>
        <time>2026-05-02T13:32:45.000Z</time>
      </trkpt>
      <trkpt lat="44.82926" lon="0.79746">
        <ele>198.7</ele>
        <time>2026-05-02T13:32:46.000Z</time>
      </trkpt>
      <trkpt lat="44.82927" lon="0.79748">
        <ele>198.8</ele>
        <time>2026-05-02T13:32:47.000Z</time>
      </trkpt>
      <trkpt lat="44.82928" lon="0.7975">
        <ele>198.5</ele>
        <time>2026-05-02T13:32:48.000Z</time>
      </trkpt>
      <trkpt lat="44.82928" lon="0.79751">
        <ele>198.5</ele>
        <time>2026-05-02T13:32:49.000Z</time>
      </trkpt>
      <trkpt lat="44.82928" lon="0.79751">
        <ele>199</ele>
        <time>2026-05-02T13:32:50.000Z</time>
      </trkpt>
      <trkpt lat="44.82928" lon="0.79751">
        <ele>198.9</ele>
        <time>2026-05-02T13:32:51.000Z</time>
      </trkpt>
      <trkpt lat="44.82929" lon="0.79752">
        <ele>198.8</ele>
        <time>2026-05-02T13:32:52.000Z</time>
      </trkpt>
      <trkpt lat="44.82928" lon="0.79754">
        <ele>197.9</ele>
        <time>2026-05-02T13:32:53.000Z</time>
      </trkpt>
      <trkpt lat="44.82929" lon="0.79755">
        <ele>197.7</ele>
        <time>2026-05-02T13:32:54.000Z</time>
      </trkpt>
      <trkpt lat="44.82929" lon="0.79757">
        <ele>197</ele>
        <time>2026-05-02T13:32:55.000Z</time>
      </trkpt>
      <trkpt lat="44.8293" lon="0.79758">
        <ele>197.6</ele>
        <time>2026-05-02T13:32:56.000Z</time>
      </trkpt>
      <trkpt lat="44.82931" lon="0.7976">
        <ele>197.1</ele>
        <time>2026-05-02T13:32:57.000Z</time>
      </trkpt>
      <trkpt lat="44.82931" lon="0.79762">
        <ele>196.8</ele>
        <time>2026-05-02T13:32:58.000Z</time>
      </trkpt>
      <trkpt lat="44.82931" lon="0.79763">
        <ele>195.7</ele>
        <time>2026-05-02T13:32:59.000Z</time>
      </trkpt>
      <trkpt lat="44.82931" lon="0.79766">
        <ele>195.5</ele>
        <time>2026-05-02T13:33:00.000Z</time>
      </trkpt>
      <trkpt lat="44.82932" lon="0.79769">
        <ele>195.6</ele>
        <time>2026-05-02T13:33:01.000Z</time>
      </trkpt>
      <trkpt lat="44.82933" lon="0.79771">
        <ele>195.8</ele>
        <time>2026-05-02T13:33:02.000Z</time>
      </trkpt>
      <trkpt lat="44.82934" lon="0.79774">
        <ele>195.7</ele>
        <time>2026-05-02T13:33:03.000Z</time>
      </trkpt>
      <trkpt lat="44.82934" lon="0.79777">
        <ele>196</ele>
        <time>2026-05-02T13:33:04.000Z</time>
      </trkpt>
      <trkpt lat="44.82935" lon="0.79779">
        <ele>196.1</ele>
        <time>2026-05-02T13:33:05.000Z</time>
      </trkpt>
      <trkpt lat="44.82936" lon="0.79782">
        <ele>195.9</ele>
        <time>2026-05-02T13:33:06.000Z</time>
      </trkpt>
      <trkpt lat="44.82937" lon="0.79784">
        <ele>196</ele>
        <time>2026-05-02T13:33:07.000Z</time>
      </trkpt>
      <trkpt lat="44.82937" lon="0.79787">
        <ele>195.9</ele>
        <time>2026-05-02T13:33:08.000Z</time>
      </trkpt>
      <trkpt lat="44.82938" lon="0.79789">
        <ele>196.1</ele>
        <time>2026-05-02T13:33:09.000Z</time>
      </trkpt>
      <trkpt lat="44.82939" lon="0.79791">
        <ele>196.1</ele>
        <time>2026-05-02T13:33:10.000Z</time>
      </trkpt>
      <trkpt lat="44.8294" lon="0.79794">
        <ele>196.5</ele>
        <time>2026-05-02T13:33:11.000Z</time>
      </trkpt>
      <trkpt lat="44.8294" lon="0.79796">
        <ele>196.9</ele>
        <time>2026-05-02T13:33:12.000Z</time>
      </trkpt>
      <trkpt lat="44.82941" lon="0.79796">
        <ele>196.8</ele>
        <time>2026-05-02T13:33:13.000Z</time>
      </trkpt>
      <trkpt lat="44.82941" lon="0.79796">
        <ele>196.8</ele>
        <time>2026-05-02T13:33:14.000Z</time>
      </trkpt>
      <trkpt lat="44.82941" lon="0.79796">
        <ele>196.8</ele>
        <time>2026-05-02T13:33:15.000Z</time>
      </trkpt>
      <trkpt lat="44.82942" lon="0.79797">
        <ele>196.9</ele>
        <time>2026-05-02T13:33:16.000Z</time>
      </trkpt>
      <trkpt lat="44.82943" lon="0.798">
        <ele>197</ele>
        <time>2026-05-02T13:33:17.000Z</time>
      </trkpt>
      <trkpt lat="44.82943" lon="0.79802">
        <ele>197.1</ele>
        <time>2026-05-02T13:33:18.000Z</time>
      </trkpt>
      <trkpt lat="44.82944" lon="0.79804">
        <ele>196.9</ele>
        <time>2026-05-02T13:33:19.000Z</time>
      </trkpt>
      <trkpt lat="44.82945" lon="0.79806">
        <ele>197</ele>
        <time>2026-05-02T13:33:20.000Z</time>
      </trkpt>
      <trkpt lat="44.82946" lon="0.79808">
        <ele>196.9</ele>
        <time>2026-05-02T13:33:21.000Z</time>
      </trkpt>
      <trkpt lat="44.82947" lon="0.7981">
        <ele>197.1</ele>
        <time>2026-05-02T13:33:22.000Z</time>
      </trkpt>
      <trkpt lat="44.82947" lon="0.79812">
        <ele>197.2</ele>
        <time>2026-05-02T13:33:23.000Z</time>
      </trkpt>
      <trkpt lat="44.82948" lon="0.79815">
        <ele>197.3</ele>
        <time>2026-05-02T13:33:24.000Z</time>
      </trkpt>
      <trkpt lat="44.82949" lon="0.79817">
        <ele>197.4</ele>
        <time>2026-05-02T13:33:25.000Z</time>
      </trkpt>
      <trkpt lat="44.8295" lon="0.79819">
        <ele>197.2</ele>
        <time>2026-05-02T13:33:26.000Z</time>
      </trkpt>
      <trkpt lat="44.82951" lon="0.79821">
        <ele>197.2</ele>
        <time>2026-05-02T13:33:27.000Z</time>
      </trkpt>
      <trkpt lat="44.82952" lon="0.79823">
        <ele>197.4</ele>
        <time>2026-05-02T13:33:28.000Z</time>
      </trkpt>
      <trkpt lat="44.82953" lon="0.79824">
        <ele>197.5</ele>
        <time>2026-05-02T13:33:29.000Z</time>
      </trkpt>
      <trkpt lat="44.82954" lon="0.79826">
        <ele>197.5</ele>
        <time>2026-05-02T13:33:30.000Z</time>
      </trkpt>
      <trkpt lat="44.82956" lon="0.79827">
        <ele>197.6</ele>
        <time>2026-05-02T13:33:31.000Z</time>
      </trkpt>
      <trkpt lat="44.82957" lon="0.79829">
        <ele>197.8</ele>
        <time>2026-05-02T13:33:32.000Z</time>
      </trkpt>
      <trkpt lat="44.82959" lon="0.7983">
        <ele>197.9</ele>
        <time>2026-05-02T13:33:33.000Z</time>
      </trkpt>
      <trkpt lat="44.8296" lon="0.79831">
        <ele>198.2</ele>
        <time>2026-05-02T13:33:34.000Z</time>
      </trkpt>
      <trkpt lat="44.82962" lon="0.79832">
        <ele>198.1</ele>
        <time>2026-05-02T13:33:35.000Z</time>
      </trkpt>
      <trkpt lat="44.82963" lon="0.79833">
        <ele>198.4</ele>
        <time>2026-05-02T13:33:36.000Z</time>
      </trkpt>
      <trkpt lat="44.82965" lon="0.79833">
        <ele>198.5</ele>
        <time>2026-05-02T13:33:37.000Z</time>
      </trkpt>
      <trkpt lat="44.82966" lon="0.79835">
        <ele>198.5</ele>
        <time>2026-05-02T13:33:38.000Z</time>
      </trkpt>
      <trkpt lat="44.82968" lon="0.79835">
        <ele>198.4</ele>
        <time>2026-05-02T13:33:39.000Z</time>
      </trkpt>
      <trkpt lat="44.82969" lon="0.79836">
        <ele>198.2</ele>
        <time>2026-05-02T13:33:40.000Z</time>
      </trkpt>
      <trkpt lat="44.8297" lon="0.79837">
        <ele>197.7</ele>
        <time>2026-05-02T13:33:41.000Z</time>
      </trkpt>
      <trkpt lat="44.82972" lon="0.79838">
        <ele>197.2</ele>
        <time>2026-05-02T13:33:42.000Z</time>
      </trkpt>
      <trkpt lat="44.82973" lon="0.79839">
        <ele>197</ele>
        <time>2026-05-02T13:33:43.000Z</time>
      </trkpt>
      <trkpt lat="44.82975" lon="0.79839">
        <ele>197.1</ele>
        <time>2026-05-02T13:33:44.000Z</time>
      </trkpt>
      <trkpt lat="44.82976" lon="0.7984">
        <ele>196.8</ele>
        <time>2026-05-02T13:33:45.000Z</time>
      </trkpt>
      <trkpt lat="44.82978" lon="0.7984">
        <ele>196.8</ele>
        <time>2026-05-02T13:33:46.000Z</time>
      </trkpt>
      <trkpt lat="44.8298" lon="0.7984">
        <ele>196.8</ele>
        <time>2026-05-02T13:33:47.000Z</time>
      </trkpt>
      <trkpt lat="44.82981" lon="0.7984">
        <ele>196.7</ele>
        <time>2026-05-02T13:33:48.000Z</time>
      </trkpt>
      <trkpt lat="44.82983" lon="0.79841">
        <ele>196.5</ele>
        <time>2026-05-02T13:33:49.000Z</time>
      </trkpt>
      <trkpt lat="44.82984" lon="0.7984">
        <ele>196.5</ele>
        <time>2026-05-02T13:33:50.000Z</time>
      </trkpt>
      <trkpt lat="44.82986" lon="0.7984">
        <ele>196.4</ele>
        <time>2026-05-02T13:33:51.000Z</time>
      </trkpt>
      <trkpt lat="44.82988" lon="0.7984">
        <ele>196.3</ele>
        <time>2026-05-02T13:33:52.000Z</time>
      </trkpt>
      <trkpt lat="44.82989" lon="0.79841">
        <ele>196.3</ele>
        <time>2026-05-02T13:33:53.000Z</time>
      </trkpt>
      <trkpt lat="44.82991" lon="0.7984">
        <ele>196.8</ele>
        <time>2026-05-02T13:33:54.000Z</time>
      </trkpt>
      <trkpt lat="44.82992" lon="0.79839">
        <ele>196.7</ele>
        <time>2026-05-02T13:33:55.000Z</time>
      </trkpt>
      <trkpt lat="44.82994" lon="0.79839">
        <ele>196.9</ele>
        <time>2026-05-02T13:33:56.000Z</time>
      </trkpt>
      <trkpt lat="44.82996" lon="0.79839">
        <ele>196.9</ele>
        <time>2026-05-02T13:33:57.000Z</time>
      </trkpt>
      <trkpt lat="44.82997" lon="0.79838">
        <ele>197</ele>
        <time>2026-05-02T13:33:58.000Z</time>
      </trkpt>
      <trkpt lat="44.82999" lon="0.79838">
        <ele>196.9</ele>
        <time>2026-05-02T13:33:59.000Z</time>
      </trkpt>
      <trkpt lat="44.83001" lon="0.79838">
        <ele>196.9</ele>
        <time>2026-05-02T13:34:00.000Z</time>
      </trkpt>
      <trkpt lat="44.83002" lon="0.79838">
        <ele>197</ele>
        <time>2026-05-02T13:34:01.000Z</time>
      </trkpt>
      <trkpt lat="44.83004" lon="0.79838">
        <ele>197.1</ele>
        <time>2026-05-02T13:34:02.000Z</time>
      </trkpt>
      <trkpt lat="44.83005" lon="0.79837">
        <ele>197.4</ele>
        <time>2026-05-02T13:34:03.000Z</time>
      </trkpt>
      <trkpt lat="44.83007" lon="0.79838">
        <ele>197</ele>
        <time>2026-05-02T13:34:04.000Z</time>
      </trkpt>
      <trkpt lat="44.83009" lon="0.79838">
        <ele>196.9</ele>
        <time>2026-05-02T13:34:05.000Z</time>
      </trkpt>
      <trkpt lat="44.83011" lon="0.79837">
        <ele>196.9</ele>
        <time>2026-05-02T13:34:06.000Z</time>
      </trkpt>
      <trkpt lat="44.83012" lon="0.79837">
        <ele>197</ele>
        <time>2026-05-02T13:34:07.000Z</time>
      </trkpt>
      <trkpt lat="44.83014" lon="0.79837">
        <ele>197.2</ele>
        <time>2026-05-02T13:34:08.000Z</time>
      </trkpt>
      <trkpt lat="44.83015" lon="0.79837">
        <ele>197.6</ele>
        <time>2026-05-02T13:34:09.000Z</time>
      </trkpt>
      <trkpt lat="44.83017" lon="0.79836">
        <ele>197.7</ele>
        <time>2026-05-02T13:34:10.000Z</time>
      </trkpt>
      <trkpt lat="44.83019" lon="0.79836">
        <ele>198</ele>
        <time>2026-05-02T13:34:11.000Z</time>
      </trkpt>
      <trkpt lat="44.8302" lon="0.79836">
        <ele>197.5</ele>
        <time>2026-05-02T13:34:12.000Z</time>
      </trkpt>
      <trkpt lat="44.83022" lon="0.79836">
        <ele>197.2</ele>
        <time>2026-05-02T13:34:13.000Z</time>
      </trkpt>
      <trkpt lat="44.83023" lon="0.79836">
        <ele>197</ele>
        <time>2026-05-02T13:34:14.000Z</time>
      </trkpt>
      <trkpt lat="44.83025" lon="0.79836">
        <ele>196.9</ele>
        <time>2026-05-02T13:34:15.000Z</time>
      </trkpt>
      <trkpt lat="44.83027" lon="0.79835">
        <ele>196.8</ele>
        <time>2026-05-02T13:34:16.000Z</time>
      </trkpt>
      <trkpt lat="44.83028" lon="0.79835">
        <ele>196.7</ele>
        <time>2026-05-02T13:34:17.000Z</time>
      </trkpt>
      <trkpt lat="44.8303" lon="0.79835">
        <ele>196.8</ele>
        <time>2026-05-02T13:34:18.000Z</time>
      </trkpt>
      <trkpt lat="44.83031" lon="0.79835">
        <ele>196.7</ele>
        <time>2026-05-02T13:34:19.000Z</time>
      </trkpt>
      <trkpt lat="44.83033" lon="0.79835">
        <ele>196.5</ele>
        <time>2026-05-02T13:34:20.000Z</time>
      </trkpt>
      <trkpt lat="44.83035" lon="0.79835">
        <ele>196.9</ele>
        <time>2026-05-02T13:34:21.000Z</time>
      </trkpt>
      <trkpt lat="44.83036" lon="0.79834">
        <ele>197.2</ele>
        <time>2026-05-02T13:34:22.000Z</time>
      </trkpt>
      <trkpt lat="44.83038" lon="0.79835">
        <ele>195.2</ele>
        <time>2026-05-02T13:34:23.000Z</time>
      </trkpt>
      <trkpt lat="44.8304" lon="0.79835">
        <ele>194.1</ele>
        <time>2026-05-02T13:34:24.000Z</time>
      </trkpt>
      <trkpt lat="44.83043" lon="0.79836">
        <ele>193.1</ele>
        <time>2026-05-02T13:34:25.000Z</time>
      </trkpt>
      <trkpt lat="44.83045" lon="0.79837">
        <ele>192.7</ele>
        <time>2026-05-02T13:34:26.000Z</time>
      </trkpt>
      <trkpt lat="44.83046" lon="0.79838">
        <ele>193</ele>
        <time>2026-05-02T13:34:27.000Z</time>
      </trkpt>
      <trkpt lat="44.83048" lon="0.79838">
        <ele>193.3</ele>
        <time>2026-05-02T13:34:28.000Z</time>
      </trkpt>
      <trkpt lat="44.8305" lon="0.79838">
        <ele>192.8</ele>
        <time>2026-05-02T13:34:29.000Z</time>
      </trkpt>
      <trkpt lat="44.83052" lon="0.79838">
        <ele>192.6</ele>
        <time>2026-05-02T13:34:30.000Z</time>
      </trkpt>
      <trkpt lat="44.83053" lon="0.79838">
        <ele>193.4</ele>
        <time>2026-05-02T13:34:31.000Z</time>
      </trkpt>
      <trkpt lat="44.83055" lon="0.79838">
        <ele>192.8</ele>
        <time>2026-05-02T13:34:32.000Z</time>
      </trkpt>
      <trkpt lat="44.83057" lon="0.79838">
        <ele>192.4</ele>
        <time>2026-05-02T13:34:33.000Z</time>
      </trkpt>
      <trkpt lat="44.83058" lon="0.79837">
        <ele>192.4</ele>
        <time>2026-05-02T13:34:34.000Z</time>
      </trkpt>
      <trkpt lat="44.8306" lon="0.79837">
        <ele>192.7</ele>
        <time>2026-05-02T13:34:35.000Z</time>
      </trkpt>
      <trkpt lat="44.83062" lon="0.79836">
        <ele>194.3</ele>
        <time>2026-05-02T13:34:36.000Z</time>
      </trkpt>
      <trkpt lat="44.83064" lon="0.79835">
        <ele>193.7</ele>
        <time>2026-05-02T13:34:37.000Z</time>
      </trkpt>
      <trkpt lat="44.83065" lon="0.79833">
        <ele>192.9</ele>
        <time>2026-05-02T13:34:38.000Z</time>
      </trkpt>
      <trkpt lat="44.83067" lon="0.79832">
        <ele>193.6</ele>
        <time>2026-05-02T13:34:39.000Z</time>
      </trkpt>
      <trkpt lat="44.83069" lon="0.79831">
        <ele>193.6</ele>
        <time>2026-05-02T13:34:40.000Z</time>
      </trkpt>
      <trkpt lat="44.8307" lon="0.79831">
        <ele>192.8</ele>
        <time>2026-05-02T13:34:41.000Z</time>
      </trkpt>
      <trkpt lat="44.83072" lon="0.7983">
        <ele>193.9</ele>
        <time>2026-05-02T13:34:42.000Z</time>
      </trkpt>
      <trkpt lat="44.83074" lon="0.79829">
        <ele>194.1</ele>
        <time>2026-05-02T13:34:43.000Z</time>
      </trkpt>
      <trkpt lat="44.83075" lon="0.79828">
        <ele>193.3</ele>
        <time>2026-05-02T13:34:44.000Z</time>
      </trkpt>
      <trkpt lat="44.83077" lon="0.79827">
        <ele>193.3</ele>
        <time>2026-05-02T13:34:45.000Z</time>
      </trkpt>
      <trkpt lat="44.83079" lon="0.79827">
        <ele>193.3</ele>
        <time>2026-05-02T13:34:46.000Z</time>
      </trkpt>
      <trkpt lat="44.8308" lon="0.79825">
        <ele>192.7</ele>
        <time>2026-05-02T13:34:47.000Z</time>
      </trkpt>
      <trkpt lat="44.83082" lon="0.79825">
        <ele>192.6</ele>
        <time>2026-05-02T13:34:48.000Z</time>
      </trkpt>
      <trkpt lat="44.83084" lon="0.79824">
        <ele>192.3</ele>
        <time>2026-05-02T13:34:49.000Z</time>
      </trkpt>
      <trkpt lat="44.83085" lon="0.79823">
        <ele>191.7</ele>
        <time>2026-05-02T13:34:50.000Z</time>
      </trkpt>
      <trkpt lat="44.83087" lon="0.79823">
        <ele>192</ele>
        <time>2026-05-02T13:34:51.000Z</time>
      </trkpt>
      <trkpt lat="44.83089" lon="0.79822">
        <ele>192.1</ele>
        <time>2026-05-02T13:34:52.000Z</time>
      </trkpt>
      <trkpt lat="44.8309" lon="0.79821">
        <ele>192.1</ele>
        <time>2026-05-02T13:34:53.000Z</time>
      </trkpt>
      <trkpt lat="44.83092" lon="0.7982">
        <ele>191.6</ele>
        <time>2026-05-02T13:34:54.000Z</time>
      </trkpt>
      <trkpt lat="44.83093" lon="0.79819">
        <ele>191.4</ele>
        <time>2026-05-02T13:34:55.000Z</time>
      </trkpt>
      <trkpt lat="44.83095" lon="0.79818">
        <ele>190.7</ele>
        <time>2026-05-02T13:34:56.000Z</time>
      </trkpt>
      <trkpt lat="44.83096" lon="0.79818">
        <ele>190.7</ele>
        <time>2026-05-02T13:34:57.000Z</time>
      </trkpt>
      <trkpt lat="44.83098" lon="0.79817">
        <ele>190.5</ele>
        <time>2026-05-02T13:34:58.000Z</time>
      </trkpt>
      <trkpt lat="44.83101" lon="0.79816">
        <ele>191.8</ele>
        <time>2026-05-02T13:34:59.000Z</time>
      </trkpt>
      <trkpt lat="44.83102" lon="0.79814">
        <ele>192</ele>
        <time>2026-05-02T13:35:00.000Z</time>
      </trkpt>
      <trkpt lat="44.83104" lon="0.79813">
        <ele>192.1</ele>
        <time>2026-05-02T13:35:01.000Z</time>
      </trkpt>
      <trkpt lat="44.83104" lon="0.79811">
        <ele>192.3</ele>
        <time>2026-05-02T13:35:02.000Z</time>
      </trkpt>
      <trkpt lat="44.83106" lon="0.7981">
        <ele>192.3</ele>
        <time>2026-05-02T13:35:03.000Z</time>
      </trkpt>
      <trkpt lat="44.83107" lon="0.79811">
        <ele>192.3</ele>
        <time>2026-05-02T13:35:04.000Z</time>
      </trkpt>
      <trkpt lat="44.83109" lon="0.79809">
        <ele>193.1</ele>
        <time>2026-05-02T13:35:05.000Z</time>
      </trkpt>
      <trkpt lat="44.8311" lon="0.79808">
        <ele>192.3</ele>
        <time>2026-05-02T13:35:06.000Z</time>
      </trkpt>
      <trkpt lat="44.83112" lon="0.79806">
        <ele>192</ele>
        <time>2026-05-02T13:35:07.000Z</time>
      </trkpt>
      <trkpt lat="44.83113" lon="0.79805">
        <ele>191.7</ele>
        <time>2026-05-02T13:35:08.000Z</time>
      </trkpt>
      <trkpt lat="44.83114" lon="0.79805">
        <ele>192.2</ele>
        <time>2026-05-02T13:35:09.000Z</time>
      </trkpt>
      <trkpt lat="44.83116" lon="0.79805">
        <ele>191.8</ele>
        <time>2026-05-02T13:35:10.000Z</time>
      </trkpt>
      <trkpt lat="44.83118" lon="0.79805">
        <ele>191.4</ele>
        <time>2026-05-02T13:35:11.000Z</time>
      </trkpt>
      <trkpt lat="44.83119" lon="0.79805">
        <ele>190.7</ele>
        <time>2026-05-02T13:35:12.000Z</time>
      </trkpt>
      <trkpt lat="44.83121" lon="0.79804">
        <ele>190.5</ele>
        <time>2026-05-02T13:35:13.000Z</time>
      </trkpt>
      <trkpt lat="44.83122" lon="0.79803">
        <ele>189.9</ele>
        <time>2026-05-02T13:35:14.000Z</time>
      </trkpt>
      <trkpt lat="44.83124" lon="0.79802">
        <ele>190</ele>
        <time>2026-05-02T13:35:15.000Z</time>
      </trkpt>
      <trkpt lat="44.83126" lon="0.79801">
        <ele>189.8</ele>
        <time>2026-05-02T13:35:16.000Z</time>
      </trkpt>
      <trkpt lat="44.83128" lon="0.798">
        <ele>190</ele>
        <time>2026-05-02T13:35:17.000Z</time>
      </trkpt>
      <trkpt lat="44.8313" lon="0.798">
        <ele>189.5</ele>
        <time>2026-05-02T13:35:18.000Z</time>
      </trkpt>
      <trkpt lat="44.83131" lon="0.79799">
        <ele>189.4</ele>
        <time>2026-05-02T13:35:19.000Z</time>
      </trkpt>
      <trkpt lat="44.83133" lon="0.79799">
        <ele>189.1</ele>
        <time>2026-05-02T13:35:20.000Z</time>
      </trkpt>
      <trkpt lat="44.83135" lon="0.79797">
        <ele>189.2</ele>
        <time>2026-05-02T13:35:21.000Z</time>
      </trkpt>
      <trkpt lat="44.83136" lon="0.79796">
        <ele>189.2</ele>
        <time>2026-05-02T13:35:22.000Z</time>
      </trkpt>
      <trkpt lat="44.83138" lon="0.79796">
        <ele>189.2</ele>
        <time>2026-05-02T13:35:23.000Z</time>
      </trkpt>
      <trkpt lat="44.8314" lon="0.79795">
        <ele>188.7</ele>
        <time>2026-05-02T13:35:24.000Z</time>
      </trkpt>
      <trkpt lat="44.83142" lon="0.79794">
        <ele>189</ele>
        <time>2026-05-02T13:35:25.000Z</time>
      </trkpt>
      <trkpt lat="44.83143" lon="0.79793">
        <ele>189</ele>
        <time>2026-05-02T13:35:26.000Z</time>
      </trkpt>
      <trkpt lat="44.83145" lon="0.79793">
        <ele>188.8</ele>
        <time>2026-05-02T13:35:27.000Z</time>
      </trkpt>
      <trkpt lat="44.83147" lon="0.79793">
        <ele>188.4</ele>
        <time>2026-05-02T13:35:28.000Z</time>
      </trkpt>
      <trkpt lat="44.83149" lon="0.79793">
        <ele>188.4</ele>
        <time>2026-05-02T13:35:29.000Z</time>
      </trkpt>
      <trkpt lat="44.83151" lon="0.79792">
        <ele>188.1</ele>
        <time>2026-05-02T13:35:30.000Z</time>
      </trkpt>
      <trkpt lat="44.83153" lon="0.79791">
        <ele>188.1</ele>
        <time>2026-05-02T13:35:31.000Z</time>
      </trkpt>
      <trkpt lat="44.83155" lon="0.7979">
        <ele>188.2</ele>
        <time>2026-05-02T13:35:32.000Z</time>
      </trkpt>
      <trkpt lat="44.83156" lon="0.79789">
        <ele>188.2</ele>
        <time>2026-05-02T13:35:33.000Z</time>
      </trkpt>
      <trkpt lat="44.83158" lon="0.79786">
        <ele>189.1</ele>
        <time>2026-05-02T13:35:34.000Z</time>
      </trkpt>
      <trkpt lat="44.83159" lon="0.79784">
        <ele>189.7</ele>
        <time>2026-05-02T13:35:35.000Z</time>
      </trkpt>
      <trkpt lat="44.83161" lon="0.79783">
        <ele>189.9</ele>
        <time>2026-05-02T13:35:36.000Z</time>
      </trkpt>
      <trkpt lat="44.83162" lon="0.79782">
        <ele>190.3</ele>
        <time>2026-05-02T13:35:37.000Z</time>
      </trkpt>
      <trkpt lat="44.83164" lon="0.79781">
        <ele>190.3</ele>
        <time>2026-05-02T13:35:38.000Z</time>
      </trkpt>
      <trkpt lat="44.83166" lon="0.7978">
        <ele>190.1</ele>
        <time>2026-05-02T13:35:39.000Z</time>
      </trkpt>
      <trkpt lat="44.83167" lon="0.79779">
        <ele>190.1</ele>
        <time>2026-05-02T13:35:40.000Z</time>
      </trkpt>
      <trkpt lat="44.83169" lon="0.79778">
        <ele>189.9</ele>
        <time>2026-05-02T13:35:41.000Z</time>
      </trkpt>
      <trkpt lat="44.83171" lon="0.79777">
        <ele>189.9</ele>
        <time>2026-05-02T13:35:42.000Z</time>
      </trkpt>
      <trkpt lat="44.83172" lon="0.79777">
        <ele>189.4</ele>
        <time>2026-05-02T13:35:43.000Z</time>
      </trkpt>
      <trkpt lat="44.83174" lon="0.79776">
        <ele>189</ele>
        <time>2026-05-02T13:35:44.000Z</time>
      </trkpt>
      <trkpt lat="44.83175" lon="0.79775">
        <ele>189.5</ele>
        <time>2026-05-02T13:35:45.000Z</time>
      </trkpt>
      <trkpt lat="44.83177" lon="0.79774">
        <ele>189.8</ele>
        <time>2026-05-02T13:35:46.000Z</time>
      </trkpt>
      <trkpt lat="44.83178" lon="0.79773">
        <ele>189.3</ele>
        <time>2026-05-02T13:35:47.000Z</time>
      </trkpt>
      <trkpt lat="44.8318" lon="0.79773">
        <ele>188.8</ele>
        <time>2026-05-02T13:35:48.000Z</time>
      </trkpt>
      <trkpt lat="44.83182" lon="0.79772">
        <ele>188.7</ele>
        <time>2026-05-02T13:35:49.000Z</time>
      </trkpt>
      <trkpt lat="44.83184" lon="0.79771">
        <ele>188.9</ele>
        <time>2026-05-02T13:35:50.000Z</time>
      </trkpt>
      <trkpt lat="44.83185" lon="0.7977">
        <ele>188.9</ele>
        <time>2026-05-02T13:35:51.000Z</time>
      </trkpt>
      <trkpt lat="44.83187" lon="0.79768">
        <ele>188.9</ele>
        <time>2026-05-02T13:35:52.000Z</time>
      </trkpt>
      <trkpt lat="44.83188" lon="0.79768">
        <ele>188.6</ele>
        <time>2026-05-02T13:35:53.000Z</time>
      </trkpt>
      <trkpt lat="44.8319" lon="0.79767">
        <ele>188.9</ele>
        <time>2026-05-02T13:35:54.000Z</time>
      </trkpt>
      <trkpt lat="44.83191" lon="0.79766">
        <ele>188.8</ele>
        <time>2026-05-02T13:35:55.000Z</time>
      </trkpt>
      <trkpt lat="44.83192" lon="0.79765">
        <ele>188.7</ele>
        <time>2026-05-02T13:35:56.000Z</time>
      </trkpt>
      <trkpt lat="44.83193" lon="0.79764">
        <ele>188.8</ele>
        <time>2026-05-02T13:35:57.000Z</time>
      </trkpt>
      <trkpt lat="44.83194" lon="0.79763">
        <ele>188.7</ele>
        <time>2026-05-02T13:35:58.000Z</time>
      </trkpt>
      <trkpt lat="44.83196" lon="0.79761">
        <ele>188.4</ele>
        <time>2026-05-02T13:35:59.000Z</time>
      </trkpt>
      <trkpt lat="44.83197" lon="0.7976">
        <ele>188.2</ele>
        <time>2026-05-02T13:36:00.000Z</time>
      </trkpt>
      <trkpt lat="44.83198" lon="0.7976">
        <ele>187.5</ele>
        <time>2026-05-02T13:36:01.000Z</time>
      </trkpt>
      <trkpt lat="44.832" lon="0.79758">
        <ele>187.4</ele>
        <time>2026-05-02T13:36:02.000Z</time>
      </trkpt>
      <trkpt lat="44.83201" lon="0.79757">
        <ele>187.2</ele>
        <time>2026-05-02T13:36:03.000Z</time>
      </trkpt>
      <trkpt lat="44.83202" lon="0.79756">
        <ele>186.3</ele>
        <time>2026-05-02T13:36:04.000Z</time>
      </trkpt>
      <trkpt lat="44.83203" lon="0.79755">
        <ele>186.4</ele>
        <time>2026-05-02T13:36:05.000Z</time>
      </trkpt>
      <trkpt lat="44.83204" lon="0.79753">
        <ele>185.3</ele>
        <time>2026-05-02T13:36:06.000Z</time>
      </trkpt>
      <trkpt lat="44.83205" lon="0.79752">
        <ele>185.3</ele>
        <time>2026-05-02T13:36:07.000Z</time>
      </trkpt>
      <trkpt lat="44.83206" lon="0.79749">
        <ele>185.6</ele>
        <time>2026-05-02T13:36:08.000Z</time>
      </trkpt>
      <trkpt lat="44.83206" lon="0.79746">
        <ele>186.1</ele>
        <time>2026-05-02T13:36:09.000Z</time>
      </trkpt>
      <trkpt lat="44.83207" lon="0.79744">
        <ele>186.5</ele>
        <time>2026-05-02T13:36:10.000Z</time>
      </trkpt>
      <trkpt lat="44.83208" lon="0.79741">
        <ele>187.2</ele>
        <time>2026-05-02T13:36:11.000Z</time>
      </trkpt>
      <trkpt lat="44.83208" lon="0.79739">
        <ele>186.8</ele>
        <time>2026-05-02T13:36:12.000Z</time>
      </trkpt>
      <trkpt lat="44.83209" lon="0.79737">
        <ele>187.3</ele>
        <time>2026-05-02T13:36:13.000Z</time>
      </trkpt>
      <trkpt lat="44.83209" lon="0.79735">
        <ele>187.4</ele>
        <time>2026-05-02T13:36:14.000Z</time>
      </trkpt>
      <trkpt lat="44.83209" lon="0.79733">
        <ele>187.6</ele>
        <time>2026-05-02T13:36:15.000Z</time>
      </trkpt>
      <trkpt lat="44.83209" lon="0.79731">
        <ele>188</ele>
        <time>2026-05-02T13:36:16.000Z</time>
      </trkpt>
      <trkpt lat="44.8321" lon="0.79729">
        <ele>187.3</ele>
        <time>2026-05-02T13:36:17.000Z</time>
      </trkpt>
      <trkpt lat="44.8321" lon="0.79727">
        <ele>186.9</ele>
        <time>2026-05-02T13:36:18.000Z</time>
      </trkpt>
      <trkpt lat="44.8321" lon="0.79725">
        <ele>186.5</ele>
        <time>2026-05-02T13:36:19.000Z</time>
      </trkpt>
      <trkpt lat="44.8321" lon="0.79723">
        <ele>186.5</ele>
        <time>2026-05-02T13:36:20.000Z</time>
      </trkpt>
      <trkpt lat="44.8321" lon="0.79721">
        <ele>186.3</ele>
        <time>2026-05-02T13:36:21.000Z</time>
      </trkpt>
      <trkpt lat="44.83211" lon="0.79719">
        <ele>186.4</ele>
        <time>2026-05-02T13:36:22.000Z</time>
      </trkpt>
      <trkpt lat="44.83211" lon="0.79717">
        <ele>185.8</ele>
        <time>2026-05-02T13:36:23.000Z</time>
      </trkpt>
      <trkpt lat="44.83211" lon="0.79715">
        <ele>185.6</ele>
        <time>2026-05-02T13:36:24.000Z</time>
      </trkpt>
      <trkpt lat="44.83212" lon="0.79713">
        <ele>184.7</ele>
        <time>2026-05-02T13:36:25.000Z</time>
      </trkpt>
      <trkpt lat="44.83212" lon="0.79711">
        <ele>184.4</ele>
        <time>2026-05-02T13:36:26.000Z</time>
      </trkpt>
      <trkpt lat="44.83212" lon="0.79709">
        <ele>184.1</ele>
        <time>2026-05-02T13:36:27.000Z</time>
      </trkpt>
      <trkpt lat="44.83212" lon="0.79707">
        <ele>183.4</ele>
        <time>2026-05-02T13:36:28.000Z</time>
      </trkpt>
      <trkpt lat="44.83213" lon="0.79705">
        <ele>183.4</ele>
        <time>2026-05-02T13:36:29.000Z</time>
      </trkpt>
      <trkpt lat="44.83213" lon="0.79703">
        <ele>183.5</ele>
        <time>2026-05-02T13:36:30.000Z</time>
      </trkpt>
      <trkpt lat="44.83213" lon="0.797">
        <ele>182.6</ele>
        <time>2026-05-02T13:36:31.000Z</time>
      </trkpt>
      <trkpt lat="44.83213" lon="0.79698">
        <ele>182.5</ele>
        <time>2026-05-02T13:36:32.000Z</time>
      </trkpt>
      <trkpt lat="44.83214" lon="0.79696">
        <ele>182.2</ele>
        <time>2026-05-02T13:36:33.000Z</time>
      </trkpt>
      <trkpt lat="44.83214" lon="0.79693">
        <ele>182.2</ele>
        <time>2026-05-02T13:36:34.000Z</time>
      </trkpt>
      <trkpt lat="44.83214" lon="0.79691">
        <ele>182.3</ele>
        <time>2026-05-02T13:36:35.000Z</time>
      </trkpt>
      <trkpt lat="44.83214" lon="0.79689">
        <ele>182.4</ele>
        <time>2026-05-02T13:36:36.000Z</time>
      </trkpt>
      <trkpt lat="44.83215" lon="0.79686">
        <ele>182.6</ele>
        <time>2026-05-02T13:36:37.000Z</time>
      </trkpt>
      <trkpt lat="44.83215" lon="0.79684">
        <ele>182.1</ele>
        <time>2026-05-02T13:36:38.000Z</time>
      </trkpt>
      <trkpt lat="44.83215" lon="0.79682">
        <ele>181.6</ele>
        <time>2026-05-02T13:36:39.000Z</time>
      </trkpt>
      <trkpt lat="44.83216" lon="0.7968">
        <ele>181.3</ele>
        <time>2026-05-02T13:36:40.000Z</time>
      </trkpt>
      <trkpt lat="44.83216" lon="0.79677">
        <ele>181</ele>
        <time>2026-05-02T13:36:41.000Z</time>
      </trkpt>
      <trkpt lat="44.83216" lon="0.79675">
        <ele>181.5</ele>
        <time>2026-05-02T13:36:42.000Z</time>
      </trkpt>
      <trkpt lat="44.83216" lon="0.79673">
        <ele>181.6</ele>
        <time>2026-05-02T13:36:43.000Z</time>
      </trkpt>
      <trkpt lat="44.83216" lon="0.7967">
        <ele>181.5</ele>
        <time>2026-05-02T13:36:44.000Z</time>
      </trkpt>
      <trkpt lat="44.83216" lon="0.79668">
        <ele>181.5</ele>
        <time>2026-05-02T13:36:45.000Z</time>
      </trkpt>
      <trkpt lat="44.83216" lon="0.79666">
        <ele>181.3</ele>
        <time>2026-05-02T13:36:46.000Z</time>
      </trkpt>
      <trkpt lat="44.83217" lon="0.79663">
        <ele>180.6</ele>
        <time>2026-05-02T13:36:47.000Z</time>
      </trkpt>
      <trkpt lat="44.83217" lon="0.7966">
        <ele>180.5</ele>
        <time>2026-05-02T13:36:48.000Z</time>
      </trkpt>
      <trkpt lat="44.83217" lon="0.79658">
        <ele>181</ele>
        <time>2026-05-02T13:36:49.000Z</time>
      </trkpt>
      <trkpt lat="44.83218" lon="0.79656">
        <ele>180.5</ele>
        <time>2026-05-02T13:36:50.000Z</time>
      </trkpt>
      <trkpt lat="44.83218" lon="0.79653">
        <ele>180.2</ele>
        <time>2026-05-02T13:36:51.000Z</time>
      </trkpt>
      <trkpt lat="44.83219" lon="0.79651">
        <ele>179.5</ele>
        <time>2026-05-02T13:36:52.000Z</time>
      </trkpt>
      <trkpt lat="44.83219" lon="0.79648">
        <ele>179.3</ele>
        <time>2026-05-02T13:36:53.000Z</time>
      </trkpt>
      <trkpt lat="44.83219" lon="0.79646">
        <ele>179.1</ele>
        <time>2026-05-02T13:36:54.000Z</time>
      </trkpt>
      <trkpt lat="44.83219" lon="0.79644">
        <ele>178.9</ele>
        <time>2026-05-02T13:36:55.000Z</time>
      </trkpt>
      <trkpt lat="44.8322" lon="0.79642">
        <ele>178.5</ele>
        <time>2026-05-02T13:36:56.000Z</time>
      </trkpt>
      <trkpt lat="44.8322" lon="0.7964">
        <ele>177.4</ele>
        <time>2026-05-02T13:36:57.000Z</time>
      </trkpt>
      <trkpt lat="44.8322" lon="0.79638">
        <ele>176.8</ele>
        <time>2026-05-02T13:36:58.000Z</time>
      </trkpt>
      <trkpt lat="44.83221" lon="0.79636">
        <ele>176.5</ele>
        <time>2026-05-02T13:36:59.000Z</time>
      </trkpt>
      <trkpt lat="44.83221" lon="0.79633">
        <ele>176.7</ele>
        <time>2026-05-02T13:37:00.000Z</time>
      </trkpt>
      <trkpt lat="44.83221" lon="0.79631">
        <ele>177.2</ele>
        <time>2026-05-02T13:37:01.000Z</time>
      </trkpt>
      <trkpt lat="44.83221" lon="0.79628">
        <ele>177.4</ele>
        <time>2026-05-02T13:37:02.000Z</time>
      </trkpt>
      <trkpt lat="44.83221" lon="0.79625">
        <ele>177.8</ele>
        <time>2026-05-02T13:37:03.000Z</time>
      </trkpt>
      <trkpt lat="44.83222" lon="0.79623">
        <ele>177.3</ele>
        <time>2026-05-02T13:37:04.000Z</time>
      </trkpt>
      <trkpt lat="44.83222" lon="0.7962">
        <ele>177.4</ele>
        <time>2026-05-02T13:37:05.000Z</time>
      </trkpt>
      <trkpt lat="44.83222" lon="0.79618">
        <ele>177.4</ele>
        <time>2026-05-02T13:37:06.000Z</time>
      </trkpt>
      <trkpt lat="44.83222" lon="0.79616">
        <ele>177.3</ele>
        <time>2026-05-02T13:37:07.000Z</time>
      </trkpt>
      <trkpt lat="44.83223" lon="0.79614">
        <ele>177</ele>
        <time>2026-05-02T13:37:08.000Z</time>
      </trkpt>
      <trkpt lat="44.83223" lon="0.79612">
        <ele>177</ele>
        <time>2026-05-02T13:37:09.000Z</time>
      </trkpt>
      <trkpt lat="44.83222" lon="0.79611">
        <ele>177.5</ele>
        <time>2026-05-02T13:37:10.000Z</time>
      </trkpt>
      <trkpt lat="44.83222" lon="0.7961">
        <ele>176.5</ele>
        <time>2026-05-02T13:37:11.000Z</time>
      </trkpt>
      <trkpt lat="44.83223" lon="0.79608">
        <ele>175.2</ele>
        <time>2026-05-02T13:37:12.000Z</time>
      </trkpt>
      <trkpt lat="44.83223" lon="0.79606">
        <ele>175.7</ele>
        <time>2026-05-02T13:37:13.000Z</time>
      </trkpt>
      <trkpt lat="44.83223" lon="0.79605">
        <ele>175.8</ele>
        <time>2026-05-02T13:37:14.000Z</time>
      </trkpt>
      <trkpt lat="44.83223" lon="0.79603">
        <ele>176.5</ele>
        <time>2026-05-02T13:37:15.000Z</time>
      </trkpt>
      <trkpt lat="44.83223" lon="0.79602">
        <ele>177.5</ele>
        <time>2026-05-02T13:37:16.000Z</time>
      </trkpt>
      <trkpt lat="44.83223" lon="0.796">
        <ele>178</ele>
        <time>2026-05-02T13:37:17.000Z</time>
      </trkpt>
      <trkpt lat="44.83224" lon="0.79599">
        <ele>177.6</ele>
        <time>2026-05-02T13:37:18.000Z</time>
      </trkpt>
      <trkpt lat="44.83224" lon="0.79596">
        <ele>178.1</ele>
        <time>2026-05-02T13:37:19.000Z</time>
      </trkpt>
      <trkpt lat="44.83224" lon="0.79594">
        <ele>178.1</ele>
        <time>2026-05-02T13:37:20.000Z</time>
      </trkpt>
      <trkpt lat="44.83225" lon="0.79591">
        <ele>178</ele>
        <time>2026-05-02T13:37:21.000Z</time>
      </trkpt>
      <trkpt lat="44.83225" lon="0.79588">
        <ele>177.8</ele>
        <time>2026-05-02T13:37:22.000Z</time>
      </trkpt>
      <trkpt lat="44.83226" lon="0.79585">
        <ele>177.4</ele>
        <time>2026-05-02T13:37:23.000Z</time>
      </trkpt>
      <trkpt lat="44.83227" lon="0.79582">
        <ele>176.8</ele>
        <time>2026-05-02T13:37:24.000Z</time>
      </trkpt>
      <trkpt lat="44.83228" lon="0.7958">
        <ele>176.5</ele>
        <time>2026-05-02T13:37:25.000Z</time>
      </trkpt>
      <trkpt lat="44.83229" lon="0.79577">
        <ele>176.1</ele>
        <time>2026-05-02T13:37:26.000Z</time>
      </trkpt>
      <trkpt lat="44.83229" lon="0.79575">
        <ele>175.7</ele>
        <time>2026-05-02T13:37:27.000Z</time>
      </trkpt>
      <trkpt lat="44.8323" lon="0.79573">
        <ele>175.6</ele>
        <time>2026-05-02T13:37:28.000Z</time>
      </trkpt>
      <trkpt lat="44.83231" lon="0.79571">
        <ele>176</ele>
        <time>2026-05-02T13:37:29.000Z</time>
      </trkpt>
      <trkpt lat="44.83232" lon="0.79569">
        <ele>176.1</ele>
        <time>2026-05-02T13:37:30.000Z</time>
      </trkpt>
      <trkpt lat="44.83232" lon="0.79567">
        <ele>176.1</ele>
        <time>2026-05-02T13:37:31.000Z</time>
      </trkpt>
      <trkpt lat="44.83233" lon="0.79567">
        <ele>176.2</ele>
        <time>2026-05-02T13:37:32.000Z</time>
      </trkpt>
      <trkpt lat="44.83234" lon="0.79566">
        <ele>176.1</ele>
        <time>2026-05-02T13:37:33.000Z</time>
      </trkpt>
      <trkpt lat="44.83234" lon="0.79563">
        <ele>178.3</ele>
        <time>2026-05-02T13:37:34.000Z</time>
      </trkpt>
      <trkpt lat="44.83235" lon="0.79561">
        <ele>178.5</ele>
        <time>2026-05-02T13:37:35.000Z</time>
      </trkpt>
      <trkpt lat="44.83235" lon="0.79559">
        <ele>180.1</ele>
        <time>2026-05-02T13:37:36.000Z</time>
      </trkpt>
      <trkpt lat="44.83235" lon="0.79557">
        <ele>179.8</ele>
        <time>2026-05-02T13:37:37.000Z</time>
      </trkpt>
      <trkpt lat="44.83236" lon="0.79556">
        <ele>179.7</ele>
        <time>2026-05-02T13:37:38.000Z</time>
      </trkpt>
      <trkpt lat="44.83236" lon="0.79554">
        <ele>178</ele>
        <time>2026-05-02T13:37:39.000Z</time>
      </trkpt>
      <trkpt lat="44.83237" lon="0.79552">
        <ele>176.7</ele>
        <time>2026-05-02T13:37:40.000Z</time>
      </trkpt>
      <trkpt lat="44.83238" lon="0.79549">
        <ele>175.2</ele>
        <time>2026-05-02T13:37:41.000Z</time>
      </trkpt>
      <trkpt lat="44.8324" lon="0.79546">
        <ele>174.1</ele>
        <time>2026-05-02T13:37:42.000Z</time>
      </trkpt>
      <trkpt lat="44.83241" lon="0.79544">
        <ele>173.4</ele>
        <time>2026-05-02T13:37:43.000Z</time>
      </trkpt>
      <trkpt lat="44.83242" lon="0.79541">
        <ele>173.2</ele>
        <time>2026-05-02T13:37:44.000Z</time>
      </trkpt>
      <trkpt lat="44.83244" lon="0.79539">
        <ele>172.9</ele>
        <time>2026-05-02T13:37:45.000Z</time>
      </trkpt>
      <trkpt lat="44.83245" lon="0.79536">
        <ele>172.7</ele>
        <time>2026-05-02T13:37:46.000Z</time>
      </trkpt>
      <trkpt lat="44.83245" lon="0.79534">
        <ele>172.3</ele>
        <time>2026-05-02T13:37:47.000Z</time>
      </trkpt>
      <trkpt lat="44.83246" lon="0.79531">
        <ele>171.9</ele>
        <time>2026-05-02T13:37:48.000Z</time>
      </trkpt>
      <trkpt lat="44.83247" lon="0.79528">
        <ele>171.6</ele>
        <time>2026-05-02T13:37:49.000Z</time>
      </trkpt>
      <trkpt lat="44.83247" lon="0.79526">
        <ele>171.6</ele>
        <time>2026-05-02T13:37:50.000Z</time>
      </trkpt>
      <trkpt lat="44.83248" lon="0.79524">
        <ele>171</ele>
        <time>2026-05-02T13:37:51.000Z</time>
      </trkpt>
      <trkpt lat="44.8325" lon="0.79522">
        <ele>170.6</ele>
        <time>2026-05-02T13:37:52.000Z</time>
      </trkpt>
      <trkpt lat="44.8325" lon="0.79519">
        <ele>170.6</ele>
        <time>2026-05-02T13:37:53.000Z</time>
      </trkpt>
      <trkpt lat="44.83251" lon="0.79517">
        <ele>170.6</ele>
        <time>2026-05-02T13:37:54.000Z</time>
      </trkpt>
      <trkpt lat="44.83252" lon="0.79516">
        <ele>171.1</ele>
        <time>2026-05-02T13:37:55.000Z</time>
      </trkpt>
      <trkpt lat="44.83252" lon="0.79513">
        <ele>172.6</ele>
        <time>2026-05-02T13:37:56.000Z</time>
      </trkpt>
      <trkpt lat="44.83253" lon="0.7951">
        <ele>173</ele>
        <time>2026-05-02T13:37:57.000Z</time>
      </trkpt>
      <trkpt lat="44.83254" lon="0.79508">
        <ele>173.5</ele>
        <time>2026-05-02T13:37:58.000Z</time>
      </trkpt>
      <trkpt lat="44.83254" lon="0.79506">
        <ele>173.9</ele>
        <time>2026-05-02T13:37:59.000Z</time>
      </trkpt>
      <trkpt lat="44.83255" lon="0.79503">
        <ele>173.8</ele>
        <time>2026-05-02T13:38:00.000Z</time>
      </trkpt>
      <trkpt lat="44.83256" lon="0.79501">
        <ele>173.8</ele>
        <time>2026-05-02T13:38:01.000Z</time>
      </trkpt>
      <trkpt lat="44.83257" lon="0.79499">
        <ele>173.4</ele>
        <time>2026-05-02T13:38:02.000Z</time>
      </trkpt>
      <trkpt lat="44.83258" lon="0.79497">
        <ele>173.3</ele>
        <time>2026-05-02T13:38:03.000Z</time>
      </trkpt>
      <trkpt lat="44.83258" lon="0.79495">
        <ele>174</ele>
        <time>2026-05-02T13:38:04.000Z</time>
      </trkpt>
      <trkpt lat="44.83259" lon="0.79494">
        <ele>172.8</ele>
        <time>2026-05-02T13:38:05.000Z</time>
      </trkpt>
      <trkpt lat="44.8326" lon="0.79493">
        <ele>172.8</ele>
        <time>2026-05-02T13:38:06.000Z</time>
      </trkpt>
      <trkpt lat="44.8326" lon="0.79491">
        <ele>173</ele>
        <time>2026-05-02T13:38:07.000Z</time>
      </trkpt>
      <trkpt lat="44.83261" lon="0.7949">
        <ele>172.3</ele>
        <time>2026-05-02T13:38:08.000Z</time>
      </trkpt>
      <trkpt lat="44.83262" lon="0.79489">
        <ele>173</ele>
        <time>2026-05-02T13:38:09.000Z</time>
      </trkpt>
      <trkpt lat="44.83263" lon="0.79486">
        <ele>172.8</ele>
        <time>2026-05-02T13:38:10.000Z</time>
      </trkpt>
      <trkpt lat="44.83264" lon="0.79483">
        <ele>172.1</ele>
        <time>2026-05-02T13:38:11.000Z</time>
      </trkpt>
      <trkpt lat="44.83265" lon="0.7948">
        <ele>170.3</ele>
        <time>2026-05-02T13:38:12.000Z</time>
      </trkpt>
      <trkpt lat="44.83266" lon="0.79478">
        <ele>170.9</ele>
        <time>2026-05-02T13:38:13.000Z</time>
      </trkpt>
      <trkpt lat="44.83268" lon="0.79475">
        <ele>170.5</ele>
        <time>2026-05-02T13:38:14.000Z</time>
      </trkpt>
      <trkpt lat="44.83269" lon="0.79473">
        <ele>169.5</ele>
        <time>2026-05-02T13:38:15.000Z</time>
      </trkpt>
      <trkpt lat="44.8327" lon="0.79471">
        <ele>169.7</ele>
        <time>2026-05-02T13:38:16.000Z</time>
      </trkpt>
      <trkpt lat="44.83271" lon="0.79468">
        <ele>170.3</ele>
        <time>2026-05-02T13:38:17.000Z</time>
      </trkpt>
      <trkpt lat="44.83272" lon="0.79466">
        <ele>171.3</ele>
        <time>2026-05-02T13:38:18.000Z</time>
      </trkpt>
      <trkpt lat="44.83273" lon="0.79463">
        <ele>171.5</ele>
        <time>2026-05-02T13:38:19.000Z</time>
      </trkpt>
      <trkpt lat="44.83273" lon="0.7946">
        <ele>172.6</ele>
        <time>2026-05-02T13:38:20.000Z</time>
      </trkpt>
      <trkpt lat="44.83274" lon="0.79457">
        <ele>172.5</ele>
        <time>2026-05-02T13:38:21.000Z</time>
      </trkpt>
      <trkpt lat="44.83275" lon="0.79454">
        <ele>173.8</ele>
        <time>2026-05-02T13:38:22.000Z</time>
      </trkpt>
      <trkpt lat="44.83276" lon="0.79452">
        <ele>173.8</ele>
        <time>2026-05-02T13:38:23.000Z</time>
      </trkpt>
      <trkpt lat="44.83277" lon="0.7945">
        <ele>173.6</ele>
        <time>2026-05-02T13:38:24.000Z</time>
      </trkpt>
      <trkpt lat="44.83278" lon="0.79448">
        <ele>173.5</ele>
        <time>2026-05-02T13:38:25.000Z</time>
      </trkpt>
      <trkpt lat="44.83279" lon="0.79445">
        <ele>174.3</ele>
        <time>2026-05-02T13:38:26.000Z</time>
      </trkpt>
      <trkpt lat="44.8328" lon="0.79443">
        <ele>174.6</ele>
        <time>2026-05-02T13:38:27.000Z</time>
      </trkpt>
      <trkpt lat="44.83281" lon="0.79441">
        <ele>173.4</ele>
        <time>2026-05-02T13:38:28.000Z</time>
      </trkpt>
      <trkpt lat="44.83282" lon="0.79439">
        <ele>172.9</ele>
        <time>2026-05-02T13:38:29.000Z</time>
      </trkpt>
      <trkpt lat="44.83283" lon="0.79437">
        <ele>172.7</ele>
        <time>2026-05-02T13:38:30.000Z</time>
      </trkpt>
      <trkpt lat="44.83284" lon="0.79435">
        <ele>173.1</ele>
        <time>2026-05-02T13:38:31.000Z</time>
      </trkpt>
      <trkpt lat="44.83286" lon="0.79433">
        <ele>172</ele>
        <time>2026-05-02T13:38:32.000Z</time>
      </trkpt>
      <trkpt lat="44.83287" lon="0.79431">
        <ele>169.7</ele>
        <time>2026-05-02T13:38:33.000Z</time>
      </trkpt>
      <trkpt lat="44.83289" lon="0.79429">
        <ele>167.8</ele>
        <time>2026-05-02T13:38:34.000Z</time>
      </trkpt>
      <trkpt lat="44.83291" lon="0.79426">
        <ele>169.8</ele>
        <time>2026-05-02T13:38:35.000Z</time>
      </trkpt>
      <trkpt lat="44.83292" lon="0.79423">
        <ele>170.1</ele>
        <time>2026-05-02T13:38:36.000Z</time>
      </trkpt>
      <trkpt lat="44.83293" lon="0.7942">
        <ele>171.2</ele>
        <time>2026-05-02T13:38:37.000Z</time>
      </trkpt>
      <trkpt lat="44.83294" lon="0.79417">
        <ele>171.5</ele>
        <time>2026-05-02T13:38:38.000Z</time>
      </trkpt>
      <trkpt lat="44.83294" lon="0.79414">
        <ele>171.1</ele>
        <time>2026-05-02T13:38:39.000Z</time>
      </trkpt>
      <trkpt lat="44.83296" lon="0.79412">
        <ele>171</ele>
        <time>2026-05-02T13:38:40.000Z</time>
      </trkpt>
      <trkpt lat="44.83297" lon="0.7941">
        <ele>170.4</ele>
        <time>2026-05-02T13:38:41.000Z</time>
      </trkpt>
      <trkpt lat="44.83298" lon="0.79408">
        <ele>170.2</ele>
        <time>2026-05-02T13:38:42.000Z</time>
      </trkpt>
      <trkpt lat="44.83299" lon="0.79405">
        <ele>171.5</ele>
        <time>2026-05-02T13:38:43.000Z</time>
      </trkpt>
      <trkpt lat="44.83299" lon="0.79402">
        <ele>170.7</ele>
        <time>2026-05-02T13:38:44.000Z</time>
      </trkpt>
      <trkpt lat="44.833" lon="0.79401">
        <ele>173.2</ele>
        <time>2026-05-02T13:38:45.000Z</time>
      </trkpt>
      <trkpt lat="44.833" lon="0.79399">
        <ele>172.7</ele>
        <time>2026-05-02T13:38:46.000Z</time>
      </trkpt>
      <trkpt lat="44.83301" lon="0.79397">
        <ele>172.1</ele>
        <time>2026-05-02T13:38:47.000Z</time>
      </trkpt>
      <trkpt lat="44.83302" lon="0.79395">
        <ele>172.4</ele>
        <time>2026-05-02T13:38:48.000Z</time>
      </trkpt>
      <trkpt lat="44.83304" lon="0.79393">
        <ele>172.8</ele>
        <time>2026-05-02T13:38:49.000Z</time>
      </trkpt>
      <trkpt lat="44.83304" lon="0.7939">
        <ele>174.2</ele>
        <time>2026-05-02T13:38:50.000Z</time>
      </trkpt>
      <trkpt lat="44.83305" lon="0.79387">
        <ele>173.8</ele>
        <time>2026-05-02T13:38:51.000Z</time>
      </trkpt>
      <trkpt lat="44.83305" lon="0.79385">
        <ele>172.8</ele>
        <time>2026-05-02T13:38:52.000Z</time>
      </trkpt>
      <trkpt lat="44.83306" lon="0.79383">
        <ele>171.8</ele>
        <time>2026-05-02T13:38:53.000Z</time>
      </trkpt>
      <trkpt lat="44.83307" lon="0.79381">
        <ele>171.8</ele>
        <time>2026-05-02T13:38:54.000Z</time>
      </trkpt>
      <trkpt lat="44.83307" lon="0.79379">
        <ele>171.2</ele>
        <time>2026-05-02T13:38:55.000Z</time>
      </trkpt>
      <trkpt lat="44.83308" lon="0.79377">
        <ele>170.5</ele>
        <time>2026-05-02T13:38:56.000Z</time>
      </trkpt>
      <trkpt lat="44.83309" lon="0.79375">
        <ele>170</ele>
        <time>2026-05-02T13:38:57.000Z</time>
      </trkpt>
      <trkpt lat="44.8331" lon="0.79373">
        <ele>168.8</ele>
        <time>2026-05-02T13:38:58.000Z</time>
      </trkpt>
      <trkpt lat="44.83311" lon="0.79371">
        <ele>168.5</ele>
        <time>2026-05-02T13:38:59.000Z</time>
      </trkpt>
      <trkpt lat="44.83312" lon="0.79369">
        <ele>168.4</ele>
        <time>2026-05-02T13:39:00.000Z</time>
      </trkpt>
      <trkpt lat="44.83313" lon="0.79367">
        <ele>168.3</ele>
        <time>2026-05-02T13:39:01.000Z</time>
      </trkpt>
      <trkpt lat="44.83314" lon="0.79366">
        <ele>169.2</ele>
        <time>2026-05-02T13:39:02.000Z</time>
      </trkpt>
      <trkpt lat="44.83315" lon="0.79364">
        <ele>169.6</ele>
        <time>2026-05-02T13:39:03.000Z</time>
      </trkpt>
      <trkpt lat="44.83316" lon="0.79362">
        <ele>168.5</ele>
        <time>2026-05-02T13:39:04.000Z</time>
      </trkpt>
      <trkpt lat="44.83317" lon="0.7936">
        <ele>168.7</ele>
        <time>2026-05-02T13:39:05.000Z</time>
      </trkpt>
      <trkpt lat="44.83318" lon="0.79359">
        <ele>168.9</ele>
        <time>2026-05-02T13:39:06.000Z</time>
      </trkpt>
      <trkpt lat="44.8332" lon="0.79357">
        <ele>168.2</ele>
        <time>2026-05-02T13:39:07.000Z</time>
      </trkpt>
      <trkpt lat="44.8332" lon="0.79355">
        <ele>170</ele>
        <time>2026-05-02T13:39:08.000Z</time>
      </trkpt>
      <trkpt lat="44.83322" lon="0.79354">
        <ele>170.1</ele>
        <time>2026-05-02T13:39:09.000Z</time>
      </trkpt>
      <trkpt lat="44.83323" lon="0.79352">
        <ele>170</ele>
        <time>2026-05-02T13:39:10.000Z</time>
      </trkpt>
      <trkpt lat="44.83325" lon="0.79351">
        <ele>169.9</ele>
        <time>2026-05-02T13:39:11.000Z</time>
      </trkpt>
      <trkpt lat="44.83326" lon="0.7935">
        <ele>169.7</ele>
        <time>2026-05-02T13:39:12.000Z</time>
      </trkpt>
      <trkpt lat="44.83328" lon="0.79348">
        <ele>169.9</ele>
        <time>2026-05-02T13:39:13.000Z</time>
      </trkpt>
      <trkpt lat="44.83329" lon="0.79347">
        <ele>171</ele>
        <time>2026-05-02T13:39:14.000Z</time>
      </trkpt>
      <trkpt lat="44.83331" lon="0.79347">
        <ele>168</ele>
        <time>2026-05-02T13:39:15.000Z</time>
      </trkpt>
      <trkpt lat="44.83334" lon="0.79346">
        <ele>167.1</ele>
        <time>2026-05-02T13:39:16.000Z</time>
      </trkpt>
      <trkpt lat="44.83336" lon="0.79345">
        <ele>166.5</ele>
        <time>2026-05-02T13:39:17.000Z</time>
      </trkpt>
      <trkpt lat="44.83337" lon="0.79345">
        <ele>166.4</ele>
        <time>2026-05-02T13:39:18.000Z</time>
      </trkpt>
      <trkpt lat="44.83339" lon="0.79344">
        <ele>165.9</ele>
        <time>2026-05-02T13:39:19.000Z</time>
      </trkpt>
      <trkpt lat="44.8334" lon="0.79343">
        <ele>167.2</ele>
        <time>2026-05-02T13:39:20.000Z</time>
      </trkpt>
      <trkpt lat="44.83342" lon="0.79342">
        <ele>167.9</ele>
        <time>2026-05-02T13:39:21.000Z</time>
      </trkpt>
      <trkpt lat="44.83344" lon="0.79342">
        <ele>165.7</ele>
        <time>2026-05-02T13:39:22.000Z</time>
      </trkpt>
      <trkpt lat="44.83346" lon="0.79342">
        <ele>165.6</ele>
        <time>2026-05-02T13:39:23.000Z</time>
      </trkpt>
      <trkpt lat="44.83348" lon="0.79341">
        <ele>165.4</ele>
        <time>2026-05-02T13:39:24.000Z</time>
      </trkpt>
      <trkpt lat="44.83349" lon="0.79341">
        <ele>165.3</ele>
        <time>2026-05-02T13:39:25.000Z</time>
      </trkpt>
      <trkpt lat="44.83351" lon="0.7934">
        <ele>164.5</ele>
        <time>2026-05-02T13:39:26.000Z</time>
      </trkpt>
      <trkpt lat="44.83353" lon="0.7934">
        <ele>162.5</ele>
        <time>2026-05-02T13:39:27.000Z</time>
      </trkpt>
      <trkpt lat="44.83354" lon="0.7934">
        <ele>162.6</ele>
        <time>2026-05-02T13:39:28.000Z</time>
      </trkpt>
      <trkpt lat="44.83356" lon="0.79339">
        <ele>162.9</ele>
        <time>2026-05-02T13:39:29.000Z</time>
      </trkpt>
      <trkpt lat="44.83357" lon="0.79338">
        <ele>165</ele>
        <time>2026-05-02T13:39:30.000Z</time>
      </trkpt>
      <trkpt lat="44.83358" lon="0.79337">
        <ele>164.2</ele>
        <time>2026-05-02T13:39:31.000Z</time>
      </trkpt>
      <trkpt lat="44.8336" lon="0.79336">
        <ele>163.5</ele>
        <time>2026-05-02T13:39:32.000Z</time>
      </trkpt>
      <trkpt lat="44.83361" lon="0.79336">
        <ele>163</ele>
        <time>2026-05-02T13:39:33.000Z</time>
      </trkpt>
      <trkpt lat="44.83362" lon="0.79335">
        <ele>162.3</ele>
        <time>2026-05-02T13:39:34.000Z</time>
      </trkpt>
      <trkpt lat="44.83363" lon="0.79335">
        <ele>160.6</ele>
        <time>2026-05-02T13:39:35.000Z</time>
      </trkpt>
      <trkpt lat="44.83364" lon="0.79335">
        <ele>159.5</ele>
        <time>2026-05-02T13:39:36.000Z</time>
      </trkpt>
      <trkpt lat="44.83365" lon="0.79335">
        <ele>158.1</ele>
        <time>2026-05-02T13:39:37.000Z</time>
      </trkpt>
      <trkpt lat="44.83366" lon="0.79335">
        <ele>158.1</ele>
        <time>2026-05-02T13:39:38.000Z</time>
      </trkpt>
      <trkpt lat="44.83368" lon="0.79335">
        <ele>158.2</ele>
        <time>2026-05-02T13:39:39.000Z</time>
      </trkpt>
      <trkpt lat="44.83369" lon="0.79335">
        <ele>156.3</ele>
        <time>2026-05-02T13:39:40.000Z</time>
      </trkpt>
      <trkpt lat="44.83371" lon="0.79335">
        <ele>156.4</ele>
        <time>2026-05-02T13:39:41.000Z</time>
      </trkpt>
      <trkpt lat="44.83372" lon="0.79334">
        <ele>156.2</ele>
        <time>2026-05-02T13:39:42.000Z</time>
      </trkpt>
      <trkpt lat="44.83374" lon="0.79334">
        <ele>156</ele>
        <time>2026-05-02T13:39:43.000Z</time>
      </trkpt>
      <trkpt lat="44.83375" lon="0.79333">
        <ele>157.1</ele>
        <time>2026-05-02T13:39:44.000Z</time>
      </trkpt>
      <trkpt lat="44.83377" lon="0.79333">
        <ele>158</ele>
        <time>2026-05-02T13:39:45.000Z</time>
      </trkpt>
      <trkpt lat="44.83379" lon="0.79332">
        <ele>158.4</ele>
        <time>2026-05-02T13:39:46.000Z</time>
      </trkpt>
      <trkpt lat="44.83381" lon="0.79332">
        <ele>157.8</ele>
        <time>2026-05-02T13:39:47.000Z</time>
      </trkpt>
      <trkpt lat="44.83383" lon="0.79331">
        <ele>157.8</ele>
        <time>2026-05-02T13:39:48.000Z</time>
      </trkpt>
      <trkpt lat="44.83384" lon="0.79331">
        <ele>157.4</ele>
        <time>2026-05-02T13:39:49.000Z</time>
      </trkpt>
      <trkpt lat="44.83386" lon="0.7933">
        <ele>156.9</ele>
        <time>2026-05-02T13:39:50.000Z</time>
      </trkpt>
      <trkpt lat="44.83388" lon="0.79329">
        <ele>156.9</ele>
        <time>2026-05-02T13:39:51.000Z</time>
      </trkpt>
      <trkpt lat="44.8339" lon="0.79328">
        <ele>157.4</ele>
        <time>2026-05-02T13:39:52.000Z</time>
      </trkpt>
      <trkpt lat="44.83392" lon="0.79326">
        <ele>158.3</ele>
        <time>2026-05-02T13:39:53.000Z</time>
      </trkpt>
      <trkpt lat="44.83394" lon="0.79325">
        <ele>156.6</ele>
        <time>2026-05-02T13:39:54.000Z</time>
      </trkpt>
      <trkpt lat="44.83396" lon="0.79323">
        <ele>156.6</ele>
        <time>2026-05-02T13:39:55.000Z</time>
      </trkpt>
      <trkpt lat="44.83398" lon="0.79322">
        <ele>157.6</ele>
        <time>2026-05-02T13:39:56.000Z</time>
      </trkpt>
      <trkpt lat="44.83399" lon="0.7932">
        <ele>157.9</ele>
        <time>2026-05-02T13:39:57.000Z</time>
      </trkpt>
      <trkpt lat="44.834" lon="0.79319">
        <ele>158.1</ele>
        <time>2026-05-02T13:39:58.000Z</time>
      </trkpt>
      <trkpt lat="44.83402" lon="0.79318">
        <ele>156.7</ele>
        <time>2026-05-02T13:39:59.000Z</time>
      </trkpt>
      <trkpt lat="44.83403" lon="0.79317">
        <ele>155.8</ele>
        <time>2026-05-02T13:40:00.000Z</time>
      </trkpt>
      <trkpt lat="44.83405" lon="0.79316">
        <ele>155.4</ele>
        <time>2026-05-02T13:40:01.000Z</time>
      </trkpt>
      <trkpt lat="44.83406" lon="0.79314">
        <ele>155.2</ele>
        <time>2026-05-02T13:40:02.000Z</time>
      </trkpt>
      <trkpt lat="44.83408" lon="0.79313">
        <ele>154.4</ele>
        <time>2026-05-02T13:40:03.000Z</time>
      </trkpt>
      <trkpt lat="44.8341" lon="0.79312">
        <ele>153.9</ele>
        <time>2026-05-02T13:40:04.000Z</time>
      </trkpt>
      <trkpt lat="44.83412" lon="0.7931">
        <ele>153.8</ele>
        <time>2026-05-02T13:40:05.000Z</time>
      </trkpt>
      <trkpt lat="44.83413" lon="0.79309">
        <ele>152.1</ele>
        <time>2026-05-02T13:40:06.000Z</time>
      </trkpt>
      <trkpt lat="44.83415" lon="0.79307">
        <ele>151.6</ele>
        <time>2026-05-02T13:40:07.000Z</time>
      </trkpt>
      <trkpt lat="44.83416" lon="0.79306">
        <ele>152.2</ele>
        <time>2026-05-02T13:40:08.000Z</time>
      </trkpt>
      <trkpt lat="44.83418" lon="0.79305">
        <ele>151.8</ele>
        <time>2026-05-02T13:40:09.000Z</time>
      </trkpt>
      <trkpt lat="44.8342" lon="0.79304">
        <ele>151.9</ele>
        <time>2026-05-02T13:40:10.000Z</time>
      </trkpt>
      <trkpt lat="44.83421" lon="0.79302">
        <ele>151.2</ele>
        <time>2026-05-02T13:40:11.000Z</time>
      </trkpt>
      <trkpt lat="44.83423" lon="0.793">
        <ele>151.5</ele>
        <time>2026-05-02T13:40:12.000Z</time>
      </trkpt>
      <trkpt lat="44.83425" lon="0.79298">
        <ele>152.1</ele>
        <time>2026-05-02T13:40:13.000Z</time>
      </trkpt>
      <trkpt lat="44.83426" lon="0.79297">
        <ele>151.9</ele>
        <time>2026-05-02T13:40:14.000Z</time>
      </trkpt>
      <trkpt lat="44.83428" lon="0.79296">
        <ele>152.5</ele>
        <time>2026-05-02T13:40:15.000Z</time>
      </trkpt>
      <trkpt lat="44.83429" lon="0.79294">
        <ele>152.8</ele>
        <time>2026-05-02T13:40:16.000Z</time>
      </trkpt>
      <trkpt lat="44.8343" lon="0.79293">
        <ele>152.7</ele>
        <time>2026-05-02T13:40:17.000Z</time>
      </trkpt>
      <trkpt lat="44.83431" lon="0.79291">
        <ele>152.8</ele>
        <time>2026-05-02T13:40:18.000Z</time>
      </trkpt>
      <trkpt lat="44.83433" lon="0.7929">
        <ele>153.2</ele>
        <time>2026-05-02T13:40:19.000Z</time>
      </trkpt>
      <trkpt lat="44.83434" lon="0.79289">
        <ele>153.5</ele>
        <time>2026-05-02T13:40:20.000Z</time>
      </trkpt>
      <trkpt lat="44.83435" lon="0.79287">
        <ele>153.7</ele>
        <time>2026-05-02T13:40:21.000Z</time>
      </trkpt>
      <trkpt lat="44.83436" lon="0.79286">
        <ele>153.6</ele>
        <time>2026-05-02T13:40:22.000Z</time>
      </trkpt>
      <trkpt lat="44.83437" lon="0.79284">
        <ele>153.6</ele>
        <time>2026-05-02T13:40:23.000Z</time>
      </trkpt>
      <trkpt lat="44.83439" lon="0.79282">
        <ele>154</ele>
        <time>2026-05-02T13:40:24.000Z</time>
      </trkpt>
      <trkpt lat="44.8344" lon="0.7928">
        <ele>154.4</ele>
        <time>2026-05-02T13:40:25.000Z</time>
      </trkpt>
      <trkpt lat="44.83442" lon="0.79278">
        <ele>153.7</ele>
        <time>2026-05-02T13:40:26.000Z</time>
      </trkpt>
      <trkpt lat="44.83443" lon="0.79277">
        <ele>152.7</ele>
        <time>2026-05-02T13:40:27.000Z</time>
      </trkpt>
      <trkpt lat="44.83445" lon="0.79276">
        <ele>152.2</ele>
        <time>2026-05-02T13:40:28.000Z</time>
      </trkpt>
      <trkpt lat="44.83447" lon="0.79275">
        <ele>152.1</ele>
        <time>2026-05-02T13:40:29.000Z</time>
      </trkpt>
      <trkpt lat="44.83448" lon="0.79273">
        <ele>151.6</ele>
        <time>2026-05-02T13:40:30.000Z</time>
      </trkpt>
      <trkpt lat="44.83449" lon="0.79271">
        <ele>150.7</ele>
        <time>2026-05-02T13:40:31.000Z</time>
      </trkpt>
      <trkpt lat="44.8345" lon="0.79269">
        <ele>150</ele>
        <time>2026-05-02T13:40:32.000Z</time>
      </trkpt>
      <trkpt lat="44.83451" lon="0.79267">
        <ele>149.9</ele>
        <time>2026-05-02T13:40:33.000Z</time>
      </trkpt>
      <trkpt lat="44.83452" lon="0.79265">
        <ele>151.1</ele>
        <time>2026-05-02T13:40:34.000Z</time>
      </trkpt>
      <trkpt lat="44.83452" lon="0.79263">
        <ele>152.2</ele>
        <time>2026-05-02T13:40:35.000Z</time>
      </trkpt>
      <trkpt lat="44.83453" lon="0.79261">
        <ele>153.6</ele>
        <time>2026-05-02T13:40:36.000Z</time>
      </trkpt>
      <trkpt lat="44.83453" lon="0.79262">
        <ele>152.5</ele>
        <time>2026-05-02T13:40:37.000Z</time>
      </trkpt>
      <trkpt lat="44.83453" lon="0.79261">
        <ele>153.2</ele>
        <time>2026-05-02T13:40:38.000Z</time>
      </trkpt>
      <trkpt lat="44.83454" lon="0.79261">
        <ele>153.3</ele>
        <time>2026-05-02T13:40:39.000Z</time>
      </trkpt>
      <trkpt lat="44.83454" lon="0.7926">
        <ele>153.6</ele>
        <time>2026-05-02T13:40:40.000Z</time>
      </trkpt>
      <trkpt lat="44.83455" lon="0.79258">
        <ele>153.5</ele>
        <time>2026-05-02T13:40:41.000Z</time>
      </trkpt>
      <trkpt lat="44.83456" lon="0.79257">
        <ele>153.7</ele>
        <time>2026-05-02T13:40:42.000Z</time>
      </trkpt>
      <trkpt lat="44.83457" lon="0.79255">
        <ele>153.8</ele>
        <time>2026-05-02T13:40:43.000Z</time>
      </trkpt>
      <trkpt lat="44.83457" lon="0.79253">
        <ele>153.2</ele>
        <time>2026-05-02T13:40:44.000Z</time>
      </trkpt>
      <trkpt lat="44.83458" lon="0.79251">
        <ele>152.6</ele>
        <time>2026-05-02T13:40:45.000Z</time>
      </trkpt>
      <trkpt lat="44.83459" lon="0.79249">
        <ele>152.5</ele>
        <time>2026-05-02T13:40:46.000Z</time>
      </trkpt>
      <trkpt lat="44.83459" lon="0.79247">
        <ele>152.4</ele>
        <time>2026-05-02T13:40:47.000Z</time>
      </trkpt>
      <trkpt lat="44.8346" lon="0.79246">
        <ele>152.1</ele>
        <time>2026-05-02T13:40:48.000Z</time>
      </trkpt>
      <trkpt lat="44.8346" lon="0.79244">
        <ele>151.8</ele>
        <time>2026-05-02T13:40:49.000Z</time>
      </trkpt>
      <trkpt lat="44.83461" lon="0.79242">
        <ele>151.4</ele>
        <time>2026-05-02T13:40:50.000Z</time>
      </trkpt>
      <trkpt lat="44.83462" lon="0.7924">
        <ele>151.1</ele>
        <time>2026-05-02T13:40:51.000Z</time>
      </trkpt>
      <trkpt lat="44.83462" lon="0.79237">
        <ele>150.8</ele>
        <time>2026-05-02T13:40:52.000Z</time>
      </trkpt>
      <trkpt lat="44.83463" lon="0.79235">
        <ele>150.5</ele>
        <time>2026-05-02T13:40:53.000Z</time>
      </trkpt>
      <trkpt lat="44.83464" lon="0.79234">
        <ele>150.3</ele>
        <time>2026-05-02T13:40:54.000Z</time>
      </trkpt>
      <trkpt lat="44.83464" lon="0.79232">
        <ele>149.6</ele>
        <time>2026-05-02T13:40:55.000Z</time>
      </trkpt>
      <trkpt lat="44.83465" lon="0.7923">
        <ele>149.7</ele>
        <time>2026-05-02T13:40:56.000Z</time>
      </trkpt>
      <trkpt lat="44.83465" lon="0.79228">
        <ele>149.5</ele>
        <time>2026-05-02T13:40:57.000Z</time>
      </trkpt>
      <trkpt lat="44.83466" lon="0.79226">
        <ele>149.1</ele>
        <time>2026-05-02T13:40:58.000Z</time>
      </trkpt>
      <trkpt lat="44.83466" lon="0.79224">
        <ele>148.9</ele>
        <time>2026-05-02T13:40:59.000Z</time>
      </trkpt>
      <trkpt lat="44.83467" lon="0.79222">
        <ele>148.6</ele>
        <time>2026-05-02T13:41:00.000Z</time>
      </trkpt>
      <trkpt lat="44.83467" lon="0.7922">
        <ele>149</ele>
        <time>2026-05-02T13:41:01.000Z</time>
      </trkpt>
      <trkpt lat="44.83468" lon="0.79217">
        <ele>148.6</ele>
        <time>2026-05-02T13:41:02.000Z</time>
      </trkpt>
      <trkpt lat="44.83468" lon="0.79215">
        <ele>148.3</ele>
        <time>2026-05-02T13:41:03.000Z</time>
      </trkpt>
      <trkpt lat="44.83469" lon="0.79213">
        <ele>147</ele>
        <time>2026-05-02T13:41:04.000Z</time>
      </trkpt>
      <trkpt lat="44.8347" lon="0.79211">
        <ele>146.5</ele>
        <time>2026-05-02T13:41:05.000Z</time>
      </trkpt>
      <trkpt lat="44.8347" lon="0.79209">
        <ele>146.4</ele>
        <time>2026-05-02T13:41:06.000Z</time>
      </trkpt>
      <trkpt lat="44.83471" lon="0.79206">
        <ele>146.9</ele>
        <time>2026-05-02T13:41:07.000Z</time>
      </trkpt>
      <trkpt lat="44.83471" lon="0.79204">
        <ele>146.8</ele>
        <time>2026-05-02T13:41:08.000Z</time>
      </trkpt>
      <trkpt lat="44.83472" lon="0.79202">
        <ele>146.4</ele>
        <time>2026-05-02T13:41:09.000Z</time>
      </trkpt>
      <trkpt lat="44.83473" lon="0.792">
        <ele>145.9</ele>
        <time>2026-05-02T13:41:10.000Z</time>
      </trkpt>
      <trkpt lat="44.83474" lon="0.79197">
        <ele>147</ele>
        <time>2026-05-02T13:41:11.000Z</time>
      </trkpt>
      <trkpt lat="44.83475" lon="0.79195">
        <ele>146.9</ele>
        <time>2026-05-02T13:41:12.000Z</time>
      </trkpt>
      <trkpt lat="44.83476" lon="0.79193">
        <ele>146</ele>
        <time>2026-05-02T13:41:13.000Z</time>
      </trkpt>
      <trkpt lat="44.83477" lon="0.79191">
        <ele>145.2</ele>
        <time>2026-05-02T13:41:14.000Z</time>
      </trkpt>
      <trkpt lat="44.83478" lon="0.79188">
        <ele>144.1</ele>
        <time>2026-05-02T13:41:15.000Z</time>
      </trkpt>
      <trkpt lat="44.8348" lon="0.79186">
        <ele>144.4</ele>
        <time>2026-05-02T13:41:16.000Z</time>
      </trkpt>
      <trkpt lat="44.83481" lon="0.79184">
        <ele>144.4</ele>
        <time>2026-05-02T13:41:17.000Z</time>
      </trkpt>
      <trkpt lat="44.83482" lon="0.79182">
        <ele>144.2</ele>
        <time>2026-05-02T13:41:18.000Z</time>
      </trkpt>
      <trkpt lat="44.83482" lon="0.7918">
        <ele>143.5</ele>
        <time>2026-05-02T13:41:19.000Z</time>
      </trkpt>
      <trkpt lat="44.83483" lon="0.79178">
        <ele>142.8</ele>
        <time>2026-05-02T13:41:20.000Z</time>
      </trkpt>
      <trkpt lat="44.83484" lon="0.79176">
        <ele>142.4</ele>
        <time>2026-05-02T13:41:21.000Z</time>
      </trkpt>
      <trkpt lat="44.83486" lon="0.79174">
        <ele>141.5</ele>
        <time>2026-05-02T13:41:22.000Z</time>
      </trkpt>
      <trkpt lat="44.83487" lon="0.79172">
        <ele>142</ele>
        <time>2026-05-02T13:41:23.000Z</time>
      </trkpt>
      <trkpt lat="44.83488" lon="0.7917">
        <ele>141.8</ele>
        <time>2026-05-02T13:41:24.000Z</time>
      </trkpt>
      <trkpt lat="44.83489" lon="0.79167">
        <ele>142.1</ele>
        <time>2026-05-02T13:41:25.000Z</time>
      </trkpt>
      <trkpt lat="44.8349" lon="0.79165">
        <ele>142.2</ele>
        <time>2026-05-02T13:41:26.000Z</time>
      </trkpt>
      <trkpt lat="44.83491" lon="0.79163">
        <ele>142.4</ele>
        <time>2026-05-02T13:41:27.000Z</time>
      </trkpt>
      <trkpt lat="44.83492" lon="0.7916">
        <ele>142.8</ele>
        <time>2026-05-02T13:41:28.000Z</time>
      </trkpt>
      <trkpt lat="44.83493" lon="0.79158">
        <ele>142.3</ele>
        <time>2026-05-02T13:41:29.000Z</time>
      </trkpt>
      <trkpt lat="44.83495" lon="0.79157">
        <ele>142.1</ele>
        <time>2026-05-02T13:41:30.000Z</time>
      </trkpt>
      <trkpt lat="44.83496" lon="0.79155">
        <ele>142</ele>
        <time>2026-05-02T13:41:31.000Z</time>
      </trkpt>
      <trkpt lat="44.83497" lon="0.79152">
        <ele>142</ele>
        <time>2026-05-02T13:41:32.000Z</time>
      </trkpt>
      <trkpt lat="44.83498" lon="0.7915">
        <ele>142.4</ele>
        <time>2026-05-02T13:41:33.000Z</time>
      </trkpt>
      <trkpt lat="44.83499" lon="0.79148">
        <ele>142.5</ele>
        <time>2026-05-02T13:41:34.000Z</time>
      </trkpt>
      <trkpt lat="44.835" lon="0.79146">
        <ele>142.8</ele>
        <time>2026-05-02T13:41:35.000Z</time>
      </trkpt>
      <trkpt lat="44.83501" lon="0.79144">
        <ele>143.1</ele>
        <time>2026-05-02T13:41:36.000Z</time>
      </trkpt>
      <trkpt lat="44.83503" lon="0.79142">
        <ele>143</ele>
        <time>2026-05-02T13:41:37.000Z</time>
      </trkpt>
      <trkpt lat="44.83504" lon="0.79141">
        <ele>142.9</ele>
        <time>2026-05-02T13:41:38.000Z</time>
      </trkpt>
      <trkpt lat="44.83505" lon="0.79139">
        <ele>143.1</ele>
        <time>2026-05-02T13:41:39.000Z</time>
      </trkpt>
      <trkpt lat="44.83507" lon="0.79138">
        <ele>143.1</ele>
        <time>2026-05-02T13:41:40.000Z</time>
      </trkpt>
      <trkpt lat="44.83508" lon="0.79137">
        <ele>143</ele>
        <time>2026-05-02T13:41:41.000Z</time>
      </trkpt>
      <trkpt lat="44.8351" lon="0.79136">
        <ele>143.3</ele>
        <time>2026-05-02T13:41:42.000Z</time>
      </trkpt>
      <trkpt lat="44.83512" lon="0.79136">
        <ele>144</ele>
        <time>2026-05-02T13:41:43.000Z</time>
      </trkpt>
      <trkpt lat="44.83515" lon="0.79134">
        <ele>143.6</ele>
        <time>2026-05-02T13:41:44.000Z</time>
      </trkpt>
      <trkpt lat="44.83517" lon="0.79132">
        <ele>140.2</ele>
        <time>2026-05-02T13:41:45.000Z</time>
      </trkpt>
      <trkpt lat="44.83519" lon="0.7913">
        <ele>138.1</ele>
        <time>2026-05-02T13:41:46.000Z</time>
      </trkpt>
      <trkpt lat="44.83521" lon="0.79128">
        <ele>138.2</ele>
        <time>2026-05-02T13:41:47.000Z</time>
      </trkpt>
      <trkpt lat="44.8352" lon="0.79129">
        <ele>139</ele>
        <time>2026-05-02T13:41:48.000Z</time>
      </trkpt>
      <trkpt lat="44.8352" lon="0.7913">
        <ele>139</ele>
        <time>2026-05-02T13:41:49.000Z</time>
      </trkpt>
      <trkpt lat="44.8352" lon="0.7913">
        <ele>139.1</ele>
        <time>2026-05-02T13:41:50.000Z</time>
      </trkpt>
      <trkpt lat="44.8352" lon="0.7913">
        <ele>139.1</ele>
        <time>2026-05-02T13:41:51.000Z</time>
      </trkpt>
      <trkpt lat="44.8352" lon="0.79129">
        <ele>138.8</ele>
        <time>2026-05-02T13:41:52.000Z</time>
      </trkpt>
      <trkpt lat="44.83521" lon="0.79128">
        <ele>137.9</ele>
        <time>2026-05-02T13:41:53.000Z</time>
      </trkpt>
      <trkpt lat="44.83521" lon="0.79127">
        <ele>138.9</ele>
        <time>2026-05-02T13:41:54.000Z</time>
      </trkpt>
      <trkpt lat="44.83522" lon="0.79126">
        <ele>138.7</ele>
        <time>2026-05-02T13:41:55.000Z</time>
      </trkpt>
      <trkpt lat="44.83523" lon="0.79125">
        <ele>137.8</ele>
        <time>2026-05-02T13:41:56.000Z</time>
      </trkpt>
      <trkpt lat="44.83525" lon="0.79124">
        <ele>137.8</ele>
        <time>2026-05-02T13:41:57.000Z</time>
      </trkpt>
      <trkpt lat="44.83526" lon="0.79123">
        <ele>137.7</ele>
        <time>2026-05-02T13:41:58.000Z</time>
      </trkpt>
      <trkpt lat="44.83528" lon="0.79122">
        <ele>137.8</ele>
        <time>2026-05-02T13:41:59.000Z</time>
      </trkpt>
      <trkpt lat="44.8353" lon="0.7912">
        <ele>138.3</ele>
        <time>2026-05-02T13:42:00.000Z</time>
      </trkpt>
      <trkpt lat="44.83531" lon="0.79118">
        <ele>140.5</ele>
        <time>2026-05-02T13:42:01.000Z</time>
      </trkpt>
      <trkpt lat="44.83533" lon="0.79116">
        <ele>141.8</ele>
        <time>2026-05-02T13:42:02.000Z</time>
      </trkpt>
      <trkpt lat="44.83535" lon="0.79114">
        <ele>142.4</ele>
        <time>2026-05-02T13:42:03.000Z</time>
      </trkpt>
      <trkpt lat="44.83537" lon="0.79112">
        <ele>143.9</ele>
        <time>2026-05-02T13:42:04.000Z</time>
      </trkpt>
      <trkpt lat="44.83539" lon="0.7911">
        <ele>144.4</ele>
        <time>2026-05-02T13:42:05.000Z</time>
      </trkpt>
      <trkpt lat="44.83541" lon="0.79108">
        <ele>144.9</ele>
        <time>2026-05-02T13:42:06.000Z</time>
      </trkpt>
      <trkpt lat="44.83544" lon="0.79107">
        <ele>144.9</ele>
        <time>2026-05-02T13:42:07.000Z</time>
      </trkpt>
      <trkpt lat="44.83546" lon="0.79104">
        <ele>143.9</ele>
        <time>2026-05-02T13:42:08.000Z</time>
      </trkpt>
      <trkpt lat="44.8355" lon="0.79103">
        <ele>141.6</ele>
        <time>2026-05-02T13:42:09.000Z</time>
      </trkpt>
      <trkpt lat="44.83553" lon="0.79102">
        <ele>140.8</ele>
        <time>2026-05-02T13:42:10.000Z</time>
      </trkpt>
      <trkpt lat="44.83555" lon="0.791">
        <ele>139.9</ele>
        <time>2026-05-02T13:42:11.000Z</time>
      </trkpt>
      <trkpt lat="44.83558" lon="0.791">
        <ele>139.8</ele>
        <time>2026-05-02T13:42:12.000Z</time>
      </trkpt>
      <trkpt lat="44.83563" lon="0.79098">
        <ele>138.3</ele>
        <time>2026-05-02T13:42:13.000Z</time>
      </trkpt>
      <trkpt lat="44.83568" lon="0.79097">
        <ele>137.3</ele>
        <time>2026-05-02T13:42:14.000Z</time>
      </trkpt>
      <trkpt lat="44.83574" lon="0.79095">
        <ele>137.1</ele>
        <time>2026-05-02T13:42:15.000Z</time>
      </trkpt>
      <trkpt lat="44.83579" lon="0.79093">
        <ele>136.8</ele>
        <time>2026-05-02T13:42:16.000Z</time>
      </trkpt>
      <trkpt lat="44.83585" lon="0.79091">
        <ele>136.9</ele>
        <time>2026-05-02T13:42:17.000Z</time>
      </trkpt>
      <trkpt lat="44.83591" lon="0.79089">
        <ele>136.9</ele>
        <time>2026-05-02T13:42:18.000Z</time>
      </trkpt>
      <trkpt lat="44.83596" lon="0.79088">
        <ele>137.1</ele>
        <time>2026-05-02T13:42:19.000Z</time>
      </trkpt>
      <trkpt lat="44.83602" lon="0.79086">
        <ele>137.5</ele>
        <time>2026-05-02T13:42:20.000Z</time>
      </trkpt>
      <trkpt lat="44.83608" lon="0.79085">
        <ele>137.5</ele>
        <time>2026-05-02T13:42:21.000Z</time>
      </trkpt>
      <trkpt lat="44.83614" lon="0.79083">
        <ele>137.8</ele>
        <time>2026-05-02T13:42:22.000Z</time>
      </trkpt>
      <trkpt lat="44.8362" lon="0.7908">
        <ele>137.8</ele>
        <time>2026-05-02T13:42:23.000Z</time>
      </trkpt>
      <trkpt lat="44.83626" lon="0.79078">
        <ele>137.6</ele>
        <time>2026-05-02T13:42:24.000Z</time>
      </trkpt>
      <trkpt lat="44.83631" lon="0.79076">
        <ele>138.6</ele>
        <time>2026-05-02T13:42:25.000Z</time>
      </trkpt>
      <trkpt lat="44.83636" lon="0.79074">
        <ele>139</ele>
        <time>2026-05-02T13:42:26.000Z</time>
      </trkpt>
      <trkpt lat="44.83642" lon="0.79073">
        <ele>139.7</ele>
        <time>2026-05-02T13:42:27.000Z</time>
      </trkpt>
      <trkpt lat="44.83647" lon="0.79072">
        <ele>140</ele>
        <time>2026-05-02T13:42:28.000Z</time>
      </trkpt>
      <trkpt lat="44.83652" lon="0.79069">
        <ele>141.1</ele>
        <time>2026-05-02T13:42:29.000Z</time>
      </trkpt>
      <trkpt lat="44.83657" lon="0.79067">
        <ele>140.6</ele>
        <time>2026-05-02T13:42:30.000Z</time>
      </trkpt>
      <trkpt lat="44.83662" lon="0.79064">
        <ele>141</ele>
        <time>2026-05-02T13:42:31.000Z</time>
      </trkpt>
      <trkpt lat="44.83667" lon="0.79062">
        <ele>140.9</ele>
        <time>2026-05-02T13:42:32.000Z</time>
      </trkpt>
      <trkpt lat="44.83672" lon="0.79061">
        <ele>139.8</ele>
        <time>2026-05-02T13:42:33.000Z</time>
      </trkpt>
      <trkpt lat="44.83677" lon="0.79059">
        <ele>140</ele>
        <time>2026-05-02T13:42:34.000Z</time>
      </trkpt>
      <trkpt lat="44.83681" lon="0.79057">
        <ele>140.4</ele>
        <time>2026-05-02T13:42:35.000Z</time>
      </trkpt>
      <trkpt lat="44.83686" lon="0.79056">
        <ele>140.8</ele>
        <time>2026-05-02T13:42:36.000Z</time>
      </trkpt>
      <trkpt lat="44.8369" lon="0.79054">
        <ele>141.3</ele>
        <time>2026-05-02T13:42:37.000Z</time>
      </trkpt>
      <trkpt lat="44.83695" lon="0.79051">
        <ele>142.4</ele>
        <time>2026-05-02T13:42:38.000Z</time>
      </trkpt>
      <trkpt lat="44.83699" lon="0.7905">
        <ele>143.2</ele>
        <time>2026-05-02T13:42:39.000Z</time>
      </trkpt>
      <trkpt lat="44.83703" lon="0.79048">
        <ele>143.8</ele>
        <time>2026-05-02T13:42:40.000Z</time>
      </trkpt>
      <trkpt lat="44.83707" lon="0.79047">
        <ele>144.1</ele>
        <time>2026-05-02T13:42:41.000Z</time>
      </trkpt>
      <trkpt lat="44.8371" lon="0.79046">
        <ele>144.9</ele>
        <time>2026-05-02T13:42:42.000Z</time>
      </trkpt>
      <trkpt lat="44.83713" lon="0.79045">
        <ele>145.2</ele>
        <time>2026-05-02T13:42:43.000Z</time>
      </trkpt>
      <trkpt lat="44.83717" lon="0.79044">
        <ele>145.7</ele>
        <time>2026-05-02T13:42:44.000Z</time>
      </trkpt>
      <trkpt lat="44.83721" lon="0.79042">
        <ele>146.8</ele>
        <time>2026-05-02T13:42:45.000Z</time>
      </trkpt>
      <trkpt lat="44.83726" lon="0.7904">
        <ele>145.4</ele>
        <time>2026-05-02T13:42:46.000Z</time>
      </trkpt>
      <trkpt lat="44.8373" lon="0.79039">
        <ele>144.5</ele>
        <time>2026-05-02T13:42:47.000Z</time>
      </trkpt>
      <trkpt lat="44.83735" lon="0.79038">
        <ele>143.7</ele>
        <time>2026-05-02T13:42:48.000Z</time>
      </trkpt>
      <trkpt lat="44.8374" lon="0.79038">
        <ele>144.3</ele>
        <time>2026-05-02T13:42:49.000Z</time>
      </trkpt>
      <trkpt lat="44.83746" lon="0.79039">
        <ele>144.9</ele>
        <time>2026-05-02T13:42:50.000Z</time>
      </trkpt>
      <trkpt lat="44.83751" lon="0.7904">
        <ele>145.3</ele>
        <time>2026-05-02T13:42:51.000Z</time>
      </trkpt>
      <trkpt lat="44.83756" lon="0.7904">
        <ele>146.1</ele>
        <time>2026-05-02T13:42:52.000Z</time>
      </trkpt>
      <trkpt lat="44.83762" lon="0.79041">
        <ele>146</ele>
        <time>2026-05-02T13:42:53.000Z</time>
      </trkpt>
      <trkpt lat="44.83767" lon="0.79042">
        <ele>146.4</ele>
        <time>2026-05-02T13:42:54.000Z</time>
      </trkpt>
      <trkpt lat="44.83773" lon="0.79043">
        <ele>146.4</ele>
        <time>2026-05-02T13:42:55.000Z</time>
      </trkpt>
      <trkpt lat="44.83777" lon="0.79044">
        <ele>147.4</ele>
        <time>2026-05-02T13:42:56.000Z</time>
      </trkpt>
      <trkpt lat="44.83782" lon="0.79044">
        <ele>147.7</ele>
        <time>2026-05-02T13:42:57.000Z</time>
      </trkpt>
      <trkpt lat="44.83786" lon="0.79045">
        <ele>147.3</ele>
        <time>2026-05-02T13:42:58.000Z</time>
      </trkpt>
      <trkpt lat="44.83789" lon="0.79046">
        <ele>147.7</ele>
        <time>2026-05-02T13:42:59.000Z</time>
      </trkpt>
      <trkpt lat="44.83793" lon="0.79047">
        <ele>147.8</ele>
        <time>2026-05-02T13:43:00.000Z</time>
      </trkpt>
      <trkpt lat="44.83796" lon="0.79048">
        <ele>148.2</ele>
        <time>2026-05-02T13:43:01.000Z</time>
      </trkpt>
      <trkpt lat="44.83798" lon="0.79049">
        <ele>146.3</ele>
        <time>2026-05-02T13:43:02.000Z</time>
      </trkpt>
      <trkpt lat="44.83801" lon="0.79051">
        <ele>146.6</ele>
        <time>2026-05-02T13:43:03.000Z</time>
      </trkpt>
      <trkpt lat="44.83804" lon="0.79052">
        <ele>146.6</ele>
        <time>2026-05-02T13:43:04.000Z</time>
      </trkpt>
      <trkpt lat="44.83807" lon="0.79052">
        <ele>147.2</ele>
        <time>2026-05-02T13:43:05.000Z</time>
      </trkpt>
      <trkpt lat="44.8381" lon="0.79053">
        <ele>147.8</ele>
        <time>2026-05-02T13:43:06.000Z</time>
      </trkpt>
      <trkpt lat="44.83812" lon="0.79054">
        <ele>148.1</ele>
        <time>2026-05-02T13:43:07.000Z</time>
      </trkpt>
      <trkpt lat="44.83814" lon="0.79055">
        <ele>148.3</ele>
        <time>2026-05-02T13:43:08.000Z</time>
      </trkpt>
      <trkpt lat="44.83816" lon="0.79055">
        <ele>148.5</ele>
        <time>2026-05-02T13:43:09.000Z</time>
      </trkpt>
      <trkpt lat="44.83818" lon="0.79055">
        <ele>148.2</ele>
        <time>2026-05-02T13:43:10.000Z</time>
      </trkpt>
      <trkpt lat="44.8382" lon="0.79056">
        <ele>148.2</ele>
        <time>2026-05-02T13:43:11.000Z</time>
      </trkpt>
      <trkpt lat="44.83821" lon="0.79056">
        <ele>148.3</ele>
        <time>2026-05-02T13:43:12.000Z</time>
      </trkpt>
      <trkpt lat="44.83823" lon="0.79056">
        <ele>148.2</ele>
        <time>2026-05-02T13:43:13.000Z</time>
      </trkpt>
      <trkpt lat="44.83825" lon="0.79056">
        <ele>147.6</ele>
        <time>2026-05-02T13:43:14.000Z</time>
      </trkpt>
      <trkpt lat="44.83826" lon="0.79057">
        <ele>147.6</ele>
        <time>2026-05-02T13:43:15.000Z</time>
      </trkpt>
      <trkpt lat="44.83828" lon="0.79057">
        <ele>147.9</ele>
        <time>2026-05-02T13:43:16.000Z</time>
      </trkpt>
      <trkpt lat="44.8383" lon="0.79057">
        <ele>148.1</ele>
        <time>2026-05-02T13:43:17.000Z</time>
      </trkpt>
      <trkpt lat="44.83832" lon="0.79058">
        <ele>147.7</ele>
        <time>2026-05-02T13:43:18.000Z</time>
      </trkpt>
      <trkpt lat="44.83834" lon="0.79058">
        <ele>147.7</ele>
        <time>2026-05-02T13:43:19.000Z</time>
      </trkpt>
      <trkpt lat="44.83835" lon="0.79058">
        <ele>147.6</ele>
        <time>2026-05-02T13:43:20.000Z</time>
      </trkpt>
      <trkpt lat="44.83837" lon="0.79059">
        <ele>147.5</ele>
        <time>2026-05-02T13:43:21.000Z</time>
      </trkpt>
      <trkpt lat="44.83839" lon="0.7906">
        <ele>147.8</ele>
        <time>2026-05-02T13:43:22.000Z</time>
      </trkpt>
      <trkpt lat="44.83841" lon="0.7906">
        <ele>147.5</ele>
        <time>2026-05-02T13:43:23.000Z</time>
      </trkpt>
      <trkpt lat="44.83842" lon="0.79061">
        <ele>147.2</ele>
        <time>2026-05-02T13:43:24.000Z</time>
      </trkpt>
      <trkpt lat="44.83844" lon="0.79061">
        <ele>147.1</ele>
        <time>2026-05-02T13:43:25.000Z</time>
      </trkpt>
      <trkpt lat="44.83846" lon="0.79061">
        <ele>147.2</ele>
        <time>2026-05-02T13:43:26.000Z</time>
      </trkpt>
      <trkpt lat="44.83847" lon="0.79061">
        <ele>147.3</ele>
        <time>2026-05-02T13:43:27.000Z</time>
      </trkpt>
      <trkpt lat="44.83849" lon="0.79062">
        <ele>147.2</ele>
        <time>2026-05-02T13:43:28.000Z</time>
      </trkpt>
      <trkpt lat="44.83851" lon="0.79062">
        <ele>147.6</ele>
        <time>2026-05-02T13:43:29.000Z</time>
      </trkpt>
      <trkpt lat="44.83853" lon="0.79062">
        <ele>147.8</ele>
        <time>2026-05-02T13:43:30.000Z</time>
      </trkpt>
      <trkpt lat="44.83854" lon="0.79062">
        <ele>147.5</ele>
        <time>2026-05-02T13:43:31.000Z</time>
      </trkpt>
      <trkpt lat="44.83856" lon="0.79063">
        <ele>147.4</ele>
        <time>2026-05-02T13:43:32.000Z</time>
      </trkpt>
      <trkpt lat="44.83858" lon="0.79064">
        <ele>147</ele>
        <time>2026-05-02T13:43:33.000Z</time>
      </trkpt>
      <trkpt lat="44.8386" lon="0.79064">
        <ele>146.9</ele>
        <time>2026-05-02T13:43:34.000Z</time>
      </trkpt>
      <trkpt lat="44.83861" lon="0.79065">
        <ele>146.8</ele>
        <time>2026-05-02T13:43:35.000Z</time>
      </trkpt>
      <trkpt lat="44.83863" lon="0.79065">
        <ele>146.8</ele>
        <time>2026-05-02T13:43:36.000Z</time>
      </trkpt>
      <trkpt lat="44.83865" lon="0.79066">
        <ele>146.9</ele>
        <time>2026-05-02T13:43:37.000Z</time>
      </trkpt>
      <trkpt lat="44.83867" lon="0.79066">
        <ele>146.7</ele>
        <time>2026-05-02T13:43:38.000Z</time>
      </trkpt>
      <trkpt lat="44.83868" lon="0.79066">
        <ele>146.7</ele>
        <time>2026-05-02T13:43:39.000Z</time>
      </trkpt>
      <trkpt lat="44.8387" lon="0.79066">
        <ele>146.6</ele>
        <time>2026-05-02T13:43:40.000Z</time>
      </trkpt>
      <trkpt lat="44.83871" lon="0.79067">
        <ele>146.9</ele>
        <time>2026-05-02T13:43:41.000Z</time>
      </trkpt>
      <trkpt lat="44.83873" lon="0.79068">
        <ele>146.6</ele>
        <time>2026-05-02T13:43:42.000Z</time>
      </trkpt>
      <trkpt lat="44.83874" lon="0.79069">
        <ele>146.3</ele>
        <time>2026-05-02T13:43:43.000Z</time>
      </trkpt>
      <trkpt lat="44.83876" lon="0.79069">
        <ele>146</ele>
        <time>2026-05-02T13:43:44.000Z</time>
      </trkpt>
      <trkpt lat="44.83877" lon="0.7907">
        <ele>145.5</ele>
        <time>2026-05-02T13:43:45.000Z</time>
      </trkpt>
      <trkpt lat="44.83879" lon="0.79071">
        <ele>145.3</ele>
        <time>2026-05-02T13:43:46.000Z</time>
      </trkpt>
      <trkpt lat="44.83881" lon="0.79071">
        <ele>145.4</ele>
        <time>2026-05-02T13:43:47.000Z</time>
      </trkpt>
      <trkpt lat="44.83882" lon="0.79071">
        <ele>145.9</ele>
        <time>2026-05-02T13:43:48.000Z</time>
      </trkpt>
      <trkpt lat="44.83884" lon="0.79072">
        <ele>146</ele>
        <time>2026-05-02T13:43:49.000Z</time>
      </trkpt>
      <trkpt lat="44.83886" lon="0.79072">
        <ele>146</ele>
        <time>2026-05-02T13:43:50.000Z</time>
      </trkpt>
      <trkpt lat="44.83887" lon="0.79073">
        <ele>146.2</ele>
        <time>2026-05-02T13:43:51.000Z</time>
      </trkpt>
      <trkpt lat="44.83889" lon="0.79074">
        <ele>146.2</ele>
        <time>2026-05-02T13:43:52.000Z</time>
      </trkpt>
      <trkpt lat="44.83891" lon="0.79075">
        <ele>146.6</ele>
        <time>2026-05-02T13:43:53.000Z</time>
      </trkpt>
      <trkpt lat="44.83893" lon="0.79076">
        <ele>146.6</ele>
        <time>2026-05-02T13:43:54.000Z</time>
      </trkpt>
      <trkpt lat="44.83894" lon="0.79077">
        <ele>146.8</ele>
        <time>2026-05-02T13:43:55.000Z</time>
      </trkpt>
      <trkpt lat="44.83896" lon="0.79078">
        <ele>146.8</ele>
        <time>2026-05-02T13:43:56.000Z</time>
      </trkpt>
      <trkpt lat="44.83898" lon="0.79079">
        <ele>146.6</ele>
        <time>2026-05-02T13:43:57.000Z</time>
      </trkpt>
      <trkpt lat="44.839" lon="0.79079">
        <ele>146.8</ele>
        <time>2026-05-02T13:43:58.000Z</time>
      </trkpt>
      <trkpt lat="44.83901" lon="0.7908">
        <ele>146.7</ele>
        <time>2026-05-02T13:43:59.000Z</time>
      </trkpt>
      <trkpt lat="44.83903" lon="0.79081">
        <ele>146.6</ele>
        <time>2026-05-02T13:44:00.000Z</time>
      </trkpt>
      <trkpt lat="44.83905" lon="0.79082">
        <ele>146.4</ele>
        <time>2026-05-02T13:44:01.000Z</time>
      </trkpt>
      <trkpt lat="44.83907" lon="0.79083">
        <ele>146.2</ele>
        <time>2026-05-02T13:44:02.000Z</time>
      </trkpt>
      <trkpt lat="44.83908" lon="0.79084">
        <ele>146</ele>
        <time>2026-05-02T13:44:03.000Z</time>
      </trkpt>
      <trkpt lat="44.8391" lon="0.79085">
        <ele>145.8</ele>
        <time>2026-05-02T13:44:04.000Z</time>
      </trkpt>
      <trkpt lat="44.83911" lon="0.79085">
        <ele>145.9</ele>
        <time>2026-05-02T13:44:05.000Z</time>
      </trkpt>
      <trkpt lat="44.83913" lon="0.79085">
        <ele>145.9</ele>
        <time>2026-05-02T13:44:06.000Z</time>
      </trkpt>
      <trkpt lat="44.83915" lon="0.79086">
        <ele>146</ele>
        <time>2026-05-02T13:44:07.000Z</time>
      </trkpt>
      <trkpt lat="44.83916" lon="0.79087">
        <ele>146</ele>
        <time>2026-05-02T13:44:08.000Z</time>
      </trkpt>
      <trkpt lat="44.83918" lon="0.79087">
        <ele>146.1</ele>
        <time>2026-05-02T13:44:09.000Z</time>
      </trkpt>
      <trkpt lat="44.8392" lon="0.79087">
        <ele>146.6</ele>
        <time>2026-05-02T13:44:10.000Z</time>
      </trkpt>
      <trkpt lat="44.83921" lon="0.79088">
        <ele>146.4</ele>
        <time>2026-05-02T13:44:11.000Z</time>
      </trkpt>
      <trkpt lat="44.83923" lon="0.79088">
        <ele>146.6</ele>
        <time>2026-05-02T13:44:12.000Z</time>
      </trkpt>
      <trkpt lat="44.83925" lon="0.7909">
        <ele>146</ele>
        <time>2026-05-02T13:44:13.000Z</time>
      </trkpt>
      <trkpt lat="44.83927" lon="0.79091">
        <ele>145.7</ele>
        <time>2026-05-02T13:44:14.000Z</time>
      </trkpt>
      <trkpt lat="44.83929" lon="0.79092">
        <ele>145.4</ele>
        <time>2026-05-02T13:44:15.000Z</time>
      </trkpt>
      <trkpt lat="44.8393" lon="0.79093">
        <ele>145.6</ele>
        <time>2026-05-02T13:44:16.000Z</time>
      </trkpt>
      <trkpt lat="44.83932" lon="0.79094">
        <ele>145.3</ele>
        <time>2026-05-02T13:44:17.000Z</time>
      </trkpt>
      <trkpt lat="44.83934" lon="0.79095">
        <ele>145.2</ele>
        <time>2026-05-02T13:44:18.000Z</time>
      </trkpt>
      <trkpt lat="44.83935" lon="0.79096">
        <ele>145.2</ele>
        <time>2026-05-02T13:44:19.000Z</time>
      </trkpt>
      <trkpt lat="44.83937" lon="0.79097">
        <ele>144.8</ele>
        <time>2026-05-02T13:44:20.000Z</time>
      </trkpt>
      <trkpt lat="44.83939" lon="0.79098">
        <ele>144.4</ele>
        <time>2026-05-02T13:44:21.000Z</time>
      </trkpt>
      <trkpt lat="44.83941" lon="0.79099">
        <ele>144</ele>
        <time>2026-05-02T13:44:22.000Z</time>
      </trkpt>
      <trkpt lat="44.83942" lon="0.791">
        <ele>143.7</ele>
        <time>2026-05-02T13:44:23.000Z</time>
      </trkpt>
      <trkpt lat="44.83944" lon="0.79101">
        <ele>143.3</ele>
        <time>2026-05-02T13:44:24.000Z</time>
      </trkpt>
      <trkpt lat="44.83946" lon="0.79102">
        <ele>143.3</ele>
        <time>2026-05-02T13:44:25.000Z</time>
      </trkpt>
      <trkpt lat="44.83947" lon="0.79102">
        <ele>143.1</ele>
        <time>2026-05-02T13:44:26.000Z</time>
      </trkpt>
      <trkpt lat="44.83949" lon="0.79103">
        <ele>143</ele>
        <time>2026-05-02T13:44:27.000Z</time>
      </trkpt>
      <trkpt lat="44.83951" lon="0.79103">
        <ele>142.9</ele>
        <time>2026-05-02T13:44:28.000Z</time>
      </trkpt>
      <trkpt lat="44.83952" lon="0.79104">
        <ele>142.6</ele>
        <time>2026-05-02T13:44:29.000Z</time>
      </trkpt>
      <trkpt lat="44.83954" lon="0.79105">
        <ele>142.5</ele>
        <time>2026-05-02T13:44:30.000Z</time>
      </trkpt>
      <trkpt lat="44.83956" lon="0.79106">
        <ele>142.4</ele>
        <time>2026-05-02T13:44:31.000Z</time>
      </trkpt>
      <trkpt lat="44.83957" lon="0.79106">
        <ele>142.4</ele>
        <time>2026-05-02T13:44:32.000Z</time>
      </trkpt>
      <trkpt lat="44.83959" lon="0.79107">
        <ele>142.1</ele>
        <time>2026-05-02T13:44:33.000Z</time>
      </trkpt>
      <trkpt lat="44.83961" lon="0.79107">
        <ele>142</ele>
        <time>2026-05-02T13:44:34.000Z</time>
      </trkpt>
      <trkpt lat="44.83962" lon="0.79108">
        <ele>142</ele>
        <time>2026-05-02T13:44:35.000Z</time>
      </trkpt>
      <trkpt lat="44.83964" lon="0.79109">
        <ele>141.8</ele>
        <time>2026-05-02T13:44:36.000Z</time>
      </trkpt>
      <trkpt lat="44.83965" lon="0.7911">
        <ele>141.2</ele>
        <time>2026-05-02T13:44:37.000Z</time>
      </trkpt>
      <trkpt lat="44.83967" lon="0.79111">
        <ele>140.7</ele>
        <time>2026-05-02T13:44:38.000Z</time>
      </trkpt>
      <trkpt lat="44.83968" lon="0.79112">
        <ele>140.4</ele>
        <time>2026-05-02T13:44:39.000Z</time>
      </trkpt>
      <trkpt lat="44.8397" lon="0.79112">
        <ele>139.9</ele>
        <time>2026-05-02T13:44:40.000Z</time>
      </trkpt>
      <trkpt lat="44.83971" lon="0.79112">
        <ele>139.5</ele>
        <time>2026-05-02T13:44:41.000Z</time>
      </trkpt>
      <trkpt lat="44.83973" lon="0.79113">
        <ele>138.3</ele>
        <time>2026-05-02T13:44:42.000Z</time>
      </trkpt>
      <trkpt lat="44.83973" lon="0.79115">
        <ele>137.9</ele>
        <time>2026-05-02T13:44:43.000Z</time>
      </trkpt>
      <trkpt lat="44.83975" lon="0.79117">
        <ele>137.5</ele>
        <time>2026-05-02T13:44:44.000Z</time>
      </trkpt>
      <trkpt lat="44.83976" lon="0.79118">
        <ele>137.1</ele>
        <time>2026-05-02T13:44:45.000Z</time>
      </trkpt>
      <trkpt lat="44.83978" lon="0.79118">
        <ele>137.7</ele>
        <time>2026-05-02T13:44:46.000Z</time>
      </trkpt>
      <trkpt lat="44.8398" lon="0.79119">
        <ele>137.5</ele>
        <time>2026-05-02T13:44:47.000Z</time>
      </trkpt>
      <trkpt lat="44.83982" lon="0.79119">
        <ele>137.6</ele>
        <time>2026-05-02T13:44:48.000Z</time>
      </trkpt>
      <trkpt lat="44.83984" lon="0.79119">
        <ele>137.5</ele>
        <time>2026-05-02T13:44:49.000Z</time>
      </trkpt>
      <trkpt lat="44.83985" lon="0.79119">
        <ele>137.3</ele>
        <time>2026-05-02T13:44:50.000Z</time>
      </trkpt>
      <trkpt lat="44.83987" lon="0.79118">
        <ele>137</ele>
        <time>2026-05-02T13:44:51.000Z</time>
      </trkpt>
      <trkpt lat="44.83989" lon="0.79118">
        <ele>136.8</ele>
        <time>2026-05-02T13:44:52.000Z</time>
      </trkpt>
      <trkpt lat="44.83991" lon="0.79118">
        <ele>136.3</ele>
        <time>2026-05-02T13:44:53.000Z</time>
      </trkpt>
      <trkpt lat="44.83992" lon="0.79118">
        <ele>136.2</ele>
        <time>2026-05-02T13:44:54.000Z</time>
      </trkpt>
      <trkpt lat="44.83992" lon="0.79118">
        <ele>136.9</ele>
        <time>2026-05-02T13:44:55.000Z</time>
      </trkpt>
      <trkpt lat="44.83993" lon="0.79118">
        <ele>136.3</ele>
        <time>2026-05-02T13:44:56.000Z</time>
      </trkpt>
      <trkpt lat="44.83994" lon="0.79118">
        <ele>135.9</ele>
        <time>2026-05-02T13:44:57.000Z</time>
      </trkpt>
      <trkpt lat="44.83996" lon="0.79117">
        <ele>135.6</ele>
        <time>2026-05-02T13:44:58.000Z</time>
      </trkpt>
      <trkpt lat="44.83997" lon="0.79117">
        <ele>135.5</ele>
        <time>2026-05-02T13:44:59.000Z</time>
      </trkpt>
      <trkpt lat="44.83998" lon="0.79116">
        <ele>135.4</ele>
        <time>2026-05-02T13:45:00.000Z</time>
      </trkpt>
      <trkpt lat="44.83999" lon="0.79116">
        <ele>135.8</ele>
        <time>2026-05-02T13:45:01.000Z</time>
      </trkpt>
      <trkpt lat="44.84" lon="0.79115">
        <ele>136.7</ele>
        <time>2026-05-02T13:45:02.000Z</time>
      </trkpt>
      <trkpt lat="44.84001" lon="0.79114">
        <ele>137.8</ele>
        <time>2026-05-02T13:45:03.000Z</time>
      </trkpt>
      <trkpt lat="44.84003" lon="0.79114">
        <ele>137.9</ele>
        <time>2026-05-02T13:45:04.000Z</time>
      </trkpt>
      <trkpt lat="44.84004" lon="0.79113">
        <ele>137.9</ele>
        <time>2026-05-02T13:45:05.000Z</time>
      </trkpt>
      <trkpt lat="44.84006" lon="0.79113">
        <ele>136.8</ele>
        <time>2026-05-02T13:45:06.000Z</time>
      </trkpt>
      <trkpt lat="44.84007" lon="0.79113">
        <ele>136.9</ele>
        <time>2026-05-02T13:45:07.000Z</time>
      </trkpt>
      <trkpt lat="44.84009" lon="0.79112">
        <ele>135.9</ele>
        <time>2026-05-02T13:45:08.000Z</time>
      </trkpt>
      <trkpt lat="44.84011" lon="0.79112">
        <ele>135.7</ele>
        <time>2026-05-02T13:45:09.000Z</time>
      </trkpt>
      <trkpt lat="44.84012" lon="0.79111">
        <ele>135</ele>
        <time>2026-05-02T13:45:10.000Z</time>
      </trkpt>
      <trkpt lat="44.84014" lon="0.79111">
        <ele>135</ele>
        <time>2026-05-02T13:45:11.000Z</time>
      </trkpt>
      <trkpt lat="44.84016" lon="0.79111">
        <ele>134.7</ele>
        <time>2026-05-02T13:45:12.000Z</time>
      </trkpt>
      <trkpt lat="44.84018" lon="0.7911">
        <ele>134.9</ele>
        <time>2026-05-02T13:45:13.000Z</time>
      </trkpt>
      <trkpt lat="44.8402" lon="0.7911">
        <ele>134.4</ele>
        <time>2026-05-02T13:45:14.000Z</time>
      </trkpt>
      <trkpt lat="44.84021" lon="0.7911">
        <ele>133.9</ele>
        <time>2026-05-02T13:45:15.000Z</time>
      </trkpt>
      <trkpt lat="44.84023" lon="0.7911">
        <ele>134.3</ele>
        <time>2026-05-02T13:45:16.000Z</time>
      </trkpt>
      <trkpt lat="44.84025" lon="0.7911">
        <ele>134.2</ele>
        <time>2026-05-02T13:45:17.000Z</time>
      </trkpt>
      <trkpt lat="44.84027" lon="0.7911">
        <ele>133.6</ele>
        <time>2026-05-02T13:45:18.000Z</time>
      </trkpt>
      <trkpt lat="44.84029" lon="0.7911">
        <ele>133.6</ele>
        <time>2026-05-02T13:45:19.000Z</time>
      </trkpt>
      <trkpt lat="44.8403" lon="0.79109">
        <ele>133.3</ele>
        <time>2026-05-02T13:45:20.000Z</time>
      </trkpt>
      <trkpt lat="44.84032" lon="0.79109">
        <ele>133</ele>
        <time>2026-05-02T13:45:21.000Z</time>
      </trkpt>
      <trkpt lat="44.84034" lon="0.79109">
        <ele>133.1</ele>
        <time>2026-05-02T13:45:22.000Z</time>
      </trkpt>
      <trkpt lat="44.84036" lon="0.79109">
        <ele>132.9</ele>
        <time>2026-05-02T13:45:23.000Z</time>
      </trkpt>
      <trkpt lat="44.84037" lon="0.79109">
        <ele>132.7</ele>
        <time>2026-05-02T13:45:24.000Z</time>
      </trkpt>
      <trkpt lat="44.84039" lon="0.79108">
        <ele>132.3</ele>
        <time>2026-05-02T13:45:25.000Z</time>
      </trkpt>
      <trkpt lat="44.84041" lon="0.79108">
        <ele>132.1</ele>
        <time>2026-05-02T13:45:26.000Z</time>
      </trkpt>
      <trkpt lat="44.84043" lon="0.79108">
        <ele>131.8</ele>
        <time>2026-05-02T13:45:27.000Z</time>
      </trkpt>
      <trkpt lat="44.84045" lon="0.79109">
        <ele>131.5</ele>
        <time>2026-05-02T13:45:28.000Z</time>
      </trkpt>
      <trkpt lat="44.84047" lon="0.79109">
        <ele>131.2</ele>
        <time>2026-05-02T13:45:29.000Z</time>
      </trkpt>
      <trkpt lat="44.84049" lon="0.79109">
        <ele>131</ele>
        <time>2026-05-02T13:45:30.000Z</time>
      </trkpt>
      <trkpt lat="44.84051" lon="0.7911">
        <ele>130.9</ele>
        <time>2026-05-02T13:45:31.000Z</time>
      </trkpt>
      <trkpt lat="44.84052" lon="0.7911">
        <ele>130.6</ele>
        <time>2026-05-02T13:45:32.000Z</time>
      </trkpt>
      <trkpt lat="44.84054" lon="0.79111">
        <ele>130.6</ele>
        <time>2026-05-02T13:45:33.000Z</time>
      </trkpt>
      <trkpt lat="44.84056" lon="0.79111">
        <ele>130.4</ele>
        <time>2026-05-02T13:45:34.000Z</time>
      </trkpt>
      <trkpt lat="44.84058" lon="0.79112">
        <ele>129.9</ele>
        <time>2026-05-02T13:45:35.000Z</time>
      </trkpt>
      <trkpt lat="44.8406" lon="0.79112">
        <ele>129.7</ele>
        <time>2026-05-02T13:45:36.000Z</time>
      </trkpt>
      <trkpt lat="44.84061" lon="0.79113">
        <ele>129.4</ele>
        <time>2026-05-02T13:45:37.000Z</time>
      </trkpt>
      <trkpt lat="44.84063" lon="0.79113">
        <ele>129.4</ele>
        <time>2026-05-02T13:45:38.000Z</time>
      </trkpt>
      <trkpt lat="44.84065" lon="0.79114">
        <ele>129.5</ele>
        <time>2026-05-02T13:45:39.000Z</time>
      </trkpt>
      <trkpt lat="44.84067" lon="0.79114">
        <ele>129.8</ele>
        <time>2026-05-02T13:45:40.000Z</time>
      </trkpt>
      <trkpt lat="44.84069" lon="0.79115">
        <ele>129.8</ele>
        <time>2026-05-02T13:45:41.000Z</time>
      </trkpt>
      <trkpt lat="44.8407" lon="0.79116">
        <ele>129.4</ele>
        <time>2026-05-02T13:45:42.000Z</time>
      </trkpt>
      <trkpt lat="44.84072" lon="0.79117">
        <ele>129.3</ele>
        <time>2026-05-02T13:45:43.000Z</time>
      </trkpt>
      <trkpt lat="44.84074" lon="0.79117">
        <ele>129.5</ele>
        <time>2026-05-02T13:45:44.000Z</time>
      </trkpt>
      <trkpt lat="44.84076" lon="0.79118">
        <ele>129.1</ele>
        <time>2026-05-02T13:45:45.000Z</time>
      </trkpt>
      <trkpt lat="44.84077" lon="0.79119">
        <ele>129</ele>
        <time>2026-05-02T13:45:46.000Z</time>
      </trkpt>
      <trkpt lat="44.84079" lon="0.7912">
        <ele>128.9</ele>
        <time>2026-05-02T13:45:47.000Z</time>
      </trkpt>
      <trkpt lat="44.84081" lon="0.79121">
        <ele>128.6</ele>
        <time>2026-05-02T13:45:48.000Z</time>
      </trkpt>
      <trkpt lat="44.84083" lon="0.79122">
        <ele>128.8</ele>
        <time>2026-05-02T13:45:49.000Z</time>
      </trkpt>
      <trkpt lat="44.84084" lon="0.79123">
        <ele>128.7</ele>
        <time>2026-05-02T13:45:50.000Z</time>
      </trkpt>
      <trkpt lat="44.84086" lon="0.79124">
        <ele>128.5</ele>
        <time>2026-05-02T13:45:51.000Z</time>
      </trkpt>
      <trkpt lat="44.84087" lon="0.79125">
        <ele>128.2</ele>
        <time>2026-05-02T13:45:52.000Z</time>
      </trkpt>
      <trkpt lat="44.84089" lon="0.79126">
        <ele>128.1</ele>
        <time>2026-05-02T13:45:53.000Z</time>
      </trkpt>
      <trkpt lat="44.84091" lon="0.79127">
        <ele>128.1</ele>
        <time>2026-05-02T13:45:54.000Z</time>
      </trkpt>
      <trkpt lat="44.84092" lon="0.79127">
        <ele>128.1</ele>
        <time>2026-05-02T13:45:55.000Z</time>
      </trkpt>
      <trkpt lat="44.84094" lon="0.79129">
        <ele>127.7</ele>
        <time>2026-05-02T13:45:56.000Z</time>
      </trkpt>
      <trkpt lat="44.84096" lon="0.7913">
        <ele>127.4</ele>
        <time>2026-05-02T13:45:57.000Z</time>
      </trkpt>
      <trkpt lat="44.84097" lon="0.79131">
        <ele>127.1</ele>
        <time>2026-05-02T13:45:58.000Z</time>
      </trkpt>
      <trkpt lat="44.84099" lon="0.79132">
        <ele>127.2</ele>
        <time>2026-05-02T13:45:59.000Z</time>
      </trkpt>
      <trkpt lat="44.841" lon="0.79132">
        <ele>127</ele>
        <time>2026-05-02T13:46:00.000Z</time>
      </trkpt>
      <trkpt lat="44.84102" lon="0.79133">
        <ele>126.7</ele>
        <time>2026-05-02T13:46:01.000Z</time>
      </trkpt>
      <trkpt lat="44.84104" lon="0.79134">
        <ele>126.5</ele>
        <time>2026-05-02T13:46:02.000Z</time>
      </trkpt>
      <trkpt lat="44.84105" lon="0.79134">
        <ele>126.2</ele>
        <time>2026-05-02T13:46:03.000Z</time>
      </trkpt>
      <trkpt lat="44.84107" lon="0.79135">
        <ele>125.8</ele>
        <time>2026-05-02T13:46:04.000Z</time>
      </trkpt>
      <trkpt lat="44.84108" lon="0.79135">
        <ele>125.2</ele>
        <time>2026-05-02T13:46:05.000Z</time>
      </trkpt>
      <trkpt lat="44.84109" lon="0.79135">
        <ele>125.5</ele>
        <time>2026-05-02T13:46:06.000Z</time>
      </trkpt>
      <trkpt lat="44.8411" lon="0.79135">
        <ele>124</ele>
        <time>2026-05-02T13:46:07.000Z</time>
      </trkpt>
      <trkpt lat="44.84111" lon="0.79135">
        <ele>122.8</ele>
        <time>2026-05-02T13:46:08.000Z</time>
      </trkpt>
      <trkpt lat="44.84111" lon="0.79135">
        <ele>122.8</ele>
        <time>2026-05-02T13:46:09.000Z</time>
      </trkpt>
      <trkpt lat="44.84112" lon="0.79135">
        <ele>122</ele>
        <time>2026-05-02T13:46:10.000Z</time>
      </trkpt>
      <trkpt lat="44.84113" lon="0.79135">
        <ele>121.9</ele>
        <time>2026-05-02T13:46:11.000Z</time>
      </trkpt>
      <trkpt lat="44.84113" lon="0.79135">
        <ele>121.9</ele>
        <time>2026-05-02T13:46:12.000Z</time>
      </trkpt>
      <trkpt lat="44.84113" lon="0.79135">
        <ele>121.2</ele>
        <time>2026-05-02T13:46:13.000Z</time>
      </trkpt>
      <trkpt lat="44.84113" lon="0.79136">
        <ele>120.7</ele>
        <time>2026-05-02T13:46:14.000Z</time>
      </trkpt>
      <trkpt lat="44.84115" lon="0.79136">
        <ele>120.7</ele>
        <time>2026-05-02T13:46:15.000Z</time>
      </trkpt>
      <trkpt lat="44.84116" lon="0.79138">
        <ele>119.2</ele>
        <time>2026-05-02T13:46:16.000Z</time>
      </trkpt>
      <trkpt lat="44.84118" lon="0.79139">
        <ele>119.1</ele>
        <time>2026-05-02T13:46:17.000Z</time>
      </trkpt>
      <trkpt lat="44.84119" lon="0.7914">
        <ele>119.6</ele>
        <time>2026-05-02T13:46:18.000Z</time>
      </trkpt>
      <trkpt lat="44.84121" lon="0.7914">
        <ele>119.6</ele>
        <time>2026-05-02T13:46:19.000Z</time>
      </trkpt>
      <trkpt lat="44.84122" lon="0.79141">
        <ele>119.9</ele>
        <time>2026-05-02T13:46:20.000Z</time>
      </trkpt>
      <trkpt lat="44.84123" lon="0.79142">
        <ele>120</ele>
        <time>2026-05-02T13:46:21.000Z</time>
      </trkpt>
      <trkpt lat="44.84125" lon="0.79143">
        <ele>120.6</ele>
        <time>2026-05-02T13:46:22.000Z</time>
      </trkpt>
      <trkpt lat="44.84126" lon="0.79143">
        <ele>120.6</ele>
        <time>2026-05-02T13:46:23.000Z</time>
      </trkpt>
      <trkpt lat="44.84128" lon="0.79143">
        <ele>120.5</ele>
        <time>2026-05-02T13:46:24.000Z</time>
      </trkpt>
      <trkpt lat="44.8413" lon="0.79144">
        <ele>120.7</ele>
        <time>2026-05-02T13:46:25.000Z</time>
      </trkpt>
      <trkpt lat="44.84131" lon="0.79145">
        <ele>120.4</ele>
        <time>2026-05-02T13:46:26.000Z</time>
      </trkpt>
      <trkpt lat="44.84132" lon="0.79145">
        <ele>119.8</ele>
        <time>2026-05-02T13:46:27.000Z</time>
      </trkpt>
      <trkpt lat="44.84134" lon="0.79145">
        <ele>119.6</ele>
        <time>2026-05-02T13:46:28.000Z</time>
      </trkpt>
      <trkpt lat="44.84135" lon="0.79145">
        <ele>119.7</ele>
        <time>2026-05-02T13:46:29.000Z</time>
      </trkpt>
      <trkpt lat="44.84137" lon="0.79145">
        <ele>119.9</ele>
        <time>2026-05-02T13:46:30.000Z</time>
      </trkpt>
      <trkpt lat="44.84138" lon="0.79145">
        <ele>120.5</ele>
        <time>2026-05-02T13:46:31.000Z</time>
      </trkpt>
      <trkpt lat="44.8414" lon="0.79145">
        <ele>120.9</ele>
        <time>2026-05-02T13:46:32.000Z</time>
      </trkpt>
      <trkpt lat="44.84142" lon="0.79145">
        <ele>120.9</ele>
        <time>2026-05-02T13:46:33.000Z</time>
      </trkpt>
      <trkpt lat="44.84144" lon="0.79146">
        <ele>121</ele>
        <time>2026-05-02T13:46:34.000Z</time>
      </trkpt>
      <trkpt lat="44.84145" lon="0.79147">
        <ele>120.7</ele>
        <time>2026-05-02T13:46:35.000Z</time>
      </trkpt>
      <trkpt lat="44.84147" lon="0.79147">
        <ele>120.5</ele>
        <time>2026-05-02T13:46:36.000Z</time>
      </trkpt>
      <trkpt lat="44.84148" lon="0.79148">
        <ele>120.4</ele>
        <time>2026-05-02T13:46:37.000Z</time>
      </trkpt>
      <trkpt lat="44.8415" lon="0.79149">
        <ele>120.1</ele>
        <time>2026-05-02T13:46:38.000Z</time>
      </trkpt>
      <trkpt lat="44.84152" lon="0.7915">
        <ele>119.6</ele>
        <time>2026-05-02T13:46:39.000Z</time>
      </trkpt>
      <trkpt lat="44.84153" lon="0.7915">
        <ele>119.6</ele>
        <time>2026-05-02T13:46:40.000Z</time>
      </trkpt>
      <trkpt lat="44.84155" lon="0.79151">
        <ele>119.6</ele>
        <time>2026-05-02T13:46:41.000Z</time>
      </trkpt>
      <trkpt lat="44.84156" lon="0.79153">
        <ele>119.1</ele>
        <time>2026-05-02T13:46:42.000Z</time>
      </trkpt>
      <trkpt lat="44.84158" lon="0.79154">
        <ele>119.2</ele>
        <time>2026-05-02T13:46:43.000Z</time>
      </trkpt>
      <trkpt lat="44.84159" lon="0.79155">
        <ele>119.1</ele>
        <time>2026-05-02T13:46:44.000Z</time>
      </trkpt>
      <trkpt lat="44.84161" lon="0.79157">
        <ele>119.3</ele>
        <time>2026-05-02T13:46:45.000Z</time>
      </trkpt>
      <trkpt lat="44.84162" lon="0.79158">
        <ele>118.9</ele>
        <time>2026-05-02T13:46:46.000Z</time>
      </trkpt>
      <trkpt lat="44.84164" lon="0.7916">
        <ele>118.6</ele>
        <time>2026-05-02T13:46:47.000Z</time>
      </trkpt>
      <trkpt lat="44.84165" lon="0.79161">
        <ele>118.3</ele>
        <time>2026-05-02T13:46:48.000Z</time>
      </trkpt>
      <trkpt lat="44.84166" lon="0.79163">
        <ele>118.2</ele>
        <time>2026-05-02T13:46:49.000Z</time>
      </trkpt>
      <trkpt lat="44.84167" lon="0.79165">
        <ele>118.2</ele>
        <time>2026-05-02T13:46:50.000Z</time>
      </trkpt>
      <trkpt lat="44.84168" lon="0.79166">
        <ele>118.1</ele>
        <time>2026-05-02T13:46:51.000Z</time>
      </trkpt>
      <trkpt lat="44.84169" lon="0.79168">
        <ele>118</ele>
        <time>2026-05-02T13:46:52.000Z</time>
      </trkpt>
      <trkpt lat="44.84171" lon="0.7917">
        <ele>117.6</ele>
        <time>2026-05-02T13:46:53.000Z</time>
      </trkpt>
      <trkpt lat="44.84172" lon="0.79172">
        <ele>117.9</ele>
        <time>2026-05-02T13:46:54.000Z</time>
      </trkpt>
      <trkpt lat="44.84173" lon="0.79174">
        <ele>117.8</ele>
        <time>2026-05-02T13:46:55.000Z</time>
      </trkpt>
      <trkpt lat="44.84174" lon="0.79176">
        <ele>117.5</ele>
        <time>2026-05-02T13:46:56.000Z</time>
      </trkpt>
      <trkpt lat="44.84175" lon="0.79178">
        <ele>117.2</ele>
        <time>2026-05-02T13:46:57.000Z</time>
      </trkpt>
      <trkpt lat="44.84176" lon="0.79181">
        <ele>117.1</ele>
        <time>2026-05-02T13:46:58.000Z</time>
      </trkpt>
      <trkpt lat="44.84177" lon="0.79183">
        <ele>116.5</ele>
        <time>2026-05-02T13:46:59.000Z</time>
      </trkpt>
      <trkpt lat="44.84178" lon="0.79184">
        <ele>116.4</ele>
        <time>2026-05-02T13:47:00.000Z</time>
      </trkpt>
      <trkpt lat="44.84179" lon="0.79186">
        <ele>116.1</ele>
        <time>2026-05-02T13:47:01.000Z</time>
      </trkpt>
      <trkpt lat="44.84181" lon="0.79188">
        <ele>116.1</ele>
        <time>2026-05-02T13:47:02.000Z</time>
      </trkpt>
      <trkpt lat="44.84182" lon="0.7919">
        <ele>116.3</ele>
        <time>2026-05-02T13:47:03.000Z</time>
      </trkpt>
      <trkpt lat="44.84183" lon="0.79192">
        <ele>116.1</ele>
        <time>2026-05-02T13:47:04.000Z</time>
      </trkpt>
      <trkpt lat="44.84184" lon="0.79194">
        <ele>115.8</ele>
        <time>2026-05-02T13:47:05.000Z</time>
      </trkpt>
      <trkpt lat="44.84185" lon="0.79196">
        <ele>115.7</ele>
        <time>2026-05-02T13:47:06.000Z</time>
      </trkpt>
      <trkpt lat="44.84186" lon="0.79198">
        <ele>115.3</ele>
        <time>2026-05-02T13:47:07.000Z</time>
      </trkpt>
      <trkpt lat="44.84187" lon="0.792">
        <ele>115.3</ele>
        <time>2026-05-02T13:47:08.000Z</time>
      </trkpt>
      <trkpt lat="44.84188" lon="0.79202">
        <ele>115.1</ele>
        <time>2026-05-02T13:47:09.000Z</time>
      </trkpt>
      <trkpt lat="44.8419" lon="0.79205">
        <ele>114.9</ele>
        <time>2026-05-02T13:47:10.000Z</time>
      </trkpt>
      <trkpt lat="44.8419" lon="0.79207">
        <ele>114.8</ele>
        <time>2026-05-02T13:47:11.000Z</time>
      </trkpt>
      <trkpt lat="44.84191" lon="0.79209">
        <ele>114.6</ele>
        <time>2026-05-02T13:47:12.000Z</time>
      </trkpt>
      <trkpt lat="44.84192" lon="0.79211">
        <ele>114.4</ele>
        <time>2026-05-02T13:47:13.000Z</time>
      </trkpt>
      <trkpt lat="44.84193" lon="0.79213">
        <ele>114.2</ele>
        <time>2026-05-02T13:47:14.000Z</time>
      </trkpt>
      <trkpt lat="44.84194" lon="0.79215">
        <ele>114.2</ele>
        <time>2026-05-02T13:47:15.000Z</time>
      </trkpt>
      <trkpt lat="44.84195" lon="0.79217">
        <ele>113.9</ele>
        <time>2026-05-02T13:47:16.000Z</time>
      </trkpt>
      <trkpt lat="44.84196" lon="0.7922">
        <ele>113.9</ele>
        <time>2026-05-02T13:47:17.000Z</time>
      </trkpt>
      <trkpt lat="44.84197" lon="0.79222">
        <ele>113.6</ele>
        <time>2026-05-02T13:47:18.000Z</time>
      </trkpt>
      <trkpt lat="44.84197" lon="0.79223">
        <ele>113.5</ele>
        <time>2026-05-02T13:47:19.000Z</time>
      </trkpt>
      <trkpt lat="44.84198" lon="0.79225">
        <ele>113.2</ele>
        <time>2026-05-02T13:47:20.000Z</time>
      </trkpt>
      <trkpt lat="44.84199" lon="0.79227">
        <ele>113.1</ele>
        <time>2026-05-02T13:47:21.000Z</time>
      </trkpt>
      <trkpt lat="44.842" lon="0.79229">
        <ele>112.9</ele>
        <time>2026-05-02T13:47:22.000Z</time>
      </trkpt>
      <trkpt lat="44.84202" lon="0.79231">
        <ele>113.3</ele>
        <time>2026-05-02T13:47:23.000Z</time>
      </trkpt>
      <trkpt lat="44.84203" lon="0.79233">
        <ele>113.4</ele>
        <time>2026-05-02T13:47:24.000Z</time>
      </trkpt>
      <trkpt lat="44.84204" lon="0.79235">
        <ele>113.2</ele>
        <time>2026-05-02T13:47:25.000Z</time>
      </trkpt>
      <trkpt lat="44.84205" lon="0.79237">
        <ele>112.8</ele>
        <time>2026-05-02T13:47:26.000Z</time>
      </trkpt>
      <trkpt lat="44.84206" lon="0.79239">
        <ele>113</ele>
        <time>2026-05-02T13:47:27.000Z</time>
      </trkpt>
      <trkpt lat="44.84206" lon="0.79241">
        <ele>112.5</ele>
        <time>2026-05-02T13:47:28.000Z</time>
      </trkpt>
      <trkpt lat="44.84207" lon="0.79243">
        <ele>112.8</ele>
        <time>2026-05-02T13:47:29.000Z</time>
      </trkpt>
      <trkpt lat="44.84208" lon="0.79245">
        <ele>112.3</ele>
        <time>2026-05-02T13:47:30.000Z</time>
      </trkpt>
      <trkpt lat="44.84208" lon="0.79247">
        <ele>111.9</ele>
        <time>2026-05-02T13:47:31.000Z</time>
      </trkpt>
      <trkpt lat="44.84209" lon="0.79249">
        <ele>111.6</ele>
        <time>2026-05-02T13:47:32.000Z</time>
      </trkpt>
      <trkpt lat="44.8421" lon="0.79251">
        <ele>111.3</ele>
        <time>2026-05-02T13:47:33.000Z</time>
      </trkpt>
      <trkpt lat="44.84211" lon="0.79254">
        <ele>111.5</ele>
        <time>2026-05-02T13:47:34.000Z</time>
      </trkpt>
      <trkpt lat="44.84212" lon="0.79256">
        <ele>111.1</ele>
        <time>2026-05-02T13:47:35.000Z</time>
      </trkpt>
      <trkpt lat="44.84213" lon="0.79258">
        <ele>111</ele>
        <time>2026-05-02T13:47:36.000Z</time>
      </trkpt>
      <trkpt lat="44.84214" lon="0.7926">
        <ele>111.2</ele>
        <time>2026-05-02T13:47:37.000Z</time>
      </trkpt>
      <trkpt lat="44.84215" lon="0.79262">
        <ele>110.7</ele>
        <time>2026-05-02T13:47:38.000Z</time>
      </trkpt>
      <trkpt lat="44.84216" lon="0.79264">
        <ele>110.9</ele>
        <time>2026-05-02T13:47:39.000Z</time>
      </trkpt>
      <trkpt lat="44.84217" lon="0.79266">
        <ele>110.4</ele>
        <time>2026-05-02T13:47:40.000Z</time>
      </trkpt>
      <trkpt lat="44.84218" lon="0.79268">
        <ele>110.2</ele>
        <time>2026-05-02T13:47:41.000Z</time>
      </trkpt>
      <trkpt lat="44.84219" lon="0.7927">
        <ele>109.8</ele>
        <time>2026-05-02T13:47:42.000Z</time>
      </trkpt>
      <trkpt lat="44.8422" lon="0.79272">
        <ele>109.5</ele>
        <time>2026-05-02T13:47:43.000Z</time>
      </trkpt>
      <trkpt lat="44.84221" lon="0.79273">
        <ele>109.2</ele>
        <time>2026-05-02T13:47:44.000Z</time>
      </trkpt>
      <trkpt lat="44.84223" lon="0.79275">
        <ele>108.9</ele>
        <time>2026-05-02T13:47:45.000Z</time>
      </trkpt>
      <trkpt lat="44.84224" lon="0.79276">
        <ele>108.6</ele>
        <time>2026-05-02T13:47:46.000Z</time>
      </trkpt>
      <trkpt lat="44.84225" lon="0.79278">
        <ele>108.4</ele>
        <time>2026-05-02T13:47:47.000Z</time>
      </trkpt>
      <trkpt lat="44.84227" lon="0.79279">
        <ele>107.9</ele>
        <time>2026-05-02T13:47:48.000Z</time>
      </trkpt>
      <trkpt lat="44.84228" lon="0.7928">
        <ele>107.8</ele>
        <time>2026-05-02T13:47:49.000Z</time>
      </trkpt>
      <trkpt lat="44.8423" lon="0.79281">
        <ele>107.3</ele>
        <time>2026-05-02T13:47:50.000Z</time>
      </trkpt>
      <trkpt lat="44.84232" lon="0.79281">
        <ele>107.3</ele>
        <time>2026-05-02T13:47:51.000Z</time>
      </trkpt>
      <trkpt lat="44.84233" lon="0.79281">
        <ele>107</ele>
        <time>2026-05-02T13:47:52.000Z</time>
      </trkpt>
      <trkpt lat="44.84235" lon="0.79281">
        <ele>106.7</ele>
        <time>2026-05-02T13:47:53.000Z</time>
      </trkpt>
      <trkpt lat="44.84237" lon="0.79281">
        <ele>106.3</ele>
        <time>2026-05-02T13:47:54.000Z</time>
      </trkpt>
      <trkpt lat="44.84239" lon="0.7928">
        <ele>106.2</ele>
        <time>2026-05-02T13:47:55.000Z</time>
      </trkpt>
      <trkpt lat="44.8424" lon="0.79279">
        <ele>106.2</ele>
        <time>2026-05-02T13:47:56.000Z</time>
      </trkpt>
      <trkpt lat="44.84242" lon="0.79279">
        <ele>106</ele>
        <time>2026-05-02T13:47:57.000Z</time>
      </trkpt>
      <trkpt lat="44.84244" lon="0.79278">
        <ele>106.1</ele>
        <time>2026-05-02T13:47:58.000Z</time>
      </trkpt>
      <trkpt lat="44.84246" lon="0.79277">
        <ele>105.8</ele>
        <time>2026-05-02T13:47:59.000Z</time>
      </trkpt>
      <trkpt lat="44.84247" lon="0.79276">
        <ele>105.7</ele>
        <time>2026-05-02T13:48:00.000Z</time>
      </trkpt>
      <trkpt lat="44.84249" lon="0.79275">
        <ele>105.6</ele>
        <time>2026-05-02T13:48:01.000Z</time>
      </trkpt>
      <trkpt lat="44.8425" lon="0.79273">
        <ele>105.6</ele>
        <time>2026-05-02T13:48:02.000Z</time>
      </trkpt>
      <trkpt lat="44.84251" lon="0.79272">
        <ele>105.4</ele>
        <time>2026-05-02T13:48:03.000Z</time>
      </trkpt>
      <trkpt lat="44.84252" lon="0.7927">
        <ele>105.3</ele>
        <time>2026-05-02T13:48:04.000Z</time>
      </trkpt>
      <trkpt lat="44.84253" lon="0.79268">
        <ele>105.5</ele>
        <time>2026-05-02T13:48:05.000Z</time>
      </trkpt>
      <trkpt lat="44.84254" lon="0.79266">
        <ele>105.4</ele>
        <time>2026-05-02T13:48:06.000Z</time>
      </trkpt>
      <trkpt lat="44.84254" lon="0.79264">
        <ele>105.1</ele>
        <time>2026-05-02T13:48:07.000Z</time>
      </trkpt>
      <trkpt lat="44.84255" lon="0.79262">
        <ele>104.9</ele>
        <time>2026-05-02T13:48:08.000Z</time>
      </trkpt>
      <trkpt lat="44.84256" lon="0.7926">
        <ele>104.8</ele>
        <time>2026-05-02T13:48:09.000Z</time>
      </trkpt>
      <trkpt lat="44.84257" lon="0.79258">
        <ele>104.8</ele>
        <time>2026-05-02T13:48:10.000Z</time>
      </trkpt>
      <trkpt lat="44.84258" lon="0.79256">
        <ele>104.9</ele>
        <time>2026-05-02T13:48:11.000Z</time>
      </trkpt>
      <trkpt lat="44.8426" lon="0.79254">
        <ele>104.8</ele>
        <time>2026-05-02T13:48:12.000Z</time>
      </trkpt>
      <trkpt lat="44.84261" lon="0.79252">
        <ele>104.6</ele>
        <time>2026-05-02T13:48:13.000Z</time>
      </trkpt>
      <trkpt lat="44.84262" lon="0.7925">
        <ele>104.5</ele>
        <time>2026-05-02T13:48:14.000Z</time>
      </trkpt>
      <trkpt lat="44.84264" lon="0.79249">
        <ele>104.2</ele>
        <time>2026-05-02T13:48:15.000Z</time>
      </trkpt>
      <trkpt lat="44.84265" lon="0.79248">
        <ele>104</ele>
        <time>2026-05-02T13:48:16.000Z</time>
      </trkpt>
      <trkpt lat="44.84267" lon="0.79247">
        <ele>103.8</ele>
        <time>2026-05-02T13:48:17.000Z</time>
      </trkpt>
      <trkpt lat="44.84269" lon="0.79246">
        <ele>103.8</ele>
        <time>2026-05-02T13:48:18.000Z</time>
      </trkpt>
      <trkpt lat="44.84271" lon="0.79246">
        <ele>103.6</ele>
        <time>2026-05-02T13:48:19.000Z</time>
      </trkpt>
      <trkpt lat="44.84272" lon="0.79245">
        <ele>103.5</ele>
        <time>2026-05-02T13:48:20.000Z</time>
      </trkpt>
      <trkpt lat="44.84274" lon="0.79245">
        <ele>103.3</ele>
        <time>2026-05-02T13:48:21.000Z</time>
      </trkpt>
      <trkpt lat="44.84276" lon="0.79244">
        <ele>103.1</ele>
        <time>2026-05-02T13:48:22.000Z</time>
      </trkpt>
      <trkpt lat="44.84278" lon="0.79244">
        <ele>103</ele>
        <time>2026-05-02T13:48:23.000Z</time>
      </trkpt>
      <trkpt lat="44.8428" lon="0.79243">
        <ele>102.9</ele>
        <time>2026-05-02T13:48:24.000Z</time>
      </trkpt>
      <trkpt lat="44.84282" lon="0.79242">
        <ele>102.8</ele>
        <time>2026-05-02T13:48:25.000Z</time>
      </trkpt>
      <trkpt lat="44.84283" lon="0.79242">
        <ele>103.2</ele>
        <time>2026-05-02T13:48:26.000Z</time>
      </trkpt>
      <trkpt lat="44.84285" lon="0.79242">
        <ele>102.8</ele>
        <time>2026-05-02T13:48:27.000Z</time>
      </trkpt>
      <trkpt lat="44.84287" lon="0.79242">
        <ele>102.3</ele>
        <time>2026-05-02T13:48:28.000Z</time>
      </trkpt>
      <trkpt lat="44.84289" lon="0.79242">
        <ele>102.5</ele>
        <time>2026-05-02T13:48:29.000Z</time>
      </trkpt>
      <trkpt lat="44.84291" lon="0.79241">
        <ele>102.3</ele>
        <time>2026-05-02T13:48:30.000Z</time>
      </trkpt>
      <trkpt lat="44.84293" lon="0.79241">
        <ele>102.3</ele>
        <time>2026-05-02T13:48:31.000Z</time>
      </trkpt>
      <trkpt lat="44.84295" lon="0.7924">
        <ele>101.9</ele>
        <time>2026-05-02T13:48:32.000Z</time>
      </trkpt>
      <trkpt lat="44.84297" lon="0.7924">
        <ele>101.6</ele>
        <time>2026-05-02T13:48:33.000Z</time>
      </trkpt>
      <trkpt lat="44.84299" lon="0.7924">
        <ele>101.1</ele>
        <time>2026-05-02T13:48:34.000Z</time>
      </trkpt>
      <trkpt lat="44.843" lon="0.7924">
        <ele>100.9</ele>
        <time>2026-05-02T13:48:35.000Z</time>
      </trkpt>
      <trkpt lat="44.84302" lon="0.7924">
        <ele>100.6</ele>
        <time>2026-05-02T13:48:36.000Z</time>
      </trkpt>
      <trkpt lat="44.84304" lon="0.7924">
        <ele>100.5</ele>
        <time>2026-05-02T13:48:37.000Z</time>
      </trkpt>
      <trkpt lat="44.84306" lon="0.79239">
        <ele>100.6</ele>
        <time>2026-05-02T13:48:38.000Z</time>
      </trkpt>
      <trkpt lat="44.84307" lon="0.79239">
        <ele>100.6</ele>
        <time>2026-05-02T13:48:39.000Z</time>
      </trkpt>
      <trkpt lat="44.84309" lon="0.79238">
        <ele>100.3</ele>
        <time>2026-05-02T13:48:40.000Z</time>
      </trkpt>
      <trkpt lat="44.84311" lon="0.79238">
        <ele>100.4</ele>
        <time>2026-05-02T13:48:41.000Z</time>
      </trkpt>
      <trkpt lat="44.84312" lon="0.79238">
        <ele>100.4</ele>
        <time>2026-05-02T13:48:42.000Z</time>
      </trkpt>
      <trkpt lat="44.84312" lon="0.79238">
        <ele>100.1</ele>
        <time>2026-05-02T13:48:43.000Z</time>
      </trkpt>
      <trkpt lat="44.84312" lon="0.79238">
        <ele>100.1</ele>
        <time>2026-05-02T13:48:44.000Z</time>
      </trkpt>
      <trkpt lat="44.84312" lon="0.79238">
        <ele>100.1</ele>
        <time>2026-05-02T13:48:45.000Z</time>
      </trkpt>
      <trkpt lat="44.84313" lon="0.79238">
        <ele>100</ele>
        <time>2026-05-02T13:48:46.000Z</time>
      </trkpt>
      <trkpt lat="44.84314" lon="0.79239">
        <ele>99.4</ele>
        <time>2026-05-02T13:48:47.000Z</time>
      </trkpt>
      <trkpt lat="44.84314" lon="0.7924">
        <ele>99.4</ele>
        <time>2026-05-02T13:48:48.000Z</time>
      </trkpt>
      <trkpt lat="44.84314" lon="0.7924">
        <ele>99.4</ele>
        <time>2026-05-02T13:48:49.000Z</time>
      </trkpt>
      <trkpt lat="44.84315" lon="0.7924">
        <ele>99.4</ele>
        <time>2026-05-02T13:48:50.000Z</time>
      </trkpt>
      <trkpt lat="44.84316" lon="0.79242">
        <ele>98.7</ele>
        <time>2026-05-02T13:48:51.000Z</time>
      </trkpt>
      <trkpt lat="44.84317" lon="0.79244">
        <ele>98.4</ele>
        <time>2026-05-02T13:48:52.000Z</time>
      </trkpt>
      <trkpt lat="44.84318" lon="0.79243">
        <ele>98.3</ele>
        <time>2026-05-02T13:48:53.000Z</time>
      </trkpt>
      <trkpt lat="44.84321" lon="0.79243">
        <ele>98.6</ele>
        <time>2026-05-02T13:48:54.000Z</time>
      </trkpt>
      <trkpt lat="44.84323" lon="0.79243">
        <ele>98.9</ele>
        <time>2026-05-02T13:48:55.000Z</time>
      </trkpt>
      <trkpt lat="44.84324" lon="0.79243">
        <ele>99</ele>
        <time>2026-05-02T13:48:56.000Z</time>
      </trkpt>
      <trkpt lat="44.84326" lon="0.79243">
        <ele>99.4</ele>
        <time>2026-05-02T13:48:57.000Z</time>
      </trkpt>
      <trkpt lat="44.84327" lon="0.79242">
        <ele>99.2</ele>
        <time>2026-05-02T13:48:58.000Z</time>
      </trkpt>
      <trkpt lat="44.84329" lon="0.79243">
        <ele>99.3</ele>
        <time>2026-05-02T13:48:59.000Z</time>
      </trkpt>
      <trkpt lat="44.8433" lon="0.79243">
        <ele>98.7</ele>
        <time>2026-05-02T13:49:00.000Z</time>
      </trkpt>
      <trkpt lat="44.84332" lon="0.79243">
        <ele>98.8</ele>
        <time>2026-05-02T13:49:01.000Z</time>
      </trkpt>
      <trkpt lat="44.84333" lon="0.79243">
        <ele>98.7</ele>
        <time>2026-05-02T13:49:02.000Z</time>
      </trkpt>
      <trkpt lat="44.84334" lon="0.79243">
        <ele>98.6</ele>
        <time>2026-05-02T13:49:03.000Z</time>
      </trkpt>
      <trkpt lat="44.84335" lon="0.79242">
        <ele>98.8</ele>
        <time>2026-05-02T13:49:04.000Z</time>
      </trkpt>
      <trkpt lat="44.84336" lon="0.79241">
        <ele>98.6</ele>
        <time>2026-05-02T13:49:05.000Z</time>
      </trkpt>
      <trkpt lat="44.84338" lon="0.7924">
        <ele>98.4</ele>
        <time>2026-05-02T13:49:06.000Z</time>
      </trkpt>
      <trkpt lat="44.84339" lon="0.79238">
        <ele>98</ele>
        <time>2026-05-02T13:49:07.000Z</time>
      </trkpt>
      <trkpt lat="44.8434" lon="0.79236">
        <ele>97.9</ele>
        <time>2026-05-02T13:49:08.000Z</time>
      </trkpt>
      <trkpt lat="44.8434" lon="0.79234">
        <ele>97.7</ele>
        <time>2026-05-02T13:49:09.000Z</time>
      </trkpt>
      <trkpt lat="44.8434" lon="0.79233">
        <ele>97.6</ele>
        <time>2026-05-02T13:49:10.000Z</time>
      </trkpt>
      <trkpt lat="44.8434" lon="0.79233">
        <ele>97.8</ele>
        <time>2026-05-02T13:49:11.000Z</time>
      </trkpt>
      <trkpt lat="44.8434" lon="0.79231">
        <ele>97.2</ele>
        <time>2026-05-02T13:49:12.000Z</time>
      </trkpt>
      <trkpt lat="44.84341" lon="0.79229">
        <ele>97.4</ele>
        <time>2026-05-02T13:49:13.000Z</time>
      </trkpt>
      <trkpt lat="44.84341" lon="0.79226">
        <ele>97</ele>
        <time>2026-05-02T13:49:14.000Z</time>
      </trkpt>
      <trkpt lat="44.84342" lon="0.79223">
        <ele>97</ele>
        <time>2026-05-02T13:49:15.000Z</time>
      </trkpt>
      <trkpt lat="44.84342" lon="0.79221">
        <ele>96.3</ele>
        <time>2026-05-02T13:49:16.000Z</time>
      </trkpt>
      <trkpt lat="44.84343" lon="0.79218">
        <ele>96.2</ele>
        <time>2026-05-02T13:49:17.000Z</time>
      </trkpt>
      <trkpt lat="44.84343" lon="0.79216">
        <ele>95.9</ele>
        <time>2026-05-02T13:49:18.000Z</time>
      </trkpt>
      <trkpt lat="44.84344" lon="0.79213">
        <ele>96.1</ele>
        <time>2026-05-02T13:49:19.000Z</time>
      </trkpt>
      <trkpt lat="44.84345" lon="0.79211">
        <ele>95.9</ele>
        <time>2026-05-02T13:49:20.000Z</time>
      </trkpt>
      <trkpt lat="44.84345" lon="0.79208">
        <ele>95.7</ele>
        <time>2026-05-02T13:49:21.000Z</time>
      </trkpt>
      <trkpt lat="44.84346" lon="0.79206">
        <ele>95.5</ele>
        <time>2026-05-02T13:49:22.000Z</time>
      </trkpt>
      <trkpt lat="44.84347" lon="0.79203">
        <ele>95.4</ele>
        <time>2026-05-02T13:49:23.000Z</time>
      </trkpt>
      <trkpt lat="44.84347" lon="0.79201">
        <ele>94.9</ele>
        <time>2026-05-02T13:49:24.000Z</time>
      </trkpt>
      <trkpt lat="44.84347" lon="0.79198">
        <ele>94.9</ele>
        <time>2026-05-02T13:49:25.000Z</time>
      </trkpt>
      <trkpt lat="44.84347" lon="0.79196">
        <ele>94.1</ele>
        <time>2026-05-02T13:49:26.000Z</time>
      </trkpt>
      <trkpt lat="44.84348" lon="0.79195">
        <ele>92.3</ele>
        <time>2026-05-02T13:49:27.000Z</time>
      </trkpt>
      <trkpt lat="44.84348" lon="0.79194">
        <ele>92.8</ele>
        <time>2026-05-02T13:49:28.000Z</time>
      </trkpt>
      <trkpt lat="44.84348" lon="0.79194">
        <ele>92.8</ele>
        <time>2026-05-02T13:49:29.000Z</time>
      </trkpt>
      <trkpt lat="44.84348" lon="0.79194">
        <ele>92.8</ele>
        <time>2026-05-02T13:49:30.000Z</time>
      </trkpt>
      <trkpt lat="44.84348" lon="0.79194">
        <ele>92.8</ele>
        <time>2026-05-02T13:49:31.000Z</time>
      </trkpt>
      <trkpt lat="44.84348" lon="0.79194">
        <ele>92.8</ele>
        <time>2026-05-02T13:49:32.000Z</time>
      </trkpt>
      <trkpt lat="44.84348" lon="0.79194">
        <ele>92.8</ele>
        <time>2026-05-02T13:49:33.000Z</time>
      </trkpt>
      <trkpt lat="44.84346" lon="0.79191">
        <ele>92.7</ele>
        <time>2026-05-02T13:49:34.000Z</time>
      </trkpt>
      <trkpt lat="44.84346" lon="0.79189">
        <ele>91.3</ele>
        <time>2026-05-02T13:49:35.000Z</time>
      </trkpt>
      <trkpt lat="44.84344" lon="0.79187">
        <ele>92.5</ele>
        <time>2026-05-02T13:49:36.000Z</time>
      </trkpt>
      <trkpt lat="44.84343" lon="0.79187">
        <ele>92.5</ele>
        <time>2026-05-02T13:49:37.000Z</time>
      </trkpt>
      <trkpt lat="44.84343" lon="0.79188">
        <ele>92.5</ele>
        <time>2026-05-02T13:49:38.000Z</time>
      </trkpt>
      <trkpt lat="44.84343" lon="0.79188">
        <ele>92.5</ele>
        <time>2026-05-02T13:49:39.000Z</time>
      </trkpt>
      <trkpt lat="44.84343" lon="0.79188">
        <ele>92.5</ele>
        <time>2026-05-02T13:49:40.000Z</time>
      </trkpt>
      <trkpt lat="44.84343" lon="0.79188">
        <ele>92.5</ele>
        <time>2026-05-02T13:49:41.000Z</time>
      </trkpt>
      <trkpt lat="44.84343" lon="0.79188">
        <ele>92.5</ele>
        <time>2026-05-02T13:49:42.000Z</time>
      </trkpt>
      <trkpt lat="44.84343" lon="0.79188">
        <ele>92.5</ele>
        <time>2026-05-02T13:49:43.000Z</time>
      </trkpt>
      <trkpt lat="44.84343" lon="0.79188">
        <ele>92.5</ele>
        <time>2026-05-02T13:49:44.000Z</time>
      </trkpt>
      <trkpt lat="44.84343" lon="0.79188">
        <ele>92.6</ele>
        <time>2026-05-02T13:49:45.000Z</time>
      </trkpt>
      <trkpt lat="44.84343" lon="0.79188">
        <ele>92.6</ele>
        <time>2026-05-02T13:49:46.000Z</time>
      </trkpt>
      <trkpt lat="44.84343" lon="0.79188">
        <ele>92.6</ele>
        <time>2026-05-02T13:49:47.000Z</time>
      </trkpt>
      <trkpt lat="44.84343" lon="0.79188">
        <ele>92.6</ele>
        <time>2026-05-02T13:49:48.000Z</time>
      </trkpt>
      <trkpt lat="44.84343" lon="0.79188">
        <ele>92.6</ele>
        <time>2026-05-02T13:49:49.000Z</time>
      </trkpt>
      <trkpt lat="44.84343" lon="0.79188">
        <ele>92.6</ele>
        <time>2026-05-02T13:49:50.000Z</time>
      </trkpt>
      <trkpt lat="44.84343" lon="0.79188">
        <ele>92.6</ele>
        <time>2026-05-02T13:49:51.000Z</time>
      </trkpt>
      <trkpt lat="44.84343" lon="0.79188">
        <ele>92.6</ele>
        <time>2026-05-02T13:49:52.000Z</time>
      </trkpt>
      <trkpt lat="44.84343" lon="0.79188">
        <ele>92.7</ele>
        <time>2026-05-02T13:49:53.000Z</time>
      </trkpt>
      <trkpt lat="44.84343" lon="0.79188">
        <ele>92.7</ele>
        <time>2026-05-02T13:49:54.000Z</time>
      </trkpt>
      <trkpt lat="44.84343" lon="0.79188">
        <ele>92.7</ele>
        <time>2026-05-02T13:49:55.000Z</time>
      </trkpt>
      <trkpt lat="44.84343" lon="0.79188">
        <ele>92.7</ele>
        <time>2026-05-02T13:49:56.000Z</time>
      </trkpt>
      <trkpt lat="44.84343" lon="0.79188">
        <ele>92.7</ele>
        <time>2026-05-02T13:49:57.000Z</time>
      </trkpt>
      <trkpt lat="44.84343" lon="0.79188">
        <ele>92.7</ele>
        <time>2026-05-02T13:49:58.000Z</time>
      </trkpt>
      <trkpt lat="44.84344" lon="0.79187">
        <ele>92.7</ele>
        <time>2026-05-02T13:49:59.000Z</time>
      </trkpt>
      <trkpt lat="44.84344" lon="0.79187">
        <ele>92.7</ele>
        <time>2026-05-02T13:50:00.000Z</time>
      </trkpt>
      <trkpt lat="44.84344" lon="0.79187">
        <ele>92.7</ele>
        <time>2026-05-02T13:50:01.000Z</time>
      </trkpt>
      <trkpt lat="44.84344" lon="0.79187">
        <ele>92.7</ele>
        <time>2026-05-02T13:50:02.000Z</time>
      </trkpt>
      <trkpt lat="44.84344" lon="0.79187">
        <ele>92.7</ele>
        <time>2026-05-02T13:50:03.000Z</time>
      </trkpt>
      <trkpt lat="44.84344" lon="0.79187">
        <ele>92.7</ele>
        <time>2026-05-02T13:50:04.000Z</time>
      </trkpt>
      <trkpt lat="44.84344" lon="0.79187">
        <ele>92.7</ele>
        <time>2026-05-02T13:50:05.000Z</time>
      </trkpt>
      <trkpt lat="44.84344" lon="0.79186">
        <ele>92.9</ele>
        <time>2026-05-02T13:50:06.000Z</time>
      </trkpt>
      <trkpt lat="44.84344" lon="0.79185">
        <ele>94.3</ele>
        <time>2026-05-02T13:50:07.000Z</time>
      </trkpt>
      <trkpt lat="44.84344" lon="0.79184">
        <ele>95.7</ele>
        <time>2026-05-02T13:50:08.000Z</time>
      </trkpt>
      <trkpt lat="44.84345" lon="0.79184">
        <ele>96.5</ele>
        <time>2026-05-02T13:50:09.000Z</time>
      </trkpt>
      <trkpt lat="44.84346" lon="0.79183">
        <ele>96.8</ele>
        <time>2026-05-02T13:50:10.000Z</time>
      </trkpt>
      <trkpt lat="44.84347" lon="0.79182">
        <ele>96.9</ele>
        <time>2026-05-02T13:50:11.000Z</time>
      </trkpt>
      <trkpt lat="44.84348" lon="0.7918">
        <ele>96.9</ele>
        <time>2026-05-02T13:50:12.000Z</time>
      </trkpt>
      <trkpt lat="44.84348" lon="0.79179">
        <ele>96.9</ele>
        <time>2026-05-02T13:50:13.000Z</time>
      </trkpt>
      <trkpt lat="44.84349" lon="0.79177">
        <ele>96.9</ele>
        <time>2026-05-02T13:50:14.000Z</time>
      </trkpt>
      <trkpt lat="44.84351" lon="0.79176">
        <ele>96.9</ele>
        <time>2026-05-02T13:50:15.000Z</time>
      </trkpt>
      <trkpt lat="44.84352" lon="0.79174">
        <ele>96.8</ele>
        <time>2026-05-02T13:50:16.000Z</time>
      </trkpt>
      <trkpt lat="44.84353" lon="0.79172">
        <ele>96.6</ele>
        <time>2026-05-02T13:50:17.000Z</time>
      </trkpt>
      <trkpt lat="44.84354" lon="0.79171">
        <ele>96.6</ele>
        <time>2026-05-02T13:50:18.000Z</time>
      </trkpt>
      <trkpt lat="44.84355" lon="0.79169">
        <ele>96.6</ele>
        <time>2026-05-02T13:50:19.000Z</time>
      </trkpt>
      <trkpt lat="44.84355" lon="0.79167">
        <ele>96.4</ele>
        <time>2026-05-02T13:50:20.000Z</time>
      </trkpt>
      <trkpt lat="44.84356" lon="0.79165">
        <ele>96.5</ele>
        <time>2026-05-02T13:50:21.000Z</time>
      </trkpt>
      <trkpt lat="44.84357" lon="0.79163">
        <ele>96.5</ele>
        <time>2026-05-02T13:50:22.000Z</time>
      </trkpt>
      <trkpt lat="44.84358" lon="0.79161">
        <ele>96.5</ele>
        <time>2026-05-02T13:50:23.000Z</time>
      </trkpt>
      <trkpt lat="44.84359" lon="0.79159">
        <ele>96.6</ele>
        <time>2026-05-02T13:50:24.000Z</time>
      </trkpt>
      <trkpt lat="44.84359" lon="0.79157">
        <ele>96.7</ele>
        <time>2026-05-02T13:50:25.000Z</time>
      </trkpt>
      <trkpt lat="44.8436" lon="0.79155">
        <ele>96.4</ele>
        <time>2026-05-02T13:50:26.000Z</time>
      </trkpt>
      <trkpt lat="44.84361" lon="0.79154">
        <ele>96.6</ele>
        <time>2026-05-02T13:50:27.000Z</time>
      </trkpt>
      <trkpt lat="44.84362" lon="0.79153">
        <ele>96.6</ele>
        <time>2026-05-02T13:50:28.000Z</time>
      </trkpt>
      <trkpt lat="44.84362" lon="0.79153">
        <ele>96.6</ele>
        <time>2026-05-02T13:50:29.000Z</time>
      </trkpt>
      <trkpt lat="44.84362" lon="0.79153">
        <ele>96.6</ele>
        <time>2026-05-02T13:50:30.000Z</time>
      </trkpt>
      <trkpt lat="44.84362" lon="0.79153">
        <ele>96.6</ele>
        <time>2026-05-02T13:50:31.000Z</time>
      </trkpt>
      <trkpt lat="44.84362" lon="0.79153">
        <ele>96.6</ele>
        <time>2026-05-02T13:50:32.000Z</time>
      </trkpt>
      <trkpt lat="44.84363" lon="0.79152">
        <ele>96.6</ele>
        <time>2026-05-02T13:50:33.000Z</time>
      </trkpt>
      <trkpt lat="44.84365" lon="0.79151">
        <ele>96.5</ele>
        <time>2026-05-02T13:50:34.000Z</time>
      </trkpt>
      <trkpt lat="44.84367" lon="0.79151">
        <ele>96.4</ele>
        <time>2026-05-02T13:50:35.000Z</time>
      </trkpt>
      <trkpt lat="44.84368" lon="0.79152">
        <ele>96.2</ele>
        <time>2026-05-02T13:50:36.000Z</time>
      </trkpt>
      <trkpt lat="44.8437" lon="0.79153">
        <ele>96.2</ele>
        <time>2026-05-02T13:50:37.000Z</time>
      </trkpt>
      <trkpt lat="44.84372" lon="0.79154">
        <ele>96</ele>
        <time>2026-05-02T13:50:38.000Z</time>
      </trkpt>
      <trkpt lat="44.84373" lon="0.79155">
        <ele>96.1</ele>
        <time>2026-05-02T13:50:39.000Z</time>
      </trkpt>
      <trkpt lat="44.84375" lon="0.79157">
        <ele>96</ele>
        <time>2026-05-02T13:50:40.000Z</time>
      </trkpt>
      <trkpt lat="44.84377" lon="0.79158">
        <ele>96.2</ele>
        <time>2026-05-02T13:50:41.000Z</time>
      </trkpt>
      <trkpt lat="44.84378" lon="0.79159">
        <ele>96</ele>
        <time>2026-05-02T13:50:42.000Z</time>
      </trkpt>
      <trkpt lat="44.8438" lon="0.7916">
        <ele>96.1</ele>
        <time>2026-05-02T13:50:43.000Z</time>
      </trkpt>
      <trkpt lat="44.84381" lon="0.79162">
        <ele>95.7</ele>
        <time>2026-05-02T13:50:44.000Z</time>
      </trkpt>
      <trkpt lat="44.84383" lon="0.79163">
        <ele>95.8</ele>
        <time>2026-05-02T13:50:45.000Z</time>
      </trkpt>
      <trkpt lat="44.84384" lon="0.79164">
        <ele>95.7</ele>
        <time>2026-05-02T13:50:46.000Z</time>
      </trkpt>
      <trkpt lat="44.84386" lon="0.79165">
        <ele>95.8</ele>
        <time>2026-05-02T13:50:47.000Z</time>
      </trkpt>
      <trkpt lat="44.84387" lon="0.79166">
        <ele>96</ele>
        <time>2026-05-02T13:50:48.000Z</time>
      </trkpt>
      <trkpt lat="44.84388" lon="0.79167">
        <ele>96.1</ele>
        <time>2026-05-02T13:50:49.000Z</time>
      </trkpt>
      <trkpt lat="44.8439" lon="0.79169">
        <ele>96.1</ele>
        <time>2026-05-02T13:50:50.000Z</time>
      </trkpt>
      <trkpt lat="44.84392" lon="0.7917">
        <ele>96.3</ele>
        <time>2026-05-02T13:50:51.000Z</time>
      </trkpt>
      <trkpt lat="44.84393" lon="0.79171">
        <ele>96.8</ele>
        <time>2026-05-02T13:50:52.000Z</time>
      </trkpt>
      <trkpt lat="44.84395" lon="0.79172">
        <ele>97</ele>
        <time>2026-05-02T13:50:53.000Z</time>
      </trkpt>
      <trkpt lat="44.84396" lon="0.79173">
        <ele>97</ele>
        <time>2026-05-02T13:50:54.000Z</time>
      </trkpt>
      <trkpt lat="44.84396" lon="0.79177">
        <ele>97.5</ele>
        <time>2026-05-02T13:50:55.000Z</time>
      </trkpt>
      <trkpt lat="44.84397" lon="0.79179">
        <ele>97.5</ele>
        <time>2026-05-02T13:50:56.000Z</time>
      </trkpt>
      <trkpt lat="44.84399" lon="0.7918">
        <ele>97.3</ele>
        <time>2026-05-02T13:50:57.000Z</time>
      </trkpt>
      <trkpt lat="44.84401" lon="0.79182">
        <ele>97</ele>
        <time>2026-05-02T13:50:58.000Z</time>
      </trkpt>
      <trkpt lat="44.84403" lon="0.79183">
        <ele>96.9</ele>
        <time>2026-05-02T13:50:59.000Z</time>
      </trkpt>
      <trkpt lat="44.84403" lon="0.79187">
        <ele>95.1</ele>
        <time>2026-05-02T13:51:00.000Z</time>
      </trkpt>
      <trkpt lat="44.84404" lon="0.7919">
        <ele>95.3</ele>
        <time>2026-05-02T13:51:01.000Z</time>
      </trkpt>
      <trkpt lat="44.84405" lon="0.79192">
        <ele>94.2</ele>
        <time>2026-05-02T13:51:02.000Z</time>
      </trkpt>
      <trkpt lat="44.84406" lon="0.79194">
        <ele>93.5</ele>
        <time>2026-05-02T13:51:03.000Z</time>
      </trkpt>
      <trkpt lat="44.84407" lon="0.79195">
        <ele>93.3</ele>
        <time>2026-05-02T13:51:04.000Z</time>
      </trkpt>
      <trkpt lat="44.84409" lon="0.79195">
        <ele>92.8</ele>
        <time>2026-05-02T13:51:05.000Z</time>
      </trkpt>
      <trkpt lat="44.8441" lon="0.79197">
        <ele>92.1</ele>
        <time>2026-05-02T13:51:06.000Z</time>
      </trkpt>
      <trkpt lat="44.84412" lon="0.79198">
        <ele>91.8</ele>
        <time>2026-05-02T13:51:07.000Z</time>
      </trkpt>
      <trkpt lat="44.84413" lon="0.79199">
        <ele>91.8</ele>
        <time>2026-05-02T13:51:08.000Z</time>
      </trkpt>
      <trkpt lat="44.84414" lon="0.792">
        <ele>91.6</ele>
        <time>2026-05-02T13:51:09.000Z</time>
      </trkpt>
      <trkpt lat="44.84416" lon="0.79201">
        <ele>91.6</ele>
        <time>2026-05-02T13:51:10.000Z</time>
      </trkpt>
      <trkpt lat="44.84417" lon="0.79203">
        <ele>91.8</ele>
        <time>2026-05-02T13:51:11.000Z</time>
      </trkpt>
      <trkpt lat="44.84419" lon="0.79204">
        <ele>91.7</ele>
        <time>2026-05-02T13:51:12.000Z</time>
      </trkpt>
      <trkpt lat="44.8442" lon="0.79205">
        <ele>91.4</ele>
        <time>2026-05-02T13:51:13.000Z</time>
      </trkpt>
      <trkpt lat="44.84422" lon="0.79206">
        <ele>91.4</ele>
        <time>2026-05-02T13:51:14.000Z</time>
      </trkpt>
      <trkpt lat="44.84423" lon="0.79208">
        <ele>91.2</ele>
        <time>2026-05-02T13:51:15.000Z</time>
      </trkpt>
      <trkpt lat="44.84424" lon="0.79209">
        <ele>91.5</ele>
        <time>2026-05-02T13:51:16.000Z</time>
      </trkpt>
      <trkpt lat="44.84426" lon="0.7921">
        <ele>91.9</ele>
        <time>2026-05-02T13:51:17.000Z</time>
      </trkpt>
      <trkpt lat="44.84427" lon="0.79211">
        <ele>92</ele>
        <time>2026-05-02T13:51:18.000Z</time>
      </trkpt>
      <trkpt lat="44.84429" lon="0.79213">
        <ele>91.8</ele>
        <time>2026-05-02T13:51:19.000Z</time>
      </trkpt>
      <trkpt lat="44.8443" lon="0.79214">
        <ele>92</ele>
        <time>2026-05-02T13:51:20.000Z</time>
      </trkpt>
      <trkpt lat="44.84432" lon="0.79215">
        <ele>92.3</ele>
        <time>2026-05-02T13:51:21.000Z</time>
      </trkpt>
      <trkpt lat="44.84433" lon="0.79217">
        <ele>92.8</ele>
        <time>2026-05-02T13:51:22.000Z</time>
      </trkpt>
      <trkpt lat="44.84434" lon="0.79218">
        <ele>93.1</ele>
        <time>2026-05-02T13:51:23.000Z</time>
      </trkpt>
      <trkpt lat="44.84436" lon="0.7922">
        <ele>93.2</ele>
        <time>2026-05-02T13:51:24.000Z</time>
      </trkpt>
      <trkpt lat="44.84436" lon="0.79222">
        <ele>93.7</ele>
        <time>2026-05-02T13:51:25.000Z</time>
      </trkpt>
      <trkpt lat="44.84437" lon="0.79224">
        <ele>93.9</ele>
        <time>2026-05-02T13:51:26.000Z</time>
      </trkpt>
      <trkpt lat="44.84438" lon="0.79226">
        <ele>93.8</ele>
        <time>2026-05-02T13:51:27.000Z</time>
      </trkpt>
      <trkpt lat="44.8444" lon="0.79227">
        <ele>93.7</ele>
        <time>2026-05-02T13:51:28.000Z</time>
      </trkpt>
      <trkpt lat="44.84441" lon="0.79229">
        <ele>93.5</ele>
        <time>2026-05-02T13:51:29.000Z</time>
      </trkpt>
      <trkpt lat="44.84442" lon="0.7923">
        <ele>93</ele>
        <time>2026-05-02T13:51:30.000Z</time>
      </trkpt>
      <trkpt lat="44.84444" lon="0.79231">
        <ele>93</ele>
        <time>2026-05-02T13:51:31.000Z</time>
      </trkpt>
      <trkpt lat="44.84445" lon="0.79229">
        <ele>93.1</ele>
        <time>2026-05-02T13:51:32.000Z</time>
      </trkpt>
      <trkpt lat="44.84446" lon="0.79227">
        <ele>93</ele>
        <time>2026-05-02T13:51:33.000Z</time>
      </trkpt>
      <trkpt lat="44.84447" lon="0.79225">
        <ele>93.4</ele>
        <time>2026-05-02T13:51:34.000Z</time>
      </trkpt>
      <trkpt lat="44.84448" lon="0.79222">
        <ele>93.4</ele>
        <time>2026-05-02T13:51:35.000Z</time>
      </trkpt>
      <trkpt lat="44.84447" lon="0.7922">
        <ele>93.4</ele>
        <time>2026-05-02T13:51:36.000Z</time>
      </trkpt>
      <trkpt lat="44.84447" lon="0.79217">
        <ele>93.3</ele>
        <time>2026-05-02T13:51:37.000Z</time>
      </trkpt>
      <trkpt lat="44.84445" lon="0.79215">
        <ele>93.7</ele>
        <time>2026-05-02T13:51:38.000Z</time>
      </trkpt>
      <trkpt lat="44.84444" lon="0.79213">
        <ele>93.6</ele>
        <time>2026-05-02T13:51:39.000Z</time>
      </trkpt>
      <trkpt lat="44.84443" lon="0.79211">
        <ele>93.9</ele>
        <time>2026-05-02T13:51:40.000Z</time>
      </trkpt>
      <trkpt lat="44.84442" lon="0.79208">
        <ele>94.1</ele>
        <time>2026-05-02T13:51:41.000Z</time>
      </trkpt>
      <trkpt lat="44.84441" lon="0.79205">
        <ele>94.4</ele>
        <time>2026-05-02T13:51:42.000Z</time>
      </trkpt>
      <trkpt lat="44.8444" lon="0.79202">
        <ele>95.1</ele>
        <time>2026-05-02T13:51:43.000Z</time>
      </trkpt>
      <trkpt lat="44.84439" lon="0.79199">
        <ele>95.1</ele>
        <time>2026-05-02T13:51:44.000Z</time>
      </trkpt>
      <trkpt lat="44.84438" lon="0.79196">
        <ele>94.9</ele>
        <time>2026-05-02T13:51:45.000Z</time>
      </trkpt>
      <trkpt lat="44.84437" lon="0.79194">
        <ele>95.5</ele>
        <time>2026-05-02T13:51:46.000Z</time>
      </trkpt>
      <trkpt lat="44.84436" lon="0.79192">
        <ele>95.5</ele>
        <time>2026-05-02T13:51:47.000Z</time>
      </trkpt>
      <trkpt lat="44.84435" lon="0.7919">
        <ele>95.5</ele>
        <time>2026-05-02T13:51:48.000Z</time>
      </trkpt>
      <trkpt lat="44.84434" lon="0.79187">
        <ele>95.4</ele>
        <time>2026-05-02T13:51:49.000Z</time>
      </trkpt>
      <trkpt lat="44.84433" lon="0.79186">
        <ele>95.5</ele>
        <time>2026-05-02T13:51:50.000Z</time>
      </trkpt>
      <trkpt lat="44.84432" lon="0.79184">
        <ele>95</ele>
        <time>2026-05-02T13:51:51.000Z</time>
      </trkpt>
      <trkpt lat="44.84431" lon="0.79183">
        <ele>95.2</ele>
        <time>2026-05-02T13:51:52.000Z</time>
      </trkpt>
      <trkpt lat="44.8443" lon="0.79181">
        <ele>95</ele>
        <time>2026-05-02T13:51:53.000Z</time>
      </trkpt>
      <trkpt lat="44.84429" lon="0.79179">
        <ele>94.5</ele>
        <time>2026-05-02T13:51:54.000Z</time>
      </trkpt>
      <trkpt lat="44.84428" lon="0.79177">
        <ele>94.4</ele>
        <time>2026-05-02T13:51:55.000Z</time>
      </trkpt>
      <trkpt lat="44.84427" lon="0.79175">
        <ele>94.4</ele>
        <time>2026-05-02T13:51:56.000Z</time>
      </trkpt>
      <trkpt lat="44.84426" lon="0.79174">
        <ele>94.4</ele>
        <time>2026-05-02T13:51:57.000Z</time>
      </trkpt>
      <trkpt lat="44.84425" lon="0.79172">
        <ele>93.9</ele>
        <time>2026-05-02T13:51:58.000Z</time>
      </trkpt>
      <trkpt lat="44.84424" lon="0.79171">
        <ele>93.5</ele>
        <time>2026-05-02T13:51:59.000Z</time>
      </trkpt>
      <trkpt lat="44.84423" lon="0.79169">
        <ele>93.7</ele>
        <time>2026-05-02T13:52:00.000Z</time>
      </trkpt>
      <trkpt lat="44.84421" lon="0.79167">
        <ele>93.5</ele>
        <time>2026-05-02T13:52:01.000Z</time>
      </trkpt>
      <trkpt lat="44.84421" lon="0.79165">
        <ele>93.6</ele>
        <time>2026-05-02T13:52:02.000Z</time>
      </trkpt>
      <trkpt lat="44.8442" lon="0.79164">
        <ele>93.3</ele>
        <time>2026-05-02T13:52:03.000Z</time>
      </trkpt>
      <trkpt lat="44.84418" lon="0.79162">
        <ele>93.3</ele>
        <time>2026-05-02T13:52:04.000Z</time>
      </trkpt>
      <trkpt lat="44.84417" lon="0.7916">
        <ele>93.1</ele>
        <time>2026-05-02T13:52:05.000Z</time>
      </trkpt>
      <trkpt lat="44.84416" lon="0.79159">
        <ele>92.7</ele>
        <time>2026-05-02T13:52:06.000Z</time>
      </trkpt>
      <trkpt lat="44.84415" lon="0.79157">
        <ele>92</ele>
        <time>2026-05-02T13:52:07.000Z</time>
      </trkpt>
      <trkpt lat="44.84414" lon="0.79155">
        <ele>92.1</ele>
        <time>2026-05-02T13:52:08.000Z</time>
      </trkpt>
      <trkpt lat="44.84412" lon="0.79154">
        <ele>92</ele>
        <time>2026-05-02T13:52:09.000Z</time>
      </trkpt>
      <trkpt lat="44.84411" lon="0.79152">
        <ele>91.8</ele>
        <time>2026-05-02T13:52:10.000Z</time>
      </trkpt>
      <trkpt lat="44.8441" lon="0.7915">
        <ele>91.5</ele>
        <time>2026-05-02T13:52:11.000Z</time>
      </trkpt>
      <trkpt lat="44.84409" lon="0.79148">
        <ele>91.4</ele>
        <time>2026-05-02T13:52:12.000Z</time>
      </trkpt>
      <trkpt lat="44.84408" lon="0.79146">
        <ele>91</ele>
        <time>2026-05-02T13:52:13.000Z</time>
      </trkpt>
      <trkpt lat="44.84406" lon="0.79144">
        <ele>90.8</ele>
        <time>2026-05-02T13:52:14.000Z</time>
      </trkpt>
      <trkpt lat="44.84405" lon="0.79142">
        <ele>90.3</ele>
        <time>2026-05-02T13:52:15.000Z</time>
      </trkpt>
      <trkpt lat="44.84404" lon="0.7914">
        <ele>90.2</ele>
        <time>2026-05-02T13:52:16.000Z</time>
      </trkpt>
      <trkpt lat="44.84403" lon="0.79138">
        <ele>90.2</ele>
        <time>2026-05-02T13:52:17.000Z</time>
      </trkpt>
      <trkpt lat="44.84402" lon="0.79136">
        <ele>90.5</ele>
        <time>2026-05-02T13:52:18.000Z</time>
      </trkpt>
      <trkpt lat="44.84401" lon="0.79134">
        <ele>90.3</ele>
        <time>2026-05-02T13:52:19.000Z</time>
      </trkpt>
      <trkpt lat="44.84401" lon="0.79131">
        <ele>90.3</ele>
        <time>2026-05-02T13:52:20.000Z</time>
      </trkpt>
      <trkpt lat="44.844" lon="0.79129">
        <ele>90.2</ele>
        <time>2026-05-02T13:52:21.000Z</time>
      </trkpt>
      <trkpt lat="44.844" lon="0.79126">
        <ele>90.2</ele>
        <time>2026-05-02T13:52:22.000Z</time>
      </trkpt>
      <trkpt lat="44.84399" lon="0.79124">
        <ele>90</ele>
        <time>2026-05-02T13:52:23.000Z</time>
      </trkpt>
      <trkpt lat="44.84398" lon="0.79122">
        <ele>89.6</ele>
        <time>2026-05-02T13:52:24.000Z</time>
      </trkpt>
      <trkpt lat="44.84398" lon="0.79119">
        <ele>89.7</ele>
        <time>2026-05-02T13:52:25.000Z</time>
      </trkpt>
      <trkpt lat="44.84396" lon="0.79117">
        <ele>89.7</ele>
        <time>2026-05-02T13:52:26.000Z</time>
      </trkpt>
      <trkpt lat="44.84396" lon="0.79115">
        <ele>89.8</ele>
        <time>2026-05-02T13:52:27.000Z</time>
      </trkpt>
      <trkpt lat="44.84395" lon="0.79113">
        <ele>89.3</ele>
        <time>2026-05-02T13:52:28.000Z</time>
      </trkpt>
      <trkpt lat="44.84394" lon="0.79111">
        <ele>88.6</ele>
        <time>2026-05-02T13:52:29.000Z</time>
      </trkpt>
      <trkpt lat="44.84393" lon="0.79109">
        <ele>88.6</ele>
        <time>2026-05-02T13:52:30.000Z</time>
      </trkpt>
      <trkpt lat="44.84392" lon="0.79106">
        <ele>89.1</ele>
        <time>2026-05-02T13:52:31.000Z</time>
      </trkpt>
      <trkpt lat="44.84391" lon="0.79104">
        <ele>89.2</ele>
        <time>2026-05-02T13:52:32.000Z</time>
      </trkpt>
      <trkpt lat="44.8439" lon="0.79102">
        <ele>89.2</ele>
        <time>2026-05-02T13:52:33.000Z</time>
      </trkpt>
      <trkpt lat="44.84389" lon="0.791">
        <ele>89.4</ele>
        <time>2026-05-02T13:52:34.000Z</time>
      </trkpt>
      <trkpt lat="44.84388" lon="0.79098">
        <ele>89.7</ele>
        <time>2026-05-02T13:52:35.000Z</time>
      </trkpt>
      <trkpt lat="44.84388" lon="0.79095">
        <ele>90</ele>
        <time>2026-05-02T13:52:36.000Z</time>
      </trkpt>
      <trkpt lat="44.84387" lon="0.79093">
        <ele>89.8</ele>
        <time>2026-05-02T13:52:37.000Z</time>
      </trkpt>
      <trkpt lat="44.84387" lon="0.79091">
        <ele>90.1</ele>
        <time>2026-05-02T13:52:38.000Z</time>
      </trkpt>
      <trkpt lat="44.84386" lon="0.79088">
        <ele>90</ele>
        <time>2026-05-02T13:52:39.000Z</time>
      </trkpt>
      <trkpt lat="44.84386" lon="0.79086">
        <ele>90.1</ele>
        <time>2026-05-02T13:52:40.000Z</time>
      </trkpt>
      <trkpt lat="44.84386" lon="0.79083">
        <ele>89.8</ele>
        <time>2026-05-02T13:52:41.000Z</time>
      </trkpt>
      <trkpt lat="44.84385" lon="0.79081">
        <ele>89.7</ele>
        <time>2026-05-02T13:52:42.000Z</time>
      </trkpt>
      <trkpt lat="44.84385" lon="0.79078">
        <ele>89.2</ele>
        <time>2026-05-02T13:52:43.000Z</time>
      </trkpt>
      <trkpt lat="44.84385" lon="0.79075">
        <ele>89.3</ele>
        <time>2026-05-02T13:52:44.000Z</time>
      </trkpt>
      <trkpt lat="44.84385" lon="0.79073">
        <ele>88.9</ele>
        <time>2026-05-02T13:52:45.000Z</time>
      </trkpt>
      <trkpt lat="44.84384" lon="0.79071">
        <ele>89.3</ele>
        <time>2026-05-02T13:52:46.000Z</time>
      </trkpt>
      <trkpt lat="44.84384" lon="0.79068">
        <ele>89.4</ele>
        <time>2026-05-02T13:52:47.000Z</time>
      </trkpt>
      <trkpt lat="44.84384" lon="0.79066">
        <ele>89.7</ele>
        <time>2026-05-02T13:52:48.000Z</time>
      </trkpt>
      <trkpt lat="44.84383" lon="0.79063">
        <ele>89.5</ele>
        <time>2026-05-02T13:52:49.000Z</time>
      </trkpt>
      <trkpt lat="44.84383" lon="0.79061">
        <ele>89.4</ele>
        <time>2026-05-02T13:52:50.000Z</time>
      </trkpt>
      <trkpt lat="44.84383" lon="0.79058">
        <ele>89.3</ele>
        <time>2026-05-02T13:52:51.000Z</time>
      </trkpt>
      <trkpt lat="44.84383" lon="0.79056">
        <ele>89.1</ele>
        <time>2026-05-02T13:52:52.000Z</time>
      </trkpt>
      <trkpt lat="44.84383" lon="0.79053">
        <ele>89.1</ele>
        <time>2026-05-02T13:52:53.000Z</time>
      </trkpt>
      <trkpt lat="44.84383" lon="0.79051">
        <ele>88.7</ele>
        <time>2026-05-02T13:52:54.000Z</time>
      </trkpt>
      <trkpt lat="44.84383" lon="0.79048">
        <ele>88.8</ele>
        <time>2026-05-02T13:52:55.000Z</time>
      </trkpt>
      <trkpt lat="44.84383" lon="0.79046">
        <ele>89.1</ele>
        <time>2026-05-02T13:52:56.000Z</time>
      </trkpt>
      <trkpt lat="44.84382" lon="0.79044">
        <ele>88.8</ele>
        <time>2026-05-02T13:52:57.000Z</time>
      </trkpt>
      <trkpt lat="44.84381" lon="0.79041">
        <ele>89.1</ele>
        <time>2026-05-02T13:52:58.000Z</time>
      </trkpt>
      <trkpt lat="44.8438" lon="0.79039">
        <ele>89.1</ele>
        <time>2026-05-02T13:52:59.000Z</time>
      </trkpt>
      <trkpt lat="44.8438" lon="0.79036">
        <ele>89.4</ele>
        <time>2026-05-02T13:53:00.000Z</time>
      </trkpt>
      <trkpt lat="44.84379" lon="0.79034">
        <ele>89</ele>
        <time>2026-05-02T13:53:01.000Z</time>
      </trkpt>
      <trkpt lat="44.84378" lon="0.79032">
        <ele>88.9</ele>
        <time>2026-05-02T13:53:02.000Z</time>
      </trkpt>
      <trkpt lat="44.84377" lon="0.79029">
        <ele>88.8</ele>
        <time>2026-05-02T13:53:03.000Z</time>
      </trkpt>
      <trkpt lat="44.84377" lon="0.79027">
        <ele>88.4</ele>
        <time>2026-05-02T13:53:04.000Z</time>
      </trkpt>
      <trkpt lat="44.84376" lon="0.79025">
        <ele>88.2</ele>
        <time>2026-05-02T13:53:05.000Z</time>
      </trkpt>
      <trkpt lat="44.84375" lon="0.79023">
        <ele>87.8</ele>
        <time>2026-05-02T13:53:06.000Z</time>
      </trkpt>
      <trkpt lat="44.84374" lon="0.79021">
        <ele>87.8</ele>
        <time>2026-05-02T13:53:07.000Z</time>
      </trkpt>
      <trkpt lat="44.84373" lon="0.79018">
        <ele>87.5</ele>
        <time>2026-05-02T13:53:08.000Z</time>
      </trkpt>
      <trkpt lat="44.84372" lon="0.79016">
        <ele>87.4</ele>
        <time>2026-05-02T13:53:09.000Z</time>
      </trkpt>
      <trkpt lat="44.84371" lon="0.79014">
        <ele>87</ele>
        <time>2026-05-02T13:53:10.000Z</time>
      </trkpt>
      <trkpt lat="44.84371" lon="0.79012">
        <ele>87.3</ele>
        <time>2026-05-02T13:53:11.000Z</time>
      </trkpt>
      <trkpt lat="44.8437" lon="0.79009">
        <ele>87.5</ele>
        <time>2026-05-02T13:53:12.000Z</time>
      </trkpt>
      <trkpt lat="44.84369" lon="0.79007">
        <ele>87.3</ele>
        <time>2026-05-02T13:53:13.000Z</time>
      </trkpt>
      <trkpt lat="44.84368" lon="0.79005">
        <ele>87.9</ele>
        <time>2026-05-02T13:53:14.000Z</time>
      </trkpt>
      <trkpt lat="44.84367" lon="0.79003">
        <ele>87.4</ele>
        <time>2026-05-02T13:53:15.000Z</time>
      </trkpt>
      <trkpt lat="44.84366" lon="0.79001">
        <ele>87.2</ele>
        <time>2026-05-02T13:53:16.000Z</time>
      </trkpt>
      <trkpt lat="44.84365" lon="0.78999">
        <ele>87.3</ele>
        <time>2026-05-02T13:53:17.000Z</time>
      </trkpt>
      <trkpt lat="44.84363" lon="0.78997">
        <ele>87.5</ele>
        <time>2026-05-02T13:53:18.000Z</time>
      </trkpt>
      <trkpt lat="44.84363" lon="0.78995">
        <ele>87.1</ele>
        <time>2026-05-02T13:53:19.000Z</time>
      </trkpt>
      <trkpt lat="44.84362" lon="0.78993">
        <ele>87.2</ele>
        <time>2026-05-02T13:53:20.000Z</time>
      </trkpt>
      <trkpt lat="44.84361" lon="0.78992">
        <ele>86.8</ele>
        <time>2026-05-02T13:53:21.000Z</time>
      </trkpt>
      <trkpt lat="44.8436" lon="0.7899">
        <ele>86.4</ele>
        <time>2026-05-02T13:53:22.000Z</time>
      </trkpt>
      <trkpt lat="44.84359" lon="0.78988">
        <ele>86.5</ele>
        <time>2026-05-02T13:53:23.000Z</time>
      </trkpt>
      <trkpt lat="44.84358" lon="0.78985">
        <ele>86.2</ele>
        <time>2026-05-02T13:53:24.000Z</time>
      </trkpt>
      <trkpt lat="44.84357" lon="0.78983">
        <ele>85.9</ele>
        <time>2026-05-02T13:53:25.000Z</time>
      </trkpt>
      <trkpt lat="44.84356" lon="0.78981">
        <ele>86.4</ele>
        <time>2026-05-02T13:53:26.000Z</time>
      </trkpt>
      <trkpt lat="44.84356" lon="0.78979">
        <ele>86.4</ele>
        <time>2026-05-02T13:53:27.000Z</time>
      </trkpt>
      <trkpt lat="44.84355" lon="0.78976">
        <ele>86.4</ele>
        <time>2026-05-02T13:53:28.000Z</time>
      </trkpt>
      <trkpt lat="44.84354" lon="0.78974">
        <ele>86.8</ele>
        <time>2026-05-02T13:53:29.000Z</time>
      </trkpt>
      <trkpt lat="44.84353" lon="0.78973">
        <ele>86.9</ele>
        <time>2026-05-02T13:53:30.000Z</time>
      </trkpt>
      <trkpt lat="44.84353" lon="0.78971">
        <ele>87.1</ele>
        <time>2026-05-02T13:53:31.000Z</time>
      </trkpt>
      <trkpt lat="44.84352" lon="0.78968">
        <ele>87.7</ele>
        <time>2026-05-02T13:53:32.000Z</time>
      </trkpt>
      <trkpt lat="44.8435" lon="0.78966">
        <ele>88.3</ele>
        <time>2026-05-02T13:53:33.000Z</time>
      </trkpt>
      <trkpt lat="44.84349" lon="0.78963">
        <ele>88.2</ele>
        <time>2026-05-02T13:53:34.000Z</time>
      </trkpt>
      <trkpt lat="44.84348" lon="0.78961">
        <ele>88.2</ele>
        <time>2026-05-02T13:53:35.000Z</time>
      </trkpt>
      <trkpt lat="44.84347" lon="0.78958">
        <ele>88.5</ele>
        <time>2026-05-02T13:53:36.000Z</time>
      </trkpt>
      <trkpt lat="44.84345" lon="0.78956">
        <ele>88.5</ele>
        <time>2026-05-02T13:53:37.000Z</time>
      </trkpt>
      <trkpt lat="44.84344" lon="0.78953">
        <ele>88.3</ele>
        <time>2026-05-02T13:53:38.000Z</time>
      </trkpt>
      <trkpt lat="44.84343" lon="0.7895">
        <ele>88.7</ele>
        <time>2026-05-02T13:53:39.000Z</time>
      </trkpt>
      <trkpt lat="44.84342" lon="0.78947">
        <ele>88.5</ele>
        <time>2026-05-02T13:53:40.000Z</time>
      </trkpt>
      <trkpt lat="44.84342" lon="0.78945">
        <ele>88.5</ele>
        <time>2026-05-02T13:53:41.000Z</time>
      </trkpt>
      <trkpt lat="44.84341" lon="0.78943">
        <ele>88.3</ele>
        <time>2026-05-02T13:53:42.000Z</time>
      </trkpt>
      <trkpt lat="44.8434" lon="0.78941">
        <ele>88.7</ele>
        <time>2026-05-02T13:53:43.000Z</time>
      </trkpt>
      <trkpt lat="44.84339" lon="0.78939">
        <ele>88.7</ele>
        <time>2026-05-02T13:53:44.000Z</time>
      </trkpt>
      <trkpt lat="44.84338" lon="0.78937">
        <ele>88.7</ele>
        <time>2026-05-02T13:53:45.000Z</time>
      </trkpt>
      <trkpt lat="44.84338" lon="0.78935">
        <ele>88.8</ele>
        <time>2026-05-02T13:53:46.000Z</time>
      </trkpt>
      <trkpt lat="44.84337" lon="0.78933">
        <ele>88.3</ele>
        <time>2026-05-02T13:53:47.000Z</time>
      </trkpt>
      <trkpt lat="44.84336" lon="0.78931">
        <ele>88</ele>
        <time>2026-05-02T13:53:48.000Z</time>
      </trkpt>
      <trkpt lat="44.84335" lon="0.7893">
        <ele>87.9</ele>
        <time>2026-05-02T13:53:49.000Z</time>
      </trkpt>
      <trkpt lat="44.84334" lon="0.78928">
        <ele>87.6</ele>
        <time>2026-05-02T13:53:50.000Z</time>
      </trkpt>
      <trkpt lat="44.84333" lon="0.78927">
        <ele>87.6</ele>
        <time>2026-05-02T13:53:51.000Z</time>
      </trkpt>
      <trkpt lat="44.84332" lon="0.78925">
        <ele>87.7</ele>
        <time>2026-05-02T13:53:52.000Z</time>
      </trkpt>
      <trkpt lat="44.84331" lon="0.78923">
        <ele>87.8</ele>
        <time>2026-05-02T13:53:53.000Z</time>
      </trkpt>
      <trkpt lat="44.8433" lon="0.78921">
        <ele>88.2</ele>
        <time>2026-05-02T13:53:54.000Z</time>
      </trkpt>
      <trkpt lat="44.8433" lon="0.78919">
        <ele>88</ele>
        <time>2026-05-02T13:53:55.000Z</time>
      </trkpt>
      <trkpt lat="44.84329" lon="0.78917">
        <ele>87.8</ele>
        <time>2026-05-02T13:53:56.000Z</time>
      </trkpt>
      <trkpt lat="44.84329" lon="0.78915">
        <ele>87.6</ele>
        <time>2026-05-02T13:53:57.000Z</time>
      </trkpt>
      <trkpt lat="44.84328" lon="0.78913">
        <ele>86.9</ele>
        <time>2026-05-02T13:53:58.000Z</time>
      </trkpt>
      <trkpt lat="44.84328" lon="0.78911">
        <ele>86.7</ele>
        <time>2026-05-02T13:53:59.000Z</time>
      </trkpt>
      <trkpt lat="44.84327" lon="0.78909">
        <ele>86.2</ele>
        <time>2026-05-02T13:54:00.000Z</time>
      </trkpt>
      <trkpt lat="44.84326" lon="0.78906">
        <ele>85.8</ele>
        <time>2026-05-02T13:54:01.000Z</time>
      </trkpt>
      <trkpt lat="44.84326" lon="0.78903">
        <ele>85.5</ele>
        <time>2026-05-02T13:54:02.000Z</time>
      </trkpt>
      <trkpt lat="44.84325" lon="0.78901">
        <ele>85.4</ele>
        <time>2026-05-02T13:54:03.000Z</time>
      </trkpt>
      <trkpt lat="44.84324" lon="0.78898">
        <ele>85.5</ele>
        <time>2026-05-02T13:54:04.000Z</time>
      </trkpt>
      <trkpt lat="44.84324" lon="0.78896">
        <ele>85.5</ele>
        <time>2026-05-02T13:54:05.000Z</time>
      </trkpt>
      <trkpt lat="44.84323" lon="0.78893">
        <ele>85.7</ele>
        <time>2026-05-02T13:54:06.000Z</time>
      </trkpt>
      <trkpt lat="44.84322" lon="0.78891">
        <ele>85.3</ele>
        <time>2026-05-02T13:54:07.000Z</time>
      </trkpt>
      <trkpt lat="44.84322" lon="0.78888">
        <ele>85.4</ele>
        <time>2026-05-02T13:54:08.000Z</time>
      </trkpt>
      <trkpt lat="44.84322" lon="0.78886">
        <ele>84.2</ele>
        <time>2026-05-02T13:54:09.000Z</time>
      </trkpt>
      <trkpt lat="44.84322" lon="0.78886">
        <ele>85.2</ele>
        <time>2026-05-02T13:54:10.000Z</time>
      </trkpt>
      <trkpt lat="44.84321" lon="0.78887">
        <ele>85.2</ele>
        <time>2026-05-02T13:54:11.000Z</time>
      </trkpt>
      <trkpt lat="44.84321" lon="0.78887">
        <ele>85.2</ele>
        <time>2026-05-02T13:54:12.000Z</time>
      </trkpt>
      <trkpt lat="44.84321" lon="0.78887">
        <ele>85.2</ele>
        <time>2026-05-02T13:54:13.000Z</time>
      </trkpt>
      <trkpt lat="44.84321" lon="0.78885">
        <ele>85.4</ele>
        <time>2026-05-02T13:54:14.000Z</time>
      </trkpt>
      <trkpt lat="44.84321" lon="0.78884">
        <ele>85</ele>
        <time>2026-05-02T13:54:15.000Z</time>
      </trkpt>
      <trkpt lat="44.84321" lon="0.78886">
        <ele>85.4</ele>
        <time>2026-05-02T13:54:16.000Z</time>
      </trkpt>
      <trkpt lat="44.84321" lon="0.78886">
        <ele>85.4</ele>
        <time>2026-05-02T13:54:17.000Z</time>
      </trkpt>
      <trkpt lat="44.84321" lon="0.78886">
        <ele>85.4</ele>
        <time>2026-05-02T13:54:18.000Z</time>
      </trkpt>
      <trkpt lat="44.84321" lon="0.78886">
        <ele>85.4</ele>
        <time>2026-05-02T13:54:19.000Z</time>
      </trkpt>
      <trkpt lat="44.84321" lon="0.78888">
        <ele>85.7</ele>
        <time>2026-05-02T13:54:20.000Z</time>
      </trkpt>
      <trkpt lat="44.8432" lon="0.78889">
        <ele>85.1</ele>
        <time>2026-05-02T13:54:21.000Z</time>
      </trkpt>
      <trkpt lat="44.8432" lon="0.7889">
        <ele>85.6</ele>
        <time>2026-05-02T13:54:22.000Z</time>
      </trkpt>
      <trkpt lat="44.8432" lon="0.7889">
        <ele>86.6</ele>
        <time>2026-05-02T13:54:23.000Z</time>
      </trkpt>
      <trkpt lat="44.8432" lon="0.7889">
        <ele>86.9</ele>
        <time>2026-05-02T13:54:24.000Z</time>
      </trkpt>
      <trkpt lat="44.8432" lon="0.7889">
        <ele>86.8</ele>
        <time>2026-05-02T13:54:25.000Z</time>
      </trkpt>
      <trkpt lat="44.84321" lon="0.78893">
        <ele>86.2</ele>
        <time>2026-05-02T13:54:26.000Z</time>
      </trkpt>
      <trkpt lat="44.84321" lon="0.78893">
        <ele>86.2</ele>
        <time>2026-05-02T13:54:27.000Z</time>
      </trkpt>
      <trkpt lat="44.84321" lon="0.78894">
        <ele>86.2</ele>
        <time>2026-05-02T13:54:28.000Z</time>
      </trkpt>
      <trkpt lat="44.84321" lon="0.78894">
        <ele>86.2</ele>
        <time>2026-05-02T13:54:29.000Z</time>
      </trkpt>
      <trkpt lat="44.84321" lon="0.78894">
        <ele>86.2</ele>
        <time>2026-05-02T13:54:30.000Z</time>
      </trkpt>
      <trkpt lat="44.84321" lon="0.78894">
        <ele>86.2</ele>
        <time>2026-05-02T13:54:31.000Z</time>
      </trkpt>
      <trkpt lat="44.84321" lon="0.78894">
        <ele>86.2</ele>
        <time>2026-05-02T13:54:32.000Z</time>
      </trkpt>
      <trkpt lat="44.84321" lon="0.78894">
        <ele>85.9</ele>
        <time>2026-05-02T13:54:33.000Z</time>
      </trkpt>
      <trkpt lat="44.8432" lon="0.78894">
        <ele>85.9</ele>
        <time>2026-05-02T13:54:34.000Z</time>
      </trkpt>
      <trkpt lat="44.8432" lon="0.78894">
        <ele>85.9</ele>
        <time>2026-05-02T13:54:35.000Z</time>
      </trkpt>
      <trkpt lat="44.8432" lon="0.78894">
        <ele>85.9</ele>
        <time>2026-05-02T13:54:36.000Z</time>
      </trkpt>
      <trkpt lat="44.8432" lon="0.78894">
        <ele>85.9</ele>
        <time>2026-05-02T13:54:37.000Z</time>
      </trkpt>
      <trkpt lat="44.8432" lon="0.78894">
        <ele>86.3</ele>
        <time>2026-05-02T13:54:38.000Z</time>
      </trkpt>
      <trkpt lat="44.8432" lon="0.78893">
        <ele>86.1</ele>
        <time>2026-05-02T13:54:39.000Z</time>
      </trkpt>
      <trkpt lat="44.8432" lon="0.78893">
        <ele>86.4</ele>
        <time>2026-05-02T13:54:40.000Z</time>
      </trkpt>
      <trkpt lat="44.8432" lon="0.78892">
        <ele>86.3</ele>
        <time>2026-05-02T13:54:41.000Z</time>
      </trkpt>
      <trkpt lat="44.8432" lon="0.78892">
        <ele>86</ele>
        <time>2026-05-02T13:54:42.000Z</time>
      </trkpt>
      <trkpt lat="44.8432" lon="0.78892">
        <ele>86</ele>
        <time>2026-05-02T13:54:43.000Z</time>
      </trkpt>
      <trkpt lat="44.8432" lon="0.78892">
        <ele>86</ele>
        <time>2026-05-02T13:54:44.000Z</time>
      </trkpt>
      <trkpt lat="44.8432" lon="0.78892">
        <ele>86</ele>
        <time>2026-05-02T13:54:45.000Z</time>
      </trkpt>
      <trkpt lat="44.8432" lon="0.78892">
        <ele>85.5</ele>
        <time>2026-05-02T13:54:46.000Z</time>
      </trkpt>
      <trkpt lat="44.8432" lon="0.78892">
        <ele>85.5</ele>
        <time>2026-05-02T13:54:47.000Z</time>
      </trkpt>
      <trkpt lat="44.8432" lon="0.78892">
        <ele>85.5</ele>
        <time>2026-05-02T13:54:48.000Z</time>
      </trkpt>
      <trkpt lat="44.8432" lon="0.78892">
        <ele>85.5</ele>
        <time>2026-05-02T13:54:49.000Z</time>
      </trkpt>
      <trkpt lat="44.8432" lon="0.78892">
        <ele>85.5</ele>
        <time>2026-05-02T13:54:50.000Z</time>
      </trkpt>
      <trkpt lat="44.8432" lon="0.78892">
        <ele>85.5</ele>
        <time>2026-05-02T13:54:51.000Z</time>
      </trkpt>
      <trkpt lat="44.8432" lon="0.78892">
        <ele>85.1</ele>
        <time>2026-05-02T13:54:52.000Z</time>
      </trkpt>
      <trkpt lat="44.8432" lon="0.78893">
        <ele>84.8</ele>
        <time>2026-05-02T13:54:53.000Z</time>
      </trkpt>
      <trkpt lat="44.8432" lon="0.78893">
        <ele>84.9</ele>
        <time>2026-05-02T13:54:54.000Z</time>
      </trkpt>
      <trkpt lat="44.8432" lon="0.78893">
        <ele>84.9</ele>
        <time>2026-05-02T13:54:55.000Z</time>
      </trkpt>
      <trkpt lat="44.8432" lon="0.78893">
        <ele>84.9</ele>
        <time>2026-05-02T13:54:56.000Z</time>
      </trkpt>
      <trkpt lat="44.8432" lon="0.78893">
        <ele>84.9</ele>
        <time>2026-05-02T13:54:57.000Z</time>
      </trkpt>
      <trkpt lat="44.8432" lon="0.78893">
        <ele>84.9</ele>
        <time>2026-05-02T13:54:58.000Z</time>
      </trkpt>
      <trkpt lat="44.84319" lon="0.78893">
        <ele>85.5</ele>
        <time>2026-05-02T13:54:59.000Z</time>
      </trkpt>
      <trkpt lat="44.84319" lon="0.78893">
        <ele>85.1</ele>
        <time>2026-05-02T13:55:00.000Z</time>
      </trkpt>
      <trkpt lat="44.84319" lon="0.78893">
        <ele>85.1</ele>
        <time>2026-05-02T13:55:01.000Z</time>
      </trkpt>
      <trkpt lat="44.84319" lon="0.78893">
        <ele>85.1</ele>
        <time>2026-05-02T13:55:02.000Z</time>
      </trkpt>
      <trkpt lat="44.84319" lon="0.78893">
        <ele>85</ele>
        <time>2026-05-02T13:55:03.000Z</time>
      </trkpt>
      <trkpt lat="44.84319" lon="0.78892">
        <ele>85</ele>
        <time>2026-05-02T13:55:04.000Z</time>
      </trkpt>
      <trkpt lat="44.84319" lon="0.78892">
        <ele>85.1</ele>
        <time>2026-05-02T13:55:05.000Z</time>
      </trkpt>
      <trkpt lat="44.84319" lon="0.78892">
        <ele>85.1</ele>
        <time>2026-05-02T13:55:06.000Z</time>
      </trkpt>
      <trkpt lat="44.84319" lon="0.78892">
        <ele>85.1</ele>
        <time>2026-05-02T13:55:07.000Z</time>
      </trkpt>
      <trkpt lat="44.84319" lon="0.78892">
        <ele>85.1</ele>
        <time>2026-05-02T13:55:08.000Z</time>
      </trkpt>
      <trkpt lat="44.84319" lon="0.78893">
        <ele>85.1</ele>
        <time>2026-05-02T13:55:09.000Z</time>
      </trkpt>
      <trkpt lat="44.84319" lon="0.78893">
        <ele>85</ele>
        <time>2026-05-02T13:55:10.000Z</time>
      </trkpt>
      <trkpt lat="44.84319" lon="0.78892">
        <ele>85</ele>
        <time>2026-05-02T13:55:11.000Z</time>
      </trkpt>
      <trkpt lat="44.84319" lon="0.78892">
        <ele>85</ele>
        <time>2026-05-02T13:55:12.000Z</time>
      </trkpt>
      <trkpt lat="44.84319" lon="0.78892">
        <ele>85</ele>
        <time>2026-05-02T13:55:13.000Z</time>
      </trkpt>
      <trkpt lat="44.84319" lon="0.78892">
        <ele>85</ele>
        <time>2026-05-02T13:55:14.000Z</time>
      </trkpt>
      <trkpt lat="44.84319" lon="0.78892">
        <ele>85</ele>
        <time>2026-05-02T13:55:15.000Z</time>
      </trkpt>
      <trkpt lat="44.84319" lon="0.78892">
        <ele>85</ele>
        <time>2026-05-02T13:55:16.000Z</time>
      </trkpt>
      <trkpt lat="44.84319" lon="0.78892">
        <ele>85</ele>
        <time>2026-05-02T13:55:17.000Z</time>
      </trkpt>
      <trkpt lat="44.84319" lon="0.78892">
        <ele>85</ele>
        <time>2026-05-02T13:55:18.000Z</time>
      </trkpt>
      <trkpt lat="44.84319" lon="0.78892">
        <ele>85</ele>
        <time>2026-05-02T13:55:19.000Z</time>
      </trkpt>
      <trkpt lat="44.84319" lon="0.78892">
        <ele>85</ele>
        <time>2026-05-02T13:55:20.000Z</time>
      </trkpt>
      <trkpt lat="44.84319" lon="0.78892">
        <ele>85</ele>
        <time>2026-05-02T13:55:21.000Z</time>
      </trkpt>
      <trkpt lat="44.84319" lon="0.78892">
        <ele>85</ele>
        <time>2026-05-02T13:55:22.000Z</time>
      </trkpt>
      <trkpt lat="44.84319" lon="0.78892">
        <ele>85</ele>
        <time>2026-05-02T13:55:23.000Z</time>
      </trkpt>
      <trkpt lat="44.84319" lon="0.78892">
        <ele>85</ele>
        <time>2026-05-02T13:55:24.000Z</time>
      </trkpt>
      <trkpt lat="44.84319" lon="0.78892">
        <ele>85</ele>
        <time>2026-05-02T13:55:25.000Z</time>
      </trkpt>
      <trkpt lat="44.84319" lon="0.78892">
        <ele>85</ele>
        <time>2026-05-02T13:55:26.000Z</time>
      </trkpt>
      <trkpt lat="44.84319" lon="0.78892">
        <ele>85</ele>
        <time>2026-05-02T13:55:27.000Z</time>
      </trkpt>
      <trkpt lat="44.84319" lon="0.78892">
        <ele>85</ele>
        <time>2026-05-02T13:55:28.000Z</time>
      </trkpt>
      <trkpt lat="44.84319" lon="0.78892">
        <ele>85</ele>
        <time>2026-05-02T13:55:29.000Z</time>
      </trkpt>
      <trkpt lat="44.84319" lon="0.78892">
        <ele>85</ele>
        <time>2026-05-02T13:55:30.000Z</time>
      </trkpt>
      <trkpt lat="44.84319" lon="0.78892">
        <ele>85</ele>
        <time>2026-05-02T13:55:31.000Z</time>
      </trkpt>
      <trkpt lat="44.84319" lon="0.78892">
        <ele>84.8</ele>
        <time>2026-05-02T13:55:32.000Z</time>
      </trkpt>
      <trkpt lat="44.84319" lon="0.78892">
        <ele>84.8</ele>
        <time>2026-05-02T13:55:33.000Z</time>
      </trkpt>
      <trkpt lat="44.84319" lon="0.78891">
        <ele>84.7</ele>
        <time>2026-05-02T13:55:34.000Z</time>
      </trkpt>
      <trkpt lat="44.84319" lon="0.78891">
        <ele>85.2</ele>
        <time>2026-05-02T13:55:35.000Z</time>
      </trkpt>
      <trkpt lat="44.84319" lon="0.78891">
        <ele>85.2</ele>
        <time>2026-05-02T13:55:36.000Z</time>
      </trkpt>
      <trkpt lat="44.84319" lon="0.78891">
        <ele>85.2</ele>
        <time>2026-05-02T13:55:37.000Z</time>
      </trkpt>
      <trkpt lat="44.84319" lon="0.78891">
        <ele>85.2</ele>
        <time>2026-05-02T13:55:38.000Z</time>
      </trkpt>
      <trkpt lat="44.84319" lon="0.78891">
        <ele>85.2</ele>
        <time>2026-05-02T13:55:39.000Z</time>
      </trkpt>
      <trkpt lat="44.84319" lon="0.78891">
        <ele>85.2</ele>
        <time>2026-05-02T13:55:40.000Z</time>
      </trkpt>
      <trkpt lat="44.84319" lon="0.78891">
        <ele>85.2</ele>
        <time>2026-05-02T13:55:41.000Z</time>
      </trkpt>
      <trkpt lat="44.84319" lon="0.78891">
        <ele>85.2</ele>
        <time>2026-05-02T13:55:42.000Z</time>
      </trkpt>
      <trkpt lat="44.84319" lon="0.78891">
        <ele>85.2</ele>
        <time>2026-05-02T13:55:43.000Z</time>
      </trkpt>
      <trkpt lat="44.84319" lon="0.78891">
        <ele>85.2</ele>
        <time>2026-05-02T13:55:44.000Z</time>
      </trkpt>
      <trkpt lat="44.84319" lon="0.78891">
        <ele>85.2</ele>
        <time>2026-05-02T13:55:45.000Z</time>
      </trkpt>
      <trkpt lat="44.84319" lon="0.78891">
        <ele>85.2</ele>
        <time>2026-05-02T13:55:46.000Z</time>
      </trkpt>
      <trkpt lat="44.84319" lon="0.78891">
        <ele>85.2</ele>
        <time>2026-05-02T13:55:47.000Z</time>
      </trkpt>
      <trkpt lat="44.84319" lon="0.78891">
        <ele>85.2</ele>
        <time>2026-05-02T13:55:48.000Z</time>
      </trkpt>
      <trkpt lat="44.84319" lon="0.78891">
        <ele>85.1</ele>
        <time>2026-05-02T13:55:49.000Z</time>
      </trkpt>
      <trkpt lat="44.84319" lon="0.78891">
        <ele>85.1</ele>
        <time>2026-05-02T13:55:50.000Z</time>
      </trkpt>
      <trkpt lat="44.84319" lon="0.78891">
        <ele>85.1</ele>
        <time>2026-05-02T13:55:51.000Z</time>
      </trkpt>
      <trkpt lat="44.84319" lon="0.78891">
        <ele>85.1</ele>
        <time>2026-05-02T13:55:52.000Z</time>
      </trkpt>
      <trkpt lat="44.84319" lon="0.78891">
        <ele>85.1</ele>
        <time>2026-05-02T13:55:53.000Z</time>
      </trkpt>
      <trkpt lat="44.84319" lon="0.78891">
        <ele>84.9</ele>
        <time>2026-05-02T13:55:54.000Z</time>
      </trkpt>
      <trkpt lat="44.84318" lon="0.78892">
        <ele>84.5</ele>
        <time>2026-05-02T13:55:55.000Z</time>
      </trkpt>
      <trkpt lat="44.84318" lon="0.78892">
        <ele>85.3</ele>
        <time>2026-05-02T13:55:56.000Z</time>
      </trkpt>
      <trkpt lat="44.84317" lon="0.78892">
        <ele>84</ele>
        <time>2026-05-02T13:55:57.000Z</time>
      </trkpt>
      <trkpt lat="44.84317" lon="0.78892">
        <ele>84</ele>
        <time>2026-05-02T13:55:58.000Z</time>
      </trkpt>
      <trkpt lat="44.84317" lon="0.78892">
        <ele>83.9</ele>
        <time>2026-05-02T13:55:59.000Z</time>
      </trkpt>
      <trkpt lat="44.84317" lon="0.78892">
        <ele>83.9</ele>
        <time>2026-05-02T13:56:00.000Z</time>
      </trkpt>
      <trkpt lat="44.84317" lon="0.78892">
        <ele>83.9</ele>
        <time>2026-05-02T13:56:01.000Z</time>
      </trkpt>
      <trkpt lat="44.84317" lon="0.78892">
        <ele>83.4</ele>
        <time>2026-05-02T13:56:02.000Z</time>
      </trkpt>
      <trkpt lat="44.84317" lon="0.78893">
        <ele>83.4</ele>
        <time>2026-05-02T13:56:03.000Z</time>
      </trkpt>
      <trkpt lat="44.84317" lon="0.78893">
        <ele>83.5</ele>
        <time>2026-05-02T13:56:04.000Z</time>
      </trkpt>
      <trkpt lat="44.84317" lon="0.78893">
        <ele>83.5</ele>
        <time>2026-05-02T13:56:05.000Z</time>
      </trkpt>
      <trkpt lat="44.84317" lon="0.78893">
        <ele>83.5</ele>
        <time>2026-05-02T13:56:06.000Z</time>
      </trkpt>
      <trkpt lat="44.84317" lon="0.78893">
        <ele>83.5</ele>
        <time>2026-05-02T13:56:07.000Z</time>
      </trkpt>
      <trkpt lat="44.84317" lon="0.78893">
        <ele>83.5</ele>
        <time>2026-05-02T13:56:08.000Z</time>
      </trkpt>
      <trkpt lat="44.84317" lon="0.78893">
        <ele>83.4</ele>
        <time>2026-05-02T13:56:09.000Z</time>
      </trkpt>
      <trkpt lat="44.84318" lon="0.78893">
        <ele>83.2</ele>
        <time>2026-05-02T13:56:10.000Z</time>
      </trkpt>
      <trkpt lat="44.84318" lon="0.78893">
        <ele>83.2</ele>
        <time>2026-05-02T13:56:11.000Z</time>
      </trkpt>
      <trkpt lat="44.84318" lon="0.78893">
        <ele>83.2</ele>
        <time>2026-05-02T13:56:12.000Z</time>
      </trkpt>
      <trkpt lat="44.84318" lon="0.78893">
        <ele>83.2</ele>
        <time>2026-05-02T13:56:13.000Z</time>
      </trkpt>
      <trkpt lat="44.84318" lon="0.78893">
        <ele>83.2</ele>
        <time>2026-05-02T13:56:14.000Z</time>
      </trkpt>
      <trkpt lat="44.84318" lon="0.78893">
        <ele>83.2</ele>
        <time>2026-05-02T13:56:15.000Z</time>
      </trkpt>
      <trkpt lat="44.84318" lon="0.78893">
        <ele>83.2</ele>
        <time>2026-05-02T13:56:16.000Z</time>
      </trkpt>
      <trkpt lat="44.84318" lon="0.78893">
        <ele>83.2</ele>
        <time>2026-05-02T13:56:17.000Z</time>
      </trkpt>
      <trkpt lat="44.84318" lon="0.78893">
        <ele>83.2</ele>
        <time>2026-05-02T13:56:18.000Z</time>
      </trkpt>
      <trkpt lat="44.84318" lon="0.78893">
        <ele>83.2</ele>
        <time>2026-05-02T13:56:19.000Z</time>
      </trkpt>
      <trkpt lat="44.84318" lon="0.78893">
        <ele>83.2</ele>
        <time>2026-05-02T13:56:20.000Z</time>
      </trkpt>
      <trkpt lat="44.84318" lon="0.78893">
        <ele>83</ele>
        <time>2026-05-02T13:56:21.000Z</time>
      </trkpt>
      <trkpt lat="44.84317" lon="0.78893">
        <ele>82.4</ele>
        <time>2026-05-02T13:56:22.000Z</time>
      </trkpt>
      <trkpt lat="44.84317" lon="0.78893">
        <ele>82.4</ele>
        <time>2026-05-02T13:56:23.000Z</time>
      </trkpt>
      <trkpt lat="44.84317" lon="0.78891">
        <ele>82</ele>
        <time>2026-05-02T13:56:24.000Z</time>
      </trkpt>
      <trkpt lat="44.84317" lon="0.78891">
        <ele>82</ele>
        <time>2026-05-02T13:56:25.000Z</time>
      </trkpt>
      <trkpt lat="44.84317" lon="0.78891">
        <ele>82</ele>
        <time>2026-05-02T13:56:26.000Z</time>
      </trkpt>
      <trkpt lat="44.84317" lon="0.78891">
        <ele>82</ele>
        <time>2026-05-02T13:56:27.000Z</time>
      </trkpt>
      <trkpt lat="44.84317" lon="0.78891">
        <ele>82</ele>
        <time>2026-05-02T13:56:28.000Z</time>
      </trkpt>
      <trkpt lat="44.84317" lon="0.78891">
        <ele>81.9</ele>
        <time>2026-05-02T13:56:29.000Z</time>
      </trkpt>
      <trkpt lat="44.84316" lon="0.78891">
        <ele>81.9</ele>
        <time>2026-05-02T13:56:30.000Z</time>
      </trkpt>
      <trkpt lat="44.84316" lon="0.78891">
        <ele>81.9</ele>
        <time>2026-05-02T13:56:31.000Z</time>
      </trkpt>
      <trkpt lat="44.84316" lon="0.78891">
        <ele>81.9</ele>
        <time>2026-05-02T13:56:32.000Z</time>
      </trkpt>
      <trkpt lat="44.84316" lon="0.78891">
        <ele>82.2</ele>
        <time>2026-05-02T13:56:33.000Z</time>
      </trkpt>
      <trkpt lat="44.84316" lon="0.78891">
        <ele>82.2</ele>
        <time>2026-05-02T13:56:34.000Z</time>
      </trkpt>
      <trkpt lat="44.84316" lon="0.78891">
        <ele>82.2</ele>
        <time>2026-05-02T13:56:35.000Z</time>
      </trkpt>
      <trkpt lat="44.84316" lon="0.78891">
        <ele>82.2</ele>
        <time>2026-05-02T13:56:36.000Z</time>
      </trkpt>
      <trkpt lat="44.84316" lon="0.78891">
        <ele>82.5</ele>
        <time>2026-05-02T13:56:37.000Z</time>
      </trkpt>
      <trkpt lat="44.84316" lon="0.7889">
        <ele>82.6</ele>
        <time>2026-05-02T13:56:38.000Z</time>
      </trkpt>
      <trkpt lat="44.84316" lon="0.78888">
        <ele>81.7</ele>
        <time>2026-05-02T13:56:39.000Z</time>
      </trkpt>
      <trkpt lat="44.84316" lon="0.78885">
        <ele>81.3</ele>
        <time>2026-05-02T13:56:40.000Z</time>
      </trkpt>
      <trkpt lat="44.84316" lon="0.78883">
        <ele>81</ele>
        <time>2026-05-02T13:56:41.000Z</time>
      </trkpt>
      <trkpt lat="44.84316" lon="0.78881">
        <ele>80.5</ele>
        <time>2026-05-02T13:56:42.000Z</time>
      </trkpt>
      <trkpt lat="44.84316" lon="0.7888">
        <ele>80.3</ele>
        <time>2026-05-02T13:56:43.000Z</time>
      </trkpt>
      <trkpt lat="44.84315" lon="0.78878">
        <ele>81</ele>
        <time>2026-05-02T13:56:44.000Z</time>
      </trkpt>
      <trkpt lat="44.84314" lon="0.78877">
        <ele>81.3</ele>
        <time>2026-05-02T13:56:45.000Z</time>
      </trkpt>
      <trkpt lat="44.84314" lon="0.78876">
        <ele>81.9</ele>
        <time>2026-05-02T13:56:46.000Z</time>
      </trkpt>
      <trkpt lat="44.84313" lon="0.78875">
        <ele>83.3</ele>
        <time>2026-05-02T13:56:47.000Z</time>
      </trkpt>
      <trkpt lat="44.84313" lon="0.78874">
        <ele>84.7</ele>
        <time>2026-05-02T13:56:48.000Z</time>
      </trkpt>
      <trkpt lat="44.84312" lon="0.78873">
        <ele>85.5</ele>
        <time>2026-05-02T13:56:49.000Z</time>
      </trkpt>
      <trkpt lat="44.84311" lon="0.78872">
        <ele>86.1</ele>
        <time>2026-05-02T13:56:50.000Z</time>
      </trkpt>
      <trkpt lat="44.84311" lon="0.78871">
        <ele>85.7</ele>
        <time>2026-05-02T13:56:51.000Z</time>
      </trkpt>
      <trkpt lat="44.84311" lon="0.78869">
        <ele>88.5</ele>
        <time>2026-05-02T13:56:52.000Z</time>
      </trkpt>
      <trkpt lat="44.8431" lon="0.78868">
        <ele>89.5</ele>
        <time>2026-05-02T13:56:53.000Z</time>
      </trkpt>
      <trkpt lat="44.84309" lon="0.78867">
        <ele>89.1</ele>
        <time>2026-05-02T13:56:54.000Z</time>
      </trkpt>
      <trkpt lat="44.84308" lon="0.78865">
        <ele>87.8</ele>
        <time>2026-05-02T13:56:55.000Z</time>
      </trkpt>
      <trkpt lat="44.84307" lon="0.78864">
        <ele>87.6</ele>
        <time>2026-05-02T13:56:56.000Z</time>
      </trkpt>
      <trkpt lat="44.84307" lon="0.78862">
        <ele>87.3</ele>
        <time>2026-05-02T13:56:57.000Z</time>
      </trkpt>
      <trkpt lat="44.84306" lon="0.7886">
        <ele>86.4</ele>
        <time>2026-05-02T13:56:58.000Z</time>
      </trkpt>
      <trkpt lat="44.84305" lon="0.78859">
        <ele>86.2</ele>
        <time>2026-05-02T13:56:59.000Z</time>
      </trkpt>
      <trkpt lat="44.84305" lon="0.78857">
        <ele>85.1</ele>
        <time>2026-05-02T13:57:00.000Z</time>
      </trkpt>
      <trkpt lat="44.84304" lon="0.78855">
        <ele>84.8</ele>
        <time>2026-05-02T13:57:01.000Z</time>
      </trkpt>
      <trkpt lat="44.84303" lon="0.78853">
        <ele>85.3</ele>
        <time>2026-05-02T13:57:02.000Z</time>
      </trkpt>
      <trkpt lat="44.84303" lon="0.78851">
        <ele>86.8</ele>
        <time>2026-05-02T13:57:03.000Z</time>
      </trkpt>
      <trkpt lat="44.84303" lon="0.78849">
        <ele>88.1</ele>
        <time>2026-05-02T13:57:04.000Z</time>
      </trkpt>
      <trkpt lat="44.84303" lon="0.78846">
        <ele>88.6</ele>
        <time>2026-05-02T13:57:05.000Z</time>
      </trkpt>
      <trkpt lat="44.84302" lon="0.78844">
        <ele>89.2</ele>
        <time>2026-05-02T13:57:06.000Z</time>
      </trkpt>
      <trkpt lat="44.84302" lon="0.78842">
        <ele>89.2</ele>
        <time>2026-05-02T13:57:07.000Z</time>
      </trkpt>
      <trkpt lat="44.84301" lon="0.78839">
        <ele>89.3</ele>
        <time>2026-05-02T13:57:08.000Z</time>
      </trkpt>
      <trkpt lat="44.843" lon="0.78837">
        <ele>88.8</ele>
        <time>2026-05-02T13:57:09.000Z</time>
      </trkpt>
      <trkpt lat="44.843" lon="0.78835">
        <ele>88.4</ele>
        <time>2026-05-02T13:57:10.000Z</time>
      </trkpt>
      <trkpt lat="44.84299" lon="0.78833">
        <ele>88.2</ele>
        <time>2026-05-02T13:57:11.000Z</time>
      </trkpt>
      <trkpt lat="44.84298" lon="0.7883">
        <ele>88.5</ele>
        <time>2026-05-02T13:57:12.000Z</time>
      </trkpt>
      <trkpt lat="44.84297" lon="0.78828">
        <ele>89</ele>
        <time>2026-05-02T13:57:13.000Z</time>
      </trkpt>
      <trkpt lat="44.84296" lon="0.78826">
        <ele>89.3</ele>
        <time>2026-05-02T13:57:14.000Z</time>
      </trkpt>
      <trkpt lat="44.84295" lon="0.78824">
        <ele>89.1</ele>
        <time>2026-05-02T13:57:15.000Z</time>
      </trkpt>
      <trkpt lat="44.84295" lon="0.78822">
        <ele>88.7</ele>
        <time>2026-05-02T13:57:16.000Z</time>
      </trkpt>
      <trkpt lat="44.84294" lon="0.7882">
        <ele>88.6</ele>
        <time>2026-05-02T13:57:17.000Z</time>
      </trkpt>
      <trkpt lat="44.84294" lon="0.78818">
        <ele>89.3</ele>
        <time>2026-05-02T13:57:18.000Z</time>
      </trkpt>
      <trkpt lat="44.84293" lon="0.78816">
        <ele>89.5</ele>
        <time>2026-05-02T13:57:19.000Z</time>
      </trkpt>
      <trkpt lat="44.84292" lon="0.78815">
        <ele>89</ele>
        <time>2026-05-02T13:57:20.000Z</time>
      </trkpt>
      <trkpt lat="44.84291" lon="0.78813">
        <ele>89.8</ele>
        <time>2026-05-02T13:57:21.000Z</time>
      </trkpt>
    </trkseg>
  </trk>
</gpx>